<?xml version="1.0" encoding="UTF-8" standalone="no" ?>
<gpx xmlns="http://www.topografix.com/GPX/1/1" xmlns:xsi="http://www.w3.org/2001/XMLSchema-instance" xsi:schemaLocation="http://www.topografix.com/GPX/1/1 http://www.topografix.com/GPX/1/1/gpx.xsd" version="1.1" creator="VisuGPX - https://www.visugpx.com">
  <metadata>
    <name>GR12A Balisage Prémontré/Bourguignon</name>
  </metadata>
  <trk>
    <name><![CDATA[GR12A Balisage Prémontré/Bourguignon_1]]></name>
    <trkseg>
      <trkpt lat="49.54272" lon="3.41119">
        <ele>91.2</ele>
        <time>2023-08-18T06:01:36Z</time>
      </trkpt>
      <trkpt lat="49.54272" lon="3.41118">
        <ele>92.4</ele>
        <time>2023-08-18T06:01:40Z</time>
      </trkpt>
      <trkpt lat="49.54272" lon="3.41118">
        <ele>92.4</ele>
        <time>2023-08-18T06:01:42Z</time>
      </trkpt>
      <trkpt lat="49.54273" lon="3.41116">
        <ele>92.4</ele>
        <time>2023-08-18T06:01:50Z</time>
      </trkpt>
      <trkpt lat="49.54271" lon="3.41115">
        <ele>92.4</ele>
        <time>2023-08-18T06:01:55Z</time>
      </trkpt>
      <trkpt lat="49.54271" lon="3.41115">
        <ele>92.4</ele>
        <time>2023-08-18T06:02:01Z</time>
      </trkpt>
      <trkpt lat="49.54271" lon="3.41115">
        <ele>92.4</ele>
        <time>2023-08-18T06:02:09Z</time>
      </trkpt>
      <trkpt lat="49.54272" lon="3.41114">
        <ele>92.4</ele>
        <time>2023-08-18T06:02:15Z</time>
      </trkpt>
      <trkpt lat="49.54274" lon="3.41114">
        <ele>92.4</ele>
        <time>2023-08-18T06:02:16Z</time>
      </trkpt>
      <trkpt lat="49.54277" lon="3.41118">
        <ele>92.4</ele>
        <time>2023-08-18T06:02:19Z</time>
      </trkpt>
      <trkpt lat="49.54277" lon="3.41126">
        <ele>92.4</ele>
        <time>2023-08-18T06:02:24Z</time>
      </trkpt>
      <trkpt lat="49.54278" lon="3.41128">
        <ele>92.4</ele>
        <time>2023-08-18T06:02:25Z</time>
      </trkpt>
      <trkpt lat="49.54279" lon="3.41132">
        <ele>92.4</ele>
        <time>2023-08-18T06:02:28Z</time>
      </trkpt>
      <trkpt lat="49.5428" lon="3.41137">
        <ele>92.4</ele>
        <time>2023-08-18T06:02:31Z</time>
      </trkpt>
      <trkpt lat="49.5428" lon="3.41138">
        <ele>92.4</ele>
        <time>2023-08-18T06:02:32Z</time>
      </trkpt>
      <trkpt lat="49.54279" lon="3.41142">
        <ele>92.4</ele>
        <time>2023-08-18T06:02:36Z</time>
      </trkpt>
      <trkpt lat="49.54279" lon="3.41143">
        <ele>92.4</ele>
        <time>2023-08-18T06:02:37Z</time>
      </trkpt>
      <trkpt lat="49.54275" lon="3.41145">
        <ele>92.4</ele>
        <time>2023-08-18T06:02:42Z</time>
      </trkpt>
      <trkpt lat="49.54274" lon="3.41146">
        <ele>92.4</ele>
        <time>2023-08-18T06:02:43Z</time>
      </trkpt>
      <trkpt lat="49.54269" lon="3.4115">
        <ele>92.4</ele>
        <time>2023-08-18T06:02:50Z</time>
      </trkpt>
      <trkpt lat="49.54264" lon="3.41152">
        <ele>92.4</ele>
        <time>2023-08-18T06:02:55Z</time>
      </trkpt>
      <trkpt lat="49.54263" lon="3.41152">
        <ele>92.4</ele>
        <time>2023-08-18T06:02:56Z</time>
      </trkpt>
      <trkpt lat="49.54258" lon="3.41155">
        <ele>92.4</ele>
        <time>2023-08-18T06:03:00Z</time>
      </trkpt>
      <trkpt lat="49.5425" lon="3.41158">
        <ele>92.4</ele>
        <time>2023-08-18T06:03:06Z</time>
      </trkpt>
      <trkpt lat="49.5425" lon="3.41159">
        <ele>92.4</ele>
        <time>2023-08-18T06:03:07Z</time>
      </trkpt>
      <trkpt lat="49.54248" lon="3.41164">
        <ele>92.4</ele>
        <time>2023-08-18T06:03:12Z</time>
      </trkpt>
      <trkpt lat="49.54247" lon="3.41166">
        <ele>92.4</ele>
        <time>2023-08-18T06:03:14Z</time>
      </trkpt>
      <trkpt lat="49.54245" lon="3.41167">
        <ele>92.4</ele>
        <time>2023-08-18T06:03:16Z</time>
      </trkpt>
      <trkpt lat="49.54245" lon="3.41167">
        <ele>92.4</ele>
        <time>2023-08-18T06:03:17Z</time>
      </trkpt>
      <trkpt lat="49.5424" lon="3.41168">
        <ele>92.4</ele>
        <time>2023-08-18T06:03:21Z</time>
      </trkpt>
      <trkpt lat="49.54238" lon="3.41169">
        <ele>92.4</ele>
        <time>2023-08-18T06:03:27Z</time>
      </trkpt>
      <trkpt lat="49.54238" lon="3.41169">
        <ele>92.4</ele>
        <time>2023-08-18T06:03:34Z</time>
      </trkpt>
      <trkpt lat="49.54238" lon="3.41169">
        <ele>92</ele>
        <time>2023-08-18T06:03:35Z</time>
      </trkpt>
      <trkpt lat="49.54238" lon="3.41169">
        <ele>91.4</ele>
        <time>2023-08-18T06:03:36Z</time>
      </trkpt>
      <trkpt lat="49.54238" lon="3.41169">
        <ele>91</ele>
        <time>2023-08-18T06:03:37Z</time>
      </trkpt>
      <trkpt lat="49.54238" lon="3.41169">
        <ele>90.4</ele>
        <time>2023-08-18T06:03:38Z</time>
      </trkpt>
      <trkpt lat="49.54238" lon="3.41169">
        <ele>90</ele>
        <time>2023-08-18T06:03:39Z</time>
      </trkpt>
      <trkpt lat="49.54238" lon="3.41169">
        <ele>90</ele>
        <time>2023-08-18T06:03:40Z</time>
      </trkpt>
      <trkpt lat="49.54238" lon="3.41169">
        <ele>90</ele>
        <time>2023-08-18T06:03:48Z</time>
      </trkpt>
      <trkpt lat="49.54238" lon="3.41169">
        <ele>90</ele>
        <time>2023-08-18T06:03:59Z</time>
      </trkpt>
      <trkpt lat="49.54238" lon="3.41169">
        <ele>90</ele>
        <time>2023-08-18T06:04:11Z</time>
      </trkpt>
      <trkpt lat="49.54238" lon="3.41169">
        <ele>90</ele>
        <time>2023-08-18T06:04:19Z</time>
      </trkpt>
      <trkpt lat="49.54238" lon="3.41169">
        <ele>90</ele>
        <time>2023-08-18T06:04:26Z</time>
      </trkpt>
      <trkpt lat="49.54238" lon="3.41169">
        <ele>90</ele>
        <time>2023-08-18T06:04:35Z</time>
      </trkpt>
      <trkpt lat="49.54238" lon="3.4117">
        <ele>90</ele>
        <time>2023-08-18T06:04:42Z</time>
      </trkpt>
      <trkpt lat="49.54237" lon="3.41171">
        <ele>90</ele>
        <time>2023-08-18T06:04:49Z</time>
      </trkpt>
      <trkpt lat="49.54237" lon="3.41171">
        <ele>90</ele>
        <time>2023-08-18T06:04:55Z</time>
      </trkpt>
      <trkpt lat="49.54237" lon="3.41171">
        <ele>90</ele>
        <time>2023-08-18T06:05:02Z</time>
      </trkpt>
      <trkpt lat="49.54237" lon="3.41171">
        <ele>90</ele>
        <time>2023-08-18T06:05:09Z</time>
      </trkpt>
      <trkpt lat="49.54236" lon="3.41171">
        <ele>90</ele>
        <time>2023-08-18T06:05:16Z</time>
      </trkpt>
      <trkpt lat="49.54236" lon="3.41171">
        <ele>90</ele>
        <time>2023-08-18T06:05:25Z</time>
      </trkpt>
      <trkpt lat="49.54236" lon="3.41172">
        <ele>90</ele>
        <time>2023-08-18T06:05:31Z</time>
      </trkpt>
      <trkpt lat="49.54236" lon="3.41173">
        <ele>90</ele>
        <time>2023-08-18T06:05:32Z</time>
      </trkpt>
      <trkpt lat="49.54237" lon="3.41176">
        <ele>90</ele>
        <time>2023-08-18T06:05:37Z</time>
      </trkpt>
      <trkpt lat="49.54236" lon="3.4118">
        <ele>90</ele>
        <time>2023-08-18T06:05:38Z</time>
      </trkpt>
      <trkpt lat="49.54238" lon="3.41186">
        <ele>90</ele>
        <time>2023-08-18T06:05:41Z</time>
      </trkpt>
      <trkpt lat="49.54239" lon="3.41185">
        <ele>90</ele>
        <time>2023-08-18T06:05:46Z</time>
      </trkpt>
      <trkpt lat="49.5424" lon="3.41182">
        <ele>90</ele>
        <time>2023-08-18T06:05:47Z</time>
      </trkpt>
      <trkpt lat="49.54239" lon="3.41178">
        <ele>90</ele>
        <time>2023-08-18T06:05:51Z</time>
      </trkpt>
      <trkpt lat="49.54239" lon="3.41172">
        <ele>90</ele>
        <time>2023-08-18T06:05:57Z</time>
      </trkpt>
      <trkpt lat="49.54239" lon="3.41172">
        <ele>90</ele>
        <time>2023-08-18T06:06:03Z</time>
      </trkpt>
      <trkpt lat="49.54239" lon="3.41172">
        <ele>90</ele>
        <time>2023-08-18T06:06:10Z</time>
      </trkpt>
      <trkpt lat="49.54239" lon="3.41172">
        <ele>90</ele>
        <time>2023-08-18T06:06:17Z</time>
      </trkpt>
      <trkpt lat="49.54239" lon="3.41172">
        <ele>90</ele>
        <time>2023-08-18T06:06:26Z</time>
      </trkpt>
      <trkpt lat="49.54239" lon="3.41172">
        <ele>90</ele>
        <time>2023-08-18T06:06:35Z</time>
      </trkpt>
      <trkpt lat="49.54239" lon="3.41172">
        <ele>90</ele>
        <time>2023-08-18T06:06:42Z</time>
      </trkpt>
      <trkpt lat="49.54239" lon="3.41172">
        <ele>90</ele>
        <time>2023-08-18T06:06:49Z</time>
      </trkpt>
      <trkpt lat="49.54239" lon="3.41171">
        <ele>90</ele>
        <time>2023-08-18T06:06:56Z</time>
      </trkpt>
      <trkpt lat="49.54239" lon="3.41171">
        <ele>90</ele>
        <time>2023-08-18T06:07:03Z</time>
      </trkpt>
      <trkpt lat="49.54239" lon="3.41171">
        <ele>90</ele>
        <time>2023-08-18T06:07:11Z</time>
      </trkpt>
      <trkpt lat="49.54239" lon="3.41171">
        <ele>90</ele>
        <time>2023-08-18T06:07:20Z</time>
      </trkpt>
      <trkpt lat="49.54239" lon="3.41171">
        <ele>90</ele>
        <time>2023-08-18T06:07:30Z</time>
      </trkpt>
      <trkpt lat="49.54239" lon="3.41171">
        <ele>90</ele>
        <time>2023-08-18T06:07:37Z</time>
      </trkpt>
      <trkpt lat="49.54239" lon="3.41171">
        <ele>90</ele>
        <time>2023-08-18T06:07:44Z</time>
      </trkpt>
      <trkpt lat="49.54239" lon="3.41171">
        <ele>90</ele>
        <time>2023-08-18T06:07:49Z</time>
      </trkpt>
      <trkpt lat="49.54239" lon="3.41171">
        <ele>90</ele>
        <time>2023-08-18T06:07:56Z</time>
      </trkpt>
      <trkpt lat="49.54239" lon="3.41172">
        <ele>90</ele>
        <time>2023-08-18T06:08:02Z</time>
      </trkpt>
      <trkpt lat="49.54239" lon="3.41171">
        <ele>90</ele>
        <time>2023-08-18T06:08:07Z</time>
      </trkpt>
      <trkpt lat="49.54239" lon="3.41172">
        <ele>90</ele>
        <time>2023-08-18T06:08:12Z</time>
      </trkpt>
      <trkpt lat="49.54238" lon="3.41171">
        <ele>90</ele>
        <time>2023-08-18T06:08:20Z</time>
      </trkpt>
      <trkpt lat="49.54238" lon="3.41171">
        <ele>90</ele>
        <time>2023-08-18T06:08:29Z</time>
      </trkpt>
      <trkpt lat="49.54238" lon="3.41171">
        <ele>90</ele>
        <time>2023-08-18T06:08:35Z</time>
      </trkpt>
      <trkpt lat="49.54238" lon="3.41171">
        <ele>90</ele>
        <time>2023-08-18T06:08:42Z</time>
      </trkpt>
      <trkpt lat="49.54238" lon="3.41172">
        <ele>90</ele>
        <time>2023-08-18T06:08:49Z</time>
      </trkpt>
      <trkpt lat="49.54238" lon="3.41172">
        <ele>90</ele>
        <time>2023-08-18T06:08:58Z</time>
      </trkpt>
      <trkpt lat="49.54239" lon="3.41173">
        <ele>90</ele>
        <time>2023-08-18T06:09:06Z</time>
      </trkpt>
      <trkpt lat="49.54239" lon="3.41173">
        <ele>90</ele>
        <time>2023-08-18T06:09:15Z</time>
      </trkpt>
      <trkpt lat="49.54239" lon="3.41174">
        <ele>90</ele>
        <time>2023-08-18T06:09:27Z</time>
      </trkpt>
      <trkpt lat="49.54239" lon="3.41175">
        <ele>90</ele>
        <time>2023-08-18T06:09:31Z</time>
      </trkpt>
      <trkpt lat="49.5424" lon="3.41182">
        <ele>90</ele>
        <time>2023-08-18T06:09:33Z</time>
      </trkpt>
      <trkpt lat="49.54241" lon="3.41188">
        <ele>90</ele>
        <time>2023-08-18T06:09:35Z</time>
      </trkpt>
      <trkpt lat="49.54244" lon="3.41195">
        <ele>90</ele>
        <time>2023-08-18T06:09:39Z</time>
      </trkpt>
      <trkpt lat="49.54241" lon="3.41202">
        <ele>90</ele>
        <time>2023-08-18T06:09:45Z</time>
      </trkpt>
      <trkpt lat="49.54235" lon="3.41208">
        <ele>90</ele>
        <time>2023-08-18T06:09:51Z</time>
      </trkpt>
      <trkpt lat="49.54231" lon="3.41215">
        <ele>90</ele>
        <time>2023-08-18T06:09:55Z</time>
      </trkpt>
      <trkpt lat="49.5423" lon="3.41215">
        <ele>90</ele>
        <time>2023-08-18T06:09:56Z</time>
      </trkpt>
      <trkpt lat="49.54225" lon="3.41219">
        <ele>90</ele>
        <time>2023-08-18T06:10:02Z</time>
      </trkpt>
      <trkpt lat="49.54222" lon="3.41223">
        <ele>90</ele>
        <time>2023-08-18T06:10:05Z</time>
      </trkpt>
      <trkpt lat="49.54221" lon="3.41225">
        <ele>90</ele>
        <time>2023-08-18T06:10:07Z</time>
      </trkpt>
      <trkpt lat="49.54219" lon="3.41226">
        <ele>90</ele>
        <time>2023-08-18T06:10:09Z</time>
      </trkpt>
      <trkpt lat="49.54216" lon="3.4123">
        <ele>90</ele>
        <time>2023-08-18T06:10:12Z</time>
      </trkpt>
      <trkpt lat="49.54211" lon="3.41238">
        <ele>90</ele>
        <time>2023-08-18T06:10:17Z</time>
      </trkpt>
      <trkpt lat="49.54209" lon="3.41243">
        <ele>90</ele>
        <time>2023-08-18T06:10:21Z</time>
      </trkpt>
      <trkpt lat="49.54207" lon="3.41247">
        <ele>90</ele>
        <time>2023-08-18T06:10:23Z</time>
      </trkpt>
      <trkpt lat="49.54204" lon="3.41254">
        <ele>90</ele>
        <time>2023-08-18T06:10:27Z</time>
      </trkpt>
      <trkpt lat="49.54202" lon="3.41257">
        <ele>90</ele>
        <time>2023-08-18T06:10:29Z</time>
      </trkpt>
      <trkpt lat="49.542" lon="3.4126">
        <ele>90</ele>
        <time>2023-08-18T06:10:32Z</time>
      </trkpt>
      <trkpt lat="49.54198" lon="3.41262">
        <ele>90</ele>
        <time>2023-08-18T06:10:35Z</time>
      </trkpt>
      <trkpt lat="49.54197" lon="3.41269">
        <ele>90</ele>
        <time>2023-08-18T06:10:38Z</time>
      </trkpt>
      <trkpt lat="49.54195" lon="3.41272">
        <ele>90</ele>
        <time>2023-08-18T06:10:39Z</time>
      </trkpt>
      <trkpt lat="49.54193" lon="3.41275">
        <ele>89.2</ele>
        <time>2023-08-18T06:10:41Z</time>
      </trkpt>
      <trkpt lat="49.54192" lon="3.41277">
        <ele>88.8</ele>
        <time>2023-08-18T06:10:42Z</time>
      </trkpt>
      <trkpt lat="49.54192" lon="3.41278">
        <ele>88.2</ele>
        <time>2023-08-18T06:10:43Z</time>
      </trkpt>
      <trkpt lat="49.54192" lon="3.41278">
        <ele>87.8</ele>
        <time>2023-08-18T06:10:44Z</time>
      </trkpt>
      <trkpt lat="49.54191" lon="3.41278">
        <ele>87.8</ele>
        <time>2023-08-18T06:10:45Z</time>
      </trkpt>
      <trkpt lat="49.54189" lon="3.41279">
        <ele>87.8</ele>
        <time>2023-08-18T06:10:48Z</time>
      </trkpt>
      <trkpt lat="49.54188" lon="3.4128">
        <ele>87.8</ele>
        <time>2023-08-18T06:10:49Z</time>
      </trkpt>
      <trkpt lat="49.54187" lon="3.41284">
        <ele>87.8</ele>
        <time>2023-08-18T06:10:51Z</time>
      </trkpt>
      <trkpt lat="49.54186" lon="3.41286">
        <ele>87.8</ele>
        <time>2023-08-18T06:10:52Z</time>
      </trkpt>
      <trkpt lat="49.54183" lon="3.4129">
        <ele>87.8</ele>
        <time>2023-08-18T06:10:56Z</time>
      </trkpt>
      <trkpt lat="49.54183" lon="3.4129">
        <ele>87.8</ele>
        <time>2023-08-18T06:10:57Z</time>
      </trkpt>
      <trkpt lat="49.54184" lon="3.41289">
        <ele>87.8</ele>
        <time>2023-08-18T06:11:03Z</time>
      </trkpt>
      <trkpt lat="49.54184" lon="3.41287">
        <ele>87.8</ele>
        <time>2023-08-18T06:11:04Z</time>
      </trkpt>
      <trkpt lat="49.54184" lon="3.41288">
        <ele>87.8</ele>
        <time>2023-08-18T06:11:08Z</time>
      </trkpt>
      <trkpt lat="49.54183" lon="3.41289">
        <ele>87.8</ele>
        <time>2023-08-18T06:11:09Z</time>
      </trkpt>
      <trkpt lat="49.54182" lon="3.41287">
        <ele>87.8</ele>
        <time>2023-08-18T06:11:11Z</time>
      </trkpt>
      <trkpt lat="49.54182" lon="3.41286">
        <ele>87.8</ele>
        <time>2023-08-18T06:11:16Z</time>
      </trkpt>
      <trkpt lat="49.54182" lon="3.41286">
        <ele>87.8</ele>
        <time>2023-08-18T06:11:27Z</time>
      </trkpt>
      <trkpt lat="49.54182" lon="3.41286">
        <ele>87.8</ele>
        <time>2023-08-18T06:11:35Z</time>
      </trkpt>
      <trkpt lat="49.54182" lon="3.41286">
        <ele>87.8</ele>
        <time>2023-08-18T06:11:43Z</time>
      </trkpt>
      <trkpt lat="49.54182" lon="3.41286">
        <ele>87.8</ele>
        <time>2023-08-18T06:11:49Z</time>
      </trkpt>
      <trkpt lat="49.54182" lon="3.41286">
        <ele>87.8</ele>
        <time>2023-08-18T06:11:57Z</time>
      </trkpt>
      <trkpt lat="49.54182" lon="3.41286">
        <ele>87.8</ele>
        <time>2023-08-18T06:12:10Z</time>
      </trkpt>
      <trkpt lat="49.54182" lon="3.41286">
        <ele>87.8</ele>
        <time>2023-08-18T06:12:20Z</time>
      </trkpt>
      <trkpt lat="49.54182" lon="3.41286">
        <ele>87.8</ele>
        <time>2023-08-18T06:12:25Z</time>
      </trkpt>
      <trkpt lat="49.54182" lon="3.41287">
        <ele>87.8</ele>
        <time>2023-08-18T06:12:29Z</time>
      </trkpt>
      <trkpt lat="49.54182" lon="3.41288">
        <ele>87.8</ele>
        <time>2023-08-18T06:12:35Z</time>
      </trkpt>
      <trkpt lat="49.54183" lon="3.41287">
        <ele>87.8</ele>
        <time>2023-08-18T06:12:48Z</time>
      </trkpt>
      <trkpt lat="49.54184" lon="3.41288">
        <ele>87.8</ele>
        <time>2023-08-18T06:12:51Z</time>
      </trkpt>
      <trkpt lat="49.54184" lon="3.41288">
        <ele>87.8</ele>
        <time>2023-08-18T06:12:52Z</time>
      </trkpt>
      <trkpt lat="49.54183" lon="3.41287">
        <ele>87.8</ele>
        <time>2023-08-18T06:12:56Z</time>
      </trkpt>
      <trkpt lat="49.54182" lon="3.41289">
        <ele>87.8</ele>
        <time>2023-08-18T06:13:02Z</time>
      </trkpt>
      <trkpt lat="49.54182" lon="3.41289">
        <ele>87.8</ele>
        <time>2023-08-18T06:13:03Z</time>
      </trkpt>
      <trkpt lat="49.54182" lon="3.41289">
        <ele>87.8</ele>
        <time>2023-08-18T06:13:08Z</time>
      </trkpt>
      <trkpt lat="49.54182" lon="3.41292">
        <ele>87.8</ele>
        <time>2023-08-18T06:13:16Z</time>
      </trkpt>
      <trkpt lat="49.54182" lon="3.41294">
        <ele>87.8</ele>
        <time>2023-08-18T06:13:17Z</time>
      </trkpt>
      <trkpt lat="49.54182" lon="3.41293">
        <ele>87.8</ele>
        <time>2023-08-18T06:13:20Z</time>
      </trkpt>
      <trkpt lat="49.54179" lon="3.41299">
        <ele>87.8</ele>
        <time>2023-08-18T06:13:24Z</time>
      </trkpt>
      <trkpt lat="49.54178" lon="3.41302">
        <ele>87.8</ele>
        <time>2023-08-18T06:13:28Z</time>
      </trkpt>
      <trkpt lat="49.54177" lon="3.41303">
        <ele>87.8</ele>
        <time>2023-08-18T06:13:33Z</time>
      </trkpt>
      <trkpt lat="49.54172" lon="3.41311">
        <ele>87.8</ele>
        <time>2023-08-18T06:13:39Z</time>
      </trkpt>
      <trkpt lat="49.5417" lon="3.41318">
        <ele>87.8</ele>
        <time>2023-08-18T06:13:42Z</time>
      </trkpt>
      <trkpt lat="49.54169" lon="3.41319">
        <ele>87.8</ele>
        <time>2023-08-18T06:13:43Z</time>
      </trkpt>
      <trkpt lat="49.54167" lon="3.41322">
        <ele>87.8</ele>
        <time>2023-08-18T06:13:46Z</time>
      </trkpt>
      <trkpt lat="49.54163" lon="3.41328">
        <ele>87.8</ele>
        <time>2023-08-18T06:13:53Z</time>
      </trkpt>
      <trkpt lat="49.54163" lon="3.4133">
        <ele>87.8</ele>
        <time>2023-08-18T06:13:54Z</time>
      </trkpt>
      <trkpt lat="49.5416" lon="3.41335">
        <ele>87.8</ele>
        <time>2023-08-18T06:13:57Z</time>
      </trkpt>
      <trkpt lat="49.54159" lon="3.41337">
        <ele>87.8</ele>
        <time>2023-08-18T06:13:58Z</time>
      </trkpt>
      <trkpt lat="49.54153" lon="3.41348">
        <ele>87.8</ele>
        <time>2023-08-18T06:14:03Z</time>
      </trkpt>
      <trkpt lat="49.54149" lon="3.41352">
        <ele>87.8</ele>
        <time>2023-08-18T06:14:07Z</time>
      </trkpt>
      <trkpt lat="49.54144" lon="3.41363">
        <ele>87.8</ele>
        <time>2023-08-18T06:14:14Z</time>
      </trkpt>
      <trkpt lat="49.54138" lon="3.41373">
        <ele>87.4</ele>
        <time>2023-08-18T06:14:19Z</time>
      </trkpt>
      <trkpt lat="49.54137" lon="3.41374">
        <ele>87</ele>
        <time>2023-08-18T06:14:20Z</time>
      </trkpt>
      <trkpt lat="49.54136" lon="3.41375">
        <ele>86.6</ele>
        <time>2023-08-18T06:14:21Z</time>
      </trkpt>
      <trkpt lat="49.54135" lon="3.41376">
        <ele>86.2</ele>
        <time>2023-08-18T06:14:22Z</time>
      </trkpt>
      <trkpt lat="49.54135" lon="3.41377">
        <ele>85.8</ele>
        <time>2023-08-18T06:14:23Z</time>
      </trkpt>
      <trkpt lat="49.54133" lon="3.41378">
        <ele>85.8</ele>
        <time>2023-08-18T06:14:25Z</time>
      </trkpt>
      <trkpt lat="49.54132" lon="3.41379">
        <ele>85.8</ele>
        <time>2023-08-18T06:14:26Z</time>
      </trkpt>
      <trkpt lat="49.54131" lon="3.41381">
        <ele>85.8</ele>
        <time>2023-08-18T06:14:28Z</time>
      </trkpt>
      <trkpt lat="49.54129" lon="3.41386">
        <ele>85.8</ele>
        <time>2023-08-18T06:14:31Z</time>
      </trkpt>
      <trkpt lat="49.54128" lon="3.41388">
        <ele>85.8</ele>
        <time>2023-08-18T06:14:32Z</time>
      </trkpt>
      <trkpt lat="49.54125" lon="3.41392">
        <ele>85.8</ele>
        <time>2023-08-18T06:14:34Z</time>
      </trkpt>
      <trkpt lat="49.54124" lon="3.41395">
        <ele>85.8</ele>
        <time>2023-08-18T06:14:36Z</time>
      </trkpt>
      <trkpt lat="49.54118" lon="3.41404">
        <ele>85.8</ele>
        <time>2023-08-18T06:14:43Z</time>
      </trkpt>
      <trkpt lat="49.54115" lon="3.41407">
        <ele>85.8</ele>
        <time>2023-08-18T06:14:48Z</time>
      </trkpt>
      <trkpt lat="49.54112" lon="3.41412">
        <ele>85.8</ele>
        <time>2023-08-18T06:14:55Z</time>
      </trkpt>
      <trkpt lat="49.54106" lon="3.41422">
        <ele>85.8</ele>
        <time>2023-08-18T06:15:00Z</time>
      </trkpt>
      <trkpt lat="49.54104" lon="3.41424">
        <ele>85.8</ele>
        <time>2023-08-18T06:15:01Z</time>
      </trkpt>
      <trkpt lat="49.54102" lon="3.41427">
        <ele>85.8</ele>
        <time>2023-08-18T06:15:03Z</time>
      </trkpt>
      <trkpt lat="49.54097" lon="3.41437">
        <ele>85.8</ele>
        <time>2023-08-18T06:15:10Z</time>
      </trkpt>
      <trkpt lat="49.54097" lon="3.4144">
        <ele>85.8</ele>
        <time>2023-08-18T06:15:11Z</time>
      </trkpt>
      <trkpt lat="49.54094" lon="3.41443">
        <ele>85.8</ele>
        <time>2023-08-18T06:15:13Z</time>
      </trkpt>
      <trkpt lat="49.54089" lon="3.4145">
        <ele>85.8</ele>
        <time>2023-08-18T06:15:17Z</time>
      </trkpt>
      <trkpt lat="49.54087" lon="3.41451">
        <ele>85.8</ele>
        <time>2023-08-18T06:15:18Z</time>
      </trkpt>
      <trkpt lat="49.54085" lon="3.41454">
        <ele>85.8</ele>
        <time>2023-08-18T06:15:22Z</time>
      </trkpt>
      <trkpt lat="49.54082" lon="3.41459">
        <ele>85.8</ele>
        <time>2023-08-18T06:15:26Z</time>
      </trkpt>
      <trkpt lat="49.54078" lon="3.41464">
        <ele>85.8</ele>
        <time>2023-08-18T06:15:29Z</time>
      </trkpt>
      <trkpt lat="49.54073" lon="3.41472">
        <ele>85.8</ele>
        <time>2023-08-18T06:15:34Z</time>
      </trkpt>
      <trkpt lat="49.54073" lon="3.41474">
        <ele>85.8</ele>
        <time>2023-08-18T06:15:35Z</time>
      </trkpt>
      <trkpt lat="49.54068" lon="3.41483">
        <ele>85.8</ele>
        <time>2023-08-18T06:15:41Z</time>
      </trkpt>
      <trkpt lat="49.54063" lon="3.41492">
        <ele>85.8</ele>
        <time>2023-08-18T06:15:48Z</time>
      </trkpt>
      <trkpt lat="49.54057" lon="3.41503">
        <ele>85.8</ele>
        <time>2023-08-18T06:15:56Z</time>
      </trkpt>
      <trkpt lat="49.54052" lon="3.4151">
        <ele>85.8</ele>
        <time>2023-08-18T06:16:04Z</time>
      </trkpt>
      <trkpt lat="49.54052" lon="3.41509">
        <ele>85.8</ele>
        <time>2023-08-18T06:16:10Z</time>
      </trkpt>
      <trkpt lat="49.54052" lon="3.4151">
        <ele>85.8</ele>
        <time>2023-08-18T06:16:15Z</time>
      </trkpt>
      <trkpt lat="49.54052" lon="3.4151">
        <ele>85.8</ele>
        <time>2023-08-18T06:16:20Z</time>
      </trkpt>
      <trkpt lat="49.54052" lon="3.4151">
        <ele>85.8</ele>
        <time>2023-08-18T06:16:28Z</time>
      </trkpt>
      <trkpt lat="49.54052" lon="3.4151">
        <ele>85.8</ele>
        <time>2023-08-18T06:16:37Z</time>
      </trkpt>
      <trkpt lat="49.54052" lon="3.4151">
        <ele>85.8</ele>
        <time>2023-08-18T06:16:44Z</time>
      </trkpt>
      <trkpt lat="49.54052" lon="3.4151">
        <ele>85.8</ele>
        <time>2023-08-18T06:16:51Z</time>
      </trkpt>
      <trkpt lat="49.54052" lon="3.4151">
        <ele>85.8</ele>
        <time>2023-08-18T06:17:01Z</time>
      </trkpt>
      <trkpt lat="49.54052" lon="3.4151">
        <ele>85.8</ele>
        <time>2023-08-18T06:17:08Z</time>
      </trkpt>
      <trkpt lat="49.54052" lon="3.4151">
        <ele>85.8</ele>
        <time>2023-08-18T06:17:25Z</time>
      </trkpt>
      <trkpt lat="49.54052" lon="3.41509">
        <ele>85.8</ele>
        <time>2023-08-18T06:17:28Z</time>
      </trkpt>
      <trkpt lat="49.54052" lon="3.41509">
        <ele>85.8</ele>
        <time>2023-08-18T06:17:30Z</time>
      </trkpt>
      <trkpt lat="49.54052" lon="3.41509">
        <ele>85.8</ele>
        <time>2023-08-18T06:17:40Z</time>
      </trkpt>
      <trkpt lat="49.54051" lon="3.41511">
        <ele>85.8</ele>
        <time>2023-08-18T06:17:47Z</time>
      </trkpt>
      <trkpt lat="49.54051" lon="3.41511">
        <ele>85.8</ele>
        <time>2023-08-18T06:17:55Z</time>
      </trkpt>
      <trkpt lat="49.54051" lon="3.41511">
        <ele>85.8</ele>
        <time>2023-08-18T06:18:01Z</time>
      </trkpt>
      <trkpt lat="49.5405" lon="3.41511">
        <ele>85.8</ele>
        <time>2023-08-18T06:18:14Z</time>
      </trkpt>
      <trkpt lat="49.54051" lon="3.41511">
        <ele>85.8</ele>
        <time>2023-08-18T06:18:22Z</time>
      </trkpt>
      <trkpt lat="49.54051" lon="3.41511">
        <ele>85.8</ele>
        <time>2023-08-18T06:18:28Z</time>
      </trkpt>
      <trkpt lat="49.54051" lon="3.41511">
        <ele>85.8</ele>
        <time>2023-08-18T06:18:29Z</time>
      </trkpt>
      <trkpt lat="49.54051" lon="3.41511">
        <ele>85.8</ele>
        <time>2023-08-18T06:18:35Z</time>
      </trkpt>
      <trkpt lat="49.54051" lon="3.41511">
        <ele>85.8</ele>
        <time>2023-08-18T06:18:42Z</time>
      </trkpt>
      <trkpt lat="49.5405" lon="3.41512">
        <ele>85.8</ele>
        <time>2023-08-18T06:18:45Z</time>
      </trkpt>
      <trkpt lat="49.54047" lon="3.41514">
        <ele>85.8</ele>
        <time>2023-08-18T06:18:47Z</time>
      </trkpt>
      <trkpt lat="49.54045" lon="3.4152">
        <ele>85.8</ele>
        <time>2023-08-18T06:18:51Z</time>
      </trkpt>
      <trkpt lat="49.54044" lon="3.41521">
        <ele>85.8</ele>
        <time>2023-08-18T06:18:52Z</time>
      </trkpt>
      <trkpt lat="49.5404" lon="3.41528">
        <ele>85.8</ele>
        <time>2023-08-18T06:18:58Z</time>
      </trkpt>
      <trkpt lat="49.54038" lon="3.41533">
        <ele>85.8</ele>
        <time>2023-08-18T06:19:01Z</time>
      </trkpt>
      <trkpt lat="49.54035" lon="3.41536">
        <ele>85.8</ele>
        <time>2023-08-18T06:19:03Z</time>
      </trkpt>
      <trkpt lat="49.5403" lon="3.41545">
        <ele>85.8</ele>
        <time>2023-08-18T06:19:08Z</time>
      </trkpt>
      <trkpt lat="49.54029" lon="3.41546">
        <ele>85.8</ele>
        <time>2023-08-18T06:19:09Z</time>
      </trkpt>
      <trkpt lat="49.54027" lon="3.4155">
        <ele>85.8</ele>
        <time>2023-08-18T06:19:13Z</time>
      </trkpt>
      <trkpt lat="49.54021" lon="3.41558">
        <ele>85.8</ele>
        <time>2023-08-18T06:19:17Z</time>
      </trkpt>
      <trkpt lat="49.5402" lon="3.41562">
        <ele>85.8</ele>
        <time>2023-08-18T06:19:19Z</time>
      </trkpt>
      <trkpt lat="49.54019" lon="3.41563">
        <ele>85.8</ele>
        <time>2023-08-18T06:19:21Z</time>
      </trkpt>
      <trkpt lat="49.54017" lon="3.41564">
        <ele>85.8</ele>
        <time>2023-08-18T06:19:24Z</time>
      </trkpt>
      <trkpt lat="49.54014" lon="3.41566">
        <ele>85.8</ele>
        <time>2023-08-18T06:19:27Z</time>
      </trkpt>
      <trkpt lat="49.54014" lon="3.41569">
        <ele>85.8</ele>
        <time>2023-08-18T06:19:28Z</time>
      </trkpt>
      <trkpt lat="49.5401" lon="3.41575">
        <ele>85.8</ele>
        <time>2023-08-18T06:19:31Z</time>
      </trkpt>
      <trkpt lat="49.54009" lon="3.41575">
        <ele>85.8</ele>
        <time>2023-08-18T06:19:32Z</time>
      </trkpt>
      <trkpt lat="49.54008" lon="3.41576">
        <ele>85.8</ele>
        <time>2023-08-18T06:19:33Z</time>
      </trkpt>
      <trkpt lat="49.54006" lon="3.41579">
        <ele>85.8</ele>
        <time>2023-08-18T06:19:37Z</time>
      </trkpt>
      <trkpt lat="49.54" lon="3.41585">
        <ele>85.8</ele>
        <time>2023-08-18T06:19:41Z</time>
      </trkpt>
      <trkpt lat="49.53998" lon="3.41587">
        <ele>85.8</ele>
        <time>2023-08-18T06:19:42Z</time>
      </trkpt>
      <trkpt lat="49.53996" lon="3.41593">
        <ele>85.8</ele>
        <time>2023-08-18T06:19:46Z</time>
      </trkpt>
      <trkpt lat="49.53993" lon="3.41595">
        <ele>85.8</ele>
        <time>2023-08-18T06:19:49Z</time>
      </trkpt>
      <trkpt lat="49.53992" lon="3.41598">
        <ele>85.8</ele>
        <time>2023-08-18T06:19:51Z</time>
      </trkpt>
      <trkpt lat="49.53984" lon="3.4161">
        <ele>85.8</ele>
        <time>2023-08-18T06:19:57Z</time>
      </trkpt>
      <trkpt lat="49.53979" lon="3.41613">
        <ele>85.8</ele>
        <time>2023-08-18T06:20:03Z</time>
      </trkpt>
      <trkpt lat="49.53978" lon="3.41615">
        <ele>85.8</ele>
        <time>2023-08-18T06:20:04Z</time>
      </trkpt>
      <trkpt lat="49.53974" lon="3.41623">
        <ele>85.8</ele>
        <time>2023-08-18T06:20:08Z</time>
      </trkpt>
      <trkpt lat="49.53973" lon="3.41623">
        <ele>85.8</ele>
        <time>2023-08-18T06:20:09Z</time>
      </trkpt>
      <trkpt lat="49.53971" lon="3.41627">
        <ele>85.8</ele>
        <time>2023-08-18T06:20:13Z</time>
      </trkpt>
      <trkpt lat="49.53967" lon="3.41633">
        <ele>85.8</ele>
        <time>2023-08-18T06:20:16Z</time>
      </trkpt>
      <trkpt lat="49.53965" lon="3.41635">
        <ele>85.8</ele>
        <time>2023-08-18T06:20:17Z</time>
      </trkpt>
      <trkpt lat="49.53964" lon="3.41638">
        <ele>85.4</ele>
        <time>2023-08-18T06:20:18Z</time>
      </trkpt>
      <trkpt lat="49.53963" lon="3.4164">
        <ele>85</ele>
        <time>2023-08-18T06:20:19Z</time>
      </trkpt>
      <trkpt lat="49.53962" lon="3.41641">
        <ele>84.6</ele>
        <time>2023-08-18T06:20:20Z</time>
      </trkpt>
      <trkpt lat="49.53961" lon="3.41642">
        <ele>84.2</ele>
        <time>2023-08-18T06:20:21Z</time>
      </trkpt>
      <trkpt lat="49.53961" lon="3.41643">
        <ele>83.8</ele>
        <time>2023-08-18T06:20:22Z</time>
      </trkpt>
      <trkpt lat="49.5396" lon="3.41643">
        <ele>83.8</ele>
        <time>2023-08-18T06:20:23Z</time>
      </trkpt>
      <trkpt lat="49.53955" lon="3.4165">
        <ele>83.8</ele>
        <time>2023-08-18T06:20:29Z</time>
      </trkpt>
      <trkpt lat="49.53953" lon="3.4165">
        <ele>83.8</ele>
        <time>2023-08-18T06:20:32Z</time>
      </trkpt>
      <trkpt lat="49.53953" lon="3.41652">
        <ele>83.8</ele>
        <time>2023-08-18T06:20:33Z</time>
      </trkpt>
      <trkpt lat="49.53953" lon="3.41653">
        <ele>83.8</ele>
        <time>2023-08-18T06:20:37Z</time>
      </trkpt>
      <trkpt lat="49.53952" lon="3.41654">
        <ele>83.8</ele>
        <time>2023-08-18T06:20:43Z</time>
      </trkpt>
      <trkpt lat="49.53951" lon="3.41653">
        <ele>83.8</ele>
        <time>2023-08-18T06:20:46Z</time>
      </trkpt>
      <trkpt lat="49.53951" lon="3.41653">
        <ele>83.8</ele>
        <time>2023-08-18T06:20:48Z</time>
      </trkpt>
      <trkpt lat="49.53951" lon="3.41653">
        <ele>83.8</ele>
        <time>2023-08-18T06:20:57Z</time>
      </trkpt>
      <trkpt lat="49.53954" lon="3.41653">
        <ele>83.8</ele>
        <time>2023-08-18T06:21:03Z</time>
      </trkpt>
      <trkpt lat="49.53953" lon="3.41654">
        <ele>83.8</ele>
        <time>2023-08-18T06:21:11Z</time>
      </trkpt>
      <trkpt lat="49.53953" lon="3.41654">
        <ele>83.8</ele>
        <time>2023-08-18T06:21:18Z</time>
      </trkpt>
      <trkpt lat="49.53954" lon="3.41653">
        <ele>83.8</ele>
        <time>2023-08-18T06:21:26Z</time>
      </trkpt>
      <trkpt lat="49.53954" lon="3.41653">
        <ele>83.8</ele>
        <time>2023-08-18T06:21:33Z</time>
      </trkpt>
      <trkpt lat="49.53954" lon="3.41654">
        <ele>83.8</ele>
        <time>2023-08-18T06:21:34Z</time>
      </trkpt>
      <trkpt lat="49.53954" lon="3.41653">
        <ele>83.8</ele>
        <time>2023-08-18T06:21:37Z</time>
      </trkpt>
      <trkpt lat="49.53953" lon="3.41653">
        <ele>83.8</ele>
        <time>2023-08-18T06:21:43Z</time>
      </trkpt>
      <trkpt lat="49.53952" lon="3.41651">
        <ele>83.8</ele>
        <time>2023-08-18T06:21:46Z</time>
      </trkpt>
      <trkpt lat="49.53953" lon="3.41652">
        <ele>83.8</ele>
        <time>2023-08-18T06:21:47Z</time>
      </trkpt>
      <trkpt lat="49.53953" lon="3.41653">
        <ele>83.8</ele>
        <time>2023-08-18T06:21:53Z</time>
      </trkpt>
      <trkpt lat="49.53951" lon="3.41653">
        <ele>83.8</ele>
        <time>2023-08-18T06:21:57Z</time>
      </trkpt>
      <trkpt lat="49.5395" lon="3.41652">
        <ele>83.8</ele>
        <time>2023-08-18T06:22:06Z</time>
      </trkpt>
      <trkpt lat="49.53953" lon="3.41653">
        <ele>83.8</ele>
        <time>2023-08-18T06:22:11Z</time>
      </trkpt>
      <trkpt lat="49.53954" lon="3.41651">
        <ele>83.8</ele>
        <time>2023-08-18T06:22:15Z</time>
      </trkpt>
      <trkpt lat="49.53954" lon="3.4165">
        <ele>83.8</ele>
        <time>2023-08-18T06:22:21Z</time>
      </trkpt>
      <trkpt lat="49.53954" lon="3.4165">
        <ele>83.8</ele>
        <time>2023-08-18T06:22:34Z</time>
      </trkpt>
      <trkpt lat="49.53954" lon="3.4165">
        <ele>83.8</ele>
        <time>2023-08-18T06:22:42Z</time>
      </trkpt>
      <trkpt lat="49.53955" lon="3.41652">
        <ele>83.8</ele>
        <time>2023-08-18T06:22:48Z</time>
      </trkpt>
      <trkpt lat="49.53953" lon="3.41653">
        <ele>83.8</ele>
        <time>2023-08-18T06:22:55Z</time>
      </trkpt>
      <trkpt lat="49.53953" lon="3.41653">
        <ele>83.8</ele>
        <time>2023-08-18T06:23:02Z</time>
      </trkpt>
      <trkpt lat="49.53954" lon="3.41652">
        <ele>83.8</ele>
        <time>2023-08-18T06:23:07Z</time>
      </trkpt>
      <trkpt lat="49.53954" lon="3.41652">
        <ele>83.8</ele>
        <time>2023-08-18T06:23:17Z</time>
      </trkpt>
      <trkpt lat="49.53954" lon="3.41652">
        <ele>83.8</ele>
        <time>2023-08-18T06:23:23Z</time>
      </trkpt>
      <trkpt lat="49.53956" lon="3.41653">
        <ele>83.8</ele>
        <time>2023-08-18T06:23:29Z</time>
      </trkpt>
      <trkpt lat="49.53956" lon="3.41654">
        <ele>83.8</ele>
        <time>2023-08-18T06:23:37Z</time>
      </trkpt>
      <trkpt lat="49.53956" lon="3.41655">
        <ele>83.8</ele>
        <time>2023-08-18T06:23:38Z</time>
      </trkpt>
      <trkpt lat="49.53954" lon="3.41659">
        <ele>83.8</ele>
        <time>2023-08-18T06:23:41Z</time>
      </trkpt>
      <trkpt lat="49.53954" lon="3.41661">
        <ele>83.8</ele>
        <time>2023-08-18T06:23:42Z</time>
      </trkpt>
      <trkpt lat="49.53948" lon="3.41667">
        <ele>83.8</ele>
        <time>2023-08-18T06:23:49Z</time>
      </trkpt>
      <trkpt lat="49.53942" lon="3.41677">
        <ele>83.8</ele>
        <time>2023-08-18T06:23:56Z</time>
      </trkpt>
      <trkpt lat="49.53938" lon="3.41686">
        <ele>83.8</ele>
        <time>2023-08-18T06:24:00Z</time>
      </trkpt>
      <trkpt lat="49.53935" lon="3.41687">
        <ele>83.8</ele>
        <time>2023-08-18T06:24:04Z</time>
      </trkpt>
      <trkpt lat="49.53935" lon="3.41684">
        <ele>83.8</ele>
        <time>2023-08-18T06:24:10Z</time>
      </trkpt>
      <trkpt lat="49.53935" lon="3.41684">
        <ele>83.8</ele>
        <time>2023-08-18T06:24:16Z</time>
      </trkpt>
      <trkpt lat="49.53936" lon="3.41682">
        <ele>83.8</ele>
        <time>2023-08-18T06:24:23Z</time>
      </trkpt>
      <trkpt lat="49.53935" lon="3.41683">
        <ele>83.8</ele>
        <time>2023-08-18T06:24:27Z</time>
      </trkpt>
      <trkpt lat="49.53934" lon="3.41684">
        <ele>83.8</ele>
        <time>2023-08-18T06:24:33Z</time>
      </trkpt>
      <trkpt lat="49.53933" lon="3.41684">
        <ele>83.8</ele>
        <time>2023-08-18T06:24:39Z</time>
      </trkpt>
      <trkpt lat="49.53928" lon="3.41684">
        <ele>83.8</ele>
        <time>2023-08-18T06:24:44Z</time>
      </trkpt>
      <trkpt lat="49.53924" lon="3.41682">
        <ele>83.8</ele>
        <time>2023-08-18T06:24:48Z</time>
      </trkpt>
      <trkpt lat="49.53923" lon="3.41682">
        <ele>83.8</ele>
        <time>2023-08-18T06:24:49Z</time>
      </trkpt>
      <trkpt lat="49.53922" lon="3.4168">
        <ele>83.8</ele>
        <time>2023-08-18T06:24:54Z</time>
      </trkpt>
      <trkpt lat="49.53922" lon="3.4168">
        <ele>83.8</ele>
        <time>2023-08-18T06:25:07Z</time>
      </trkpt>
      <trkpt lat="49.53922" lon="3.4168">
        <ele>83.8</ele>
        <time>2023-08-18T06:25:18Z</time>
      </trkpt>
      <trkpt lat="49.53922" lon="3.4168">
        <ele>83.8</ele>
        <time>2023-08-18T06:25:27Z</time>
      </trkpt>
      <trkpt lat="49.53922" lon="3.4168">
        <ele>83.8</ele>
        <time>2023-08-18T06:25:35Z</time>
      </trkpt>
      <trkpt lat="49.53922" lon="3.4168">
        <ele>83.8</ele>
        <time>2023-08-18T06:25:38Z</time>
      </trkpt>
      <trkpt lat="49.53922" lon="3.41681">
        <ele>83.8</ele>
        <time>2023-08-18T06:25:39Z</time>
      </trkpt>
      <trkpt lat="49.53921" lon="3.41684">
        <ele>83.8</ele>
        <time>2023-08-18T06:25:41Z</time>
      </trkpt>
      <trkpt lat="49.53921" lon="3.41687">
        <ele>83.8</ele>
        <time>2023-08-18T06:25:43Z</time>
      </trkpt>
      <trkpt lat="49.53922" lon="3.41695">
        <ele>83.8</ele>
        <time>2023-08-18T06:25:46Z</time>
      </trkpt>
      <trkpt lat="49.53922" lon="3.41698">
        <ele>83.8</ele>
        <time>2023-08-18T06:25:47Z</time>
      </trkpt>
      <trkpt lat="49.53922" lon="3.417">
        <ele>83.8</ele>
        <time>2023-08-18T06:25:48Z</time>
      </trkpt>
      <trkpt lat="49.5392" lon="3.41705">
        <ele>83.8</ele>
        <time>2023-08-18T06:25:53Z</time>
      </trkpt>
      <trkpt lat="49.53917" lon="3.41715">
        <ele>83.8</ele>
        <time>2023-08-18T06:25:58Z</time>
      </trkpt>
      <trkpt lat="49.53913" lon="3.41722">
        <ele>83.8</ele>
        <time>2023-08-18T06:26:04Z</time>
      </trkpt>
      <trkpt lat="49.53912" lon="3.41723">
        <ele>83.8</ele>
        <time>2023-08-18T06:26:09Z</time>
      </trkpt>
      <trkpt lat="49.53912" lon="3.41723">
        <ele>83.8</ele>
        <time>2023-08-18T06:26:10Z</time>
      </trkpt>
      <trkpt lat="49.53912" lon="3.41722">
        <ele>83.8</ele>
        <time>2023-08-18T06:26:13Z</time>
      </trkpt>
      <trkpt lat="49.53912" lon="3.41722">
        <ele>83.8</ele>
        <time>2023-08-18T06:26:21Z</time>
      </trkpt>
      <trkpt lat="49.53911" lon="3.41723">
        <ele>83.8</ele>
        <time>2023-08-18T06:26:28Z</time>
      </trkpt>
      <trkpt lat="49.53912" lon="3.41723">
        <ele>83.8</ele>
        <time>2023-08-18T06:26:42Z</time>
      </trkpt>
      <trkpt lat="49.53912" lon="3.41723">
        <ele>83.8</ele>
        <time>2023-08-18T06:26:53Z</time>
      </trkpt>
      <trkpt lat="49.53912" lon="3.41722">
        <ele>83.8</ele>
        <time>2023-08-18T06:26:59Z</time>
      </trkpt>
      <trkpt lat="49.53911" lon="3.41723">
        <ele>83.8</ele>
        <time>2023-08-18T06:27:05Z</time>
      </trkpt>
      <trkpt lat="49.53911" lon="3.41722">
        <ele>83.8</ele>
        <time>2023-08-18T06:27:11Z</time>
      </trkpt>
      <trkpt lat="49.53911" lon="3.41722">
        <ele>83.8</ele>
        <time>2023-08-18T06:27:19Z</time>
      </trkpt>
      <trkpt lat="49.53912" lon="3.41724">
        <ele>83.8</ele>
        <time>2023-08-18T06:27:25Z</time>
      </trkpt>
      <trkpt lat="49.53913" lon="3.41723">
        <ele>83.8</ele>
        <time>2023-08-18T06:27:34Z</time>
      </trkpt>
      <trkpt lat="49.53913" lon="3.41723">
        <ele>83.8</ele>
        <time>2023-08-18T06:27:39Z</time>
      </trkpt>
      <trkpt lat="49.53913" lon="3.41723">
        <ele>83.8</ele>
        <time>2023-08-18T06:27:47Z</time>
      </trkpt>
      <trkpt lat="49.53912" lon="3.41724">
        <ele>83.8</ele>
        <time>2023-08-18T06:27:53Z</time>
      </trkpt>
      <trkpt lat="49.53912" lon="3.41724">
        <ele>83.8</ele>
        <time>2023-08-18T06:27:59Z</time>
      </trkpt>
      <trkpt lat="49.53912" lon="3.41724">
        <ele>83.8</ele>
        <time>2023-08-18T06:28:01Z</time>
      </trkpt>
      <trkpt lat="49.53911" lon="3.41727">
        <ele>83.8</ele>
        <time>2023-08-18T06:28:03Z</time>
      </trkpt>
      <trkpt lat="49.53911" lon="3.41729">
        <ele>83.8</ele>
        <time>2023-08-18T06:28:06Z</time>
      </trkpt>
      <trkpt lat="49.53905" lon="3.41739">
        <ele>83.8</ele>
        <time>2023-08-18T06:28:12Z</time>
      </trkpt>
      <trkpt lat="49.53904" lon="3.41741">
        <ele>83.8</ele>
        <time>2023-08-18T06:28:13Z</time>
      </trkpt>
      <trkpt lat="49.53901" lon="3.41745">
        <ele>83.8</ele>
        <time>2023-08-18T06:28:17Z</time>
      </trkpt>
      <trkpt lat="49.53901" lon="3.41747">
        <ele>83.8</ele>
        <time>2023-08-18T06:28:18Z</time>
      </trkpt>
      <trkpt lat="49.539" lon="3.41748">
        <ele>83.8</ele>
        <time>2023-08-18T06:28:20Z</time>
      </trkpt>
      <trkpt lat="49.53897" lon="3.41752">
        <ele>83.8</ele>
        <time>2023-08-18T06:28:24Z</time>
      </trkpt>
      <trkpt lat="49.53892" lon="3.41761">
        <ele>83.8</ele>
        <time>2023-08-18T06:28:29Z</time>
      </trkpt>
      <trkpt lat="49.53889" lon="3.41763">
        <ele>83.8</ele>
        <time>2023-08-18T06:28:31Z</time>
      </trkpt>
      <trkpt lat="49.53888" lon="3.41765">
        <ele>83.8</ele>
        <time>2023-08-18T06:28:33Z</time>
      </trkpt>
      <trkpt lat="49.53886" lon="3.41766">
        <ele>83.8</ele>
        <time>2023-08-18T06:28:34Z</time>
      </trkpt>
      <trkpt lat="49.53881" lon="3.41775">
        <ele>83.8</ele>
        <time>2023-08-18T06:28:39Z</time>
      </trkpt>
      <trkpt lat="49.53878" lon="3.4178">
        <ele>83.8</ele>
        <time>2023-08-18T06:28:44Z</time>
      </trkpt>
      <trkpt lat="49.53875" lon="3.41786">
        <ele>83.8</ele>
        <time>2023-08-18T06:28:49Z</time>
      </trkpt>
      <trkpt lat="49.5387" lon="3.41793">
        <ele>83.8</ele>
        <time>2023-08-18T06:28:55Z</time>
      </trkpt>
      <trkpt lat="49.53865" lon="3.41802">
        <ele>83.8</ele>
        <time>2023-08-18T06:29:01Z</time>
      </trkpt>
      <trkpt lat="49.53859" lon="3.41813">
        <ele>83.8</ele>
        <time>2023-08-18T06:29:06Z</time>
      </trkpt>
      <trkpt lat="49.53857" lon="3.41815">
        <ele>83.8</ele>
        <time>2023-08-18T06:29:11Z</time>
      </trkpt>
      <trkpt lat="49.53852" lon="3.41822">
        <ele>83.8</ele>
        <time>2023-08-18T06:29:16Z</time>
      </trkpt>
      <trkpt lat="49.53848" lon="3.41827">
        <ele>83.8</ele>
        <time>2023-08-18T06:29:21Z</time>
      </trkpt>
      <trkpt lat="49.53845" lon="3.41833">
        <ele>83.8</ele>
        <time>2023-08-18T06:29:27Z</time>
      </trkpt>
      <trkpt lat="49.53842" lon="3.41841">
        <ele>83.8</ele>
        <time>2023-08-18T06:29:31Z</time>
      </trkpt>
      <trkpt lat="49.53842" lon="3.41843">
        <ele>83.8</ele>
        <time>2023-08-18T06:29:32Z</time>
      </trkpt>
      <trkpt lat="49.53839" lon="3.41849">
        <ele>83.8</ele>
        <time>2023-08-18T06:29:38Z</time>
      </trkpt>
      <trkpt lat="49.53839" lon="3.41854">
        <ele>83.8</ele>
        <time>2023-08-18T06:29:40Z</time>
      </trkpt>
      <trkpt lat="49.53839" lon="3.41859">
        <ele>83.8</ele>
        <time>2023-08-18T06:29:42Z</time>
      </trkpt>
      <trkpt lat="49.53839" lon="3.4187">
        <ele>83.8</ele>
        <time>2023-08-18T06:29:47Z</time>
      </trkpt>
      <trkpt lat="49.53839" lon="3.41876">
        <ele>83.8</ele>
        <time>2023-08-18T06:29:52Z</time>
      </trkpt>
      <trkpt lat="49.53841" lon="3.41885">
        <ele>83.8</ele>
        <time>2023-08-18T06:29:56Z</time>
      </trkpt>
      <trkpt lat="49.53843" lon="3.41897">
        <ele>83.8</ele>
        <time>2023-08-18T06:30:01Z</time>
      </trkpt>
      <trkpt lat="49.53847" lon="3.41907">
        <ele>83.8</ele>
        <time>2023-08-18T06:30:09Z</time>
      </trkpt>
      <trkpt lat="49.53853" lon="3.41918">
        <ele>83.8</ele>
        <time>2023-08-18T06:30:15Z</time>
      </trkpt>
      <trkpt lat="49.53861" lon="3.41929">
        <ele>83.8</ele>
        <time>2023-08-18T06:30:21Z</time>
      </trkpt>
      <trkpt lat="49.53865" lon="3.41936">
        <ele>83.8</ele>
        <time>2023-08-18T06:30:28Z</time>
      </trkpt>
      <trkpt lat="49.53867" lon="3.41938">
        <ele>83.8</ele>
        <time>2023-08-18T06:30:30Z</time>
      </trkpt>
      <trkpt lat="49.53873" lon="3.41944">
        <ele>83.8</ele>
        <time>2023-08-18T06:30:34Z</time>
      </trkpt>
      <trkpt lat="49.53881" lon="3.41951">
        <ele>83.8</ele>
        <time>2023-08-18T06:30:39Z</time>
      </trkpt>
      <trkpt lat="49.53885" lon="3.41956">
        <ele>83.8</ele>
        <time>2023-08-18T06:30:45Z</time>
      </trkpt>
      <trkpt lat="49.53893" lon="3.41966">
        <ele>83.8</ele>
        <time>2023-08-18T06:30:51Z</time>
      </trkpt>
      <trkpt lat="49.53901" lon="3.41972">
        <ele>83.8</ele>
        <time>2023-08-18T06:30:57Z</time>
      </trkpt>
      <trkpt lat="49.53902" lon="3.41975">
        <ele>83.8</ele>
        <time>2023-08-18T06:31:00Z</time>
      </trkpt>
      <trkpt lat="49.53902" lon="3.41976">
        <ele>83.8</ele>
        <time>2023-08-18T06:31:01Z</time>
      </trkpt>
      <trkpt lat="49.53902" lon="3.41974">
        <ele>83.8</ele>
        <time>2023-08-18T06:31:07Z</time>
      </trkpt>
      <trkpt lat="49.53902" lon="3.41974">
        <ele>83.8</ele>
        <time>2023-08-18T06:31:13Z</time>
      </trkpt>
      <trkpt lat="49.53903" lon="3.41976">
        <ele>83.8</ele>
        <time>2023-08-18T06:31:18Z</time>
      </trkpt>
      <trkpt lat="49.53903" lon="3.41977">
        <ele>83.8</ele>
        <time>2023-08-18T06:31:25Z</time>
      </trkpt>
      <trkpt lat="49.53903" lon="3.41977">
        <ele>83.8</ele>
        <time>2023-08-18T06:31:32Z</time>
      </trkpt>
      <trkpt lat="49.53903" lon="3.41977">
        <ele>84.2</ele>
        <time>2023-08-18T06:31:33Z</time>
      </trkpt>
      <trkpt lat="49.53903" lon="3.41977">
        <ele>84.8</ele>
        <time>2023-08-18T06:31:34Z</time>
      </trkpt>
      <trkpt lat="49.53903" lon="3.41977">
        <ele>85.2</ele>
        <time>2023-08-18T06:31:35Z</time>
      </trkpt>
      <trkpt lat="49.53903" lon="3.41977">
        <ele>85.6</ele>
        <time>2023-08-18T06:31:36Z</time>
      </trkpt>
      <trkpt lat="49.53903" lon="3.41977">
        <ele>86</ele>
        <time>2023-08-18T06:31:37Z</time>
      </trkpt>
      <trkpt lat="49.53903" lon="3.41977">
        <ele>86</ele>
        <time>2023-08-18T06:31:39Z</time>
      </trkpt>
      <trkpt lat="49.53903" lon="3.41977">
        <ele>86</ele>
        <time>2023-08-18T06:31:47Z</time>
      </trkpt>
      <trkpt lat="49.53903" lon="3.41977">
        <ele>86</ele>
        <time>2023-08-18T06:31:53Z</time>
      </trkpt>
      <trkpt lat="49.53903" lon="3.41976">
        <ele>86</ele>
        <time>2023-08-18T06:31:59Z</time>
      </trkpt>
      <trkpt lat="49.53903" lon="3.41976">
        <ele>86</ele>
        <time>2023-08-18T06:32:06Z</time>
      </trkpt>
      <trkpt lat="49.53903" lon="3.41976">
        <ele>86</ele>
        <time>2023-08-18T06:32:12Z</time>
      </trkpt>
      <trkpt lat="49.53903" lon="3.41976">
        <ele>86</ele>
        <time>2023-08-18T06:32:17Z</time>
      </trkpt>
      <trkpt lat="49.53902" lon="3.41975">
        <ele>86</ele>
        <time>2023-08-18T06:32:19Z</time>
      </trkpt>
      <trkpt lat="49.53902" lon="3.41977">
        <ele>86</ele>
        <time>2023-08-18T06:32:27Z</time>
      </trkpt>
      <trkpt lat="49.53902" lon="3.41979">
        <ele>86</ele>
        <time>2023-08-18T06:32:33Z</time>
      </trkpt>
      <trkpt lat="49.53901" lon="3.41979">
        <ele>86</ele>
        <time>2023-08-18T06:32:41Z</time>
      </trkpt>
      <trkpt lat="49.53901" lon="3.41978">
        <ele>86</ele>
        <time>2023-08-18T06:32:46Z</time>
      </trkpt>
      <trkpt lat="49.53902" lon="3.41977">
        <ele>86</ele>
        <time>2023-08-18T06:32:56Z</time>
      </trkpt>
      <trkpt lat="49.53902" lon="3.41977">
        <ele>86</ele>
        <time>2023-08-18T06:33:01Z</time>
      </trkpt>
      <trkpt lat="49.53902" lon="3.41977">
        <ele>86</ele>
        <time>2023-08-18T06:33:09Z</time>
      </trkpt>
      <trkpt lat="49.53902" lon="3.41977">
        <ele>86</ele>
        <time>2023-08-18T06:33:15Z</time>
      </trkpt>
      <trkpt lat="49.53902" lon="3.41979">
        <ele>86</ele>
        <time>2023-08-18T06:33:21Z</time>
      </trkpt>
      <trkpt lat="49.53902" lon="3.41978">
        <ele>86</ele>
        <time>2023-08-18T06:33:31Z</time>
      </trkpt>
      <trkpt lat="49.53903" lon="3.41979">
        <ele>86</ele>
        <time>2023-08-18T06:33:33Z</time>
      </trkpt>
      <trkpt lat="49.53904" lon="3.4198">
        <ele>86</ele>
        <time>2023-08-18T06:33:36Z</time>
      </trkpt>
      <trkpt lat="49.53905" lon="3.41982">
        <ele>86</ele>
        <time>2023-08-18T06:33:39Z</time>
      </trkpt>
      <trkpt lat="49.53907" lon="3.41986">
        <ele>86</ele>
        <time>2023-08-18T06:33:42Z</time>
      </trkpt>
      <trkpt lat="49.53907" lon="3.41987">
        <ele>86</ele>
        <time>2023-08-18T06:33:43Z</time>
      </trkpt>
      <trkpt lat="49.53908" lon="3.41988">
        <ele>86</ele>
        <time>2023-08-18T06:33:44Z</time>
      </trkpt>
      <trkpt lat="49.53907" lon="3.41993">
        <ele>86</ele>
        <time>2023-08-18T06:33:48Z</time>
      </trkpt>
      <trkpt lat="49.53906" lon="3.42001">
        <ele>86</ele>
        <time>2023-08-18T06:33:54Z</time>
      </trkpt>
      <trkpt lat="49.53905" lon="3.42003">
        <ele>86</ele>
        <time>2023-08-18T06:33:55Z</time>
      </trkpt>
      <trkpt lat="49.53905" lon="3.42005">
        <ele>86</ele>
        <time>2023-08-18T06:33:56Z</time>
      </trkpt>
      <trkpt lat="49.53902" lon="3.42013">
        <ele>86</ele>
        <time>2023-08-18T06:34:00Z</time>
      </trkpt>
      <trkpt lat="49.53899" lon="3.42018">
        <ele>86</ele>
        <time>2023-08-18T06:34:05Z</time>
      </trkpt>
      <trkpt lat="49.53894" lon="3.42026">
        <ele>86</ele>
        <time>2023-08-18T06:34:10Z</time>
      </trkpt>
      <trkpt lat="49.53891" lon="3.4203">
        <ele>86</ele>
        <time>2023-08-18T06:34:16Z</time>
      </trkpt>
      <trkpt lat="49.53886" lon="3.42037">
        <ele>86</ele>
        <time>2023-08-18T06:34:21Z</time>
      </trkpt>
      <trkpt lat="49.53882" lon="3.42046">
        <ele>86</ele>
        <time>2023-08-18T06:34:27Z</time>
      </trkpt>
      <trkpt lat="49.53876" lon="3.42057">
        <ele>86</ele>
        <time>2023-08-18T06:34:32Z</time>
      </trkpt>
      <trkpt lat="49.53872" lon="3.42063">
        <ele>86</ele>
        <time>2023-08-18T06:34:39Z</time>
      </trkpt>
      <trkpt lat="49.53867" lon="3.42071">
        <ele>86</ele>
        <time>2023-08-18T06:34:44Z</time>
      </trkpt>
      <trkpt lat="49.53861" lon="3.4208">
        <ele>86</ele>
        <time>2023-08-18T06:34:51Z</time>
      </trkpt>
      <trkpt lat="49.53854" lon="3.42092">
        <ele>86</ele>
        <time>2023-08-18T06:34:57Z</time>
      </trkpt>
      <trkpt lat="49.53852" lon="3.42096">
        <ele>86</ele>
        <time>2023-08-18T06:35:01Z</time>
      </trkpt>
      <trkpt lat="49.53851" lon="3.42097">
        <ele>86</ele>
        <time>2023-08-18T06:35:02Z</time>
      </trkpt>
      <trkpt lat="49.53846" lon="3.42105">
        <ele>86</ele>
        <time>2023-08-18T06:35:07Z</time>
      </trkpt>
      <trkpt lat="49.53845" lon="3.42107">
        <ele>86</ele>
        <time>2023-08-18T06:35:08Z</time>
      </trkpt>
      <trkpt lat="49.53842" lon="3.42112">
        <ele>86</ele>
        <time>2023-08-18T06:35:12Z</time>
      </trkpt>
      <trkpt lat="49.53839" lon="3.42118">
        <ele>86</ele>
        <time>2023-08-18T06:35:18Z</time>
      </trkpt>
      <trkpt lat="49.53832" lon="3.4213">
        <ele>86</ele>
        <time>2023-08-18T06:35:24Z</time>
      </trkpt>
      <trkpt lat="49.53828" lon="3.42137">
        <ele>86</ele>
        <time>2023-08-18T06:35:29Z</time>
      </trkpt>
      <trkpt lat="49.53826" lon="3.4214">
        <ele>86</ele>
        <time>2023-08-18T06:35:32Z</time>
      </trkpt>
      <trkpt lat="49.53824" lon="3.42143">
        <ele>86</ele>
        <time>2023-08-18T06:35:35Z</time>
      </trkpt>
      <trkpt lat="49.53821" lon="3.42148">
        <ele>86</ele>
        <time>2023-08-18T06:35:39Z</time>
      </trkpt>
      <trkpt lat="49.5382" lon="3.4215">
        <ele>86</ele>
        <time>2023-08-18T06:35:40Z</time>
      </trkpt>
      <trkpt lat="49.53814" lon="3.42158">
        <ele>86</ele>
        <time>2023-08-18T06:35:46Z</time>
      </trkpt>
      <trkpt lat="49.53814" lon="3.42159">
        <ele>86</ele>
        <time>2023-08-18T06:35:52Z</time>
      </trkpt>
      <trkpt lat="49.53814" lon="3.4216">
        <ele>86</ele>
        <time>2023-08-18T06:35:57Z</time>
      </trkpt>
      <trkpt lat="49.53814" lon="3.4216">
        <ele>86</ele>
        <time>2023-08-18T06:36:07Z</time>
      </trkpt>
      <trkpt lat="49.53814" lon="3.42161">
        <ele>86</ele>
        <time>2023-08-18T06:36:13Z</time>
      </trkpt>
      <trkpt lat="49.53814" lon="3.42161">
        <ele>86</ele>
        <time>2023-08-18T06:36:21Z</time>
      </trkpt>
      <trkpt lat="49.53814" lon="3.42161">
        <ele>86</ele>
        <time>2023-08-18T06:36:26Z</time>
      </trkpt>
      <trkpt lat="49.53814" lon="3.42161">
        <ele>86</ele>
        <time>2023-08-18T06:36:27Z</time>
      </trkpt>
      <trkpt lat="49.53814" lon="3.42161">
        <ele>86</ele>
        <time>2023-08-18T06:36:34Z</time>
      </trkpt>
      <trkpt lat="49.5381" lon="3.42164">
        <ele>86</ele>
        <time>2023-08-18T06:36:39Z</time>
      </trkpt>
      <trkpt lat="49.53808" lon="3.42167">
        <ele>86</ele>
        <time>2023-08-18T06:36:41Z</time>
      </trkpt>
      <trkpt lat="49.53806" lon="3.42172">
        <ele>86</ele>
        <time>2023-08-18T06:36:43Z</time>
      </trkpt>
      <trkpt lat="49.53802" lon="3.42179">
        <ele>86</ele>
        <time>2023-08-18T06:36:46Z</time>
      </trkpt>
      <trkpt lat="49.53802" lon="3.4218">
        <ele>86</ele>
        <time>2023-08-18T06:36:47Z</time>
      </trkpt>
      <trkpt lat="49.53796" lon="3.42185">
        <ele>86</ele>
        <time>2023-08-18T06:36:53Z</time>
      </trkpt>
      <trkpt lat="49.53794" lon="3.42195">
        <ele>86</ele>
        <time>2023-08-18T06:37:00Z</time>
      </trkpt>
      <trkpt lat="49.53794" lon="3.42196">
        <ele>86</ele>
        <time>2023-08-18T06:37:07Z</time>
      </trkpt>
      <trkpt lat="49.53794" lon="3.42196">
        <ele>86</ele>
        <time>2023-08-18T06:37:24Z</time>
      </trkpt>
      <trkpt lat="49.53792" lon="3.42197">
        <ele>86</ele>
        <time>2023-08-18T06:37:34Z</time>
      </trkpt>
      <trkpt lat="49.53789" lon="3.42199">
        <ele>86</ele>
        <time>2023-08-18T06:37:40Z</time>
      </trkpt>
      <trkpt lat="49.53788" lon="3.422">
        <ele>86.4</ele>
        <time>2023-08-18T06:37:41Z</time>
      </trkpt>
      <trkpt lat="49.53787" lon="3.42201">
        <ele>86.8</ele>
        <time>2023-08-18T06:37:42Z</time>
      </trkpt>
      <trkpt lat="49.53787" lon="3.422">
        <ele>87.2</ele>
        <time>2023-08-18T06:37:43Z</time>
      </trkpt>
      <trkpt lat="49.53788" lon="3.42199">
        <ele>87.6</ele>
        <time>2023-08-18T06:37:44Z</time>
      </trkpt>
      <trkpt lat="49.53788" lon="3.42199">
        <ele>88</ele>
        <time>2023-08-18T06:37:45Z</time>
      </trkpt>
      <trkpt lat="49.53791" lon="3.42194">
        <ele>88</ele>
        <time>2023-08-18T06:37:50Z</time>
      </trkpt>
      <trkpt lat="49.53792" lon="3.42192">
        <ele>88</ele>
        <time>2023-08-18T06:37:51Z</time>
      </trkpt>
      <trkpt lat="49.53795" lon="3.42186">
        <ele>88</ele>
        <time>2023-08-18T06:37:54Z</time>
      </trkpt>
      <trkpt lat="49.53796" lon="3.42183">
        <ele>88</ele>
        <time>2023-08-18T06:37:57Z</time>
      </trkpt>
      <trkpt lat="49.538" lon="3.42178">
        <ele>88</ele>
        <time>2023-08-18T06:38:03Z</time>
      </trkpt>
      <trkpt lat="49.53805" lon="3.42167">
        <ele>88</ele>
        <time>2023-08-18T06:38:10Z</time>
      </trkpt>
      <trkpt lat="49.5381" lon="3.42161">
        <ele>88</ele>
        <time>2023-08-18T06:38:16Z</time>
      </trkpt>
      <trkpt lat="49.5381" lon="3.4216">
        <ele>88</ele>
        <time>2023-08-18T06:38:22Z</time>
      </trkpt>
      <trkpt lat="49.5381" lon="3.4216">
        <ele>88</ele>
        <time>2023-08-18T06:38:35Z</time>
      </trkpt>
      <trkpt lat="49.5381" lon="3.4216">
        <ele>88</ele>
        <time>2023-08-18T06:38:52Z</time>
      </trkpt>
      <trkpt lat="49.5381" lon="3.4216">
        <ele>88</ele>
        <time>2023-08-18T06:39:00Z</time>
      </trkpt>
      <trkpt lat="49.5381" lon="3.4216">
        <ele>88</ele>
        <time>2023-08-18T06:39:10Z</time>
      </trkpt>
      <trkpt lat="49.5381" lon="3.4216">
        <ele>88</ele>
        <time>2023-08-18T06:39:18Z</time>
      </trkpt>
      <trkpt lat="49.5381" lon="3.4216">
        <ele>88</ele>
        <time>2023-08-18T06:39:28Z</time>
      </trkpt>
      <trkpt lat="49.53809" lon="3.42159">
        <ele>88</ele>
        <time>2023-08-18T06:39:39Z</time>
      </trkpt>
      <trkpt lat="49.53808" lon="3.42162">
        <ele>88</ele>
        <time>2023-08-18T06:39:41Z</time>
      </trkpt>
      <trkpt lat="49.53806" lon="3.42166">
        <ele>88</ele>
        <time>2023-08-18T06:39:43Z</time>
      </trkpt>
      <trkpt lat="49.53801" lon="3.42172">
        <ele>88</ele>
        <time>2023-08-18T06:39:48Z</time>
      </trkpt>
      <trkpt lat="49.53801" lon="3.42174">
        <ele>88</ele>
        <time>2023-08-18T06:39:52Z</time>
      </trkpt>
      <trkpt lat="49.53799" lon="3.4218">
        <ele>88</ele>
        <time>2023-08-18T06:39:55Z</time>
      </trkpt>
      <trkpt lat="49.53796" lon="3.42188">
        <ele>88</ele>
        <time>2023-08-18T06:39:58Z</time>
      </trkpt>
      <trkpt lat="49.53793" lon="3.42197">
        <ele>88</ele>
        <time>2023-08-18T06:40:04Z</time>
      </trkpt>
      <trkpt lat="49.53793" lon="3.42204">
        <ele>88</ele>
        <time>2023-08-18T06:40:08Z</time>
      </trkpt>
      <trkpt lat="49.53794" lon="3.42207">
        <ele>88</ele>
        <time>2023-08-18T06:40:09Z</time>
      </trkpt>
      <trkpt lat="49.53794" lon="3.42215">
        <ele>88</ele>
        <time>2023-08-18T06:40:14Z</time>
      </trkpt>
      <trkpt lat="49.53794" lon="3.42217">
        <ele>88</ele>
        <time>2023-08-18T06:40:15Z</time>
      </trkpt>
      <trkpt lat="49.53794" lon="3.4222">
        <ele>88</ele>
        <time>2023-08-18T06:40:19Z</time>
      </trkpt>
      <trkpt lat="49.53795" lon="3.42229">
        <ele>88</ele>
        <time>2023-08-18T06:40:24Z</time>
      </trkpt>
      <trkpt lat="49.53797" lon="3.42232">
        <ele>88</ele>
        <time>2023-08-18T06:40:27Z</time>
      </trkpt>
      <trkpt lat="49.53799" lon="3.42236">
        <ele>88</ele>
        <time>2023-08-18T06:40:29Z</time>
      </trkpt>
      <trkpt lat="49.53802" lon="3.4224">
        <ele>88</ele>
        <time>2023-08-18T06:40:34Z</time>
      </trkpt>
      <trkpt lat="49.53805" lon="3.42243">
        <ele>88</ele>
        <time>2023-08-18T06:40:37Z</time>
      </trkpt>
      <trkpt lat="49.53807" lon="3.42244">
        <ele>88</ele>
        <time>2023-08-18T06:40:39Z</time>
      </trkpt>
      <trkpt lat="49.5381" lon="3.42247">
        <ele>88</ele>
        <time>2023-08-18T06:40:45Z</time>
      </trkpt>
      <trkpt lat="49.53814" lon="3.42249">
        <ele>88</ele>
        <time>2023-08-18T06:40:51Z</time>
      </trkpt>
      <trkpt lat="49.53821" lon="3.42253">
        <ele>88</ele>
        <time>2023-08-18T06:40:56Z</time>
      </trkpt>
      <trkpt lat="49.53827" lon="3.42256">
        <ele>88</ele>
        <time>2023-08-18T06:41:02Z</time>
      </trkpt>
      <trkpt lat="49.53834" lon="3.4226">
        <ele>88</ele>
        <time>2023-08-18T06:41:07Z</time>
      </trkpt>
      <trkpt lat="49.53841" lon="3.42262">
        <ele>88</ele>
        <time>2023-08-18T06:41:14Z</time>
      </trkpt>
      <trkpt lat="49.53843" lon="3.42262">
        <ele>88</ele>
        <time>2023-08-18T06:41:15Z</time>
      </trkpt>
      <trkpt lat="49.53848" lon="3.42262">
        <ele>88</ele>
        <time>2023-08-18T06:41:20Z</time>
      </trkpt>
      <trkpt lat="49.53852" lon="3.42264">
        <ele>88</ele>
        <time>2023-08-18T06:41:24Z</time>
      </trkpt>
      <trkpt lat="49.53854" lon="3.42265">
        <ele>88</ele>
        <time>2023-08-18T06:41:25Z</time>
      </trkpt>
      <trkpt lat="49.53857" lon="3.42266">
        <ele>88</ele>
        <time>2023-08-18T06:41:31Z</time>
      </trkpt>
      <trkpt lat="49.53859" lon="3.42264">
        <ele>88</ele>
        <time>2023-08-18T06:41:37Z</time>
      </trkpt>
      <trkpt lat="49.53859" lon="3.42264">
        <ele>88</ele>
        <time>2023-08-18T06:41:46Z</time>
      </trkpt>
      <trkpt lat="49.53859" lon="3.42264">
        <ele>88</ele>
        <time>2023-08-18T06:41:57Z</time>
      </trkpt>
      <trkpt lat="49.53859" lon="3.42264">
        <ele>88</ele>
        <time>2023-08-18T06:42:03Z</time>
      </trkpt>
      <trkpt lat="49.53858" lon="3.42264">
        <ele>88</ele>
        <time>2023-08-18T06:42:10Z</time>
      </trkpt>
      <trkpt lat="49.53859" lon="3.42263">
        <ele>88</ele>
        <time>2023-08-18T06:42:16Z</time>
      </trkpt>
      <trkpt lat="49.53859" lon="3.42263">
        <ele>88</ele>
        <time>2023-08-18T06:42:23Z</time>
      </trkpt>
      <trkpt lat="49.53859" lon="3.42263">
        <ele>88</ele>
        <time>2023-08-18T06:42:34Z</time>
      </trkpt>
      <trkpt lat="49.53859" lon="3.42263">
        <ele>88</ele>
        <time>2023-08-18T06:42:48Z</time>
      </trkpt>
      <trkpt lat="49.5386" lon="3.42265">
        <ele>88</ele>
        <time>2023-08-18T06:42:55Z</time>
      </trkpt>
      <trkpt lat="49.5386" lon="3.42265">
        <ele>88</ele>
        <time>2023-08-18T06:42:56Z</time>
      </trkpt>
      <trkpt lat="49.53865" lon="3.4227">
        <ele>88</ele>
        <time>2023-08-18T06:43:04Z</time>
      </trkpt>
      <trkpt lat="49.53867" lon="3.42273">
        <ele>88</ele>
        <time>2023-08-18T06:43:11Z</time>
      </trkpt>
      <trkpt lat="49.53873" lon="3.42278">
        <ele>88</ele>
        <time>2023-08-18T06:43:18Z</time>
      </trkpt>
      <trkpt lat="49.53878" lon="3.42282">
        <ele>88</ele>
        <time>2023-08-18T06:43:24Z</time>
      </trkpt>
      <trkpt lat="49.53883" lon="3.42286">
        <ele>88</ele>
        <time>2023-08-18T06:43:29Z</time>
      </trkpt>
      <trkpt lat="49.53894" lon="3.4229">
        <ele>88</ele>
        <time>2023-08-18T06:43:35Z</time>
      </trkpt>
      <trkpt lat="49.53901" lon="3.42296">
        <ele>88</ele>
        <time>2023-08-18T06:43:41Z</time>
      </trkpt>
      <trkpt lat="49.53906" lon="3.423">
        <ele>88</ele>
        <time>2023-08-18T06:43:46Z</time>
      </trkpt>
      <trkpt lat="49.5391" lon="3.42305">
        <ele>88</ele>
        <time>2023-08-18T06:43:53Z</time>
      </trkpt>
      <trkpt lat="49.53913" lon="3.42311">
        <ele>88</ele>
        <time>2023-08-18T06:43:59Z</time>
      </trkpt>
      <trkpt lat="49.53914" lon="3.42318">
        <ele>88</ele>
        <time>2023-08-18T06:44:03Z</time>
      </trkpt>
      <trkpt lat="49.53913" lon="3.4232">
        <ele>88</ele>
        <time>2023-08-18T06:44:05Z</time>
      </trkpt>
      <trkpt lat="49.53917" lon="3.42326">
        <ele>88</ele>
        <time>2023-08-18T06:44:13Z</time>
      </trkpt>
      <trkpt lat="49.53921" lon="3.42337">
        <ele>88</ele>
        <time>2023-08-18T06:44:19Z</time>
      </trkpt>
      <trkpt lat="49.53921" lon="3.42338">
        <ele>88</ele>
        <time>2023-08-18T06:44:26Z</time>
      </trkpt>
      <trkpt lat="49.53921" lon="3.42338">
        <ele>88</ele>
        <time>2023-08-18T06:44:37Z</time>
      </trkpt>
      <trkpt lat="49.53919" lon="3.42341">
        <ele>88</ele>
        <time>2023-08-18T06:44:44Z</time>
      </trkpt>
      <trkpt lat="49.53918" lon="3.42343">
        <ele>88</ele>
        <time>2023-08-18T06:44:50Z</time>
      </trkpt>
      <trkpt lat="49.53921" lon="3.42346">
        <ele>88</ele>
        <time>2023-08-18T06:44:56Z</time>
      </trkpt>
      <trkpt lat="49.53924" lon="3.42347">
        <ele>88</ele>
        <time>2023-08-18T06:45:06Z</time>
      </trkpt>
      <trkpt lat="49.53924" lon="3.42347">
        <ele>88</ele>
        <time>2023-08-18T06:45:13Z</time>
      </trkpt>
      <trkpt lat="49.53924" lon="3.42347">
        <ele>88</ele>
        <time>2023-08-18T06:45:24Z</time>
      </trkpt>
      <trkpt lat="49.53924" lon="3.42347">
        <ele>88</ele>
        <time>2023-08-18T06:45:33Z</time>
      </trkpt>
      <trkpt lat="49.53923" lon="3.42348">
        <ele>88</ele>
        <time>2023-08-18T06:45:41Z</time>
      </trkpt>
      <trkpt lat="49.53923" lon="3.42348">
        <ele>88</ele>
        <time>2023-08-18T06:45:57Z</time>
      </trkpt>
      <trkpt lat="49.53925" lon="3.42348">
        <ele>88</ele>
        <time>2023-08-18T06:46:03Z</time>
      </trkpt>
      <trkpt lat="49.53925" lon="3.42348">
        <ele>88</ele>
        <time>2023-08-18T06:46:10Z</time>
      </trkpt>
      <trkpt lat="49.53926" lon="3.42348">
        <ele>88</ele>
        <time>2023-08-18T06:46:16Z</time>
      </trkpt>
      <trkpt lat="49.53926" lon="3.42348">
        <ele>88</ele>
        <time>2023-08-18T06:46:27Z</time>
      </trkpt>
      <trkpt lat="49.53926" lon="3.42348">
        <ele>88</ele>
        <time>2023-08-18T06:46:40Z</time>
      </trkpt>
      <trkpt lat="49.53926" lon="3.42348">
        <ele>88</ele>
        <time>2023-08-18T06:46:51Z</time>
      </trkpt>
      <trkpt lat="49.53927" lon="3.42348">
        <ele>88</ele>
        <time>2023-08-18T06:47:00Z</time>
      </trkpt>
      <trkpt lat="49.53927" lon="3.42348">
        <ele>88</ele>
        <time>2023-08-18T06:47:06Z</time>
      </trkpt>
      <trkpt lat="49.53927" lon="3.42348">
        <ele>88</ele>
        <time>2023-08-18T06:47:14Z</time>
      </trkpt>
      <trkpt lat="49.53927" lon="3.42348">
        <ele>88</ele>
        <time>2023-08-18T06:47:21Z</time>
      </trkpt>
      <trkpt lat="49.53927" lon="3.42348">
        <ele>88</ele>
        <time>2023-08-18T06:47:30Z</time>
      </trkpt>
      <trkpt lat="49.53927" lon="3.42348">
        <ele>88</ele>
        <time>2023-08-18T06:47:46Z</time>
      </trkpt>
      <trkpt lat="49.53927" lon="3.42348">
        <ele>88</ele>
        <time>2023-08-18T06:47:56Z</time>
      </trkpt>
      <trkpt lat="49.53927" lon="3.42348">
        <ele>88</ele>
        <time>2023-08-18T06:48:03Z</time>
      </trkpt>
      <trkpt lat="49.53926" lon="3.4235">
        <ele>88</ele>
        <time>2023-08-18T06:48:10Z</time>
      </trkpt>
      <trkpt lat="49.53926" lon="3.42351">
        <ele>88</ele>
        <time>2023-08-18T06:48:18Z</time>
      </trkpt>
      <trkpt lat="49.53926" lon="3.42351">
        <ele>88</ele>
        <time>2023-08-18T06:48:33Z</time>
      </trkpt>
      <trkpt lat="49.53927" lon="3.42349">
        <ele>88</ele>
        <time>2023-08-18T06:48:42Z</time>
      </trkpt>
      <trkpt lat="49.53927" lon="3.42348">
        <ele>88</ele>
        <time>2023-08-18T06:48:48Z</time>
      </trkpt>
      <trkpt lat="49.53928" lon="3.42349">
        <ele>88</ele>
        <time>2023-08-18T06:48:56Z</time>
      </trkpt>
      <trkpt lat="49.53928" lon="3.42349">
        <ele>88</ele>
        <time>2023-08-18T06:49:05Z</time>
      </trkpt>
      <trkpt lat="49.53929" lon="3.42351">
        <ele>88</ele>
        <time>2023-08-18T06:49:14Z</time>
      </trkpt>
      <trkpt lat="49.53936" lon="3.42355">
        <ele>88</ele>
        <time>2023-08-18T06:49:22Z</time>
      </trkpt>
      <trkpt lat="49.53941" lon="3.42361">
        <ele>88</ele>
        <time>2023-08-18T06:49:28Z</time>
      </trkpt>
      <trkpt lat="49.53941" lon="3.42361">
        <ele>88</ele>
        <time>2023-08-18T06:49:29Z</time>
      </trkpt>
      <trkpt lat="49.53946" lon="3.42367">
        <ele>88</ele>
        <time>2023-08-18T06:49:36Z</time>
      </trkpt>
      <trkpt lat="49.53952" lon="3.42373">
        <ele>88</ele>
        <time>2023-08-18T06:49:42Z</time>
      </trkpt>
      <trkpt lat="49.5396" lon="3.4238">
        <ele>88</ele>
        <time>2023-08-18T06:49:48Z</time>
      </trkpt>
      <trkpt lat="49.53966" lon="3.42383">
        <ele>88</ele>
        <time>2023-08-18T06:49:53Z</time>
      </trkpt>
      <trkpt lat="49.53969" lon="3.42386">
        <ele>88</ele>
        <time>2023-08-18T06:49:58Z</time>
      </trkpt>
      <trkpt lat="49.53975" lon="3.42393">
        <ele>88</ele>
        <time>2023-08-18T06:50:04Z</time>
      </trkpt>
      <trkpt lat="49.53977" lon="3.42398">
        <ele>88</ele>
        <time>2023-08-18T06:50:09Z</time>
      </trkpt>
      <trkpt lat="49.53979" lon="3.42402">
        <ele>88</ele>
        <time>2023-08-18T06:50:11Z</time>
      </trkpt>
      <trkpt lat="49.53982" lon="3.42405">
        <ele>88</ele>
        <time>2023-08-18T06:50:14Z</time>
      </trkpt>
      <trkpt lat="49.53986" lon="3.42409">
        <ele>88</ele>
        <time>2023-08-18T06:50:19Z</time>
      </trkpt>
      <trkpt lat="49.53988" lon="3.42411">
        <ele>88</ele>
        <time>2023-08-18T06:50:24Z</time>
      </trkpt>
      <trkpt lat="49.53992" lon="3.4242">
        <ele>88</ele>
        <time>2023-08-18T06:50:30Z</time>
      </trkpt>
      <trkpt lat="49.53993" lon="3.42422">
        <ele>88</ele>
        <time>2023-08-18T06:50:37Z</time>
      </trkpt>
      <trkpt lat="49.53999" lon="3.4243">
        <ele>88</ele>
        <time>2023-08-18T06:50:43Z</time>
      </trkpt>
      <trkpt lat="49.54002" lon="3.42434">
        <ele>88</ele>
        <time>2023-08-18T06:50:47Z</time>
      </trkpt>
      <trkpt lat="49.54007" lon="3.42441">
        <ele>88</ele>
        <time>2023-08-18T06:50:52Z</time>
      </trkpt>
      <trkpt lat="49.5401" lon="3.42446">
        <ele>88</ele>
        <time>2023-08-18T06:50:57Z</time>
      </trkpt>
      <trkpt lat="49.54011" lon="3.42448">
        <ele>88</ele>
        <time>2023-08-18T06:50:58Z</time>
      </trkpt>
      <trkpt lat="49.54013" lon="3.42451">
        <ele>88</ele>
        <time>2023-08-18T06:51:00Z</time>
      </trkpt>
      <trkpt lat="49.54017" lon="3.42456">
        <ele>88</ele>
        <time>2023-08-18T06:51:03Z</time>
      </trkpt>
      <trkpt lat="49.54027" lon="3.42467">
        <ele>88</ele>
        <time>2023-08-18T06:51:08Z</time>
      </trkpt>
      <trkpt lat="49.54031" lon="3.42475">
        <ele>88</ele>
        <time>2023-08-18T06:51:13Z</time>
      </trkpt>
      <trkpt lat="49.54032" lon="3.42478">
        <ele>88</ele>
        <time>2023-08-18T06:51:14Z</time>
      </trkpt>
      <trkpt lat="49.54037" lon="3.42487">
        <ele>88</ele>
        <time>2023-08-18T06:51:19Z</time>
      </trkpt>
      <trkpt lat="49.5404" lon="3.42497">
        <ele>88</ele>
        <time>2023-08-18T06:51:26Z</time>
      </trkpt>
      <trkpt lat="49.54041" lon="3.42501">
        <ele>88</ele>
        <time>2023-08-18T06:51:28Z</time>
      </trkpt>
      <trkpt lat="49.54042" lon="3.42503">
        <ele>88</ele>
        <time>2023-08-18T06:51:29Z</time>
      </trkpt>
      <trkpt lat="49.54042" lon="3.42508">
        <ele>88</ele>
        <time>2023-08-18T06:51:31Z</time>
      </trkpt>
      <trkpt lat="49.54043" lon="3.42511">
        <ele>88</ele>
        <time>2023-08-18T06:51:33Z</time>
      </trkpt>
      <trkpt lat="49.54045" lon="3.42518">
        <ele>88</ele>
        <time>2023-08-18T06:51:38Z</time>
      </trkpt>
      <trkpt lat="49.54049" lon="3.42524">
        <ele>88</ele>
        <time>2023-08-18T06:51:43Z</time>
      </trkpt>
      <trkpt lat="49.54049" lon="3.42525">
        <ele>88</ele>
        <time>2023-08-18T06:51:44Z</time>
      </trkpt>
      <trkpt lat="49.54051" lon="3.42529">
        <ele>88</ele>
        <time>2023-08-18T06:51:46Z</time>
      </trkpt>
      <trkpt lat="49.54053" lon="3.42538">
        <ele>88</ele>
        <time>2023-08-18T06:51:50Z</time>
      </trkpt>
      <trkpt lat="49.54053" lon="3.42539">
        <ele>88.4</ele>
        <time>2023-08-18T06:51:51Z</time>
      </trkpt>
      <trkpt lat="49.54054" lon="3.42541">
        <ele>88.8</ele>
        <time>2023-08-18T06:51:52Z</time>
      </trkpt>
      <trkpt lat="49.54054" lon="3.42542">
        <ele>89.6</ele>
        <time>2023-08-18T06:51:53Z</time>
      </trkpt>
      <trkpt lat="49.54055" lon="3.42543">
        <ele>90.2</ele>
        <time>2023-08-18T06:51:54Z</time>
      </trkpt>
      <trkpt lat="49.54056" lon="3.42545">
        <ele>90.2</ele>
        <time>2023-08-18T06:51:56Z</time>
      </trkpt>
      <trkpt lat="49.54056" lon="3.42545">
        <ele>90.2</ele>
        <time>2023-08-18T06:52:02Z</time>
      </trkpt>
      <trkpt lat="49.54058" lon="3.42549">
        <ele>90.2</ele>
        <time>2023-08-18T06:52:03Z</time>
      </trkpt>
      <trkpt lat="49.5406" lon="3.42558">
        <ele>90.2</ele>
        <time>2023-08-18T06:52:07Z</time>
      </trkpt>
      <trkpt lat="49.54062" lon="3.42563">
        <ele>90.2</ele>
        <time>2023-08-18T06:52:13Z</time>
      </trkpt>
      <trkpt lat="49.54064" lon="3.42568">
        <ele>90.2</ele>
        <time>2023-08-18T06:52:20Z</time>
      </trkpt>
      <trkpt lat="49.54064" lon="3.4257">
        <ele>90.2</ele>
        <time>2023-08-18T06:52:21Z</time>
      </trkpt>
      <trkpt lat="49.54066" lon="3.42574">
        <ele>90.2</ele>
        <time>2023-08-18T06:52:23Z</time>
      </trkpt>
      <trkpt lat="49.54068" lon="3.42581">
        <ele>90.2</ele>
        <time>2023-08-18T06:52:26Z</time>
      </trkpt>
      <trkpt lat="49.54068" lon="3.42582">
        <ele>90.6</ele>
        <time>2023-08-18T06:52:27Z</time>
      </trkpt>
      <trkpt lat="49.5407" lon="3.42585">
        <ele>91</ele>
        <time>2023-08-18T06:52:28Z</time>
      </trkpt>
      <trkpt lat="49.54071" lon="3.42586">
        <ele>91.4</ele>
        <time>2023-08-18T06:52:29Z</time>
      </trkpt>
      <trkpt lat="49.54072" lon="3.42589">
        <ele>91.8</ele>
        <time>2023-08-18T06:52:30Z</time>
      </trkpt>
      <trkpt lat="49.54072" lon="3.42591">
        <ele>92.2</ele>
        <time>2023-08-18T06:52:31Z</time>
      </trkpt>
      <trkpt lat="49.54075" lon="3.426">
        <ele>92.2</ele>
        <time>2023-08-18T06:52:36Z</time>
      </trkpt>
      <trkpt lat="49.54077" lon="3.42603">
        <ele>92.2</ele>
        <time>2023-08-18T06:52:37Z</time>
      </trkpt>
      <trkpt lat="49.54084" lon="3.42611">
        <ele>92.2</ele>
        <time>2023-08-18T06:52:41Z</time>
      </trkpt>
      <trkpt lat="49.54088" lon="3.42622">
        <ele>92.2</ele>
        <time>2023-08-18T06:52:47Z</time>
      </trkpt>
      <trkpt lat="49.5409" lon="3.42625">
        <ele>92.2</ele>
        <time>2023-08-18T06:52:50Z</time>
      </trkpt>
      <trkpt lat="49.54091" lon="3.42626">
        <ele>92.2</ele>
        <time>2023-08-18T06:52:53Z</time>
      </trkpt>
      <trkpt lat="49.54091" lon="3.42627">
        <ele>92.2</ele>
        <time>2023-08-18T06:53:00Z</time>
      </trkpt>
      <trkpt lat="49.54094" lon="3.42636">
        <ele>92.2</ele>
        <time>2023-08-18T06:53:05Z</time>
      </trkpt>
      <trkpt lat="49.54098" lon="3.42643">
        <ele>92.2</ele>
        <time>2023-08-18T06:53:10Z</time>
      </trkpt>
      <trkpt lat="49.54105" lon="3.42652">
        <ele>92.2</ele>
        <time>2023-08-18T06:53:18Z</time>
      </trkpt>
      <trkpt lat="49.5411" lon="3.42662">
        <ele>92.2</ele>
        <time>2023-08-18T06:53:24Z</time>
      </trkpt>
      <trkpt lat="49.54119" lon="3.42675">
        <ele>92.2</ele>
        <time>2023-08-18T06:53:31Z</time>
      </trkpt>
      <trkpt lat="49.54121" lon="3.42683">
        <ele>92.2</ele>
        <time>2023-08-18T06:53:37Z</time>
      </trkpt>
      <trkpt lat="49.54126" lon="3.42692">
        <ele>92.2</ele>
        <time>2023-08-18T06:53:44Z</time>
      </trkpt>
      <trkpt lat="49.54132" lon="3.42698">
        <ele>92.2</ele>
        <time>2023-08-18T06:53:52Z</time>
      </trkpt>
      <trkpt lat="49.54142" lon="3.42707">
        <ele>92.2</ele>
        <time>2023-08-18T06:53:58Z</time>
      </trkpt>
      <trkpt lat="49.54144" lon="3.42708">
        <ele>92.2</ele>
        <time>2023-08-18T06:53:59Z</time>
      </trkpt>
      <trkpt lat="49.54147" lon="3.4271">
        <ele>92.2</ele>
        <time>2023-08-18T06:54:02Z</time>
      </trkpt>
      <trkpt lat="49.5415" lon="3.42717">
        <ele>92.2</ele>
        <time>2023-08-18T06:54:07Z</time>
      </trkpt>
      <trkpt lat="49.54155" lon="3.42728">
        <ele>92.2</ele>
        <time>2023-08-18T06:54:12Z</time>
      </trkpt>
      <trkpt lat="49.54156" lon="3.42731">
        <ele>92.2</ele>
        <time>2023-08-18T06:54:13Z</time>
      </trkpt>
      <trkpt lat="49.54159" lon="3.42745">
        <ele>92.2</ele>
        <time>2023-08-18T06:54:18Z</time>
      </trkpt>
      <trkpt lat="49.5416" lon="3.42747">
        <ele>92.2</ele>
        <time>2023-08-18T06:54:19Z</time>
      </trkpt>
      <trkpt lat="49.54164" lon="3.42754">
        <ele>92.2</ele>
        <time>2023-08-18T06:54:23Z</time>
      </trkpt>
      <trkpt lat="49.54166" lon="3.4276">
        <ele>92.2</ele>
        <time>2023-08-18T06:54:30Z</time>
      </trkpt>
      <trkpt lat="49.54166" lon="3.4276">
        <ele>92.2</ele>
        <time>2023-08-18T06:54:36Z</time>
      </trkpt>
      <trkpt lat="49.5417" lon="3.42768">
        <ele>92.2</ele>
        <time>2023-08-18T06:54:42Z</time>
      </trkpt>
      <trkpt lat="49.54172" lon="3.42774">
        <ele>92.2</ele>
        <time>2023-08-18T06:54:47Z</time>
      </trkpt>
      <trkpt lat="49.54172" lon="3.42774">
        <ele>92.2</ele>
        <time>2023-08-18T06:54:49Z</time>
      </trkpt>
      <trkpt lat="49.54177" lon="3.42787">
        <ele>92.2</ele>
        <time>2023-08-18T06:54:53Z</time>
      </trkpt>
      <trkpt lat="49.5418" lon="3.42803">
        <ele>92.2</ele>
        <time>2023-08-18T06:54:59Z</time>
      </trkpt>
      <trkpt lat="49.54181" lon="3.42806">
        <ele>92.2</ele>
        <time>2023-08-18T06:55:01Z</time>
      </trkpt>
      <trkpt lat="49.54181" lon="3.42807">
        <ele>92.2</ele>
        <time>2023-08-18T06:55:04Z</time>
      </trkpt>
      <trkpt lat="49.54181" lon="3.42807">
        <ele>92.2</ele>
        <time>2023-08-18T06:55:11Z</time>
      </trkpt>
      <trkpt lat="49.54188" lon="3.42816">
        <ele>92.2</ele>
        <time>2023-08-18T06:55:17Z</time>
      </trkpt>
      <trkpt lat="49.54194" lon="3.42824">
        <ele>92.2</ele>
        <time>2023-08-18T06:55:24Z</time>
      </trkpt>
      <trkpt lat="49.54194" lon="3.42824">
        <ele>92.2</ele>
        <time>2023-08-18T06:55:30Z</time>
      </trkpt>
      <trkpt lat="49.54194" lon="3.42824">
        <ele>92.2</ele>
        <time>2023-08-18T06:55:38Z</time>
      </trkpt>
      <trkpt lat="49.54194" lon="3.42824">
        <ele>92.2</ele>
        <time>2023-08-18T06:55:51Z</time>
      </trkpt>
      <trkpt lat="49.54194" lon="3.42824">
        <ele>92.2</ele>
        <time>2023-08-18T06:55:59Z</time>
      </trkpt>
      <trkpt lat="49.54195" lon="3.42827">
        <ele>92.2</ele>
        <time>2023-08-18T06:56:05Z</time>
      </trkpt>
      <trkpt lat="49.54197" lon="3.42829">
        <ele>92.2</ele>
        <time>2023-08-18T06:56:11Z</time>
      </trkpt>
      <trkpt lat="49.54197" lon="3.42829">
        <ele>92.2</ele>
        <time>2023-08-18T06:56:19Z</time>
      </trkpt>
      <trkpt lat="49.54197" lon="3.42829">
        <ele>92.2</ele>
        <time>2023-08-18T06:56:27Z</time>
      </trkpt>
      <trkpt lat="49.54197" lon="3.42829">
        <ele>92.2</ele>
        <time>2023-08-18T06:56:33Z</time>
      </trkpt>
      <trkpt lat="49.54197" lon="3.42829">
        <ele>92.2</ele>
        <time>2023-08-18T06:56:41Z</time>
      </trkpt>
      <trkpt lat="49.54197" lon="3.42829">
        <ele>92.2</ele>
        <time>2023-08-18T06:56:50Z</time>
      </trkpt>
      <trkpt lat="49.54197" lon="3.42829">
        <ele>92.2</ele>
        <time>2023-08-18T06:57:00Z</time>
      </trkpt>
      <trkpt lat="49.54197" lon="3.4283">
        <ele>92.2</ele>
        <time>2023-08-18T06:57:07Z</time>
      </trkpt>
      <trkpt lat="49.54197" lon="3.42831">
        <ele>92.2</ele>
        <time>2023-08-18T06:57:12Z</time>
      </trkpt>
      <trkpt lat="49.54197" lon="3.42831">
        <ele>92.2</ele>
        <time>2023-08-18T06:57:22Z</time>
      </trkpt>
      <trkpt lat="49.54197" lon="3.42831">
        <ele>92.2</ele>
        <time>2023-08-18T06:57:30Z</time>
      </trkpt>
      <trkpt lat="49.54197" lon="3.42831">
        <ele>92.2</ele>
        <time>2023-08-18T06:57:39Z</time>
      </trkpt>
      <trkpt lat="49.54197" lon="3.42831">
        <ele>92.2</ele>
        <time>2023-08-18T06:57:50Z</time>
      </trkpt>
      <trkpt lat="49.54197" lon="3.42831">
        <ele>92.2</ele>
        <time>2023-08-18T06:58:00Z</time>
      </trkpt>
      <trkpt lat="49.54197" lon="3.42831">
        <ele>92.2</ele>
        <time>2023-08-18T06:58:08Z</time>
      </trkpt>
      <trkpt lat="49.54197" lon="3.42831">
        <ele>92.2</ele>
        <time>2023-08-18T06:58:21Z</time>
      </trkpt>
      <trkpt lat="49.54198" lon="3.42833">
        <ele>92.2</ele>
        <time>2023-08-18T06:58:27Z</time>
      </trkpt>
      <trkpt lat="49.54198" lon="3.42833">
        <ele>92.2</ele>
        <time>2023-08-18T06:58:36Z</time>
      </trkpt>
      <trkpt lat="49.54201" lon="3.42833">
        <ele>92.2</ele>
        <time>2023-08-18T06:58:43Z</time>
      </trkpt>
      <trkpt lat="49.542" lon="3.42835">
        <ele>92.2</ele>
        <time>2023-08-18T06:58:48Z</time>
      </trkpt>
      <trkpt lat="49.542" lon="3.42836">
        <ele>92.2</ele>
        <time>2023-08-18T06:58:56Z</time>
      </trkpt>
      <trkpt lat="49.542" lon="3.42837">
        <ele>92.2</ele>
        <time>2023-08-18T06:59:03Z</time>
      </trkpt>
      <trkpt lat="49.54201" lon="3.42837">
        <ele>92.2</ele>
        <time>2023-08-18T06:59:12Z</time>
      </trkpt>
      <trkpt lat="49.54201" lon="3.42838">
        <ele>92.2</ele>
        <time>2023-08-18T06:59:20Z</time>
      </trkpt>
      <trkpt lat="49.54201" lon="3.42838">
        <ele>92.2</ele>
        <time>2023-08-18T06:59:30Z</time>
      </trkpt>
      <trkpt lat="49.54201" lon="3.42838">
        <ele>92.2</ele>
        <time>2023-08-18T06:59:38Z</time>
      </trkpt>
      <trkpt lat="49.54201" lon="3.42838">
        <ele>92.2</ele>
        <time>2023-08-18T06:59:44Z</time>
      </trkpt>
      <trkpt lat="49.54203" lon="3.42841">
        <ele>92.2</ele>
        <time>2023-08-18T06:59:51Z</time>
      </trkpt>
      <trkpt lat="49.54203" lon="3.42841">
        <ele>92.2</ele>
        <time>2023-08-18T06:59:59Z</time>
      </trkpt>
      <trkpt lat="49.54203" lon="3.42841">
        <ele>92.2</ele>
        <time>2023-08-18T07:00:07Z</time>
      </trkpt>
      <trkpt lat="49.54203" lon="3.42841">
        <ele>92.2</ele>
        <time>2023-08-18T07:00:15Z</time>
      </trkpt>
      <trkpt lat="49.54203" lon="3.42841">
        <ele>92.2</ele>
        <time>2023-08-18T07:00:23Z</time>
      </trkpt>
      <trkpt lat="49.54203" lon="3.42841">
        <ele>92.2</ele>
        <time>2023-08-18T07:00:34Z</time>
      </trkpt>
      <trkpt lat="49.54207" lon="3.4284">
        <ele>92.2</ele>
        <time>2023-08-18T07:00:42Z</time>
      </trkpt>
      <trkpt lat="49.54211" lon="3.42838">
        <ele>92.2</ele>
        <time>2023-08-18T07:00:49Z</time>
      </trkpt>
      <trkpt lat="49.54211" lon="3.42838">
        <ele>92.2</ele>
        <time>2023-08-18T07:00:56Z</time>
      </trkpt>
      <trkpt lat="49.54211" lon="3.42839">
        <ele>92.2</ele>
        <time>2023-08-18T07:01:03Z</time>
      </trkpt>
      <trkpt lat="49.54214" lon="3.42846">
        <ele>92.2</ele>
        <time>2023-08-18T07:01:06Z</time>
      </trkpt>
      <trkpt lat="49.54216" lon="3.42849">
        <ele>92.2</ele>
        <time>2023-08-18T07:01:08Z</time>
      </trkpt>
      <trkpt lat="49.5422" lon="3.42853">
        <ele>92.2</ele>
        <time>2023-08-18T07:01:14Z</time>
      </trkpt>
      <trkpt lat="49.54221" lon="3.42857">
        <ele>92.2</ele>
        <time>2023-08-18T07:01:20Z</time>
      </trkpt>
      <trkpt lat="49.54225" lon="3.42869">
        <ele>92.2</ele>
        <time>2023-08-18T07:01:25Z</time>
      </trkpt>
      <trkpt lat="49.54226" lon="3.42872">
        <ele>92.2</ele>
        <time>2023-08-18T07:01:29Z</time>
      </trkpt>
      <trkpt lat="49.54228" lon="3.42878">
        <ele>92.2</ele>
        <time>2023-08-18T07:01:32Z</time>
      </trkpt>
      <trkpt lat="49.54231" lon="3.42882">
        <ele>92.2</ele>
        <time>2023-08-18T07:01:35Z</time>
      </trkpt>
      <trkpt lat="49.54232" lon="3.42885">
        <ele>92.2</ele>
        <time>2023-08-18T07:01:41Z</time>
      </trkpt>
      <trkpt lat="49.54236" lon="3.42896">
        <ele>92.2</ele>
        <time>2023-08-18T07:01:46Z</time>
      </trkpt>
      <trkpt lat="49.54242" lon="3.42907">
        <ele>92.2</ele>
        <time>2023-08-18T07:01:51Z</time>
      </trkpt>
      <trkpt lat="49.54245" lon="3.42912">
        <ele>92.2</ele>
        <time>2023-08-18T07:01:55Z</time>
      </trkpt>
      <trkpt lat="49.5425" lon="3.42921">
        <ele>92.2</ele>
        <time>2023-08-18T07:02:01Z</time>
      </trkpt>
      <trkpt lat="49.54251" lon="3.42925">
        <ele>92.2</ele>
        <time>2023-08-18T07:02:06Z</time>
      </trkpt>
      <trkpt lat="49.54255" lon="3.42934">
        <ele>92.2</ele>
        <time>2023-08-18T07:02:11Z</time>
      </trkpt>
      <trkpt lat="49.54257" lon="3.4294">
        <ele>92.2</ele>
        <time>2023-08-18T07:02:14Z</time>
      </trkpt>
      <trkpt lat="49.54259" lon="3.42944">
        <ele>92.2</ele>
        <time>2023-08-18T07:02:16Z</time>
      </trkpt>
      <trkpt lat="49.54261" lon="3.42951">
        <ele>92.2</ele>
        <time>2023-08-18T07:02:20Z</time>
      </trkpt>
      <trkpt lat="49.54267" lon="3.42958">
        <ele>92.2</ele>
        <time>2023-08-18T07:02:26Z</time>
      </trkpt>
      <trkpt lat="49.54267" lon="3.42958">
        <ele>92.2</ele>
        <time>2023-08-18T07:02:34Z</time>
      </trkpt>
      <trkpt lat="49.54267" lon="3.42958">
        <ele>92.2</ele>
        <time>2023-08-18T07:02:46Z</time>
      </trkpt>
      <trkpt lat="49.54267" lon="3.42958">
        <ele>92.2</ele>
        <time>2023-08-18T07:02:59Z</time>
      </trkpt>
      <trkpt lat="49.54267" lon="3.42959">
        <ele>92.2</ele>
        <time>2023-08-18T07:03:11Z</time>
      </trkpt>
      <trkpt lat="49.54268" lon="3.4296">
        <ele>92.2</ele>
        <time>2023-08-18T07:03:19Z</time>
      </trkpt>
      <trkpt lat="49.5427" lon="3.42965">
        <ele>92.2</ele>
        <time>2023-08-18T07:03:24Z</time>
      </trkpt>
      <trkpt lat="49.54275" lon="3.42973">
        <ele>92.2</ele>
        <time>2023-08-18T07:03:30Z</time>
      </trkpt>
      <trkpt lat="49.54275" lon="3.42976">
        <ele>92.2</ele>
        <time>2023-08-18T07:03:32Z</time>
      </trkpt>
      <trkpt lat="49.54275" lon="3.42983">
        <ele>92.2</ele>
        <time>2023-08-18T07:03:35Z</time>
      </trkpt>
      <trkpt lat="49.54276" lon="3.42986">
        <ele>92.2</ele>
        <time>2023-08-18T07:03:37Z</time>
      </trkpt>
      <trkpt lat="49.54282" lon="3.4299">
        <ele>92.2</ele>
        <time>2023-08-18T07:03:40Z</time>
      </trkpt>
      <trkpt lat="49.54287" lon="3.42998">
        <ele>92.2</ele>
        <time>2023-08-18T07:03:45Z</time>
      </trkpt>
      <trkpt lat="49.5429" lon="3.43001">
        <ele>92.2</ele>
        <time>2023-08-18T07:03:51Z</time>
      </trkpt>
      <trkpt lat="49.54294" lon="3.43006">
        <ele>92.2</ele>
        <time>2023-08-18T07:03:57Z</time>
      </trkpt>
      <trkpt lat="49.54297" lon="3.43013">
        <ele>92.2</ele>
        <time>2023-08-18T07:04:02Z</time>
      </trkpt>
      <trkpt lat="49.54299" lon="3.43017">
        <ele>92.2</ele>
        <time>2023-08-18T07:04:07Z</time>
      </trkpt>
      <trkpt lat="49.54303" lon="3.43018">
        <ele>92.2</ele>
        <time>2023-08-18T07:04:15Z</time>
      </trkpt>
      <trkpt lat="49.54306" lon="3.43025">
        <ele>92.2</ele>
        <time>2023-08-18T07:04:22Z</time>
      </trkpt>
      <trkpt lat="49.54309" lon="3.43026">
        <ele>91.8</ele>
        <time>2023-08-18T07:04:24Z</time>
      </trkpt>
      <trkpt lat="49.5431" lon="3.43028">
        <ele>91</ele>
        <time>2023-08-18T07:04:25Z</time>
      </trkpt>
      <trkpt lat="49.54311" lon="3.43028">
        <ele>90.6</ele>
        <time>2023-08-18T07:04:26Z</time>
      </trkpt>
      <trkpt lat="49.54312" lon="3.43029">
        <ele>90.2</ele>
        <time>2023-08-18T07:04:27Z</time>
      </trkpt>
      <trkpt lat="49.54315" lon="3.43042">
        <ele>90.2</ele>
        <time>2023-08-18T07:04:32Z</time>
      </trkpt>
      <trkpt lat="49.54318" lon="3.43052">
        <ele>90.2</ele>
        <time>2023-08-18T07:04:35Z</time>
      </trkpt>
      <trkpt lat="49.54319" lon="3.43057">
        <ele>90.2</ele>
        <time>2023-08-18T07:04:37Z</time>
      </trkpt>
      <trkpt lat="49.5432" lon="3.43061">
        <ele>90.2</ele>
        <time>2023-08-18T07:04:42Z</time>
      </trkpt>
      <trkpt lat="49.54319" lon="3.43062">
        <ele>90.2</ele>
        <time>2023-08-18T07:04:49Z</time>
      </trkpt>
      <trkpt lat="49.5432" lon="3.4307">
        <ele>90.2</ele>
        <time>2023-08-18T07:04:52Z</time>
      </trkpt>
      <trkpt lat="49.54322" lon="3.43073">
        <ele>90.2</ele>
        <time>2023-08-18T07:04:58Z</time>
      </trkpt>
      <trkpt lat="49.54323" lon="3.43075">
        <ele>90.2</ele>
        <time>2023-08-18T07:05:03Z</time>
      </trkpt>
      <trkpt lat="49.54323" lon="3.43075">
        <ele>90.2</ele>
        <time>2023-08-18T07:05:10Z</time>
      </trkpt>
      <trkpt lat="49.54325" lon="3.43079">
        <ele>90.2</ele>
        <time>2023-08-18T07:05:14Z</time>
      </trkpt>
      <trkpt lat="49.54327" lon="3.43082">
        <ele>90.2</ele>
        <time>2023-08-18T07:05:18Z</time>
      </trkpt>
      <trkpt lat="49.54327" lon="3.43089">
        <ele>90.2</ele>
        <time>2023-08-18T07:05:22Z</time>
      </trkpt>
      <trkpt lat="49.54339" lon="3.43101">
        <ele>90.2</ele>
        <time>2023-08-18T07:05:27Z</time>
      </trkpt>
      <trkpt lat="49.54344" lon="3.43109">
        <ele>90.2</ele>
        <time>2023-08-18T07:05:31Z</time>
      </trkpt>
      <trkpt lat="49.54344" lon="3.43111">
        <ele>90.2</ele>
        <time>2023-08-18T07:05:32Z</time>
      </trkpt>
      <trkpt lat="49.54348" lon="3.4312">
        <ele>90.2</ele>
        <time>2023-08-18T07:05:36Z</time>
      </trkpt>
      <trkpt lat="49.54355" lon="3.43128">
        <ele>90.2</ele>
        <time>2023-08-18T07:05:42Z</time>
      </trkpt>
      <trkpt lat="49.54356" lon="3.43129">
        <ele>90.2</ele>
        <time>2023-08-18T07:05:48Z</time>
      </trkpt>
      <trkpt lat="49.54355" lon="3.43131">
        <ele>90.2</ele>
        <time>2023-08-18T07:05:55Z</time>
      </trkpt>
      <trkpt lat="49.54355" lon="3.4313">
        <ele>90.2</ele>
        <time>2023-08-18T07:06:02Z</time>
      </trkpt>
      <trkpt lat="49.54359" lon="3.43131">
        <ele>90.2</ele>
        <time>2023-08-18T07:06:08Z</time>
      </trkpt>
      <trkpt lat="49.54359" lon="3.43131">
        <ele>90.2</ele>
        <time>2023-08-18T07:06:14Z</time>
      </trkpt>
      <trkpt lat="49.54359" lon="3.43132">
        <ele>90.2</ele>
        <time>2023-08-18T07:06:21Z</time>
      </trkpt>
      <trkpt lat="49.54359" lon="3.43138">
        <ele>90.2</ele>
        <time>2023-08-18T07:06:27Z</time>
      </trkpt>
      <trkpt lat="49.54362" lon="3.43146">
        <ele>90.2</ele>
        <time>2023-08-18T07:06:32Z</time>
      </trkpt>
      <trkpt lat="49.54362" lon="3.43147">
        <ele>90.6</ele>
        <time>2023-08-18T07:06:35Z</time>
      </trkpt>
      <trkpt lat="49.54363" lon="3.43147">
        <ele>91</ele>
        <time>2023-08-18T07:06:36Z</time>
      </trkpt>
      <trkpt lat="49.54363" lon="3.43147">
        <ele>91.4</ele>
        <time>2023-08-18T07:06:37Z</time>
      </trkpt>
      <trkpt lat="49.54363" lon="3.43149">
        <ele>91.8</ele>
        <time>2023-08-18T07:06:38Z</time>
      </trkpt>
      <trkpt lat="49.54364" lon="3.4315">
        <ele>92.2</ele>
        <time>2023-08-18T07:06:39Z</time>
      </trkpt>
      <trkpt lat="49.54366" lon="3.43153">
        <ele>92.2</ele>
        <time>2023-08-18T07:06:44Z</time>
      </trkpt>
      <trkpt lat="49.54364" lon="3.43158">
        <ele>92.2</ele>
        <time>2023-08-18T07:06:50Z</time>
      </trkpt>
      <trkpt lat="49.54365" lon="3.43157">
        <ele>92.2</ele>
        <time>2023-08-18T07:06:55Z</time>
      </trkpt>
      <trkpt lat="49.54366" lon="3.43158">
        <ele>92.2</ele>
        <time>2023-08-18T07:06:59Z</time>
      </trkpt>
      <trkpt lat="49.54366" lon="3.43156">
        <ele>92.2</ele>
        <time>2023-08-18T07:07:01Z</time>
      </trkpt>
      <trkpt lat="49.54369" lon="3.4315">
        <ele>92.2</ele>
        <time>2023-08-18T07:07:04Z</time>
      </trkpt>
      <trkpt lat="49.54368" lon="3.43153">
        <ele>92.2</ele>
        <time>2023-08-18T07:07:08Z</time>
      </trkpt>
      <trkpt lat="49.5437" lon="3.43157">
        <ele>92.2</ele>
        <time>2023-08-18T07:07:13Z</time>
      </trkpt>
      <trkpt lat="49.54369" lon="3.43161">
        <ele>92.2</ele>
        <time>2023-08-18T07:07:18Z</time>
      </trkpt>
      <trkpt lat="49.54369" lon="3.43161">
        <ele>92.2</ele>
        <time>2023-08-18T07:07:19Z</time>
      </trkpt>
      <trkpt lat="49.54367" lon="3.43168">
        <ele>92.2</ele>
        <time>2023-08-18T07:07:24Z</time>
      </trkpt>
      <trkpt lat="49.54367" lon="3.43171">
        <ele>92.2</ele>
        <time>2023-08-18T07:07:25Z</time>
      </trkpt>
      <trkpt lat="49.54367" lon="3.43176">
        <ele>92.2</ele>
        <time>2023-08-18T07:07:30Z</time>
      </trkpt>
      <trkpt lat="49.54367" lon="3.43176">
        <ele>92.2</ele>
        <time>2023-08-18T07:07:35Z</time>
      </trkpt>
      <trkpt lat="49.54367" lon="3.43176">
        <ele>92.2</ele>
        <time>2023-08-18T07:07:42Z</time>
      </trkpt>
      <trkpt lat="49.54367" lon="3.43176">
        <ele>92.2</ele>
        <time>2023-08-18T07:07:53Z</time>
      </trkpt>
      <trkpt lat="49.54367" lon="3.43176">
        <ele>92.2</ele>
        <time>2023-08-18T07:08:05Z</time>
      </trkpt>
      <trkpt lat="49.54367" lon="3.43177">
        <ele>92.2</ele>
        <time>2023-08-18T07:08:12Z</time>
      </trkpt>
      <trkpt lat="49.54367" lon="3.43177">
        <ele>92.2</ele>
        <time>2023-08-18T07:08:19Z</time>
      </trkpt>
      <trkpt lat="49.54368" lon="3.43176">
        <ele>92.2</ele>
        <time>2023-08-18T07:08:31Z</time>
      </trkpt>
      <trkpt lat="49.54368" lon="3.43178">
        <ele>92.2</ele>
        <time>2023-08-18T07:08:36Z</time>
      </trkpt>
      <trkpt lat="49.54367" lon="3.43181">
        <ele>92.2</ele>
        <time>2023-08-18T07:08:42Z</time>
      </trkpt>
      <trkpt lat="49.5437" lon="3.4318">
        <ele>92.2</ele>
        <time>2023-08-18T07:08:47Z</time>
      </trkpt>
      <trkpt lat="49.5437" lon="3.4318">
        <ele>92.2</ele>
        <time>2023-08-18T07:08:56Z</time>
      </trkpt>
      <trkpt lat="49.5437" lon="3.4318">
        <ele>92.2</ele>
        <time>2023-08-18T07:09:06Z</time>
      </trkpt>
      <trkpt lat="49.5437" lon="3.4318">
        <ele>92.2</ele>
        <time>2023-08-18T07:09:17Z</time>
      </trkpt>
      <trkpt lat="49.5437" lon="3.4318">
        <ele>92.2</ele>
        <time>2023-08-18T07:09:26Z</time>
      </trkpt>
      <trkpt lat="49.54369" lon="3.43177">
        <ele>92.2</ele>
        <time>2023-08-18T07:09:35Z</time>
      </trkpt>
      <trkpt lat="49.54369" lon="3.43177">
        <ele>92.2</ele>
        <time>2023-08-18T07:09:43Z</time>
      </trkpt>
      <trkpt lat="49.54369" lon="3.43177">
        <ele>92.2</ele>
        <time>2023-08-18T07:09:53Z</time>
      </trkpt>
      <trkpt lat="49.54369" lon="3.43177">
        <ele>92.2</ele>
        <time>2023-08-18T07:10:02Z</time>
      </trkpt>
      <trkpt lat="49.54368" lon="3.43178">
        <ele>92.2</ele>
        <time>2023-08-18T07:10:07Z</time>
      </trkpt>
      <trkpt lat="49.54368" lon="3.43178">
        <ele>92.2</ele>
        <time>2023-08-18T07:10:16Z</time>
      </trkpt>
      <trkpt lat="49.54368" lon="3.43178">
        <ele>92.2</ele>
        <time>2023-08-18T07:10:22Z</time>
      </trkpt>
      <trkpt lat="49.54368" lon="3.43177">
        <ele>92.2</ele>
        <time>2023-08-18T07:10:29Z</time>
      </trkpt>
      <trkpt lat="49.54366" lon="3.43175">
        <ele>92.2</ele>
        <time>2023-08-18T07:10:34Z</time>
      </trkpt>
      <trkpt lat="49.54366" lon="3.43176">
        <ele>92.2</ele>
        <time>2023-08-18T07:10:43Z</time>
      </trkpt>
      <trkpt lat="49.54366" lon="3.43176">
        <ele>92.2</ele>
        <time>2023-08-18T07:10:56Z</time>
      </trkpt>
      <trkpt lat="49.54366" lon="3.43176">
        <ele>92.2</ele>
        <time>2023-08-18T07:11:04Z</time>
      </trkpt>
      <trkpt lat="49.54366" lon="3.43176">
        <ele>92.2</ele>
        <time>2023-08-18T07:11:14Z</time>
      </trkpt>
      <trkpt lat="49.54366" lon="3.43175">
        <ele>92.2</ele>
        <time>2023-08-18T07:11:21Z</time>
      </trkpt>
      <trkpt lat="49.54366" lon="3.43175">
        <ele>92.2</ele>
        <time>2023-08-18T07:11:28Z</time>
      </trkpt>
      <trkpt lat="49.54366" lon="3.43174">
        <ele>92.2</ele>
        <time>2023-08-18T07:11:29Z</time>
      </trkpt>
      <trkpt lat="49.54368" lon="3.4317">
        <ele>92.2</ele>
        <time>2023-08-18T07:11:31Z</time>
      </trkpt>
      <trkpt lat="49.5437" lon="3.43158">
        <ele>92.2</ele>
        <time>2023-08-18T07:11:36Z</time>
      </trkpt>
      <trkpt lat="49.54368" lon="3.43151">
        <ele>92.2</ele>
        <time>2023-08-18T07:11:41Z</time>
      </trkpt>
      <trkpt lat="49.54369" lon="3.43148">
        <ele>92.2</ele>
        <time>2023-08-18T07:11:45Z</time>
      </trkpt>
      <trkpt lat="49.54371" lon="3.43146">
        <ele>92.2</ele>
        <time>2023-08-18T07:11:50Z</time>
      </trkpt>
      <trkpt lat="49.54373" lon="3.43145">
        <ele>92.2</ele>
        <time>2023-08-18T07:11:55Z</time>
      </trkpt>
      <trkpt lat="49.54374" lon="3.43145">
        <ele>92.2</ele>
        <time>2023-08-18T07:11:57Z</time>
      </trkpt>
      <trkpt lat="49.54379" lon="3.43143">
        <ele>92.2</ele>
        <time>2023-08-18T07:12:00Z</time>
      </trkpt>
      <trkpt lat="49.54381" lon="3.43142">
        <ele>91.8</ele>
        <time>2023-08-18T07:12:01Z</time>
      </trkpt>
      <trkpt lat="49.54382" lon="3.43142">
        <ele>91.4</ele>
        <time>2023-08-18T07:12:02Z</time>
      </trkpt>
      <trkpt lat="49.54382" lon="3.43142">
        <ele>91</ele>
        <time>2023-08-18T07:12:03Z</time>
      </trkpt>
      <trkpt lat="49.54384" lon="3.43141">
        <ele>90.6</ele>
        <time>2023-08-18T07:12:04Z</time>
      </trkpt>
      <trkpt lat="49.54385" lon="3.43141">
        <ele>90.2</ele>
        <time>2023-08-18T07:12:05Z</time>
      </trkpt>
      <trkpt lat="49.54387" lon="3.43141">
        <ele>90.2</ele>
        <time>2023-08-18T07:12:06Z</time>
      </trkpt>
      <trkpt lat="49.5439" lon="3.43143">
        <ele>90.2</ele>
        <time>2023-08-18T07:12:08Z</time>
      </trkpt>
      <trkpt lat="49.54392" lon="3.43144">
        <ele>90.2</ele>
        <time>2023-08-18T07:12:11Z</time>
      </trkpt>
      <trkpt lat="49.54391" lon="3.43145">
        <ele>90.2</ele>
        <time>2023-08-18T07:12:18Z</time>
      </trkpt>
      <trkpt lat="49.5439" lon="3.43144">
        <ele>90.2</ele>
        <time>2023-08-18T07:12:26Z</time>
      </trkpt>
      <trkpt lat="49.5439" lon="3.43144">
        <ele>90.2</ele>
        <time>2023-08-18T07:12:33Z</time>
      </trkpt>
      <trkpt lat="49.5439" lon="3.43145">
        <ele>90.2</ele>
        <time>2023-08-18T07:12:40Z</time>
      </trkpt>
      <trkpt lat="49.54391" lon="3.43146">
        <ele>90.2</ele>
        <time>2023-08-18T07:12:46Z</time>
      </trkpt>
      <trkpt lat="49.54392" lon="3.43147">
        <ele>90.2</ele>
        <time>2023-08-18T07:12:53Z</time>
      </trkpt>
      <trkpt lat="49.54394" lon="3.43143">
        <ele>90.2</ele>
        <time>2023-08-18T07:13:00Z</time>
      </trkpt>
      <trkpt lat="49.54394" lon="3.43144">
        <ele>90.2</ele>
        <time>2023-08-18T07:13:08Z</time>
      </trkpt>
      <trkpt lat="49.54393" lon="3.43144">
        <ele>90.2</ele>
        <time>2023-08-18T07:13:15Z</time>
      </trkpt>
      <trkpt lat="49.54392" lon="3.43143">
        <ele>90.2</ele>
        <time>2023-08-18T07:13:23Z</time>
      </trkpt>
      <trkpt lat="49.54392" lon="3.43142">
        <ele>90.2</ele>
        <time>2023-08-18T07:13:30Z</time>
      </trkpt>
      <trkpt lat="49.54393" lon="3.43143">
        <ele>90.2</ele>
        <time>2023-08-18T07:13:38Z</time>
      </trkpt>
      <trkpt lat="49.54391" lon="3.43143">
        <ele>90.2</ele>
        <time>2023-08-18T07:13:44Z</time>
      </trkpt>
      <trkpt lat="49.5439" lon="3.43143">
        <ele>90.2</ele>
        <time>2023-08-18T07:13:53Z</time>
      </trkpt>
      <trkpt lat="49.5439" lon="3.43143">
        <ele>90.2</ele>
        <time>2023-08-18T07:14:10Z</time>
      </trkpt>
      <trkpt lat="49.5439" lon="3.43143">
        <ele>90.2</ele>
        <time>2023-08-18T07:14:24Z</time>
      </trkpt>
      <trkpt lat="49.5439" lon="3.43143">
        <ele>90.2</ele>
        <time>2023-08-18T07:14:41Z</time>
      </trkpt>
      <trkpt lat="49.5439" lon="3.43143">
        <ele>90.2</ele>
        <time>2023-08-18T07:14:48Z</time>
      </trkpt>
      <trkpt lat="49.54391" lon="3.43143">
        <ele>90.2</ele>
        <time>2023-08-18T07:14:57Z</time>
      </trkpt>
      <trkpt lat="49.54391" lon="3.43143">
        <ele>90.2</ele>
        <time>2023-08-18T07:15:04Z</time>
      </trkpt>
      <trkpt lat="49.5439" lon="3.43144">
        <ele>90.2</ele>
        <time>2023-08-18T07:15:10Z</time>
      </trkpt>
      <trkpt lat="49.5439" lon="3.43144">
        <ele>90.2</ele>
        <time>2023-08-18T07:15:19Z</time>
      </trkpt>
      <trkpt lat="49.54396" lon="3.4315">
        <ele>90.2</ele>
        <time>2023-08-18T07:15:25Z</time>
      </trkpt>
      <trkpt lat="49.54401" lon="3.43157">
        <ele>90.2</ele>
        <time>2023-08-18T07:15:30Z</time>
      </trkpt>
      <trkpt lat="49.54403" lon="3.43159">
        <ele>90.2</ele>
        <time>2023-08-18T07:15:31Z</time>
      </trkpt>
      <trkpt lat="49.54405" lon="3.43165">
        <ele>90.2</ele>
        <time>2023-08-18T07:15:35Z</time>
      </trkpt>
      <trkpt lat="49.54406" lon="3.43165">
        <ele>90.2</ele>
        <time>2023-08-18T07:15:36Z</time>
      </trkpt>
      <trkpt lat="49.54408" lon="3.43168">
        <ele>90.2</ele>
        <time>2023-08-18T07:15:42Z</time>
      </trkpt>
      <trkpt lat="49.54413" lon="3.43175">
        <ele>90.2</ele>
        <time>2023-08-18T07:15:46Z</time>
      </trkpt>
      <trkpt lat="49.54415" lon="3.43177">
        <ele>90.2</ele>
        <time>2023-08-18T07:15:47Z</time>
      </trkpt>
      <trkpt lat="49.54418" lon="3.43183">
        <ele>90.2</ele>
        <time>2023-08-18T07:15:51Z</time>
      </trkpt>
      <trkpt lat="49.54423" lon="3.43183">
        <ele>90.2</ele>
        <time>2023-08-18T07:15:56Z</time>
      </trkpt>
      <trkpt lat="49.54426" lon="3.43184">
        <ele>90.2</ele>
        <time>2023-08-18T07:16:02Z</time>
      </trkpt>
      <trkpt lat="49.54431" lon="3.4319">
        <ele>90.2</ele>
        <time>2023-08-18T07:16:05Z</time>
      </trkpt>
      <trkpt lat="49.54434" lon="3.43194">
        <ele>90.2</ele>
        <time>2023-08-18T07:16:08Z</time>
      </trkpt>
      <trkpt lat="49.5444" lon="3.43201">
        <ele>90.2</ele>
        <time>2023-08-18T07:16:16Z</time>
      </trkpt>
      <trkpt lat="49.54442" lon="3.43202">
        <ele>90.6</ele>
        <time>2023-08-18T07:16:20Z</time>
      </trkpt>
      <trkpt lat="49.54442" lon="3.43202">
        <ele>91</ele>
        <time>2023-08-18T07:16:21Z</time>
      </trkpt>
      <trkpt lat="49.54442" lon="3.43203">
        <ele>91.4</ele>
        <time>2023-08-18T07:16:22Z</time>
      </trkpt>
      <trkpt lat="49.54443" lon="3.43203">
        <ele>92.4</ele>
        <time>2023-08-18T07:16:23Z</time>
      </trkpt>
      <trkpt lat="49.54446" lon="3.43208">
        <ele>92.4</ele>
        <time>2023-08-18T07:16:27Z</time>
      </trkpt>
      <trkpt lat="49.5445" lon="3.43214">
        <ele>92.4</ele>
        <time>2023-08-18T07:16:32Z</time>
      </trkpt>
      <trkpt lat="49.54459" lon="3.43225">
        <ele>92.4</ele>
        <time>2023-08-18T07:16:38Z</time>
      </trkpt>
      <trkpt lat="49.54461" lon="3.4323">
        <ele>92.4</ele>
        <time>2023-08-18T07:16:42Z</time>
      </trkpt>
      <trkpt lat="49.54466" lon="3.43241">
        <ele>92.4</ele>
        <time>2023-08-18T07:16:48Z</time>
      </trkpt>
      <trkpt lat="49.54474" lon="3.43245">
        <ele>92.8</ele>
        <time>2023-08-18T07:16:55Z</time>
      </trkpt>
      <trkpt lat="49.54475" lon="3.43246">
        <ele>93.2</ele>
        <time>2023-08-18T07:16:56Z</time>
      </trkpt>
      <trkpt lat="49.54477" lon="3.43246">
        <ele>93.6</ele>
        <time>2023-08-18T07:16:57Z</time>
      </trkpt>
      <trkpt lat="49.54478" lon="3.43248">
        <ele>94</ele>
        <time>2023-08-18T07:16:58Z</time>
      </trkpt>
      <trkpt lat="49.54479" lon="3.4325">
        <ele>94.4</ele>
        <time>2023-08-18T07:16:59Z</time>
      </trkpt>
      <trkpt lat="49.54479" lon="3.43253">
        <ele>94.4</ele>
        <time>2023-08-18T07:17:00Z</time>
      </trkpt>
      <trkpt lat="49.54484" lon="3.43262">
        <ele>94.4</ele>
        <time>2023-08-18T07:17:07Z</time>
      </trkpt>
      <trkpt lat="49.54484" lon="3.43262">
        <ele>94.8</ele>
        <time>2023-08-18T07:17:09Z</time>
      </trkpt>
      <trkpt lat="49.54484" lon="3.43263">
        <ele>95.2</ele>
        <time>2023-08-18T07:17:10Z</time>
      </trkpt>
      <trkpt lat="49.54484" lon="3.43263">
        <ele>95.6</ele>
        <time>2023-08-18T07:17:11Z</time>
      </trkpt>
      <trkpt lat="49.54485" lon="3.43263">
        <ele>96.4</ele>
        <time>2023-08-18T07:17:12Z</time>
      </trkpt>
      <trkpt lat="49.54488" lon="3.43265">
        <ele>96.4</ele>
        <time>2023-08-18T07:17:14Z</time>
      </trkpt>
      <trkpt lat="49.54489" lon="3.43266">
        <ele>96.4</ele>
        <time>2023-08-18T07:17:15Z</time>
      </trkpt>
      <trkpt lat="49.54494" lon="3.43274">
        <ele>96.4</ele>
        <time>2023-08-18T07:17:19Z</time>
      </trkpt>
      <trkpt lat="49.54496" lon="3.43275">
        <ele>96.4</ele>
        <time>2023-08-18T07:17:20Z</time>
      </trkpt>
      <trkpt lat="49.545" lon="3.43278">
        <ele>96.4</ele>
        <time>2023-08-18T07:17:23Z</time>
      </trkpt>
      <trkpt lat="49.54501" lon="3.43278">
        <ele>96.4</ele>
        <time>2023-08-18T07:17:24Z</time>
      </trkpt>
      <trkpt lat="49.54501" lon="3.43278">
        <ele>96.8</ele>
        <time>2023-08-18T07:17:25Z</time>
      </trkpt>
      <trkpt lat="49.54502" lon="3.43278">
        <ele>97.2</ele>
        <time>2023-08-18T07:17:26Z</time>
      </trkpt>
      <trkpt lat="49.54502" lon="3.43278">
        <ele>97.6</ele>
        <time>2023-08-18T07:17:27Z</time>
      </trkpt>
      <trkpt lat="49.54502" lon="3.43278">
        <ele>98</ele>
        <time>2023-08-18T07:17:28Z</time>
      </trkpt>
      <trkpt lat="49.54502" lon="3.43281">
        <ele>98.4</ele>
        <time>2023-08-18T07:17:29Z</time>
      </trkpt>
      <trkpt lat="49.54503" lon="3.43283">
        <ele>98.4</ele>
        <time>2023-08-18T07:17:30Z</time>
      </trkpt>
      <trkpt lat="49.54503" lon="3.43288">
        <ele>98.4</ele>
        <time>2023-08-18T07:17:32Z</time>
      </trkpt>
      <trkpt lat="49.54505" lon="3.43291">
        <ele>98.4</ele>
        <time>2023-08-18T07:17:34Z</time>
      </trkpt>
      <trkpt lat="49.54506" lon="3.43293">
        <ele>98.4</ele>
        <time>2023-08-18T07:17:37Z</time>
      </trkpt>
      <trkpt lat="49.54508" lon="3.43299">
        <ele>98.4</ele>
        <time>2023-08-18T07:17:43Z</time>
      </trkpt>
      <trkpt lat="49.5451" lon="3.43305">
        <ele>98.8</ele>
        <time>2023-08-18T07:17:48Z</time>
      </trkpt>
      <trkpt lat="49.54511" lon="3.43307">
        <ele>99.2</ele>
        <time>2023-08-18T07:17:49Z</time>
      </trkpt>
      <trkpt lat="49.54513" lon="3.43308">
        <ele>99.6</ele>
        <time>2023-08-18T07:17:50Z</time>
      </trkpt>
      <trkpt lat="49.54513" lon="3.43308">
        <ele>100</ele>
        <time>2023-08-18T07:17:51Z</time>
      </trkpt>
      <trkpt lat="49.54514" lon="3.43309">
        <ele>100.4</ele>
        <time>2023-08-18T07:17:52Z</time>
      </trkpt>
      <trkpt lat="49.54516" lon="3.43312">
        <ele>100.4</ele>
        <time>2023-08-18T07:17:57Z</time>
      </trkpt>
      <trkpt lat="49.54518" lon="3.43314">
        <ele>100.4</ele>
        <time>2023-08-18T07:18:03Z</time>
      </trkpt>
      <trkpt lat="49.54528" lon="3.43321">
        <ele>100.4</ele>
        <time>2023-08-18T07:18:09Z</time>
      </trkpt>
      <trkpt lat="49.54532" lon="3.43325">
        <ele>100.4</ele>
        <time>2023-08-18T07:18:11Z</time>
      </trkpt>
      <trkpt lat="49.54538" lon="3.43327">
        <ele>100.4</ele>
        <time>2023-08-18T07:18:14Z</time>
      </trkpt>
      <trkpt lat="49.54545" lon="3.43331">
        <ele>100.4</ele>
        <time>2023-08-18T07:18:18Z</time>
      </trkpt>
      <trkpt lat="49.54547" lon="3.43332">
        <ele>100.4</ele>
        <time>2023-08-18T07:18:20Z</time>
      </trkpt>
      <trkpt lat="49.54549" lon="3.43339">
        <ele>100.4</ele>
        <time>2023-08-18T07:18:26Z</time>
      </trkpt>
      <trkpt lat="49.54553" lon="3.4335">
        <ele>100.8</ele>
        <time>2023-08-18T07:18:32Z</time>
      </trkpt>
      <trkpt lat="49.54553" lon="3.43352">
        <ele>101.4</ele>
        <time>2023-08-18T07:18:33Z</time>
      </trkpt>
      <trkpt lat="49.54554" lon="3.43355">
        <ele>101.8</ele>
        <time>2023-08-18T07:18:34Z</time>
      </trkpt>
      <trkpt lat="49.54555" lon="3.43356">
        <ele>102.2</ele>
        <time>2023-08-18T07:18:35Z</time>
      </trkpt>
      <trkpt lat="49.54556" lon="3.43357">
        <ele>102.6</ele>
        <time>2023-08-18T07:18:36Z</time>
      </trkpt>
      <trkpt lat="49.54557" lon="3.43357">
        <ele>102.6</ele>
        <time>2023-08-18T07:18:37Z</time>
      </trkpt>
      <trkpt lat="49.54561" lon="3.4336">
        <ele>102.6</ele>
        <time>2023-08-18T07:18:41Z</time>
      </trkpt>
      <trkpt lat="49.54566" lon="3.43363">
        <ele>102.6</ele>
        <time>2023-08-18T07:18:43Z</time>
      </trkpt>
      <trkpt lat="49.54574" lon="3.43369">
        <ele>102.6</ele>
        <time>2023-08-18T07:18:48Z</time>
      </trkpt>
      <trkpt lat="49.54577" lon="3.43372">
        <ele>102.6</ele>
        <time>2023-08-18T07:18:53Z</time>
      </trkpt>
      <trkpt lat="49.54589" lon="3.43381">
        <ele>102.6</ele>
        <time>2023-08-18T07:18:58Z</time>
      </trkpt>
      <trkpt lat="49.54599" lon="3.43393">
        <ele>102.6</ele>
        <time>2023-08-18T07:19:05Z</time>
      </trkpt>
      <trkpt lat="49.54602" lon="3.43397">
        <ele>102.6</ele>
        <time>2023-08-18T07:19:08Z</time>
      </trkpt>
      <trkpt lat="49.54602" lon="3.43398">
        <ele>102.6</ele>
        <time>2023-08-18T07:19:09Z</time>
      </trkpt>
      <trkpt lat="49.54603" lon="3.43404">
        <ele>102.6</ele>
        <time>2023-08-18T07:19:14Z</time>
      </trkpt>
      <trkpt lat="49.54606" lon="3.43409">
        <ele>102.2</ele>
        <time>2023-08-18T07:19:19Z</time>
      </trkpt>
      <trkpt lat="49.54607" lon="3.4341">
        <ele>101.8</ele>
        <time>2023-08-18T07:19:20Z</time>
      </trkpt>
      <trkpt lat="49.54608" lon="3.43412">
        <ele>101.4</ele>
        <time>2023-08-18T07:19:21Z</time>
      </trkpt>
      <trkpt lat="49.54607" lon="3.43414">
        <ele>101</ele>
        <time>2023-08-18T07:19:22Z</time>
      </trkpt>
      <trkpt lat="49.54607" lon="3.43415">
        <ele>100.6</ele>
        <time>2023-08-18T07:19:23Z</time>
      </trkpt>
      <trkpt lat="49.54607" lon="3.43416">
        <ele>100.6</ele>
        <time>2023-08-18T07:19:25Z</time>
      </trkpt>
      <trkpt lat="49.54609" lon="3.43417">
        <ele>100.6</ele>
        <time>2023-08-18T07:19:27Z</time>
      </trkpt>
      <trkpt lat="49.54611" lon="3.43418">
        <ele>100.6</ele>
        <time>2023-08-18T07:19:30Z</time>
      </trkpt>
      <trkpt lat="49.54613" lon="3.43423">
        <ele>100.6</ele>
        <time>2023-08-18T07:19:32Z</time>
      </trkpt>
      <trkpt lat="49.54617" lon="3.43431">
        <ele>100.6</ele>
        <time>2023-08-18T07:19:35Z</time>
      </trkpt>
      <trkpt lat="49.54625" lon="3.43442">
        <ele>100.6</ele>
        <time>2023-08-18T07:19:40Z</time>
      </trkpt>
      <trkpt lat="49.54633" lon="3.43454">
        <ele>100.6</ele>
        <time>2023-08-18T07:19:45Z</time>
      </trkpt>
      <trkpt lat="49.54635" lon="3.43461">
        <ele>100.2</ele>
        <time>2023-08-18T07:19:52Z</time>
      </trkpt>
      <trkpt lat="49.54635" lon="3.43461">
        <ele>99.8</ele>
        <time>2023-08-18T07:19:53Z</time>
      </trkpt>
      <trkpt lat="49.54636" lon="3.43462">
        <ele>99.2</ele>
        <time>2023-08-18T07:19:54Z</time>
      </trkpt>
      <trkpt lat="49.54636" lon="3.43462">
        <ele>98.8</ele>
        <time>2023-08-18T07:19:55Z</time>
      </trkpt>
      <trkpt lat="49.54636" lon="3.43462">
        <ele>98.4</ele>
        <time>2023-08-18T07:19:56Z</time>
      </trkpt>
      <trkpt lat="49.54635" lon="3.43464">
        <ele>98.4</ele>
        <time>2023-08-18T07:19:58Z</time>
      </trkpt>
      <trkpt lat="49.54635" lon="3.43465">
        <ele>98.4</ele>
        <time>2023-08-18T07:20:05Z</time>
      </trkpt>
      <trkpt lat="49.54638" lon="3.43466">
        <ele>98.4</ele>
        <time>2023-08-18T07:20:09Z</time>
      </trkpt>
      <trkpt lat="49.54638" lon="3.43465">
        <ele>98.4</ele>
        <time>2023-08-18T07:20:10Z</time>
      </trkpt>
      <trkpt lat="49.54639" lon="3.43468">
        <ele>98.4</ele>
        <time>2023-08-18T07:20:14Z</time>
      </trkpt>
      <trkpt lat="49.54637" lon="3.4347">
        <ele>98.4</ele>
        <time>2023-08-18T07:20:18Z</time>
      </trkpt>
      <trkpt lat="49.54637" lon="3.4347">
        <ele>98.4</ele>
        <time>2023-08-18T07:20:25Z</time>
      </trkpt>
      <trkpt lat="49.54637" lon="3.43469">
        <ele>98.4</ele>
        <time>2023-08-18T07:20:30Z</time>
      </trkpt>
      <trkpt lat="49.54637" lon="3.43469">
        <ele>98.4</ele>
        <time>2023-08-18T07:20:35Z</time>
      </trkpt>
      <trkpt lat="49.54635" lon="3.4347">
        <ele>98.4</ele>
        <time>2023-08-18T07:20:47Z</time>
      </trkpt>
      <trkpt lat="49.54635" lon="3.4347">
        <ele>98.4</ele>
        <time>2023-08-18T07:20:53Z</time>
      </trkpt>
      <trkpt lat="49.54634" lon="3.43474">
        <ele>98.4</ele>
        <time>2023-08-18T07:21:01Z</time>
      </trkpt>
      <trkpt lat="49.54634" lon="3.43474">
        <ele>98.4</ele>
        <time>2023-08-18T07:21:09Z</time>
      </trkpt>
      <trkpt lat="49.54634" lon="3.43475">
        <ele>98.4</ele>
        <time>2023-08-18T07:21:15Z</time>
      </trkpt>
      <trkpt lat="49.54634" lon="3.43474">
        <ele>98.4</ele>
        <time>2023-08-18T07:21:20Z</time>
      </trkpt>
      <trkpt lat="49.54633" lon="3.43474">
        <ele>98.4</ele>
        <time>2023-08-18T07:21:27Z</time>
      </trkpt>
      <trkpt lat="49.54633" lon="3.43474">
        <ele>98.4</ele>
        <time>2023-08-18T07:21:37Z</time>
      </trkpt>
      <trkpt lat="49.54633" lon="3.43474">
        <ele>98.4</ele>
        <time>2023-08-18T07:21:47Z</time>
      </trkpt>
      <trkpt lat="49.54633" lon="3.43474">
        <ele>98.4</ele>
        <time>2023-08-18T07:21:56Z</time>
      </trkpt>
      <trkpt lat="49.54632" lon="3.4347">
        <ele>98.4</ele>
        <time>2023-08-18T07:22:00Z</time>
      </trkpt>
      <trkpt lat="49.54632" lon="3.4347">
        <ele>98.4</ele>
        <time>2023-08-18T07:22:09Z</time>
      </trkpt>
      <trkpt lat="49.54632" lon="3.4347">
        <ele>98.4</ele>
        <time>2023-08-18T07:22:18Z</time>
      </trkpt>
      <trkpt lat="49.54632" lon="3.4347">
        <ele>98.4</ele>
        <time>2023-08-18T07:22:31Z</time>
      </trkpt>
      <trkpt lat="49.54632" lon="3.4347">
        <ele>98.4</ele>
        <time>2023-08-18T07:22:37Z</time>
      </trkpt>
      <trkpt lat="49.54632" lon="3.4347">
        <ele>98.4</ele>
        <time>2023-08-18T07:22:44Z</time>
      </trkpt>
      <trkpt lat="49.54632" lon="3.4347">
        <ele>98.4</ele>
        <time>2023-08-18T07:22:58Z</time>
      </trkpt>
      <trkpt lat="49.54632" lon="3.43471">
        <ele>98.4</ele>
        <time>2023-08-18T07:23:10Z</time>
      </trkpt>
      <trkpt lat="49.54631" lon="3.43473">
        <ele>98.4</ele>
        <time>2023-08-18T07:23:14Z</time>
      </trkpt>
      <trkpt lat="49.54635" lon="3.43478">
        <ele>98.4</ele>
        <time>2023-08-18T07:23:23Z</time>
      </trkpt>
      <trkpt lat="49.54635" lon="3.43481">
        <ele>98.4</ele>
        <time>2023-08-18T07:23:24Z</time>
      </trkpt>
      <trkpt lat="49.54636" lon="3.43485">
        <ele>98.4</ele>
        <time>2023-08-18T07:23:28Z</time>
      </trkpt>
      <trkpt lat="49.54639" lon="3.43492">
        <ele>98.4</ele>
        <time>2023-08-18T07:23:34Z</time>
      </trkpt>
      <trkpt lat="49.5465" lon="3.43501">
        <ele>98.4</ele>
        <time>2023-08-18T07:23:41Z</time>
      </trkpt>
      <trkpt lat="49.54652" lon="3.43514">
        <ele>98.4</ele>
        <time>2023-08-18T07:23:46Z</time>
      </trkpt>
      <trkpt lat="49.54655" lon="3.43515">
        <ele>98.4</ele>
        <time>2023-08-18T07:23:51Z</time>
      </trkpt>
      <trkpt lat="49.54658" lon="3.43515">
        <ele>98.4</ele>
        <time>2023-08-18T07:23:56Z</time>
      </trkpt>
      <trkpt lat="49.54659" lon="3.43526">
        <ele>98.4</ele>
        <time>2023-08-18T07:24:02Z</time>
      </trkpt>
      <trkpt lat="49.54661" lon="3.43536">
        <ele>98.4</ele>
        <time>2023-08-18T07:24:07Z</time>
      </trkpt>
      <trkpt lat="49.54664" lon="3.43544">
        <ele>98.4</ele>
        <time>2023-08-18T07:24:14Z</time>
      </trkpt>
      <trkpt lat="49.54668" lon="3.43549">
        <ele>98.4</ele>
        <time>2023-08-18T07:24:19Z</time>
      </trkpt>
      <trkpt lat="49.54668" lon="3.43551">
        <ele>98.4</ele>
        <time>2023-08-18T07:24:25Z</time>
      </trkpt>
      <trkpt lat="49.54669" lon="3.43551">
        <ele>98.4</ele>
        <time>2023-08-18T07:24:31Z</time>
      </trkpt>
      <trkpt lat="49.54667" lon="3.4355">
        <ele>98.4</ele>
        <time>2023-08-18T07:24:32Z</time>
      </trkpt>
      <trkpt lat="49.54664" lon="3.4355">
        <ele>98.4</ele>
        <time>2023-08-18T07:24:36Z</time>
      </trkpt>
      <trkpt lat="49.54662" lon="3.4354">
        <ele>98.4</ele>
        <time>2023-08-18T07:24:42Z</time>
      </trkpt>
      <trkpt lat="49.54662" lon="3.43541">
        <ele>98.4</ele>
        <time>2023-08-18T07:24:48Z</time>
      </trkpt>
      <trkpt lat="49.54662" lon="3.4354">
        <ele>98.4</ele>
        <time>2023-08-18T07:24:58Z</time>
      </trkpt>
      <trkpt lat="49.54662" lon="3.43539">
        <ele>98.4</ele>
        <time>2023-08-18T07:25:04Z</time>
      </trkpt>
      <trkpt lat="49.54662" lon="3.4354">
        <ele>98.4</ele>
        <time>2023-08-18T07:25:14Z</time>
      </trkpt>
      <trkpt lat="49.54662" lon="3.43538">
        <ele>98.4</ele>
        <time>2023-08-18T07:25:16Z</time>
      </trkpt>
      <trkpt lat="49.54661" lon="3.43538">
        <ele>98.4</ele>
        <time>2023-08-18T07:25:18Z</time>
      </trkpt>
      <trkpt lat="49.54662" lon="3.43539">
        <ele>98.4</ele>
        <time>2023-08-18T07:25:27Z</time>
      </trkpt>
      <trkpt lat="49.54661" lon="3.43539">
        <ele>98.4</ele>
        <time>2023-08-18T07:25:32Z</time>
      </trkpt>
      <trkpt lat="49.54662" lon="3.43539">
        <ele>98.4</ele>
        <time>2023-08-18T07:25:39Z</time>
      </trkpt>
      <trkpt lat="49.54662" lon="3.43539">
        <ele>98.4</ele>
        <time>2023-08-18T07:25:46Z</time>
      </trkpt>
      <trkpt lat="49.54662" lon="3.43539">
        <ele>98.4</ele>
        <time>2023-08-18T07:25:55Z</time>
      </trkpt>
      <trkpt lat="49.54662" lon="3.43539">
        <ele>98.4</ele>
        <time>2023-08-18T07:26:03Z</time>
      </trkpt>
      <trkpt lat="49.54663" lon="3.4354">
        <ele>98.4</ele>
        <time>2023-08-18T07:26:07Z</time>
      </trkpt>
      <trkpt lat="49.54663" lon="3.4354">
        <ele>98.4</ele>
        <time>2023-08-18T07:26:14Z</time>
      </trkpt>
      <trkpt lat="49.54663" lon="3.4354">
        <ele>98.4</ele>
        <time>2023-08-18T07:26:27Z</time>
      </trkpt>
      <trkpt lat="49.54663" lon="3.4354">
        <ele>98.4</ele>
        <time>2023-08-18T07:26:40Z</time>
      </trkpt>
      <trkpt lat="49.54663" lon="3.43541">
        <ele>98.4</ele>
        <time>2023-08-18T07:26:48Z</time>
      </trkpt>
      <trkpt lat="49.54663" lon="3.43541">
        <ele>98.4</ele>
        <time>2023-08-18T07:27:00Z</time>
      </trkpt>
      <trkpt lat="49.54663" lon="3.43541">
        <ele>98.4</ele>
        <time>2023-08-18T07:27:07Z</time>
      </trkpt>
      <trkpt lat="49.54665" lon="3.43549">
        <ele>98.4</ele>
        <time>2023-08-18T07:27:12Z</time>
      </trkpt>
      <trkpt lat="49.54668" lon="3.4355">
        <ele>98.4</ele>
        <time>2023-08-18T07:27:14Z</time>
      </trkpt>
      <trkpt lat="49.54669" lon="3.43553">
        <ele>98.4</ele>
        <time>2023-08-18T07:27:20Z</time>
      </trkpt>
      <trkpt lat="49.54672" lon="3.43556">
        <ele>98.4</ele>
        <time>2023-08-18T07:27:25Z</time>
      </trkpt>
      <trkpt lat="49.54675" lon="3.4356">
        <ele>98.4</ele>
        <time>2023-08-18T07:27:27Z</time>
      </trkpt>
      <trkpt lat="49.54677" lon="3.43564">
        <ele>98.4</ele>
        <time>2023-08-18T07:27:29Z</time>
      </trkpt>
      <trkpt lat="49.54681" lon="3.43571">
        <ele>98.4</ele>
        <time>2023-08-18T07:27:34Z</time>
      </trkpt>
      <trkpt lat="49.54686" lon="3.43579">
        <ele>98.4</ele>
        <time>2023-08-18T07:27:41Z</time>
      </trkpt>
      <trkpt lat="49.54687" lon="3.4358">
        <ele>98.4</ele>
        <time>2023-08-18T07:27:42Z</time>
      </trkpt>
      <trkpt lat="49.54691" lon="3.43587">
        <ele>98.4</ele>
        <time>2023-08-18T07:27:46Z</time>
      </trkpt>
      <trkpt lat="49.54691" lon="3.4359">
        <ele>98.4</ele>
        <time>2023-08-18T07:27:52Z</time>
      </trkpt>
      <trkpt lat="49.54692" lon="3.43594">
        <ele>98.4</ele>
        <time>2023-08-18T07:27:57Z</time>
      </trkpt>
      <trkpt lat="49.54694" lon="3.436">
        <ele>98.4</ele>
        <time>2023-08-18T07:28:04Z</time>
      </trkpt>
      <trkpt lat="49.54695" lon="3.43601">
        <ele>98.4</ele>
        <time>2023-08-18T07:28:05Z</time>
      </trkpt>
      <trkpt lat="49.54698" lon="3.43605">
        <ele>98.4</ele>
        <time>2023-08-18T07:28:08Z</time>
      </trkpt>
      <trkpt lat="49.547" lon="3.43611">
        <ele>98.4</ele>
        <time>2023-08-18T07:28:13Z</time>
      </trkpt>
      <trkpt lat="49.547" lon="3.43613">
        <ele>98.8</ele>
        <time>2023-08-18T07:28:14Z</time>
      </trkpt>
      <trkpt lat="49.547" lon="3.43613">
        <ele>99.2</ele>
        <time>2023-08-18T07:28:15Z</time>
      </trkpt>
      <trkpt lat="49.547" lon="3.43613">
        <ele>99.8</ele>
        <time>2023-08-18T07:28:16Z</time>
      </trkpt>
      <trkpt lat="49.547" lon="3.43615">
        <ele>100.2</ele>
        <time>2023-08-18T07:28:17Z</time>
      </trkpt>
      <trkpt lat="49.54701" lon="3.43615">
        <ele>100.6</ele>
        <time>2023-08-18T07:28:18Z</time>
      </trkpt>
      <trkpt lat="49.54701" lon="3.43618">
        <ele>100.6</ele>
        <time>2023-08-18T07:28:19Z</time>
      </trkpt>
      <trkpt lat="49.54704" lon="3.43625">
        <ele>100.6</ele>
        <time>2023-08-18T07:28:23Z</time>
      </trkpt>
      <trkpt lat="49.54705" lon="3.43632">
        <ele>100.6</ele>
        <time>2023-08-18T07:28:26Z</time>
      </trkpt>
      <trkpt lat="49.54704" lon="3.43639">
        <ele>100.6</ele>
        <time>2023-08-18T07:28:29Z</time>
      </trkpt>
      <trkpt lat="49.54708" lon="3.43645">
        <ele>100.6</ele>
        <time>2023-08-18T07:28:35Z</time>
      </trkpt>
      <trkpt lat="49.54713" lon="3.43651">
        <ele>100.6</ele>
        <time>2023-08-18T07:28:40Z</time>
      </trkpt>
      <trkpt lat="49.5472" lon="3.43658">
        <ele>100.6</ele>
        <time>2023-08-18T07:28:47Z</time>
      </trkpt>
      <trkpt lat="49.54727" lon="3.4367">
        <ele>100.6</ele>
        <time>2023-08-18T07:28:52Z</time>
      </trkpt>
      <trkpt lat="49.54728" lon="3.43672">
        <ele>100.6</ele>
        <time>2023-08-18T07:28:53Z</time>
      </trkpt>
      <trkpt lat="49.54732" lon="3.43678">
        <ele>100.6</ele>
        <time>2023-08-18T07:28:57Z</time>
      </trkpt>
      <trkpt lat="49.54733" lon="3.43679">
        <ele>100.6</ele>
        <time>2023-08-18T07:28:58Z</time>
      </trkpt>
      <trkpt lat="49.54739" lon="3.43683">
        <ele>100.6</ele>
        <time>2023-08-18T07:29:04Z</time>
      </trkpt>
      <trkpt lat="49.54744" lon="3.43691">
        <ele>100.6</ele>
        <time>2023-08-18T07:29:09Z</time>
      </trkpt>
      <trkpt lat="49.5475" lon="3.437">
        <ele>100.6</ele>
        <time>2023-08-18T07:29:14Z</time>
      </trkpt>
      <trkpt lat="49.5475" lon="3.43701">
        <ele>101</ele>
        <time>2023-08-18T07:29:15Z</time>
      </trkpt>
      <trkpt lat="49.54751" lon="3.43702">
        <ele>101.4</ele>
        <time>2023-08-18T07:29:16Z</time>
      </trkpt>
      <trkpt lat="49.54751" lon="3.43704">
        <ele>101.8</ele>
        <time>2023-08-18T07:29:17Z</time>
      </trkpt>
      <trkpt lat="49.54751" lon="3.43704">
        <ele>102.2</ele>
        <time>2023-08-18T07:29:18Z</time>
      </trkpt>
      <trkpt lat="49.54751" lon="3.43704">
        <ele>102.6</ele>
        <time>2023-08-18T07:29:19Z</time>
      </trkpt>
      <trkpt lat="49.54752" lon="3.43705">
        <ele>102.6</ele>
        <time>2023-08-18T07:29:20Z</time>
      </trkpt>
      <trkpt lat="49.54754" lon="3.43712">
        <ele>102.6</ele>
        <time>2023-08-18T07:29:25Z</time>
      </trkpt>
      <trkpt lat="49.54755" lon="3.43718">
        <ele>102.6</ele>
        <time>2023-08-18T07:29:28Z</time>
      </trkpt>
      <trkpt lat="49.54759" lon="3.43724">
        <ele>102.6</ele>
        <time>2023-08-18T07:29:31Z</time>
      </trkpt>
      <trkpt lat="49.54764" lon="3.43731">
        <ele>102.6</ele>
        <time>2023-08-18T07:29:35Z</time>
      </trkpt>
      <trkpt lat="49.54767" lon="3.43732">
        <ele>102.6</ele>
        <time>2023-08-18T07:29:37Z</time>
      </trkpt>
      <trkpt lat="49.54769" lon="3.43738">
        <ele>102.6</ele>
        <time>2023-08-18T07:29:43Z</time>
      </trkpt>
      <trkpt lat="49.54771" lon="3.4375">
        <ele>102.6</ele>
        <time>2023-08-18T07:29:47Z</time>
      </trkpt>
      <trkpt lat="49.54777" lon="3.43755">
        <ele>102.6</ele>
        <time>2023-08-18T07:29:52Z</time>
      </trkpt>
      <trkpt lat="49.5478" lon="3.43756">
        <ele>102.6</ele>
        <time>2023-08-18T07:29:58Z</time>
      </trkpt>
      <trkpt lat="49.54782" lon="3.43758">
        <ele>102.6</ele>
        <time>2023-08-18T07:29:59Z</time>
      </trkpt>
      <trkpt lat="49.54786" lon="3.43764">
        <ele>102.6</ele>
        <time>2023-08-18T07:30:02Z</time>
      </trkpt>
      <trkpt lat="49.54793" lon="3.43783">
        <ele>102.6</ele>
        <time>2023-08-18T07:30:10Z</time>
      </trkpt>
      <trkpt lat="49.54796" lon="3.43789">
        <ele>102.6</ele>
        <time>2023-08-18T07:30:14Z</time>
      </trkpt>
      <trkpt lat="49.548" lon="3.43788">
        <ele>102.6</ele>
        <time>2023-08-18T07:30:18Z</time>
      </trkpt>
      <trkpt lat="49.54802" lon="3.43791">
        <ele>102.6</ele>
        <time>2023-08-18T07:30:24Z</time>
      </trkpt>
      <trkpt lat="49.54804" lon="3.43793">
        <ele>102.6</ele>
        <time>2023-08-18T07:30:25Z</time>
      </trkpt>
      <trkpt lat="49.54809" lon="3.43803">
        <ele>102.6</ele>
        <time>2023-08-18T07:30:30Z</time>
      </trkpt>
      <trkpt lat="49.54818" lon="3.43811">
        <ele>102.6</ele>
        <time>2023-08-18T07:30:36Z</time>
      </trkpt>
      <trkpt lat="49.54825" lon="3.43817">
        <ele>102.6</ele>
        <time>2023-08-18T07:30:43Z</time>
      </trkpt>
      <trkpt lat="49.54831" lon="3.43828">
        <ele>102.6</ele>
        <time>2023-08-18T07:30:50Z</time>
      </trkpt>
      <trkpt lat="49.54833" lon="3.43831">
        <ele>102.6</ele>
        <time>2023-08-18T07:30:55Z</time>
      </trkpt>
      <trkpt lat="49.54834" lon="3.43833">
        <ele>102.6</ele>
        <time>2023-08-18T07:31:00Z</time>
      </trkpt>
      <trkpt lat="49.54836" lon="3.43839">
        <ele>102.6</ele>
        <time>2023-08-18T07:31:03Z</time>
      </trkpt>
      <trkpt lat="49.5484" lon="3.43843">
        <ele>102.6</ele>
        <time>2023-08-18T07:31:06Z</time>
      </trkpt>
      <trkpt lat="49.54843" lon="3.43847">
        <ele>102.6</ele>
        <time>2023-08-18T07:31:08Z</time>
      </trkpt>
      <trkpt lat="49.54846" lon="3.43856">
        <ele>102.6</ele>
        <time>2023-08-18T07:31:14Z</time>
      </trkpt>
      <trkpt lat="49.54852" lon="3.43864">
        <ele>102.6</ele>
        <time>2023-08-18T07:31:19Z</time>
      </trkpt>
      <trkpt lat="49.54856" lon="3.43873">
        <ele>102.6</ele>
        <time>2023-08-18T07:31:24Z</time>
      </trkpt>
      <trkpt lat="49.54857" lon="3.43874">
        <ele>102.6</ele>
        <time>2023-08-18T07:31:25Z</time>
      </trkpt>
      <trkpt lat="49.54858" lon="3.43876">
        <ele>102.6</ele>
        <time>2023-08-18T07:31:26Z</time>
      </trkpt>
      <trkpt lat="49.5486" lon="3.43882">
        <ele>102.6</ele>
        <time>2023-08-18T07:31:29Z</time>
      </trkpt>
      <trkpt lat="49.54861" lon="3.43883">
        <ele>102.6</ele>
        <time>2023-08-18T07:31:35Z</time>
      </trkpt>
      <trkpt lat="49.54864" lon="3.43888">
        <ele>102.6</ele>
        <time>2023-08-18T07:31:39Z</time>
      </trkpt>
      <trkpt lat="49.54866" lon="3.4389">
        <ele>102.6</ele>
        <time>2023-08-18T07:31:40Z</time>
      </trkpt>
      <trkpt lat="49.54872" lon="3.43895">
        <ele>102.6</ele>
        <time>2023-08-18T07:31:45Z</time>
      </trkpt>
      <trkpt lat="49.54878" lon="3.43899">
        <ele>102.6</ele>
        <time>2023-08-18T07:31:50Z</time>
      </trkpt>
      <trkpt lat="49.54879" lon="3.43901">
        <ele>102.6</ele>
        <time>2023-08-18T07:31:53Z</time>
      </trkpt>
      <trkpt lat="49.54879" lon="3.43902">
        <ele>102.6</ele>
        <time>2023-08-18T07:31:54Z</time>
      </trkpt>
      <trkpt lat="49.5488" lon="3.43903">
        <ele>102.6</ele>
        <time>2023-08-18T07:31:55Z</time>
      </trkpt>
      <trkpt lat="49.54882" lon="3.43906">
        <ele>102.6</ele>
        <time>2023-08-18T07:32:00Z</time>
      </trkpt>
      <trkpt lat="49.54887" lon="3.43916">
        <ele>103</ele>
        <time>2023-08-18T07:32:05Z</time>
      </trkpt>
      <trkpt lat="49.54887" lon="3.43916">
        <ele>103.4</ele>
        <time>2023-08-18T07:32:06Z</time>
      </trkpt>
      <trkpt lat="49.54887" lon="3.43916">
        <ele>103.8</ele>
        <time>2023-08-18T07:32:07Z</time>
      </trkpt>
      <trkpt lat="49.54888" lon="3.43918">
        <ele>104.2</ele>
        <time>2023-08-18T07:32:08Z</time>
      </trkpt>
      <trkpt lat="49.54889" lon="3.43919">
        <ele>104.6</ele>
        <time>2023-08-18T07:32:09Z</time>
      </trkpt>
      <trkpt lat="49.54889" lon="3.4392">
        <ele>104.6</ele>
        <time>2023-08-18T07:32:10Z</time>
      </trkpt>
      <trkpt lat="49.54888" lon="3.43922">
        <ele>104.6</ele>
        <time>2023-08-18T07:32:16Z</time>
      </trkpt>
      <trkpt lat="49.54888" lon="3.43923">
        <ele>104.6</ele>
        <time>2023-08-18T07:32:25Z</time>
      </trkpt>
      <trkpt lat="49.54888" lon="3.43923">
        <ele>104.6</ele>
        <time>2023-08-18T07:32:33Z</time>
      </trkpt>
      <trkpt lat="49.54888" lon="3.43923">
        <ele>104.6</ele>
        <time>2023-08-18T07:32:42Z</time>
      </trkpt>
      <trkpt lat="49.54888" lon="3.43923">
        <ele>104.6</ele>
        <time>2023-08-18T07:32:52Z</time>
      </trkpt>
      <trkpt lat="49.54889" lon="3.43923">
        <ele>104.6</ele>
        <time>2023-08-18T07:32:58Z</time>
      </trkpt>
      <trkpt lat="49.5489" lon="3.43924">
        <ele>104.6</ele>
        <time>2023-08-18T07:33:05Z</time>
      </trkpt>
      <trkpt lat="49.5489" lon="3.43924">
        <ele>104.6</ele>
        <time>2023-08-18T07:33:18Z</time>
      </trkpt>
      <trkpt lat="49.54889" lon="3.43926">
        <ele>104.6</ele>
        <time>2023-08-18T07:33:28Z</time>
      </trkpt>
      <trkpt lat="49.5489" lon="3.43928">
        <ele>104.6</ele>
        <time>2023-08-18T07:33:33Z</time>
      </trkpt>
      <trkpt lat="49.54891" lon="3.43928">
        <ele>104.6</ele>
        <time>2023-08-18T07:33:42Z</time>
      </trkpt>
      <trkpt lat="49.54891" lon="3.43928">
        <ele>104.6</ele>
        <time>2023-08-18T07:33:48Z</time>
      </trkpt>
      <trkpt lat="49.54891" lon="3.43932">
        <ele>104.6</ele>
        <time>2023-08-18T07:33:53Z</time>
      </trkpt>
      <trkpt lat="49.54891" lon="3.4393">
        <ele>104.6</ele>
        <time>2023-08-18T07:33:58Z</time>
      </trkpt>
      <trkpt lat="49.5489" lon="3.4393">
        <ele>104.6</ele>
        <time>2023-08-18T07:34:05Z</time>
      </trkpt>
      <trkpt lat="49.5489" lon="3.4393">
        <ele>104.6</ele>
        <time>2023-08-18T07:34:10Z</time>
      </trkpt>
      <trkpt lat="49.5489" lon="3.4393">
        <ele>104.6</ele>
        <time>2023-08-18T07:34:17Z</time>
      </trkpt>
      <trkpt lat="49.5489" lon="3.4393">
        <ele>104.6</ele>
        <time>2023-08-18T07:34:26Z</time>
      </trkpt>
      <trkpt lat="49.5489" lon="3.4393">
        <ele>104.6</ele>
        <time>2023-08-18T07:34:34Z</time>
      </trkpt>
      <trkpt lat="49.54889" lon="3.43929">
        <ele>104.6</ele>
        <time>2023-08-18T07:34:41Z</time>
      </trkpt>
      <trkpt lat="49.54892" lon="3.43933">
        <ele>104.6</ele>
        <time>2023-08-18T07:34:47Z</time>
      </trkpt>
      <trkpt lat="49.54892" lon="3.43934">
        <ele>104.6</ele>
        <time>2023-08-18T07:34:52Z</time>
      </trkpt>
      <trkpt lat="49.54894" lon="3.43932">
        <ele>104.6</ele>
        <time>2023-08-18T07:34:58Z</time>
      </trkpt>
      <trkpt lat="49.54894" lon="3.43932">
        <ele>104.6</ele>
        <time>2023-08-18T07:35:07Z</time>
      </trkpt>
      <trkpt lat="49.54894" lon="3.43932">
        <ele>104.6</ele>
        <time>2023-08-18T07:35:14Z</time>
      </trkpt>
      <trkpt lat="49.54894" lon="3.43932">
        <ele>104.6</ele>
        <time>2023-08-18T07:35:21Z</time>
      </trkpt>
      <trkpt lat="49.54897" lon="3.43931">
        <ele>104.6</ele>
        <time>2023-08-18T07:35:25Z</time>
      </trkpt>
      <trkpt lat="49.54899" lon="3.43934">
        <ele>104.6</ele>
        <time>2023-08-18T07:35:31Z</time>
      </trkpt>
      <trkpt lat="49.54899" lon="3.43935">
        <ele>104.6</ele>
        <time>2023-08-18T07:35:36Z</time>
      </trkpt>
      <trkpt lat="49.54899" lon="3.43935">
        <ele>104.6</ele>
        <time>2023-08-18T07:35:46Z</time>
      </trkpt>
      <trkpt lat="49.54902" lon="3.43937">
        <ele>104.6</ele>
        <time>2023-08-18T07:35:53Z</time>
      </trkpt>
      <trkpt lat="49.54902" lon="3.43942">
        <ele>104.6</ele>
        <time>2023-08-18T07:35:56Z</time>
      </trkpt>
      <trkpt lat="49.54902" lon="3.43944">
        <ele>104.6</ele>
        <time>2023-08-18T07:35:57Z</time>
      </trkpt>
      <trkpt lat="49.54903" lon="3.43948">
        <ele>104.6</ele>
        <time>2023-08-18T07:35:59Z</time>
      </trkpt>
      <trkpt lat="49.54903" lon="3.43952">
        <ele>104.6</ele>
        <time>2023-08-18T07:36:01Z</time>
      </trkpt>
      <trkpt lat="49.54906" lon="3.43957">
        <ele>105</ele>
        <time>2023-08-18T07:36:06Z</time>
      </trkpt>
      <trkpt lat="49.54906" lon="3.43959">
        <ele>105.4</ele>
        <time>2023-08-18T07:36:07Z</time>
      </trkpt>
      <trkpt lat="49.54906" lon="3.4396">
        <ele>105.8</ele>
        <time>2023-08-18T07:36:08Z</time>
      </trkpt>
      <trkpt lat="49.54906" lon="3.43961">
        <ele>106.6</ele>
        <time>2023-08-18T07:36:09Z</time>
      </trkpt>
      <trkpt lat="49.54908" lon="3.43967">
        <ele>106.6</ele>
        <time>2023-08-18T07:36:14Z</time>
      </trkpt>
      <trkpt lat="49.54912" lon="3.43977">
        <ele>106.6</ele>
        <time>2023-08-18T07:36:20Z</time>
      </trkpt>
      <trkpt lat="49.54916" lon="3.43991">
        <ele>106.6</ele>
        <time>2023-08-18T07:36:26Z</time>
      </trkpt>
      <trkpt lat="49.54917" lon="3.43995">
        <ele>107</ele>
        <time>2023-08-18T07:36:28Z</time>
      </trkpt>
      <trkpt lat="49.54917" lon="3.43998">
        <ele>107.4</ele>
        <time>2023-08-18T07:36:29Z</time>
      </trkpt>
      <trkpt lat="49.54918" lon="3.44">
        <ele>107.8</ele>
        <time>2023-08-18T07:36:30Z</time>
      </trkpt>
      <trkpt lat="49.54919" lon="3.44002">
        <ele>108.2</ele>
        <time>2023-08-18T07:36:31Z</time>
      </trkpt>
      <trkpt lat="49.54919" lon="3.44005">
        <ele>108.8</ele>
        <time>2023-08-18T07:36:32Z</time>
      </trkpt>
      <trkpt lat="49.54922" lon="3.44017">
        <ele>108.8</ele>
        <time>2023-08-18T07:36:38Z</time>
      </trkpt>
      <trkpt lat="49.54929" lon="3.44022">
        <ele>108.8</ele>
        <time>2023-08-18T07:36:44Z</time>
      </trkpt>
      <trkpt lat="49.54937" lon="3.44024">
        <ele>108.8</ele>
        <time>2023-08-18T07:36:50Z</time>
      </trkpt>
      <trkpt lat="49.54939" lon="3.44024">
        <ele>109.2</ele>
        <time>2023-08-18T07:36:52Z</time>
      </trkpt>
      <trkpt lat="49.54939" lon="3.44024">
        <ele>109.6</ele>
        <time>2023-08-18T07:36:53Z</time>
      </trkpt>
      <trkpt lat="49.54939" lon="3.44024">
        <ele>110</ele>
        <time>2023-08-18T07:36:54Z</time>
      </trkpt>
      <trkpt lat="49.5494" lon="3.44025">
        <ele>110.4</ele>
        <time>2023-08-18T07:36:55Z</time>
      </trkpt>
      <trkpt lat="49.54941" lon="3.44026">
        <ele>110.8</ele>
        <time>2023-08-18T07:36:56Z</time>
      </trkpt>
      <trkpt lat="49.54945" lon="3.44027">
        <ele>110.8</ele>
        <time>2023-08-18T07:37:01Z</time>
      </trkpt>
      <trkpt lat="49.54947" lon="3.44035">
        <ele>110.8</ele>
        <time>2023-08-18T07:37:08Z</time>
      </trkpt>
      <trkpt lat="49.54948" lon="3.44038">
        <ele>110.8</ele>
        <time>2023-08-18T07:37:14Z</time>
      </trkpt>
      <trkpt lat="49.54949" lon="3.44045">
        <ele>110.8</ele>
        <time>2023-08-18T07:37:19Z</time>
      </trkpt>
      <trkpt lat="49.5495" lon="3.44052">
        <ele>110.8</ele>
        <time>2023-08-18T07:37:24Z</time>
      </trkpt>
      <trkpt lat="49.5495" lon="3.44052">
        <ele>110.8</ele>
        <time>2023-08-18T07:37:30Z</time>
      </trkpt>
      <trkpt lat="49.5495" lon="3.44052">
        <ele>110.8</ele>
        <time>2023-08-18T07:37:38Z</time>
      </trkpt>
      <trkpt lat="49.5495" lon="3.44052">
        <ele>110.8</ele>
        <time>2023-08-18T07:37:45Z</time>
      </trkpt>
      <trkpt lat="49.5495" lon="3.44052">
        <ele>110.8</ele>
        <time>2023-08-18T07:37:54Z</time>
      </trkpt>
      <trkpt lat="49.5495" lon="3.44052">
        <ele>110.8</ele>
        <time>2023-08-18T07:38:04Z</time>
      </trkpt>
      <trkpt lat="49.5495" lon="3.44052">
        <ele>110.8</ele>
        <time>2023-08-18T07:38:08Z</time>
      </trkpt>
      <trkpt lat="49.54951" lon="3.44052">
        <ele>110.8</ele>
        <time>2023-08-18T07:38:13Z</time>
      </trkpt>
      <trkpt lat="49.54951" lon="3.44052">
        <ele>110.8</ele>
        <time>2023-08-18T07:38:21Z</time>
      </trkpt>
      <trkpt lat="49.54951" lon="3.4405">
        <ele>110.8</ele>
        <time>2023-08-18T07:38:29Z</time>
      </trkpt>
      <trkpt lat="49.54951" lon="3.4405">
        <ele>110.8</ele>
        <time>2023-08-18T07:38:37Z</time>
      </trkpt>
      <trkpt lat="49.54952" lon="3.44049">
        <ele>110.8</ele>
        <time>2023-08-18T07:38:44Z</time>
      </trkpt>
      <trkpt lat="49.54952" lon="3.44048">
        <ele>110.8</ele>
        <time>2023-08-18T07:38:49Z</time>
      </trkpt>
      <trkpt lat="49.54952" lon="3.44047">
        <ele>111.2</ele>
        <time>2023-08-18T07:38:51Z</time>
      </trkpt>
      <trkpt lat="49.54952" lon="3.44047">
        <ele>111.6</ele>
        <time>2023-08-18T07:38:52Z</time>
      </trkpt>
      <trkpt lat="49.54952" lon="3.44047">
        <ele>112.2</ele>
        <time>2023-08-18T07:38:53Z</time>
      </trkpt>
      <trkpt lat="49.54952" lon="3.44047">
        <ele>112.6</ele>
        <time>2023-08-18T07:38:54Z</time>
      </trkpt>
      <trkpt lat="49.54952" lon="3.44047">
        <ele>113</ele>
        <time>2023-08-18T07:38:55Z</time>
      </trkpt>
      <trkpt lat="49.54952" lon="3.44047">
        <ele>113</ele>
        <time>2023-08-18T07:38:56Z</time>
      </trkpt>
      <trkpt lat="49.54952" lon="3.44047">
        <ele>113</ele>
        <time>2023-08-18T07:39:06Z</time>
      </trkpt>
      <trkpt lat="49.54952" lon="3.44047">
        <ele>113</ele>
        <time>2023-08-18T07:39:19Z</time>
      </trkpt>
      <trkpt lat="49.54952" lon="3.44047">
        <ele>113</ele>
        <time>2023-08-18T07:39:26Z</time>
      </trkpt>
      <trkpt lat="49.54951" lon="3.44046">
        <ele>113</ele>
        <time>2023-08-18T07:39:38Z</time>
      </trkpt>
      <trkpt lat="49.54951" lon="3.44046">
        <ele>113</ele>
        <time>2023-08-18T07:39:52Z</time>
      </trkpt>
      <trkpt lat="49.54951" lon="3.44046">
        <ele>113</ele>
        <time>2023-08-18T07:40:03Z</time>
      </trkpt>
      <trkpt lat="49.54951" lon="3.44046">
        <ele>113</ele>
        <time>2023-08-18T07:40:16Z</time>
      </trkpt>
      <trkpt lat="49.54951" lon="3.44046">
        <ele>113</ele>
        <time>2023-08-18T07:40:32Z</time>
      </trkpt>
      <trkpt lat="49.54951" lon="3.44046">
        <ele>113</ele>
        <time>2023-08-18T07:40:46Z</time>
      </trkpt>
      <trkpt lat="49.54951" lon="3.44046">
        <ele>113</ele>
        <time>2023-08-18T07:41:03Z</time>
      </trkpt>
      <trkpt lat="49.54951" lon="3.44046">
        <ele>113</ele>
        <time>2023-08-18T07:41:19Z</time>
      </trkpt>
      <trkpt lat="49.54951" lon="3.44046">
        <ele>113</ele>
        <time>2023-08-18T07:41:32Z</time>
      </trkpt>
      <trkpt lat="49.54951" lon="3.44047">
        <ele>113</ele>
        <time>2023-08-18T07:41:40Z</time>
      </trkpt>
      <trkpt lat="49.54951" lon="3.44047">
        <ele>113</ele>
        <time>2023-08-18T07:41:47Z</time>
      </trkpt>
      <trkpt lat="49.54951" lon="3.44047">
        <ele>113</ele>
        <time>2023-08-18T07:41:59Z</time>
      </trkpt>
      <trkpt lat="49.54951" lon="3.44047">
        <ele>113</ele>
        <time>2023-08-18T07:42:08Z</time>
      </trkpt>
      <trkpt lat="49.5495" lon="3.44047">
        <ele>113</ele>
        <time>2023-08-18T07:42:14Z</time>
      </trkpt>
      <trkpt lat="49.5495" lon="3.44047">
        <ele>113</ele>
        <time>2023-08-18T07:42:22Z</time>
      </trkpt>
      <trkpt lat="49.5495" lon="3.44047">
        <ele>113</ele>
        <time>2023-08-18T07:42:28Z</time>
      </trkpt>
      <trkpt lat="49.5495" lon="3.44047">
        <ele>113</ele>
        <time>2023-08-18T07:42:35Z</time>
      </trkpt>
      <trkpt lat="49.5495" lon="3.44047">
        <ele>113</ele>
        <time>2023-08-18T07:42:46Z</time>
      </trkpt>
      <trkpt lat="49.5495" lon="3.44047">
        <ele>113</ele>
        <time>2023-08-18T07:42:53Z</time>
      </trkpt>
      <trkpt lat="49.54951" lon="3.44046">
        <ele>113</ele>
        <time>2023-08-18T07:43:01Z</time>
      </trkpt>
      <trkpt lat="49.54951" lon="3.44046">
        <ele>113</ele>
        <time>2023-08-18T07:43:08Z</time>
      </trkpt>
      <trkpt lat="49.54951" lon="3.44046">
        <ele>113</ele>
        <time>2023-08-18T07:43:17Z</time>
      </trkpt>
      <trkpt lat="49.54951" lon="3.44046">
        <ele>113</ele>
        <time>2023-08-18T07:43:25Z</time>
      </trkpt>
      <trkpt lat="49.54951" lon="3.44046">
        <ele>113</ele>
        <time>2023-08-18T07:43:33Z</time>
      </trkpt>
      <trkpt lat="49.54951" lon="3.44047">
        <ele>113</ele>
        <time>2023-08-18T07:43:42Z</time>
      </trkpt>
      <trkpt lat="49.54951" lon="3.44047">
        <ele>113</ele>
        <time>2023-08-18T07:43:49Z</time>
      </trkpt>
      <trkpt lat="49.54951" lon="3.44047">
        <ele>113</ele>
        <time>2023-08-18T07:44:00Z</time>
      </trkpt>
      <trkpt lat="49.54951" lon="3.44047">
        <ele>113</ele>
        <time>2023-08-18T07:44:12Z</time>
      </trkpt>
      <trkpt lat="49.54951" lon="3.44046">
        <ele>113</ele>
        <time>2023-08-18T07:44:24Z</time>
      </trkpt>
      <trkpt lat="49.54951" lon="3.44046">
        <ele>113</ele>
        <time>2023-08-18T07:44:38Z</time>
      </trkpt>
      <trkpt lat="49.54951" lon="3.44046">
        <ele>113</ele>
        <time>2023-08-18T07:44:53Z</time>
      </trkpt>
      <trkpt lat="49.54951" lon="3.44046">
        <ele>113</ele>
        <time>2023-08-18T07:45:05Z</time>
      </trkpt>
      <trkpt lat="49.54951" lon="3.44046">
        <ele>113.4</ele>
        <time>2023-08-18T07:45:09Z</time>
      </trkpt>
      <trkpt lat="49.54951" lon="3.44046">
        <ele>113.8</ele>
        <time>2023-08-18T07:45:10Z</time>
      </trkpt>
      <trkpt lat="49.54951" lon="3.44046">
        <ele>114.6</ele>
        <time>2023-08-18T07:45:11Z</time>
      </trkpt>
      <trkpt lat="49.54951" lon="3.44046">
        <ele>115</ele>
        <time>2023-08-18T07:45:12Z</time>
      </trkpt>
      <trkpt lat="49.54951" lon="3.44046">
        <ele>115</ele>
        <time>2023-08-18T07:45:16Z</time>
      </trkpt>
      <trkpt lat="49.54951" lon="3.44046">
        <ele>115</ele>
        <time>2023-08-18T07:45:25Z</time>
      </trkpt>
      <trkpt lat="49.5495" lon="3.44046">
        <ele>115</ele>
        <time>2023-08-18T07:45:31Z</time>
      </trkpt>
      <trkpt lat="49.54948" lon="3.44048">
        <ele>115</ele>
        <time>2023-08-18T07:45:36Z</time>
      </trkpt>
      <trkpt lat="49.54948" lon="3.44052">
        <ele>115</ele>
        <time>2023-08-18T07:45:40Z</time>
      </trkpt>
      <trkpt lat="49.54948" lon="3.44052">
        <ele>115</ele>
        <time>2023-08-18T07:45:47Z</time>
      </trkpt>
      <trkpt lat="49.54948" lon="3.44052">
        <ele>115</ele>
        <time>2023-08-18T07:45:57Z</time>
      </trkpt>
      <trkpt lat="49.54949" lon="3.44063">
        <ele>115</ele>
        <time>2023-08-18T07:46:04Z</time>
      </trkpt>
      <trkpt lat="49.54948" lon="3.44063">
        <ele>115</ele>
        <time>2023-08-18T07:46:05Z</time>
      </trkpt>
      <trkpt lat="49.54948" lon="3.44063">
        <ele>115</ele>
        <time>2023-08-18T07:46:07Z</time>
      </trkpt>
      <trkpt lat="49.54948" lon="3.44067">
        <ele>115</ele>
        <time>2023-08-18T07:46:11Z</time>
      </trkpt>
      <trkpt lat="49.54948" lon="3.44069">
        <ele>115</ele>
        <time>2023-08-18T07:46:12Z</time>
      </trkpt>
      <trkpt lat="49.54948" lon="3.44073">
        <ele>115</ele>
        <time>2023-08-18T07:46:14Z</time>
      </trkpt>
      <trkpt lat="49.54949" lon="3.44078">
        <ele>115</ele>
        <time>2023-08-18T07:46:16Z</time>
      </trkpt>
      <trkpt lat="49.54949" lon="3.44085">
        <ele>115</ele>
        <time>2023-08-18T07:46:20Z</time>
      </trkpt>
      <trkpt lat="49.5495" lon="3.4409">
        <ele>115.6</ele>
        <time>2023-08-18T07:46:23Z</time>
      </trkpt>
      <trkpt lat="49.54951" lon="3.4409">
        <ele>116</ele>
        <time>2023-08-18T07:46:24Z</time>
      </trkpt>
      <trkpt lat="49.54951" lon="3.4409">
        <ele>116.8</ele>
        <time>2023-08-18T07:46:25Z</time>
      </trkpt>
      <trkpt lat="49.54952" lon="3.44092">
        <ele>117.2</ele>
        <time>2023-08-18T07:46:26Z</time>
      </trkpt>
      <trkpt lat="49.54953" lon="3.44098">
        <ele>117.2</ele>
        <time>2023-08-18T07:46:29Z</time>
      </trkpt>
      <trkpt lat="49.54953" lon="3.441">
        <ele>117.2</ele>
        <time>2023-08-18T07:46:31Z</time>
      </trkpt>
      <trkpt lat="49.54953" lon="3.44103">
        <ele>117.2</ele>
        <time>2023-08-18T07:46:37Z</time>
      </trkpt>
      <trkpt lat="49.54953" lon="3.44103">
        <ele>117.2</ele>
        <time>2023-08-18T07:46:41Z</time>
      </trkpt>
      <trkpt lat="49.54953" lon="3.44103">
        <ele>117.6</ele>
        <time>2023-08-18T07:46:43Z</time>
      </trkpt>
      <trkpt lat="49.54953" lon="3.44103">
        <ele>118</ele>
        <time>2023-08-18T07:46:44Z</time>
      </trkpt>
      <trkpt lat="49.54953" lon="3.44106">
        <ele>118.4</ele>
        <time>2023-08-18T07:46:45Z</time>
      </trkpt>
      <trkpt lat="49.54954" lon="3.44109">
        <ele>118.8</ele>
        <time>2023-08-18T07:46:46Z</time>
      </trkpt>
      <trkpt lat="49.54954" lon="3.4411">
        <ele>119.2</ele>
        <time>2023-08-18T07:46:47Z</time>
      </trkpt>
      <trkpt lat="49.54956" lon="3.44113">
        <ele>119.2</ele>
        <time>2023-08-18T07:46:53Z</time>
      </trkpt>
      <trkpt lat="49.54957" lon="3.44114">
        <ele>119.2</ele>
        <time>2023-08-18T07:47:01Z</time>
      </trkpt>
      <trkpt lat="49.54958" lon="3.44114">
        <ele>119.2</ele>
        <time>2023-08-18T07:47:07Z</time>
      </trkpt>
      <trkpt lat="49.54958" lon="3.44115">
        <ele>119.2</ele>
        <time>2023-08-18T07:47:13Z</time>
      </trkpt>
      <trkpt lat="49.54958" lon="3.44115">
        <ele>119.2</ele>
        <time>2023-08-18T07:47:25Z</time>
      </trkpt>
      <trkpt lat="49.54958" lon="3.44115">
        <ele>119.6</ele>
        <time>2023-08-18T07:47:33Z</time>
      </trkpt>
      <trkpt lat="49.54958" lon="3.44115">
        <ele>120</ele>
        <time>2023-08-18T07:47:34Z</time>
      </trkpt>
      <trkpt lat="49.54958" lon="3.44115">
        <ele>120.6</ele>
        <time>2023-08-18T07:47:35Z</time>
      </trkpt>
      <trkpt lat="49.54958" lon="3.44115">
        <ele>121</ele>
        <time>2023-08-18T07:47:36Z</time>
      </trkpt>
      <trkpt lat="49.54958" lon="3.44115">
        <ele>121.4</ele>
        <time>2023-08-18T07:47:37Z</time>
      </trkpt>
      <trkpt lat="49.54958" lon="3.44115">
        <ele>121.4</ele>
        <time>2023-08-18T07:47:46Z</time>
      </trkpt>
      <trkpt lat="49.54958" lon="3.44116">
        <ele>121.4</ele>
        <time>2023-08-18T07:48:04Z</time>
      </trkpt>
      <trkpt lat="49.54958" lon="3.44116">
        <ele>121.4</ele>
        <time>2023-08-18T07:48:22Z</time>
      </trkpt>
      <trkpt lat="49.54958" lon="3.44116">
        <ele>121.4</ele>
        <time>2023-08-18T07:48:34Z</time>
      </trkpt>
      <trkpt lat="49.54958" lon="3.44117">
        <ele>121.4</ele>
        <time>2023-08-18T07:48:41Z</time>
      </trkpt>
      <trkpt lat="49.54958" lon="3.44117">
        <ele>121.4</ele>
        <time>2023-08-18T07:48:47Z</time>
      </trkpt>
      <trkpt lat="49.54958" lon="3.44117">
        <ele>121.4</ele>
        <time>2023-08-18T07:49:00Z</time>
      </trkpt>
      <trkpt lat="49.54958" lon="3.44117">
        <ele>121.4</ele>
        <time>2023-08-18T07:49:11Z</time>
      </trkpt>
      <trkpt lat="49.54958" lon="3.44117">
        <ele>121.4</ele>
        <time>2023-08-18T07:49:19Z</time>
      </trkpt>
      <trkpt lat="49.54958" lon="3.44117">
        <ele>121.4</ele>
        <time>2023-08-18T07:49:31Z</time>
      </trkpt>
      <trkpt lat="49.54958" lon="3.44117">
        <ele>121.4</ele>
        <time>2023-08-18T07:49:36Z</time>
      </trkpt>
      <trkpt lat="49.54958" lon="3.44117">
        <ele>121.4</ele>
        <time>2023-08-18T07:49:55Z</time>
      </trkpt>
      <trkpt lat="49.54958" lon="3.44118">
        <ele>121.4</ele>
        <time>2023-08-18T07:50:16Z</time>
      </trkpt>
      <trkpt lat="49.54958" lon="3.44118">
        <ele>121.4</ele>
        <time>2023-08-18T07:50:24Z</time>
      </trkpt>
      <trkpt lat="49.54958" lon="3.44118">
        <ele>121.4</ele>
        <time>2023-08-18T07:50:29Z</time>
      </trkpt>
      <trkpt lat="49.54958" lon="3.44118">
        <ele>121.4</ele>
        <time>2023-08-18T07:50:38Z</time>
      </trkpt>
      <trkpt lat="49.54958" lon="3.44118">
        <ele>121</ele>
        <time>2023-08-18T07:50:40Z</time>
      </trkpt>
      <trkpt lat="49.54958" lon="3.44117">
        <ele>120.6</ele>
        <time>2023-08-18T07:50:41Z</time>
      </trkpt>
      <trkpt lat="49.54958" lon="3.44117">
        <ele>120.2</ele>
        <time>2023-08-18T07:50:42Z</time>
      </trkpt>
      <trkpt lat="49.54959" lon="3.44118">
        <ele>119.6</ele>
        <time>2023-08-18T07:50:43Z</time>
      </trkpt>
      <trkpt lat="49.54959" lon="3.44118">
        <ele>119.2</ele>
        <time>2023-08-18T07:50:44Z</time>
      </trkpt>
      <trkpt lat="49.54959" lon="3.44118">
        <ele>119.2</ele>
        <time>2023-08-18T07:50:48Z</time>
      </trkpt>
      <trkpt lat="49.5496" lon="3.44119">
        <ele>119.2</ele>
        <time>2023-08-18T07:50:56Z</time>
      </trkpt>
      <trkpt lat="49.54961" lon="3.44124">
        <ele>119.2</ele>
        <time>2023-08-18T07:51:02Z</time>
      </trkpt>
      <trkpt lat="49.54961" lon="3.44128">
        <ele>119.2</ele>
        <time>2023-08-18T07:51:08Z</time>
      </trkpt>
      <trkpt lat="49.54961" lon="3.4413">
        <ele>119.8</ele>
        <time>2023-08-18T07:51:10Z</time>
      </trkpt>
      <trkpt lat="49.54961" lon="3.44133">
        <ele>120.2</ele>
        <time>2023-08-18T07:51:11Z</time>
      </trkpt>
      <trkpt lat="49.5496" lon="3.44136">
        <ele>120.6</ele>
        <time>2023-08-18T07:51:12Z</time>
      </trkpt>
      <trkpt lat="49.5496" lon="3.44138">
        <ele>121</ele>
        <time>2023-08-18T07:51:13Z</time>
      </trkpt>
      <trkpt lat="49.5496" lon="3.4414">
        <ele>121.4</ele>
        <time>2023-08-18T07:51:14Z</time>
      </trkpt>
      <trkpt lat="49.54961" lon="3.44142">
        <ele>121.4</ele>
        <time>2023-08-18T07:51:15Z</time>
      </trkpt>
      <trkpt lat="49.54961" lon="3.44143">
        <ele>121.4</ele>
        <time>2023-08-18T07:51:16Z</time>
      </trkpt>
      <trkpt lat="49.54962" lon="3.44147">
        <ele>121.4</ele>
        <time>2023-08-18T07:51:21Z</time>
      </trkpt>
      <trkpt lat="49.54961" lon="3.4415">
        <ele>121.8</ele>
        <time>2023-08-18T07:51:24Z</time>
      </trkpt>
      <trkpt lat="49.54961" lon="3.44152">
        <ele>122.2</ele>
        <time>2023-08-18T07:51:25Z</time>
      </trkpt>
      <trkpt lat="49.54961" lon="3.44152">
        <ele>122.6</ele>
        <time>2023-08-18T07:51:26Z</time>
      </trkpt>
      <trkpt lat="49.54961" lon="3.44153">
        <ele>123</ele>
        <time>2023-08-18T07:51:27Z</time>
      </trkpt>
      <trkpt lat="49.54961" lon="3.44155">
        <ele>123.4</ele>
        <time>2023-08-18T07:51:28Z</time>
      </trkpt>
      <trkpt lat="49.54961" lon="3.44157">
        <ele>123.4</ele>
        <time>2023-08-18T07:51:29Z</time>
      </trkpt>
      <trkpt lat="49.54961" lon="3.44163">
        <ele>123.4</ele>
        <time>2023-08-18T07:51:31Z</time>
      </trkpt>
      <trkpt lat="49.54961" lon="3.44169">
        <ele>123.4</ele>
        <time>2023-08-18T07:51:34Z</time>
      </trkpt>
      <trkpt lat="49.54961" lon="3.44171">
        <ele>123.4</ele>
        <time>2023-08-18T07:51:36Z</time>
      </trkpt>
      <trkpt lat="49.54961" lon="3.44173">
        <ele>123.8</ele>
        <time>2023-08-18T07:51:37Z</time>
      </trkpt>
      <trkpt lat="49.54961" lon="3.44174">
        <ele>124.2</ele>
        <time>2023-08-18T07:51:38Z</time>
      </trkpt>
      <trkpt lat="49.54961" lon="3.44174">
        <ele>124.6</ele>
        <time>2023-08-18T07:51:39Z</time>
      </trkpt>
      <trkpt lat="49.54962" lon="3.44175">
        <ele>125.2</ele>
        <time>2023-08-18T07:51:40Z</time>
      </trkpt>
      <trkpt lat="49.54962" lon="3.44175">
        <ele>125.6</ele>
        <time>2023-08-18T07:51:41Z</time>
      </trkpt>
      <trkpt lat="49.54962" lon="3.44176">
        <ele>125.6</ele>
        <time>2023-08-18T07:51:42Z</time>
      </trkpt>
      <trkpt lat="49.54965" lon="3.44181">
        <ele>125.6</ele>
        <time>2023-08-18T07:51:46Z</time>
      </trkpt>
      <trkpt lat="49.54967" lon="3.44186">
        <ele>125.6</ele>
        <time>2023-08-18T07:51:48Z</time>
      </trkpt>
      <trkpt lat="49.54967" lon="3.44189">
        <ele>126</ele>
        <time>2023-08-18T07:51:49Z</time>
      </trkpt>
      <trkpt lat="49.54968" lon="3.44191">
        <ele>126.4</ele>
        <time>2023-08-18T07:51:50Z</time>
      </trkpt>
      <trkpt lat="49.54968" lon="3.44194">
        <ele>126.8</ele>
        <time>2023-08-18T07:51:51Z</time>
      </trkpt>
      <trkpt lat="49.54969" lon="3.44196">
        <ele>127.2</ele>
        <time>2023-08-18T07:51:52Z</time>
      </trkpt>
      <trkpt lat="49.5497" lon="3.44198">
        <ele>127.6</ele>
        <time>2023-08-18T07:51:53Z</time>
      </trkpt>
      <trkpt lat="49.54971" lon="3.44202">
        <ele>127.6</ele>
        <time>2023-08-18T07:51:55Z</time>
      </trkpt>
      <trkpt lat="49.54972" lon="3.44205">
        <ele>127.6</ele>
        <time>2023-08-18T07:52:00Z</time>
      </trkpt>
      <trkpt lat="49.54972" lon="3.44209">
        <ele>127.6</ele>
        <time>2023-08-18T07:52:05Z</time>
      </trkpt>
      <trkpt lat="49.54972" lon="3.4421">
        <ele>128</ele>
        <time>2023-08-18T07:52:06Z</time>
      </trkpt>
      <trkpt lat="49.54973" lon="3.44211">
        <ele>128.4</ele>
        <time>2023-08-18T07:52:07Z</time>
      </trkpt>
      <trkpt lat="49.54973" lon="3.44212">
        <ele>128.8</ele>
        <time>2023-08-18T07:52:08Z</time>
      </trkpt>
      <trkpt lat="49.54973" lon="3.44212">
        <ele>129.2</ele>
        <time>2023-08-18T07:52:09Z</time>
      </trkpt>
      <trkpt lat="49.54973" lon="3.44212">
        <ele>129.6</ele>
        <time>2023-08-18T07:52:10Z</time>
      </trkpt>
      <trkpt lat="49.54973" lon="3.44212">
        <ele>129.6</ele>
        <time>2023-08-18T07:52:11Z</time>
      </trkpt>
      <trkpt lat="49.54969" lon="3.4422">
        <ele>129.6</ele>
        <time>2023-08-18T07:52:19Z</time>
      </trkpt>
      <trkpt lat="49.54969" lon="3.44222">
        <ele>130</ele>
        <time>2023-08-18T07:52:20Z</time>
      </trkpt>
      <trkpt lat="49.54968" lon="3.44225">
        <ele>130.4</ele>
        <time>2023-08-18T07:52:21Z</time>
      </trkpt>
      <trkpt lat="49.54968" lon="3.44227">
        <ele>131</ele>
        <time>2023-08-18T07:52:22Z</time>
      </trkpt>
      <trkpt lat="49.54968" lon="3.44229">
        <ele>131.4</ele>
        <time>2023-08-18T07:52:23Z</time>
      </trkpt>
      <trkpt lat="49.54968" lon="3.44232">
        <ele>131.8</ele>
        <time>2023-08-18T07:52:24Z</time>
      </trkpt>
      <trkpt lat="49.54968" lon="3.44235">
        <ele>131.8</ele>
        <time>2023-08-18T07:52:25Z</time>
      </trkpt>
      <trkpt lat="49.54968" lon="3.44247">
        <ele>131.8</ele>
        <time>2023-08-18T07:52:30Z</time>
      </trkpt>
      <trkpt lat="49.5497" lon="3.44252">
        <ele>132.2</ele>
        <time>2023-08-18T07:52:33Z</time>
      </trkpt>
      <trkpt lat="49.5497" lon="3.44254">
        <ele>132.6</ele>
        <time>2023-08-18T07:52:34Z</time>
      </trkpt>
      <trkpt lat="49.54971" lon="3.44254">
        <ele>133</ele>
        <time>2023-08-18T07:52:35Z</time>
      </trkpt>
      <trkpt lat="49.54971" lon="3.44254">
        <ele>133.4</ele>
        <time>2023-08-18T07:52:36Z</time>
      </trkpt>
      <trkpt lat="49.54971" lon="3.44254">
        <ele>133.8</ele>
        <time>2023-08-18T07:52:37Z</time>
      </trkpt>
      <trkpt lat="49.54971" lon="3.44254">
        <ele>133.8</ele>
        <time>2023-08-18T07:52:42Z</time>
      </trkpt>
      <trkpt lat="49.54973" lon="3.44257">
        <ele>134.2</ele>
        <time>2023-08-18T07:52:47Z</time>
      </trkpt>
      <trkpt lat="49.54975" lon="3.4426">
        <ele>134.6</ele>
        <time>2023-08-18T07:52:48Z</time>
      </trkpt>
      <trkpt lat="49.54976" lon="3.44263">
        <ele>135</ele>
        <time>2023-08-18T07:52:49Z</time>
      </trkpt>
      <trkpt lat="49.54978" lon="3.44266">
        <ele>135.4</ele>
        <time>2023-08-18T07:52:50Z</time>
      </trkpt>
      <trkpt lat="49.54979" lon="3.44269">
        <ele>135.8</ele>
        <time>2023-08-18T07:52:51Z</time>
      </trkpt>
      <trkpt lat="49.54981" lon="3.44272">
        <ele>135.8</ele>
        <time>2023-08-18T07:52:52Z</time>
      </trkpt>
      <trkpt lat="49.54983" lon="3.44278">
        <ele>135.8</ele>
        <time>2023-08-18T07:52:57Z</time>
      </trkpt>
      <trkpt lat="49.54983" lon="3.44279">
        <ele>136.2</ele>
        <time>2023-08-18T07:52:59Z</time>
      </trkpt>
      <trkpt lat="49.54983" lon="3.4428">
        <ele>136.6</ele>
        <time>2023-08-18T07:53:00Z</time>
      </trkpt>
      <trkpt lat="49.54983" lon="3.44281">
        <ele>137</ele>
        <time>2023-08-18T07:53:01Z</time>
      </trkpt>
      <trkpt lat="49.54982" lon="3.44283">
        <ele>137.8</ele>
        <time>2023-08-18T07:53:02Z</time>
      </trkpt>
      <trkpt lat="49.54982" lon="3.44286">
        <ele>137.8</ele>
        <time>2023-08-18T07:53:03Z</time>
      </trkpt>
      <trkpt lat="49.5498" lon="3.44291">
        <ele>137.8</ele>
        <time>2023-08-18T07:53:07Z</time>
      </trkpt>
      <trkpt lat="49.54981" lon="3.44292">
        <ele>137.8</ele>
        <time>2023-08-18T07:53:12Z</time>
      </trkpt>
      <trkpt lat="49.5498" lon="3.44293">
        <ele>137.8</ele>
        <time>2023-08-18T07:53:13Z</time>
      </trkpt>
      <trkpt lat="49.5498" lon="3.44296">
        <ele>138.2</ele>
        <time>2023-08-18T07:53:18Z</time>
      </trkpt>
      <trkpt lat="49.5498" lon="3.44296">
        <ele>138.6</ele>
        <time>2023-08-18T07:53:19Z</time>
      </trkpt>
      <trkpt lat="49.5498" lon="3.44296">
        <ele>139</ele>
        <time>2023-08-18T07:53:20Z</time>
      </trkpt>
      <trkpt lat="49.5498" lon="3.44296">
        <ele>139.4</ele>
        <time>2023-08-18T07:53:21Z</time>
      </trkpt>
      <trkpt lat="49.5498" lon="3.44296">
        <ele>140</ele>
        <time>2023-08-18T07:53:22Z</time>
      </trkpt>
      <trkpt lat="49.5498" lon="3.44296">
        <ele>140</ele>
        <time>2023-08-18T07:53:25Z</time>
      </trkpt>
      <trkpt lat="49.5498" lon="3.44297">
        <ele>140</ele>
        <time>2023-08-18T07:53:27Z</time>
      </trkpt>
      <trkpt lat="49.54983" lon="3.44306">
        <ele>140</ele>
        <time>2023-08-18T07:53:31Z</time>
      </trkpt>
      <trkpt lat="49.54983" lon="3.44307">
        <ele>140.4</ele>
        <time>2023-08-18T07:53:33Z</time>
      </trkpt>
      <trkpt lat="49.54983" lon="3.44308">
        <ele>140.8</ele>
        <time>2023-08-18T07:53:34Z</time>
      </trkpt>
      <trkpt lat="49.54984" lon="3.44311">
        <ele>141.2</ele>
        <time>2023-08-18T07:53:35Z</time>
      </trkpt>
      <trkpt lat="49.54984" lon="3.44315">
        <ele>141.6</ele>
        <time>2023-08-18T07:53:36Z</time>
      </trkpt>
      <trkpt lat="49.54985" lon="3.44317">
        <ele>142</ele>
        <time>2023-08-18T07:53:37Z</time>
      </trkpt>
      <trkpt lat="49.54987" lon="3.44321">
        <ele>142</ele>
        <time>2023-08-18T07:53:40Z</time>
      </trkpt>
      <trkpt lat="49.54988" lon="3.44325">
        <ele>142</ele>
        <time>2023-08-18T07:53:44Z</time>
      </trkpt>
      <trkpt lat="49.54989" lon="3.44327">
        <ele>142.4</ele>
        <time>2023-08-18T07:53:45Z</time>
      </trkpt>
      <trkpt lat="49.54989" lon="3.44329">
        <ele>142.8</ele>
        <time>2023-08-18T07:53:46Z</time>
      </trkpt>
      <trkpt lat="49.54988" lon="3.44331">
        <ele>143.2</ele>
        <time>2023-08-18T07:53:47Z</time>
      </trkpt>
      <trkpt lat="49.54989" lon="3.44333">
        <ele>143.6</ele>
        <time>2023-08-18T07:53:48Z</time>
      </trkpt>
      <trkpt lat="49.54988" lon="3.44333">
        <ele>144</ele>
        <time>2023-08-18T07:53:49Z</time>
      </trkpt>
      <trkpt lat="49.54989" lon="3.44336">
        <ele>144</ele>
        <time>2023-08-18T07:53:51Z</time>
      </trkpt>
      <trkpt lat="49.54991" lon="3.44341">
        <ele>144</ele>
        <time>2023-08-18T07:53:53Z</time>
      </trkpt>
      <trkpt lat="49.54991" lon="3.44346">
        <ele>144</ele>
        <time>2023-08-18T07:53:57Z</time>
      </trkpt>
      <trkpt lat="49.54991" lon="3.44347">
        <ele>144</ele>
        <time>2023-08-18T07:53:59Z</time>
      </trkpt>
      <trkpt lat="49.54991" lon="3.44349">
        <ele>144.4</ele>
        <time>2023-08-18T07:54:00Z</time>
      </trkpt>
      <trkpt lat="49.54992" lon="3.44351">
        <ele>144.8</ele>
        <time>2023-08-18T07:54:01Z</time>
      </trkpt>
      <trkpt lat="49.54992" lon="3.44353">
        <ele>145.2</ele>
        <time>2023-08-18T07:54:02Z</time>
      </trkpt>
      <trkpt lat="49.54992" lon="3.44354">
        <ele>145.8</ele>
        <time>2023-08-18T07:54:03Z</time>
      </trkpt>
      <trkpt lat="49.54993" lon="3.44355">
        <ele>146.2</ele>
        <time>2023-08-18T07:54:04Z</time>
      </trkpt>
      <trkpt lat="49.54993" lon="3.4436">
        <ele>146.2</ele>
        <time>2023-08-18T07:54:07Z</time>
      </trkpt>
      <trkpt lat="49.54995" lon="3.44371">
        <ele>146.2</ele>
        <time>2023-08-18T07:54:11Z</time>
      </trkpt>
      <trkpt lat="49.54996" lon="3.44372">
        <ele>146.2</ele>
        <time>2023-08-18T07:54:12Z</time>
      </trkpt>
      <trkpt lat="49.54997" lon="3.44377">
        <ele>146.6</ele>
        <time>2023-08-18T07:54:15Z</time>
      </trkpt>
      <trkpt lat="49.54997" lon="3.44379">
        <ele>147.4</ele>
        <time>2023-08-18T07:54:16Z</time>
      </trkpt>
      <trkpt lat="49.54997" lon="3.44381">
        <ele>147.8</ele>
        <time>2023-08-18T07:54:17Z</time>
      </trkpt>
      <trkpt lat="49.54998" lon="3.44384">
        <ele>148.2</ele>
        <time>2023-08-18T07:54:18Z</time>
      </trkpt>
      <trkpt lat="49.55" lon="3.44392">
        <ele>148.2</ele>
        <time>2023-08-18T07:54:23Z</time>
      </trkpt>
      <trkpt lat="49.55002" lon="3.444">
        <ele>148.2</ele>
        <time>2023-08-18T07:54:28Z</time>
      </trkpt>
      <trkpt lat="49.55002" lon="3.44404">
        <ele>148.2</ele>
        <time>2023-08-18T07:54:33Z</time>
      </trkpt>
      <trkpt lat="49.55003" lon="3.44407">
        <ele>148.2</ele>
        <time>2023-08-18T07:54:34Z</time>
      </trkpt>
      <trkpt lat="49.55005" lon="3.44414">
        <ele>148.2</ele>
        <time>2023-08-18T07:54:40Z</time>
      </trkpt>
      <trkpt lat="49.55005" lon="3.44414">
        <ele>148.6</ele>
        <time>2023-08-18T07:54:41Z</time>
      </trkpt>
      <trkpt lat="49.55005" lon="3.44416">
        <ele>149</ele>
        <time>2023-08-18T07:54:42Z</time>
      </trkpt>
      <trkpt lat="49.55005" lon="3.44418">
        <ele>149.4</ele>
        <time>2023-08-18T07:54:43Z</time>
      </trkpt>
      <trkpt lat="49.55005" lon="3.44421">
        <ele>149.8</ele>
        <time>2023-08-18T07:54:44Z</time>
      </trkpt>
      <trkpt lat="49.55005" lon="3.44424">
        <ele>150.2</ele>
        <time>2023-08-18T07:54:45Z</time>
      </trkpt>
      <trkpt lat="49.55007" lon="3.44434">
        <ele>150.2</ele>
        <time>2023-08-18T07:54:51Z</time>
      </trkpt>
      <trkpt lat="49.5501" lon="3.44445">
        <ele>150.2</ele>
        <time>2023-08-18T07:54:57Z</time>
      </trkpt>
      <trkpt lat="49.55012" lon="3.44453">
        <ele>150.2</ele>
        <time>2023-08-18T07:55:02Z</time>
      </trkpt>
      <trkpt lat="49.55014" lon="3.44462">
        <ele>150.6</ele>
        <time>2023-08-18T07:55:06Z</time>
      </trkpt>
      <trkpt lat="49.55015" lon="3.44464">
        <ele>151</ele>
        <time>2023-08-18T07:55:07Z</time>
      </trkpt>
      <trkpt lat="49.55015" lon="3.44466">
        <ele>151.4</ele>
        <time>2023-08-18T07:55:08Z</time>
      </trkpt>
      <trkpt lat="49.55015" lon="3.44467">
        <ele>151.8</ele>
        <time>2023-08-18T07:55:09Z</time>
      </trkpt>
      <trkpt lat="49.55015" lon="3.44468">
        <ele>152.2</ele>
        <time>2023-08-18T07:55:10Z</time>
      </trkpt>
      <trkpt lat="49.55015" lon="3.44468">
        <ele>152.2</ele>
        <time>2023-08-18T07:55:11Z</time>
      </trkpt>
      <trkpt lat="49.55017" lon="3.44479">
        <ele>152.2</ele>
        <time>2023-08-18T07:55:16Z</time>
      </trkpt>
      <trkpt lat="49.55017" lon="3.44484">
        <ele>152.2</ele>
        <time>2023-08-18T07:55:21Z</time>
      </trkpt>
      <trkpt lat="49.55021" lon="3.44497">
        <ele>152.2</ele>
        <time>2023-08-18T07:55:26Z</time>
      </trkpt>
      <trkpt lat="49.55019" lon="3.44501">
        <ele>152.2</ele>
        <time>2023-08-18T07:55:31Z</time>
      </trkpt>
      <trkpt lat="49.55019" lon="3.44502">
        <ele>152.2</ele>
        <time>2023-08-18T07:55:33Z</time>
      </trkpt>
      <trkpt lat="49.5502" lon="3.44506">
        <ele>152.6</ele>
        <time>2023-08-18T07:55:36Z</time>
      </trkpt>
      <trkpt lat="49.5502" lon="3.44507">
        <ele>153</ele>
        <time>2023-08-18T07:55:37Z</time>
      </trkpt>
      <trkpt lat="49.5502" lon="3.44508">
        <ele>153.6</ele>
        <time>2023-08-18T07:55:38Z</time>
      </trkpt>
      <trkpt lat="49.5502" lon="3.44508">
        <ele>154</ele>
        <time>2023-08-18T07:55:39Z</time>
      </trkpt>
      <trkpt lat="49.5502" lon="3.4451">
        <ele>154.4</ele>
        <time>2023-08-18T07:55:40Z</time>
      </trkpt>
      <trkpt lat="49.5502" lon="3.44512">
        <ele>154.4</ele>
        <time>2023-08-18T07:55:41Z</time>
      </trkpt>
      <trkpt lat="49.55022" lon="3.44521">
        <ele>154.4</ele>
        <time>2023-08-18T07:55:44Z</time>
      </trkpt>
      <trkpt lat="49.55023" lon="3.44525">
        <ele>154.4</ele>
        <time>2023-08-18T07:55:45Z</time>
      </trkpt>
      <trkpt lat="49.55025" lon="3.44532">
        <ele>154.4</ele>
        <time>2023-08-18T07:55:49Z</time>
      </trkpt>
      <trkpt lat="49.55025" lon="3.44537">
        <ele>154.4</ele>
        <time>2023-08-18T07:55:54Z</time>
      </trkpt>
      <trkpt lat="49.55028" lon="3.44551">
        <ele>154.4</ele>
        <time>2023-08-18T07:55:59Z</time>
      </trkpt>
      <trkpt lat="49.55029" lon="3.44557">
        <ele>154.8</ele>
        <time>2023-08-18T07:56:03Z</time>
      </trkpt>
      <trkpt lat="49.55029" lon="3.44558">
        <ele>155.2</ele>
        <time>2023-08-18T07:56:04Z</time>
      </trkpt>
      <trkpt lat="49.55028" lon="3.4456">
        <ele>155.6</ele>
        <time>2023-08-18T07:56:05Z</time>
      </trkpt>
      <trkpt lat="49.55028" lon="3.44562">
        <ele>156</ele>
        <time>2023-08-18T07:56:06Z</time>
      </trkpt>
      <trkpt lat="49.55027" lon="3.44563">
        <ele>156.4</ele>
        <time>2023-08-18T07:56:07Z</time>
      </trkpt>
      <trkpt lat="49.55027" lon="3.44569">
        <ele>156.4</ele>
        <time>2023-08-18T07:56:09Z</time>
      </trkpt>
      <trkpt lat="49.55027" lon="3.44576">
        <ele>156.4</ele>
        <time>2023-08-18T07:56:14Z</time>
      </trkpt>
      <trkpt lat="49.55025" lon="3.44581">
        <ele>156.4</ele>
        <time>2023-08-18T07:56:17Z</time>
      </trkpt>
      <trkpt lat="49.55025" lon="3.44585">
        <ele>156.4</ele>
        <time>2023-08-18T07:56:19Z</time>
      </trkpt>
      <trkpt lat="49.55024" lon="3.44587">
        <ele>156.4</ele>
        <time>2023-08-18T07:56:20Z</time>
      </trkpt>
      <trkpt lat="49.55025" lon="3.44589">
        <ele>156.8</ele>
        <time>2023-08-18T07:56:21Z</time>
      </trkpt>
      <trkpt lat="49.55025" lon="3.44591">
        <ele>157.2</ele>
        <time>2023-08-18T07:56:22Z</time>
      </trkpt>
      <trkpt lat="49.55025" lon="3.44592">
        <ele>157.6</ele>
        <time>2023-08-18T07:56:23Z</time>
      </trkpt>
      <trkpt lat="49.55025" lon="3.44593">
        <ele>158</ele>
        <time>2023-08-18T07:56:24Z</time>
      </trkpt>
      <trkpt lat="49.55025" lon="3.44594">
        <ele>158.4</ele>
        <time>2023-08-18T07:56:25Z</time>
      </trkpt>
      <trkpt lat="49.55026" lon="3.44595">
        <ele>158.4</ele>
        <time>2023-08-18T07:56:26Z</time>
      </trkpt>
      <trkpt lat="49.55029" lon="3.44607">
        <ele>158.4</ele>
        <time>2023-08-18T07:56:31Z</time>
      </trkpt>
      <trkpt lat="49.55031" lon="3.44616">
        <ele>158.4</ele>
        <time>2023-08-18T07:56:37Z</time>
      </trkpt>
      <trkpt lat="49.55032" lon="3.44619">
        <ele>158.4</ele>
        <time>2023-08-18T07:56:38Z</time>
      </trkpt>
      <trkpt lat="49.55033" lon="3.44623">
        <ele>158.8</ele>
        <time>2023-08-18T07:56:40Z</time>
      </trkpt>
      <trkpt lat="49.55034" lon="3.44624">
        <ele>159.2</ele>
        <time>2023-08-18T07:56:41Z</time>
      </trkpt>
      <trkpt lat="49.55034" lon="3.44626">
        <ele>159.6</ele>
        <time>2023-08-18T07:56:42Z</time>
      </trkpt>
      <trkpt lat="49.55034" lon="3.44626">
        <ele>160</ele>
        <time>2023-08-18T07:56:43Z</time>
      </trkpt>
      <trkpt lat="49.55034" lon="3.44627">
        <ele>160.4</ele>
        <time>2023-08-18T07:56:44Z</time>
      </trkpt>
      <trkpt lat="49.55035" lon="3.44628">
        <ele>160.4</ele>
        <time>2023-08-18T07:56:46Z</time>
      </trkpt>
      <trkpt lat="49.55035" lon="3.4463">
        <ele>160.4</ele>
        <time>2023-08-18T07:56:47Z</time>
      </trkpt>
      <trkpt lat="49.55039" lon="3.44641">
        <ele>160.4</ele>
        <time>2023-08-18T07:56:51Z</time>
      </trkpt>
      <trkpt lat="49.55038" lon="3.44641">
        <ele>160.4</ele>
        <time>2023-08-18T07:56:52Z</time>
      </trkpt>
      <trkpt lat="49.55036" lon="3.44642">
        <ele>160.8</ele>
        <time>2023-08-18T07:56:54Z</time>
      </trkpt>
      <trkpt lat="49.55036" lon="3.44643">
        <ele>161.2</ele>
        <time>2023-08-18T07:56:55Z</time>
      </trkpt>
      <trkpt lat="49.55035" lon="3.44645">
        <ele>161.8</ele>
        <time>2023-08-18T07:56:56Z</time>
      </trkpt>
      <trkpt lat="49.55035" lon="3.44647">
        <ele>162.2</ele>
        <time>2023-08-18T07:56:57Z</time>
      </trkpt>
      <trkpt lat="49.55036" lon="3.4465">
        <ele>162.6</ele>
        <time>2023-08-18T07:56:58Z</time>
      </trkpt>
      <trkpt lat="49.55037" lon="3.44657">
        <ele>162.6</ele>
        <time>2023-08-18T07:57:03Z</time>
      </trkpt>
      <trkpt lat="49.55039" lon="3.44667">
        <ele>162.6</ele>
        <time>2023-08-18T07:57:08Z</time>
      </trkpt>
      <trkpt lat="49.55041" lon="3.44673">
        <ele>163</ele>
        <time>2023-08-18T07:57:12Z</time>
      </trkpt>
      <trkpt lat="49.55041" lon="3.44674">
        <ele>163.4</ele>
        <time>2023-08-18T07:57:13Z</time>
      </trkpt>
      <trkpt lat="49.55041" lon="3.44675">
        <ele>163.8</ele>
        <time>2023-08-18T07:57:14Z</time>
      </trkpt>
      <trkpt lat="49.55042" lon="3.44678">
        <ele>164.2</ele>
        <time>2023-08-18T07:57:15Z</time>
      </trkpt>
      <trkpt lat="49.55043" lon="3.4468">
        <ele>164.6</ele>
        <time>2023-08-18T07:57:16Z</time>
      </trkpt>
      <trkpt lat="49.55046" lon="3.44687">
        <ele>164.6</ele>
        <time>2023-08-18T07:57:19Z</time>
      </trkpt>
      <trkpt lat="49.55047" lon="3.44695">
        <ele>164.6</ele>
        <time>2023-08-18T07:57:25Z</time>
      </trkpt>
      <trkpt lat="49.55047" lon="3.44698">
        <ele>164.6</ele>
        <time>2023-08-18T07:57:26Z</time>
      </trkpt>
      <trkpt lat="49.55047" lon="3.44706">
        <ele>164.6</ele>
        <time>2023-08-18T07:57:31Z</time>
      </trkpt>
      <trkpt lat="49.55047" lon="3.4471">
        <ele>164.6</ele>
        <time>2023-08-18T07:57:41Z</time>
      </trkpt>
      <trkpt lat="49.55049" lon="3.44714">
        <ele>164.6</ele>
        <time>2023-08-18T07:57:47Z</time>
      </trkpt>
      <trkpt lat="49.55049" lon="3.44714">
        <ele>164.6</ele>
        <time>2023-08-18T07:57:54Z</time>
      </trkpt>
      <trkpt lat="49.5505" lon="3.44713">
        <ele>165.4</ele>
        <time>2023-08-18T07:57:58Z</time>
      </trkpt>
      <trkpt lat="49.55049" lon="3.44713">
        <ele>165.8</ele>
        <time>2023-08-18T07:57:59Z</time>
      </trkpt>
      <trkpt lat="49.55049" lon="3.44713">
        <ele>166.2</ele>
        <time>2023-08-18T07:58:00Z</time>
      </trkpt>
      <trkpt lat="49.55049" lon="3.44713">
        <ele>166.6</ele>
        <time>2023-08-18T07:58:01Z</time>
      </trkpt>
      <trkpt lat="49.55049" lon="3.44713">
        <ele>166.6</ele>
        <time>2023-08-18T07:58:09Z</time>
      </trkpt>
      <trkpt lat="49.55049" lon="3.44713">
        <ele>166.6</ele>
        <time>2023-08-18T07:58:15Z</time>
      </trkpt>
      <trkpt lat="49.55048" lon="3.44713">
        <ele>166.6</ele>
        <time>2023-08-18T07:58:20Z</time>
      </trkpt>
      <trkpt lat="49.55048" lon="3.44713">
        <ele>166.6</ele>
        <time>2023-08-18T07:58:26Z</time>
      </trkpt>
      <trkpt lat="49.55047" lon="3.44715">
        <ele>166.6</ele>
        <time>2023-08-18T07:58:32Z</time>
      </trkpt>
      <trkpt lat="49.55045" lon="3.44716">
        <ele>166.6</ele>
        <time>2023-08-18T07:58:37Z</time>
      </trkpt>
      <trkpt lat="49.55045" lon="3.44715">
        <ele>166.6</ele>
        <time>2023-08-18T07:58:42Z</time>
      </trkpt>
      <trkpt lat="49.55042" lon="3.44719">
        <ele>166.6</ele>
        <time>2023-08-18T07:58:47Z</time>
      </trkpt>
      <trkpt lat="49.55041" lon="3.44723">
        <ele>166.6</ele>
        <time>2023-08-18T07:58:52Z</time>
      </trkpt>
      <trkpt lat="49.55042" lon="3.4473">
        <ele>166.6</ele>
        <time>2023-08-18T07:58:57Z</time>
      </trkpt>
      <trkpt lat="49.55043" lon="3.44733">
        <ele>166.6</ele>
        <time>2023-08-18T07:59:03Z</time>
      </trkpt>
      <trkpt lat="49.55044" lon="3.44742">
        <ele>167</ele>
        <time>2023-08-18T07:59:07Z</time>
      </trkpt>
      <trkpt lat="49.55045" lon="3.44744">
        <ele>167.4</ele>
        <time>2023-08-18T07:59:08Z</time>
      </trkpt>
      <trkpt lat="49.55045" lon="3.44745">
        <ele>167.8</ele>
        <time>2023-08-18T07:59:09Z</time>
      </trkpt>
      <trkpt lat="49.55045" lon="3.44746">
        <ele>168.2</ele>
        <time>2023-08-18T07:59:10Z</time>
      </trkpt>
      <trkpt lat="49.55045" lon="3.44748">
        <ele>168.6</ele>
        <time>2023-08-18T07:59:11Z</time>
      </trkpt>
      <trkpt lat="49.55047" lon="3.44752">
        <ele>168.6</ele>
        <time>2023-08-18T07:59:14Z</time>
      </trkpt>
      <trkpt lat="49.55049" lon="3.44763">
        <ele>168.6</ele>
        <time>2023-08-18T07:59:19Z</time>
      </trkpt>
      <trkpt lat="49.5505" lon="3.44773">
        <ele>168.6</ele>
        <time>2023-08-18T07:59:25Z</time>
      </trkpt>
      <trkpt lat="49.5505" lon="3.44775">
        <ele>168.6</ele>
        <time>2023-08-18T07:59:30Z</time>
      </trkpt>
      <trkpt lat="49.55047" lon="3.4478">
        <ele>168.6</ele>
        <time>2023-08-18T07:59:32Z</time>
      </trkpt>
      <trkpt lat="49.55047" lon="3.44782">
        <ele>168.6</ele>
        <time>2023-08-18T07:59:34Z</time>
      </trkpt>
      <trkpt lat="49.55047" lon="3.44787">
        <ele>169</ele>
        <time>2023-08-18T07:59:36Z</time>
      </trkpt>
      <trkpt lat="49.55047" lon="3.44788">
        <ele>169.8</ele>
        <time>2023-08-18T07:59:37Z</time>
      </trkpt>
      <trkpt lat="49.55046" lon="3.44788">
        <ele>170.2</ele>
        <time>2023-08-18T07:59:38Z</time>
      </trkpt>
      <trkpt lat="49.55046" lon="3.44789">
        <ele>170.8</ele>
        <time>2023-08-18T07:59:39Z</time>
      </trkpt>
      <trkpt lat="49.55045" lon="3.44792">
        <ele>170.8</ele>
        <time>2023-08-18T07:59:40Z</time>
      </trkpt>
      <trkpt lat="49.55043" lon="3.44797">
        <ele>170.8</ele>
        <time>2023-08-18T07:59:42Z</time>
      </trkpt>
      <trkpt lat="49.55044" lon="3.44804">
        <ele>170.8</ele>
        <time>2023-08-18T07:59:46Z</time>
      </trkpt>
      <trkpt lat="49.55043" lon="3.44818">
        <ele>170.8</ele>
        <time>2023-08-18T07:59:51Z</time>
      </trkpt>
      <trkpt lat="49.55043" lon="3.44822">
        <ele>170.8</ele>
        <time>2023-08-18T07:59:55Z</time>
      </trkpt>
      <trkpt lat="49.55043" lon="3.44833">
        <ele>170.8</ele>
        <time>2023-08-18T08:00:00Z</time>
      </trkpt>
      <trkpt lat="49.55042" lon="3.44838">
        <ele>170.8</ele>
        <time>2023-08-18T08:00:04Z</time>
      </trkpt>
      <trkpt lat="49.5504" lon="3.44845">
        <ele>170.8</ele>
        <time>2023-08-18T08:00:09Z</time>
      </trkpt>
      <trkpt lat="49.5504" lon="3.44851">
        <ele>170.8</ele>
        <time>2023-08-18T08:00:13Z</time>
      </trkpt>
      <trkpt lat="49.5504" lon="3.44853">
        <ele>170.8</ele>
        <time>2023-08-18T08:00:15Z</time>
      </trkpt>
      <trkpt lat="49.55039" lon="3.44858">
        <ele>170.8</ele>
        <time>2023-08-18T08:00:20Z</time>
      </trkpt>
      <trkpt lat="49.55038" lon="3.4486">
        <ele>170.8</ele>
        <time>2023-08-18T08:00:26Z</time>
      </trkpt>
      <trkpt lat="49.55036" lon="3.44865">
        <ele>170.8</ele>
        <time>2023-08-18T08:00:29Z</time>
      </trkpt>
      <trkpt lat="49.55035" lon="3.44869">
        <ele>170.8</ele>
        <time>2023-08-18T08:00:31Z</time>
      </trkpt>
      <trkpt lat="49.55034" lon="3.4487">
        <ele>170.8</ele>
        <time>2023-08-18T08:00:32Z</time>
      </trkpt>
      <trkpt lat="49.55032" lon="3.44874">
        <ele>170.8</ele>
        <time>2023-08-18T08:00:35Z</time>
      </trkpt>
      <trkpt lat="49.55031" lon="3.44875">
        <ele>170.8</ele>
        <time>2023-08-18T08:00:37Z</time>
      </trkpt>
      <trkpt lat="49.55029" lon="3.4488">
        <ele>170.8</ele>
        <time>2023-08-18T08:00:43Z</time>
      </trkpt>
      <trkpt lat="49.55028" lon="3.44877">
        <ele>170.8</ele>
        <time>2023-08-18T08:00:49Z</time>
      </trkpt>
      <trkpt lat="49.55031" lon="3.44873">
        <ele>170.8</ele>
        <time>2023-08-18T08:00:52Z</time>
      </trkpt>
      <trkpt lat="49.55032" lon="3.44872">
        <ele>170.8</ele>
        <time>2023-08-18T08:00:53Z</time>
      </trkpt>
      <trkpt lat="49.55034" lon="3.44868">
        <ele>170.8</ele>
        <time>2023-08-18T08:00:57Z</time>
      </trkpt>
      <trkpt lat="49.55037" lon="3.44861">
        <ele>170.8</ele>
        <time>2023-08-18T08:01:02Z</time>
      </trkpt>
      <trkpt lat="49.55036" lon="3.44861">
        <ele>170.8</ele>
        <time>2023-08-18T08:01:07Z</time>
      </trkpt>
      <trkpt lat="49.55035" lon="3.4486">
        <ele>170.8</ele>
        <time>2023-08-18T08:01:13Z</time>
      </trkpt>
      <trkpt lat="49.55035" lon="3.4486">
        <ele>170.8</ele>
        <time>2023-08-18T08:01:23Z</time>
      </trkpt>
      <trkpt lat="49.55035" lon="3.4486">
        <ele>170.8</ele>
        <time>2023-08-18T08:01:32Z</time>
      </trkpt>
      <trkpt lat="49.55035" lon="3.4486">
        <ele>170.8</ele>
        <time>2023-08-18T08:01:39Z</time>
      </trkpt>
      <trkpt lat="49.55035" lon="3.4486">
        <ele>170.8</ele>
        <time>2023-08-18T08:01:46Z</time>
      </trkpt>
      <trkpt lat="49.55037" lon="3.44857">
        <ele>170.8</ele>
        <time>2023-08-18T08:01:53Z</time>
      </trkpt>
      <trkpt lat="49.55039" lon="3.44852">
        <ele>170.8</ele>
        <time>2023-08-18T08:01:59Z</time>
      </trkpt>
      <trkpt lat="49.55039" lon="3.4485">
        <ele>170.8</ele>
        <time>2023-08-18T08:02:08Z</time>
      </trkpt>
      <trkpt lat="49.55039" lon="3.4485">
        <ele>170.8</ele>
        <time>2023-08-18T08:02:13Z</time>
      </trkpt>
      <trkpt lat="49.5504" lon="3.44853">
        <ele>170.8</ele>
        <time>2023-08-18T08:02:19Z</time>
      </trkpt>
      <trkpt lat="49.55037" lon="3.44857">
        <ele>170.8</ele>
        <time>2023-08-18T08:02:23Z</time>
      </trkpt>
      <trkpt lat="49.55037" lon="3.44858">
        <ele>170.8</ele>
        <time>2023-08-18T08:02:24Z</time>
      </trkpt>
      <trkpt lat="49.55037" lon="3.44863">
        <ele>170.8</ele>
        <time>2023-08-18T08:02:30Z</time>
      </trkpt>
      <trkpt lat="49.55035" lon="3.4487">
        <ele>170.8</ele>
        <time>2023-08-18T08:02:36Z</time>
      </trkpt>
      <trkpt lat="49.55035" lon="3.44868">
        <ele>170.8</ele>
        <time>2023-08-18T08:02:41Z</time>
      </trkpt>
      <trkpt lat="49.55035" lon="3.44861">
        <ele>170.8</ele>
        <time>2023-08-18T08:02:46Z</time>
      </trkpt>
      <trkpt lat="49.55037" lon="3.44856">
        <ele>170.8</ele>
        <time>2023-08-18T08:02:52Z</time>
      </trkpt>
      <trkpt lat="49.55039" lon="3.44853">
        <ele>170.8</ele>
        <time>2023-08-18T08:02:54Z</time>
      </trkpt>
      <trkpt lat="49.5504" lon="3.4485">
        <ele>170.8</ele>
        <time>2023-08-18T08:02:57Z</time>
      </trkpt>
      <trkpt lat="49.55041" lon="3.44848">
        <ele>170.8</ele>
        <time>2023-08-18T08:03:03Z</time>
      </trkpt>
      <trkpt lat="49.5504" lon="3.4484">
        <ele>170.8</ele>
        <time>2023-08-18T08:03:11Z</time>
      </trkpt>
      <trkpt lat="49.55039" lon="3.44837">
        <ele>170.8</ele>
        <time>2023-08-18T08:03:19Z</time>
      </trkpt>
      <trkpt lat="49.55039" lon="3.44843">
        <ele>170.8</ele>
        <time>2023-08-18T08:03:26Z</time>
      </trkpt>
      <trkpt lat="49.55038" lon="3.44846">
        <ele>170.8</ele>
        <time>2023-08-18T08:03:27Z</time>
      </trkpt>
      <trkpt lat="49.55036" lon="3.44852">
        <ele>170.8</ele>
        <time>2023-08-18T08:03:30Z</time>
      </trkpt>
      <trkpt lat="49.55036" lon="3.44859">
        <ele>170.8</ele>
        <time>2023-08-18T08:03:35Z</time>
      </trkpt>
      <trkpt lat="49.55037" lon="3.44863">
        <ele>170.8</ele>
        <time>2023-08-18T08:03:41Z</time>
      </trkpt>
      <trkpt lat="49.55037" lon="3.44864">
        <ele>170.8</ele>
        <time>2023-08-18T08:03:48Z</time>
      </trkpt>
      <trkpt lat="49.55036" lon="3.44866">
        <ele>170.8</ele>
        <time>2023-08-18T08:03:55Z</time>
      </trkpt>
      <trkpt lat="49.55042" lon="3.44868">
        <ele>170.8</ele>
        <time>2023-08-18T08:04:02Z</time>
      </trkpt>
      <trkpt lat="49.55044" lon="3.44872">
        <ele>170.8</ele>
        <time>2023-08-18T08:04:04Z</time>
      </trkpt>
      <trkpt lat="49.55045" lon="3.44873">
        <ele>170.8</ele>
        <time>2023-08-18T08:04:07Z</time>
      </trkpt>
      <trkpt lat="49.55045" lon="3.44873">
        <ele>170.8</ele>
        <time>2023-08-18T08:04:15Z</time>
      </trkpt>
      <trkpt lat="49.55047" lon="3.44874">
        <ele>170.8</ele>
        <time>2023-08-18T08:04:22Z</time>
      </trkpt>
      <trkpt lat="49.55051" lon="3.44874">
        <ele>170.8</ele>
        <time>2023-08-18T08:04:28Z</time>
      </trkpt>
      <trkpt lat="49.55051" lon="3.44874">
        <ele>170.8</ele>
        <time>2023-08-18T08:04:33Z</time>
      </trkpt>
      <trkpt lat="49.55051" lon="3.44874">
        <ele>170.8</ele>
        <time>2023-08-18T08:04:36Z</time>
      </trkpt>
      <trkpt lat="49.5505" lon="3.44875">
        <ele>171.2</ele>
        <time>2023-08-18T08:04:43Z</time>
      </trkpt>
      <trkpt lat="49.5505" lon="3.44875">
        <ele>171.6</ele>
        <time>2023-08-18T08:04:44Z</time>
      </trkpt>
      <trkpt lat="49.5505" lon="3.44875">
        <ele>172</ele>
        <time>2023-08-18T08:04:45Z</time>
      </trkpt>
      <trkpt lat="49.5505" lon="3.44875">
        <ele>172.4</ele>
        <time>2023-08-18T08:04:46Z</time>
      </trkpt>
      <trkpt lat="49.5505" lon="3.44875">
        <ele>172.8</ele>
        <time>2023-08-18T08:04:47Z</time>
      </trkpt>
      <trkpt lat="49.5505" lon="3.44875">
        <ele>172.8</ele>
        <time>2023-08-18T08:04:56Z</time>
      </trkpt>
      <trkpt lat="49.5505" lon="3.44875">
        <ele>172.8</ele>
        <time>2023-08-18T08:05:03Z</time>
      </trkpt>
      <trkpt lat="49.55051" lon="3.44876">
        <ele>172.8</ele>
        <time>2023-08-18T08:05:11Z</time>
      </trkpt>
      <trkpt lat="49.5505" lon="3.44876">
        <ele>172.8</ele>
        <time>2023-08-18T08:05:18Z</time>
      </trkpt>
      <trkpt lat="49.5505" lon="3.44877">
        <ele>172.8</ele>
        <time>2023-08-18T08:05:29Z</time>
      </trkpt>
      <trkpt lat="49.5505" lon="3.44877">
        <ele>172.8</ele>
        <time>2023-08-18T08:05:44Z</time>
      </trkpt>
      <trkpt lat="49.55051" lon="3.44877">
        <ele>172.8</ele>
        <time>2023-08-18T08:05:59Z</time>
      </trkpt>
      <trkpt lat="49.55051" lon="3.44877">
        <ele>172.8</ele>
        <time>2023-08-18T08:06:14Z</time>
      </trkpt>
      <trkpt lat="49.55051" lon="3.44877">
        <ele>172.8</ele>
        <time>2023-08-18T08:06:30Z</time>
      </trkpt>
      <trkpt lat="49.55051" lon="3.44877">
        <ele>172.8</ele>
        <time>2023-08-18T08:06:42Z</time>
      </trkpt>
      <trkpt lat="49.55054" lon="3.44874">
        <ele>172.8</ele>
        <time>2023-08-18T08:06:48Z</time>
      </trkpt>
      <trkpt lat="49.55049" lon="3.44874">
        <ele>172.8</ele>
        <time>2023-08-18T08:06:55Z</time>
      </trkpt>
      <trkpt lat="49.55046" lon="3.44874">
        <ele>172.8</ele>
        <time>2023-08-18T08:07:02Z</time>
      </trkpt>
      <trkpt lat="49.55047" lon="3.44875">
        <ele>172.8</ele>
        <time>2023-08-18T08:07:09Z</time>
      </trkpt>
      <trkpt lat="49.55046" lon="3.44877">
        <ele>172.8</ele>
        <time>2023-08-18T08:07:15Z</time>
      </trkpt>
      <trkpt lat="49.55046" lon="3.44877">
        <ele>172.8</ele>
        <time>2023-08-18T08:07:20Z</time>
      </trkpt>
      <trkpt lat="49.55047" lon="3.44877">
        <ele>172.8</ele>
        <time>2023-08-18T08:07:26Z</time>
      </trkpt>
      <trkpt lat="49.55047" lon="3.44877">
        <ele>172.8</ele>
        <time>2023-08-18T08:07:37Z</time>
      </trkpt>
      <trkpt lat="49.55046" lon="3.44877">
        <ele>172.8</ele>
        <time>2023-08-18T08:07:46Z</time>
      </trkpt>
      <trkpt lat="49.55046" lon="3.44878">
        <ele>172.8</ele>
        <time>2023-08-18T08:07:57Z</time>
      </trkpt>
      <trkpt lat="49.55046" lon="3.44878">
        <ele>173.2</ele>
        <time>2023-08-18T08:08:08Z</time>
      </trkpt>
      <trkpt lat="49.55046" lon="3.44878">
        <ele>173.6</ele>
        <time>2023-08-18T08:08:09Z</time>
      </trkpt>
      <trkpt lat="49.55046" lon="3.44878">
        <ele>174</ele>
        <time>2023-08-18T08:08:10Z</time>
      </trkpt>
      <trkpt lat="49.55046" lon="3.44878">
        <ele>174.4</ele>
        <time>2023-08-18T08:08:11Z</time>
      </trkpt>
      <trkpt lat="49.55046" lon="3.44878">
        <ele>174.8</ele>
        <time>2023-08-18T08:08:12Z</time>
      </trkpt>
      <trkpt lat="49.55046" lon="3.44878">
        <ele>174.8</ele>
        <time>2023-08-18T08:08:13Z</time>
      </trkpt>
      <trkpt lat="49.55047" lon="3.44878">
        <ele>174.8</ele>
        <time>2023-08-18T08:08:29Z</time>
      </trkpt>
      <trkpt lat="49.55047" lon="3.44878">
        <ele>174.8</ele>
        <time>2023-08-18T08:08:45Z</time>
      </trkpt>
      <trkpt lat="49.55047" lon="3.44878">
        <ele>174.8</ele>
        <time>2023-08-18T08:08:50Z</time>
      </trkpt>
      <trkpt lat="49.55047" lon="3.44878">
        <ele>174.8</ele>
        <time>2023-08-18T08:09:00Z</time>
      </trkpt>
      <trkpt lat="49.55047" lon="3.44878">
        <ele>174.8</ele>
        <time>2023-08-18T08:09:12Z</time>
      </trkpt>
      <trkpt lat="49.55045" lon="3.44878">
        <ele>174.8</ele>
        <time>2023-08-18T08:09:21Z</time>
      </trkpt>
      <trkpt lat="49.55037" lon="3.44879">
        <ele>174.8</ele>
        <time>2023-08-18T08:09:27Z</time>
      </trkpt>
      <trkpt lat="49.55034" lon="3.44879">
        <ele>174.8</ele>
        <time>2023-08-18T08:09:32Z</time>
      </trkpt>
      <trkpt lat="49.55029" lon="3.44881">
        <ele>174.8</ele>
        <time>2023-08-18T08:09:38Z</time>
      </trkpt>
      <trkpt lat="49.55026" lon="3.44888">
        <ele>174.8</ele>
        <time>2023-08-18T08:09:46Z</time>
      </trkpt>
      <trkpt lat="49.55027" lon="3.44888">
        <ele>174.8</ele>
        <time>2023-08-18T08:09:54Z</time>
      </trkpt>
      <trkpt lat="49.55027" lon="3.44888">
        <ele>174.8</ele>
        <time>2023-08-18T08:09:58Z</time>
      </trkpt>
      <trkpt lat="49.55027" lon="3.44888">
        <ele>174.8</ele>
        <time>2023-08-18T08:10:07Z</time>
      </trkpt>
      <trkpt lat="49.55027" lon="3.44888">
        <ele>174.8</ele>
        <time>2023-08-18T08:10:17Z</time>
      </trkpt>
      <trkpt lat="49.55027" lon="3.44888">
        <ele>174.8</ele>
        <time>2023-08-18T08:10:27Z</time>
      </trkpt>
      <trkpt lat="49.55028" lon="3.44887">
        <ele>174.8</ele>
        <time>2023-08-18T08:10:37Z</time>
      </trkpt>
      <trkpt lat="49.55028" lon="3.44887">
        <ele>174.8</ele>
        <time>2023-08-18T08:10:45Z</time>
      </trkpt>
      <trkpt lat="49.55028" lon="3.44887">
        <ele>174.8</ele>
        <time>2023-08-18T08:10:57Z</time>
      </trkpt>
      <trkpt lat="49.55028" lon="3.44887">
        <ele>174.8</ele>
        <time>2023-08-18T08:11:12Z</time>
      </trkpt>
      <trkpt lat="49.55029" lon="3.44887">
        <ele>174.8</ele>
        <time>2023-08-18T08:11:28Z</time>
      </trkpt>
      <trkpt lat="49.55029" lon="3.44887">
        <ele>174.8</ele>
        <time>2023-08-18T08:11:44Z</time>
      </trkpt>
      <trkpt lat="49.55029" lon="3.44887">
        <ele>174.8</ele>
        <time>2023-08-18T08:11:59Z</time>
      </trkpt>
      <trkpt lat="49.55031" lon="3.44885">
        <ele>174.8</ele>
        <time>2023-08-18T08:12:04Z</time>
      </trkpt>
      <trkpt lat="49.5503" lon="3.44884">
        <ele>174.8</ele>
        <time>2023-08-18T08:12:09Z</time>
      </trkpt>
      <trkpt lat="49.55028" lon="3.44882">
        <ele>174.8</ele>
        <time>2023-08-18T08:12:16Z</time>
      </trkpt>
      <trkpt lat="49.55028" lon="3.44882">
        <ele>174.8</ele>
        <time>2023-08-18T08:12:21Z</time>
      </trkpt>
      <trkpt lat="49.55028" lon="3.44884">
        <ele>174.8</ele>
        <time>2023-08-18T08:12:26Z</time>
      </trkpt>
      <trkpt lat="49.55028" lon="3.44886">
        <ele>174.8</ele>
        <time>2023-08-18T08:12:31Z</time>
      </trkpt>
      <trkpt lat="49.55027" lon="3.44886">
        <ele>174.8</ele>
        <time>2023-08-18T08:12:39Z</time>
      </trkpt>
      <trkpt lat="49.55026" lon="3.44887">
        <ele>174.8</ele>
        <time>2023-08-18T08:12:45Z</time>
      </trkpt>
      <trkpt lat="49.5503" lon="3.44893">
        <ele>174.8</ele>
        <time>2023-08-18T08:12:52Z</time>
      </trkpt>
      <trkpt lat="49.55034" lon="3.44898">
        <ele>174.8</ele>
        <time>2023-08-18T08:12:58Z</time>
      </trkpt>
      <trkpt lat="49.55033" lon="3.449">
        <ele>174.8</ele>
        <time>2023-08-18T08:13:03Z</time>
      </trkpt>
      <trkpt lat="49.55035" lon="3.44901">
        <ele>174.8</ele>
        <time>2023-08-18T08:13:09Z</time>
      </trkpt>
      <trkpt lat="49.55035" lon="3.449">
        <ele>174.8</ele>
        <time>2023-08-18T08:13:18Z</time>
      </trkpt>
      <trkpt lat="49.55034" lon="3.449">
        <ele>175.2</ele>
        <time>2023-08-18T08:13:21Z</time>
      </trkpt>
      <trkpt lat="49.55034" lon="3.449">
        <ele>175.6</ele>
        <time>2023-08-18T08:13:22Z</time>
      </trkpt>
      <trkpt lat="49.55034" lon="3.449">
        <ele>176</ele>
        <time>2023-08-18T08:13:23Z</time>
      </trkpt>
      <trkpt lat="49.55034" lon="3.449">
        <ele>176.4</ele>
        <time>2023-08-18T08:13:24Z</time>
      </trkpt>
      <trkpt lat="49.55034" lon="3.449">
        <ele>176.8</ele>
        <time>2023-08-18T08:13:25Z</time>
      </trkpt>
      <trkpt lat="49.55034" lon="3.449">
        <ele>176.8</ele>
        <time>2023-08-18T08:13:39Z</time>
      </trkpt>
      <trkpt lat="49.55034" lon="3.449">
        <ele>176.8</ele>
        <time>2023-08-18T08:13:45Z</time>
      </trkpt>
      <trkpt lat="49.55034" lon="3.449">
        <ele>176.8</ele>
        <time>2023-08-18T08:13:51Z</time>
      </trkpt>
      <trkpt lat="49.55033" lon="3.44905">
        <ele>176.8</ele>
        <time>2023-08-18T08:13:55Z</time>
      </trkpt>
      <trkpt lat="49.55034" lon="3.44905">
        <ele>176.8</ele>
        <time>2023-08-18T08:13:56Z</time>
      </trkpt>
      <trkpt lat="49.55033" lon="3.44908">
        <ele>176.8</ele>
        <time>2023-08-18T08:14:02Z</time>
      </trkpt>
      <trkpt lat="49.55032" lon="3.44909">
        <ele>176.8</ele>
        <time>2023-08-18T08:14:04Z</time>
      </trkpt>
      <trkpt lat="49.5503" lon="3.44912">
        <ele>176.8</ele>
        <time>2023-08-18T08:14:06Z</time>
      </trkpt>
      <trkpt lat="49.55028" lon="3.44916">
        <ele>176.8</ele>
        <time>2023-08-18T08:14:08Z</time>
      </trkpt>
      <trkpt lat="49.55027" lon="3.44922">
        <ele>176.8</ele>
        <time>2023-08-18T08:14:11Z</time>
      </trkpt>
      <trkpt lat="49.55026" lon="3.44923">
        <ele>176.8</ele>
        <time>2023-08-18T08:14:15Z</time>
      </trkpt>
      <trkpt lat="49.55026" lon="3.44926">
        <ele>176.8</ele>
        <time>2023-08-18T08:14:16Z</time>
      </trkpt>
      <trkpt lat="49.55026" lon="3.4493">
        <ele>176.8</ele>
        <time>2023-08-18T08:14:19Z</time>
      </trkpt>
      <trkpt lat="49.55024" lon="3.44938">
        <ele>176.8</ele>
        <time>2023-08-18T08:14:25Z</time>
      </trkpt>
      <trkpt lat="49.55022" lon="3.44946">
        <ele>176.8</ele>
        <time>2023-08-18T08:14:31Z</time>
      </trkpt>
      <trkpt lat="49.5502" lon="3.44955">
        <ele>176.8</ele>
        <time>2023-08-18T08:14:36Z</time>
      </trkpt>
      <trkpt lat="49.55022" lon="3.44959">
        <ele>176.8</ele>
        <time>2023-08-18T08:14:41Z</time>
      </trkpt>
      <trkpt lat="49.55022" lon="3.44964">
        <ele>176.4</ele>
        <time>2023-08-18T08:14:43Z</time>
      </trkpt>
      <trkpt lat="49.55023" lon="3.44968">
        <ele>176</ele>
        <time>2023-08-18T08:14:44Z</time>
      </trkpt>
      <trkpt lat="49.55023" lon="3.44971">
        <ele>175.6</ele>
        <time>2023-08-18T08:14:45Z</time>
      </trkpt>
      <trkpt lat="49.55023" lon="3.44974">
        <ele>175.2</ele>
        <time>2023-08-18T08:14:46Z</time>
      </trkpt>
      <trkpt lat="49.55023" lon="3.44976">
        <ele>174.8</ele>
        <time>2023-08-18T08:14:47Z</time>
      </trkpt>
      <trkpt lat="49.55024" lon="3.44978">
        <ele>174.8</ele>
        <time>2023-08-18T08:14:50Z</time>
      </trkpt>
      <trkpt lat="49.55021" lon="3.44984">
        <ele>174.8</ele>
        <time>2023-08-18T08:14:55Z</time>
      </trkpt>
      <trkpt lat="49.5502" lon="3.4499">
        <ele>174.8</ele>
        <time>2023-08-18T08:14:57Z</time>
      </trkpt>
      <trkpt lat="49.55019" lon="3.44995">
        <ele>174.8</ele>
        <time>2023-08-18T08:15:02Z</time>
      </trkpt>
      <trkpt lat="49.55019" lon="3.44998">
        <ele>174.8</ele>
        <time>2023-08-18T08:15:08Z</time>
      </trkpt>
      <trkpt lat="49.55019" lon="3.45002">
        <ele>174.8</ele>
        <time>2023-08-18T08:15:13Z</time>
      </trkpt>
      <trkpt lat="49.55019" lon="3.45003">
        <ele>174</ele>
        <time>2023-08-18T08:15:15Z</time>
      </trkpt>
      <trkpt lat="49.55019" lon="3.45003">
        <ele>173.6</ele>
        <time>2023-08-18T08:15:16Z</time>
      </trkpt>
      <trkpt lat="49.55019" lon="3.45003">
        <ele>173.2</ele>
        <time>2023-08-18T08:15:17Z</time>
      </trkpt>
      <trkpt lat="49.55019" lon="3.45003">
        <ele>172.8</ele>
        <time>2023-08-18T08:15:18Z</time>
      </trkpt>
      <trkpt lat="49.55018" lon="3.45002">
        <ele>172.8</ele>
        <time>2023-08-18T08:15:19Z</time>
      </trkpt>
      <trkpt lat="49.55015" lon="3.44997">
        <ele>172.8</ele>
        <time>2023-08-18T08:15:24Z</time>
      </trkpt>
      <trkpt lat="49.55012" lon="3.44997">
        <ele>172.8</ele>
        <time>2023-08-18T08:15:25Z</time>
      </trkpt>
      <trkpt lat="49.5501" lon="3.44998">
        <ele>172.8</ele>
        <time>2023-08-18T08:15:28Z</time>
      </trkpt>
      <trkpt lat="49.55008" lon="3.45">
        <ele>172.8</ele>
        <time>2023-08-18T08:15:33Z</time>
      </trkpt>
      <trkpt lat="49.55009" lon="3.45001">
        <ele>172.8</ele>
        <time>2023-08-18T08:15:41Z</time>
      </trkpt>
      <trkpt lat="49.55009" lon="3.45001">
        <ele>172.8</ele>
        <time>2023-08-18T08:15:52Z</time>
      </trkpt>
      <trkpt lat="49.55009" lon="3.45001">
        <ele>172.8</ele>
        <time>2023-08-18T08:16:02Z</time>
      </trkpt>
      <trkpt lat="49.55008" lon="3.45001">
        <ele>172.8</ele>
        <time>2023-08-18T08:16:10Z</time>
      </trkpt>
      <trkpt lat="49.55009" lon="3.45001">
        <ele>172.8</ele>
        <time>2023-08-18T08:16:19Z</time>
      </trkpt>
      <trkpt lat="49.55009" lon="3.45001">
        <ele>172.8</ele>
        <time>2023-08-18T08:16:26Z</time>
      </trkpt>
      <trkpt lat="49.55009" lon="3.45001">
        <ele>172.8</ele>
        <time>2023-08-18T08:16:43Z</time>
      </trkpt>
      <trkpt lat="49.55009" lon="3.45001">
        <ele>172.8</ele>
        <time>2023-08-18T08:16:51Z</time>
      </trkpt>
      <trkpt lat="49.55009" lon="3.45001">
        <ele>172.8</ele>
        <time>2023-08-18T08:16:59Z</time>
      </trkpt>
      <trkpt lat="49.55007" lon="3.44999">
        <ele>172.8</ele>
        <time>2023-08-18T08:17:05Z</time>
      </trkpt>
      <trkpt lat="49.55004" lon="3.44998">
        <ele>172.8</ele>
        <time>2023-08-18T08:17:09Z</time>
      </trkpt>
      <trkpt lat="49.55004" lon="3.44998">
        <ele>172.8</ele>
        <time>2023-08-18T08:17:15Z</time>
      </trkpt>
      <trkpt lat="49.55004" lon="3.44998">
        <ele>172.8</ele>
        <time>2023-08-18T08:17:22Z</time>
      </trkpt>
      <trkpt lat="49.55004" lon="3.44998">
        <ele>172.8</ele>
        <time>2023-08-18T08:17:31Z</time>
      </trkpt>
      <trkpt lat="49.55004" lon="3.44998">
        <ele>173.2</ele>
        <time>2023-08-18T08:17:36Z</time>
      </trkpt>
      <trkpt lat="49.55004" lon="3.44998">
        <ele>173.6</ele>
        <time>2023-08-18T08:17:37Z</time>
      </trkpt>
      <trkpt lat="49.55004" lon="3.44998">
        <ele>174</ele>
        <time>2023-08-18T08:17:38Z</time>
      </trkpt>
      <trkpt lat="49.55004" lon="3.44998">
        <ele>174.4</ele>
        <time>2023-08-18T08:17:39Z</time>
      </trkpt>
      <trkpt lat="49.55004" lon="3.44998">
        <ele>174.8</ele>
        <time>2023-08-18T08:17:40Z</time>
      </trkpt>
      <trkpt lat="49.55004" lon="3.44998">
        <ele>174.8</ele>
        <time>2023-08-18T08:17:56Z</time>
      </trkpt>
      <trkpt lat="49.55004" lon="3.44998">
        <ele>174.8</ele>
        <time>2023-08-18T08:18:08Z</time>
      </trkpt>
      <trkpt lat="49.55004" lon="3.44998">
        <ele>174.8</ele>
        <time>2023-08-18T08:18:23Z</time>
      </trkpt>
      <trkpt lat="49.55004" lon="3.44999">
        <ele>174.8</ele>
        <time>2023-08-18T08:18:37Z</time>
      </trkpt>
      <trkpt lat="49.55004" lon="3.44999">
        <ele>174.8</ele>
        <time>2023-08-18T08:18:55Z</time>
      </trkpt>
      <trkpt lat="49.55004" lon="3.44999">
        <ele>174.8</ele>
        <time>2023-08-18T08:19:01Z</time>
      </trkpt>
      <trkpt lat="49.55004" lon="3.44999">
        <ele>174.8</ele>
        <time>2023-08-18T08:19:08Z</time>
      </trkpt>
      <trkpt lat="49.55005" lon="3.44998">
        <ele>174.8</ele>
        <time>2023-08-18T08:19:16Z</time>
      </trkpt>
      <trkpt lat="49.55005" lon="3.44999">
        <ele>174.8</ele>
        <time>2023-08-18T08:19:23Z</time>
      </trkpt>
      <trkpt lat="49.55006" lon="3.44999">
        <ele>174.8</ele>
        <time>2023-08-18T08:19:31Z</time>
      </trkpt>
      <trkpt lat="49.55006" lon="3.44999">
        <ele>174.8</ele>
        <time>2023-08-18T08:19:39Z</time>
      </trkpt>
      <trkpt lat="49.55007" lon="3.45">
        <ele>174.8</ele>
        <time>2023-08-18T08:19:46Z</time>
      </trkpt>
      <trkpt lat="49.55009" lon="3.45001">
        <ele>174.8</ele>
        <time>2023-08-18T08:19:49Z</time>
      </trkpt>
      <trkpt lat="49.55012" lon="3.45002">
        <ele>174.8</ele>
        <time>2023-08-18T08:19:51Z</time>
      </trkpt>
      <trkpt lat="49.55016" lon="3.45005">
        <ele>174.8</ele>
        <time>2023-08-18T08:19:58Z</time>
      </trkpt>
      <trkpt lat="49.55016" lon="3.45007">
        <ele>174.8</ele>
        <time>2023-08-18T08:19:59Z</time>
      </trkpt>
      <trkpt lat="49.55016" lon="3.45016">
        <ele>174.8</ele>
        <time>2023-08-18T08:20:05Z</time>
      </trkpt>
      <trkpt lat="49.55014" lon="3.45023">
        <ele>174.4</ele>
        <time>2023-08-18T08:20:10Z</time>
      </trkpt>
      <trkpt lat="49.55014" lon="3.45024">
        <ele>173.6</ele>
        <time>2023-08-18T08:20:11Z</time>
      </trkpt>
      <trkpt lat="49.55014" lon="3.45026">
        <ele>173.2</ele>
        <time>2023-08-18T08:20:12Z</time>
      </trkpt>
      <trkpt lat="49.55014" lon="3.45027">
        <ele>172.8</ele>
        <time>2023-08-18T08:20:13Z</time>
      </trkpt>
      <trkpt lat="49.55013" lon="3.45035">
        <ele>172.8</ele>
        <time>2023-08-18T08:20:17Z</time>
      </trkpt>
      <trkpt lat="49.5501" lon="3.45043">
        <ele>172.8</ele>
        <time>2023-08-18T08:20:23Z</time>
      </trkpt>
      <trkpt lat="49.5501" lon="3.45043">
        <ele>172.4</ele>
        <time>2023-08-18T08:20:24Z</time>
      </trkpt>
      <trkpt lat="49.5501" lon="3.45043">
        <ele>172</ele>
        <time>2023-08-18T08:20:25Z</time>
      </trkpt>
      <trkpt lat="49.5501" lon="3.45042">
        <ele>171.6</ele>
        <time>2023-08-18T08:20:26Z</time>
      </trkpt>
      <trkpt lat="49.5501" lon="3.45041">
        <ele>171.2</ele>
        <time>2023-08-18T08:20:27Z</time>
      </trkpt>
      <trkpt lat="49.5501" lon="3.45041">
        <ele>170.8</ele>
        <time>2023-08-18T08:20:28Z</time>
      </trkpt>
      <trkpt lat="49.5501" lon="3.45041">
        <ele>170.8</ele>
        <time>2023-08-18T08:20:29Z</time>
      </trkpt>
      <trkpt lat="49.5501" lon="3.45041">
        <ele>170.8</ele>
        <time>2023-08-18T08:20:37Z</time>
      </trkpt>
      <trkpt lat="49.55008" lon="3.4504">
        <ele>170.8</ele>
        <time>2023-08-18T08:20:43Z</time>
      </trkpt>
      <trkpt lat="49.55008" lon="3.4504">
        <ele>170.8</ele>
        <time>2023-08-18T08:20:51Z</time>
      </trkpt>
      <trkpt lat="49.55008" lon="3.4504">
        <ele>170.8</ele>
        <time>2023-08-18T08:20:58Z</time>
      </trkpt>
      <trkpt lat="49.55008" lon="3.4504">
        <ele>170.8</ele>
        <time>2023-08-18T08:21:13Z</time>
      </trkpt>
      <trkpt lat="49.55006" lon="3.4504">
        <ele>170.8</ele>
        <time>2023-08-18T08:21:20Z</time>
      </trkpt>
      <trkpt lat="49.55006" lon="3.45041">
        <ele>170.8</ele>
        <time>2023-08-18T08:21:27Z</time>
      </trkpt>
      <trkpt lat="49.55004" lon="3.45044">
        <ele>170.8</ele>
        <time>2023-08-18T08:21:33Z</time>
      </trkpt>
      <trkpt lat="49.55004" lon="3.45045">
        <ele>170.8</ele>
        <time>2023-08-18T08:21:39Z</time>
      </trkpt>
      <trkpt lat="49.55004" lon="3.45045">
        <ele>170.8</ele>
        <time>2023-08-18T08:21:49Z</time>
      </trkpt>
      <trkpt lat="49.55004" lon="3.45045">
        <ele>170.8</ele>
        <time>2023-08-18T08:22:01Z</time>
      </trkpt>
      <trkpt lat="49.55003" lon="3.45045">
        <ele>170.8</ele>
        <time>2023-08-18T08:22:08Z</time>
      </trkpt>
      <trkpt lat="49.55002" lon="3.45048">
        <ele>170.8</ele>
        <time>2023-08-18T08:22:14Z</time>
      </trkpt>
      <trkpt lat="49.55002" lon="3.45051">
        <ele>170.8</ele>
        <time>2023-08-18T08:22:17Z</time>
      </trkpt>
      <trkpt lat="49.55001" lon="3.45055">
        <ele>170.8</ele>
        <time>2023-08-18T08:22:19Z</time>
      </trkpt>
      <trkpt lat="49.54999" lon="3.45063">
        <ele>170.8</ele>
        <time>2023-08-18T08:22:24Z</time>
      </trkpt>
      <trkpt lat="49.54996" lon="3.45068">
        <ele>170.8</ele>
        <time>2023-08-18T08:22:29Z</time>
      </trkpt>
      <trkpt lat="49.54996" lon="3.4507">
        <ele>170.4</ele>
        <time>2023-08-18T08:22:31Z</time>
      </trkpt>
      <trkpt lat="49.54996" lon="3.4507">
        <ele>170</ele>
        <time>2023-08-18T08:22:32Z</time>
      </trkpt>
      <trkpt lat="49.54996" lon="3.4507">
        <ele>169.6</ele>
        <time>2023-08-18T08:22:33Z</time>
      </trkpt>
      <trkpt lat="49.54996" lon="3.4507">
        <ele>169</ele>
        <time>2023-08-18T08:22:34Z</time>
      </trkpt>
      <trkpt lat="49.54996" lon="3.4507">
        <ele>168.6</ele>
        <time>2023-08-18T08:22:35Z</time>
      </trkpt>
      <trkpt lat="49.54996" lon="3.45071">
        <ele>168.6</ele>
        <time>2023-08-18T08:22:36Z</time>
      </trkpt>
      <trkpt lat="49.54993" lon="3.45073">
        <ele>168.6</ele>
        <time>2023-08-18T08:22:41Z</time>
      </trkpt>
      <trkpt lat="49.54989" lon="3.45076">
        <ele>168.6</ele>
        <time>2023-08-18T08:22:46Z</time>
      </trkpt>
      <trkpt lat="49.5499" lon="3.4507">
        <ele>168.6</ele>
        <time>2023-08-18T08:22:53Z</time>
      </trkpt>
      <trkpt lat="49.54992" lon="3.45067">
        <ele>168.6</ele>
        <time>2023-08-18T08:22:59Z</time>
      </trkpt>
      <trkpt lat="49.54992" lon="3.45067">
        <ele>168.6</ele>
        <time>2023-08-18T08:23:07Z</time>
      </trkpt>
      <trkpt lat="49.54996" lon="3.45069">
        <ele>168.6</ele>
        <time>2023-08-18T08:23:13Z</time>
      </trkpt>
      <trkpt lat="49.55004" lon="3.45075">
        <ele>168.6</ele>
        <time>2023-08-18T08:23:21Z</time>
      </trkpt>
      <trkpt lat="49.55002" lon="3.45074">
        <ele>168.6</ele>
        <time>2023-08-18T08:23:28Z</time>
      </trkpt>
      <trkpt lat="49.55001" lon="3.45072">
        <ele>168.6</ele>
        <time>2023-08-18T08:23:36Z</time>
      </trkpt>
      <trkpt lat="49.55002" lon="3.45075">
        <ele>168.6</ele>
        <time>2023-08-18T08:23:45Z</time>
      </trkpt>
      <trkpt lat="49.55004" lon="3.45082">
        <ele>168.6</ele>
        <time>2023-08-18T08:23:52Z</time>
      </trkpt>
      <trkpt lat="49.55007" lon="3.45089">
        <ele>168.6</ele>
        <time>2023-08-18T08:23:57Z</time>
      </trkpt>
      <trkpt lat="49.55008" lon="3.45089">
        <ele>168.6</ele>
        <time>2023-08-18T08:24:04Z</time>
      </trkpt>
      <trkpt lat="49.55006" lon="3.45089">
        <ele>168.6</ele>
        <time>2023-08-18T08:24:10Z</time>
      </trkpt>
      <trkpt lat="49.55005" lon="3.45088">
        <ele>168.6</ele>
        <time>2023-08-18T08:24:11Z</time>
      </trkpt>
      <trkpt lat="49.55001" lon="3.4508">
        <ele>168.6</ele>
        <time>2023-08-18T08:24:19Z</time>
      </trkpt>
      <trkpt lat="49.55" lon="3.45077">
        <ele>168.6</ele>
        <time>2023-08-18T08:24:25Z</time>
      </trkpt>
      <trkpt lat="49.55" lon="3.45077">
        <ele>168.6</ele>
        <time>2023-08-18T08:24:35Z</time>
      </trkpt>
      <trkpt lat="49.55" lon="3.45077">
        <ele>168.6</ele>
        <time>2023-08-18T08:24:47Z</time>
      </trkpt>
      <trkpt lat="49.55" lon="3.45076">
        <ele>168.6</ele>
        <time>2023-08-18T08:24:55Z</time>
      </trkpt>
      <trkpt lat="49.55" lon="3.45076">
        <ele>168.6</ele>
        <time>2023-08-18T08:25:05Z</time>
      </trkpt>
      <trkpt lat="49.55" lon="3.45076">
        <ele>168.6</ele>
        <time>2023-08-18T08:25:22Z</time>
      </trkpt>
      <trkpt lat="49.55" lon="3.45076">
        <ele>168.6</ele>
        <time>2023-08-18T08:25:40Z</time>
      </trkpt>
      <trkpt lat="49.55" lon="3.45076">
        <ele>168.6</ele>
        <time>2023-08-18T08:25:51Z</time>
      </trkpt>
      <trkpt lat="49.54997" lon="3.45075">
        <ele>168.6</ele>
        <time>2023-08-18T08:25:55Z</time>
      </trkpt>
      <trkpt lat="49.54993" lon="3.45072">
        <ele>168.6</ele>
        <time>2023-08-18T08:26:00Z</time>
      </trkpt>
      <trkpt lat="49.54992" lon="3.45072">
        <ele>168.6</ele>
        <time>2023-08-18T08:26:04Z</time>
      </trkpt>
      <trkpt lat="49.54992" lon="3.45071">
        <ele>168.6</ele>
        <time>2023-08-18T08:26:11Z</time>
      </trkpt>
      <trkpt lat="49.54991" lon="3.45073">
        <ele>168.6</ele>
        <time>2023-08-18T08:26:19Z</time>
      </trkpt>
      <trkpt lat="49.5499" lon="3.45075">
        <ele>168.6</ele>
        <time>2023-08-18T08:26:25Z</time>
      </trkpt>
      <trkpt lat="49.54989" lon="3.45077">
        <ele>168.6</ele>
        <time>2023-08-18T08:26:32Z</time>
      </trkpt>
      <trkpt lat="49.54985" lon="3.45081">
        <ele>168.2</ele>
        <time>2023-08-18T08:26:37Z</time>
      </trkpt>
      <trkpt lat="49.54984" lon="3.45082">
        <ele>167.8</ele>
        <time>2023-08-18T08:26:38Z</time>
      </trkpt>
      <trkpt lat="49.54983" lon="3.45083">
        <ele>167.4</ele>
        <time>2023-08-18T08:26:39Z</time>
      </trkpt>
      <trkpt lat="49.54982" lon="3.45083">
        <ele>167</ele>
        <time>2023-08-18T08:26:40Z</time>
      </trkpt>
      <trkpt lat="49.5498" lon="3.45083">
        <ele>166.6</ele>
        <time>2023-08-18T08:26:41Z</time>
      </trkpt>
      <trkpt lat="49.54976" lon="3.45085">
        <ele>166.6</ele>
        <time>2023-08-18T08:26:45Z</time>
      </trkpt>
      <trkpt lat="49.54974" lon="3.45086">
        <ele>166.2</ele>
        <time>2023-08-18T08:26:47Z</time>
      </trkpt>
      <trkpt lat="49.54973" lon="3.45087">
        <ele>165.8</ele>
        <time>2023-08-18T08:26:48Z</time>
      </trkpt>
      <trkpt lat="49.54972" lon="3.45087">
        <ele>165.4</ele>
        <time>2023-08-18T08:26:49Z</time>
      </trkpt>
      <trkpt lat="49.54972" lon="3.45088">
        <ele>165</ele>
        <time>2023-08-18T08:26:50Z</time>
      </trkpt>
      <trkpt lat="49.54971" lon="3.45088">
        <ele>164.6</ele>
        <time>2023-08-18T08:26:51Z</time>
      </trkpt>
      <trkpt lat="49.5497" lon="3.45089">
        <ele>164.6</ele>
        <time>2023-08-18T08:26:57Z</time>
      </trkpt>
      <trkpt lat="49.54964" lon="3.45091">
        <ele>164.6</ele>
        <time>2023-08-18T08:27:02Z</time>
      </trkpt>
      <trkpt lat="49.54962" lon="3.45094">
        <ele>164</ele>
        <time>2023-08-18T08:27:05Z</time>
      </trkpt>
      <trkpt lat="49.5496" lon="3.45095">
        <ele>163.6</ele>
        <time>2023-08-18T08:27:06Z</time>
      </trkpt>
      <trkpt lat="49.54959" lon="3.45096">
        <ele>163.2</ele>
        <time>2023-08-18T08:27:07Z</time>
      </trkpt>
      <trkpt lat="49.54958" lon="3.45097">
        <ele>162.8</ele>
        <time>2023-08-18T08:27:08Z</time>
      </trkpt>
      <trkpt lat="49.54957" lon="3.45097">
        <ele>162.4</ele>
        <time>2023-08-18T08:27:09Z</time>
      </trkpt>
      <trkpt lat="49.54956" lon="3.45099">
        <ele>162.4</ele>
        <time>2023-08-18T08:27:12Z</time>
      </trkpt>
      <trkpt lat="49.54955" lon="3.451">
        <ele>162</ele>
        <time>2023-08-18T08:27:14Z</time>
      </trkpt>
      <trkpt lat="49.54953" lon="3.45101">
        <ele>161.6</ele>
        <time>2023-08-18T08:27:15Z</time>
      </trkpt>
      <trkpt lat="49.54951" lon="3.45102">
        <ele>161.2</ele>
        <time>2023-08-18T08:27:16Z</time>
      </trkpt>
      <trkpt lat="49.5495" lon="3.45104">
        <ele>160.8</ele>
        <time>2023-08-18T08:27:17Z</time>
      </trkpt>
      <trkpt lat="49.54948" lon="3.45104">
        <ele>160.4</ele>
        <time>2023-08-18T08:27:18Z</time>
      </trkpt>
      <trkpt lat="49.54944" lon="3.45103">
        <ele>160.4</ele>
        <time>2023-08-18T08:27:22Z</time>
      </trkpt>
      <trkpt lat="49.5494" lon="3.45104">
        <ele>160</ele>
        <time>2023-08-18T08:27:25Z</time>
      </trkpt>
      <trkpt lat="49.54939" lon="3.45104">
        <ele>159.6</ele>
        <time>2023-08-18T08:27:26Z</time>
      </trkpt>
      <trkpt lat="49.54938" lon="3.45104">
        <ele>159.2</ele>
        <time>2023-08-18T08:27:27Z</time>
      </trkpt>
      <trkpt lat="49.54938" lon="3.45104">
        <ele>158.6</ele>
        <time>2023-08-18T08:27:28Z</time>
      </trkpt>
      <trkpt lat="49.54937" lon="3.45104">
        <ele>158.2</ele>
        <time>2023-08-18T08:27:29Z</time>
      </trkpt>
      <trkpt lat="49.54935" lon="3.45104">
        <ele>158.2</ele>
        <time>2023-08-18T08:27:31Z</time>
      </trkpt>
      <trkpt lat="49.54931" lon="3.45102">
        <ele>158.2</ele>
        <time>2023-08-18T08:27:34Z</time>
      </trkpt>
      <trkpt lat="49.54927" lon="3.45099">
        <ele>157.8</ele>
        <time>2023-08-18T08:27:39Z</time>
      </trkpt>
      <trkpt lat="49.54927" lon="3.45099">
        <ele>157.4</ele>
        <time>2023-08-18T08:27:40Z</time>
      </trkpt>
      <trkpt lat="49.54927" lon="3.45099">
        <ele>157</ele>
        <time>2023-08-18T08:27:41Z</time>
      </trkpt>
      <trkpt lat="49.54927" lon="3.45099">
        <ele>156.6</ele>
        <time>2023-08-18T08:27:42Z</time>
      </trkpt>
      <trkpt lat="49.54926" lon="3.45098">
        <ele>156.2</ele>
        <time>2023-08-18T08:27:43Z</time>
      </trkpt>
      <trkpt lat="49.54924" lon="3.45096">
        <ele>156.2</ele>
        <time>2023-08-18T08:27:45Z</time>
      </trkpt>
      <trkpt lat="49.54923" lon="3.45095">
        <ele>156.2</ele>
        <time>2023-08-18T08:27:52Z</time>
      </trkpt>
      <trkpt lat="49.54918" lon="3.45092">
        <ele>156.2</ele>
        <time>2023-08-18T08:27:59Z</time>
      </trkpt>
      <trkpt lat="49.54917" lon="3.45091">
        <ele>155.8</ele>
        <time>2023-08-18T08:28:00Z</time>
      </trkpt>
      <trkpt lat="49.54915" lon="3.45091">
        <ele>155</ele>
        <time>2023-08-18T08:28:01Z</time>
      </trkpt>
      <trkpt lat="49.54913" lon="3.45089">
        <ele>154.6</ele>
        <time>2023-08-18T08:28:02Z</time>
      </trkpt>
      <trkpt lat="49.54912" lon="3.45089">
        <ele>154.2</ele>
        <time>2023-08-18T08:28:03Z</time>
      </trkpt>
      <trkpt lat="49.5491" lon="3.45088">
        <ele>154.2</ele>
        <time>2023-08-18T08:28:04Z</time>
      </trkpt>
      <trkpt lat="49.54908" lon="3.45086">
        <ele>154.2</ele>
        <time>2023-08-18T08:28:09Z</time>
      </trkpt>
      <trkpt lat="49.54903" lon="3.45084">
        <ele>154.2</ele>
        <time>2023-08-18T08:28:14Z</time>
      </trkpt>
      <trkpt lat="49.54897" lon="3.45082">
        <ele>153.8</ele>
        <time>2023-08-18T08:28:19Z</time>
      </trkpt>
      <trkpt lat="49.54895" lon="3.45082">
        <ele>153.4</ele>
        <time>2023-08-18T08:28:20Z</time>
      </trkpt>
      <trkpt lat="49.54893" lon="3.45081">
        <ele>153</ele>
        <time>2023-08-18T08:28:21Z</time>
      </trkpt>
      <trkpt lat="49.54891" lon="3.45081">
        <ele>152.6</ele>
        <time>2023-08-18T08:28:22Z</time>
      </trkpt>
      <trkpt lat="49.5489" lon="3.45082">
        <ele>152.2</ele>
        <time>2023-08-18T08:28:23Z</time>
      </trkpt>
      <trkpt lat="49.54889" lon="3.45083">
        <ele>152.2</ele>
        <time>2023-08-18T08:28:25Z</time>
      </trkpt>
      <trkpt lat="49.54886" lon="3.45086">
        <ele>152.2</ele>
        <time>2023-08-18T08:28:31Z</time>
      </trkpt>
      <trkpt lat="49.54883" lon="3.45087">
        <ele>151.8</ele>
        <time>2023-08-18T08:28:36Z</time>
      </trkpt>
      <trkpt lat="49.54882" lon="3.45087">
        <ele>151.4</ele>
        <time>2023-08-18T08:28:37Z</time>
      </trkpt>
      <trkpt lat="49.54882" lon="3.45087">
        <ele>151</ele>
        <time>2023-08-18T08:28:38Z</time>
      </trkpt>
      <trkpt lat="49.54882" lon="3.45087">
        <ele>150.6</ele>
        <time>2023-08-18T08:28:39Z</time>
      </trkpt>
      <trkpt lat="49.54882" lon="3.45087">
        <ele>150.2</ele>
        <time>2023-08-18T08:28:40Z</time>
      </trkpt>
      <trkpt lat="49.54881" lon="3.45089">
        <ele>150.2</ele>
        <time>2023-08-18T08:28:42Z</time>
      </trkpt>
      <trkpt lat="49.54879" lon="3.45092">
        <ele>150.2</ele>
        <time>2023-08-18T08:28:46Z</time>
      </trkpt>
      <trkpt lat="49.54873" lon="3.45098">
        <ele>149.8</ele>
        <time>2023-08-18T08:28:53Z</time>
      </trkpt>
      <trkpt lat="49.54872" lon="3.451">
        <ele>149.4</ele>
        <time>2023-08-18T08:28:54Z</time>
      </trkpt>
      <trkpt lat="49.54872" lon="3.45102">
        <ele>149</ele>
        <time>2023-08-18T08:28:55Z</time>
      </trkpt>
      <trkpt lat="49.54872" lon="3.45104">
        <ele>148.6</ele>
        <time>2023-08-18T08:28:56Z</time>
      </trkpt>
      <trkpt lat="49.54872" lon="3.45105">
        <ele>148.2</ele>
        <time>2023-08-18T08:28:57Z</time>
      </trkpt>
      <trkpt lat="49.5487" lon="3.45107">
        <ele>148.2</ele>
        <time>2023-08-18T08:28:59Z</time>
      </trkpt>
      <trkpt lat="49.54869" lon="3.45111">
        <ele>148.2</ele>
        <time>2023-08-18T08:29:03Z</time>
      </trkpt>
      <trkpt lat="49.54868" lon="3.45114">
        <ele>148.2</ele>
        <time>2023-08-18T08:29:04Z</time>
      </trkpt>
      <trkpt lat="49.54867" lon="3.4512">
        <ele>147.8</ele>
        <time>2023-08-18T08:29:07Z</time>
      </trkpt>
      <trkpt lat="49.54867" lon="3.45121">
        <ele>147.4</ele>
        <time>2023-08-18T08:29:08Z</time>
      </trkpt>
      <trkpt lat="49.54866" lon="3.45122">
        <ele>147</ele>
        <time>2023-08-18T08:29:09Z</time>
      </trkpt>
      <trkpt lat="49.54866" lon="3.45122">
        <ele>146.6</ele>
        <time>2023-08-18T08:29:10Z</time>
      </trkpt>
      <trkpt lat="49.54865" lon="3.45123">
        <ele>146.2</ele>
        <time>2023-08-18T08:29:11Z</time>
      </trkpt>
      <trkpt lat="49.54865" lon="3.45124">
        <ele>146.2</ele>
        <time>2023-08-18T08:29:12Z</time>
      </trkpt>
      <trkpt lat="49.54863" lon="3.4513">
        <ele>146.2</ele>
        <time>2023-08-18T08:29:17Z</time>
      </trkpt>
      <trkpt lat="49.5486" lon="3.45136">
        <ele>146.2</ele>
        <time>2023-08-18T08:29:23Z</time>
      </trkpt>
      <trkpt lat="49.54858" lon="3.45144">
        <ele>146.2</ele>
        <time>2023-08-18T08:29:30Z</time>
      </trkpt>
      <trkpt lat="49.54855" lon="3.45147">
        <ele>146.2</ele>
        <time>2023-08-18T08:29:36Z</time>
      </trkpt>
      <trkpt lat="49.54856" lon="3.45148">
        <ele>146.2</ele>
        <time>2023-08-18T08:29:43Z</time>
      </trkpt>
      <trkpt lat="49.54856" lon="3.45144">
        <ele>146.2</ele>
        <time>2023-08-18T08:29:50Z</time>
      </trkpt>
      <trkpt lat="49.54856" lon="3.45144">
        <ele>146.2</ele>
        <time>2023-08-18T08:30:00Z</time>
      </trkpt>
      <trkpt lat="49.54856" lon="3.45144">
        <ele>146.2</ele>
        <time>2023-08-18T08:30:06Z</time>
      </trkpt>
      <trkpt lat="49.54855" lon="3.45142">
        <ele>146.2</ele>
        <time>2023-08-18T08:30:15Z</time>
      </trkpt>
      <trkpt lat="49.54854" lon="3.45142">
        <ele>146.2</ele>
        <time>2023-08-18T08:30:23Z</time>
      </trkpt>
      <trkpt lat="49.54854" lon="3.45142">
        <ele>146.2</ele>
        <time>2023-08-18T08:30:34Z</time>
      </trkpt>
      <trkpt lat="49.54855" lon="3.4514">
        <ele>146.2</ele>
        <time>2023-08-18T08:30:41Z</time>
      </trkpt>
      <trkpt lat="49.54855" lon="3.4514">
        <ele>146.2</ele>
        <time>2023-08-18T08:30:48Z</time>
      </trkpt>
      <trkpt lat="49.54855" lon="3.4514">
        <ele>146.2</ele>
        <time>2023-08-18T08:30:57Z</time>
      </trkpt>
      <trkpt lat="49.54855" lon="3.4514">
        <ele>146.2</ele>
        <time>2023-08-18T08:31:06Z</time>
      </trkpt>
      <trkpt lat="49.54855" lon="3.4514">
        <ele>146.2</ele>
        <time>2023-08-18T08:31:18Z</time>
      </trkpt>
      <trkpt lat="49.54854" lon="3.4514">
        <ele>146.2</ele>
        <time>2023-08-18T08:31:34Z</time>
      </trkpt>
      <trkpt lat="49.54854" lon="3.4514">
        <ele>146.2</ele>
        <time>2023-08-18T08:31:53Z</time>
      </trkpt>
      <trkpt lat="49.54854" lon="3.4514">
        <ele>146.2</ele>
        <time>2023-08-18T08:32:04Z</time>
      </trkpt>
      <trkpt lat="49.54854" lon="3.4514">
        <ele>145.8</ele>
        <time>2023-08-18T08:32:05Z</time>
      </trkpt>
      <trkpt lat="49.54854" lon="3.4514">
        <ele>145.4</ele>
        <time>2023-08-18T08:32:06Z</time>
      </trkpt>
      <trkpt lat="49.54854" lon="3.4514">
        <ele>144.6</ele>
        <time>2023-08-18T08:32:07Z</time>
      </trkpt>
      <trkpt lat="49.54854" lon="3.4514">
        <ele>144</ele>
        <time>2023-08-18T08:32:08Z</time>
      </trkpt>
      <trkpt lat="49.54854" lon="3.4514">
        <ele>144</ele>
        <time>2023-08-18T08:32:10Z</time>
      </trkpt>
      <trkpt lat="49.54854" lon="3.4514">
        <ele>144</ele>
        <time>2023-08-18T08:32:18Z</time>
      </trkpt>
      <trkpt lat="49.54854" lon="3.4514">
        <ele>144</ele>
        <time>2023-08-18T08:32:28Z</time>
      </trkpt>
      <trkpt lat="49.54854" lon="3.4514">
        <ele>144</ele>
        <time>2023-08-18T08:32:39Z</time>
      </trkpt>
      <trkpt lat="49.54854" lon="3.4514">
        <ele>144</ele>
        <time>2023-08-18T08:32:48Z</time>
      </trkpt>
      <trkpt lat="49.54854" lon="3.4514">
        <ele>144</ele>
        <time>2023-08-18T08:32:58Z</time>
      </trkpt>
      <trkpt lat="49.54856" lon="3.45142">
        <ele>144</ele>
        <time>2023-08-18T08:33:10Z</time>
      </trkpt>
      <trkpt lat="49.54857" lon="3.45142">
        <ele>144</ele>
        <time>2023-08-18T08:33:21Z</time>
      </trkpt>
      <trkpt lat="49.54857" lon="3.45142">
        <ele>144</ele>
        <time>2023-08-18T08:33:33Z</time>
      </trkpt>
      <trkpt lat="49.54857" lon="3.45142">
        <ele>144</ele>
        <time>2023-08-18T08:33:46Z</time>
      </trkpt>
      <trkpt lat="49.54856" lon="3.4514">
        <ele>144</ele>
        <time>2023-08-18T08:34:01Z</time>
      </trkpt>
      <trkpt lat="49.54856" lon="3.4514">
        <ele>144</ele>
        <time>2023-08-18T08:34:18Z</time>
      </trkpt>
      <trkpt lat="49.54856" lon="3.4514">
        <ele>144</ele>
        <time>2023-08-18T08:34:32Z</time>
      </trkpt>
      <trkpt lat="49.54856" lon="3.4514">
        <ele>144</ele>
        <time>2023-08-18T08:34:44Z</time>
      </trkpt>
      <trkpt lat="49.54855" lon="3.45142">
        <ele>144</ele>
        <time>2023-08-18T08:34:52Z</time>
      </trkpt>
      <trkpt lat="49.54855" lon="3.45149">
        <ele>144</ele>
        <time>2023-08-18T08:34:58Z</time>
      </trkpt>
      <trkpt lat="49.54853" lon="3.45151">
        <ele>144</ele>
        <time>2023-08-18T08:35:05Z</time>
      </trkpt>
      <trkpt lat="49.54852" lon="3.45151">
        <ele>144</ele>
        <time>2023-08-18T08:35:11Z</time>
      </trkpt>
      <trkpt lat="49.54852" lon="3.4515">
        <ele>144</ele>
        <time>2023-08-18T08:35:19Z</time>
      </trkpt>
      <trkpt lat="49.54852" lon="3.4515">
        <ele>144</ele>
        <time>2023-08-18T08:35:32Z</time>
      </trkpt>
      <trkpt lat="49.54853" lon="3.45152">
        <ele>144</ele>
        <time>2023-08-18T08:35:38Z</time>
      </trkpt>
      <trkpt lat="49.54854" lon="3.45158">
        <ele>143.6</ele>
        <time>2023-08-18T08:35:43Z</time>
      </trkpt>
      <trkpt lat="49.54855" lon="3.45161">
        <ele>143.2</ele>
        <time>2023-08-18T08:35:44Z</time>
      </trkpt>
      <trkpt lat="49.54855" lon="3.45163">
        <ele>142.8</ele>
        <time>2023-08-18T08:35:45Z</time>
      </trkpt>
      <trkpt lat="49.54855" lon="3.45165">
        <ele>142.4</ele>
        <time>2023-08-18T08:35:46Z</time>
      </trkpt>
      <trkpt lat="49.54854" lon="3.45166">
        <ele>142</ele>
        <time>2023-08-18T08:35:47Z</time>
      </trkpt>
      <trkpt lat="49.54854" lon="3.45167">
        <ele>142</ele>
        <time>2023-08-18T08:35:51Z</time>
      </trkpt>
      <trkpt lat="49.54854" lon="3.45169">
        <ele>142</ele>
        <time>2023-08-18T08:35:56Z</time>
      </trkpt>
      <trkpt lat="49.54854" lon="3.45179">
        <ele>142</ele>
        <time>2023-08-18T08:36:03Z</time>
      </trkpt>
      <trkpt lat="49.54852" lon="3.45188">
        <ele>142</ele>
        <time>2023-08-18T08:36:09Z</time>
      </trkpt>
      <trkpt lat="49.54851" lon="3.45194">
        <ele>141.6</ele>
        <time>2023-08-18T08:36:13Z</time>
      </trkpt>
      <trkpt lat="49.5485" lon="3.45194">
        <ele>140.8</ele>
        <time>2023-08-18T08:36:14Z</time>
      </trkpt>
      <trkpt lat="49.5485" lon="3.45195">
        <ele>140.4</ele>
        <time>2023-08-18T08:36:15Z</time>
      </trkpt>
      <trkpt lat="49.54849" lon="3.45196">
        <ele>140</ele>
        <time>2023-08-18T08:36:16Z</time>
      </trkpt>
      <trkpt lat="49.54847" lon="3.45209">
        <ele>140</ele>
        <time>2023-08-18T08:36:22Z</time>
      </trkpt>
      <trkpt lat="49.54845" lon="3.45219">
        <ele>140</ele>
        <time>2023-08-18T08:36:28Z</time>
      </trkpt>
      <trkpt lat="49.54845" lon="3.45224">
        <ele>139.6</ele>
        <time>2023-08-18T08:36:31Z</time>
      </trkpt>
      <trkpt lat="49.54846" lon="3.45225">
        <ele>139.2</ele>
        <time>2023-08-18T08:36:32Z</time>
      </trkpt>
      <trkpt lat="49.54845" lon="3.45227">
        <ele>138.8</ele>
        <time>2023-08-18T08:36:33Z</time>
      </trkpt>
      <trkpt lat="49.54846" lon="3.45228">
        <ele>138.4</ele>
        <time>2023-08-18T08:36:34Z</time>
      </trkpt>
      <trkpt lat="49.54846" lon="3.4523">
        <ele>138</ele>
        <time>2023-08-18T08:36:35Z</time>
      </trkpt>
      <trkpt lat="49.54848" lon="3.4524">
        <ele>138</ele>
        <time>2023-08-18T08:36:40Z</time>
      </trkpt>
      <trkpt lat="49.5485" lon="3.45254">
        <ele>138</ele>
        <time>2023-08-18T08:36:46Z</time>
      </trkpt>
      <trkpt lat="49.54852" lon="3.45264">
        <ele>138</ele>
        <time>2023-08-18T08:36:52Z</time>
      </trkpt>
      <trkpt lat="49.54852" lon="3.45268">
        <ele>138</ele>
        <time>2023-08-18T08:36:57Z</time>
      </trkpt>
      <trkpt lat="49.54852" lon="3.45269">
        <ele>137.6</ele>
        <time>2023-08-18T08:36:58Z</time>
      </trkpt>
      <trkpt lat="49.54852" lon="3.4527">
        <ele>137.2</ele>
        <time>2023-08-18T08:36:59Z</time>
      </trkpt>
      <trkpt lat="49.54852" lon="3.4527">
        <ele>136.6</ele>
        <time>2023-08-18T08:37:00Z</time>
      </trkpt>
      <trkpt lat="49.54853" lon="3.45272">
        <ele>136.2</ele>
        <time>2023-08-18T08:37:01Z</time>
      </trkpt>
      <trkpt lat="49.54852" lon="3.45273">
        <ele>135.8</ele>
        <time>2023-08-18T08:37:02Z</time>
      </trkpt>
      <trkpt lat="49.54851" lon="3.4527">
        <ele>135.8</ele>
        <time>2023-08-18T08:37:06Z</time>
      </trkpt>
      <trkpt lat="49.5485" lon="3.45269">
        <ele>135.8</ele>
        <time>2023-08-18T08:37:12Z</time>
      </trkpt>
      <trkpt lat="49.54849" lon="3.4527">
        <ele>135.8</ele>
        <time>2023-08-18T08:37:18Z</time>
      </trkpt>
      <trkpt lat="49.54849" lon="3.4527">
        <ele>135.8</ele>
        <time>2023-08-18T08:37:28Z</time>
      </trkpt>
      <trkpt lat="49.54849" lon="3.4527">
        <ele>135.8</ele>
        <time>2023-08-18T08:37:34Z</time>
      </trkpt>
      <trkpt lat="49.54849" lon="3.45271">
        <ele>135.8</ele>
        <time>2023-08-18T08:37:40Z</time>
      </trkpt>
      <trkpt lat="49.54848" lon="3.45271">
        <ele>135.8</ele>
        <time>2023-08-18T08:37:49Z</time>
      </trkpt>
      <trkpt lat="49.54848" lon="3.45271">
        <ele>135.8</ele>
        <time>2023-08-18T08:38:00Z</time>
      </trkpt>
      <trkpt lat="49.54849" lon="3.45272">
        <ele>135.8</ele>
        <time>2023-08-18T08:38:07Z</time>
      </trkpt>
      <trkpt lat="49.54852" lon="3.45276">
        <ele>135.8</ele>
        <time>2023-08-18T08:38:12Z</time>
      </trkpt>
      <trkpt lat="49.5485" lon="3.45273">
        <ele>135.8</ele>
        <time>2023-08-18T08:38:21Z</time>
      </trkpt>
      <trkpt lat="49.54849" lon="3.45274">
        <ele>135.8</ele>
        <time>2023-08-18T08:38:28Z</time>
      </trkpt>
      <trkpt lat="49.5485" lon="3.45275">
        <ele>135.8</ele>
        <time>2023-08-18T08:38:36Z</time>
      </trkpt>
      <trkpt lat="49.5485" lon="3.45275">
        <ele>135.8</ele>
        <time>2023-08-18T08:38:49Z</time>
      </trkpt>
      <trkpt lat="49.5485" lon="3.45276">
        <ele>135.8</ele>
        <time>2023-08-18T08:38:59Z</time>
      </trkpt>
      <trkpt lat="49.54851" lon="3.45278">
        <ele>135.8</ele>
        <time>2023-08-18T08:39:08Z</time>
      </trkpt>
      <trkpt lat="49.54852" lon="3.45284">
        <ele>135.8</ele>
        <time>2023-08-18T08:39:12Z</time>
      </trkpt>
      <trkpt lat="49.54851" lon="3.45285">
        <ele>135.8</ele>
        <time>2023-08-18T08:39:17Z</time>
      </trkpt>
      <trkpt lat="49.54852" lon="3.45288">
        <ele>135.8</ele>
        <time>2023-08-18T08:39:24Z</time>
      </trkpt>
      <trkpt lat="49.54854" lon="3.45293">
        <ele>135.8</ele>
        <time>2023-08-18T08:39:29Z</time>
      </trkpt>
      <trkpt lat="49.54855" lon="3.45301">
        <ele>135.4</ele>
        <time>2023-08-18T08:39:35Z</time>
      </trkpt>
      <trkpt lat="49.54855" lon="3.45302">
        <ele>135</ele>
        <time>2023-08-18T08:39:36Z</time>
      </trkpt>
      <trkpt lat="49.54855" lon="3.45302">
        <ele>134.6</ele>
        <time>2023-08-18T08:39:37Z</time>
      </trkpt>
      <trkpt lat="49.54855" lon="3.45302">
        <ele>134.2</ele>
        <time>2023-08-18T08:39:38Z</time>
      </trkpt>
      <trkpt lat="49.54855" lon="3.45305">
        <ele>133.8</ele>
        <time>2023-08-18T08:39:39Z</time>
      </trkpt>
      <trkpt lat="49.54855" lon="3.45309">
        <ele>133.8</ele>
        <time>2023-08-18T08:39:41Z</time>
      </trkpt>
      <trkpt lat="49.54858" lon="3.45317">
        <ele>133.8</ele>
        <time>2023-08-18T08:39:46Z</time>
      </trkpt>
      <trkpt lat="49.5486" lon="3.45329">
        <ele>133.8</ele>
        <time>2023-08-18T08:39:52Z</time>
      </trkpt>
      <trkpt lat="49.5486" lon="3.45333">
        <ele>133.4</ele>
        <time>2023-08-18T08:39:54Z</time>
      </trkpt>
      <trkpt lat="49.5486" lon="3.45335">
        <ele>133</ele>
        <time>2023-08-18T08:39:55Z</time>
      </trkpt>
      <trkpt lat="49.5486" lon="3.45337">
        <ele>132.6</ele>
        <time>2023-08-18T08:39:56Z</time>
      </trkpt>
      <trkpt lat="49.5486" lon="3.45339">
        <ele>131.8</ele>
        <time>2023-08-18T08:39:57Z</time>
      </trkpt>
      <trkpt lat="49.54861" lon="3.45341">
        <ele>131.8</ele>
        <time>2023-08-18T08:39:58Z</time>
      </trkpt>
      <trkpt lat="49.54862" lon="3.45351">
        <ele>131.8</ele>
        <time>2023-08-18T08:40:05Z</time>
      </trkpt>
      <trkpt lat="49.54863" lon="3.45352">
        <ele>131.4</ele>
        <time>2023-08-18T08:40:06Z</time>
      </trkpt>
      <trkpt lat="49.54863" lon="3.45352">
        <ele>131</ele>
        <time>2023-08-18T08:40:07Z</time>
      </trkpt>
      <trkpt lat="49.54864" lon="3.45353">
        <ele>130.6</ele>
        <time>2023-08-18T08:40:08Z</time>
      </trkpt>
      <trkpt lat="49.54864" lon="3.45354">
        <ele>130.2</ele>
        <time>2023-08-18T08:40:09Z</time>
      </trkpt>
      <trkpt lat="49.54864" lon="3.45355">
        <ele>129.8</ele>
        <time>2023-08-18T08:40:10Z</time>
      </trkpt>
      <trkpt lat="49.54863" lon="3.45359">
        <ele>129.8</ele>
        <time>2023-08-18T08:40:13Z</time>
      </trkpt>
      <trkpt lat="49.54865" lon="3.45366">
        <ele>129.2</ele>
        <time>2023-08-18T08:40:17Z</time>
      </trkpt>
      <trkpt lat="49.54866" lon="3.45367">
        <ele>128.8</ele>
        <time>2023-08-18T08:40:18Z</time>
      </trkpt>
      <trkpt lat="49.54866" lon="3.45367">
        <ele>128.4</ele>
        <time>2023-08-18T08:40:19Z</time>
      </trkpt>
      <trkpt lat="49.54867" lon="3.45369">
        <ele>128</ele>
        <time>2023-08-18T08:40:20Z</time>
      </trkpt>
      <trkpt lat="49.54867" lon="3.4537">
        <ele>127.6</ele>
        <time>2023-08-18T08:40:21Z</time>
      </trkpt>
      <trkpt lat="49.54869" lon="3.45374">
        <ele>127.6</ele>
        <time>2023-08-18T08:40:27Z</time>
      </trkpt>
      <trkpt lat="49.54874" lon="3.45383">
        <ele>127.6</ele>
        <time>2023-08-18T08:40:32Z</time>
      </trkpt>
      <trkpt lat="49.54876" lon="3.45386">
        <ele>127.6</ele>
        <time>2023-08-18T08:40:33Z</time>
      </trkpt>
      <trkpt lat="49.54881" lon="3.45403">
        <ele>127.6</ele>
        <time>2023-08-18T08:40:40Z</time>
      </trkpt>
      <trkpt lat="49.54884" lon="3.45413">
        <ele>127.2</ele>
        <time>2023-08-18T08:40:46Z</time>
      </trkpt>
      <trkpt lat="49.54885" lon="3.45416">
        <ele>126.4</ele>
        <time>2023-08-18T08:40:47Z</time>
      </trkpt>
      <trkpt lat="49.54886" lon="3.45418">
        <ele>126</ele>
        <time>2023-08-18T08:40:48Z</time>
      </trkpt>
      <trkpt lat="49.54887" lon="3.4542">
        <ele>125.6</ele>
        <time>2023-08-18T08:40:49Z</time>
      </trkpt>
      <trkpt lat="49.54888" lon="3.45424">
        <ele>125.6</ele>
        <time>2023-08-18T08:40:52Z</time>
      </trkpt>
      <trkpt lat="49.54886" lon="3.45428">
        <ele>125.6</ele>
        <time>2023-08-18T08:40:58Z</time>
      </trkpt>
      <trkpt lat="49.54885" lon="3.45426">
        <ele>125.6</ele>
        <time>2023-08-18T08:41:02Z</time>
      </trkpt>
      <trkpt lat="49.54886" lon="3.45427">
        <ele>125.6</ele>
        <time>2023-08-18T08:41:09Z</time>
      </trkpt>
      <trkpt lat="49.54882" lon="3.45424">
        <ele>125.6</ele>
        <time>2023-08-18T08:41:16Z</time>
      </trkpt>
      <trkpt lat="49.54881" lon="3.45425">
        <ele>125.6</ele>
        <time>2023-08-18T08:41:24Z</time>
      </trkpt>
      <trkpt lat="49.54885" lon="3.45427">
        <ele>125.6</ele>
        <time>2023-08-18T08:41:27Z</time>
      </trkpt>
      <trkpt lat="49.54887" lon="3.45429">
        <ele>125.6</ele>
        <time>2023-08-18T08:41:30Z</time>
      </trkpt>
      <trkpt lat="49.54891" lon="3.45431">
        <ele>125.6</ele>
        <time>2023-08-18T08:41:37Z</time>
      </trkpt>
      <trkpt lat="49.54891" lon="3.45431">
        <ele>125.6</ele>
        <time>2023-08-18T08:41:47Z</time>
      </trkpt>
      <trkpt lat="49.54891" lon="3.45431">
        <ele>125.6</ele>
        <time>2023-08-18T08:41:58Z</time>
      </trkpt>
      <trkpt lat="49.54891" lon="3.45431">
        <ele>125.6</ele>
        <time>2023-08-18T08:42:14Z</time>
      </trkpt>
      <trkpt lat="49.54891" lon="3.45431">
        <ele>125.6</ele>
        <time>2023-08-18T08:42:23Z</time>
      </trkpt>
      <trkpt lat="49.54891" lon="3.45431">
        <ele>125.6</ele>
        <time>2023-08-18T08:42:31Z</time>
      </trkpt>
      <trkpt lat="49.54891" lon="3.45431">
        <ele>125.6</ele>
        <time>2023-08-18T08:42:42Z</time>
      </trkpt>
      <trkpt lat="49.54891" lon="3.45431">
        <ele>125.6</ele>
        <time>2023-08-18T08:42:53Z</time>
      </trkpt>
      <trkpt lat="49.54889" lon="3.45432">
        <ele>125.6</ele>
        <time>2023-08-18T08:43:01Z</time>
      </trkpt>
      <trkpt lat="49.54888" lon="3.45436">
        <ele>125.2</ele>
        <time>2023-08-18T08:43:06Z</time>
      </trkpt>
      <trkpt lat="49.54888" lon="3.45436">
        <ele>124.8</ele>
        <time>2023-08-18T08:43:07Z</time>
      </trkpt>
      <trkpt lat="49.54888" lon="3.45436">
        <ele>124.2</ele>
        <time>2023-08-18T08:43:08Z</time>
      </trkpt>
      <trkpt lat="49.54888" lon="3.45436">
        <ele>123.8</ele>
        <time>2023-08-18T08:43:09Z</time>
      </trkpt>
      <trkpt lat="49.54888" lon="3.45436">
        <ele>123.4</ele>
        <time>2023-08-18T08:43:10Z</time>
      </trkpt>
      <trkpt lat="49.54888" lon="3.45436">
        <ele>123.4</ele>
        <time>2023-08-18T08:43:22Z</time>
      </trkpt>
      <trkpt lat="49.54889" lon="3.45441">
        <ele>123.4</ele>
        <time>2023-08-18T08:43:29Z</time>
      </trkpt>
      <trkpt lat="49.54891" lon="3.4545">
        <ele>123.4</ele>
        <time>2023-08-18T08:43:34Z</time>
      </trkpt>
      <trkpt lat="49.54892" lon="3.45461">
        <ele>123.4</ele>
        <time>2023-08-18T08:43:38Z</time>
      </trkpt>
      <trkpt lat="49.54891" lon="3.45465">
        <ele>123.4</ele>
        <time>2023-08-18T08:43:40Z</time>
      </trkpt>
      <trkpt lat="49.54893" lon="3.45474">
        <ele>123.4</ele>
        <time>2023-08-18T08:43:45Z</time>
      </trkpt>
      <trkpt lat="49.54894" lon="3.45481">
        <ele>123.4</ele>
        <time>2023-08-18T08:43:49Z</time>
      </trkpt>
      <trkpt lat="49.54893" lon="3.45484">
        <ele>123.4</ele>
        <time>2023-08-18T08:43:50Z</time>
      </trkpt>
      <trkpt lat="49.54892" lon="3.45493">
        <ele>123.4</ele>
        <time>2023-08-18T08:43:54Z</time>
      </trkpt>
      <trkpt lat="49.5489" lon="3.45499">
        <ele>123.4</ele>
        <time>2023-08-18T08:43:58Z</time>
      </trkpt>
      <trkpt lat="49.5489" lon="3.455">
        <ele>123.4</ele>
        <time>2023-08-18T08:43:59Z</time>
      </trkpt>
      <trkpt lat="49.54889" lon="3.45507">
        <ele>123.4</ele>
        <time>2023-08-18T08:44:04Z</time>
      </trkpt>
      <trkpt lat="49.54888" lon="3.45509">
        <ele>123.4</ele>
        <time>2023-08-18T08:44:05Z</time>
      </trkpt>
      <trkpt lat="49.54887" lon="3.45516">
        <ele>123</ele>
        <time>2023-08-18T08:44:08Z</time>
      </trkpt>
      <trkpt lat="49.54886" lon="3.45519">
        <ele>122.6</ele>
        <time>2023-08-18T08:44:09Z</time>
      </trkpt>
      <trkpt lat="49.54885" lon="3.45522">
        <ele>122.2</ele>
        <time>2023-08-18T08:44:10Z</time>
      </trkpt>
      <trkpt lat="49.54885" lon="3.45525">
        <ele>121.8</ele>
        <time>2023-08-18T08:44:11Z</time>
      </trkpt>
      <trkpt lat="49.54884" lon="3.45529">
        <ele>121.4</ele>
        <time>2023-08-18T08:44:12Z</time>
      </trkpt>
      <trkpt lat="49.54886" lon="3.45539">
        <ele>121.4</ele>
        <time>2023-08-18T08:44:16Z</time>
      </trkpt>
      <trkpt lat="49.54886" lon="3.45545">
        <ele>121.4</ele>
        <time>2023-08-18T08:44:21Z</time>
      </trkpt>
      <trkpt lat="49.54886" lon="3.45552">
        <ele>121.4</ele>
        <time>2023-08-18T08:44:25Z</time>
      </trkpt>
      <trkpt lat="49.54886" lon="3.45555">
        <ele>121.4</ele>
        <time>2023-08-18T08:44:26Z</time>
      </trkpt>
      <trkpt lat="49.54885" lon="3.45567">
        <ele>121</ele>
        <time>2023-08-18T08:44:31Z</time>
      </trkpt>
      <trkpt lat="49.54884" lon="3.45567">
        <ele>120.6</ele>
        <time>2023-08-18T08:44:32Z</time>
      </trkpt>
      <trkpt lat="49.54883" lon="3.45567">
        <ele>120.2</ele>
        <time>2023-08-18T08:44:33Z</time>
      </trkpt>
      <trkpt lat="49.54883" lon="3.45567">
        <ele>119.8</ele>
        <time>2023-08-18T08:44:34Z</time>
      </trkpt>
      <trkpt lat="49.54883" lon="3.45567">
        <ele>119.4</ele>
        <time>2023-08-18T08:44:35Z</time>
      </trkpt>
      <trkpt lat="49.54883" lon="3.45567">
        <ele>119.4</ele>
        <time>2023-08-18T08:44:36Z</time>
      </trkpt>
      <trkpt lat="49.54883" lon="3.45566">
        <ele>119.4</ele>
        <time>2023-08-18T08:44:42Z</time>
      </trkpt>
      <trkpt lat="49.54883" lon="3.45565">
        <ele>119.4</ele>
        <time>2023-08-18T08:44:49Z</time>
      </trkpt>
      <trkpt lat="49.54883" lon="3.45564">
        <ele>119.4</ele>
        <time>2023-08-18T08:44:50Z</time>
      </trkpt>
      <trkpt lat="49.54883" lon="3.45564">
        <ele>119.4</ele>
        <time>2023-08-18T08:44:57Z</time>
      </trkpt>
      <trkpt lat="49.54883" lon="3.45563">
        <ele>119.4</ele>
        <time>2023-08-18T08:45:06Z</time>
      </trkpt>
      <trkpt lat="49.54883" lon="3.45563">
        <ele>119.4</ele>
        <time>2023-08-18T08:45:14Z</time>
      </trkpt>
      <trkpt lat="49.54884" lon="3.45563">
        <ele>119.4</ele>
        <time>2023-08-18T08:45:21Z</time>
      </trkpt>
      <trkpt lat="49.54883" lon="3.45564">
        <ele>119.4</ele>
        <time>2023-08-18T08:45:26Z</time>
      </trkpt>
      <trkpt lat="49.54883" lon="3.45564">
        <ele>119.4</ele>
        <time>2023-08-18T08:45:37Z</time>
      </trkpt>
      <trkpt lat="49.54883" lon="3.45564">
        <ele>119.4</ele>
        <time>2023-08-18T08:45:47Z</time>
      </trkpt>
      <trkpt lat="49.54883" lon="3.45563">
        <ele>119.4</ele>
        <time>2023-08-18T08:45:53Z</time>
      </trkpt>
      <trkpt lat="49.54883" lon="3.45562">
        <ele>119.4</ele>
        <time>2023-08-18T08:45:58Z</time>
      </trkpt>
      <trkpt lat="49.54883" lon="3.45562">
        <ele>119.4</ele>
        <time>2023-08-18T08:46:06Z</time>
      </trkpt>
      <trkpt lat="49.54884" lon="3.45562">
        <ele>119.4</ele>
        <time>2023-08-18T08:46:10Z</time>
      </trkpt>
      <trkpt lat="49.54884" lon="3.45562">
        <ele>119.4</ele>
        <time>2023-08-18T08:46:11Z</time>
      </trkpt>
      <trkpt lat="49.54884" lon="3.45566">
        <ele>119.4</ele>
        <time>2023-08-18T08:46:15Z</time>
      </trkpt>
      <trkpt lat="49.54884" lon="3.45574">
        <ele>119.4</ele>
        <time>2023-08-18T08:46:21Z</time>
      </trkpt>
      <trkpt lat="49.54883" lon="3.45584">
        <ele>119.4</ele>
        <time>2023-08-18T08:46:25Z</time>
      </trkpt>
      <trkpt lat="49.54883" lon="3.45586">
        <ele>119.4</ele>
        <time>2023-08-18T08:46:26Z</time>
      </trkpt>
      <trkpt lat="49.54884" lon="3.45593">
        <ele>119.4</ele>
        <time>2023-08-18T08:46:30Z</time>
      </trkpt>
      <trkpt lat="49.54883" lon="3.45599">
        <ele>119.4</ele>
        <time>2023-08-18T08:46:35Z</time>
      </trkpt>
      <trkpt lat="49.54883" lon="3.45604">
        <ele>118.8</ele>
        <time>2023-08-18T08:46:37Z</time>
      </trkpt>
      <trkpt lat="49.54882" lon="3.45607">
        <ele>118.4</ele>
        <time>2023-08-18T08:46:38Z</time>
      </trkpt>
      <trkpt lat="49.54882" lon="3.45611">
        <ele>118</ele>
        <time>2023-08-18T08:46:39Z</time>
      </trkpt>
      <trkpt lat="49.54882" lon="3.45614">
        <ele>117.6</ele>
        <time>2023-08-18T08:46:40Z</time>
      </trkpt>
      <trkpt lat="49.54882" lon="3.45617">
        <ele>117.2</ele>
        <time>2023-08-18T08:46:41Z</time>
      </trkpt>
      <trkpt lat="49.54882" lon="3.4562">
        <ele>117.2</ele>
        <time>2023-08-18T08:46:42Z</time>
      </trkpt>
      <trkpt lat="49.54882" lon="3.45622">
        <ele>117.2</ele>
        <time>2023-08-18T08:46:43Z</time>
      </trkpt>
      <trkpt lat="49.54882" lon="3.45625">
        <ele>117.2</ele>
        <time>2023-08-18T08:46:46Z</time>
      </trkpt>
      <trkpt lat="49.54882" lon="3.45629">
        <ele>117.2</ele>
        <time>2023-08-18T08:46:50Z</time>
      </trkpt>
      <trkpt lat="49.54882" lon="3.45631">
        <ele>117.2</ele>
        <time>2023-08-18T08:46:51Z</time>
      </trkpt>
      <trkpt lat="49.54882" lon="3.45634">
        <ele>117.2</ele>
        <time>2023-08-18T08:46:53Z</time>
      </trkpt>
      <trkpt lat="49.54881" lon="3.45635">
        <ele>117.2</ele>
        <time>2023-08-18T08:46:55Z</time>
      </trkpt>
      <trkpt lat="49.5488" lon="3.4564">
        <ele>117.2</ele>
        <time>2023-08-18T08:46:58Z</time>
      </trkpt>
      <trkpt lat="49.54879" lon="3.45641">
        <ele>117.2</ele>
        <time>2023-08-18T08:46:59Z</time>
      </trkpt>
      <trkpt lat="49.54878" lon="3.45648">
        <ele>117.2</ele>
        <time>2023-08-18T08:47:03Z</time>
      </trkpt>
      <trkpt lat="49.54879" lon="3.4565">
        <ele>116.8</ele>
        <time>2023-08-18T08:47:04Z</time>
      </trkpt>
      <trkpt lat="49.54878" lon="3.45653">
        <ele>116.4</ele>
        <time>2023-08-18T08:47:05Z</time>
      </trkpt>
      <trkpt lat="49.54877" lon="3.45657">
        <ele>116</ele>
        <time>2023-08-18T08:47:06Z</time>
      </trkpt>
      <trkpt lat="49.54877" lon="3.45661">
        <ele>115.6</ele>
        <time>2023-08-18T08:47:07Z</time>
      </trkpt>
      <trkpt lat="49.54877" lon="3.45664">
        <ele>115.2</ele>
        <time>2023-08-18T08:47:08Z</time>
      </trkpt>
      <trkpt lat="49.54876" lon="3.45672">
        <ele>115.2</ele>
        <time>2023-08-18T08:47:11Z</time>
      </trkpt>
      <trkpt lat="49.54877" lon="3.45676">
        <ele>115.2</ele>
        <time>2023-08-18T08:47:13Z</time>
      </trkpt>
      <trkpt lat="49.54876" lon="3.45679">
        <ele>115.2</ele>
        <time>2023-08-18T08:47:18Z</time>
      </trkpt>
      <trkpt lat="49.54876" lon="3.45683">
        <ele>115.2</ele>
        <time>2023-08-18T08:47:21Z</time>
      </trkpt>
      <trkpt lat="49.54875" lon="3.45688">
        <ele>115.2</ele>
        <time>2023-08-18T08:47:23Z</time>
      </trkpt>
      <trkpt lat="49.54875" lon="3.45691">
        <ele>114.8</ele>
        <time>2023-08-18T08:47:24Z</time>
      </trkpt>
      <trkpt lat="49.54874" lon="3.45693">
        <ele>114.4</ele>
        <time>2023-08-18T08:47:25Z</time>
      </trkpt>
      <trkpt lat="49.54873" lon="3.45696">
        <ele>114</ele>
        <time>2023-08-18T08:47:26Z</time>
      </trkpt>
      <trkpt lat="49.54874" lon="3.45699">
        <ele>113.6</ele>
        <time>2023-08-18T08:47:27Z</time>
      </trkpt>
      <trkpt lat="49.54874" lon="3.45702">
        <ele>113.2</ele>
        <time>2023-08-18T08:47:28Z</time>
      </trkpt>
      <trkpt lat="49.54872" lon="3.45714">
        <ele>113.2</ele>
        <time>2023-08-18T08:47:32Z</time>
      </trkpt>
      <trkpt lat="49.54873" lon="3.45716">
        <ele>113.2</ele>
        <time>2023-08-18T08:47:33Z</time>
      </trkpt>
      <trkpt lat="49.54874" lon="3.45722">
        <ele>113.2</ele>
        <time>2023-08-18T08:47:36Z</time>
      </trkpt>
      <trkpt lat="49.54874" lon="3.45723">
        <ele>113.2</ele>
        <time>2023-08-18T08:47:37Z</time>
      </trkpt>
      <trkpt lat="49.54872" lon="3.45729">
        <ele>113.2</ele>
        <time>2023-08-18T08:47:43Z</time>
      </trkpt>
      <trkpt lat="49.54871" lon="3.45732">
        <ele>113.2</ele>
        <time>2023-08-18T08:47:45Z</time>
      </trkpt>
      <trkpt lat="49.54871" lon="3.45735">
        <ele>112.4</ele>
        <time>2023-08-18T08:47:46Z</time>
      </trkpt>
      <trkpt lat="49.54871" lon="3.45737">
        <ele>112</ele>
        <time>2023-08-18T08:47:47Z</time>
      </trkpt>
      <trkpt lat="49.54872" lon="3.4574">
        <ele>111.6</ele>
        <time>2023-08-18T08:47:48Z</time>
      </trkpt>
      <trkpt lat="49.54871" lon="3.45744">
        <ele>111.2</ele>
        <time>2023-08-18T08:47:49Z</time>
      </trkpt>
      <trkpt lat="49.54871" lon="3.45748">
        <ele>111.2</ele>
        <time>2023-08-18T08:47:52Z</time>
      </trkpt>
      <trkpt lat="49.54869" lon="3.45748">
        <ele>111.2</ele>
        <time>2023-08-18T08:47:56Z</time>
      </trkpt>
      <trkpt lat="49.54869" lon="3.4575">
        <ele>111.2</ele>
        <time>2023-08-18T08:48:01Z</time>
      </trkpt>
      <trkpt lat="49.54869" lon="3.45751">
        <ele>111.2</ele>
        <time>2023-08-18T08:48:06Z</time>
      </trkpt>
      <trkpt lat="49.54868" lon="3.45752">
        <ele>111.2</ele>
        <time>2023-08-18T08:48:11Z</time>
      </trkpt>
      <trkpt lat="49.54868" lon="3.45754">
        <ele>111.2</ele>
        <time>2023-08-18T08:48:22Z</time>
      </trkpt>
      <trkpt lat="49.54868" lon="3.45753">
        <ele>111.2</ele>
        <time>2023-08-18T08:48:28Z</time>
      </trkpt>
      <trkpt lat="49.54866" lon="3.45753">
        <ele>111.2</ele>
        <time>2023-08-18T08:48:31Z</time>
      </trkpt>
      <trkpt lat="49.54866" lon="3.45752">
        <ele>111.2</ele>
        <time>2023-08-18T08:48:33Z</time>
      </trkpt>
      <trkpt lat="49.54866" lon="3.45752">
        <ele>111.2</ele>
        <time>2023-08-18T08:48:40Z</time>
      </trkpt>
      <trkpt lat="49.54866" lon="3.45751">
        <ele>111.2</ele>
        <time>2023-08-18T08:48:50Z</time>
      </trkpt>
      <trkpt lat="49.54867" lon="3.45751">
        <ele>111.2</ele>
        <time>2023-08-18T08:48:55Z</time>
      </trkpt>
      <trkpt lat="49.54867" lon="3.45755">
        <ele>111.2</ele>
        <time>2023-08-18T08:49:00Z</time>
      </trkpt>
      <trkpt lat="49.54867" lon="3.45755">
        <ele>111.2</ele>
        <time>2023-08-18T08:49:12Z</time>
      </trkpt>
      <trkpt lat="49.54867" lon="3.45757">
        <ele>111.2</ele>
        <time>2023-08-18T08:49:16Z</time>
      </trkpt>
      <trkpt lat="49.54869" lon="3.45761">
        <ele>111.2</ele>
        <time>2023-08-18T08:49:20Z</time>
      </trkpt>
      <trkpt lat="49.54868" lon="3.45763">
        <ele>111.2</ele>
        <time>2023-08-18T08:49:21Z</time>
      </trkpt>
      <trkpt lat="49.54869" lon="3.4577">
        <ele>111.2</ele>
        <time>2023-08-18T08:49:25Z</time>
      </trkpt>
      <trkpt lat="49.5487" lon="3.45774">
        <ele>110.8</ele>
        <time>2023-08-18T08:49:28Z</time>
      </trkpt>
      <trkpt lat="49.5487" lon="3.45776">
        <ele>110.2</ele>
        <time>2023-08-18T08:49:29Z</time>
      </trkpt>
      <trkpt lat="49.54871" lon="3.45779">
        <ele>109.8</ele>
        <time>2023-08-18T08:49:30Z</time>
      </trkpt>
      <trkpt lat="49.54871" lon="3.45781">
        <ele>109.4</ele>
        <time>2023-08-18T08:49:31Z</time>
      </trkpt>
      <trkpt lat="49.54871" lon="3.45782">
        <ele>109</ele>
        <time>2023-08-18T08:49:32Z</time>
      </trkpt>
      <trkpt lat="49.54871" lon="3.45785">
        <ele>109</ele>
        <time>2023-08-18T08:49:35Z</time>
      </trkpt>
      <trkpt lat="49.54871" lon="3.45788">
        <ele>109</ele>
        <time>2023-08-18T08:49:37Z</time>
      </trkpt>
      <trkpt lat="49.54872" lon="3.45795">
        <ele>109</ele>
        <time>2023-08-18T08:49:39Z</time>
      </trkpt>
      <trkpt lat="49.54871" lon="3.45801">
        <ele>109</ele>
        <time>2023-08-18T08:49:43Z</time>
      </trkpt>
      <trkpt lat="49.54871" lon="3.45801">
        <ele>109</ele>
        <time>2023-08-18T08:49:51Z</time>
      </trkpt>
      <trkpt lat="49.54872" lon="3.45803">
        <ele>109</ele>
        <time>2023-08-18T08:49:52Z</time>
      </trkpt>
      <trkpt lat="49.54872" lon="3.45811">
        <ele>109</ele>
        <time>2023-08-18T08:49:55Z</time>
      </trkpt>
      <trkpt lat="49.54872" lon="3.45814">
        <ele>109</ele>
        <time>2023-08-18T08:49:56Z</time>
      </trkpt>
      <trkpt lat="49.54875" lon="3.45821">
        <ele>108.6</ele>
        <time>2023-08-18T08:49:59Z</time>
      </trkpt>
      <trkpt lat="49.54875" lon="3.45822">
        <ele>108.2</ele>
        <time>2023-08-18T08:50:00Z</time>
      </trkpt>
      <trkpt lat="49.54875" lon="3.45823">
        <ele>107.8</ele>
        <time>2023-08-18T08:50:01Z</time>
      </trkpt>
      <trkpt lat="49.54875" lon="3.45823">
        <ele>107.4</ele>
        <time>2023-08-18T08:50:02Z</time>
      </trkpt>
      <trkpt lat="49.54875" lon="3.45824">
        <ele>107</ele>
        <time>2023-08-18T08:50:03Z</time>
      </trkpt>
      <trkpt lat="49.54875" lon="3.45825">
        <ele>107</ele>
        <time>2023-08-18T08:50:05Z</time>
      </trkpt>
      <trkpt lat="49.54875" lon="3.45827">
        <ele>107</ele>
        <time>2023-08-18T08:50:06Z</time>
      </trkpt>
      <trkpt lat="49.54877" lon="3.45838">
        <ele>107</ele>
        <time>2023-08-18T08:50:10Z</time>
      </trkpt>
      <trkpt lat="49.54879" lon="3.45848">
        <ele>107</ele>
        <time>2023-08-18T08:50:13Z</time>
      </trkpt>
      <trkpt lat="49.5488" lon="3.45852">
        <ele>107</ele>
        <time>2023-08-18T08:50:15Z</time>
      </trkpt>
      <trkpt lat="49.54879" lon="3.45853">
        <ele>107</ele>
        <time>2023-08-18T08:50:16Z</time>
      </trkpt>
      <trkpt lat="49.54879" lon="3.45852">
        <ele>106.6</ele>
        <time>2023-08-18T08:50:20Z</time>
      </trkpt>
      <trkpt lat="49.54879" lon="3.45852">
        <ele>106.2</ele>
        <time>2023-08-18T08:50:21Z</time>
      </trkpt>
      <trkpt lat="49.54879" lon="3.45853">
        <ele>105.8</ele>
        <time>2023-08-18T08:50:22Z</time>
      </trkpt>
      <trkpt lat="49.54879" lon="3.45854">
        <ele>105.4</ele>
        <time>2023-08-18T08:50:23Z</time>
      </trkpt>
      <trkpt lat="49.5488" lon="3.45855">
        <ele>105</ele>
        <time>2023-08-18T08:50:24Z</time>
      </trkpt>
      <trkpt lat="49.54881" lon="3.45861">
        <ele>105</ele>
        <time>2023-08-18T08:50:29Z</time>
      </trkpt>
      <trkpt lat="49.54883" lon="3.45873">
        <ele>105</ele>
        <time>2023-08-18T08:50:35Z</time>
      </trkpt>
      <trkpt lat="49.54882" lon="3.45876">
        <ele>105</ele>
        <time>2023-08-18T08:50:40Z</time>
      </trkpt>
      <trkpt lat="49.54883" lon="3.45879">
        <ele>105</ele>
        <time>2023-08-18T08:50:48Z</time>
      </trkpt>
      <trkpt lat="49.54884" lon="3.45889">
        <ele>105</ele>
        <time>2023-08-18T08:50:52Z</time>
      </trkpt>
      <trkpt lat="49.54885" lon="3.45891">
        <ele>105</ele>
        <time>2023-08-18T08:50:53Z</time>
      </trkpt>
      <trkpt lat="49.54886" lon="3.45895">
        <ele>105</ele>
        <time>2023-08-18T08:50:57Z</time>
      </trkpt>
      <trkpt lat="49.54887" lon="3.45898">
        <ele>105</ele>
        <time>2023-08-18T08:51:00Z</time>
      </trkpt>
      <trkpt lat="49.54887" lon="3.45902">
        <ele>105</ele>
        <time>2023-08-18T08:51:02Z</time>
      </trkpt>
      <trkpt lat="49.54887" lon="3.45905">
        <ele>105</ele>
        <time>2023-08-18T08:51:03Z</time>
      </trkpt>
      <trkpt lat="49.54889" lon="3.45912">
        <ele>104.6</ele>
        <time>2023-08-18T08:51:06Z</time>
      </trkpt>
      <trkpt lat="49.5489" lon="3.45914">
        <ele>104.2</ele>
        <time>2023-08-18T08:51:07Z</time>
      </trkpt>
      <trkpt lat="49.5489" lon="3.45916">
        <ele>103.8</ele>
        <time>2023-08-18T08:51:08Z</time>
      </trkpt>
      <trkpt lat="49.54891" lon="3.45918">
        <ele>103.4</ele>
        <time>2023-08-18T08:51:09Z</time>
      </trkpt>
      <trkpt lat="49.54892" lon="3.45919">
        <ele>103</ele>
        <time>2023-08-18T08:51:10Z</time>
      </trkpt>
      <trkpt lat="49.54892" lon="3.4592">
        <ele>103</ele>
        <time>2023-08-18T08:51:12Z</time>
      </trkpt>
      <trkpt lat="49.54894" lon="3.45926">
        <ele>103</ele>
        <time>2023-08-18T08:51:18Z</time>
      </trkpt>
      <trkpt lat="49.54897" lon="3.45932">
        <ele>103</ele>
        <time>2023-08-18T08:51:22Z</time>
      </trkpt>
      <trkpt lat="49.54898" lon="3.45936">
        <ele>103</ele>
        <time>2023-08-18T08:51:24Z</time>
      </trkpt>
      <trkpt lat="49.54898" lon="3.4594">
        <ele>103</ele>
        <time>2023-08-18T08:51:29Z</time>
      </trkpt>
      <trkpt lat="49.54898" lon="3.45942">
        <ele>103</ele>
        <time>2023-08-18T08:51:31Z</time>
      </trkpt>
      <trkpt lat="49.54898" lon="3.45946">
        <ele>103</ele>
        <time>2023-08-18T08:51:33Z</time>
      </trkpt>
      <trkpt lat="49.54898" lon="3.45949">
        <ele>103</ele>
        <time>2023-08-18T08:51:38Z</time>
      </trkpt>
      <trkpt lat="49.54898" lon="3.45952">
        <ele>103</ele>
        <time>2023-08-18T08:51:39Z</time>
      </trkpt>
      <trkpt lat="49.54895" lon="3.45967">
        <ele>103</ele>
        <time>2023-08-18T08:51:44Z</time>
      </trkpt>
      <trkpt lat="49.54894" lon="3.45968">
        <ele>103</ele>
        <time>2023-08-18T08:51:45Z</time>
      </trkpt>
      <trkpt lat="49.54894" lon="3.45969">
        <ele>103</ele>
        <time>2023-08-18T08:51:46Z</time>
      </trkpt>
      <trkpt lat="49.54894" lon="3.45971">
        <ele>102.6</ele>
        <time>2023-08-18T08:51:48Z</time>
      </trkpt>
      <trkpt lat="49.54894" lon="3.45971">
        <ele>102.2</ele>
        <time>2023-08-18T08:51:49Z</time>
      </trkpt>
      <trkpt lat="49.54893" lon="3.45972">
        <ele>101.6</ele>
        <time>2023-08-18T08:51:50Z</time>
      </trkpt>
      <trkpt lat="49.54893" lon="3.45973">
        <ele>101.2</ele>
        <time>2023-08-18T08:51:51Z</time>
      </trkpt>
      <trkpt lat="49.54892" lon="3.45976">
        <ele>100.8</ele>
        <time>2023-08-18T08:51:52Z</time>
      </trkpt>
      <trkpt lat="49.54889" lon="3.45982">
        <ele>100.8</ele>
        <time>2023-08-18T08:51:55Z</time>
      </trkpt>
      <trkpt lat="49.54885" lon="3.45992">
        <ele>100.8</ele>
        <time>2023-08-18T08:52:01Z</time>
      </trkpt>
      <trkpt lat="49.54884" lon="3.45996">
        <ele>100.8</ele>
        <time>2023-08-18T08:52:07Z</time>
      </trkpt>
      <trkpt lat="49.54882" lon="3.45997">
        <ele>100.8</ele>
        <time>2023-08-18T08:52:08Z</time>
      </trkpt>
      <trkpt lat="49.54882" lon="3.45999">
        <ele>100.8</ele>
        <time>2023-08-18T08:52:11Z</time>
      </trkpt>
      <trkpt lat="49.54881" lon="3.45998">
        <ele>100.8</ele>
        <time>2023-08-18T08:52:16Z</time>
      </trkpt>
      <trkpt lat="49.54881" lon="3.45998">
        <ele>100.8</ele>
        <time>2023-08-18T08:52:18Z</time>
      </trkpt>
      <trkpt lat="49.54881" lon="3.45999">
        <ele>100.8</ele>
        <time>2023-08-18T08:52:23Z</time>
      </trkpt>
      <trkpt lat="49.54881" lon="3.45999">
        <ele>100.8</ele>
        <time>2023-08-18T08:52:25Z</time>
      </trkpt>
      <trkpt lat="49.54881" lon="3.45999">
        <ele>100.8</ele>
        <time>2023-08-18T08:52:30Z</time>
      </trkpt>
      <trkpt lat="49.54881" lon="3.45999">
        <ele>100.8</ele>
        <time>2023-08-18T08:52:34Z</time>
      </trkpt>
      <trkpt lat="49.54882" lon="3.46">
        <ele>100.8</ele>
        <time>2023-08-18T08:52:38Z</time>
      </trkpt>
      <trkpt lat="49.54881" lon="3.46004">
        <ele>100.8</ele>
        <time>2023-08-18T08:52:42Z</time>
      </trkpt>
      <trkpt lat="49.54881" lon="3.46004">
        <ele>100.8</ele>
        <time>2023-08-18T08:52:47Z</time>
      </trkpt>
      <trkpt lat="49.54881" lon="3.46004">
        <ele>100.8</ele>
        <time>2023-08-18T08:52:49Z</time>
      </trkpt>
      <trkpt lat="49.54881" lon="3.46004">
        <ele>100.8</ele>
        <time>2023-08-18T08:52:55Z</time>
      </trkpt>
      <trkpt lat="49.5488" lon="3.46007">
        <ele>100.8</ele>
        <time>2023-08-18T08:53:01Z</time>
      </trkpt>
      <trkpt lat="49.54878" lon="3.46019">
        <ele>100.8</ele>
        <time>2023-08-18T08:53:08Z</time>
      </trkpt>
      <trkpt lat="49.54876" lon="3.46025">
        <ele>100.8</ele>
        <time>2023-08-18T08:53:11Z</time>
      </trkpt>
      <trkpt lat="49.54875" lon="3.46029">
        <ele>100.8</ele>
        <time>2023-08-18T08:53:14Z</time>
      </trkpt>
      <trkpt lat="49.54874" lon="3.46044">
        <ele>100.8</ele>
        <time>2023-08-18T08:53:22Z</time>
      </trkpt>
      <trkpt lat="49.54873" lon="3.46045">
        <ele>100.8</ele>
        <time>2023-08-18T08:53:23Z</time>
      </trkpt>
      <trkpt lat="49.54872" lon="3.46052">
        <ele>100.8</ele>
        <time>2023-08-18T08:53:28Z</time>
      </trkpt>
      <trkpt lat="49.54869" lon="3.46066">
        <ele>100.8</ele>
        <time>2023-08-18T08:53:33Z</time>
      </trkpt>
      <trkpt lat="49.5487" lon="3.46069">
        <ele>100.8</ele>
        <time>2023-08-18T08:53:34Z</time>
      </trkpt>
      <trkpt lat="49.54869" lon="3.46072">
        <ele>100.8</ele>
        <time>2023-08-18T08:53:37Z</time>
      </trkpt>
      <trkpt lat="49.54869" lon="3.46079">
        <ele>100.8</ele>
        <time>2023-08-18T08:53:41Z</time>
      </trkpt>
      <trkpt lat="49.5487" lon="3.46081">
        <ele>100.8</ele>
        <time>2023-08-18T08:53:42Z</time>
      </trkpt>
      <trkpt lat="49.5487" lon="3.46081">
        <ele>100.4</ele>
        <time>2023-08-18T08:53:44Z</time>
      </trkpt>
      <trkpt lat="49.54869" lon="3.46082">
        <ele>100</ele>
        <time>2023-08-18T08:53:45Z</time>
      </trkpt>
      <trkpt lat="49.54869" lon="3.46081">
        <ele>99.6</ele>
        <time>2023-08-18T08:53:46Z</time>
      </trkpt>
      <trkpt lat="49.5487" lon="3.46081">
        <ele>99.2</ele>
        <time>2023-08-18T08:53:47Z</time>
      </trkpt>
      <trkpt lat="49.5487" lon="3.46081">
        <ele>98.8</ele>
        <time>2023-08-18T08:53:48Z</time>
      </trkpt>
      <trkpt lat="49.54869" lon="3.46081">
        <ele>98.8</ele>
        <time>2023-08-18T08:53:52Z</time>
      </trkpt>
      <trkpt lat="49.54868" lon="3.46084">
        <ele>98.8</ele>
        <time>2023-08-18T08:53:57Z</time>
      </trkpt>
      <trkpt lat="49.54867" lon="3.46093">
        <ele>98.8</ele>
        <time>2023-08-18T08:54:01Z</time>
      </trkpt>
      <trkpt lat="49.54866" lon="3.46099">
        <ele>98.8</ele>
        <time>2023-08-18T08:54:06Z</time>
      </trkpt>
      <trkpt lat="49.54863" lon="3.4611">
        <ele>98.8</ele>
        <time>2023-08-18T08:54:11Z</time>
      </trkpt>
      <trkpt lat="49.54864" lon="3.46114">
        <ele>98.8</ele>
        <time>2023-08-18T08:54:12Z</time>
      </trkpt>
      <trkpt lat="49.54862" lon="3.46125">
        <ele>98.8</ele>
        <time>2023-08-18T08:54:16Z</time>
      </trkpt>
      <trkpt lat="49.54862" lon="3.4613">
        <ele>98.8</ele>
        <time>2023-08-18T08:54:20Z</time>
      </trkpt>
      <trkpt lat="49.54859" lon="3.46135">
        <ele>98.8</ele>
        <time>2023-08-18T08:54:25Z</time>
      </trkpt>
      <trkpt lat="49.5486" lon="3.46135">
        <ele>98.8</ele>
        <time>2023-08-18T08:54:26Z</time>
      </trkpt>
      <trkpt lat="49.5486" lon="3.46135">
        <ele>98.8</ele>
        <time>2023-08-18T08:54:32Z</time>
      </trkpt>
      <trkpt lat="49.5486" lon="3.46135">
        <ele>98.8</ele>
        <time>2023-08-18T08:54:35Z</time>
      </trkpt>
      <trkpt lat="49.54861" lon="3.46135">
        <ele>98.8</ele>
        <time>2023-08-18T08:54:37Z</time>
      </trkpt>
      <trkpt lat="49.54861" lon="3.46137">
        <ele>98.8</ele>
        <time>2023-08-18T08:54:39Z</time>
      </trkpt>
      <trkpt lat="49.5486" lon="3.4614">
        <ele>98.8</ele>
        <time>2023-08-18T08:54:41Z</time>
      </trkpt>
      <trkpt lat="49.54859" lon="3.46144">
        <ele>98.8</ele>
        <time>2023-08-18T08:54:45Z</time>
      </trkpt>
      <trkpt lat="49.54858" lon="3.46147">
        <ele>98.8</ele>
        <time>2023-08-18T08:54:46Z</time>
      </trkpt>
      <trkpt lat="49.54853" lon="3.4616">
        <ele>98.8</ele>
        <time>2023-08-18T08:54:51Z</time>
      </trkpt>
      <trkpt lat="49.5485" lon="3.46173">
        <ele>98.8</ele>
        <time>2023-08-18T08:54:57Z</time>
      </trkpt>
      <trkpt lat="49.54849" lon="3.46175">
        <ele>98.8</ele>
        <time>2023-08-18T08:54:59Z</time>
      </trkpt>
      <trkpt lat="49.54849" lon="3.46176">
        <ele>98.8</ele>
        <time>2023-08-18T08:55:01Z</time>
      </trkpt>
      <trkpt lat="49.54849" lon="3.46177">
        <ele>98.8</ele>
        <time>2023-08-18T08:55:07Z</time>
      </trkpt>
      <trkpt lat="49.54843" lon="3.46183">
        <ele>98.4</ele>
        <time>2023-08-18T08:55:12Z</time>
      </trkpt>
      <trkpt lat="49.54841" lon="3.46185">
        <ele>98</ele>
        <time>2023-08-18T08:55:13Z</time>
      </trkpt>
      <trkpt lat="49.5484" lon="3.46187">
        <ele>97.6</ele>
        <time>2023-08-18T08:55:14Z</time>
      </trkpt>
      <trkpt lat="49.54837" lon="3.46189">
        <ele>97.2</ele>
        <time>2023-08-18T08:55:15Z</time>
      </trkpt>
      <trkpt lat="49.54836" lon="3.46191">
        <ele>96.8</ele>
        <time>2023-08-18T08:55:16Z</time>
      </trkpt>
      <trkpt lat="49.54832" lon="3.46199">
        <ele>96.8</ele>
        <time>2023-08-18T08:55:19Z</time>
      </trkpt>
      <trkpt lat="49.54829" lon="3.46207">
        <ele>96.8</ele>
        <time>2023-08-18T08:55:24Z</time>
      </trkpt>
      <trkpt lat="49.54827" lon="3.46213">
        <ele>96.8</ele>
        <time>2023-08-18T08:55:29Z</time>
      </trkpt>
      <trkpt lat="49.54823" lon="3.46222">
        <ele>96.8</ele>
        <time>2023-08-18T08:55:33Z</time>
      </trkpt>
      <trkpt lat="49.5482" lon="3.46227">
        <ele>96.4</ele>
        <time>2023-08-18T08:55:35Z</time>
      </trkpt>
      <trkpt lat="49.54819" lon="3.4623">
        <ele>96</ele>
        <time>2023-08-18T08:55:36Z</time>
      </trkpt>
      <trkpt lat="49.54818" lon="3.46232">
        <ele>95.6</ele>
        <time>2023-08-18T08:55:37Z</time>
      </trkpt>
      <trkpt lat="49.54817" lon="3.46233">
        <ele>95.2</ele>
        <time>2023-08-18T08:55:38Z</time>
      </trkpt>
      <trkpt lat="49.54817" lon="3.46235">
        <ele>94.6</ele>
        <time>2023-08-18T08:55:39Z</time>
      </trkpt>
      <trkpt lat="49.54817" lon="3.46235">
        <ele>94.6</ele>
        <time>2023-08-18T08:55:44Z</time>
      </trkpt>
      <trkpt lat="49.54817" lon="3.46236">
        <ele>94.6</ele>
        <time>2023-08-18T08:55:50Z</time>
      </trkpt>
      <trkpt lat="49.54819" lon="3.46237">
        <ele>94.6</ele>
        <time>2023-08-18T08:55:54Z</time>
      </trkpt>
      <trkpt lat="49.54818" lon="3.46239">
        <ele>94.6</ele>
        <time>2023-08-18T08:55:55Z</time>
      </trkpt>
      <trkpt lat="49.54818" lon="3.46238">
        <ele>94.6</ele>
        <time>2023-08-18T08:56:00Z</time>
      </trkpt>
      <trkpt lat="49.54818" lon="3.46238">
        <ele>94.6</ele>
        <time>2023-08-18T08:56:14Z</time>
      </trkpt>
      <trkpt lat="49.54818" lon="3.46238">
        <ele>94.6</ele>
        <time>2023-08-18T08:56:15Z</time>
      </trkpt>
      <trkpt lat="49.54818" lon="3.46237">
        <ele>94.6</ele>
        <time>2023-08-18T08:56:19Z</time>
      </trkpt>
      <trkpt lat="49.54818" lon="3.46236">
        <ele>94.6</ele>
        <time>2023-08-18T08:56:25Z</time>
      </trkpt>
      <trkpt lat="49.54817" lon="3.46237">
        <ele>94.6</ele>
        <time>2023-08-18T08:56:33Z</time>
      </trkpt>
      <trkpt lat="49.54817" lon="3.46236">
        <ele>94.6</ele>
        <time>2023-08-18T08:56:46Z</time>
      </trkpt>
      <trkpt lat="49.54817" lon="3.46235">
        <ele>94.6</ele>
        <time>2023-08-18T08:56:54Z</time>
      </trkpt>
      <trkpt lat="49.54817" lon="3.46235">
        <ele>94.6</ele>
        <time>2023-08-18T08:57:01Z</time>
      </trkpt>
      <trkpt lat="49.54816" lon="3.46234">
        <ele>94.6</ele>
        <time>2023-08-18T08:57:09Z</time>
      </trkpt>
      <trkpt lat="49.54816" lon="3.46234">
        <ele>94.6</ele>
        <time>2023-08-18T08:57:15Z</time>
      </trkpt>
      <trkpt lat="49.54815" lon="3.46235">
        <ele>94.6</ele>
        <time>2023-08-18T08:57:22Z</time>
      </trkpt>
      <trkpt lat="49.54815" lon="3.46235">
        <ele>94.6</ele>
        <time>2023-08-18T08:57:31Z</time>
      </trkpt>
      <trkpt lat="49.54815" lon="3.46235">
        <ele>94.6</ele>
        <time>2023-08-18T08:57:41Z</time>
      </trkpt>
      <trkpt lat="49.54816" lon="3.46234">
        <ele>94.6</ele>
        <time>2023-08-18T08:57:47Z</time>
      </trkpt>
      <trkpt lat="49.54817" lon="3.46235">
        <ele>94.6</ele>
        <time>2023-08-18T08:57:55Z</time>
      </trkpt>
      <trkpt lat="49.54816" lon="3.46235">
        <ele>94.6</ele>
        <time>2023-08-18T08:58:01Z</time>
      </trkpt>
      <trkpt lat="49.54816" lon="3.46235">
        <ele>94.6</ele>
        <time>2023-08-18T08:58:11Z</time>
      </trkpt>
      <trkpt lat="49.54818" lon="3.46235">
        <ele>94.6</ele>
        <time>2023-08-18T08:58:17Z</time>
      </trkpt>
      <trkpt lat="49.54817" lon="3.46236">
        <ele>94.6</ele>
        <time>2023-08-18T08:58:25Z</time>
      </trkpt>
      <trkpt lat="49.54816" lon="3.46236">
        <ele>94.6</ele>
        <time>2023-08-18T08:58:32Z</time>
      </trkpt>
      <trkpt lat="49.54816" lon="3.46236">
        <ele>94.6</ele>
        <time>2023-08-18T08:58:42Z</time>
      </trkpt>
      <trkpt lat="49.54818" lon="3.46237">
        <ele>94.6</ele>
        <time>2023-08-18T08:58:49Z</time>
      </trkpt>
      <trkpt lat="49.54821" lon="3.46241">
        <ele>94.6</ele>
        <time>2023-08-18T08:58:52Z</time>
      </trkpt>
      <trkpt lat="49.54823" lon="3.46242">
        <ele>94.6</ele>
        <time>2023-08-18T08:58:55Z</time>
      </trkpt>
      <trkpt lat="49.54826" lon="3.4625">
        <ele>94.2</ele>
        <time>2023-08-18T08:58:59Z</time>
      </trkpt>
      <trkpt lat="49.54827" lon="3.46252">
        <ele>93.8</ele>
        <time>2023-08-18T08:59:00Z</time>
      </trkpt>
      <trkpt lat="49.54827" lon="3.46253">
        <ele>93.4</ele>
        <time>2023-08-18T08:59:01Z</time>
      </trkpt>
      <trkpt lat="49.54829" lon="3.46255">
        <ele>93</ele>
        <time>2023-08-18T08:59:02Z</time>
      </trkpt>
      <trkpt lat="49.5483" lon="3.46257">
        <ele>92.6</ele>
        <time>2023-08-18T08:59:03Z</time>
      </trkpt>
      <trkpt lat="49.54837" lon="3.46265">
        <ele>92.6</ele>
        <time>2023-08-18T08:59:08Z</time>
      </trkpt>
      <trkpt lat="49.54841" lon="3.46272">
        <ele>92.6</ele>
        <time>2023-08-18T08:59:14Z</time>
      </trkpt>
      <trkpt lat="49.54842" lon="3.46273">
        <ele>92.2</ele>
        <time>2023-08-18T08:59:15Z</time>
      </trkpt>
      <trkpt lat="49.54843" lon="3.46274">
        <ele>91.8</ele>
        <time>2023-08-18T08:59:16Z</time>
      </trkpt>
      <trkpt lat="49.54843" lon="3.46276">
        <ele>91</ele>
        <time>2023-08-18T08:59:17Z</time>
      </trkpt>
      <trkpt lat="49.54841" lon="3.46276">
        <ele>90.6</ele>
        <time>2023-08-18T08:59:18Z</time>
      </trkpt>
      <trkpt lat="49.5484" lon="3.46277">
        <ele>90.6</ele>
        <time>2023-08-18T08:59:20Z</time>
      </trkpt>
      <trkpt lat="49.5484" lon="3.46277">
        <ele>90.6</ele>
        <time>2023-08-18T08:59:25Z</time>
      </trkpt>
      <trkpt lat="49.5484" lon="3.46277">
        <ele>90.6</ele>
        <time>2023-08-18T08:59:35Z</time>
      </trkpt>
      <trkpt lat="49.5484" lon="3.46277">
        <ele>90.6</ele>
        <time>2023-08-18T08:59:46Z</time>
      </trkpt>
      <trkpt lat="49.54839" lon="3.46274">
        <ele>90.6</ele>
        <time>2023-08-18T08:59:51Z</time>
      </trkpt>
      <trkpt lat="49.5484" lon="3.46272">
        <ele>90.6</ele>
        <time>2023-08-18T08:59:52Z</time>
      </trkpt>
      <trkpt lat="49.5484" lon="3.4627">
        <ele>90.6</ele>
        <time>2023-08-18T08:59:53Z</time>
      </trkpt>
      <trkpt lat="49.54836" lon="3.46262">
        <ele>90.6</ele>
        <time>2023-08-18T08:59:56Z</time>
      </trkpt>
      <trkpt lat="49.54827" lon="3.46245">
        <ele>90.6</ele>
        <time>2023-08-18T09:00:03Z</time>
      </trkpt>
      <trkpt lat="49.54823" lon="3.46239">
        <ele>90.6</ele>
        <time>2023-08-18T09:00:10Z</time>
      </trkpt>
      <trkpt lat="49.54815" lon="3.4623">
        <ele>91</ele>
        <time>2023-08-18T09:00:16Z</time>
      </trkpt>
      <trkpt lat="49.54813" lon="3.4623">
        <ele>91.4</ele>
        <time>2023-08-18T09:00:17Z</time>
      </trkpt>
      <trkpt lat="49.54813" lon="3.46231">
        <ele>91.8</ele>
        <time>2023-08-18T09:00:18Z</time>
      </trkpt>
      <trkpt lat="49.54812" lon="3.46233">
        <ele>92.2</ele>
        <time>2023-08-18T09:00:19Z</time>
      </trkpt>
      <trkpt lat="49.54811" lon="3.46234">
        <ele>92.6</ele>
        <time>2023-08-18T09:00:20Z</time>
      </trkpt>
      <trkpt lat="49.54808" lon="3.46239">
        <ele>92.6</ele>
        <time>2023-08-18T09:00:26Z</time>
      </trkpt>
      <trkpt lat="49.548" lon="3.46245">
        <ele>92.6</ele>
        <time>2023-08-18T09:00:31Z</time>
      </trkpt>
      <trkpt lat="49.54791" lon="3.46256">
        <ele>92.6</ele>
        <time>2023-08-18T09:00:37Z</time>
      </trkpt>
      <trkpt lat="49.54786" lon="3.46259">
        <ele>92.6</ele>
        <time>2023-08-18T09:00:43Z</time>
      </trkpt>
      <trkpt lat="49.54784" lon="3.46261">
        <ele>92.6</ele>
        <time>2023-08-18T09:00:46Z</time>
      </trkpt>
      <trkpt lat="49.54781" lon="3.46262">
        <ele>92.6</ele>
        <time>2023-08-18T09:00:48Z</time>
      </trkpt>
      <trkpt lat="49.54772" lon="3.46268">
        <ele>92.6</ele>
        <time>2023-08-18T09:00:53Z</time>
      </trkpt>
      <trkpt lat="49.54769" lon="3.46271">
        <ele>92.6</ele>
        <time>2023-08-18T09:00:57Z</time>
      </trkpt>
      <trkpt lat="49.54764" lon="3.46272">
        <ele>92.6</ele>
        <time>2023-08-18T09:01:03Z</time>
      </trkpt>
      <trkpt lat="49.54755" lon="3.46277">
        <ele>92.6</ele>
        <time>2023-08-18T09:01:08Z</time>
      </trkpt>
      <trkpt lat="49.54753" lon="3.46277">
        <ele>92.6</ele>
        <time>2023-08-18T09:01:13Z</time>
      </trkpt>
      <trkpt lat="49.54746" lon="3.46281">
        <ele>92.6</ele>
        <time>2023-08-18T09:01:18Z</time>
      </trkpt>
      <trkpt lat="49.5474" lon="3.46283">
        <ele>92.6</ele>
        <time>2023-08-18T09:01:22Z</time>
      </trkpt>
      <trkpt lat="49.54739" lon="3.46284">
        <ele>92.6</ele>
        <time>2023-08-18T09:01:23Z</time>
      </trkpt>
      <trkpt lat="49.54735" lon="3.46289">
        <ele>92.6</ele>
        <time>2023-08-18T09:01:28Z</time>
      </trkpt>
      <trkpt lat="49.54731" lon="3.46292">
        <ele>92.6</ele>
        <time>2023-08-18T09:01:30Z</time>
      </trkpt>
      <trkpt lat="49.54727" lon="3.46297">
        <ele>92.6</ele>
        <time>2023-08-18T09:01:33Z</time>
      </trkpt>
      <trkpt lat="49.54725" lon="3.463">
        <ele>92.6</ele>
        <time>2023-08-18T09:01:38Z</time>
      </trkpt>
      <trkpt lat="49.54724" lon="3.463">
        <ele>92.6</ele>
        <time>2023-08-18T09:01:39Z</time>
      </trkpt>
      <trkpt lat="49.5472" lon="3.46303">
        <ele>92.6</ele>
        <time>2023-08-18T09:01:42Z</time>
      </trkpt>
      <trkpt lat="49.54717" lon="3.46307">
        <ele>92.6</ele>
        <time>2023-08-18T09:01:46Z</time>
      </trkpt>
      <trkpt lat="49.54715" lon="3.46312">
        <ele>92.6</ele>
        <time>2023-08-18T09:01:50Z</time>
      </trkpt>
      <trkpt lat="49.54713" lon="3.46311">
        <ele>93</ele>
        <time>2023-08-18T09:01:53Z</time>
      </trkpt>
      <trkpt lat="49.54714" lon="3.46312">
        <ele>93.4</ele>
        <time>2023-08-18T09:01:54Z</time>
      </trkpt>
      <trkpt lat="49.54713" lon="3.46312">
        <ele>93.8</ele>
        <time>2023-08-18T09:01:55Z</time>
      </trkpt>
      <trkpt lat="49.54713" lon="3.46312">
        <ele>94.2</ele>
        <time>2023-08-18T09:01:56Z</time>
      </trkpt>
      <trkpt lat="49.54713" lon="3.46312">
        <ele>94.6</ele>
        <time>2023-08-18T09:01:57Z</time>
      </trkpt>
      <trkpt lat="49.54713" lon="3.46312">
        <ele>94.6</ele>
        <time>2023-08-18T09:02:01Z</time>
      </trkpt>
      <trkpt lat="49.54713" lon="3.46312">
        <ele>94.6</ele>
        <time>2023-08-18T09:02:08Z</time>
      </trkpt>
      <trkpt lat="49.54713" lon="3.46312">
        <ele>94.6</ele>
        <time>2023-08-18T09:02:15Z</time>
      </trkpt>
      <trkpt lat="49.54714" lon="3.46311">
        <ele>94.6</ele>
        <time>2023-08-18T09:02:20Z</time>
      </trkpt>
      <trkpt lat="49.54715" lon="3.46312">
        <ele>94.6</ele>
        <time>2023-08-18T09:02:26Z</time>
      </trkpt>
      <trkpt lat="49.54714" lon="3.46314">
        <ele>94.6</ele>
        <time>2023-08-18T09:02:29Z</time>
      </trkpt>
      <trkpt lat="49.54714" lon="3.46318">
        <ele>94.6</ele>
        <time>2023-08-18T09:02:32Z</time>
      </trkpt>
      <trkpt lat="49.54714" lon="3.46319">
        <ele>94.6</ele>
        <time>2023-08-18T09:02:37Z</time>
      </trkpt>
      <trkpt lat="49.54714" lon="3.46319">
        <ele>94.6</ele>
        <time>2023-08-18T09:02:52Z</time>
      </trkpt>
      <trkpt lat="49.54714" lon="3.46318">
        <ele>94.6</ele>
        <time>2023-08-18T09:03:00Z</time>
      </trkpt>
      <trkpt lat="49.54714" lon="3.46318">
        <ele>94.6</ele>
        <time>2023-08-18T09:03:11Z</time>
      </trkpt>
      <trkpt lat="49.54714" lon="3.46318">
        <ele>94.6</ele>
        <time>2023-08-18T09:03:17Z</time>
      </trkpt>
      <trkpt lat="49.54714" lon="3.46318">
        <ele>94.6</ele>
        <time>2023-08-18T09:03:22Z</time>
      </trkpt>
      <trkpt lat="49.54714" lon="3.46318">
        <ele>94.6</ele>
        <time>2023-08-18T09:03:28Z</time>
      </trkpt>
      <trkpt lat="49.54714" lon="3.46318">
        <ele>94.6</ele>
        <time>2023-08-18T09:03:35Z</time>
      </trkpt>
      <trkpt lat="49.54714" lon="3.46318">
        <ele>94.6</ele>
        <time>2023-08-18T09:03:40Z</time>
      </trkpt>
      <trkpt lat="49.54714" lon="3.46318">
        <ele>94.6</ele>
        <time>2023-08-18T09:03:41Z</time>
      </trkpt>
      <trkpt lat="49.54714" lon="3.46318">
        <ele>94.6</ele>
        <time>2023-08-18T09:03:48Z</time>
      </trkpt>
      <trkpt lat="49.54714" lon="3.46318">
        <ele>94.6</ele>
        <time>2023-08-18T09:03:57Z</time>
      </trkpt>
      <trkpt lat="49.54714" lon="3.46318">
        <ele>94.6</ele>
        <time>2023-08-18T09:04:02Z</time>
      </trkpt>
      <trkpt lat="49.54714" lon="3.46318">
        <ele>94.6</ele>
        <time>2023-08-18T09:04:08Z</time>
      </trkpt>
      <trkpt lat="49.54714" lon="3.46318">
        <ele>94.6</ele>
        <time>2023-08-18T09:04:16Z</time>
      </trkpt>
      <trkpt lat="49.54714" lon="3.46318">
        <ele>94.6</ele>
        <time>2023-08-18T09:04:26Z</time>
      </trkpt>
      <trkpt lat="49.54714" lon="3.46318">
        <ele>94.6</ele>
        <time>2023-08-18T09:04:34Z</time>
      </trkpt>
      <trkpt lat="49.54714" lon="3.46318">
        <ele>94.6</ele>
        <time>2023-08-18T09:04:43Z</time>
      </trkpt>
      <trkpt lat="49.54714" lon="3.46318">
        <ele>94.6</ele>
        <time>2023-08-18T09:04:56Z</time>
      </trkpt>
      <trkpt lat="49.54714" lon="3.46318">
        <ele>94.6</ele>
        <time>2023-08-18T09:05:05Z</time>
      </trkpt>
      <trkpt lat="49.54714" lon="3.46318">
        <ele>94.6</ele>
        <time>2023-08-18T09:05:09Z</time>
      </trkpt>
      <trkpt lat="49.54714" lon="3.46318">
        <ele>94.6</ele>
        <time>2023-08-18T09:05:17Z</time>
      </trkpt>
      <trkpt lat="49.54714" lon="3.46318">
        <ele>94.6</ele>
        <time>2023-08-18T09:05:24Z</time>
      </trkpt>
      <trkpt lat="49.54714" lon="3.46318">
        <ele>94.6</ele>
        <time>2023-08-18T09:05:29Z</time>
      </trkpt>
      <trkpt lat="49.54714" lon="3.46317">
        <ele>94.6</ele>
        <time>2023-08-18T09:05:37Z</time>
      </trkpt>
      <trkpt lat="49.54714" lon="3.46317">
        <ele>94.6</ele>
        <time>2023-08-18T09:05:47Z</time>
      </trkpt>
      <trkpt lat="49.54714" lon="3.46317">
        <ele>94.6</ele>
        <time>2023-08-18T09:05:53Z</time>
      </trkpt>
      <trkpt lat="49.54714" lon="3.46317">
        <ele>94.6</ele>
        <time>2023-08-18T09:06:05Z</time>
      </trkpt>
      <trkpt lat="49.54714" lon="3.46315">
        <ele>94.6</ele>
        <time>2023-08-18T09:06:12Z</time>
      </trkpt>
      <trkpt lat="49.54714" lon="3.46315">
        <ele>94.6</ele>
        <time>2023-08-18T09:06:19Z</time>
      </trkpt>
      <trkpt lat="49.54714" lon="3.46315">
        <ele>94.6</ele>
        <time>2023-08-18T09:06:31Z</time>
      </trkpt>
      <trkpt lat="49.54714" lon="3.46315">
        <ele>94.6</ele>
        <time>2023-08-18T09:06:47Z</time>
      </trkpt>
      <trkpt lat="49.54714" lon="3.46315">
        <ele>94.6</ele>
        <time>2023-08-18T09:07:02Z</time>
      </trkpt>
      <trkpt lat="49.54713" lon="3.46314">
        <ele>94.6</ele>
        <time>2023-08-18T09:07:06Z</time>
      </trkpt>
      <trkpt lat="49.54713" lon="3.46314">
        <ele>94.6</ele>
        <time>2023-08-18T09:07:10Z</time>
      </trkpt>
      <trkpt lat="49.54713" lon="3.46314">
        <ele>94.6</ele>
        <time>2023-08-18T09:07:13Z</time>
      </trkpt>
      <trkpt lat="49.54713" lon="3.46314">
        <ele>94.6</ele>
        <time>2023-08-18T09:07:21Z</time>
      </trkpt>
      <trkpt lat="49.54713" lon="3.46314">
        <ele>94.6</ele>
        <time>2023-08-18T09:07:33Z</time>
      </trkpt>
      <trkpt lat="49.54713" lon="3.46315">
        <ele>94.6</ele>
        <time>2023-08-18T09:07:48Z</time>
      </trkpt>
      <trkpt lat="49.54713" lon="3.46315">
        <ele>94.6</ele>
        <time>2023-08-18T09:08:02Z</time>
      </trkpt>
      <trkpt lat="49.54713" lon="3.46314">
        <ele>94.6</ele>
        <time>2023-08-18T09:08:15Z</time>
      </trkpt>
      <trkpt lat="49.54713" lon="3.46317">
        <ele>94.6</ele>
        <time>2023-08-18T09:08:19Z</time>
      </trkpt>
      <trkpt lat="49.54713" lon="3.46318">
        <ele>94.2</ele>
        <time>2023-08-18T09:08:22Z</time>
      </trkpt>
      <trkpt lat="49.54713" lon="3.46318">
        <ele>93.8</ele>
        <time>2023-08-18T09:08:23Z</time>
      </trkpt>
      <trkpt lat="49.54713" lon="3.46318">
        <ele>93.4</ele>
        <time>2023-08-18T09:08:24Z</time>
      </trkpt>
      <trkpt lat="49.54713" lon="3.46318">
        <ele>93</ele>
        <time>2023-08-18T09:08:25Z</time>
      </trkpt>
      <trkpt lat="49.54713" lon="3.46318">
        <ele>92.6</ele>
        <time>2023-08-18T09:08:26Z</time>
      </trkpt>
      <trkpt lat="49.54713" lon="3.46318">
        <ele>92.6</ele>
        <time>2023-08-18T09:08:32Z</time>
      </trkpt>
      <trkpt lat="49.54713" lon="3.46318">
        <ele>92.6</ele>
        <time>2023-08-18T09:08:38Z</time>
      </trkpt>
      <trkpt lat="49.54713" lon="3.46318">
        <ele>92.6</ele>
        <time>2023-08-18T09:08:46Z</time>
      </trkpt>
      <trkpt lat="49.54713" lon="3.46318">
        <ele>92.6</ele>
        <time>2023-08-18T09:08:47Z</time>
      </trkpt>
      <trkpt lat="49.54713" lon="3.46318">
        <ele>92.6</ele>
        <time>2023-08-18T09:08:57Z</time>
      </trkpt>
      <trkpt lat="49.54711" lon="3.46322">
        <ele>92.6</ele>
        <time>2023-08-18T09:09:03Z</time>
      </trkpt>
      <trkpt lat="49.54707" lon="3.46329">
        <ele>92.6</ele>
        <time>2023-08-18T09:09:09Z</time>
      </trkpt>
      <trkpt lat="49.54702" lon="3.46336">
        <ele>92.6</ele>
        <time>2023-08-18T09:09:14Z</time>
      </trkpt>
      <trkpt lat="49.54697" lon="3.46343">
        <ele>92.6</ele>
        <time>2023-08-18T09:09:21Z</time>
      </trkpt>
      <trkpt lat="49.54694" lon="3.46347">
        <ele>92.6</ele>
        <time>2023-08-18T09:09:27Z</time>
      </trkpt>
      <trkpt lat="49.54691" lon="3.46351">
        <ele>93</ele>
        <time>2023-08-18T09:09:30Z</time>
      </trkpt>
      <trkpt lat="49.5469" lon="3.46352">
        <ele>93.4</ele>
        <time>2023-08-18T09:09:31Z</time>
      </trkpt>
      <trkpt lat="49.54688" lon="3.46354">
        <ele>93.8</ele>
        <time>2023-08-18T09:09:32Z</time>
      </trkpt>
      <trkpt lat="49.54688" lon="3.46355">
        <ele>94.2</ele>
        <time>2023-08-18T09:09:33Z</time>
      </trkpt>
      <trkpt lat="49.54687" lon="3.46355">
        <ele>94.6</ele>
        <time>2023-08-18T09:09:34Z</time>
      </trkpt>
      <trkpt lat="49.54686" lon="3.46357">
        <ele>94.6</ele>
        <time>2023-08-18T09:09:37Z</time>
      </trkpt>
      <trkpt lat="49.54679" lon="3.46365">
        <ele>95</ele>
        <time>2023-08-18T09:09:44Z</time>
      </trkpt>
      <trkpt lat="49.54678" lon="3.46365">
        <ele>95.4</ele>
        <time>2023-08-18T09:09:45Z</time>
      </trkpt>
      <trkpt lat="49.54677" lon="3.46366">
        <ele>95.8</ele>
        <time>2023-08-18T09:09:46Z</time>
      </trkpt>
      <trkpt lat="49.54676" lon="3.46367">
        <ele>96.2</ele>
        <time>2023-08-18T09:09:47Z</time>
      </trkpt>
      <trkpt lat="49.54674" lon="3.46369">
        <ele>96.6</ele>
        <time>2023-08-18T09:09:48Z</time>
      </trkpt>
      <trkpt lat="49.54672" lon="3.4637">
        <ele>96.6</ele>
        <time>2023-08-18T09:09:49Z</time>
      </trkpt>
      <trkpt lat="49.54667" lon="3.46375">
        <ele>96.6</ele>
        <time>2023-08-18T09:09:54Z</time>
      </trkpt>
      <trkpt lat="49.54664" lon="3.46379">
        <ele>96.6</ele>
        <time>2023-08-18T09:09:58Z</time>
      </trkpt>
      <trkpt lat="49.54661" lon="3.46383">
        <ele>96.6</ele>
        <time>2023-08-18T09:10:03Z</time>
      </trkpt>
      <trkpt lat="49.54657" lon="3.4639">
        <ele>96.6</ele>
        <time>2023-08-18T09:10:08Z</time>
      </trkpt>
      <trkpt lat="49.54654" lon="3.46393">
        <ele>96.6</ele>
        <time>2023-08-18T09:10:13Z</time>
      </trkpt>
      <trkpt lat="49.54648" lon="3.46399">
        <ele>96.6</ele>
        <time>2023-08-18T09:10:19Z</time>
      </trkpt>
      <trkpt lat="49.54643" lon="3.46402">
        <ele>96.6</ele>
        <time>2023-08-18T09:10:24Z</time>
      </trkpt>
      <trkpt lat="49.54636" lon="3.46409">
        <ele>96.2</ele>
        <time>2023-08-18T09:10:29Z</time>
      </trkpt>
      <trkpt lat="49.54635" lon="3.46411">
        <ele>95.6</ele>
        <time>2023-08-18T09:10:30Z</time>
      </trkpt>
      <trkpt lat="49.54635" lon="3.46412">
        <ele>95.2</ele>
        <time>2023-08-18T09:10:31Z</time>
      </trkpt>
      <trkpt lat="49.54634" lon="3.46412">
        <ele>94.8</ele>
        <time>2023-08-18T09:10:32Z</time>
      </trkpt>
      <trkpt lat="49.54634" lon="3.46412">
        <ele>94.4</ele>
        <time>2023-08-18T09:10:33Z</time>
      </trkpt>
      <trkpt lat="49.54633" lon="3.46412">
        <ele>94.4</ele>
        <time>2023-08-18T09:10:34Z</time>
      </trkpt>
      <trkpt lat="49.54632" lon="3.46412">
        <ele>94.4</ele>
        <time>2023-08-18T09:10:35Z</time>
      </trkpt>
      <trkpt lat="49.54626" lon="3.46416">
        <ele>94.4</ele>
        <time>2023-08-18T09:10:39Z</time>
      </trkpt>
      <trkpt lat="49.54619" lon="3.46424">
        <ele>94.4</ele>
        <time>2023-08-18T09:10:44Z</time>
      </trkpt>
      <trkpt lat="49.54619" lon="3.46424">
        <ele>94</ele>
        <time>2023-08-18T09:10:46Z</time>
      </trkpt>
      <trkpt lat="49.54619" lon="3.46424">
        <ele>93.6</ele>
        <time>2023-08-18T09:10:47Z</time>
      </trkpt>
      <trkpt lat="49.54619" lon="3.46423">
        <ele>93</ele>
        <time>2023-08-18T09:10:48Z</time>
      </trkpt>
      <trkpt lat="49.54619" lon="3.46423">
        <ele>92.6</ele>
        <time>2023-08-18T09:10:49Z</time>
      </trkpt>
      <trkpt lat="49.54617" lon="3.46424">
        <ele>92.2</ele>
        <time>2023-08-18T09:10:50Z</time>
      </trkpt>
      <trkpt lat="49.5461" lon="3.4643">
        <ele>92.2</ele>
        <time>2023-08-18T09:10:54Z</time>
      </trkpt>
      <trkpt lat="49.54606" lon="3.46433">
        <ele>92.2</ele>
        <time>2023-08-18T09:10:58Z</time>
      </trkpt>
      <trkpt lat="49.54603" lon="3.46434">
        <ele>92.2</ele>
        <time>2023-08-18T09:11:03Z</time>
      </trkpt>
      <trkpt lat="49.54601" lon="3.46435">
        <ele>92.2</ele>
        <time>2023-08-18T09:11:04Z</time>
      </trkpt>
      <trkpt lat="49.54592" lon="3.46442">
        <ele>92.2</ele>
        <time>2023-08-18T09:11:09Z</time>
      </trkpt>
      <trkpt lat="49.54589" lon="3.46444">
        <ele>92.2</ele>
        <time>2023-08-18T09:11:14Z</time>
      </trkpt>
      <trkpt lat="49.54581" lon="3.46449">
        <ele>92.2</ele>
        <time>2023-08-18T09:11:20Z</time>
      </trkpt>
      <trkpt lat="49.54576" lon="3.46452">
        <ele>92.2</ele>
        <time>2023-08-18T09:11:25Z</time>
      </trkpt>
      <trkpt lat="49.54573" lon="3.46455">
        <ele>92.2</ele>
        <time>2023-08-18T09:11:27Z</time>
      </trkpt>
      <trkpt lat="49.54572" lon="3.46456">
        <ele>92.2</ele>
        <time>2023-08-18T09:11:29Z</time>
      </trkpt>
      <trkpt lat="49.54569" lon="3.46456">
        <ele>92.2</ele>
        <time>2023-08-18T09:11:31Z</time>
      </trkpt>
      <trkpt lat="49.54564" lon="3.46461">
        <ele>92.2</ele>
        <time>2023-08-18T09:11:34Z</time>
      </trkpt>
      <trkpt lat="49.54558" lon="3.46465">
        <ele>92.2</ele>
        <time>2023-08-18T09:11:39Z</time>
      </trkpt>
      <trkpt lat="49.54552" lon="3.46469">
        <ele>92.2</ele>
        <time>2023-08-18T09:11:45Z</time>
      </trkpt>
      <trkpt lat="49.54545" lon="3.46473">
        <ele>92.2</ele>
        <time>2023-08-18T09:11:50Z</time>
      </trkpt>
      <trkpt lat="49.5454" lon="3.46476">
        <ele>92.2</ele>
        <time>2023-08-18T09:11:56Z</time>
      </trkpt>
      <trkpt lat="49.5453" lon="3.4648">
        <ele>92.2</ele>
        <time>2023-08-18T09:12:05Z</time>
      </trkpt>
      <trkpt lat="49.54523" lon="3.46486">
        <ele>92.2</ele>
        <time>2023-08-18T09:12:12Z</time>
      </trkpt>
      <trkpt lat="49.5452" lon="3.46489">
        <ele>92.2</ele>
        <time>2023-08-18T09:12:14Z</time>
      </trkpt>
      <trkpt lat="49.54518" lon="3.46491">
        <ele>92.2</ele>
        <time>2023-08-18T09:12:17Z</time>
      </trkpt>
      <trkpt lat="49.54516" lon="3.4649">
        <ele>92.2</ele>
        <time>2023-08-18T09:12:19Z</time>
      </trkpt>
      <trkpt lat="49.54514" lon="3.46492">
        <ele>92.2</ele>
        <time>2023-08-18T09:12:21Z</time>
      </trkpt>
      <trkpt lat="49.54512" lon="3.46492">
        <ele>92.6</ele>
        <time>2023-08-18T09:12:22Z</time>
      </trkpt>
      <trkpt lat="49.54511" lon="3.46493">
        <ele>93</ele>
        <time>2023-08-18T09:12:23Z</time>
      </trkpt>
      <trkpt lat="49.54509" lon="3.46495">
        <ele>93.4</ele>
        <time>2023-08-18T09:12:24Z</time>
      </trkpt>
      <trkpt lat="49.54507" lon="3.46495">
        <ele>93.8</ele>
        <time>2023-08-18T09:12:25Z</time>
      </trkpt>
      <trkpt lat="49.54506" lon="3.46497">
        <ele>94.2</ele>
        <time>2023-08-18T09:12:26Z</time>
      </trkpt>
      <trkpt lat="49.54505" lon="3.46499">
        <ele>94.2</ele>
        <time>2023-08-18T09:12:29Z</time>
      </trkpt>
      <trkpt lat="49.54499" lon="3.46504">
        <ele>94.2</ele>
        <time>2023-08-18T09:12:35Z</time>
      </trkpt>
      <trkpt lat="49.54494" lon="3.46508">
        <ele>94.2</ele>
        <time>2023-08-18T09:12:41Z</time>
      </trkpt>
      <trkpt lat="49.54493" lon="3.46509">
        <ele>94.6</ele>
        <time>2023-08-18T09:12:42Z</time>
      </trkpt>
      <trkpt lat="49.54491" lon="3.46511">
        <ele>95</ele>
        <time>2023-08-18T09:12:43Z</time>
      </trkpt>
      <trkpt lat="49.5449" lon="3.46512">
        <ele>95.4</ele>
        <time>2023-08-18T09:12:44Z</time>
      </trkpt>
      <trkpt lat="49.54488" lon="3.46514">
        <ele>95.8</ele>
        <time>2023-08-18T09:12:45Z</time>
      </trkpt>
      <trkpt lat="49.54487" lon="3.46516">
        <ele>96.2</ele>
        <time>2023-08-18T09:12:46Z</time>
      </trkpt>
      <trkpt lat="49.54486" lon="3.46517">
        <ele>96.2</ele>
        <time>2023-08-18T09:12:50Z</time>
      </trkpt>
      <trkpt lat="49.54484" lon="3.46518">
        <ele>96.2</ele>
        <time>2023-08-18T09:12:51Z</time>
      </trkpt>
      <trkpt lat="49.5448" lon="3.46522">
        <ele>96.2</ele>
        <time>2023-08-18T09:12:54Z</time>
      </trkpt>
      <trkpt lat="49.54475" lon="3.46527">
        <ele>96.2</ele>
        <time>2023-08-18T09:13:00Z</time>
      </trkpt>
      <trkpt lat="49.54472" lon="3.46529">
        <ele>96.2</ele>
        <time>2023-08-18T09:13:03Z</time>
      </trkpt>
      <trkpt lat="49.5447" lon="3.46531">
        <ele>96.2</ele>
        <time>2023-08-18T09:13:06Z</time>
      </trkpt>
      <trkpt lat="49.54464" lon="3.46538">
        <ele>96.2</ele>
        <time>2023-08-18T09:13:12Z</time>
      </trkpt>
      <trkpt lat="49.54459" lon="3.46545">
        <ele>95.8</ele>
        <time>2023-08-18T09:13:19Z</time>
      </trkpt>
      <trkpt lat="49.54458" lon="3.46547">
        <ele>95.4</ele>
        <time>2023-08-18T09:13:20Z</time>
      </trkpt>
      <trkpt lat="49.54457" lon="3.46547">
        <ele>95</ele>
        <time>2023-08-18T09:13:21Z</time>
      </trkpt>
      <trkpt lat="49.54457" lon="3.46547">
        <ele>94.6</ele>
        <time>2023-08-18T09:13:22Z</time>
      </trkpt>
      <trkpt lat="49.54456" lon="3.46546">
        <ele>94.2</ele>
        <time>2023-08-18T09:13:23Z</time>
      </trkpt>
      <trkpt lat="49.54455" lon="3.46545">
        <ele>94.2</ele>
        <time>2023-08-18T09:13:25Z</time>
      </trkpt>
      <trkpt lat="49.54454" lon="3.46546">
        <ele>94.2</ele>
        <time>2023-08-18T09:13:29Z</time>
      </trkpt>
      <trkpt lat="49.54454" lon="3.46546">
        <ele>94.2</ele>
        <time>2023-08-18T09:13:30Z</time>
      </trkpt>
      <trkpt lat="49.54454" lon="3.46546">
        <ele>94.2</ele>
        <time>2023-08-18T09:13:33Z</time>
      </trkpt>
      <trkpt lat="49.54453" lon="3.46545">
        <ele>94.2</ele>
        <time>2023-08-18T09:13:35Z</time>
      </trkpt>
      <trkpt lat="49.54451" lon="3.46543">
        <ele>94.2</ele>
        <time>2023-08-18T09:13:39Z</time>
      </trkpt>
      <trkpt lat="49.5445" lon="3.46541">
        <ele>94.2</ele>
        <time>2023-08-18T09:13:43Z</time>
      </trkpt>
      <trkpt lat="49.5445" lon="3.46541">
        <ele>94.2</ele>
        <time>2023-08-18T09:13:49Z</time>
      </trkpt>
      <trkpt lat="49.5445" lon="3.46541">
        <ele>94.2</ele>
        <time>2023-08-18T09:13:52Z</time>
      </trkpt>
      <trkpt lat="49.5445" lon="3.4654">
        <ele>94.2</ele>
        <time>2023-08-18T09:13:53Z</time>
      </trkpt>
      <trkpt lat="49.5445" lon="3.4654">
        <ele>94.2</ele>
        <time>2023-08-18T09:13:58Z</time>
      </trkpt>
      <trkpt lat="49.5445" lon="3.46541">
        <ele>94.2</ele>
        <time>2023-08-18T09:14:03Z</time>
      </trkpt>
      <trkpt lat="49.5445" lon="3.4654">
        <ele>94.2</ele>
        <time>2023-08-18T09:14:04Z</time>
      </trkpt>
      <trkpt lat="49.5445" lon="3.4654">
        <ele>94.2</ele>
        <time>2023-08-18T09:14:06Z</time>
      </trkpt>
      <trkpt lat="49.5445" lon="3.4654">
        <ele>94.2</ele>
        <time>2023-08-18T09:14:13Z</time>
      </trkpt>
      <trkpt lat="49.5445" lon="3.46541">
        <ele>94.2</ele>
        <time>2023-08-18T09:14:23Z</time>
      </trkpt>
      <trkpt lat="49.54451" lon="3.46542">
        <ele>94.2</ele>
        <time>2023-08-18T09:14:24Z</time>
      </trkpt>
      <trkpt lat="49.54453" lon="3.46543">
        <ele>94.2</ele>
        <time>2023-08-18T09:14:28Z</time>
      </trkpt>
      <trkpt lat="49.54454" lon="3.46544">
        <ele>94.2</ele>
        <time>2023-08-18T09:14:35Z</time>
      </trkpt>
      <trkpt lat="49.54454" lon="3.46545">
        <ele>94.2</ele>
        <time>2023-08-18T09:14:40Z</time>
      </trkpt>
      <trkpt lat="49.54454" lon="3.46547">
        <ele>94.2</ele>
        <time>2023-08-18T09:14:47Z</time>
      </trkpt>
      <trkpt lat="49.54454" lon="3.46547">
        <ele>94.2</ele>
        <time>2023-08-18T09:14:53Z</time>
      </trkpt>
      <trkpt lat="49.54454" lon="3.46548">
        <ele>94.2</ele>
        <time>2023-08-18T09:14:59Z</time>
      </trkpt>
      <trkpt lat="49.54453" lon="3.46547">
        <ele>94.2</ele>
        <time>2023-08-18T09:15:04Z</time>
      </trkpt>
      <trkpt lat="49.54452" lon="3.46549">
        <ele>94.2</ele>
        <time>2023-08-18T09:15:08Z</time>
      </trkpt>
      <trkpt lat="49.54452" lon="3.46551">
        <ele>94.2</ele>
        <time>2023-08-18T09:15:10Z</time>
      </trkpt>
      <trkpt lat="49.54448" lon="3.46559">
        <ele>94.2</ele>
        <time>2023-08-18T09:15:16Z</time>
      </trkpt>
      <trkpt lat="49.54444" lon="3.46564">
        <ele>94.2</ele>
        <time>2023-08-18T09:15:21Z</time>
      </trkpt>
      <trkpt lat="49.54443" lon="3.46566">
        <ele>93.8</ele>
        <time>2023-08-18T09:15:22Z</time>
      </trkpt>
      <trkpt lat="49.54443" lon="3.46567">
        <ele>93.4</ele>
        <time>2023-08-18T09:15:23Z</time>
      </trkpt>
      <trkpt lat="49.54442" lon="3.46568">
        <ele>93</ele>
        <time>2023-08-18T09:15:24Z</time>
      </trkpt>
      <trkpt lat="49.54441" lon="3.4657">
        <ele>92.6</ele>
        <time>2023-08-18T09:15:25Z</time>
      </trkpt>
      <trkpt lat="49.54441" lon="3.4657">
        <ele>92.2</ele>
        <time>2023-08-18T09:15:26Z</time>
      </trkpt>
      <trkpt lat="49.54435" lon="3.46578">
        <ele>92.2</ele>
        <time>2023-08-18T09:15:32Z</time>
      </trkpt>
      <trkpt lat="49.54434" lon="3.46584">
        <ele>92.2</ele>
        <time>2023-08-18T09:15:37Z</time>
      </trkpt>
      <trkpt lat="49.54431" lon="3.46593">
        <ele>92.2</ele>
        <time>2023-08-18T09:15:41Z</time>
      </trkpt>
      <trkpt lat="49.54428" lon="3.466">
        <ele>92.2</ele>
        <time>2023-08-18T09:15:46Z</time>
      </trkpt>
      <trkpt lat="49.54425" lon="3.46608">
        <ele>92.2</ele>
        <time>2023-08-18T09:15:52Z</time>
      </trkpt>
      <trkpt lat="49.54424" lon="3.4661">
        <ele>92.2</ele>
        <time>2023-08-18T09:15:53Z</time>
      </trkpt>
      <trkpt lat="49.54419" lon="3.46631">
        <ele>92.2</ele>
        <time>2023-08-18T09:16:01Z</time>
      </trkpt>
      <trkpt lat="49.54419" lon="3.46636">
        <ele>92.2</ele>
        <time>2023-08-18T09:16:04Z</time>
      </trkpt>
      <trkpt lat="49.54419" lon="3.46638">
        <ele>92.2</ele>
        <time>2023-08-18T09:16:06Z</time>
      </trkpt>
      <trkpt lat="49.54416" lon="3.46647">
        <ele>92.2</ele>
        <time>2023-08-18T09:16:13Z</time>
      </trkpt>
      <trkpt lat="49.54412" lon="3.46662">
        <ele>92.2</ele>
        <time>2023-08-18T09:16:19Z</time>
      </trkpt>
      <trkpt lat="49.54412" lon="3.46675">
        <ele>92.2</ele>
        <time>2023-08-18T09:16:24Z</time>
      </trkpt>
      <trkpt lat="49.54411" lon="3.46681">
        <ele>92.2</ele>
        <time>2023-08-18T09:16:29Z</time>
      </trkpt>
      <trkpt lat="49.54409" lon="3.46689">
        <ele>92.2</ele>
        <time>2023-08-18T09:16:36Z</time>
      </trkpt>
      <trkpt lat="49.54409" lon="3.46691">
        <ele>92.2</ele>
        <time>2023-08-18T09:16:37Z</time>
      </trkpt>
      <trkpt lat="49.54406" lon="3.467">
        <ele>92.2</ele>
        <time>2023-08-18T09:16:42Z</time>
      </trkpt>
      <trkpt lat="49.54403" lon="3.46718">
        <ele>92.2</ele>
        <time>2023-08-18T09:16:49Z</time>
      </trkpt>
      <trkpt lat="49.54402" lon="3.46724">
        <ele>92.2</ele>
        <time>2023-08-18T09:16:53Z</time>
      </trkpt>
      <trkpt lat="49.54402" lon="3.46725">
        <ele>92.2</ele>
        <time>2023-08-18T09:16:54Z</time>
      </trkpt>
      <trkpt lat="49.54398" lon="3.46739">
        <ele>92.2</ele>
        <time>2023-08-18T09:17:02Z</time>
      </trkpt>
      <trkpt lat="49.54395" lon="3.46753">
        <ele>92.2</ele>
        <time>2023-08-18T09:17:08Z</time>
      </trkpt>
      <trkpt lat="49.54392" lon="3.46763">
        <ele>92.2</ele>
        <time>2023-08-18T09:17:14Z</time>
      </trkpt>
      <trkpt lat="49.54389" lon="3.46772">
        <ele>92.2</ele>
        <time>2023-08-18T09:17:22Z</time>
      </trkpt>
      <trkpt lat="49.54385" lon="3.46786">
        <ele>92.2</ele>
        <time>2023-08-18T09:17:27Z</time>
      </trkpt>
      <trkpt lat="49.54383" lon="3.46794">
        <ele>92.2</ele>
        <time>2023-08-18T09:17:32Z</time>
      </trkpt>
      <trkpt lat="49.54379" lon="3.46803">
        <ele>92.2</ele>
        <time>2023-08-18T09:17:39Z</time>
      </trkpt>
      <trkpt lat="49.54373" lon="3.46814">
        <ele>92.2</ele>
        <time>2023-08-18T09:17:47Z</time>
      </trkpt>
      <trkpt lat="49.54372" lon="3.46816">
        <ele>92.6</ele>
        <time>2023-08-18T09:17:49Z</time>
      </trkpt>
      <trkpt lat="49.54371" lon="3.46818">
        <ele>93</ele>
        <time>2023-08-18T09:17:50Z</time>
      </trkpt>
      <trkpt lat="49.5437" lon="3.4682">
        <ele>93.4</ele>
        <time>2023-08-18T09:17:51Z</time>
      </trkpt>
      <trkpt lat="49.54369" lon="3.46821">
        <ele>93.8</ele>
        <time>2023-08-18T09:17:52Z</time>
      </trkpt>
      <trkpt lat="49.54368" lon="3.46823">
        <ele>94.2</ele>
        <time>2023-08-18T09:17:53Z</time>
      </trkpt>
      <trkpt lat="49.54368" lon="3.46823">
        <ele>94.2</ele>
        <time>2023-08-18T09:17:54Z</time>
      </trkpt>
      <trkpt lat="49.54368" lon="3.46825">
        <ele>94.2</ele>
        <time>2023-08-18T09:17:59Z</time>
      </trkpt>
      <trkpt lat="49.54363" lon="3.46836">
        <ele>94.2</ele>
        <time>2023-08-18T09:18:05Z</time>
      </trkpt>
      <trkpt lat="49.54358" lon="3.46846">
        <ele>94.6</ele>
        <time>2023-08-18T09:18:11Z</time>
      </trkpt>
      <trkpt lat="49.54358" lon="3.46846">
        <ele>95</ele>
        <time>2023-08-18T09:18:12Z</time>
      </trkpt>
      <trkpt lat="49.54358" lon="3.46846">
        <ele>95.4</ele>
        <time>2023-08-18T09:18:13Z</time>
      </trkpt>
      <trkpt lat="49.54358" lon="3.46846">
        <ele>95.8</ele>
        <time>2023-08-18T09:18:14Z</time>
      </trkpt>
      <trkpt lat="49.54358" lon="3.46846">
        <ele>96.2</ele>
        <time>2023-08-18T09:18:15Z</time>
      </trkpt>
      <trkpt lat="49.54358" lon="3.46847">
        <ele>96.2</ele>
        <time>2023-08-18T09:18:17Z</time>
      </trkpt>
      <trkpt lat="49.54358" lon="3.46847">
        <ele>96.2</ele>
        <time>2023-08-18T09:18:22Z</time>
      </trkpt>
      <trkpt lat="49.54358" lon="3.46849">
        <ele>96.2</ele>
        <time>2023-08-18T09:18:28Z</time>
      </trkpt>
      <trkpt lat="49.54358" lon="3.46848">
        <ele>96.2</ele>
        <time>2023-08-18T09:18:34Z</time>
      </trkpt>
      <trkpt lat="49.5436" lon="3.46848">
        <ele>96.2</ele>
        <time>2023-08-18T09:18:38Z</time>
      </trkpt>
      <trkpt lat="49.5436" lon="3.46848">
        <ele>96.2</ele>
        <time>2023-08-18T09:18:46Z</time>
      </trkpt>
      <trkpt lat="49.54359" lon="3.46847">
        <ele>96.2</ele>
        <time>2023-08-18T09:18:55Z</time>
      </trkpt>
      <trkpt lat="49.54358" lon="3.46846">
        <ele>96.2</ele>
        <time>2023-08-18T09:19:02Z</time>
      </trkpt>
      <trkpt lat="49.54357" lon="3.46847">
        <ele>96.2</ele>
        <time>2023-08-18T09:19:07Z</time>
      </trkpt>
      <trkpt lat="49.54358" lon="3.46847">
        <ele>96.2</ele>
        <time>2023-08-18T09:19:10Z</time>
      </trkpt>
      <trkpt lat="49.54358" lon="3.46847">
        <ele>96.2</ele>
        <time>2023-08-18T09:19:17Z</time>
      </trkpt>
      <trkpt lat="49.54357" lon="3.46846">
        <ele>96.2</ele>
        <time>2023-08-18T09:19:21Z</time>
      </trkpt>
      <trkpt lat="49.54356" lon="3.46846">
        <ele>96.2</ele>
        <time>2023-08-18T09:19:27Z</time>
      </trkpt>
      <trkpt lat="49.54356" lon="3.46846">
        <ele>96.2</ele>
        <time>2023-08-18T09:19:32Z</time>
      </trkpt>
      <trkpt lat="49.54357" lon="3.46847">
        <ele>96.2</ele>
        <time>2023-08-18T09:19:38Z</time>
      </trkpt>
      <trkpt lat="49.54357" lon="3.46847">
        <ele>96.2</ele>
        <time>2023-08-18T09:19:48Z</time>
      </trkpt>
      <trkpt lat="49.54357" lon="3.46845">
        <ele>96.2</ele>
        <time>2023-08-18T09:19:52Z</time>
      </trkpt>
      <trkpt lat="49.54359" lon="3.46846">
        <ele>96.2</ele>
        <time>2023-08-18T09:19:57Z</time>
      </trkpt>
      <trkpt lat="49.54359" lon="3.46847">
        <ele>96.2</ele>
        <time>2023-08-18T09:20:06Z</time>
      </trkpt>
      <trkpt lat="49.54359" lon="3.46847">
        <ele>96.2</ele>
        <time>2023-08-18T09:20:20Z</time>
      </trkpt>
      <trkpt lat="49.54359" lon="3.46847">
        <ele>96.2</ele>
        <time>2023-08-18T09:20:36Z</time>
      </trkpt>
      <trkpt lat="49.54359" lon="3.46847">
        <ele>96.2</ele>
        <time>2023-08-18T09:20:51Z</time>
      </trkpt>
      <trkpt lat="49.54359" lon="3.46847">
        <ele>96.2</ele>
        <time>2023-08-18T09:21:08Z</time>
      </trkpt>
      <trkpt lat="49.54359" lon="3.46847">
        <ele>96.2</ele>
        <time>2023-08-18T09:21:26Z</time>
      </trkpt>
      <trkpt lat="49.54359" lon="3.46847">
        <ele>96.2</ele>
        <time>2023-08-18T09:21:42Z</time>
      </trkpt>
      <trkpt lat="49.54359" lon="3.46845">
        <ele>96.2</ele>
        <time>2023-08-18T09:21:48Z</time>
      </trkpt>
      <trkpt lat="49.54359" lon="3.46845">
        <ele>96.2</ele>
        <time>2023-08-18T09:21:52Z</time>
      </trkpt>
      <trkpt lat="49.54358" lon="3.46845">
        <ele>96.2</ele>
        <time>2023-08-18T09:21:58Z</time>
      </trkpt>
      <trkpt lat="49.54359" lon="3.46845">
        <ele>96.2</ele>
        <time>2023-08-18T09:22:06Z</time>
      </trkpt>
      <trkpt lat="49.54359" lon="3.46845">
        <ele>96.2</ele>
        <time>2023-08-18T09:22:17Z</time>
      </trkpt>
      <trkpt lat="49.54359" lon="3.46845">
        <ele>96.2</ele>
        <time>2023-08-18T09:22:25Z</time>
      </trkpt>
      <trkpt lat="49.54359" lon="3.46845">
        <ele>96.2</ele>
        <time>2023-08-18T09:22:40Z</time>
      </trkpt>
      <trkpt lat="49.54358" lon="3.46851">
        <ele>96.2</ele>
        <time>2023-08-18T09:22:46Z</time>
      </trkpt>
      <trkpt lat="49.54356" lon="3.46858">
        <ele>96.2</ele>
        <time>2023-08-18T09:22:52Z</time>
      </trkpt>
      <trkpt lat="49.54356" lon="3.46863">
        <ele>96.2</ele>
        <time>2023-08-18T09:22:58Z</time>
      </trkpt>
      <trkpt lat="49.54357" lon="3.46866">
        <ele>96.2</ele>
        <time>2023-08-18T09:23:04Z</time>
      </trkpt>
      <trkpt lat="49.54357" lon="3.46866">
        <ele>96.2</ele>
        <time>2023-08-18T09:23:12Z</time>
      </trkpt>
      <trkpt lat="49.54358" lon="3.46865">
        <ele>96.2</ele>
        <time>2023-08-18T09:23:14Z</time>
      </trkpt>
      <trkpt lat="49.5436" lon="3.46867">
        <ele>96.2</ele>
        <time>2023-08-18T09:23:17Z</time>
      </trkpt>
      <trkpt lat="49.54364" lon="3.46868">
        <ele>96.2</ele>
        <time>2023-08-18T09:23:23Z</time>
      </trkpt>
      <trkpt lat="49.54365" lon="3.46867">
        <ele>96.2</ele>
        <time>2023-08-18T09:23:30Z</time>
      </trkpt>
      <trkpt lat="49.54364" lon="3.46867">
        <ele>96.2</ele>
        <time>2023-08-18T09:23:35Z</time>
      </trkpt>
      <trkpt lat="49.54362" lon="3.46866">
        <ele>96.2</ele>
        <time>2023-08-18T09:23:36Z</time>
      </trkpt>
      <trkpt lat="49.54359" lon="3.46864">
        <ele>96.2</ele>
        <time>2023-08-18T09:23:40Z</time>
      </trkpt>
      <trkpt lat="49.54357" lon="3.46863">
        <ele>96.2</ele>
        <time>2023-08-18T09:23:42Z</time>
      </trkpt>
      <trkpt lat="49.54355" lon="3.46858">
        <ele>96.2</ele>
        <time>2023-08-18T09:23:46Z</time>
      </trkpt>
      <trkpt lat="49.54357" lon="3.46851">
        <ele>96.2</ele>
        <time>2023-08-18T09:23:53Z</time>
      </trkpt>
      <trkpt lat="49.54358" lon="3.46847">
        <ele>96.2</ele>
        <time>2023-08-18T09:23:58Z</time>
      </trkpt>
      <trkpt lat="49.54358" lon="3.46848">
        <ele>96.2</ele>
        <time>2023-08-18T09:24:09Z</time>
      </trkpt>
      <trkpt lat="49.54358" lon="3.46848">
        <ele>96.2</ele>
        <time>2023-08-18T09:24:22Z</time>
      </trkpt>
      <trkpt lat="49.54358" lon="3.46848">
        <ele>96.2</ele>
        <time>2023-08-18T09:24:35Z</time>
      </trkpt>
      <trkpt lat="49.54358" lon="3.46848">
        <ele>96.2</ele>
        <time>2023-08-18T09:24:42Z</time>
      </trkpt>
      <trkpt lat="49.54358" lon="3.46848">
        <ele>96.2</ele>
        <time>2023-08-18T09:24:52Z</time>
      </trkpt>
      <trkpt lat="49.54358" lon="3.46848">
        <ele>96.2</ele>
        <time>2023-08-18T09:25:01Z</time>
      </trkpt>
      <trkpt lat="49.54358" lon="3.46848">
        <ele>96.2</ele>
        <time>2023-08-18T09:25:09Z</time>
      </trkpt>
      <trkpt lat="49.54358" lon="3.46848">
        <ele>96.2</ele>
        <time>2023-08-18T09:25:16Z</time>
      </trkpt>
      <trkpt lat="49.54357" lon="3.46846">
        <ele>96.2</ele>
        <time>2023-08-18T09:25:23Z</time>
      </trkpt>
      <trkpt lat="49.54357" lon="3.46846">
        <ele>96.2</ele>
        <time>2023-08-18T09:25:30Z</time>
      </trkpt>
      <trkpt lat="49.54358" lon="3.46846">
        <ele>96.2</ele>
        <time>2023-08-18T09:25:34Z</time>
      </trkpt>
      <trkpt lat="49.54358" lon="3.46845">
        <ele>96.2</ele>
        <time>2023-08-18T09:25:39Z</time>
      </trkpt>
      <trkpt lat="49.54359" lon="3.46845">
        <ele>96.2</ele>
        <time>2023-08-18T09:25:47Z</time>
      </trkpt>
      <trkpt lat="49.54359" lon="3.46845">
        <ele>96.2</ele>
        <time>2023-08-18T09:26:01Z</time>
      </trkpt>
      <trkpt lat="49.54359" lon="3.46845">
        <ele>96.2</ele>
        <time>2023-08-18T09:26:19Z</time>
      </trkpt>
      <trkpt lat="49.54359" lon="3.46846">
        <ele>96.2</ele>
        <time>2023-08-18T09:26:38Z</time>
      </trkpt>
      <trkpt lat="49.54359" lon="3.46846">
        <ele>96.2</ele>
        <time>2023-08-18T09:26:56Z</time>
      </trkpt>
      <trkpt lat="49.54359" lon="3.46846">
        <ele>96.2</ele>
        <time>2023-08-18T09:27:16Z</time>
      </trkpt>
      <trkpt lat="49.54359" lon="3.46846">
        <ele>96.2</ele>
        <time>2023-08-18T09:27:36Z</time>
      </trkpt>
      <trkpt lat="49.54359" lon="3.46846">
        <ele>96.2</ele>
        <time>2023-08-18T09:27:38Z</time>
      </trkpt>
      <trkpt lat="49.54358" lon="3.46845">
        <ele>96.2</ele>
        <time>2023-08-18T09:27:50Z</time>
      </trkpt>
      <trkpt lat="49.54358" lon="3.46845">
        <ele>96.2</ele>
        <time>2023-08-18T09:27:56Z</time>
      </trkpt>
      <trkpt lat="49.54358" lon="3.46845">
        <ele>96.2</ele>
        <time>2023-08-18T09:28:07Z</time>
      </trkpt>
      <trkpt lat="49.54357" lon="3.46845">
        <ele>96.2</ele>
        <time>2023-08-18T09:28:16Z</time>
      </trkpt>
      <trkpt lat="49.54357" lon="3.46846">
        <ele>96.2</ele>
        <time>2023-08-18T09:28:24Z</time>
      </trkpt>
      <trkpt lat="49.54358" lon="3.46847">
        <ele>96.2</ele>
        <time>2023-08-18T09:28:29Z</time>
      </trkpt>
      <trkpt lat="49.54355" lon="3.46854">
        <ele>96.2</ele>
        <time>2023-08-18T09:28:35Z</time>
      </trkpt>
      <trkpt lat="49.54354" lon="3.46863">
        <ele>96.2</ele>
        <time>2023-08-18T09:28:41Z</time>
      </trkpt>
      <trkpt lat="49.54356" lon="3.46867">
        <ele>96.2</ele>
        <time>2023-08-18T09:28:44Z</time>
      </trkpt>
      <trkpt lat="49.54357" lon="3.46867">
        <ele>96.2</ele>
        <time>2023-08-18T09:28:46Z</time>
      </trkpt>
      <trkpt lat="49.54359" lon="3.46867">
        <ele>96.2</ele>
        <time>2023-08-18T09:28:48Z</time>
      </trkpt>
      <trkpt lat="49.54362" lon="3.46868">
        <ele>96.2</ele>
        <time>2023-08-18T09:28:52Z</time>
      </trkpt>
      <trkpt lat="49.54365" lon="3.46869">
        <ele>96.6</ele>
        <time>2023-08-18T09:28:58Z</time>
      </trkpt>
      <trkpt lat="49.54366" lon="3.4687">
        <ele>97</ele>
        <time>2023-08-18T09:28:59Z</time>
      </trkpt>
      <trkpt lat="49.54366" lon="3.46871">
        <ele>97.4</ele>
        <time>2023-08-18T09:29:00Z</time>
      </trkpt>
      <trkpt lat="49.54366" lon="3.46871">
        <ele>97.8</ele>
        <time>2023-08-18T09:29:01Z</time>
      </trkpt>
      <trkpt lat="49.54365" lon="3.46871">
        <ele>98.2</ele>
        <time>2023-08-18T09:29:02Z</time>
      </trkpt>
      <trkpt lat="49.54365" lon="3.46871">
        <ele>98.2</ele>
        <time>2023-08-18T09:29:03Z</time>
      </trkpt>
      <trkpt lat="49.54365" lon="3.46873">
        <ele>98.2</ele>
        <time>2023-08-18T09:29:04Z</time>
      </trkpt>
      <trkpt lat="49.54365" lon="3.46873">
        <ele>98.2</ele>
        <time>2023-08-18T09:29:06Z</time>
      </trkpt>
      <trkpt lat="49.54365" lon="3.46873">
        <ele>98.2</ele>
        <time>2023-08-18T09:29:10Z</time>
      </trkpt>
      <trkpt lat="49.54365" lon="3.46872">
        <ele>98.2</ele>
        <time>2023-08-18T09:29:18Z</time>
      </trkpt>
      <trkpt lat="49.54364" lon="3.46869">
        <ele>98.2</ele>
        <time>2023-08-18T09:29:24Z</time>
      </trkpt>
      <trkpt lat="49.54366" lon="3.4687">
        <ele>98.2</ele>
        <time>2023-08-18T09:29:30Z</time>
      </trkpt>
      <trkpt lat="49.54366" lon="3.46869">
        <ele>98.2</ele>
        <time>2023-08-18T09:29:37Z</time>
      </trkpt>
      <trkpt lat="49.54366" lon="3.46869">
        <ele>98.2</ele>
        <time>2023-08-18T09:29:48Z</time>
      </trkpt>
      <trkpt lat="49.54366" lon="3.46869">
        <ele>98.2</ele>
        <time>2023-08-18T09:29:54Z</time>
      </trkpt>
      <trkpt lat="49.54366" lon="3.46869">
        <ele>98.2</ele>
        <time>2023-08-18T09:30:06Z</time>
      </trkpt>
      <trkpt lat="49.54366" lon="3.46869">
        <ele>98.2</ele>
        <time>2023-08-18T09:30:15Z</time>
      </trkpt>
      <trkpt lat="49.54366" lon="3.46869">
        <ele>98.2</ele>
        <time>2023-08-18T09:30:24Z</time>
      </trkpt>
      <trkpt lat="49.54365" lon="3.4687">
        <ele>98.2</ele>
        <time>2023-08-18T09:30:34Z</time>
      </trkpt>
      <trkpt lat="49.54364" lon="3.46871">
        <ele>98.2</ele>
        <time>2023-08-18T09:30:40Z</time>
      </trkpt>
      <trkpt lat="49.54364" lon="3.46871">
        <ele>98.2</ele>
        <time>2023-08-18T09:30:52Z</time>
      </trkpt>
      <trkpt lat="49.54365" lon="3.46872">
        <ele>98.2</ele>
        <time>2023-08-18T09:30:59Z</time>
      </trkpt>
      <trkpt lat="49.54365" lon="3.46872">
        <ele>98.2</ele>
        <time>2023-08-18T09:31:08Z</time>
      </trkpt>
      <trkpt lat="49.54364" lon="3.46875">
        <ele>98.2</ele>
        <time>2023-08-18T09:31:17Z</time>
      </trkpt>
      <trkpt lat="49.54365" lon="3.46876">
        <ele>98.2</ele>
        <time>2023-08-18T09:31:21Z</time>
      </trkpt>
      <trkpt lat="49.54364" lon="3.46875">
        <ele>98.2</ele>
        <time>2023-08-18T09:31:30Z</time>
      </trkpt>
      <trkpt lat="49.54363" lon="3.46875">
        <ele>98.2</ele>
        <time>2023-08-18T09:31:36Z</time>
      </trkpt>
      <trkpt lat="49.54364" lon="3.46873">
        <ele>98.2</ele>
        <time>2023-08-18T09:31:45Z</time>
      </trkpt>
      <trkpt lat="49.54364" lon="3.46873">
        <ele>98.2</ele>
        <time>2023-08-18T09:31:56Z</time>
      </trkpt>
      <trkpt lat="49.54365" lon="3.46874">
        <ele>98.2</ele>
        <time>2023-08-18T09:32:01Z</time>
      </trkpt>
      <trkpt lat="49.54366" lon="3.46876">
        <ele>98.2</ele>
        <time>2023-08-18T09:32:03Z</time>
      </trkpt>
      <trkpt lat="49.54365" lon="3.46878">
        <ele>98.2</ele>
        <time>2023-08-18T09:32:06Z</time>
      </trkpt>
      <trkpt lat="49.54366" lon="3.46884">
        <ele>98.2</ele>
        <time>2023-08-18T09:32:10Z</time>
      </trkpt>
      <trkpt lat="49.54366" lon="3.46886">
        <ele>98.2</ele>
        <time>2023-08-18T09:32:11Z</time>
      </trkpt>
      <trkpt lat="49.54367" lon="3.46894">
        <ele>98.2</ele>
        <time>2023-08-18T09:32:15Z</time>
      </trkpt>
      <trkpt lat="49.54367" lon="3.469">
        <ele>98.2</ele>
        <time>2023-08-18T09:32:20Z</time>
      </trkpt>
      <trkpt lat="49.54367" lon="3.46908">
        <ele>98.2</ele>
        <time>2023-08-18T09:32:25Z</time>
      </trkpt>
      <trkpt lat="49.54368" lon="3.46915">
        <ele>98.2</ele>
        <time>2023-08-18T09:32:28Z</time>
      </trkpt>
      <trkpt lat="49.54367" lon="3.46918">
        <ele>98.2</ele>
        <time>2023-08-18T09:32:29Z</time>
      </trkpt>
      <trkpt lat="49.54367" lon="3.46923">
        <ele>98.2</ele>
        <time>2023-08-18T09:32:32Z</time>
      </trkpt>
      <trkpt lat="49.54367" lon="3.46923">
        <ele>98.2</ele>
        <time>2023-08-18T09:32:34Z</time>
      </trkpt>
      <trkpt lat="49.54368" lon="3.46928">
        <ele>98.2</ele>
        <time>2023-08-18T09:32:37Z</time>
      </trkpt>
      <trkpt lat="49.54368" lon="3.46935">
        <ele>98.2</ele>
        <time>2023-08-18T09:32:39Z</time>
      </trkpt>
      <trkpt lat="49.54368" lon="3.46939">
        <ele>98.2</ele>
        <time>2023-08-18T09:32:44Z</time>
      </trkpt>
      <trkpt lat="49.54369" lon="3.46942">
        <ele>98.6</ele>
        <time>2023-08-18T09:32:45Z</time>
      </trkpt>
      <trkpt lat="49.54369" lon="3.46945">
        <ele>99</ele>
        <time>2023-08-18T09:32:46Z</time>
      </trkpt>
      <trkpt lat="49.54369" lon="3.46948">
        <ele>99.4</ele>
        <time>2023-08-18T09:32:47Z</time>
      </trkpt>
      <trkpt lat="49.54369" lon="3.4695">
        <ele>99.8</ele>
        <time>2023-08-18T09:32:48Z</time>
      </trkpt>
      <trkpt lat="49.54369" lon="3.46952">
        <ele>100.2</ele>
        <time>2023-08-18T09:32:49Z</time>
      </trkpt>
      <trkpt lat="49.54369" lon="3.46957">
        <ele>100.2</ele>
        <time>2023-08-18T09:32:52Z</time>
      </trkpt>
      <trkpt lat="49.54369" lon="3.46959">
        <ele>100.2</ele>
        <time>2023-08-18T09:32:53Z</time>
      </trkpt>
      <trkpt lat="49.54368" lon="3.46966">
        <ele>100.2</ele>
        <time>2023-08-18T09:32:56Z</time>
      </trkpt>
      <trkpt lat="49.54368" lon="3.46968">
        <ele>100.2</ele>
        <time>2023-08-18T09:32:58Z</time>
      </trkpt>
      <trkpt lat="49.54369" lon="3.46978">
        <ele>100.2</ele>
        <time>2023-08-18T09:33:04Z</time>
      </trkpt>
      <trkpt lat="49.5437" lon="3.46987">
        <ele>100.2</ele>
        <time>2023-08-18T09:33:10Z</time>
      </trkpt>
      <trkpt lat="49.5437" lon="3.46994">
        <ele>100.2</ele>
        <time>2023-08-18T09:33:15Z</time>
      </trkpt>
      <trkpt lat="49.5437" lon="3.47004">
        <ele>100.2</ele>
        <time>2023-08-18T09:33:20Z</time>
      </trkpt>
      <trkpt lat="49.54371" lon="3.47014">
        <ele>100.2</ele>
        <time>2023-08-18T09:33:26Z</time>
      </trkpt>
      <trkpt lat="49.54371" lon="3.47021">
        <ele>100.2</ele>
        <time>2023-08-18T09:33:31Z</time>
      </trkpt>
      <trkpt lat="49.54372" lon="3.47037">
        <ele>100.2</ele>
        <time>2023-08-18T09:33:37Z</time>
      </trkpt>
      <trkpt lat="49.54372" lon="3.47042">
        <ele>100.2</ele>
        <time>2023-08-18T09:33:42Z</time>
      </trkpt>
      <trkpt lat="49.54371" lon="3.47054">
        <ele>100.2</ele>
        <time>2023-08-18T09:33:47Z</time>
      </trkpt>
      <trkpt lat="49.54372" lon="3.47056">
        <ele>100.2</ele>
        <time>2023-08-18T09:33:48Z</time>
      </trkpt>
      <trkpt lat="49.54371" lon="3.47059">
        <ele>100.2</ele>
        <time>2023-08-18T09:33:51Z</time>
      </trkpt>
      <trkpt lat="49.54372" lon="3.47064">
        <ele>100.2</ele>
        <time>2023-08-18T09:33:54Z</time>
      </trkpt>
      <trkpt lat="49.54372" lon="3.47073">
        <ele>100.2</ele>
        <time>2023-08-18T09:33:57Z</time>
      </trkpt>
      <trkpt lat="49.54372" lon="3.47084">
        <ele>100.2</ele>
        <time>2023-08-18T09:34:02Z</time>
      </trkpt>
      <trkpt lat="49.54372" lon="3.47085">
        <ele>100.2</ele>
        <time>2023-08-18T09:34:03Z</time>
      </trkpt>
      <trkpt lat="49.54372" lon="3.47094">
        <ele>100.2</ele>
        <time>2023-08-18T09:34:09Z</time>
      </trkpt>
      <trkpt lat="49.54371" lon="3.47107">
        <ele>100.2</ele>
        <time>2023-08-18T09:34:14Z</time>
      </trkpt>
      <trkpt lat="49.54371" lon="3.47112">
        <ele>100.2</ele>
        <time>2023-08-18T09:34:18Z</time>
      </trkpt>
      <trkpt lat="49.54372" lon="3.47117">
        <ele>100.2</ele>
        <time>2023-08-18T09:34:20Z</time>
      </trkpt>
      <trkpt lat="49.54371" lon="3.47123">
        <ele>100.2</ele>
        <time>2023-08-18T09:34:22Z</time>
      </trkpt>
      <trkpt lat="49.54372" lon="3.47127">
        <ele>100.2</ele>
        <time>2023-08-18T09:34:25Z</time>
      </trkpt>
      <trkpt lat="49.54371" lon="3.47138">
        <ele>100.2</ele>
        <time>2023-08-18T09:34:31Z</time>
      </trkpt>
      <trkpt lat="49.54372" lon="3.47144">
        <ele>100.2</ele>
        <time>2023-08-18T09:34:35Z</time>
      </trkpt>
      <trkpt lat="49.54372" lon="3.47147">
        <ele>100.2</ele>
        <time>2023-08-18T09:34:38Z</time>
      </trkpt>
      <trkpt lat="49.54372" lon="3.4715">
        <ele>100.6</ele>
        <time>2023-08-18T09:34:39Z</time>
      </trkpt>
      <trkpt lat="49.54372" lon="3.47153">
        <ele>101.2</ele>
        <time>2023-08-18T09:34:40Z</time>
      </trkpt>
      <trkpt lat="49.54372" lon="3.47156">
        <ele>101.6</ele>
        <time>2023-08-18T09:34:41Z</time>
      </trkpt>
      <trkpt lat="49.54372" lon="3.47159">
        <ele>102</ele>
        <time>2023-08-18T09:34:42Z</time>
      </trkpt>
      <trkpt lat="49.54372" lon="3.47161">
        <ele>102.4</ele>
        <time>2023-08-18T09:34:43Z</time>
      </trkpt>
      <trkpt lat="49.54373" lon="3.47164">
        <ele>102.4</ele>
        <time>2023-08-18T09:34:47Z</time>
      </trkpt>
      <trkpt lat="49.54373" lon="3.47166">
        <ele>102.4</ele>
        <time>2023-08-18T09:34:48Z</time>
      </trkpt>
      <trkpt lat="49.54373" lon="3.47171">
        <ele>102.4</ele>
        <time>2023-08-18T09:34:51Z</time>
      </trkpt>
      <trkpt lat="49.54373" lon="3.47171">
        <ele>102.4</ele>
        <time>2023-08-18T09:34:59Z</time>
      </trkpt>
      <trkpt lat="49.54375" lon="3.47166">
        <ele>102.4</ele>
        <time>2023-08-18T09:35:05Z</time>
      </trkpt>
      <trkpt lat="49.54376" lon="3.47166">
        <ele>102.4</ele>
        <time>2023-08-18T09:35:13Z</time>
      </trkpt>
      <trkpt lat="49.54376" lon="3.47166">
        <ele>102.4</ele>
        <time>2023-08-18T09:35:27Z</time>
      </trkpt>
      <trkpt lat="49.54376" lon="3.47166">
        <ele>102.4</ele>
        <time>2023-08-18T09:35:39Z</time>
      </trkpt>
      <trkpt lat="49.54375" lon="3.47169">
        <ele>102.4</ele>
        <time>2023-08-18T09:35:42Z</time>
      </trkpt>
      <trkpt lat="49.54375" lon="3.47172">
        <ele>102.4</ele>
        <time>2023-08-18T09:35:43Z</time>
      </trkpt>
      <trkpt lat="49.54376" lon="3.47179">
        <ele>102.4</ele>
        <time>2023-08-18T09:35:47Z</time>
      </trkpt>
      <trkpt lat="49.54376" lon="3.47189">
        <ele>102.4</ele>
        <time>2023-08-18T09:35:53Z</time>
      </trkpt>
      <trkpt lat="49.54376" lon="3.47202">
        <ele>102.4</ele>
        <time>2023-08-18T09:35:59Z</time>
      </trkpt>
      <trkpt lat="49.54375" lon="3.47213">
        <ele>102.4</ele>
        <time>2023-08-18T09:36:05Z</time>
      </trkpt>
      <trkpt lat="49.54374" lon="3.47224">
        <ele>102.4</ele>
        <time>2023-08-18T09:36:11Z</time>
      </trkpt>
      <trkpt lat="49.54374" lon="3.47238">
        <ele>102.4</ele>
        <time>2023-08-18T09:36:17Z</time>
      </trkpt>
      <trkpt lat="49.54374" lon="3.47245">
        <ele>102.4</ele>
        <time>2023-08-18T09:36:22Z</time>
      </trkpt>
      <trkpt lat="49.54374" lon="3.47249">
        <ele>102.4</ele>
        <time>2023-08-18T09:36:25Z</time>
      </trkpt>
      <trkpt lat="49.54373" lon="3.47258">
        <ele>102.4</ele>
        <time>2023-08-18T09:36:28Z</time>
      </trkpt>
      <trkpt lat="49.54373" lon="3.47266">
        <ele>102.4</ele>
        <time>2023-08-18T09:36:33Z</time>
      </trkpt>
      <trkpt lat="49.54373" lon="3.47281">
        <ele>102.4</ele>
        <time>2023-08-18T09:36:39Z</time>
      </trkpt>
      <trkpt lat="49.54373" lon="3.47289">
        <ele>102.4</ele>
        <time>2023-08-18T09:36:44Z</time>
      </trkpt>
      <trkpt lat="49.54371" lon="3.47298">
        <ele>102.4</ele>
        <time>2023-08-18T09:36:50Z</time>
      </trkpt>
      <trkpt lat="49.54372" lon="3.47304">
        <ele>102.4</ele>
        <time>2023-08-18T09:36:54Z</time>
      </trkpt>
      <trkpt lat="49.54371" lon="3.47306">
        <ele>102.4</ele>
        <time>2023-08-18T09:36:55Z</time>
      </trkpt>
      <trkpt lat="49.54371" lon="3.47317">
        <ele>102.4</ele>
        <time>2023-08-18T09:37:01Z</time>
      </trkpt>
      <trkpt lat="49.54371" lon="3.47319">
        <ele>103.2</ele>
        <time>2023-08-18T09:37:03Z</time>
      </trkpt>
      <trkpt lat="49.54371" lon="3.4732">
        <ele>103.6</ele>
        <time>2023-08-18T09:37:04Z</time>
      </trkpt>
      <trkpt lat="49.5437" lon="3.47323">
        <ele>104</ele>
        <time>2023-08-18T09:37:05Z</time>
      </trkpt>
      <trkpt lat="49.5437" lon="3.47327">
        <ele>104.4</ele>
        <time>2023-08-18T09:37:06Z</time>
      </trkpt>
      <trkpt lat="49.5437" lon="3.47339">
        <ele>104.4</ele>
        <time>2023-08-18T09:37:12Z</time>
      </trkpt>
      <trkpt lat="49.5437" lon="3.4734">
        <ele>104.4</ele>
        <time>2023-08-18T09:37:14Z</time>
      </trkpt>
      <trkpt lat="49.54369" lon="3.47351">
        <ele>104.4</ele>
        <time>2023-08-18T09:37:18Z</time>
      </trkpt>
      <trkpt lat="49.54368" lon="3.47362">
        <ele>104.4</ele>
        <time>2023-08-18T09:37:23Z</time>
      </trkpt>
      <trkpt lat="49.54368" lon="3.47369">
        <ele>104.4</ele>
        <time>2023-08-18T09:37:29Z</time>
      </trkpt>
      <trkpt lat="49.54365" lon="3.47383">
        <ele>104.4</ele>
        <time>2023-08-18T09:37:34Z</time>
      </trkpt>
      <trkpt lat="49.54365" lon="3.4739">
        <ele>104.4</ele>
        <time>2023-08-18T09:37:39Z</time>
      </trkpt>
      <trkpt lat="49.54364" lon="3.47402">
        <ele>104.4</ele>
        <time>2023-08-18T09:37:44Z</time>
      </trkpt>
      <trkpt lat="49.54363" lon="3.47409">
        <ele>104.4</ele>
        <time>2023-08-18T09:37:47Z</time>
      </trkpt>
      <trkpt lat="49.54363" lon="3.47411">
        <ele>104.4</ele>
        <time>2023-08-18T09:37:49Z</time>
      </trkpt>
      <trkpt lat="49.54363" lon="3.47419">
        <ele>104.4</ele>
        <time>2023-08-18T09:37:54Z</time>
      </trkpt>
      <trkpt lat="49.5436" lon="3.47427">
        <ele>104.4</ele>
        <time>2023-08-18T09:37:57Z</time>
      </trkpt>
      <trkpt lat="49.5436" lon="3.47428">
        <ele>104.4</ele>
        <time>2023-08-18T09:37:58Z</time>
      </trkpt>
      <trkpt lat="49.54362" lon="3.4743">
        <ele>104.4</ele>
        <time>2023-08-18T09:38:04Z</time>
      </trkpt>
      <trkpt lat="49.54362" lon="3.47433">
        <ele>104.4</ele>
        <time>2023-08-18T09:38:11Z</time>
      </trkpt>
      <trkpt lat="49.54362" lon="3.47435">
        <ele>104.4</ele>
        <time>2023-08-18T09:38:12Z</time>
      </trkpt>
      <trkpt lat="49.54361" lon="3.47444">
        <ele>104.4</ele>
        <time>2023-08-18T09:38:18Z</time>
      </trkpt>
      <trkpt lat="49.54361" lon="3.47446">
        <ele>104.4</ele>
        <time>2023-08-18T09:38:19Z</time>
      </trkpt>
      <trkpt lat="49.5436" lon="3.47456">
        <ele>104.4</ele>
        <time>2023-08-18T09:38:23Z</time>
      </trkpt>
      <trkpt lat="49.54359" lon="3.47458">
        <ele>104</ele>
        <time>2023-08-18T09:38:25Z</time>
      </trkpt>
      <trkpt lat="49.54359" lon="3.47458">
        <ele>103.6</ele>
        <time>2023-08-18T09:38:26Z</time>
      </trkpt>
      <trkpt lat="49.54359" lon="3.47458">
        <ele>103.2</ele>
        <time>2023-08-18T09:38:27Z</time>
      </trkpt>
      <trkpt lat="49.54359" lon="3.4746">
        <ele>102.8</ele>
        <time>2023-08-18T09:38:28Z</time>
      </trkpt>
      <trkpt lat="49.54359" lon="3.47462">
        <ele>102.4</ele>
        <time>2023-08-18T09:38:29Z</time>
      </trkpt>
      <trkpt lat="49.54358" lon="3.47476">
        <ele>102.4</ele>
        <time>2023-08-18T09:38:34Z</time>
      </trkpt>
      <trkpt lat="49.54356" lon="3.47482">
        <ele>102.4</ele>
        <time>2023-08-18T09:38:39Z</time>
      </trkpt>
      <trkpt lat="49.54356" lon="3.47486">
        <ele>102.4</ele>
        <time>2023-08-18T09:38:41Z</time>
      </trkpt>
      <trkpt lat="49.54353" lon="3.47494">
        <ele>102.4</ele>
        <time>2023-08-18T09:38:44Z</time>
      </trkpt>
      <trkpt lat="49.54351" lon="3.47504">
        <ele>102.4</ele>
        <time>2023-08-18T09:38:49Z</time>
      </trkpt>
      <trkpt lat="49.5435" lon="3.4751">
        <ele>102.4</ele>
        <time>2023-08-18T09:38:54Z</time>
      </trkpt>
      <trkpt lat="49.54348" lon="3.47523">
        <ele>102.4</ele>
        <time>2023-08-18T09:38:59Z</time>
      </trkpt>
      <trkpt lat="49.54347" lon="3.47529">
        <ele>102.4</ele>
        <time>2023-08-18T09:39:04Z</time>
      </trkpt>
      <trkpt lat="49.54345" lon="3.47541">
        <ele>102</ele>
        <time>2023-08-18T09:39:08Z</time>
      </trkpt>
      <trkpt lat="49.54345" lon="3.47543">
        <ele>101.6</ele>
        <time>2023-08-18T09:39:09Z</time>
      </trkpt>
      <trkpt lat="49.54344" lon="3.47544">
        <ele>101.2</ele>
        <time>2023-08-18T09:39:10Z</time>
      </trkpt>
      <trkpt lat="49.54344" lon="3.47546">
        <ele>100.8</ele>
        <time>2023-08-18T09:39:11Z</time>
      </trkpt>
      <trkpt lat="49.54344" lon="3.47547">
        <ele>100.4</ele>
        <time>2023-08-18T09:39:12Z</time>
      </trkpt>
      <trkpt lat="49.54344" lon="3.47547">
        <ele>100.4</ele>
        <time>2023-08-18T09:39:13Z</time>
      </trkpt>
      <trkpt lat="49.54343" lon="3.4755">
        <ele>100.4</ele>
        <time>2023-08-18T09:39:15Z</time>
      </trkpt>
      <trkpt lat="49.54341" lon="3.47559">
        <ele>100.4</ele>
        <time>2023-08-18T09:39:19Z</time>
      </trkpt>
      <trkpt lat="49.5434" lon="3.47567">
        <ele>100.4</ele>
        <time>2023-08-18T09:39:25Z</time>
      </trkpt>
      <trkpt lat="49.54337" lon="3.47578">
        <ele>100.4</ele>
        <time>2023-08-18T09:39:30Z</time>
      </trkpt>
      <trkpt lat="49.54336" lon="3.4759">
        <ele>100.4</ele>
        <time>2023-08-18T09:39:36Z</time>
      </trkpt>
      <trkpt lat="49.54333" lon="3.47596">
        <ele>100.4</ele>
        <time>2023-08-18T09:39:41Z</time>
      </trkpt>
      <trkpt lat="49.54332" lon="3.47603">
        <ele>100.4</ele>
        <time>2023-08-18T09:39:43Z</time>
      </trkpt>
      <trkpt lat="49.54332" lon="3.47612">
        <ele>100.4</ele>
        <time>2023-08-18T09:39:47Z</time>
      </trkpt>
      <trkpt lat="49.5433" lon="3.47617">
        <ele>100.4</ele>
        <time>2023-08-18T09:39:52Z</time>
      </trkpt>
      <trkpt lat="49.54327" lon="3.47629">
        <ele>100.4</ele>
        <time>2023-08-18T09:39:57Z</time>
      </trkpt>
      <trkpt lat="49.54325" lon="3.47637">
        <ele>100.4</ele>
        <time>2023-08-18T09:40:03Z</time>
      </trkpt>
      <trkpt lat="49.54323" lon="3.47649">
        <ele>100.4</ele>
        <time>2023-08-18T09:40:08Z</time>
      </trkpt>
      <trkpt lat="49.54323" lon="3.47649">
        <ele>100</ele>
        <time>2023-08-18T09:40:09Z</time>
      </trkpt>
      <trkpt lat="49.54323" lon="3.47649">
        <ele>99.6</ele>
        <time>2023-08-18T09:40:10Z</time>
      </trkpt>
      <trkpt lat="49.54322" lon="3.4765">
        <ele>99</ele>
        <time>2023-08-18T09:40:11Z</time>
      </trkpt>
      <trkpt lat="49.54321" lon="3.47651">
        <ele>98.6</ele>
        <time>2023-08-18T09:40:12Z</time>
      </trkpt>
      <trkpt lat="49.54321" lon="3.47653">
        <ele>98.2</ele>
        <time>2023-08-18T09:40:13Z</time>
      </trkpt>
      <trkpt lat="49.54319" lon="3.47665">
        <ele>98.2</ele>
        <time>2023-08-18T09:40:18Z</time>
      </trkpt>
      <trkpt lat="49.54318" lon="3.47671">
        <ele>98.2</ele>
        <time>2023-08-18T09:40:23Z</time>
      </trkpt>
      <trkpt lat="49.54314" lon="3.47684">
        <ele>98.2</ele>
        <time>2023-08-18T09:40:28Z</time>
      </trkpt>
      <trkpt lat="49.54313" lon="3.47692">
        <ele>98.2</ele>
        <time>2023-08-18T09:40:33Z</time>
      </trkpt>
      <trkpt lat="49.5431" lon="3.47703">
        <ele>98.2</ele>
        <time>2023-08-18T09:40:39Z</time>
      </trkpt>
      <trkpt lat="49.54308" lon="3.47711">
        <ele>98.2</ele>
        <time>2023-08-18T09:40:43Z</time>
      </trkpt>
      <trkpt lat="49.54308" lon="3.47712">
        <ele>98.2</ele>
        <time>2023-08-18T09:40:44Z</time>
      </trkpt>
      <trkpt lat="49.54307" lon="3.47715">
        <ele>98.2</ele>
        <time>2023-08-18T09:40:49Z</time>
      </trkpt>
      <trkpt lat="49.54307" lon="3.47715">
        <ele>97.8</ele>
        <time>2023-08-18T09:40:50Z</time>
      </trkpt>
      <trkpt lat="49.54307" lon="3.47715">
        <ele>97.4</ele>
        <time>2023-08-18T09:40:51Z</time>
      </trkpt>
      <trkpt lat="49.54307" lon="3.47714">
        <ele>97</ele>
        <time>2023-08-18T09:40:52Z</time>
      </trkpt>
      <trkpt lat="49.54307" lon="3.47715">
        <ele>96.6</ele>
        <time>2023-08-18T09:40:53Z</time>
      </trkpt>
      <trkpt lat="49.54307" lon="3.47715">
        <ele>96.2</ele>
        <time>2023-08-18T09:40:54Z</time>
      </trkpt>
      <trkpt lat="49.54307" lon="3.47715">
        <ele>96.2</ele>
        <time>2023-08-18T09:40:56Z</time>
      </trkpt>
      <trkpt lat="49.54307" lon="3.47718">
        <ele>96.2</ele>
        <time>2023-08-18T09:41:08Z</time>
      </trkpt>
      <trkpt lat="49.54303" lon="3.47734">
        <ele>96.2</ele>
        <time>2023-08-18T09:41:13Z</time>
      </trkpt>
      <trkpt lat="49.54303" lon="3.4774">
        <ele>96.2</ele>
        <time>2023-08-18T09:41:18Z</time>
      </trkpt>
      <trkpt lat="49.543" lon="3.47747">
        <ele>96.2</ele>
        <time>2023-08-18T09:41:23Z</time>
      </trkpt>
      <trkpt lat="49.54298" lon="3.47762">
        <ele>96.2</ele>
        <time>2023-08-18T09:41:29Z</time>
      </trkpt>
      <trkpt lat="49.54296" lon="3.47767">
        <ele>96.2</ele>
        <time>2023-08-18T09:41:34Z</time>
      </trkpt>
      <trkpt lat="49.54295" lon="3.47775">
        <ele>96.2</ele>
        <time>2023-08-18T09:41:39Z</time>
      </trkpt>
      <trkpt lat="49.54294" lon="3.47781">
        <ele>95.8</ele>
        <time>2023-08-18T09:41:43Z</time>
      </trkpt>
      <trkpt lat="49.54293" lon="3.47785">
        <ele>95.4</ele>
        <time>2023-08-18T09:41:44Z</time>
      </trkpt>
      <trkpt lat="49.54292" lon="3.47785">
        <ele>95</ele>
        <time>2023-08-18T09:41:45Z</time>
      </trkpt>
      <trkpt lat="49.54291" lon="3.47786">
        <ele>94.6</ele>
        <time>2023-08-18T09:41:46Z</time>
      </trkpt>
      <trkpt lat="49.54291" lon="3.47786">
        <ele>94.2</ele>
        <time>2023-08-18T09:41:47Z</time>
      </trkpt>
      <trkpt lat="49.54291" lon="3.47786">
        <ele>94.2</ele>
        <time>2023-08-18T09:41:49Z</time>
      </trkpt>
      <trkpt lat="49.54291" lon="3.47788">
        <ele>94.2</ele>
        <time>2023-08-18T09:41:50Z</time>
      </trkpt>
      <trkpt lat="49.5429" lon="3.47794">
        <ele>94.2</ele>
        <time>2023-08-18T09:41:54Z</time>
      </trkpt>
      <trkpt lat="49.54289" lon="3.47804">
        <ele>94.2</ele>
        <time>2023-08-18T09:41:59Z</time>
      </trkpt>
      <trkpt lat="49.54288" lon="3.47807">
        <ele>94.2</ele>
        <time>2023-08-18T09:42:00Z</time>
      </trkpt>
      <trkpt lat="49.54287" lon="3.47817">
        <ele>94.2</ele>
        <time>2023-08-18T09:42:05Z</time>
      </trkpt>
      <trkpt lat="49.54286" lon="3.47823">
        <ele>94.2</ele>
        <time>2023-08-18T09:42:10Z</time>
      </trkpt>
      <trkpt lat="49.54285" lon="3.47825">
        <ele>94.2</ele>
        <time>2023-08-18T09:42:11Z</time>
      </trkpt>
      <trkpt lat="49.54283" lon="3.47838">
        <ele>94.2</ele>
        <time>2023-08-18T09:42:15Z</time>
      </trkpt>
      <trkpt lat="49.54281" lon="3.47849">
        <ele>94.2</ele>
        <time>2023-08-18T09:42:21Z</time>
      </trkpt>
      <trkpt lat="49.54281" lon="3.47851">
        <ele>93.8</ele>
        <time>2023-08-18T09:42:23Z</time>
      </trkpt>
      <trkpt lat="49.5428" lon="3.47852">
        <ele>93.4</ele>
        <time>2023-08-18T09:42:24Z</time>
      </trkpt>
      <trkpt lat="49.54279" lon="3.47853">
        <ele>92.6</ele>
        <time>2023-08-18T09:42:25Z</time>
      </trkpt>
      <trkpt lat="49.54279" lon="3.47853">
        <ele>92.2</ele>
        <time>2023-08-18T09:42:26Z</time>
      </trkpt>
      <trkpt lat="49.54278" lon="3.47855">
        <ele>92.2</ele>
        <time>2023-08-18T09:42:27Z</time>
      </trkpt>
      <trkpt lat="49.54274" lon="3.47869">
        <ele>92.2</ele>
        <time>2023-08-18T09:42:33Z</time>
      </trkpt>
      <trkpt lat="49.54271" lon="3.47883">
        <ele>92.2</ele>
        <time>2023-08-18T09:42:39Z</time>
      </trkpt>
      <trkpt lat="49.54267" lon="3.47888">
        <ele>92.2</ele>
        <time>2023-08-18T09:42:45Z</time>
      </trkpt>
      <trkpt lat="49.54266" lon="3.47891">
        <ele>92.2</ele>
        <time>2023-08-18T09:42:47Z</time>
      </trkpt>
      <trkpt lat="49.54263" lon="3.47899">
        <ele>92.2</ele>
        <time>2023-08-18T09:42:50Z</time>
      </trkpt>
      <trkpt lat="49.54262" lon="3.47901">
        <ele>92.2</ele>
        <time>2023-08-18T09:42:51Z</time>
      </trkpt>
      <trkpt lat="49.54259" lon="3.47912">
        <ele>92.2</ele>
        <time>2023-08-18T09:42:55Z</time>
      </trkpt>
      <trkpt lat="49.54259" lon="3.47916">
        <ele>92.2</ele>
        <time>2023-08-18T09:43:01Z</time>
      </trkpt>
      <trkpt lat="49.54258" lon="3.47918">
        <ele>91.8</ele>
        <time>2023-08-18T09:43:03Z</time>
      </trkpt>
      <trkpt lat="49.54258" lon="3.47918">
        <ele>91.4</ele>
        <time>2023-08-18T09:43:04Z</time>
      </trkpt>
      <trkpt lat="49.54258" lon="3.47918">
        <ele>91</ele>
        <time>2023-08-18T09:43:05Z</time>
      </trkpt>
      <trkpt lat="49.54258" lon="3.47918">
        <ele>90.6</ele>
        <time>2023-08-18T09:43:06Z</time>
      </trkpt>
      <trkpt lat="49.54258" lon="3.47918">
        <ele>90.2</ele>
        <time>2023-08-18T09:43:07Z</time>
      </trkpt>
      <trkpt lat="49.54257" lon="3.47918">
        <ele>90.2</ele>
        <time>2023-08-18T09:43:08Z</time>
      </trkpt>
      <trkpt lat="49.54255" lon="3.47925">
        <ele>90.2</ele>
        <time>2023-08-18T09:43:16Z</time>
      </trkpt>
      <trkpt lat="49.54254" lon="3.4793">
        <ele>90.2</ele>
        <time>2023-08-18T09:43:19Z</time>
      </trkpt>
      <trkpt lat="49.54253" lon="3.4793">
        <ele>90.2</ele>
        <time>2023-08-18T09:43:21Z</time>
      </trkpt>
      <trkpt lat="49.5425" lon="3.47938">
        <ele>90.2</ele>
        <time>2023-08-18T09:43:26Z</time>
      </trkpt>
      <trkpt lat="49.54244" lon="3.47953">
        <ele>90.2</ele>
        <time>2023-08-18T09:43:31Z</time>
      </trkpt>
      <trkpt lat="49.54242" lon="3.4796">
        <ele>90.2</ele>
        <time>2023-08-18T09:43:36Z</time>
      </trkpt>
      <trkpt lat="49.54242" lon="3.47961">
        <ele>90.2</ele>
        <time>2023-08-18T09:43:37Z</time>
      </trkpt>
      <trkpt lat="49.54242" lon="3.47962">
        <ele>90.2</ele>
        <time>2023-08-18T09:43:42Z</time>
      </trkpt>
      <trkpt lat="49.54236" lon="3.47975">
        <ele>90.2</ele>
        <time>2023-08-18T09:43:46Z</time>
      </trkpt>
      <trkpt lat="49.54236" lon="3.4798">
        <ele>90.2</ele>
        <time>2023-08-18T09:43:48Z</time>
      </trkpt>
      <trkpt lat="49.54235" lon="3.47985">
        <ele>90.2</ele>
        <time>2023-08-18T09:43:51Z</time>
      </trkpt>
      <trkpt lat="49.54234" lon="3.47985">
        <ele>89.8</ele>
        <time>2023-08-18T09:43:52Z</time>
      </trkpt>
      <trkpt lat="49.54234" lon="3.47987">
        <ele>89.4</ele>
        <time>2023-08-18T09:43:53Z</time>
      </trkpt>
      <trkpt lat="49.54233" lon="3.47988">
        <ele>89</ele>
        <time>2023-08-18T09:43:54Z</time>
      </trkpt>
      <trkpt lat="49.54232" lon="3.47989">
        <ele>88.6</ele>
        <time>2023-08-18T09:43:55Z</time>
      </trkpt>
      <trkpt lat="49.54232" lon="3.4799">
        <ele>88.2</ele>
        <time>2023-08-18T09:43:56Z</time>
      </trkpt>
      <trkpt lat="49.54231" lon="3.47994">
        <ele>88.2</ele>
        <time>2023-08-18T09:43:58Z</time>
      </trkpt>
      <trkpt lat="49.54227" lon="3.48">
        <ele>88.2</ele>
        <time>2023-08-18T09:44:01Z</time>
      </trkpt>
      <trkpt lat="49.54226" lon="3.48009">
        <ele>88.2</ele>
        <time>2023-08-18T09:44:04Z</time>
      </trkpt>
      <trkpt lat="49.54225" lon="3.48011">
        <ele>88.2</ele>
        <time>2023-08-18T09:44:05Z</time>
      </trkpt>
      <trkpt lat="49.54225" lon="3.48012">
        <ele>88.2</ele>
        <time>2023-08-18T09:44:06Z</time>
      </trkpt>
      <trkpt lat="49.54223" lon="3.48015">
        <ele>88.2</ele>
        <time>2023-08-18T09:44:10Z</time>
      </trkpt>
      <trkpt lat="49.54217" lon="3.4803">
        <ele>88.2</ele>
        <time>2023-08-18T09:44:17Z</time>
      </trkpt>
      <trkpt lat="49.54212" lon="3.48043">
        <ele>88.2</ele>
        <time>2023-08-18T09:44:22Z</time>
      </trkpt>
      <trkpt lat="49.54211" lon="3.48047">
        <ele>88.2</ele>
        <time>2023-08-18T09:44:25Z</time>
      </trkpt>
      <trkpt lat="49.5421" lon="3.48049">
        <ele>88.2</ele>
        <time>2023-08-18T09:44:27Z</time>
      </trkpt>
      <trkpt lat="49.54206" lon="3.48059">
        <ele>88.2</ele>
        <time>2023-08-18T09:44:34Z</time>
      </trkpt>
      <trkpt lat="49.54199" lon="3.48077">
        <ele>88.2</ele>
        <time>2023-08-18T09:44:41Z</time>
      </trkpt>
      <trkpt lat="49.54198" lon="3.4808">
        <ele>88.2</ele>
        <time>2023-08-18T09:44:45Z</time>
      </trkpt>
      <trkpt lat="49.54192" lon="3.48095">
        <ele>88.2</ele>
        <time>2023-08-18T09:44:53Z</time>
      </trkpt>
      <trkpt lat="49.5419" lon="3.48106">
        <ele>88.2</ele>
        <time>2023-08-18T09:44:58Z</time>
      </trkpt>
      <trkpt lat="49.54188" lon="3.48109">
        <ele>88.2</ele>
        <time>2023-08-18T09:45:03Z</time>
      </trkpt>
      <trkpt lat="49.54185" lon="3.48116">
        <ele>88.2</ele>
        <time>2023-08-18T09:45:07Z</time>
      </trkpt>
      <trkpt lat="49.54184" lon="3.48117">
        <ele>87.6</ele>
        <time>2023-08-18T09:45:11Z</time>
      </trkpt>
      <trkpt lat="49.54184" lon="3.48118">
        <ele>87.2</ele>
        <time>2023-08-18T09:45:12Z</time>
      </trkpt>
      <trkpt lat="49.54184" lon="3.48118">
        <ele>86.8</ele>
        <time>2023-08-18T09:45:13Z</time>
      </trkpt>
      <trkpt lat="49.54183" lon="3.48118">
        <ele>86.4</ele>
        <time>2023-08-18T09:45:14Z</time>
      </trkpt>
      <trkpt lat="49.54183" lon="3.48118">
        <ele>86</ele>
        <time>2023-08-18T09:45:15Z</time>
      </trkpt>
      <trkpt lat="49.54183" lon="3.48118">
        <ele>86</ele>
        <time>2023-08-18T09:45:18Z</time>
      </trkpt>
      <trkpt lat="49.54181" lon="3.48121">
        <ele>86</ele>
        <time>2023-08-18T09:45:27Z</time>
      </trkpt>
      <trkpt lat="49.5418" lon="3.48126">
        <ele>86</ele>
        <time>2023-08-18T09:45:32Z</time>
      </trkpt>
      <trkpt lat="49.5418" lon="3.48126">
        <ele>86</ele>
        <time>2023-08-18T09:45:38Z</time>
      </trkpt>
      <trkpt lat="49.5418" lon="3.48126">
        <ele>86</ele>
        <time>2023-08-18T09:45:48Z</time>
      </trkpt>
      <trkpt lat="49.5418" lon="3.48126">
        <ele>86</ele>
        <time>2023-08-18T09:46:04Z</time>
      </trkpt>
      <trkpt lat="49.5418" lon="3.48126">
        <ele>86</ele>
        <time>2023-08-18T09:46:12Z</time>
      </trkpt>
      <trkpt lat="49.5418" lon="3.48126">
        <ele>86</ele>
        <time>2023-08-18T09:46:20Z</time>
      </trkpt>
      <trkpt lat="49.5418" lon="3.48126">
        <ele>86</ele>
        <time>2023-08-18T09:46:28Z</time>
      </trkpt>
      <trkpt lat="49.5418" lon="3.48126">
        <ele>86</ele>
        <time>2023-08-18T09:46:42Z</time>
      </trkpt>
      <trkpt lat="49.5418" lon="3.48126">
        <ele>86</ele>
        <time>2023-08-18T09:46:49Z</time>
      </trkpt>
      <trkpt lat="49.5418" lon="3.48126">
        <ele>86</ele>
        <time>2023-08-18T09:46:54Z</time>
      </trkpt>
      <trkpt lat="49.5418" lon="3.48125">
        <ele>86</ele>
        <time>2023-08-18T09:46:57Z</time>
      </trkpt>
      <trkpt lat="49.54179" lon="3.48124">
        <ele>86</ele>
        <time>2023-08-18T09:46:59Z</time>
      </trkpt>
      <trkpt lat="49.54179" lon="3.48124">
        <ele>86</ele>
        <time>2023-08-18T09:47:14Z</time>
      </trkpt>
      <trkpt lat="49.54179" lon="3.48124">
        <ele>86</ele>
        <time>2023-08-18T09:47:29Z</time>
      </trkpt>
      <trkpt lat="49.5418" lon="3.48124">
        <ele>86</ele>
        <time>2023-08-18T09:47:44Z</time>
      </trkpt>
      <trkpt lat="49.5418" lon="3.48124">
        <ele>86</ele>
        <time>2023-08-18T09:47:55Z</time>
      </trkpt>
      <trkpt lat="49.5418" lon="3.48125">
        <ele>86</ele>
        <time>2023-08-18T09:48:05Z</time>
      </trkpt>
      <trkpt lat="49.54181" lon="3.48127">
        <ele>86</ele>
        <time>2023-08-18T09:48:11Z</time>
      </trkpt>
      <trkpt lat="49.54183" lon="3.48138">
        <ele>86</ele>
        <time>2023-08-18T09:48:16Z</time>
      </trkpt>
      <trkpt lat="49.54185" lon="3.48143">
        <ele>86</ele>
        <time>2023-08-18T09:48:21Z</time>
      </trkpt>
      <trkpt lat="49.54186" lon="3.48146">
        <ele>86</ele>
        <time>2023-08-18T09:48:23Z</time>
      </trkpt>
      <trkpt lat="49.54187" lon="3.48152">
        <ele>86</ele>
        <time>2023-08-18T09:48:25Z</time>
      </trkpt>
      <trkpt lat="49.54188" lon="3.48157">
        <ele>86</ele>
        <time>2023-08-18T09:48:27Z</time>
      </trkpt>
      <trkpt lat="49.54189" lon="3.48161">
        <ele>86</ele>
        <time>2023-08-18T09:48:30Z</time>
      </trkpt>
      <trkpt lat="49.5419" lon="3.48166">
        <ele>86</ele>
        <time>2023-08-18T09:48:36Z</time>
      </trkpt>
      <trkpt lat="49.5419" lon="3.48166">
        <ele>86</ele>
        <time>2023-08-18T09:48:39Z</time>
      </trkpt>
      <trkpt lat="49.5419" lon="3.48169">
        <ele>86</ele>
        <time>2023-08-18T09:48:41Z</time>
      </trkpt>
      <trkpt lat="49.54192" lon="3.48175">
        <ele>86</ele>
        <time>2023-08-18T09:48:45Z</time>
      </trkpt>
      <trkpt lat="49.54194" lon="3.48187">
        <ele>86</ele>
        <time>2023-08-18T09:48:50Z</time>
      </trkpt>
      <trkpt lat="49.54198" lon="3.48199">
        <ele>86</ele>
        <time>2023-08-18T09:48:56Z</time>
      </trkpt>
      <trkpt lat="49.54199" lon="3.48201">
        <ele>86</ele>
        <time>2023-08-18T09:48:58Z</time>
      </trkpt>
      <trkpt lat="49.54201" lon="3.48206">
        <ele>86</ele>
        <time>2023-08-18T09:49:03Z</time>
      </trkpt>
      <trkpt lat="49.54203" lon="3.48214">
        <ele>85.6</ele>
        <time>2023-08-18T09:49:08Z</time>
      </trkpt>
      <trkpt lat="49.54203" lon="3.48216">
        <ele>85.2</ele>
        <time>2023-08-18T09:49:09Z</time>
      </trkpt>
      <trkpt lat="49.54203" lon="3.48218">
        <ele>84.8</ele>
        <time>2023-08-18T09:49:10Z</time>
      </trkpt>
      <trkpt lat="49.54203" lon="3.4822">
        <ele>84.4</ele>
        <time>2023-08-18T09:49:11Z</time>
      </trkpt>
      <trkpt lat="49.54203" lon="3.48222">
        <ele>83.8</ele>
        <time>2023-08-18T09:49:12Z</time>
      </trkpt>
      <trkpt lat="49.54203" lon="3.48228">
        <ele>83.8</ele>
        <time>2023-08-18T09:49:14Z</time>
      </trkpt>
      <trkpt lat="49.54204" lon="3.48241">
        <ele>83.8</ele>
        <time>2023-08-18T09:49:19Z</time>
      </trkpt>
      <trkpt lat="49.54205" lon="3.48244">
        <ele>83.8</ele>
        <time>2023-08-18T09:49:21Z</time>
      </trkpt>
      <trkpt lat="49.54206" lon="3.48246">
        <ele>83.8</ele>
        <time>2023-08-18T09:49:23Z</time>
      </trkpt>
      <trkpt lat="49.54206" lon="3.48247">
        <ele>83.8</ele>
        <time>2023-08-18T09:49:24Z</time>
      </trkpt>
      <trkpt lat="49.54206" lon="3.48253">
        <ele>83.8</ele>
        <time>2023-08-18T09:49:30Z</time>
      </trkpt>
      <trkpt lat="49.54207" lon="3.48257">
        <ele>83.4</ele>
        <time>2023-08-18T09:49:35Z</time>
      </trkpt>
      <trkpt lat="49.54207" lon="3.48257">
        <ele>83</ele>
        <time>2023-08-18T09:49:36Z</time>
      </trkpt>
      <trkpt lat="49.54207" lon="3.48258">
        <ele>82.6</ele>
        <time>2023-08-18T09:49:37Z</time>
      </trkpt>
      <trkpt lat="49.54207" lon="3.48258">
        <ele>82.2</ele>
        <time>2023-08-18T09:49:38Z</time>
      </trkpt>
      <trkpt lat="49.54207" lon="3.48258">
        <ele>81.8</ele>
        <time>2023-08-18T09:49:39Z</time>
      </trkpt>
      <trkpt lat="49.54207" lon="3.48259">
        <ele>81.8</ele>
        <time>2023-08-18T09:49:45Z</time>
      </trkpt>
      <trkpt lat="49.54208" lon="3.48258">
        <ele>81.8</ele>
        <time>2023-08-18T09:49:51Z</time>
      </trkpt>
      <trkpt lat="49.54208" lon="3.48258">
        <ele>81.8</ele>
        <time>2023-08-18T09:49:56Z</time>
      </trkpt>
      <trkpt lat="49.54208" lon="3.48259">
        <ele>81.8</ele>
        <time>2023-08-18T09:49:57Z</time>
      </trkpt>
      <trkpt lat="49.54207" lon="3.48258">
        <ele>81.8</ele>
        <time>2023-08-18T09:50:04Z</time>
      </trkpt>
      <trkpt lat="49.54207" lon="3.48259">
        <ele>81.8</ele>
        <time>2023-08-18T09:50:13Z</time>
      </trkpt>
      <trkpt lat="49.54207" lon="3.48259">
        <ele>81.8</ele>
        <time>2023-08-18T09:50:18Z</time>
      </trkpt>
      <trkpt lat="49.54207" lon="3.48258">
        <ele>81.8</ele>
        <time>2023-08-18T09:50:29Z</time>
      </trkpt>
      <trkpt lat="49.54207" lon="3.48259">
        <ele>81.8</ele>
        <time>2023-08-18T09:50:38Z</time>
      </trkpt>
      <trkpt lat="49.54207" lon="3.48259">
        <ele>81.8</ele>
        <time>2023-08-18T09:50:49Z</time>
      </trkpt>
      <trkpt lat="49.54207" lon="3.48259">
        <ele>81.8</ele>
        <time>2023-08-18T09:50:55Z</time>
      </trkpt>
      <trkpt lat="49.54207" lon="3.48259">
        <ele>81.8</ele>
        <time>2023-08-18T09:51:01Z</time>
      </trkpt>
      <trkpt lat="49.54207" lon="3.48259">
        <ele>81.8</ele>
        <time>2023-08-18T09:51:07Z</time>
      </trkpt>
      <trkpt lat="49.54208" lon="3.48261">
        <ele>81.8</ele>
        <time>2023-08-18T09:51:12Z</time>
      </trkpt>
      <trkpt lat="49.54206" lon="3.48261">
        <ele>81.8</ele>
        <time>2023-08-18T09:51:17Z</time>
      </trkpt>
      <trkpt lat="49.54206" lon="3.48261">
        <ele>81.8</ele>
        <time>2023-08-18T09:51:24Z</time>
      </trkpt>
      <trkpt lat="49.54206" lon="3.4826">
        <ele>81.8</ele>
        <time>2023-08-18T09:51:31Z</time>
      </trkpt>
      <trkpt lat="49.54206" lon="3.4826">
        <ele>81.8</ele>
        <time>2023-08-18T09:51:46Z</time>
      </trkpt>
      <trkpt lat="49.54207" lon="3.48261">
        <ele>81.8</ele>
        <time>2023-08-18T09:51:47Z</time>
      </trkpt>
      <trkpt lat="49.54209" lon="3.48267">
        <ele>81.8</ele>
        <time>2023-08-18T09:51:51Z</time>
      </trkpt>
      <trkpt lat="49.54212" lon="3.48282">
        <ele>81.8</ele>
        <time>2023-08-18T09:51:57Z</time>
      </trkpt>
      <trkpt lat="49.54214" lon="3.48287">
        <ele>81.8</ele>
        <time>2023-08-18T09:52:03Z</time>
      </trkpt>
      <trkpt lat="49.54216" lon="3.483">
        <ele>81.8</ele>
        <time>2023-08-18T09:52:09Z</time>
      </trkpt>
      <trkpt lat="49.54216" lon="3.48305">
        <ele>81.8</ele>
        <time>2023-08-18T09:52:12Z</time>
      </trkpt>
      <trkpt lat="49.54217" lon="3.48307">
        <ele>81.8</ele>
        <time>2023-08-18T09:52:14Z</time>
      </trkpt>
      <trkpt lat="49.54219" lon="3.48315">
        <ele>81.8</ele>
        <time>2023-08-18T09:52:19Z</time>
      </trkpt>
      <trkpt lat="49.54222" lon="3.4833">
        <ele>81.8</ele>
        <time>2023-08-18T09:52:25Z</time>
      </trkpt>
      <trkpt lat="49.54227" lon="3.48341">
        <ele>81.8</ele>
        <time>2023-08-18T09:52:32Z</time>
      </trkpt>
      <trkpt lat="49.54228" lon="3.48343">
        <ele>81.4</ele>
        <time>2023-08-18T09:52:33Z</time>
      </trkpt>
      <trkpt lat="49.54228" lon="3.48344">
        <ele>81</ele>
        <time>2023-08-18T09:52:34Z</time>
      </trkpt>
      <trkpt lat="49.54228" lon="3.48344">
        <ele>80.4</ele>
        <time>2023-08-18T09:52:35Z</time>
      </trkpt>
      <trkpt lat="49.54228" lon="3.48345">
        <ele>80</ele>
        <time>2023-08-18T09:52:36Z</time>
      </trkpt>
      <trkpt lat="49.54229" lon="3.48346">
        <ele>79.6</ele>
        <time>2023-08-18T09:52:37Z</time>
      </trkpt>
      <trkpt lat="49.5423" lon="3.48356">
        <ele>79.6</ele>
        <time>2023-08-18T09:52:43Z</time>
      </trkpt>
      <trkpt lat="49.5423" lon="3.48373">
        <ele>79.6</ele>
        <time>2023-08-18T09:52:49Z</time>
      </trkpt>
      <trkpt lat="49.54234" lon="3.48389">
        <ele>79.6</ele>
        <time>2023-08-18T09:52:55Z</time>
      </trkpt>
      <trkpt lat="49.54237" lon="3.48397">
        <ele>79.6</ele>
        <time>2023-08-18T09:53:01Z</time>
      </trkpt>
      <trkpt lat="49.54238" lon="3.48399">
        <ele>79.2</ele>
        <time>2023-08-18T09:53:05Z</time>
      </trkpt>
      <trkpt lat="49.54238" lon="3.484">
        <ele>78.8</ele>
        <time>2023-08-18T09:53:06Z</time>
      </trkpt>
      <trkpt lat="49.54238" lon="3.48401">
        <ele>78.4</ele>
        <time>2023-08-18T09:53:07Z</time>
      </trkpt>
      <trkpt lat="49.54238" lon="3.48403">
        <ele>77.6</ele>
        <time>2023-08-18T09:53:08Z</time>
      </trkpt>
      <trkpt lat="49.54239" lon="3.48414">
        <ele>77.6</ele>
        <time>2023-08-18T09:53:14Z</time>
      </trkpt>
      <trkpt lat="49.54238" lon="3.48421">
        <ele>77.6</ele>
        <time>2023-08-18T09:53:17Z</time>
      </trkpt>
      <trkpt lat="49.54239" lon="3.48427">
        <ele>77.6</ele>
        <time>2023-08-18T09:53:19Z</time>
      </trkpt>
      <trkpt lat="49.54242" lon="3.48447">
        <ele>77.6</ele>
        <time>2023-08-18T09:53:26Z</time>
      </trkpt>
      <trkpt lat="49.54245" lon="3.48458">
        <ele>77.6</ele>
        <time>2023-08-18T09:53:33Z</time>
      </trkpt>
      <trkpt lat="49.54245" lon="3.48462">
        <ele>77.2</ele>
        <time>2023-08-18T09:53:36Z</time>
      </trkpt>
      <trkpt lat="49.54245" lon="3.48463">
        <ele>76.8</ele>
        <time>2023-08-18T09:53:37Z</time>
      </trkpt>
      <trkpt lat="49.54245" lon="3.48464">
        <ele>76.4</ele>
        <time>2023-08-18T09:53:38Z</time>
      </trkpt>
      <trkpt lat="49.54245" lon="3.48465">
        <ele>76</ele>
        <time>2023-08-18T09:53:39Z</time>
      </trkpt>
      <trkpt lat="49.54245" lon="3.48466">
        <ele>75.6</ele>
        <time>2023-08-18T09:53:40Z</time>
      </trkpt>
      <trkpt lat="49.54244" lon="3.48468">
        <ele>75.6</ele>
        <time>2023-08-18T09:53:41Z</time>
      </trkpt>
      <trkpt lat="49.54244" lon="3.48472">
        <ele>75.6</ele>
        <time>2023-08-18T09:53:44Z</time>
      </trkpt>
      <trkpt lat="49.54243" lon="3.48478">
        <ele>75.6</ele>
        <time>2023-08-18T09:53:47Z</time>
      </trkpt>
      <trkpt lat="49.54243" lon="3.48485">
        <ele>75.6</ele>
        <time>2023-08-18T09:53:50Z</time>
      </trkpt>
      <trkpt lat="49.54243" lon="3.48493">
        <ele>75.6</ele>
        <time>2023-08-18T09:53:53Z</time>
      </trkpt>
      <trkpt lat="49.54242" lon="3.48509">
        <ele>75.6</ele>
        <time>2023-08-18T09:53:59Z</time>
      </trkpt>
      <trkpt lat="49.54241" lon="3.48517">
        <ele>75.6</ele>
        <time>2023-08-18T09:54:02Z</time>
      </trkpt>
      <trkpt lat="49.5424" lon="3.48525">
        <ele>75.6</ele>
        <time>2023-08-18T09:54:05Z</time>
      </trkpt>
      <trkpt lat="49.54239" lon="3.48535">
        <ele>75.6</ele>
        <time>2023-08-18T09:54:10Z</time>
      </trkpt>
      <trkpt lat="49.54239" lon="3.48541">
        <ele>75.6</ele>
        <time>2023-08-18T09:54:16Z</time>
      </trkpt>
      <trkpt lat="49.54239" lon="3.48545">
        <ele>75.6</ele>
        <time>2023-08-18T09:54:18Z</time>
      </trkpt>
      <trkpt lat="49.54237" lon="3.48551">
        <ele>75.6</ele>
        <time>2023-08-18T09:54:21Z</time>
      </trkpt>
      <trkpt lat="49.54235" lon="3.48559">
        <ele>75.6</ele>
        <time>2023-08-18T09:54:24Z</time>
      </trkpt>
      <trkpt lat="49.54233" lon="3.48567">
        <ele>75.6</ele>
        <time>2023-08-18T09:54:27Z</time>
      </trkpt>
      <trkpt lat="49.54234" lon="3.48578">
        <ele>75.6</ele>
        <time>2023-08-18T09:54:33Z</time>
      </trkpt>
      <trkpt lat="49.54234" lon="3.48585">
        <ele>75.6</ele>
        <time>2023-08-18T09:54:39Z</time>
      </trkpt>
      <trkpt lat="49.54233" lon="3.48588">
        <ele>75.6</ele>
        <time>2023-08-18T09:54:42Z</time>
      </trkpt>
      <trkpt lat="49.54231" lon="3.48597">
        <ele>75.6</ele>
        <time>2023-08-18T09:54:46Z</time>
      </trkpt>
      <trkpt lat="49.54227" lon="3.48612">
        <ele>75.6</ele>
        <time>2023-08-18T09:54:52Z</time>
      </trkpt>
      <trkpt lat="49.54225" lon="3.48626">
        <ele>75.6</ele>
        <time>2023-08-18T09:54:58Z</time>
      </trkpt>
      <trkpt lat="49.54225" lon="3.48628">
        <ele>75.2</ele>
        <time>2023-08-18T09:54:59Z</time>
      </trkpt>
      <trkpt lat="49.54225" lon="3.4863">
        <ele>74.8</ele>
        <time>2023-08-18T09:55:00Z</time>
      </trkpt>
      <trkpt lat="49.54226" lon="3.48631">
        <ele>74.4</ele>
        <time>2023-08-18T09:55:01Z</time>
      </trkpt>
      <trkpt lat="49.54226" lon="3.48632">
        <ele>74</ele>
        <time>2023-08-18T09:55:02Z</time>
      </trkpt>
      <trkpt lat="49.54226" lon="3.48633">
        <ele>73.6</ele>
        <time>2023-08-18T09:55:03Z</time>
      </trkpt>
      <trkpt lat="49.54227" lon="3.48634">
        <ele>73.6</ele>
        <time>2023-08-18T09:55:04Z</time>
      </trkpt>
      <trkpt lat="49.54226" lon="3.48644">
        <ele>73.6</ele>
        <time>2023-08-18T09:55:12Z</time>
      </trkpt>
      <trkpt lat="49.54223" lon="3.48654">
        <ele>73.6</ele>
        <time>2023-08-18T09:55:17Z</time>
      </trkpt>
      <trkpt lat="49.54223" lon="3.48657">
        <ele>73.6</ele>
        <time>2023-08-18T09:55:18Z</time>
      </trkpt>
      <trkpt lat="49.54221" lon="3.48667">
        <ele>73.6</ele>
        <time>2023-08-18T09:55:21Z</time>
      </trkpt>
      <trkpt lat="49.54219" lon="3.48675">
        <ele>73.6</ele>
        <time>2023-08-18T09:55:24Z</time>
      </trkpt>
      <trkpt lat="49.54217" lon="3.4869">
        <ele>73.6</ele>
        <time>2023-08-18T09:55:30Z</time>
      </trkpt>
      <trkpt lat="49.54218" lon="3.48698">
        <ele>73.2</ele>
        <time>2023-08-18T09:55:36Z</time>
      </trkpt>
      <trkpt lat="49.54217" lon="3.48699">
        <ele>72.8</ele>
        <time>2023-08-18T09:55:37Z</time>
      </trkpt>
      <trkpt lat="49.54217" lon="3.487">
        <ele>72.4</ele>
        <time>2023-08-18T09:55:38Z</time>
      </trkpt>
      <trkpt lat="49.54217" lon="3.48701">
        <ele>72</ele>
        <time>2023-08-18T09:55:39Z</time>
      </trkpt>
      <trkpt lat="49.54217" lon="3.48702">
        <ele>71.6</ele>
        <time>2023-08-18T09:55:40Z</time>
      </trkpt>
      <trkpt lat="49.54216" lon="3.48705">
        <ele>71.6</ele>
        <time>2023-08-18T09:55:42Z</time>
      </trkpt>
      <trkpt lat="49.54215" lon="3.4871">
        <ele>71.6</ele>
        <time>2023-08-18T09:55:45Z</time>
      </trkpt>
      <trkpt lat="49.54211" lon="3.48721">
        <ele>71.6</ele>
        <time>2023-08-18T09:55:50Z</time>
      </trkpt>
      <trkpt lat="49.54207" lon="3.48735">
        <ele>71.6</ele>
        <time>2023-08-18T09:55:55Z</time>
      </trkpt>
      <trkpt lat="49.54205" lon="3.48752">
        <ele>71.6</ele>
        <time>2023-08-18T09:56:01Z</time>
      </trkpt>
      <trkpt lat="49.54205" lon="3.48761">
        <ele>71.6</ele>
        <time>2023-08-18T09:56:06Z</time>
      </trkpt>
      <trkpt lat="49.54205" lon="3.48767">
        <ele>71.6</ele>
        <time>2023-08-18T09:56:12Z</time>
      </trkpt>
      <trkpt lat="49.54203" lon="3.48777">
        <ele>71.6</ele>
        <time>2023-08-18T09:56:20Z</time>
      </trkpt>
      <trkpt lat="49.54202" lon="3.48776">
        <ele>71.6</ele>
        <time>2023-08-18T09:56:27Z</time>
      </trkpt>
      <trkpt lat="49.54206" lon="3.48775">
        <ele>71.6</ele>
        <time>2023-08-18T09:56:34Z</time>
      </trkpt>
      <trkpt lat="49.54206" lon="3.48774">
        <ele>71.6</ele>
        <time>2023-08-18T09:56:40Z</time>
      </trkpt>
      <trkpt lat="49.54207" lon="3.48773">
        <ele>71.6</ele>
        <time>2023-08-18T09:56:49Z</time>
      </trkpt>
      <trkpt lat="49.54207" lon="3.48773">
        <ele>71.6</ele>
        <time>2023-08-18T09:56:56Z</time>
      </trkpt>
      <trkpt lat="49.54207" lon="3.48773">
        <ele>71.6</ele>
        <time>2023-08-18T09:57:05Z</time>
      </trkpt>
      <trkpt lat="49.54207" lon="3.48773">
        <ele>71.6</ele>
        <time>2023-08-18T09:57:10Z</time>
      </trkpt>
      <trkpt lat="49.54207" lon="3.48773">
        <ele>71.6</ele>
        <time>2023-08-18T09:57:17Z</time>
      </trkpt>
      <trkpt lat="49.54207" lon="3.48773">
        <ele>71.6</ele>
        <time>2023-08-18T09:57:24Z</time>
      </trkpt>
      <trkpt lat="49.54207" lon="3.48773">
        <ele>71.6</ele>
        <time>2023-08-18T09:57:30Z</time>
      </trkpt>
      <trkpt lat="49.54206" lon="3.48773">
        <ele>71.6</ele>
        <time>2023-08-18T09:57:38Z</time>
      </trkpt>
      <trkpt lat="49.54206" lon="3.48773">
        <ele>71.2</ele>
        <time>2023-08-18T09:57:48Z</time>
      </trkpt>
      <trkpt lat="49.54206" lon="3.48773">
        <ele>70.8</ele>
        <time>2023-08-18T09:57:49Z</time>
      </trkpt>
      <trkpt lat="49.54206" lon="3.48773">
        <ele>70.4</ele>
        <time>2023-08-18T09:57:50Z</time>
      </trkpt>
      <trkpt lat="49.54206" lon="3.48773">
        <ele>69.8</ele>
        <time>2023-08-18T09:57:51Z</time>
      </trkpt>
      <trkpt lat="49.54206" lon="3.48773">
        <ele>69.4</ele>
        <time>2023-08-18T09:57:52Z</time>
      </trkpt>
      <trkpt lat="49.54206" lon="3.48776">
        <ele>69.4</ele>
        <time>2023-08-18T09:57:54Z</time>
      </trkpt>
      <trkpt lat="49.54205" lon="3.48778">
        <ele>69.4</ele>
        <time>2023-08-18T09:57:55Z</time>
      </trkpt>
      <trkpt lat="49.54201" lon="3.48785">
        <ele>69.4</ele>
        <time>2023-08-18T09:57:59Z</time>
      </trkpt>
      <trkpt lat="49.54199" lon="3.4879">
        <ele>69.4</ele>
        <time>2023-08-18T09:58:01Z</time>
      </trkpt>
      <trkpt lat="49.54197" lon="3.48804">
        <ele>69.4</ele>
        <time>2023-08-18T09:58:06Z</time>
      </trkpt>
      <trkpt lat="49.54195" lon="3.48815">
        <ele>69.4</ele>
        <time>2023-08-18T09:58:10Z</time>
      </trkpt>
      <trkpt lat="49.54194" lon="3.4882">
        <ele>69.4</ele>
        <time>2023-08-18T09:58:12Z</time>
      </trkpt>
      <trkpt lat="49.54194" lon="3.48825">
        <ele>69.4</ele>
        <time>2023-08-18T09:58:14Z</time>
      </trkpt>
      <trkpt lat="49.54193" lon="3.48833">
        <ele>69.4</ele>
        <time>2023-08-18T09:58:17Z</time>
      </trkpt>
      <trkpt lat="49.54192" lon="3.48846">
        <ele>69.4</ele>
        <time>2023-08-18T09:58:23Z</time>
      </trkpt>
      <trkpt lat="49.54193" lon="3.48853">
        <ele>69.4</ele>
        <time>2023-08-18T09:58:28Z</time>
      </trkpt>
      <trkpt lat="49.54192" lon="3.48855">
        <ele>69.4</ele>
        <time>2023-08-18T09:58:32Z</time>
      </trkpt>
      <trkpt lat="49.54192" lon="3.48857">
        <ele>69.4</ele>
        <time>2023-08-18T09:58:34Z</time>
      </trkpt>
      <trkpt lat="49.54189" lon="3.48865">
        <ele>69.4</ele>
        <time>2023-08-18T09:58:41Z</time>
      </trkpt>
      <trkpt lat="49.54188" lon="3.48869">
        <ele>69.4</ele>
        <time>2023-08-18T09:58:43Z</time>
      </trkpt>
      <trkpt lat="49.54183" lon="3.48886">
        <ele>69.4</ele>
        <time>2023-08-18T09:58:52Z</time>
      </trkpt>
      <trkpt lat="49.54183" lon="3.48889">
        <ele>69.4</ele>
        <time>2023-08-18T09:58:53Z</time>
      </trkpt>
      <trkpt lat="49.5418" lon="3.48899">
        <ele>69.4</ele>
        <time>2023-08-18T09:58:57Z</time>
      </trkpt>
      <trkpt lat="49.54178" lon="3.48904">
        <ele>69.4</ele>
        <time>2023-08-18T09:58:59Z</time>
      </trkpt>
      <trkpt lat="49.54177" lon="3.48912">
        <ele>69.4</ele>
        <time>2023-08-18T09:59:02Z</time>
      </trkpt>
      <trkpt lat="49.54175" lon="3.48921">
        <ele>69.4</ele>
        <time>2023-08-18T09:59:08Z</time>
      </trkpt>
      <trkpt lat="49.54175" lon="3.48921">
        <ele>69.4</ele>
        <time>2023-08-18T09:59:14Z</time>
      </trkpt>
      <trkpt lat="49.54175" lon="3.4892">
        <ele>69.4</ele>
        <time>2023-08-18T09:59:20Z</time>
      </trkpt>
      <trkpt lat="49.54175" lon="3.4892">
        <ele>69.4</ele>
        <time>2023-08-18T09:59:28Z</time>
      </trkpt>
      <trkpt lat="49.54175" lon="3.4892">
        <ele>69.4</ele>
        <time>2023-08-18T09:59:34Z</time>
      </trkpt>
      <trkpt lat="49.54176" lon="3.48919">
        <ele>69.4</ele>
        <time>2023-08-18T09:59:38Z</time>
      </trkpt>
      <trkpt lat="49.54176" lon="3.48919">
        <ele>69.4</ele>
        <time>2023-08-18T09:59:48Z</time>
      </trkpt>
      <trkpt lat="49.54177" lon="3.4892">
        <ele>69.4</ele>
        <time>2023-08-18T10:00:00Z</time>
      </trkpt>
      <trkpt lat="49.54176" lon="3.4892">
        <ele>69.4</ele>
        <time>2023-08-18T10:00:06Z</time>
      </trkpt>
      <trkpt lat="49.54177" lon="3.48925">
        <ele>69.4</ele>
        <time>2023-08-18T10:00:12Z</time>
      </trkpt>
      <trkpt lat="49.54175" lon="3.48932">
        <ele>69.4</ele>
        <time>2023-08-18T10:00:18Z</time>
      </trkpt>
      <trkpt lat="49.54173" lon="3.48942">
        <ele>69.4</ele>
        <time>2023-08-18T10:00:24Z</time>
      </trkpt>
      <trkpt lat="49.54173" lon="3.48946">
        <ele>69.4</ele>
        <time>2023-08-18T10:00:26Z</time>
      </trkpt>
      <trkpt lat="49.54173" lon="3.4895">
        <ele>69.4</ele>
        <time>2023-08-18T10:00:29Z</time>
      </trkpt>
      <trkpt lat="49.54172" lon="3.48955">
        <ele>69.4</ele>
        <time>2023-08-18T10:00:33Z</time>
      </trkpt>
      <trkpt lat="49.54169" lon="3.48958">
        <ele>69.4</ele>
        <time>2023-08-18T10:00:35Z</time>
      </trkpt>
      <trkpt lat="49.54169" lon="3.48961">
        <ele>69.4</ele>
        <time>2023-08-18T10:00:36Z</time>
      </trkpt>
      <trkpt lat="49.54166" lon="3.48973">
        <ele>69.4</ele>
        <time>2023-08-18T10:00:40Z</time>
      </trkpt>
      <trkpt lat="49.54164" lon="3.48978">
        <ele>69.4</ele>
        <time>2023-08-18T10:00:42Z</time>
      </trkpt>
      <trkpt lat="49.54162" lon="3.48987">
        <ele>69.4</ele>
        <time>2023-08-18T10:00:46Z</time>
      </trkpt>
      <trkpt lat="49.54161" lon="3.48993">
        <ele>69.4</ele>
        <time>2023-08-18T10:00:50Z</time>
      </trkpt>
      <trkpt lat="49.54161" lon="3.48995">
        <ele>69.4</ele>
        <time>2023-08-18T10:00:51Z</time>
      </trkpt>
      <trkpt lat="49.5416" lon="3.48999">
        <ele>69.4</ele>
        <time>2023-08-18T10:00:56Z</time>
      </trkpt>
      <trkpt lat="49.54157" lon="3.49006">
        <ele>69.4</ele>
        <time>2023-08-18T10:01:01Z</time>
      </trkpt>
      <trkpt lat="49.54156" lon="3.49008">
        <ele>69.4</ele>
        <time>2023-08-18T10:01:02Z</time>
      </trkpt>
      <trkpt lat="49.54151" lon="3.49023">
        <ele>69.4</ele>
        <time>2023-08-18T10:01:08Z</time>
      </trkpt>
      <trkpt lat="49.54149" lon="3.49031">
        <ele>69.4</ele>
        <time>2023-08-18T10:01:14Z</time>
      </trkpt>
      <trkpt lat="49.54147" lon="3.49038">
        <ele>69.4</ele>
        <time>2023-08-18T10:01:18Z</time>
      </trkpt>
      <trkpt lat="49.54147" lon="3.4904">
        <ele>69.4</ele>
        <time>2023-08-18T10:01:20Z</time>
      </trkpt>
      <trkpt lat="49.54143" lon="3.4905">
        <ele>69.4</ele>
        <time>2023-08-18T10:01:27Z</time>
      </trkpt>
      <trkpt lat="49.5414" lon="3.49054">
        <ele>69.4</ele>
        <time>2023-08-18T10:01:32Z</time>
      </trkpt>
      <trkpt lat="49.54141" lon="3.49057">
        <ele>69.4</ele>
        <time>2023-08-18T10:01:36Z</time>
      </trkpt>
      <trkpt lat="49.54139" lon="3.49066">
        <ele>69.4</ele>
        <time>2023-08-18T10:01:41Z</time>
      </trkpt>
      <trkpt lat="49.54137" lon="3.49073">
        <ele>69.4</ele>
        <time>2023-08-18T10:01:46Z</time>
      </trkpt>
      <trkpt lat="49.54135" lon="3.49078">
        <ele>69.4</ele>
        <time>2023-08-18T10:01:48Z</time>
      </trkpt>
      <trkpt lat="49.54133" lon="3.49087">
        <ele>69.4</ele>
        <time>2023-08-18T10:01:53Z</time>
      </trkpt>
      <trkpt lat="49.54131" lon="3.4909">
        <ele>69.4</ele>
        <time>2023-08-18T10:01:59Z</time>
      </trkpt>
      <trkpt lat="49.54131" lon="3.49095">
        <ele>69.4</ele>
        <time>2023-08-18T10:02:01Z</time>
      </trkpt>
      <trkpt lat="49.54128" lon="3.49104">
        <ele>69.4</ele>
        <time>2023-08-18T10:02:04Z</time>
      </trkpt>
      <trkpt lat="49.54126" lon="3.49111">
        <ele>69.4</ele>
        <time>2023-08-18T10:02:07Z</time>
      </trkpt>
      <trkpt lat="49.54125" lon="3.49117">
        <ele>69.4</ele>
        <time>2023-08-18T10:02:11Z</time>
      </trkpt>
      <trkpt lat="49.54123" lon="3.49126">
        <ele>69.4</ele>
        <time>2023-08-18T10:02:18Z</time>
      </trkpt>
      <trkpt lat="49.54121" lon="3.49135">
        <ele>69</ele>
        <time>2023-08-18T10:02:21Z</time>
      </trkpt>
      <trkpt lat="49.54121" lon="3.49137">
        <ele>68.6</ele>
        <time>2023-08-18T10:02:22Z</time>
      </trkpt>
      <trkpt lat="49.54121" lon="3.4914">
        <ele>68.2</ele>
        <time>2023-08-18T10:02:23Z</time>
      </trkpt>
      <trkpt lat="49.54121" lon="3.49142">
        <ele>67.8</ele>
        <time>2023-08-18T10:02:24Z</time>
      </trkpt>
      <trkpt lat="49.54121" lon="3.49143">
        <ele>67.4</ele>
        <time>2023-08-18T10:02:25Z</time>
      </trkpt>
      <trkpt lat="49.5412" lon="3.49146">
        <ele>67.4</ele>
        <time>2023-08-18T10:02:27Z</time>
      </trkpt>
      <trkpt lat="49.5412" lon="3.49147">
        <ele>67.4</ele>
        <time>2023-08-18T10:02:28Z</time>
      </trkpt>
      <trkpt lat="49.54119" lon="3.49155">
        <ele>67.4</ele>
        <time>2023-08-18T10:02:33Z</time>
      </trkpt>
      <trkpt lat="49.5412" lon="3.49168">
        <ele>67.4</ele>
        <time>2023-08-18T10:02:38Z</time>
      </trkpt>
      <trkpt lat="49.54121" lon="3.49173">
        <ele>67.4</ele>
        <time>2023-08-18T10:02:40Z</time>
      </trkpt>
      <trkpt lat="49.54123" lon="3.49179">
        <ele>67.4</ele>
        <time>2023-08-18T10:02:43Z</time>
      </trkpt>
      <trkpt lat="49.54125" lon="3.49183">
        <ele>67.4</ele>
        <time>2023-08-18T10:02:49Z</time>
      </trkpt>
      <trkpt lat="49.54127" lon="3.49188">
        <ele>67</ele>
        <time>2023-08-18T10:02:52Z</time>
      </trkpt>
      <trkpt lat="49.54127" lon="3.4919">
        <ele>66.6</ele>
        <time>2023-08-18T10:02:53Z</time>
      </trkpt>
      <trkpt lat="49.54129" lon="3.49193">
        <ele>66.2</ele>
        <time>2023-08-18T10:02:54Z</time>
      </trkpt>
      <trkpt lat="49.5413" lon="3.49195">
        <ele>65.8</ele>
        <time>2023-08-18T10:02:55Z</time>
      </trkpt>
      <trkpt lat="49.54131" lon="3.49198">
        <ele>65.4</ele>
        <time>2023-08-18T10:02:56Z</time>
      </trkpt>
      <trkpt lat="49.54134" lon="3.49203">
        <ele>65.4</ele>
        <time>2023-08-18T10:02:59Z</time>
      </trkpt>
      <trkpt lat="49.54135" lon="3.49204">
        <ele>65.4</ele>
        <time>2023-08-18T10:03:03Z</time>
      </trkpt>
      <trkpt lat="49.54138" lon="3.49212">
        <ele>65.4</ele>
        <time>2023-08-18T10:03:07Z</time>
      </trkpt>
      <trkpt lat="49.54138" lon="3.49216">
        <ele>65.4</ele>
        <time>2023-08-18T10:03:11Z</time>
      </trkpt>
      <trkpt lat="49.54137" lon="3.49216">
        <ele>65.4</ele>
        <time>2023-08-18T10:03:17Z</time>
      </trkpt>
      <trkpt lat="49.54137" lon="3.49216">
        <ele>65</ele>
        <time>2023-08-18T10:03:20Z</time>
      </trkpt>
      <trkpt lat="49.54137" lon="3.49216">
        <ele>64.6</ele>
        <time>2023-08-18T10:03:21Z</time>
      </trkpt>
      <trkpt lat="49.54137" lon="3.49216">
        <ele>64.2</ele>
        <time>2023-08-18T10:03:22Z</time>
      </trkpt>
      <trkpt lat="49.54137" lon="3.49216">
        <ele>63.8</ele>
        <time>2023-08-18T10:03:23Z</time>
      </trkpt>
      <trkpt lat="49.54137" lon="3.49216">
        <ele>63.4</ele>
        <time>2023-08-18T10:03:24Z</time>
      </trkpt>
      <trkpt lat="49.54134" lon="3.49216">
        <ele>63.4</ele>
        <time>2023-08-18T10:03:29Z</time>
      </trkpt>
      <trkpt lat="49.54132" lon="3.49216">
        <ele>63.4</ele>
        <time>2023-08-18T10:03:30Z</time>
      </trkpt>
      <trkpt lat="49.54127" lon="3.49219">
        <ele>63.4</ele>
        <time>2023-08-18T10:03:34Z</time>
      </trkpt>
      <trkpt lat="49.54126" lon="3.49219">
        <ele>63.4</ele>
        <time>2023-08-18T10:03:35Z</time>
      </trkpt>
      <trkpt lat="49.54121" lon="3.49216">
        <ele>63.4</ele>
        <time>2023-08-18T10:03:42Z</time>
      </trkpt>
      <trkpt lat="49.54113" lon="3.49209">
        <ele>63.4</ele>
        <time>2023-08-18T10:03:47Z</time>
      </trkpt>
      <trkpt lat="49.54109" lon="3.49207">
        <ele>63.8</ele>
        <time>2023-08-18T10:03:49Z</time>
      </trkpt>
      <trkpt lat="49.54108" lon="3.49207">
        <ele>64.2</ele>
        <time>2023-08-18T10:03:50Z</time>
      </trkpt>
      <trkpt lat="49.54107" lon="3.49207">
        <ele>64.6</ele>
        <time>2023-08-18T10:03:51Z</time>
      </trkpt>
      <trkpt lat="49.54106" lon="3.49206">
        <ele>65</ele>
        <time>2023-08-18T10:03:52Z</time>
      </trkpt>
      <trkpt lat="49.54105" lon="3.49206">
        <ele>65.4</ele>
        <time>2023-08-18T10:03:53Z</time>
      </trkpt>
      <trkpt lat="49.54099" lon="3.49201">
        <ele>65.4</ele>
        <time>2023-08-18T10:03:58Z</time>
      </trkpt>
      <trkpt lat="49.54097" lon="3.492">
        <ele>65.4</ele>
        <time>2023-08-18T10:04:03Z</time>
      </trkpt>
      <trkpt lat="49.54097" lon="3.49199">
        <ele>65.4</ele>
        <time>2023-08-18T10:04:08Z</time>
      </trkpt>
      <trkpt lat="49.54095" lon="3.49198">
        <ele>65.4</ele>
        <time>2023-08-18T10:04:10Z</time>
      </trkpt>
      <trkpt lat="49.5409" lon="3.49196">
        <ele>65.4</ele>
        <time>2023-08-18T10:04:13Z</time>
      </trkpt>
      <trkpt lat="49.54084" lon="3.49189">
        <ele>65.8</ele>
        <time>2023-08-18T10:04:20Z</time>
      </trkpt>
      <trkpt lat="49.54083" lon="3.49187">
        <ele>66.2</ele>
        <time>2023-08-18T10:04:21Z</time>
      </trkpt>
      <trkpt lat="49.54081" lon="3.49185">
        <ele>66.6</ele>
        <time>2023-08-18T10:04:22Z</time>
      </trkpt>
      <trkpt lat="49.54079" lon="3.49184">
        <ele>67</ele>
        <time>2023-08-18T10:04:23Z</time>
      </trkpt>
      <trkpt lat="49.54078" lon="3.49182">
        <ele>67.4</ele>
        <time>2023-08-18T10:04:24Z</time>
      </trkpt>
      <trkpt lat="49.54071" lon="3.49178">
        <ele>67.4</ele>
        <time>2023-08-18T10:04:28Z</time>
      </trkpt>
      <trkpt lat="49.54068" lon="3.49176">
        <ele>67.4</ele>
        <time>2023-08-18T10:04:33Z</time>
      </trkpt>
      <trkpt lat="49.5406" lon="3.49171">
        <ele>67.4</ele>
        <time>2023-08-18T10:04:39Z</time>
      </trkpt>
      <trkpt lat="49.54046" lon="3.49169">
        <ele>67.4</ele>
        <time>2023-08-18T10:04:46Z</time>
      </trkpt>
      <trkpt lat="49.5404" lon="3.49172">
        <ele>67.4</ele>
        <time>2023-08-18T10:04:52Z</time>
      </trkpt>
      <trkpt lat="49.54038" lon="3.49176">
        <ele>67.4</ele>
        <time>2023-08-18T10:04:58Z</time>
      </trkpt>
      <trkpt lat="49.54031" lon="3.49182">
        <ele>67.4</ele>
        <time>2023-08-18T10:05:03Z</time>
      </trkpt>
      <trkpt lat="49.54022" lon="3.49192">
        <ele>67.4</ele>
        <time>2023-08-18T10:05:09Z</time>
      </trkpt>
      <trkpt lat="49.54018" lon="3.492">
        <ele>67.4</ele>
        <time>2023-08-18T10:05:14Z</time>
      </trkpt>
      <trkpt lat="49.54017" lon="3.49203">
        <ele>67.4</ele>
        <time>2023-08-18T10:05:17Z</time>
      </trkpt>
      <trkpt lat="49.54016" lon="3.49204">
        <ele>67.4</ele>
        <time>2023-08-18T10:05:18Z</time>
      </trkpt>
      <trkpt lat="49.54014" lon="3.49207">
        <ele>67.4</ele>
        <time>2023-08-18T10:05:21Z</time>
      </trkpt>
      <trkpt lat="49.54005" lon="3.49216">
        <ele>67.4</ele>
        <time>2023-08-18T10:05:27Z</time>
      </trkpt>
      <trkpt lat="49.53996" lon="3.49228">
        <ele>67.4</ele>
        <time>2023-08-18T10:05:34Z</time>
      </trkpt>
      <trkpt lat="49.5399" lon="3.49238">
        <ele>67.4</ele>
        <time>2023-08-18T10:05:41Z</time>
      </trkpt>
      <trkpt lat="49.53988" lon="3.49243">
        <ele>67.4</ele>
        <time>2023-08-18T10:05:47Z</time>
      </trkpt>
      <trkpt lat="49.5398" lon="3.49252">
        <ele>67.4</ele>
        <time>2023-08-18T10:05:55Z</time>
      </trkpt>
      <trkpt lat="49.53973" lon="3.4926">
        <ele>67.4</ele>
        <time>2023-08-18T10:06:01Z</time>
      </trkpt>
      <trkpt lat="49.53963" lon="3.4927">
        <ele>67.4</ele>
        <time>2023-08-18T10:06:08Z</time>
      </trkpt>
      <trkpt lat="49.53957" lon="3.49279">
        <ele>67.4</ele>
        <time>2023-08-18T10:06:15Z</time>
      </trkpt>
      <trkpt lat="49.53954" lon="3.49285">
        <ele>67.4</ele>
        <time>2023-08-18T10:06:22Z</time>
      </trkpt>
      <trkpt lat="49.53946" lon="3.49291">
        <ele>67.4</ele>
        <time>2023-08-18T10:06:27Z</time>
      </trkpt>
      <trkpt lat="49.53937" lon="3.493">
        <ele>67.4</ele>
        <time>2023-08-18T10:06:33Z</time>
      </trkpt>
      <trkpt lat="49.53932" lon="3.49304">
        <ele>67</ele>
        <time>2023-08-18T10:06:36Z</time>
      </trkpt>
      <trkpt lat="49.53932" lon="3.49305">
        <ele>66.6</ele>
        <time>2023-08-18T10:06:37Z</time>
      </trkpt>
      <trkpt lat="49.53931" lon="3.49305">
        <ele>66.2</ele>
        <time>2023-08-18T10:06:38Z</time>
      </trkpt>
      <trkpt lat="49.53931" lon="3.49306">
        <ele>65.8</ele>
        <time>2023-08-18T10:06:39Z</time>
      </trkpt>
      <trkpt lat="49.5393" lon="3.49307">
        <ele>65.4</ele>
        <time>2023-08-18T10:06:40Z</time>
      </trkpt>
      <trkpt lat="49.53929" lon="3.4931">
        <ele>65.4</ele>
        <time>2023-08-18T10:06:45Z</time>
      </trkpt>
      <trkpt lat="49.53919" lon="3.49318">
        <ele>65.4</ele>
        <time>2023-08-18T10:06:51Z</time>
      </trkpt>
      <trkpt lat="49.53908" lon="3.49327">
        <ele>65.4</ele>
        <time>2023-08-18T10:06:57Z</time>
      </trkpt>
      <trkpt lat="49.53906" lon="3.49331">
        <ele>65</ele>
        <time>2023-08-18T10:07:03Z</time>
      </trkpt>
      <trkpt lat="49.53906" lon="3.49332">
        <ele>64.6</ele>
        <time>2023-08-18T10:07:04Z</time>
      </trkpt>
      <trkpt lat="49.53905" lon="3.49332">
        <ele>64.2</ele>
        <time>2023-08-18T10:07:05Z</time>
      </trkpt>
      <trkpt lat="49.53905" lon="3.49333">
        <ele>63.4</ele>
        <time>2023-08-18T10:07:06Z</time>
      </trkpt>
      <trkpt lat="49.53901" lon="3.49339">
        <ele>63.4</ele>
        <time>2023-08-18T10:07:10Z</time>
      </trkpt>
      <trkpt lat="49.53891" lon="3.49348">
        <ele>63.4</ele>
        <time>2023-08-18T10:07:15Z</time>
      </trkpt>
      <trkpt lat="49.53884" lon="3.49354">
        <ele>63.4</ele>
        <time>2023-08-18T10:07:21Z</time>
      </trkpt>
      <trkpt lat="49.53883" lon="3.49356">
        <ele>63</ele>
        <time>2023-08-18T10:07:23Z</time>
      </trkpt>
      <trkpt lat="49.53883" lon="3.49356">
        <ele>62.6</ele>
        <time>2023-08-18T10:07:24Z</time>
      </trkpt>
      <trkpt lat="49.53883" lon="3.49357">
        <ele>62</ele>
        <time>2023-08-18T10:07:25Z</time>
      </trkpt>
      <trkpt lat="49.53883" lon="3.49358">
        <ele>61.6</ele>
        <time>2023-08-18T10:07:26Z</time>
      </trkpt>
      <trkpt lat="49.53883" lon="3.49359">
        <ele>61.2</ele>
        <time>2023-08-18T10:07:27Z</time>
      </trkpt>
      <trkpt lat="49.53881" lon="3.49361">
        <ele>61.2</ele>
        <time>2023-08-18T10:07:29Z</time>
      </trkpt>
      <trkpt lat="49.53878" lon="3.49364">
        <ele>61.2</ele>
        <time>2023-08-18T10:07:31Z</time>
      </trkpt>
      <trkpt lat="49.53866" lon="3.49376">
        <ele>61.2</ele>
        <time>2023-08-18T10:07:38Z</time>
      </trkpt>
      <trkpt lat="49.53865" lon="3.49379">
        <ele>61.2</ele>
        <time>2023-08-18T10:07:44Z</time>
      </trkpt>
      <trkpt lat="49.53864" lon="3.49379">
        <ele>60.8</ele>
        <time>2023-08-18T10:07:45Z</time>
      </trkpt>
      <trkpt lat="49.53864" lon="3.49379">
        <ele>60.4</ele>
        <time>2023-08-18T10:07:46Z</time>
      </trkpt>
      <trkpt lat="49.53864" lon="3.49379">
        <ele>60</ele>
        <time>2023-08-18T10:07:47Z</time>
      </trkpt>
      <trkpt lat="49.53864" lon="3.49379">
        <ele>59.6</ele>
        <time>2023-08-18T10:07:48Z</time>
      </trkpt>
      <trkpt lat="49.53864" lon="3.49379">
        <ele>59.2</ele>
        <time>2023-08-18T10:07:49Z</time>
      </trkpt>
      <trkpt lat="49.53863" lon="3.4938">
        <ele>59.2</ele>
        <time>2023-08-18T10:07:53Z</time>
      </trkpt>
      <trkpt lat="49.53853" lon="3.49388">
        <ele>59.2</ele>
        <time>2023-08-18T10:07:58Z</time>
      </trkpt>
      <trkpt lat="49.53846" lon="3.4939">
        <ele>59.2</ele>
        <time>2023-08-18T10:08:04Z</time>
      </trkpt>
      <trkpt lat="49.53837" lon="3.49392">
        <ele>59.2</ele>
        <time>2023-08-18T10:08:10Z</time>
      </trkpt>
      <trkpt lat="49.53828" lon="3.49395">
        <ele>59.2</ele>
        <time>2023-08-18T10:08:16Z</time>
      </trkpt>
      <trkpt lat="49.5382" lon="3.49397">
        <ele>59.2</ele>
        <time>2023-08-18T10:08:23Z</time>
      </trkpt>
      <trkpt lat="49.53813" lon="3.49393">
        <ele>59.2</ele>
        <time>2023-08-18T10:08:28Z</time>
      </trkpt>
      <trkpt lat="49.5381" lon="3.49392">
        <ele>59.2</ele>
        <time>2023-08-18T10:08:30Z</time>
      </trkpt>
      <trkpt lat="49.53807" lon="3.49392">
        <ele>58.8</ele>
        <time>2023-08-18T10:08:33Z</time>
      </trkpt>
      <trkpt lat="49.53806" lon="3.49392">
        <ele>58.4</ele>
        <time>2023-08-18T10:08:34Z</time>
      </trkpt>
      <trkpt lat="49.53805" lon="3.49392">
        <ele>58</ele>
        <time>2023-08-18T10:08:35Z</time>
      </trkpt>
      <trkpt lat="49.53805" lon="3.49393">
        <ele>57.6</ele>
        <time>2023-08-18T10:08:36Z</time>
      </trkpt>
      <trkpt lat="49.53805" lon="3.49393">
        <ele>57.2</ele>
        <time>2023-08-18T10:08:37Z</time>
      </trkpt>
      <trkpt lat="49.53798" lon="3.4939">
        <ele>57.2</ele>
        <time>2023-08-18T10:08:43Z</time>
      </trkpt>
      <trkpt lat="49.53786" lon="3.49384">
        <ele>57.2</ele>
        <time>2023-08-18T10:08:50Z</time>
      </trkpt>
      <trkpt lat="49.53772" lon="3.49379">
        <ele>57.2</ele>
        <time>2023-08-18T10:08:56Z</time>
      </trkpt>
      <trkpt lat="49.53768" lon="3.49377">
        <ele>57.2</ele>
        <time>2023-08-18T10:08:59Z</time>
      </trkpt>
      <trkpt lat="49.53767" lon="3.49377">
        <ele>57.2</ele>
        <time>2023-08-18T10:09:00Z</time>
      </trkpt>
      <trkpt lat="49.53761" lon="3.49377">
        <ele>57.2</ele>
        <time>2023-08-18T10:09:07Z</time>
      </trkpt>
      <trkpt lat="49.53753" lon="3.49374">
        <ele>57.2</ele>
        <time>2023-08-18T10:09:12Z</time>
      </trkpt>
      <trkpt lat="49.53744" lon="3.49369">
        <ele>57.2</ele>
        <time>2023-08-18T10:09:18Z</time>
      </trkpt>
      <trkpt lat="49.53741" lon="3.49365">
        <ele>57.2</ele>
        <time>2023-08-18T10:09:24Z</time>
      </trkpt>
      <trkpt lat="49.53736" lon="3.49358">
        <ele>57.2</ele>
        <time>2023-08-18T10:09:29Z</time>
      </trkpt>
      <trkpt lat="49.53735" lon="3.49356">
        <ele>57.2</ele>
        <time>2023-08-18T10:09:30Z</time>
      </trkpt>
      <trkpt lat="49.53726" lon="3.49343">
        <ele>57.2</ele>
        <time>2023-08-18T10:09:36Z</time>
      </trkpt>
      <trkpt lat="49.53722" lon="3.49337">
        <ele>57.2</ele>
        <time>2023-08-18T10:09:41Z</time>
      </trkpt>
      <trkpt lat="49.53723" lon="3.49329">
        <ele>57.2</ele>
        <time>2023-08-18T10:09:47Z</time>
      </trkpt>
      <trkpt lat="49.53722" lon="3.49323">
        <ele>57.2</ele>
        <time>2023-08-18T10:09:53Z</time>
      </trkpt>
      <trkpt lat="49.5372" lon="3.4932">
        <ele>57.2</ele>
        <time>2023-08-18T10:09:54Z</time>
      </trkpt>
      <trkpt lat="49.53719" lon="3.49312">
        <ele>57.2</ele>
        <time>2023-08-18T10:09:57Z</time>
      </trkpt>
      <trkpt lat="49.53718" lon="3.49291">
        <ele>57.2</ele>
        <time>2023-08-18T10:10:03Z</time>
      </trkpt>
      <trkpt lat="49.53714" lon="3.49283">
        <ele>57.2</ele>
        <time>2023-08-18T10:10:07Z</time>
      </trkpt>
      <trkpt lat="49.53713" lon="3.49282">
        <ele>57.2</ele>
        <time>2023-08-18T10:10:08Z</time>
      </trkpt>
      <trkpt lat="49.53712" lon="3.49281">
        <ele>57.2</ele>
        <time>2023-08-18T10:10:09Z</time>
      </trkpt>
      <trkpt lat="49.5371" lon="3.49279">
        <ele>57.2</ele>
        <time>2023-08-18T10:10:13Z</time>
      </trkpt>
      <trkpt lat="49.53709" lon="3.49273">
        <ele>57.2</ele>
        <time>2023-08-18T10:10:19Z</time>
      </trkpt>
      <trkpt lat="49.53705" lon="3.49258">
        <ele>57.2</ele>
        <time>2023-08-18T10:10:24Z</time>
      </trkpt>
      <trkpt lat="49.53705" lon="3.49255">
        <ele>57.2</ele>
        <time>2023-08-18T10:10:25Z</time>
      </trkpt>
      <trkpt lat="49.53702" lon="3.49239">
        <ele>57.2</ele>
        <time>2023-08-18T10:10:30Z</time>
      </trkpt>
      <trkpt lat="49.537" lon="3.49229">
        <ele>57.2</ele>
        <time>2023-08-18T10:10:36Z</time>
      </trkpt>
      <trkpt lat="49.537" lon="3.49227">
        <ele>57.2</ele>
        <time>2023-08-18T10:10:41Z</time>
      </trkpt>
      <trkpt lat="49.53697" lon="3.49219">
        <ele>57.2</ele>
        <time>2023-08-18T10:10:46Z</time>
      </trkpt>
      <trkpt lat="49.53693" lon="3.49198">
        <ele>57.2</ele>
        <time>2023-08-18T10:10:52Z</time>
      </trkpt>
      <trkpt lat="49.53691" lon="3.49191">
        <ele>57.2</ele>
        <time>2023-08-18T10:10:55Z</time>
      </trkpt>
      <trkpt lat="49.53689" lon="3.49187">
        <ele>57.2</ele>
        <time>2023-08-18T10:10:58Z</time>
      </trkpt>
      <trkpt lat="49.53688" lon="3.49182">
        <ele>57.2</ele>
        <time>2023-08-18T10:11:04Z</time>
      </trkpt>
      <trkpt lat="49.53687" lon="3.49177">
        <ele>57.2</ele>
        <time>2023-08-18T10:11:10Z</time>
      </trkpt>
      <trkpt lat="49.53683" lon="3.49164">
        <ele>57.2</ele>
        <time>2023-08-18T10:11:15Z</time>
      </trkpt>
      <trkpt lat="49.53673" lon="3.49149">
        <ele>57.2</ele>
        <time>2023-08-18T10:11:21Z</time>
      </trkpt>
      <trkpt lat="49.5367" lon="3.49132">
        <ele>57.2</ele>
        <time>2023-08-18T10:11:26Z</time>
      </trkpt>
      <trkpt lat="49.53666" lon="3.49124">
        <ele>57.2</ele>
        <time>2023-08-18T10:11:31Z</time>
      </trkpt>
      <trkpt lat="49.53666" lon="3.49123">
        <ele>57.2</ele>
        <time>2023-08-18T10:11:32Z</time>
      </trkpt>
      <trkpt lat="49.53667" lon="3.49119">
        <ele>57.2</ele>
        <time>2023-08-18T10:11:37Z</time>
      </trkpt>
      <trkpt lat="49.53667" lon="3.49115">
        <ele>57.2</ele>
        <time>2023-08-18T10:11:43Z</time>
      </trkpt>
      <trkpt lat="49.53668" lon="3.49106">
        <ele>57.2</ele>
        <time>2023-08-18T10:11:47Z</time>
      </trkpt>
      <trkpt lat="49.53668" lon="3.49104">
        <ele>57.2</ele>
        <time>2023-08-18T10:11:48Z</time>
      </trkpt>
      <trkpt lat="49.53667" lon="3.49101">
        <ele>57.2</ele>
        <time>2023-08-18T10:11:49Z</time>
      </trkpt>
      <trkpt lat="49.53663" lon="3.49092">
        <ele>57.2</ele>
        <time>2023-08-18T10:11:52Z</time>
      </trkpt>
      <trkpt lat="49.53662" lon="3.49084">
        <ele>57.2</ele>
        <time>2023-08-18T10:11:54Z</time>
      </trkpt>
      <trkpt lat="49.53661" lon="3.4907">
        <ele>57.2</ele>
        <time>2023-08-18T10:11:57Z</time>
      </trkpt>
      <trkpt lat="49.53659" lon="3.49066">
        <ele>57.2</ele>
        <time>2023-08-18T10:11:59Z</time>
      </trkpt>
      <trkpt lat="49.53658" lon="3.49061">
        <ele>57.2</ele>
        <time>2023-08-18T10:12:01Z</time>
      </trkpt>
      <trkpt lat="49.53657" lon="3.4906">
        <ele>57.2</ele>
        <time>2023-08-18T10:12:05Z</time>
      </trkpt>
      <trkpt lat="49.53656" lon="3.49057">
        <ele>57.2</ele>
        <time>2023-08-18T10:12:11Z</time>
      </trkpt>
      <trkpt lat="49.53651" lon="3.49048">
        <ele>57.2</ele>
        <time>2023-08-18T10:12:15Z</time>
      </trkpt>
      <trkpt lat="49.53647" lon="3.49042">
        <ele>57.2</ele>
        <time>2023-08-18T10:12:19Z</time>
      </trkpt>
      <trkpt lat="49.53641" lon="3.49036">
        <ele>57.2</ele>
        <time>2023-08-18T10:12:23Z</time>
      </trkpt>
      <trkpt lat="49.53639" lon="3.49033">
        <ele>57.2</ele>
        <time>2023-08-18T10:12:27Z</time>
      </trkpt>
      <trkpt lat="49.53634" lon="3.49029">
        <ele>57.2</ele>
        <time>2023-08-18T10:12:34Z</time>
      </trkpt>
      <trkpt lat="49.53631" lon="3.49023">
        <ele>57.2</ele>
        <time>2023-08-18T10:12:40Z</time>
      </trkpt>
      <trkpt lat="49.53628" lon="3.4902">
        <ele>57.2</ele>
        <time>2023-08-18T10:12:45Z</time>
      </trkpt>
      <trkpt lat="49.53622" lon="3.49012">
        <ele>57.2</ele>
        <time>2023-08-18T10:12:52Z</time>
      </trkpt>
      <trkpt lat="49.53609" lon="3.49001">
        <ele>57.2</ele>
        <time>2023-08-18T10:12:58Z</time>
      </trkpt>
      <trkpt lat="49.53603" lon="3.48996">
        <ele>57.2</ele>
        <time>2023-08-18T10:13:03Z</time>
      </trkpt>
      <trkpt lat="49.536" lon="3.48993">
        <ele>57.2</ele>
        <time>2023-08-18T10:13:09Z</time>
      </trkpt>
      <trkpt lat="49.536" lon="3.48993">
        <ele>57.2</ele>
        <time>2023-08-18T10:13:18Z</time>
      </trkpt>
      <trkpt lat="49.536" lon="3.48992">
        <ele>57.2</ele>
        <time>2023-08-18T10:13:27Z</time>
      </trkpt>
      <trkpt lat="49.536" lon="3.48992">
        <ele>57.2</ele>
        <time>2023-08-18T10:13:33Z</time>
      </trkpt>
      <trkpt lat="49.536" lon="3.48992">
        <ele>57.2</ele>
        <time>2023-08-18T10:13:42Z</time>
      </trkpt>
      <trkpt lat="49.53598" lon="3.48994">
        <ele>57.2</ele>
        <time>2023-08-18T10:13:51Z</time>
      </trkpt>
      <trkpt lat="49.53595" lon="3.48989">
        <ele>57.2</ele>
        <time>2023-08-18T10:13:56Z</time>
      </trkpt>
      <trkpt lat="49.53595" lon="3.48989">
        <ele>57.2</ele>
        <time>2023-08-18T10:14:04Z</time>
      </trkpt>
      <trkpt lat="49.53596" lon="3.4899">
        <ele>57.2</ele>
        <time>2023-08-18T10:14:11Z</time>
      </trkpt>
      <trkpt lat="49.53595" lon="3.48989">
        <ele>57.2</ele>
        <time>2023-08-18T10:14:20Z</time>
      </trkpt>
      <trkpt lat="49.53594" lon="3.4899">
        <ele>57.2</ele>
        <time>2023-08-18T10:14:25Z</time>
      </trkpt>
      <trkpt lat="49.53594" lon="3.4899">
        <ele>57.2</ele>
        <time>2023-08-18T10:14:33Z</time>
      </trkpt>
      <trkpt lat="49.53594" lon="3.48989">
        <ele>57.2</ele>
        <time>2023-08-18T10:14:39Z</time>
      </trkpt>
      <trkpt lat="49.53594" lon="3.48989">
        <ele>57.2</ele>
        <time>2023-08-18T10:14:48Z</time>
      </trkpt>
      <trkpt lat="49.53594" lon="3.48992">
        <ele>57.2</ele>
        <time>2023-08-18T10:14:56Z</time>
      </trkpt>
      <trkpt lat="49.53594" lon="3.48994">
        <ele>57.2</ele>
        <time>2023-08-18T10:15:03Z</time>
      </trkpt>
      <trkpt lat="49.53596" lon="3.48996">
        <ele>57.2</ele>
        <time>2023-08-18T10:15:11Z</time>
      </trkpt>
      <trkpt lat="49.53596" lon="3.48996">
        <ele>57.2</ele>
        <time>2023-08-18T10:15:20Z</time>
      </trkpt>
      <trkpt lat="49.53594" lon="3.48994">
        <ele>57.2</ele>
        <time>2023-08-18T10:15:26Z</time>
      </trkpt>
      <trkpt lat="49.53594" lon="3.48991">
        <ele>57.2</ele>
        <time>2023-08-18T10:15:32Z</time>
      </trkpt>
      <trkpt lat="49.53594" lon="3.48991">
        <ele>57.2</ele>
        <time>2023-08-18T10:15:41Z</time>
      </trkpt>
      <trkpt lat="49.53594" lon="3.48991">
        <ele>57.2</ele>
        <time>2023-08-18T10:15:49Z</time>
      </trkpt>
      <trkpt lat="49.53594" lon="3.48991">
        <ele>57.2</ele>
        <time>2023-08-18T10:16:00Z</time>
      </trkpt>
      <trkpt lat="49.53594" lon="3.48991">
        <ele>57.2</ele>
        <time>2023-08-18T10:16:08Z</time>
      </trkpt>
      <trkpt lat="49.53594" lon="3.48991">
        <ele>57.2</ele>
        <time>2023-08-18T10:16:17Z</time>
      </trkpt>
      <trkpt lat="49.53594" lon="3.48991">
        <ele>57.2</ele>
        <time>2023-08-18T10:16:28Z</time>
      </trkpt>
      <trkpt lat="49.53594" lon="3.48991">
        <ele>57.2</ele>
        <time>2023-08-18T10:16:39Z</time>
      </trkpt>
      <trkpt lat="49.53594" lon="3.48991">
        <ele>57.2</ele>
        <time>2023-08-18T10:16:40Z</time>
      </trkpt>
      <trkpt lat="49.53593" lon="3.48991">
        <ele>57.2</ele>
        <time>2023-08-18T10:16:51Z</time>
      </trkpt>
      <trkpt lat="49.53592" lon="3.4899">
        <ele>57.2</ele>
        <time>2023-08-18T10:16:52Z</time>
      </trkpt>
      <trkpt lat="49.53588" lon="3.48985">
        <ele>57.2</ele>
        <time>2023-08-18T10:16:56Z</time>
      </trkpt>
      <trkpt lat="49.53584" lon="3.48979">
        <ele>57.2</ele>
        <time>2023-08-18T10:17:03Z</time>
      </trkpt>
      <trkpt lat="49.53579" lon="3.48971">
        <ele>57.2</ele>
        <time>2023-08-18T10:17:08Z</time>
      </trkpt>
      <trkpt lat="49.53576" lon="3.48962">
        <ele>57.2</ele>
        <time>2023-08-18T10:17:15Z</time>
      </trkpt>
      <trkpt lat="49.5357" lon="3.48958">
        <ele>57.2</ele>
        <time>2023-08-18T10:17:22Z</time>
      </trkpt>
      <trkpt lat="49.53569" lon="3.4896">
        <ele>57.2</ele>
        <time>2023-08-18T10:17:29Z</time>
      </trkpt>
      <trkpt lat="49.53567" lon="3.48964">
        <ele>57.2</ele>
        <time>2023-08-18T10:17:35Z</time>
      </trkpt>
      <trkpt lat="49.53565" lon="3.48963">
        <ele>57.2</ele>
        <time>2023-08-18T10:17:40Z</time>
      </trkpt>
      <trkpt lat="49.53566" lon="3.48964">
        <ele>57.2</ele>
        <time>2023-08-18T10:17:43Z</time>
      </trkpt>
      <trkpt lat="49.53566" lon="3.48965">
        <ele>57.2</ele>
        <time>2023-08-18T10:17:44Z</time>
      </trkpt>
      <trkpt lat="49.53567" lon="3.48968">
        <ele>57.2</ele>
        <time>2023-08-18T10:17:49Z</time>
      </trkpt>
      <trkpt lat="49.53567" lon="3.4897">
        <ele>57.2</ele>
        <time>2023-08-18T10:17:55Z</time>
      </trkpt>
      <trkpt lat="49.53568" lon="3.4897">
        <ele>57.2</ele>
        <time>2023-08-18T10:18:02Z</time>
      </trkpt>
      <trkpt lat="49.53568" lon="3.4897">
        <ele>57.2</ele>
        <time>2023-08-18T10:18:12Z</time>
      </trkpt>
      <trkpt lat="49.53568" lon="3.4897">
        <ele>57.2</ele>
        <time>2023-08-18T10:18:20Z</time>
      </trkpt>
      <trkpt lat="49.53568" lon="3.4897">
        <ele>57.2</ele>
        <time>2023-08-18T10:18:29Z</time>
      </trkpt>
      <trkpt lat="49.53568" lon="3.4897">
        <ele>57.2</ele>
        <time>2023-08-18T10:18:39Z</time>
      </trkpt>
      <trkpt lat="49.53568" lon="3.4897">
        <ele>57.2</ele>
        <time>2023-08-18T10:18:47Z</time>
      </trkpt>
      <trkpt lat="49.53567" lon="3.4897">
        <ele>57.2</ele>
        <time>2023-08-18T10:18:56Z</time>
      </trkpt>
      <trkpt lat="49.53567" lon="3.48969">
        <ele>57.2</ele>
        <time>2023-08-18T10:19:08Z</time>
      </trkpt>
      <trkpt lat="49.53566" lon="3.48967">
        <ele>57.2</ele>
        <time>2023-08-18T10:19:12Z</time>
      </trkpt>
      <trkpt lat="49.53566" lon="3.48967">
        <ele>57.2</ele>
        <time>2023-08-18T10:19:21Z</time>
      </trkpt>
      <trkpt lat="49.53566" lon="3.48967">
        <ele>57.2</ele>
        <time>2023-08-18T10:19:31Z</time>
      </trkpt>
      <trkpt lat="49.53566" lon="3.48967">
        <ele>57.2</ele>
        <time>2023-08-18T10:19:36Z</time>
      </trkpt>
      <trkpt lat="49.53566" lon="3.48967">
        <ele>57.2</ele>
        <time>2023-08-18T10:19:44Z</time>
      </trkpt>
      <trkpt lat="49.53567" lon="3.48967">
        <ele>57.2</ele>
        <time>2023-08-18T10:19:50Z</time>
      </trkpt>
      <trkpt lat="49.53567" lon="3.48967">
        <ele>57.2</ele>
        <time>2023-08-18T10:19:57Z</time>
      </trkpt>
      <trkpt lat="49.53566" lon="3.48967">
        <ele>57.2</ele>
        <time>2023-08-18T10:20:03Z</time>
      </trkpt>
      <trkpt lat="49.53566" lon="3.48967">
        <ele>57.2</ele>
        <time>2023-08-18T10:20:12Z</time>
      </trkpt>
      <trkpt lat="49.53566" lon="3.48967">
        <ele>57.2</ele>
        <time>2023-08-18T10:20:22Z</time>
      </trkpt>
      <trkpt lat="49.53566" lon="3.48967">
        <ele>57.2</ele>
        <time>2023-08-18T10:20:35Z</time>
      </trkpt>
      <trkpt lat="49.53566" lon="3.48967">
        <ele>57.2</ele>
        <time>2023-08-18T10:20:48Z</time>
      </trkpt>
      <trkpt lat="49.53567" lon="3.48968">
        <ele>57.2</ele>
        <time>2023-08-18T10:21:00Z</time>
      </trkpt>
      <trkpt lat="49.53567" lon="3.48968">
        <ele>57.2</ele>
        <time>2023-08-18T10:21:14Z</time>
      </trkpt>
      <trkpt lat="49.53567" lon="3.48968">
        <ele>57.2</ele>
        <time>2023-08-18T10:21:26Z</time>
      </trkpt>
      <trkpt lat="49.53567" lon="3.48968">
        <ele>57.2</ele>
        <time>2023-08-18T10:21:42Z</time>
      </trkpt>
      <trkpt lat="49.53567" lon="3.48968">
        <ele>57.2</ele>
        <time>2023-08-18T10:21:56Z</time>
      </trkpt>
      <trkpt lat="49.53567" lon="3.48968">
        <ele>57.2</ele>
        <time>2023-08-18T10:22:08Z</time>
      </trkpt>
      <trkpt lat="49.53565" lon="3.48966">
        <ele>57.2</ele>
        <time>2023-08-18T10:22:12Z</time>
      </trkpt>
      <trkpt lat="49.53565" lon="3.48966">
        <ele>57.2</ele>
        <time>2023-08-18T10:22:13Z</time>
      </trkpt>
      <trkpt lat="49.53566" lon="3.48967">
        <ele>57.2</ele>
        <time>2023-08-18T10:22:22Z</time>
      </trkpt>
      <trkpt lat="49.53566" lon="3.48966">
        <ele>57.2</ele>
        <time>2023-08-18T10:22:29Z</time>
      </trkpt>
      <trkpt lat="49.53566" lon="3.48966">
        <ele>57.2</ele>
        <time>2023-08-18T10:22:35Z</time>
      </trkpt>
      <trkpt lat="49.53566" lon="3.48967">
        <ele>57.2</ele>
        <time>2023-08-18T10:22:44Z</time>
      </trkpt>
      <trkpt lat="49.53566" lon="3.48966">
        <ele>57.2</ele>
        <time>2023-08-18T10:22:50Z</time>
      </trkpt>
      <trkpt lat="49.53567" lon="3.48962">
        <ele>57.2</ele>
        <time>2023-08-18T10:22:55Z</time>
      </trkpt>
      <trkpt lat="49.53568" lon="3.48961">
        <ele>57.2</ele>
        <time>2023-08-18T10:22:56Z</time>
      </trkpt>
      <trkpt lat="49.53572" lon="3.48961">
        <ele>57.2</ele>
        <time>2023-08-18T10:23:01Z</time>
      </trkpt>
      <trkpt lat="49.53577" lon="3.48966">
        <ele>57.2</ele>
        <time>2023-08-18T10:23:06Z</time>
      </trkpt>
      <trkpt lat="49.53579" lon="3.48972">
        <ele>57.2</ele>
        <time>2023-08-18T10:23:12Z</time>
      </trkpt>
      <trkpt lat="49.53581" lon="3.48974">
        <ele>57.2</ele>
        <time>2023-08-18T10:23:13Z</time>
      </trkpt>
      <trkpt lat="49.53584" lon="3.48978">
        <ele>57.2</ele>
        <time>2023-08-18T10:23:17Z</time>
      </trkpt>
      <trkpt lat="49.53588" lon="3.48983">
        <ele>57.2</ele>
        <time>2023-08-18T10:23:23Z</time>
      </trkpt>
      <trkpt lat="49.53592" lon="3.48985">
        <ele>57.2</ele>
        <time>2023-08-18T10:23:30Z</time>
      </trkpt>
      <trkpt lat="49.53594" lon="3.48987">
        <ele>57.2</ele>
        <time>2023-08-18T10:23:37Z</time>
      </trkpt>
      <trkpt lat="49.53594" lon="3.48988">
        <ele>57.2</ele>
        <time>2023-08-18T10:23:47Z</time>
      </trkpt>
      <trkpt lat="49.53601" lon="3.48995">
        <ele>35.8</ele>
        <time>2023-08-18T10:50:03Z</time>
      </trkpt>
      <trkpt lat="49.53601" lon="3.48995">
        <ele>36.2</ele>
        <time>2023-08-18T10:50:04Z</time>
      </trkpt>
      <trkpt lat="49.536" lon="3.48996">
        <ele>36.6</ele>
        <time>2023-08-18T10:50:05Z</time>
      </trkpt>
      <trkpt lat="49.53599" lon="3.48997">
        <ele>37</ele>
        <time>2023-08-18T10:50:06Z</time>
      </trkpt>
      <trkpt lat="49.53599" lon="3.48998">
        <ele>37.4</ele>
        <time>2023-08-18T10:50:07Z</time>
      </trkpt>
      <trkpt lat="49.53598" lon="3.48998">
        <ele>38</ele>
        <time>2023-08-18T10:50:08Z</time>
      </trkpt>
      <trkpt lat="49.53598" lon="3.48999">
        <ele>38.4</ele>
        <time>2023-08-18T10:50:09Z</time>
      </trkpt>
      <trkpt lat="49.53597" lon="3.48999">
        <ele>39</ele>
        <time>2023-08-18T10:50:10Z</time>
      </trkpt>
      <trkpt lat="49.53597" lon="3.48999">
        <ele>39.6</ele>
        <time>2023-08-18T10:50:11Z</time>
      </trkpt>
      <trkpt lat="49.53597" lon="3.48999">
        <ele>40.2</ele>
        <time>2023-08-18T10:50:12Z</time>
      </trkpt>
      <trkpt lat="49.53597" lon="3.48999">
        <ele>41</ele>
        <time>2023-08-18T10:50:13Z</time>
      </trkpt>
      <trkpt lat="49.53597" lon="3.48999">
        <ele>41.6</ele>
        <time>2023-08-18T10:50:14Z</time>
      </trkpt>
      <trkpt lat="49.53597" lon="3.48999">
        <ele>42.2</ele>
        <time>2023-08-18T10:50:15Z</time>
      </trkpt>
      <trkpt lat="49.53597" lon="3.48999">
        <ele>42.8</ele>
        <time>2023-08-18T10:50:16Z</time>
      </trkpt>
      <trkpt lat="49.53596" lon="3.48999">
        <ele>43.6</ele>
        <time>2023-08-18T10:50:17Z</time>
      </trkpt>
      <trkpt lat="49.53596" lon="3.48998">
        <ele>44.2</ele>
        <time>2023-08-18T10:50:18Z</time>
      </trkpt>
      <trkpt lat="49.53596" lon="3.48998">
        <ele>44.8</ele>
        <time>2023-08-18T10:50:19Z</time>
      </trkpt>
      <trkpt lat="49.53595" lon="3.48997">
        <ele>45.6</ele>
        <time>2023-08-18T10:50:20Z</time>
      </trkpt>
      <trkpt lat="49.53595" lon="3.48997">
        <ele>46.8</ele>
        <time>2023-08-18T10:50:21Z</time>
      </trkpt>
      <trkpt lat="49.53595" lon="3.48997">
        <ele>47.4</ele>
        <time>2023-08-18T10:50:22Z</time>
      </trkpt>
      <trkpt lat="49.53594" lon="3.48996">
        <ele>48</ele>
        <time>2023-08-18T10:50:23Z</time>
      </trkpt>
      <trkpt lat="49.53594" lon="3.48995">
        <ele>48.6</ele>
        <time>2023-08-18T10:50:24Z</time>
      </trkpt>
      <trkpt lat="49.53594" lon="3.48994">
        <ele>49.4</ele>
        <time>2023-08-18T10:50:25Z</time>
      </trkpt>
      <trkpt lat="49.53593" lon="3.48994">
        <ele>50</ele>
        <time>2023-08-18T10:50:26Z</time>
      </trkpt>
      <trkpt lat="49.53593" lon="3.48993">
        <ele>50.6</ele>
        <time>2023-08-18T10:50:27Z</time>
      </trkpt>
      <trkpt lat="49.53592" lon="3.48992">
        <ele>51.2</ele>
        <time>2023-08-18T10:50:28Z</time>
      </trkpt>
      <trkpt lat="49.53592" lon="3.48991">
        <ele>52</ele>
        <time>2023-08-18T10:50:29Z</time>
      </trkpt>
      <trkpt lat="49.53591" lon="3.4899">
        <ele>52.6</ele>
        <time>2023-08-18T10:50:30Z</time>
      </trkpt>
      <trkpt lat="49.53591" lon="3.48989">
        <ele>53.2</ele>
        <time>2023-08-18T10:50:31Z</time>
      </trkpt>
      <trkpt lat="49.5359" lon="3.48988">
        <ele>53.6</ele>
        <time>2023-08-18T10:50:32Z</time>
      </trkpt>
      <trkpt lat="49.5359" lon="3.48988">
        <ele>54.2</ele>
        <time>2023-08-18T10:50:33Z</time>
      </trkpt>
      <trkpt lat="49.5359" lon="3.48987">
        <ele>54.6</ele>
        <time>2023-08-18T10:50:34Z</time>
      </trkpt>
      <trkpt lat="49.53589" lon="3.48986">
        <ele>55.2</ele>
        <time>2023-08-18T10:50:35Z</time>
      </trkpt>
      <trkpt lat="49.53588" lon="3.48985">
        <ele>55.6</ele>
        <time>2023-08-18T10:50:36Z</time>
      </trkpt>
      <trkpt lat="49.53588" lon="3.48985">
        <ele>56</ele>
        <time>2023-08-18T10:50:37Z</time>
      </trkpt>
      <trkpt lat="49.53587" lon="3.48984">
        <ele>56.6</ele>
        <time>2023-08-18T10:50:38Z</time>
      </trkpt>
      <trkpt lat="49.53587" lon="3.48983">
        <ele>57</ele>
        <time>2023-08-18T10:50:39Z</time>
      </trkpt>
      <trkpt lat="49.53587" lon="3.48983">
        <ele>57.4</ele>
        <time>2023-08-18T10:50:40Z</time>
      </trkpt>
      <trkpt lat="49.53586" lon="3.48982">
        <ele>58</ele>
        <time>2023-08-18T10:50:41Z</time>
      </trkpt>
      <trkpt lat="49.53586" lon="3.48981">
        <ele>58.4</ele>
        <time>2023-08-18T10:50:42Z</time>
      </trkpt>
      <trkpt lat="49.53585" lon="3.48981">
        <ele>59</ele>
        <time>2023-08-18T10:50:43Z</time>
      </trkpt>
      <trkpt lat="49.53584" lon="3.4898">
        <ele>59.4</ele>
        <time>2023-08-18T10:50:44Z</time>
      </trkpt>
      <trkpt lat="49.53584" lon="3.48977">
        <ele>60.4</ele>
        <time>2023-08-18T10:50:46Z</time>
      </trkpt>
      <trkpt lat="49.53585" lon="3.48976">
        <ele>61</ele>
        <time>2023-08-18T10:50:47Z</time>
      </trkpt>
      <trkpt lat="49.53585" lon="3.48976">
        <ele>61.4</ele>
        <time>2023-08-18T10:50:48Z</time>
      </trkpt>
      <trkpt lat="49.53583" lon="3.48976">
        <ele>61.8</ele>
        <time>2023-08-18T10:50:49Z</time>
      </trkpt>
      <trkpt lat="49.53583" lon="3.48975">
        <ele>61.8</ele>
        <time>2023-08-18T10:50:50Z</time>
      </trkpt>
      <trkpt lat="49.53581" lon="3.48974">
        <ele>62.4</ele>
        <time>2023-08-18T10:50:51Z</time>
      </trkpt>
      <trkpt lat="49.5358" lon="3.48973">
        <ele>62.8</ele>
        <time>2023-08-18T10:50:52Z</time>
      </trkpt>
      <trkpt lat="49.53579" lon="3.48973">
        <ele>63.2</ele>
        <time>2023-08-18T10:50:53Z</time>
      </trkpt>
      <trkpt lat="49.53579" lon="3.48973">
        <ele>63.6</ele>
        <time>2023-08-18T10:50:54Z</time>
      </trkpt>
      <trkpt lat="49.53578" lon="3.48973">
        <ele>64.2</ele>
        <time>2023-08-18T10:50:55Z</time>
      </trkpt>
      <trkpt lat="49.53575" lon="3.48973">
        <ele>64.2</ele>
        <time>2023-08-18T10:50:58Z</time>
      </trkpt>
      <trkpt lat="49.53574" lon="3.48971">
        <ele>64.6</ele>
        <time>2023-08-18T10:50:59Z</time>
      </trkpt>
      <trkpt lat="49.53573" lon="3.4897">
        <ele>65</ele>
        <time>2023-08-18T10:51:00Z</time>
      </trkpt>
      <trkpt lat="49.53571" lon="3.48969">
        <ele>65.4</ele>
        <time>2023-08-18T10:51:01Z</time>
      </trkpt>
      <trkpt lat="49.53571" lon="3.48968">
        <ele>65.8</ele>
        <time>2023-08-18T10:51:02Z</time>
      </trkpt>
      <trkpt lat="49.5357" lon="3.48967">
        <ele>66.4</ele>
        <time>2023-08-18T10:51:03Z</time>
      </trkpt>
      <trkpt lat="49.53569" lon="3.48965">
        <ele>66.8</ele>
        <time>2023-08-18T10:51:06Z</time>
      </trkpt>
      <trkpt lat="49.53568" lon="3.48965">
        <ele>67.2</ele>
        <time>2023-08-18T10:51:07Z</time>
      </trkpt>
      <trkpt lat="49.53568" lon="3.48964">
        <ele>67.6</ele>
        <time>2023-08-18T10:51:08Z</time>
      </trkpt>
      <trkpt lat="49.53567" lon="3.48964">
        <ele>68</ele>
        <time>2023-08-18T10:51:09Z</time>
      </trkpt>
      <trkpt lat="49.53567" lon="3.48964">
        <ele>68.6</ele>
        <time>2023-08-18T10:51:10Z</time>
      </trkpt>
      <trkpt lat="49.53565" lon="3.48964">
        <ele>69</ele>
        <time>2023-08-18T10:51:13Z</time>
      </trkpt>
      <trkpt lat="49.53565" lon="3.48963">
        <ele>69.4</ele>
        <time>2023-08-18T10:51:14Z</time>
      </trkpt>
      <trkpt lat="49.53565" lon="3.48963">
        <ele>69.8</ele>
        <time>2023-08-18T10:51:15Z</time>
      </trkpt>
      <trkpt lat="49.53565" lon="3.48963">
        <ele>70.2</ele>
        <time>2023-08-18T10:51:16Z</time>
      </trkpt>
      <trkpt lat="49.53565" lon="3.48963">
        <ele>70.6</ele>
        <time>2023-08-18T10:51:17Z</time>
      </trkpt>
      <trkpt lat="49.53565" lon="3.48966">
        <ele>70.6</ele>
        <time>2023-08-18T10:51:20Z</time>
      </trkpt>
      <trkpt lat="49.53564" lon="3.48972">
        <ele>70.6</ele>
        <time>2023-08-18T10:51:26Z</time>
      </trkpt>
      <trkpt lat="49.53564" lon="3.48972">
        <ele>71</ele>
        <time>2023-08-18T10:51:27Z</time>
      </trkpt>
      <trkpt lat="49.53564" lon="3.48973">
        <ele>71.4</ele>
        <time>2023-08-18T10:51:28Z</time>
      </trkpt>
      <trkpt lat="49.53564" lon="3.48975">
        <ele>71.8</ele>
        <time>2023-08-18T10:51:29Z</time>
      </trkpt>
      <trkpt lat="49.53563" lon="3.48976">
        <ele>72.4</ele>
        <time>2023-08-18T10:51:30Z</time>
      </trkpt>
      <trkpt lat="49.53563" lon="3.48977">
        <ele>72.8</ele>
        <time>2023-08-18T10:51:31Z</time>
      </trkpt>
      <trkpt lat="49.5356" lon="3.48983">
        <ele>72.8</ele>
        <time>2023-08-18T10:51:37Z</time>
      </trkpt>
      <trkpt lat="49.53558" lon="3.48987">
        <ele>72.8</ele>
        <time>2023-08-18T10:51:44Z</time>
      </trkpt>
      <trkpt lat="49.53557" lon="3.48991">
        <ele>72.8</ele>
        <time>2023-08-18T10:51:50Z</time>
      </trkpt>
      <trkpt lat="49.53554" lon="3.48994">
        <ele>72.8</ele>
        <time>2023-08-18T10:51:56Z</time>
      </trkpt>
      <trkpt lat="49.53553" lon="3.48996">
        <ele>72.8</ele>
        <time>2023-08-18T10:52:02Z</time>
      </trkpt>
      <trkpt lat="49.53552" lon="3.48999">
        <ele>72.8</ele>
        <time>2023-08-18T10:52:08Z</time>
      </trkpt>
      <trkpt lat="49.53553" lon="3.49005">
        <ele>74.6</ele>
        <time>2023-08-18T10:52:13Z</time>
      </trkpt>
      <trkpt lat="49.53553" lon="3.49007">
        <ele>74.8</ele>
        <time>2023-08-18T10:52:14Z</time>
      </trkpt>
      <trkpt lat="49.53555" lon="3.49009">
        <ele>74.8</ele>
        <time>2023-08-18T10:52:17Z</time>
      </trkpt>
      <trkpt lat="49.53558" lon="3.49018">
        <ele>74.8</ele>
        <time>2023-08-18T10:52:23Z</time>
      </trkpt>
      <trkpt lat="49.53558" lon="3.49024">
        <ele>74.8</ele>
        <time>2023-08-18T10:52:30Z</time>
      </trkpt>
      <trkpt lat="49.53556" lon="3.49033">
        <ele>74.8</ele>
        <time>2023-08-18T10:52:36Z</time>
      </trkpt>
      <trkpt lat="49.53555" lon="3.49033">
        <ele>74.8</ele>
        <time>2023-08-18T10:52:39Z</time>
      </trkpt>
      <trkpt lat="49.53555" lon="3.49035">
        <ele>74.8</ele>
        <time>2023-08-18T10:52:41Z</time>
      </trkpt>
      <trkpt lat="49.53556" lon="3.49043">
        <ele>74.8</ele>
        <time>2023-08-18T10:52:48Z</time>
      </trkpt>
      <trkpt lat="49.53559" lon="3.4905">
        <ele>74.8</ele>
        <time>2023-08-18T10:52:56Z</time>
      </trkpt>
      <trkpt lat="49.53561" lon="3.49057">
        <ele>74.8</ele>
        <time>2023-08-18T10:53:04Z</time>
      </trkpt>
      <trkpt lat="49.5356" lon="3.49066">
        <ele>74.8</ele>
        <time>2023-08-18T10:53:10Z</time>
      </trkpt>
      <trkpt lat="49.53559" lon="3.4908">
        <ele>74.8</ele>
        <time>2023-08-18T10:53:16Z</time>
      </trkpt>
      <trkpt lat="49.53559" lon="3.4909">
        <ele>74.8</ele>
        <time>2023-08-18T10:53:23Z</time>
      </trkpt>
      <trkpt lat="49.5356" lon="3.491">
        <ele>74.8</ele>
        <time>2023-08-18T10:53:32Z</time>
      </trkpt>
      <trkpt lat="49.53561" lon="3.49104">
        <ele>74.8</ele>
        <time>2023-08-18T10:53:40Z</time>
      </trkpt>
      <trkpt lat="49.53561" lon="3.49104">
        <ele>74.8</ele>
        <time>2023-08-18T10:53:49Z</time>
      </trkpt>
      <trkpt lat="49.53561" lon="3.49104">
        <ele>74.8</ele>
        <time>2023-08-18T10:53:51Z</time>
      </trkpt>
      <trkpt lat="49.53561" lon="3.49102">
        <ele>74.8</ele>
        <time>2023-08-18T10:53:56Z</time>
      </trkpt>
      <trkpt lat="49.53562" lon="3.49102">
        <ele>74.8</ele>
        <time>2023-08-18T10:54:01Z</time>
      </trkpt>
      <trkpt lat="49.53562" lon="3.49102">
        <ele>74.8</ele>
        <time>2023-08-18T10:54:09Z</time>
      </trkpt>
      <trkpt lat="49.53563" lon="3.49103">
        <ele>74.8</ele>
        <time>2023-08-18T10:54:16Z</time>
      </trkpt>
      <trkpt lat="49.53562" lon="3.49105">
        <ele>74.8</ele>
        <time>2023-08-18T10:54:23Z</time>
      </trkpt>
      <trkpt lat="49.5356" lon="3.49103">
        <ele>74.8</ele>
        <time>2023-08-18T10:54:31Z</time>
      </trkpt>
      <trkpt lat="49.53564" lon="3.49106">
        <ele>74.8</ele>
        <time>2023-08-18T10:54:39Z</time>
      </trkpt>
      <trkpt lat="49.53564" lon="3.49106">
        <ele>74.8</ele>
        <time>2023-08-18T10:54:52Z</time>
      </trkpt>
      <trkpt lat="49.53564" lon="3.49106">
        <ele>74.8</ele>
        <time>2023-08-18T10:55:00Z</time>
      </trkpt>
      <trkpt lat="49.53562" lon="3.49106">
        <ele>74.8</ele>
        <time>2023-08-18T10:55:08Z</time>
      </trkpt>
      <trkpt lat="49.5356" lon="3.49107">
        <ele>74.8</ele>
        <time>2023-08-18T10:55:12Z</time>
      </trkpt>
      <trkpt lat="49.53563" lon="3.49112">
        <ele>74.8</ele>
        <time>2023-08-18T10:55:17Z</time>
      </trkpt>
      <trkpt lat="49.53556" lon="3.49114">
        <ele>74.8</ele>
        <time>2023-08-18T10:55:26Z</time>
      </trkpt>
      <trkpt lat="49.5356" lon="3.49109">
        <ele>74.8</ele>
        <time>2023-08-18T10:55:34Z</time>
      </trkpt>
      <trkpt lat="49.53561" lon="3.49109">
        <ele>74.8</ele>
        <time>2023-08-18T10:55:44Z</time>
      </trkpt>
      <trkpt lat="49.53562" lon="3.49109">
        <ele>74.8</ele>
        <time>2023-08-18T10:55:54Z</time>
      </trkpt>
      <trkpt lat="49.53562" lon="3.49109">
        <ele>74.8</ele>
        <time>2023-08-18T10:56:05Z</time>
      </trkpt>
      <trkpt lat="49.53564" lon="3.49109">
        <ele>74.8</ele>
        <time>2023-08-18T10:56:15Z</time>
      </trkpt>
      <trkpt lat="49.53564" lon="3.49117">
        <ele>74.8</ele>
        <time>2023-08-18T10:56:26Z</time>
      </trkpt>
      <trkpt lat="49.53564" lon="3.49127">
        <ele>74.8</ele>
        <time>2023-08-18T10:56:33Z</time>
      </trkpt>
      <trkpt lat="49.53563" lon="3.49142">
        <ele>74.8</ele>
        <time>2023-08-18T10:56:41Z</time>
      </trkpt>
      <trkpt lat="49.53562" lon="3.49152">
        <ele>74.8</ele>
        <time>2023-08-18T10:56:47Z</time>
      </trkpt>
      <trkpt lat="49.53561" lon="3.49154">
        <ele>74.8</ele>
        <time>2023-08-18T10:56:48Z</time>
      </trkpt>
      <trkpt lat="49.53559" lon="3.49161">
        <ele>74.8</ele>
        <time>2023-08-18T10:56:55Z</time>
      </trkpt>
      <trkpt lat="49.53556" lon="3.49163">
        <ele>74.8</ele>
        <time>2023-08-18T10:57:02Z</time>
      </trkpt>
      <trkpt lat="49.53553" lon="3.49168">
        <ele>74.8</ele>
        <time>2023-08-18T10:57:08Z</time>
      </trkpt>
      <trkpt lat="49.53552" lon="3.49178">
        <ele>74.8</ele>
        <time>2023-08-18T10:57:15Z</time>
      </trkpt>
      <trkpt lat="49.53553" lon="3.49184">
        <ele>74.8</ele>
        <time>2023-08-18T10:57:21Z</time>
      </trkpt>
      <trkpt lat="49.53553" lon="3.49198">
        <ele>74.8</ele>
        <time>2023-08-18T10:57:29Z</time>
      </trkpt>
      <trkpt lat="49.53552" lon="3.49199">
        <ele>75.2</ele>
        <time>2023-08-18T10:57:30Z</time>
      </trkpt>
      <trkpt lat="49.53552" lon="3.49201">
        <ele>75.6</ele>
        <time>2023-08-18T10:57:31Z</time>
      </trkpt>
      <trkpt lat="49.53551" lon="3.49203">
        <ele>76</ele>
        <time>2023-08-18T10:57:32Z</time>
      </trkpt>
      <trkpt lat="49.5355" lon="3.49205">
        <ele>76.4</ele>
        <time>2023-08-18T10:57:33Z</time>
      </trkpt>
      <trkpt lat="49.53549" lon="3.49207">
        <ele>76.8</ele>
        <time>2023-08-18T10:57:34Z</time>
      </trkpt>
      <trkpt lat="49.53546" lon="3.49212">
        <ele>76.8</ele>
        <time>2023-08-18T10:57:38Z</time>
      </trkpt>
      <trkpt lat="49.53541" lon="3.49218">
        <ele>76.8</ele>
        <time>2023-08-18T10:57:43Z</time>
      </trkpt>
      <trkpt lat="49.53538" lon="3.49221">
        <ele>76.8</ele>
        <time>2023-08-18T10:57:47Z</time>
      </trkpt>
      <trkpt lat="49.53535" lon="3.49225">
        <ele>76.8</ele>
        <time>2023-08-18T10:57:49Z</time>
      </trkpt>
      <trkpt lat="49.5353" lon="3.49229">
        <ele>76.8</ele>
        <time>2023-08-18T10:57:54Z</time>
      </trkpt>
      <trkpt lat="49.53527" lon="3.49231">
        <ele>76.8</ele>
        <time>2023-08-18T10:57:57Z</time>
      </trkpt>
      <trkpt lat="49.53525" lon="3.49235">
        <ele>76.8</ele>
        <time>2023-08-18T10:58:01Z</time>
      </trkpt>
      <trkpt lat="49.5352" lon="3.49236">
        <ele>76.8</ele>
        <time>2023-08-18T10:58:08Z</time>
      </trkpt>
      <trkpt lat="49.53517" lon="3.49234">
        <ele>77.2</ele>
        <time>2023-08-18T10:58:14Z</time>
      </trkpt>
      <trkpt lat="49.53516" lon="3.49235">
        <ele>77.6</ele>
        <time>2023-08-18T10:58:15Z</time>
      </trkpt>
      <trkpt lat="49.53516" lon="3.49235">
        <ele>78</ele>
        <time>2023-08-18T10:58:16Z</time>
      </trkpt>
      <trkpt lat="49.53516" lon="3.49236">
        <ele>78.4</ele>
        <time>2023-08-18T10:58:17Z</time>
      </trkpt>
      <trkpt lat="49.53516" lon="3.49236">
        <ele>78.8</ele>
        <time>2023-08-18T10:58:18Z</time>
      </trkpt>
      <trkpt lat="49.53514" lon="3.49238">
        <ele>78.8</ele>
        <time>2023-08-18T10:58:21Z</time>
      </trkpt>
      <trkpt lat="49.53514" lon="3.49239">
        <ele>79.2</ele>
        <time>2023-08-18T10:58:22Z</time>
      </trkpt>
      <trkpt lat="49.53513" lon="3.49239">
        <ele>79.6</ele>
        <time>2023-08-18T10:58:23Z</time>
      </trkpt>
      <trkpt lat="49.53513" lon="3.49242">
        <ele>80</ele>
        <time>2023-08-18T10:58:24Z</time>
      </trkpt>
      <trkpt lat="49.53513" lon="3.49243">
        <ele>80.4</ele>
        <time>2023-08-18T10:58:25Z</time>
      </trkpt>
      <trkpt lat="49.53513" lon="3.49243">
        <ele>80.8</ele>
        <time>2023-08-18T10:58:26Z</time>
      </trkpt>
      <trkpt lat="49.53515" lon="3.49248">
        <ele>80.8</ele>
        <time>2023-08-18T10:58:32Z</time>
      </trkpt>
      <trkpt lat="49.53516" lon="3.4925">
        <ele>80.8</ele>
        <time>2023-08-18T10:58:34Z</time>
      </trkpt>
      <trkpt lat="49.53519" lon="3.49253">
        <ele>80.8</ele>
        <time>2023-08-18T10:58:37Z</time>
      </trkpt>
      <trkpt lat="49.53523" lon="3.4926">
        <ele>80.4</ele>
        <time>2023-08-18T10:58:42Z</time>
      </trkpt>
      <trkpt lat="49.53524" lon="3.4926">
        <ele>80</ele>
        <time>2023-08-18T10:58:43Z</time>
      </trkpt>
      <trkpt lat="49.53524" lon="3.4926">
        <ele>79.6</ele>
        <time>2023-08-18T10:58:44Z</time>
      </trkpt>
      <trkpt lat="49.53524" lon="3.49263">
        <ele>79</ele>
        <time>2023-08-18T10:58:45Z</time>
      </trkpt>
      <trkpt lat="49.53524" lon="3.49265">
        <ele>78.6</ele>
        <time>2023-08-18T10:58:46Z</time>
      </trkpt>
      <trkpt lat="49.53524" lon="3.49267">
        <ele>78.6</ele>
        <time>2023-08-18T10:58:47Z</time>
      </trkpt>
      <trkpt lat="49.5352" lon="3.49273">
        <ele>78.6</ele>
        <time>2023-08-18T10:58:53Z</time>
      </trkpt>
      <trkpt lat="49.53518" lon="3.49278">
        <ele>78.6</ele>
        <time>2023-08-18T10:58:56Z</time>
      </trkpt>
      <trkpt lat="49.53515" lon="3.49286">
        <ele>78.6</ele>
        <time>2023-08-18T10:58:59Z</time>
      </trkpt>
      <trkpt lat="49.53512" lon="3.49296">
        <ele>78.6</ele>
        <time>2023-08-18T10:59:04Z</time>
      </trkpt>
      <trkpt lat="49.53512" lon="3.49299">
        <ele>78.6</ele>
        <time>2023-08-18T10:59:06Z</time>
      </trkpt>
      <trkpt lat="49.53512" lon="3.49303">
        <ele>78.6</ele>
        <time>2023-08-18T10:59:11Z</time>
      </trkpt>
      <trkpt lat="49.53509" lon="3.49319">
        <ele>78.6</ele>
        <time>2023-08-18T10:59:19Z</time>
      </trkpt>
      <trkpt lat="49.53505" lon="3.49336">
        <ele>78.6</ele>
        <time>2023-08-18T10:59:27Z</time>
      </trkpt>
      <trkpt lat="49.53504" lon="3.49347">
        <ele>78.6</ele>
        <time>2023-08-18T10:59:34Z</time>
      </trkpt>
      <trkpt lat="49.53503" lon="3.49351">
        <ele>78.6</ele>
        <time>2023-08-18T10:59:40Z</time>
      </trkpt>
      <trkpt lat="49.53503" lon="3.49354">
        <ele>78.6</ele>
        <time>2023-08-18T10:59:42Z</time>
      </trkpt>
      <trkpt lat="49.53501" lon="3.49362">
        <ele>78.6</ele>
        <time>2023-08-18T10:59:49Z</time>
      </trkpt>
      <trkpt lat="49.53499" lon="3.49375">
        <ele>78.6</ele>
        <time>2023-08-18T10:59:55Z</time>
      </trkpt>
      <trkpt lat="49.53499" lon="3.4938">
        <ele>78.6</ele>
        <time>2023-08-18T11:00:01Z</time>
      </trkpt>
      <trkpt lat="49.53496" lon="3.49387">
        <ele>78.6</ele>
        <time>2023-08-18T11:00:06Z</time>
      </trkpt>
      <trkpt lat="49.53495" lon="3.49394">
        <ele>78.6</ele>
        <time>2023-08-18T11:00:12Z</time>
      </trkpt>
      <trkpt lat="49.53495" lon="3.49404">
        <ele>78.6</ele>
        <time>2023-08-18T11:00:19Z</time>
      </trkpt>
      <trkpt lat="49.53496" lon="3.49409">
        <ele>78.6</ele>
        <time>2023-08-18T11:00:28Z</time>
      </trkpt>
      <trkpt lat="49.53498" lon="3.49413">
        <ele>79</ele>
        <time>2023-08-18T11:00:32Z</time>
      </trkpt>
      <trkpt lat="49.53499" lon="3.49415">
        <ele>79.4</ele>
        <time>2023-08-18T11:00:33Z</time>
      </trkpt>
      <trkpt lat="49.53499" lon="3.49416">
        <ele>79.8</ele>
        <time>2023-08-18T11:00:34Z</time>
      </trkpt>
      <trkpt lat="49.535" lon="3.49418">
        <ele>80.2</ele>
        <time>2023-08-18T11:00:35Z</time>
      </trkpt>
      <trkpt lat="49.535" lon="3.4942">
        <ele>80.6</ele>
        <time>2023-08-18T11:00:36Z</time>
      </trkpt>
      <trkpt lat="49.53502" lon="3.49423">
        <ele>80.6</ele>
        <time>2023-08-18T11:00:39Z</time>
      </trkpt>
      <trkpt lat="49.53506" lon="3.49439">
        <ele>80.6</ele>
        <time>2023-08-18T11:00:46Z</time>
      </trkpt>
      <trkpt lat="49.53508" lon="3.49457">
        <ele>80.6</ele>
        <time>2023-08-18T11:00:54Z</time>
      </trkpt>
      <trkpt lat="49.53507" lon="3.49471">
        <ele>80.6</ele>
        <time>2023-08-18T11:01:01Z</time>
      </trkpt>
      <trkpt lat="49.53508" lon="3.49477">
        <ele>80.6</ele>
        <time>2023-08-18T11:01:08Z</time>
      </trkpt>
      <trkpt lat="49.5351" lon="3.49487">
        <ele>80.6</ele>
        <time>2023-08-18T11:01:15Z</time>
      </trkpt>
      <trkpt lat="49.53511" lon="3.49499">
        <ele>80.6</ele>
        <time>2023-08-18T11:01:21Z</time>
      </trkpt>
      <trkpt lat="49.53512" lon="3.49514">
        <ele>80.6</ele>
        <time>2023-08-18T11:01:29Z</time>
      </trkpt>
      <trkpt lat="49.53514" lon="3.49524">
        <ele>80.6</ele>
        <time>2023-08-18T11:01:33Z</time>
      </trkpt>
      <trkpt lat="49.53513" lon="3.49531">
        <ele>80.6</ele>
        <time>2023-08-18T11:01:36Z</time>
      </trkpt>
      <trkpt lat="49.53512" lon="3.49541">
        <ele>80.6</ele>
        <time>2023-08-18T11:01:43Z</time>
      </trkpt>
      <trkpt lat="49.53512" lon="3.49549">
        <ele>80.6</ele>
        <time>2023-08-18T11:01:50Z</time>
      </trkpt>
      <trkpt lat="49.5351" lon="3.49559">
        <ele>80.6</ele>
        <time>2023-08-18T11:01:57Z</time>
      </trkpt>
      <trkpt lat="49.53511" lon="3.49575">
        <ele>80.6</ele>
        <time>2023-08-18T11:02:05Z</time>
      </trkpt>
      <trkpt lat="49.53509" lon="3.49584">
        <ele>80.6</ele>
        <time>2023-08-18T11:02:12Z</time>
      </trkpt>
      <trkpt lat="49.53508" lon="3.49597">
        <ele>80.6</ele>
        <time>2023-08-18T11:02:18Z</time>
      </trkpt>
      <trkpt lat="49.53507" lon="3.49606">
        <ele>80.6</ele>
        <time>2023-08-18T11:02:25Z</time>
      </trkpt>
      <trkpt lat="49.53507" lon="3.49614">
        <ele>80.6</ele>
        <time>2023-08-18T11:02:30Z</time>
      </trkpt>
      <trkpt lat="49.53507" lon="3.4962">
        <ele>80.6</ele>
        <time>2023-08-18T11:02:32Z</time>
      </trkpt>
      <trkpt lat="49.53506" lon="3.49629">
        <ele>80.6</ele>
        <time>2023-08-18T11:02:38Z</time>
      </trkpt>
      <trkpt lat="49.53505" lon="3.49641">
        <ele>80.6</ele>
        <time>2023-08-18T11:02:46Z</time>
      </trkpt>
      <trkpt lat="49.53503" lon="3.49645">
        <ele>80.6</ele>
        <time>2023-08-18T11:02:49Z</time>
      </trkpt>
      <trkpt lat="49.535" lon="3.49649">
        <ele>80.6</ele>
        <time>2023-08-18T11:02:52Z</time>
      </trkpt>
      <trkpt lat="49.53499" lon="3.49654">
        <ele>80.6</ele>
        <time>2023-08-18T11:02:58Z</time>
      </trkpt>
      <trkpt lat="49.53497" lon="3.49662">
        <ele>80.6</ele>
        <time>2023-08-18T11:03:06Z</time>
      </trkpt>
      <trkpt lat="49.53496" lon="3.49666">
        <ele>80.6</ele>
        <time>2023-08-18T11:03:07Z</time>
      </trkpt>
      <trkpt lat="49.53494" lon="3.49674">
        <ele>80.6</ele>
        <time>2023-08-18T11:03:11Z</time>
      </trkpt>
      <trkpt lat="49.53494" lon="3.49676">
        <ele>80.6</ele>
        <time>2023-08-18T11:03:16Z</time>
      </trkpt>
      <trkpt lat="49.53492" lon="3.49689">
        <ele>80.6</ele>
        <time>2023-08-18T11:03:22Z</time>
      </trkpt>
      <trkpt lat="49.53493" lon="3.49698">
        <ele>80.6</ele>
        <time>2023-08-18T11:03:27Z</time>
      </trkpt>
      <trkpt lat="49.53493" lon="3.49702">
        <ele>80.6</ele>
        <time>2023-08-18T11:03:29Z</time>
      </trkpt>
      <trkpt lat="49.53494" lon="3.49712">
        <ele>80.6</ele>
        <time>2023-08-18T11:03:34Z</time>
      </trkpt>
      <trkpt lat="49.53494" lon="3.49717">
        <ele>80.6</ele>
        <time>2023-08-18T11:03:40Z</time>
      </trkpt>
      <trkpt lat="49.53495" lon="3.49728">
        <ele>80.6</ele>
        <time>2023-08-18T11:03:47Z</time>
      </trkpt>
      <trkpt lat="49.53493" lon="3.49732">
        <ele>80.6</ele>
        <time>2023-08-18T11:03:56Z</time>
      </trkpt>
      <trkpt lat="49.53491" lon="3.49738">
        <ele>80.6</ele>
        <time>2023-08-18T11:04:04Z</time>
      </trkpt>
      <trkpt lat="49.53486" lon="3.49747">
        <ele>80.6</ele>
        <time>2023-08-18T11:04:11Z</time>
      </trkpt>
      <trkpt lat="49.53484" lon="3.49757">
        <ele>80.6</ele>
        <time>2023-08-18T11:04:17Z</time>
      </trkpt>
      <trkpt lat="49.53484" lon="3.49759">
        <ele>80.6</ele>
        <time>2023-08-18T11:04:18Z</time>
      </trkpt>
      <trkpt lat="49.53485" lon="3.49768">
        <ele>80.6</ele>
        <time>2023-08-18T11:04:25Z</time>
      </trkpt>
      <trkpt lat="49.53486" lon="3.4977">
        <ele>81</ele>
        <time>2023-08-18T11:04:26Z</time>
      </trkpt>
      <trkpt lat="49.53486" lon="3.49771">
        <ele>81.4</ele>
        <time>2023-08-18T11:04:27Z</time>
      </trkpt>
      <trkpt lat="49.53486" lon="3.49772">
        <ele>81.8</ele>
        <time>2023-08-18T11:04:28Z</time>
      </trkpt>
      <trkpt lat="49.53487" lon="3.49773">
        <ele>82.2</ele>
        <time>2023-08-18T11:04:29Z</time>
      </trkpt>
      <trkpt lat="49.53486" lon="3.49774">
        <ele>82.6</ele>
        <time>2023-08-18T11:04:30Z</time>
      </trkpt>
      <trkpt lat="49.53487" lon="3.49778">
        <ele>82.6</ele>
        <time>2023-08-18T11:04:33Z</time>
      </trkpt>
      <trkpt lat="49.53487" lon="3.49781">
        <ele>82.6</ele>
        <time>2023-08-18T11:04:41Z</time>
      </trkpt>
      <trkpt lat="49.53487" lon="3.49781">
        <ele>82.6</ele>
        <time>2023-08-18T11:04:49Z</time>
      </trkpt>
      <trkpt lat="49.53487" lon="3.49781">
        <ele>82.6</ele>
        <time>2023-08-18T11:04:58Z</time>
      </trkpt>
      <trkpt lat="49.53487" lon="3.49781">
        <ele>82.6</ele>
        <time>2023-08-18T11:05:05Z</time>
      </trkpt>
      <trkpt lat="49.53487" lon="3.49781">
        <ele>82.6</ele>
        <time>2023-08-18T11:05:13Z</time>
      </trkpt>
      <trkpt lat="49.53487" lon="3.49781">
        <ele>82.6</ele>
        <time>2023-08-18T11:05:22Z</time>
      </trkpt>
      <trkpt lat="49.53487" lon="3.49781">
        <ele>82.6</ele>
        <time>2023-08-18T11:05:33Z</time>
      </trkpt>
      <trkpt lat="49.53487" lon="3.49781">
        <ele>82.6</ele>
        <time>2023-08-18T11:05:48Z</time>
      </trkpt>
      <trkpt lat="49.53487" lon="3.49781">
        <ele>82.6</ele>
        <time>2023-08-18T11:06:01Z</time>
      </trkpt>
      <trkpt lat="49.53487" lon="3.49781">
        <ele>82.6</ele>
        <time>2023-08-18T11:06:16Z</time>
      </trkpt>
      <trkpt lat="49.53487" lon="3.49781">
        <ele>82.6</ele>
        <time>2023-08-18T11:06:25Z</time>
      </trkpt>
      <trkpt lat="49.53487" lon="3.49781">
        <ele>82.6</ele>
        <time>2023-08-18T11:06:35Z</time>
      </trkpt>
      <trkpt lat="49.53487" lon="3.49784">
        <ele>82.6</ele>
        <time>2023-08-18T11:06:46Z</time>
      </trkpt>
      <trkpt lat="49.53485" lon="3.49784">
        <ele>82.6</ele>
        <time>2023-08-18T11:06:54Z</time>
      </trkpt>
      <trkpt lat="49.53481" lon="3.49782">
        <ele>82.6</ele>
        <time>2023-08-18T11:07:06Z</time>
      </trkpt>
      <trkpt lat="49.53481" lon="3.49782">
        <ele>82.6</ele>
        <time>2023-08-18T11:07:15Z</time>
      </trkpt>
      <trkpt lat="49.53481" lon="3.49782">
        <ele>82.6</ele>
        <time>2023-08-18T11:07:25Z</time>
      </trkpt>
      <trkpt lat="49.53481" lon="3.49782">
        <ele>82.6</ele>
        <time>2023-08-18T11:07:32Z</time>
      </trkpt>
      <trkpt lat="49.53482" lon="3.49782">
        <ele>82.6</ele>
        <time>2023-08-18T11:07:41Z</time>
      </trkpt>
      <trkpt lat="49.53482" lon="3.49782">
        <ele>82.6</ele>
        <time>2023-08-18T11:07:50Z</time>
      </trkpt>
      <trkpt lat="49.53486" lon="3.49789">
        <ele>82.6</ele>
        <time>2023-08-18T11:08:00Z</time>
      </trkpt>
      <trkpt lat="49.53485" lon="3.49801">
        <ele>82.6</ele>
        <time>2023-08-18T11:08:07Z</time>
      </trkpt>
      <trkpt lat="49.53481" lon="3.49818">
        <ele>82.6</ele>
        <time>2023-08-18T11:08:15Z</time>
      </trkpt>
      <trkpt lat="49.53479" lon="3.49823">
        <ele>82.6</ele>
        <time>2023-08-18T11:08:22Z</time>
      </trkpt>
      <trkpt lat="49.53475" lon="3.4984">
        <ele>82.6</ele>
        <time>2023-08-18T11:08:31Z</time>
      </trkpt>
      <trkpt lat="49.53474" lon="3.49848">
        <ele>82.6</ele>
        <time>2023-08-18T11:08:38Z</time>
      </trkpt>
      <trkpt lat="49.53473" lon="3.49854">
        <ele>82.6</ele>
        <time>2023-08-18T11:08:46Z</time>
      </trkpt>
      <trkpt lat="49.53472" lon="3.49856">
        <ele>82.6</ele>
        <time>2023-08-18T11:08:55Z</time>
      </trkpt>
      <trkpt lat="49.53471" lon="3.49873">
        <ele>82.6</ele>
        <time>2023-08-18T11:09:02Z</time>
      </trkpt>
      <trkpt lat="49.5347" lon="3.49882">
        <ele>82.6</ele>
        <time>2023-08-18T11:09:09Z</time>
      </trkpt>
      <trkpt lat="49.53466" lon="3.4989">
        <ele>82.6</ele>
        <time>2023-08-18T11:09:17Z</time>
      </trkpt>
      <trkpt lat="49.53468" lon="3.499">
        <ele>82.6</ele>
        <time>2023-08-18T11:09:25Z</time>
      </trkpt>
      <trkpt lat="49.53471" lon="3.49909">
        <ele>82.6</ele>
        <time>2023-08-18T11:09:33Z</time>
      </trkpt>
      <trkpt lat="49.53472" lon="3.49912">
        <ele>82.6</ele>
        <time>2023-08-18T11:09:40Z</time>
      </trkpt>
      <trkpt lat="49.53476" lon="3.4992">
        <ele>82.6</ele>
        <time>2023-08-18T11:09:47Z</time>
      </trkpt>
      <trkpt lat="49.5348" lon="3.49928">
        <ele>82.6</ele>
        <time>2023-08-18T11:09:55Z</time>
      </trkpt>
      <trkpt lat="49.53481" lon="3.49936">
        <ele>82.6</ele>
        <time>2023-08-18T11:10:03Z</time>
      </trkpt>
      <trkpt lat="49.53483" lon="3.4994">
        <ele>82.6</ele>
        <time>2023-08-18T11:10:10Z</time>
      </trkpt>
      <trkpt lat="49.53486" lon="3.49948">
        <ele>82.6</ele>
        <time>2023-08-18T11:10:18Z</time>
      </trkpt>
      <trkpt lat="49.53491" lon="3.49958">
        <ele>82.6</ele>
        <time>2023-08-18T11:10:26Z</time>
      </trkpt>
      <trkpt lat="49.53496" lon="3.49971">
        <ele>82.6</ele>
        <time>2023-08-18T11:10:34Z</time>
      </trkpt>
      <trkpt lat="49.53501" lon="3.49981">
        <ele>82.6</ele>
        <time>2023-08-18T11:10:40Z</time>
      </trkpt>
      <trkpt lat="49.53503" lon="3.49987">
        <ele>82.6</ele>
        <time>2023-08-18T11:10:47Z</time>
      </trkpt>
      <trkpt lat="49.53503" lon="3.49987">
        <ele>82.6</ele>
        <time>2023-08-18T11:10:48Z</time>
      </trkpt>
      <trkpt lat="49.53505" lon="3.49993">
        <ele>82.6</ele>
        <time>2023-08-18T11:10:55Z</time>
      </trkpt>
      <trkpt lat="49.53506" lon="3.49994">
        <ele>82.6</ele>
        <time>2023-08-18T11:11:04Z</time>
      </trkpt>
      <trkpt lat="49.53506" lon="3.49994">
        <ele>82.6</ele>
        <time>2023-08-18T11:11:16Z</time>
      </trkpt>
      <trkpt lat="49.53506" lon="3.49994">
        <ele>82.6</ele>
        <time>2023-08-18T11:11:25Z</time>
      </trkpt>
      <trkpt lat="49.53506" lon="3.49996">
        <ele>82.6</ele>
        <time>2023-08-18T11:11:31Z</time>
      </trkpt>
      <trkpt lat="49.53505" lon="3.49997">
        <ele>82.6</ele>
        <time>2023-08-18T11:11:41Z</time>
      </trkpt>
      <trkpt lat="49.53505" lon="3.49996">
        <ele>82.6</ele>
        <time>2023-08-18T11:11:51Z</time>
      </trkpt>
      <trkpt lat="49.53505" lon="3.49996">
        <ele>82.6</ele>
        <time>2023-08-18T11:11:59Z</time>
      </trkpt>
      <trkpt lat="49.53505" lon="3.49996">
        <ele>82.6</ele>
        <time>2023-08-18T11:12:07Z</time>
      </trkpt>
      <trkpt lat="49.53505" lon="3.49996">
        <ele>82.6</ele>
        <time>2023-08-18T11:12:18Z</time>
      </trkpt>
      <trkpt lat="49.53509" lon="3.50005">
        <ele>82.6</ele>
        <time>2023-08-18T11:12:30Z</time>
      </trkpt>
      <trkpt lat="49.53511" lon="3.50013">
        <ele>82.6</ele>
        <time>2023-08-18T11:12:37Z</time>
      </trkpt>
      <trkpt lat="49.53514" lon="3.5002">
        <ele>82.6</ele>
        <time>2023-08-18T11:12:44Z</time>
      </trkpt>
      <trkpt lat="49.53519" lon="3.50032">
        <ele>82.6</ele>
        <time>2023-08-18T11:12:52Z</time>
      </trkpt>
      <trkpt lat="49.53521" lon="3.50045">
        <ele>82.6</ele>
        <time>2023-08-18T11:13:00Z</time>
      </trkpt>
      <trkpt lat="49.5352" lon="3.5005">
        <ele>82.6</ele>
        <time>2023-08-18T11:13:06Z</time>
      </trkpt>
      <trkpt lat="49.53521" lon="3.50064">
        <ele>82.6</ele>
        <time>2023-08-18T11:13:14Z</time>
      </trkpt>
      <trkpt lat="49.53524" lon="3.50071">
        <ele>82.6</ele>
        <time>2023-08-18T11:13:22Z</time>
      </trkpt>
      <trkpt lat="49.53523" lon="3.50081">
        <ele>82.6</ele>
        <time>2023-08-18T11:13:29Z</time>
      </trkpt>
      <trkpt lat="49.53523" lon="3.50099">
        <ele>82.6</ele>
        <time>2023-08-18T11:13:35Z</time>
      </trkpt>
      <trkpt lat="49.53525" lon="3.50106">
        <ele>82.6</ele>
        <time>2023-08-18T11:13:42Z</time>
      </trkpt>
      <trkpt lat="49.53531" lon="3.5011">
        <ele>82.6</ele>
        <time>2023-08-18T11:13:51Z</time>
      </trkpt>
      <trkpt lat="49.53534" lon="3.5012">
        <ele>82.6</ele>
        <time>2023-08-18T11:13:58Z</time>
      </trkpt>
      <trkpt lat="49.53538" lon="3.5013">
        <ele>82.6</ele>
        <time>2023-08-18T11:14:05Z</time>
      </trkpt>
      <trkpt lat="49.53539" lon="3.50135">
        <ele>82.6</ele>
        <time>2023-08-18T11:14:11Z</time>
      </trkpt>
      <trkpt lat="49.53542" lon="3.50142">
        <ele>82.6</ele>
        <time>2023-08-18T11:14:17Z</time>
      </trkpt>
      <trkpt lat="49.53544" lon="3.50148">
        <ele>82.6</ele>
        <time>2023-08-18T11:14:23Z</time>
      </trkpt>
      <trkpt lat="49.53543" lon="3.50152">
        <ele>82.6</ele>
        <time>2023-08-18T11:14:30Z</time>
      </trkpt>
      <trkpt lat="49.53547" lon="3.50156">
        <ele>82.6</ele>
        <time>2023-08-18T11:14:38Z</time>
      </trkpt>
      <trkpt lat="49.53549" lon="3.50166">
        <ele>82.6</ele>
        <time>2023-08-18T11:14:45Z</time>
      </trkpt>
      <trkpt lat="49.53552" lon="3.50176">
        <ele>82.6</ele>
        <time>2023-08-18T11:14:48Z</time>
      </trkpt>
      <trkpt lat="49.53553" lon="3.50185">
        <ele>82.6</ele>
        <time>2023-08-18T11:14:52Z</time>
      </trkpt>
      <trkpt lat="49.53557" lon="3.50199">
        <ele>82.6</ele>
        <time>2023-08-18T11:15:00Z</time>
      </trkpt>
      <trkpt lat="49.5356" lon="3.50214">
        <ele>82.6</ele>
        <time>2023-08-18T11:15:08Z</time>
      </trkpt>
      <trkpt lat="49.53562" lon="3.50221">
        <ele>82.6</ele>
        <time>2023-08-18T11:15:16Z</time>
      </trkpt>
      <trkpt lat="49.53564" lon="3.50224">
        <ele>82.6</ele>
        <time>2023-08-18T11:15:27Z</time>
      </trkpt>
      <trkpt lat="49.53566" lon="3.50223">
        <ele>82.6</ele>
        <time>2023-08-18T11:15:32Z</time>
      </trkpt>
      <trkpt lat="49.53572" lon="3.50234">
        <ele>82.6</ele>
        <time>2023-08-18T11:15:37Z</time>
      </trkpt>
      <trkpt lat="49.53579" lon="3.50247">
        <ele>82.6</ele>
        <time>2023-08-18T11:15:44Z</time>
      </trkpt>
      <trkpt lat="49.5358" lon="3.50264">
        <ele>82.6</ele>
        <time>2023-08-18T11:15:53Z</time>
      </trkpt>
      <trkpt lat="49.5358" lon="3.50269">
        <ele>82.6</ele>
        <time>2023-08-18T11:15:59Z</time>
      </trkpt>
      <trkpt lat="49.53583" lon="3.50278">
        <ele>82.6</ele>
        <time>2023-08-18T11:16:07Z</time>
      </trkpt>
      <trkpt lat="49.53586" lon="3.50293">
        <ele>82.6</ele>
        <time>2023-08-18T11:16:13Z</time>
      </trkpt>
      <trkpt lat="49.5359" lon="3.50307">
        <ele>82.6</ele>
        <time>2023-08-18T11:16:19Z</time>
      </trkpt>
      <trkpt lat="49.53592" lon="3.50319">
        <ele>82.6</ele>
        <time>2023-08-18T11:16:24Z</time>
      </trkpt>
      <trkpt lat="49.53596" lon="3.50335">
        <ele>82.6</ele>
        <time>2023-08-18T11:16:31Z</time>
      </trkpt>
      <trkpt lat="49.53599" lon="3.50337">
        <ele>82.6</ele>
        <time>2023-08-18T11:16:38Z</time>
      </trkpt>
      <trkpt lat="49.53602" lon="3.50345">
        <ele>82.6</ele>
        <time>2023-08-18T11:16:44Z</time>
      </trkpt>
      <trkpt lat="49.53604" lon="3.50349">
        <ele>83</ele>
        <time>2023-08-18T11:16:50Z</time>
      </trkpt>
      <trkpt lat="49.53605" lon="3.50349">
        <ele>83.4</ele>
        <time>2023-08-18T11:16:51Z</time>
      </trkpt>
      <trkpt lat="49.53605" lon="3.50349">
        <ele>83.8</ele>
        <time>2023-08-18T11:16:52Z</time>
      </trkpt>
      <trkpt lat="49.53606" lon="3.50349">
        <ele>84.2</ele>
        <time>2023-08-18T11:16:53Z</time>
      </trkpt>
      <trkpt lat="49.53607" lon="3.50349">
        <ele>84.8</ele>
        <time>2023-08-18T11:16:54Z</time>
      </trkpt>
      <trkpt lat="49.53607" lon="3.50346">
        <ele>84.8</ele>
        <time>2023-08-18T11:16:56Z</time>
      </trkpt>
      <trkpt lat="49.53606" lon="3.50348">
        <ele>84.8</ele>
        <time>2023-08-18T11:17:02Z</time>
      </trkpt>
      <trkpt lat="49.53606" lon="3.50348">
        <ele>84.8</ele>
        <time>2023-08-18T11:17:12Z</time>
      </trkpt>
      <trkpt lat="49.53611" lon="3.5035">
        <ele>84.8</ele>
        <time>2023-08-18T11:17:20Z</time>
      </trkpt>
      <trkpt lat="49.53622" lon="3.50354">
        <ele>84.8</ele>
        <time>2023-08-18T11:17:26Z</time>
      </trkpt>
      <trkpt lat="49.53625" lon="3.50354">
        <ele>84.8</ele>
        <time>2023-08-18T11:17:27Z</time>
      </trkpt>
      <trkpt lat="49.5363" lon="3.50359">
        <ele>84.8</ele>
        <time>2023-08-18T11:17:31Z</time>
      </trkpt>
      <trkpt lat="49.53631" lon="3.50361">
        <ele>84.8</ele>
        <time>2023-08-18T11:17:33Z</time>
      </trkpt>
      <trkpt lat="49.53637" lon="3.50368">
        <ele>84.8</ele>
        <time>2023-08-18T11:17:39Z</time>
      </trkpt>
      <trkpt lat="49.53643" lon="3.50368">
        <ele>84.8</ele>
        <time>2023-08-18T11:17:45Z</time>
      </trkpt>
      <trkpt lat="49.53648" lon="3.50368">
        <ele>84.8</ele>
        <time>2023-08-18T11:17:51Z</time>
      </trkpt>
      <trkpt lat="49.53659" lon="3.50368">
        <ele>84.8</ele>
        <time>2023-08-18T11:17:58Z</time>
      </trkpt>
      <trkpt lat="49.53667" lon="3.50369">
        <ele>84.8</ele>
        <time>2023-08-18T11:18:04Z</time>
      </trkpt>
      <trkpt lat="49.53671" lon="3.50374">
        <ele>84.8</ele>
        <time>2023-08-18T11:18:11Z</time>
      </trkpt>
      <trkpt lat="49.53672" lon="3.50375">
        <ele>84.8</ele>
        <time>2023-08-18T11:18:20Z</time>
      </trkpt>
      <trkpt lat="49.53671" lon="3.50374">
        <ele>84.8</ele>
        <time>2023-08-18T11:18:27Z</time>
      </trkpt>
      <trkpt lat="49.53671" lon="3.50375">
        <ele>84.8</ele>
        <time>2023-08-18T11:18:34Z</time>
      </trkpt>
      <trkpt lat="49.53671" lon="3.50376">
        <ele>84.8</ele>
        <time>2023-08-18T11:18:44Z</time>
      </trkpt>
      <trkpt lat="49.53671" lon="3.50376">
        <ele>84.8</ele>
        <time>2023-08-18T11:19:00Z</time>
      </trkpt>
      <trkpt lat="49.53671" lon="3.50377">
        <ele>84.8</ele>
        <time>2023-08-18T11:19:07Z</time>
      </trkpt>
      <trkpt lat="49.53672" lon="3.50377">
        <ele>84.8</ele>
        <time>2023-08-18T11:19:14Z</time>
      </trkpt>
      <trkpt lat="49.53672" lon="3.50377">
        <ele>84.8</ele>
        <time>2023-08-18T11:19:22Z</time>
      </trkpt>
      <trkpt lat="49.53672" lon="3.50377">
        <ele>84.8</ele>
        <time>2023-08-18T11:19:35Z</time>
      </trkpt>
      <trkpt lat="49.53672" lon="3.50378">
        <ele>84.8</ele>
        <time>2023-08-18T11:19:50Z</time>
      </trkpt>
      <trkpt lat="49.53672" lon="3.50378">
        <ele>84.8</ele>
        <time>2023-08-18T11:20:08Z</time>
      </trkpt>
      <trkpt lat="49.53672" lon="3.50378">
        <ele>84.8</ele>
        <time>2023-08-18T11:20:23Z</time>
      </trkpt>
      <trkpt lat="49.53672" lon="3.50378">
        <ele>84.8</ele>
        <time>2023-08-18T11:20:39Z</time>
      </trkpt>
      <trkpt lat="49.53672" lon="3.50378">
        <ele>84.8</ele>
        <time>2023-08-18T11:20:56Z</time>
      </trkpt>
      <trkpt lat="49.53672" lon="3.50378">
        <ele>84.8</ele>
        <time>2023-08-18T11:21:04Z</time>
      </trkpt>
      <trkpt lat="49.53672" lon="3.50378">
        <ele>84.8</ele>
        <time>2023-08-18T11:21:16Z</time>
      </trkpt>
      <trkpt lat="49.5367" lon="3.50375">
        <ele>84.8</ele>
        <time>2023-08-18T11:21:22Z</time>
      </trkpt>
      <trkpt lat="49.53673" lon="3.50373">
        <ele>84.8</ele>
        <time>2023-08-18T11:21:27Z</time>
      </trkpt>
      <trkpt lat="49.53673" lon="3.5037">
        <ele>84.8</ele>
        <time>2023-08-18T11:21:32Z</time>
      </trkpt>
      <trkpt lat="49.53678" lon="3.50367">
        <ele>84.8</ele>
        <time>2023-08-18T11:21:35Z</time>
      </trkpt>
      <trkpt lat="49.53682" lon="3.50362">
        <ele>84.8</ele>
        <time>2023-08-18T11:21:37Z</time>
      </trkpt>
      <trkpt lat="49.53684" lon="3.50359">
        <ele>84.8</ele>
        <time>2023-08-18T11:21:40Z</time>
      </trkpt>
      <trkpt lat="49.53684" lon="3.5036">
        <ele>84.8</ele>
        <time>2023-08-18T11:21:42Z</time>
      </trkpt>
      <trkpt lat="49.53687" lon="3.50359">
        <ele>84.8</ele>
        <time>2023-08-18T11:21:45Z</time>
      </trkpt>
      <trkpt lat="49.53687" lon="3.50358">
        <ele>84.8</ele>
        <time>2023-08-18T11:21:46Z</time>
      </trkpt>
      <trkpt lat="49.53691" lon="3.50355">
        <ele>84.8</ele>
        <time>2023-08-18T11:21:53Z</time>
      </trkpt>
      <trkpt lat="49.53699" lon="3.50356">
        <ele>84.8</ele>
        <time>2023-08-18T11:21:59Z</time>
      </trkpt>
      <trkpt lat="49.53701" lon="3.50356">
        <ele>84.8</ele>
        <time>2023-08-18T11:22:00Z</time>
      </trkpt>
      <trkpt lat="49.53707" lon="3.50354">
        <ele>84.8</ele>
        <time>2023-08-18T11:22:04Z</time>
      </trkpt>
      <trkpt lat="49.53707" lon="3.50354">
        <ele>84.8</ele>
        <time>2023-08-18T11:22:05Z</time>
      </trkpt>
      <trkpt lat="49.53712" lon="3.50352">
        <ele>84.8</ele>
        <time>2023-08-18T11:22:12Z</time>
      </trkpt>
      <trkpt lat="49.53717" lon="3.50353">
        <ele>84.8</ele>
        <time>2023-08-18T11:22:17Z</time>
      </trkpt>
      <trkpt lat="49.53726" lon="3.50353">
        <ele>84.8</ele>
        <time>2023-08-18T11:22:24Z</time>
      </trkpt>
      <trkpt lat="49.53731" lon="3.50352">
        <ele>84.8</ele>
        <time>2023-08-18T11:22:31Z</time>
      </trkpt>
      <trkpt lat="49.53737" lon="3.50351">
        <ele>84.8</ele>
        <time>2023-08-18T11:22:36Z</time>
      </trkpt>
      <trkpt lat="49.53744" lon="3.50352">
        <ele>84.8</ele>
        <time>2023-08-18T11:22:42Z</time>
      </trkpt>
      <trkpt lat="49.53748" lon="3.50351">
        <ele>84.8</ele>
        <time>2023-08-18T11:22:46Z</time>
      </trkpt>
      <trkpt lat="49.53753" lon="3.50352">
        <ele>84.8</ele>
        <time>2023-08-18T11:22:51Z</time>
      </trkpt>
      <trkpt lat="49.53754" lon="3.50354">
        <ele>84.8</ele>
        <time>2023-08-18T11:22:57Z</time>
      </trkpt>
      <trkpt lat="49.53755" lon="3.50358">
        <ele>84.8</ele>
        <time>2023-08-18T11:23:05Z</time>
      </trkpt>
      <trkpt lat="49.53755" lon="3.50359">
        <ele>84.8</ele>
        <time>2023-08-18T11:23:12Z</time>
      </trkpt>
      <trkpt lat="49.53755" lon="3.5036">
        <ele>84.8</ele>
        <time>2023-08-18T11:23:19Z</time>
      </trkpt>
      <trkpt lat="49.53756" lon="3.50361">
        <ele>84.8</ele>
        <time>2023-08-18T11:23:30Z</time>
      </trkpt>
      <trkpt lat="49.53756" lon="3.50361">
        <ele>84.8</ele>
        <time>2023-08-18T11:23:47Z</time>
      </trkpt>
      <trkpt lat="49.53758" lon="3.50362">
        <ele>84.8</ele>
        <time>2023-08-18T11:23:59Z</time>
      </trkpt>
      <trkpt lat="49.5376" lon="3.50363">
        <ele>84.8</ele>
        <time>2023-08-18T11:24:05Z</time>
      </trkpt>
      <trkpt lat="49.53769" lon="3.50365">
        <ele>84.8</ele>
        <time>2023-08-18T11:24:11Z</time>
      </trkpt>
      <trkpt lat="49.53779" lon="3.50372">
        <ele>84.8</ele>
        <time>2023-08-18T11:24:16Z</time>
      </trkpt>
      <trkpt lat="49.53787" lon="3.50374">
        <ele>84.8</ele>
        <time>2023-08-18T11:24:22Z</time>
      </trkpt>
      <trkpt lat="49.5379" lon="3.50377">
        <ele>84.8</ele>
        <time>2023-08-18T11:24:27Z</time>
      </trkpt>
      <trkpt lat="49.53795" lon="3.50384">
        <ele>84.8</ele>
        <time>2023-08-18T11:24:31Z</time>
      </trkpt>
      <trkpt lat="49.53798" lon="3.50387">
        <ele>84.8</ele>
        <time>2023-08-18T11:24:37Z</time>
      </trkpt>
      <trkpt lat="49.53805" lon="3.50395">
        <ele>84.8</ele>
        <time>2023-08-18T11:24:42Z</time>
      </trkpt>
      <trkpt lat="49.53811" lon="3.50403">
        <ele>84.8</ele>
        <time>2023-08-18T11:24:48Z</time>
      </trkpt>
      <trkpt lat="49.53812" lon="3.50407">
        <ele>84.8</ele>
        <time>2023-08-18T11:24:51Z</time>
      </trkpt>
      <trkpt lat="49.53815" lon="3.50407">
        <ele>84.8</ele>
        <time>2023-08-18T11:24:53Z</time>
      </trkpt>
      <trkpt lat="49.53818" lon="3.50409">
        <ele>84.8</ele>
        <time>2023-08-18T11:25:00Z</time>
      </trkpt>
      <trkpt lat="49.53818" lon="3.5041">
        <ele>84.8</ele>
        <time>2023-08-18T11:25:11Z</time>
      </trkpt>
      <trkpt lat="49.53818" lon="3.50411">
        <ele>84.8</ele>
        <time>2023-08-18T11:25:20Z</time>
      </trkpt>
      <trkpt lat="49.53814" lon="3.5041">
        <ele>84.8</ele>
        <time>2023-08-18T11:25:27Z</time>
      </trkpt>
      <trkpt lat="49.53814" lon="3.5041">
        <ele>85.2</ele>
        <time>2023-08-18T11:25:28Z</time>
      </trkpt>
      <trkpt lat="49.53814" lon="3.5041">
        <ele>85.6</ele>
        <time>2023-08-18T11:25:29Z</time>
      </trkpt>
      <trkpt lat="49.53814" lon="3.5041">
        <ele>86</ele>
        <time>2023-08-18T11:25:30Z</time>
      </trkpt>
      <trkpt lat="49.53814" lon="3.5041">
        <ele>86.4</ele>
        <time>2023-08-18T11:25:31Z</time>
      </trkpt>
      <trkpt lat="49.53814" lon="3.5041">
        <ele>87</ele>
        <time>2023-08-18T11:25:32Z</time>
      </trkpt>
      <trkpt lat="49.53814" lon="3.5041">
        <ele>87</ele>
        <time>2023-08-18T11:25:39Z</time>
      </trkpt>
      <trkpt lat="49.53814" lon="3.5041">
        <ele>87</ele>
        <time>2023-08-18T11:25:47Z</time>
      </trkpt>
      <trkpt lat="49.53814" lon="3.5041">
        <ele>87</ele>
        <time>2023-08-18T11:26:02Z</time>
      </trkpt>
      <trkpt lat="49.53814" lon="3.50408">
        <ele>87</ele>
        <time>2023-08-18T11:26:08Z</time>
      </trkpt>
      <trkpt lat="49.53814" lon="3.50408">
        <ele>87</ele>
        <time>2023-08-18T11:26:15Z</time>
      </trkpt>
      <trkpt lat="49.53815" lon="3.50408">
        <ele>87</ele>
        <time>2023-08-18T11:26:20Z</time>
      </trkpt>
      <trkpt lat="49.53815" lon="3.50412">
        <ele>87</ele>
        <time>2023-08-18T11:26:25Z</time>
      </trkpt>
      <trkpt lat="49.53815" lon="3.50412">
        <ele>87</ele>
        <time>2023-08-18T11:26:41Z</time>
      </trkpt>
      <trkpt lat="49.53815" lon="3.50412">
        <ele>87</ele>
        <time>2023-08-18T11:26:58Z</time>
      </trkpt>
      <trkpt lat="49.53815" lon="3.50412">
        <ele>87</ele>
        <time>2023-08-18T11:27:12Z</time>
      </trkpt>
      <trkpt lat="49.53815" lon="3.50412">
        <ele>87</ele>
        <time>2023-08-18T11:27:30Z</time>
      </trkpt>
      <trkpt lat="49.53815" lon="3.50413">
        <ele>87</ele>
        <time>2023-08-18T11:27:46Z</time>
      </trkpt>
      <trkpt lat="49.53815" lon="3.50413">
        <ele>87</ele>
        <time>2023-08-18T11:28:04Z</time>
      </trkpt>
      <trkpt lat="49.53815" lon="3.50413">
        <ele>87</ele>
        <time>2023-08-18T11:28:20Z</time>
      </trkpt>
      <trkpt lat="49.53815" lon="3.50412">
        <ele>87</ele>
        <time>2023-08-18T11:28:33Z</time>
      </trkpt>
      <trkpt lat="49.53817" lon="3.5041">
        <ele>87</ele>
        <time>2023-08-18T11:28:38Z</time>
      </trkpt>
      <trkpt lat="49.53817" lon="3.5041">
        <ele>87</ele>
        <time>2023-08-18T11:28:50Z</time>
      </trkpt>
      <trkpt lat="49.53818" lon="3.5041">
        <ele>87</ele>
        <time>2023-08-18T11:28:57Z</time>
      </trkpt>
      <trkpt lat="49.5382" lon="3.50414">
        <ele>87</ele>
        <time>2023-08-18T11:29:02Z</time>
      </trkpt>
      <trkpt lat="49.53823" lon="3.50418">
        <ele>87</ele>
        <time>2023-08-18T11:29:04Z</time>
      </trkpt>
      <trkpt lat="49.53832" lon="3.50427">
        <ele>87</ele>
        <time>2023-08-18T11:29:10Z</time>
      </trkpt>
      <trkpt lat="49.53838" lon="3.50436">
        <ele>87</ele>
        <time>2023-08-18T11:29:15Z</time>
      </trkpt>
      <trkpt lat="49.53842" lon="3.5044">
        <ele>87</ele>
        <time>2023-08-18T11:29:22Z</time>
      </trkpt>
      <trkpt lat="49.53843" lon="3.50443">
        <ele>87</ele>
        <time>2023-08-18T11:29:28Z</time>
      </trkpt>
      <trkpt lat="49.53843" lon="3.50443">
        <ele>87</ele>
        <time>2023-08-18T11:29:40Z</time>
      </trkpt>
      <trkpt lat="49.53842" lon="3.50446">
        <ele>87</ele>
        <time>2023-08-18T11:29:48Z</time>
      </trkpt>
      <trkpt lat="49.53837" lon="3.50453">
        <ele>87</ele>
        <time>2023-08-18T11:29:55Z</time>
      </trkpt>
      <trkpt lat="49.53834" lon="3.50455">
        <ele>87</ele>
        <time>2023-08-18T11:30:02Z</time>
      </trkpt>
      <trkpt lat="49.53831" lon="3.50457">
        <ele>87</ele>
        <time>2023-08-18T11:30:09Z</time>
      </trkpt>
      <trkpt lat="49.53831" lon="3.50456">
        <ele>87</ele>
        <time>2023-08-18T11:30:22Z</time>
      </trkpt>
      <trkpt lat="49.53832" lon="3.50456">
        <ele>87</ele>
        <time>2023-08-18T11:30:29Z</time>
      </trkpt>
      <trkpt lat="49.53832" lon="3.50456">
        <ele>87</ele>
        <time>2023-08-18T11:30:41Z</time>
      </trkpt>
      <trkpt lat="49.53831" lon="3.50457">
        <ele>87</ele>
        <time>2023-08-18T11:30:48Z</time>
      </trkpt>
      <trkpt lat="49.53831" lon="3.50457">
        <ele>87</ele>
        <time>2023-08-18T11:30:59Z</time>
      </trkpt>
      <trkpt lat="49.53824" lon="3.50461">
        <ele>87</ele>
        <time>2023-08-18T11:31:05Z</time>
      </trkpt>
      <trkpt lat="49.53821" lon="3.50463">
        <ele>87.4</ele>
        <time>2023-08-18T11:31:10Z</time>
      </trkpt>
      <trkpt lat="49.53821" lon="3.50463">
        <ele>87.8</ele>
        <time>2023-08-18T11:31:11Z</time>
      </trkpt>
      <trkpt lat="49.53821" lon="3.50463">
        <ele>88.2</ele>
        <time>2023-08-18T11:31:12Z</time>
      </trkpt>
      <trkpt lat="49.53819" lon="3.50464">
        <ele>88.6</ele>
        <time>2023-08-18T11:31:13Z</time>
      </trkpt>
      <trkpt lat="49.53818" lon="3.50466">
        <ele>89</ele>
        <time>2023-08-18T11:31:14Z</time>
      </trkpt>
      <trkpt lat="49.53813" lon="3.50471">
        <ele>89</ele>
        <time>2023-08-18T11:31:19Z</time>
      </trkpt>
      <trkpt lat="49.53811" lon="3.50472">
        <ele>89</ele>
        <time>2023-08-18T11:31:25Z</time>
      </trkpt>
      <trkpt lat="49.5381" lon="3.50473">
        <ele>89.4</ele>
        <time>2023-08-18T11:31:26Z</time>
      </trkpt>
      <trkpt lat="49.53809" lon="3.50474">
        <ele>89.8</ele>
        <time>2023-08-18T11:31:27Z</time>
      </trkpt>
      <trkpt lat="49.53808" lon="3.50475">
        <ele>90.2</ele>
        <time>2023-08-18T11:31:28Z</time>
      </trkpt>
      <trkpt lat="49.53807" lon="3.50476">
        <ele>90.6</ele>
        <time>2023-08-18T11:31:29Z</time>
      </trkpt>
      <trkpt lat="49.53807" lon="3.50477">
        <ele>91</ele>
        <time>2023-08-18T11:31:30Z</time>
      </trkpt>
      <trkpt lat="49.53805" lon="3.5048">
        <ele>91</ele>
        <time>2023-08-18T11:31:33Z</time>
      </trkpt>
      <trkpt lat="49.538" lon="3.50482">
        <ele>91.4</ele>
        <time>2023-08-18T11:31:39Z</time>
      </trkpt>
      <trkpt lat="49.538" lon="3.50483">
        <ele>91.8</ele>
        <time>2023-08-18T11:31:40Z</time>
      </trkpt>
      <trkpt lat="49.538" lon="3.50483">
        <ele>92.2</ele>
        <time>2023-08-18T11:31:41Z</time>
      </trkpt>
      <trkpt lat="49.538" lon="3.50483">
        <ele>92.6</ele>
        <time>2023-08-18T11:31:42Z</time>
      </trkpt>
      <trkpt lat="49.538" lon="3.50483">
        <ele>93</ele>
        <time>2023-08-18T11:31:43Z</time>
      </trkpt>
      <trkpt lat="49.53801" lon="3.50482">
        <ele>93</ele>
        <time>2023-08-18T11:31:49Z</time>
      </trkpt>
      <trkpt lat="49.538" lon="3.50482">
        <ele>93</ele>
        <time>2023-08-18T11:31:57Z</time>
      </trkpt>
      <trkpt lat="49.538" lon="3.50482">
        <ele>93</ele>
        <time>2023-08-18T11:32:03Z</time>
      </trkpt>
      <trkpt lat="49.538" lon="3.50482">
        <ele>93</ele>
        <time>2023-08-18T11:32:16Z</time>
      </trkpt>
      <trkpt lat="49.538" lon="3.50482">
        <ele>93</ele>
        <time>2023-08-18T11:32:23Z</time>
      </trkpt>
      <trkpt lat="49.538" lon="3.50481">
        <ele>93</ele>
        <time>2023-08-18T11:32:32Z</time>
      </trkpt>
      <trkpt lat="49.53798" lon="3.50481">
        <ele>93</ele>
        <time>2023-08-18T11:32:41Z</time>
      </trkpt>
      <trkpt lat="49.53793" lon="3.50483">
        <ele>93</ele>
        <time>2023-08-18T11:32:49Z</time>
      </trkpt>
      <trkpt lat="49.53788" lon="3.50485">
        <ele>93</ele>
        <time>2023-08-18T11:32:52Z</time>
      </trkpt>
      <trkpt lat="49.53784" lon="3.50486">
        <ele>93</ele>
        <time>2023-08-18T11:32:54Z</time>
      </trkpt>
      <trkpt lat="49.53781" lon="3.50486">
        <ele>93</ele>
        <time>2023-08-18T11:32:56Z</time>
      </trkpt>
      <trkpt lat="49.53778" lon="3.50487">
        <ele>93.4</ele>
        <time>2023-08-18T11:32:58Z</time>
      </trkpt>
      <trkpt lat="49.53778" lon="3.50488">
        <ele>93.8</ele>
        <time>2023-08-18T11:32:59Z</time>
      </trkpt>
      <trkpt lat="49.53777" lon="3.50488">
        <ele>94.2</ele>
        <time>2023-08-18T11:33:00Z</time>
      </trkpt>
      <trkpt lat="49.53777" lon="3.50488">
        <ele>94.6</ele>
        <time>2023-08-18T11:33:01Z</time>
      </trkpt>
      <trkpt lat="49.53777" lon="3.50488">
        <ele>95</ele>
        <time>2023-08-18T11:33:02Z</time>
      </trkpt>
      <trkpt lat="49.53777" lon="3.50488">
        <ele>95</ele>
        <time>2023-08-18T11:33:06Z</time>
      </trkpt>
      <trkpt lat="49.53775" lon="3.50486">
        <ele>95.4</ele>
        <time>2023-08-18T11:33:09Z</time>
      </trkpt>
      <trkpt lat="49.53774" lon="3.50486">
        <ele>96</ele>
        <time>2023-08-18T11:33:10Z</time>
      </trkpt>
      <trkpt lat="49.53773" lon="3.50486">
        <ele>96.4</ele>
        <time>2023-08-18T11:33:11Z</time>
      </trkpt>
      <trkpt lat="49.53773" lon="3.50486">
        <ele>96.8</ele>
        <time>2023-08-18T11:33:12Z</time>
      </trkpt>
      <trkpt lat="49.53773" lon="3.50486">
        <ele>97.2</ele>
        <time>2023-08-18T11:33:13Z</time>
      </trkpt>
      <trkpt lat="49.53773" lon="3.50486">
        <ele>97.2</ele>
        <time>2023-08-18T11:33:14Z</time>
      </trkpt>
      <trkpt lat="49.53765" lon="3.50487">
        <ele>97.2</ele>
        <time>2023-08-18T11:33:20Z</time>
      </trkpt>
      <trkpt lat="49.53759" lon="3.50488">
        <ele>97.2</ele>
        <time>2023-08-18T11:33:26Z</time>
      </trkpt>
      <trkpt lat="49.53751" lon="3.50489">
        <ele>97.2</ele>
        <time>2023-08-18T11:33:34Z</time>
      </trkpt>
      <trkpt lat="49.53748" lon="3.50489">
        <ele>97.6</ele>
        <time>2023-08-18T11:33:36Z</time>
      </trkpt>
      <trkpt lat="49.53748" lon="3.50489">
        <ele>98</ele>
        <time>2023-08-18T11:33:37Z</time>
      </trkpt>
      <trkpt lat="49.53748" lon="3.50489">
        <ele>98.4</ele>
        <time>2023-08-18T11:33:38Z</time>
      </trkpt>
      <trkpt lat="49.53746" lon="3.50489">
        <ele>98.8</ele>
        <time>2023-08-18T11:33:39Z</time>
      </trkpt>
      <trkpt lat="49.53744" lon="3.50488">
        <ele>99.2</ele>
        <time>2023-08-18T11:33:40Z</time>
      </trkpt>
      <trkpt lat="49.53742" lon="3.50489">
        <ele>99.2</ele>
        <time>2023-08-18T11:33:41Z</time>
      </trkpt>
      <trkpt lat="49.53736" lon="3.50495">
        <ele>99.2</ele>
        <time>2023-08-18T11:33:47Z</time>
      </trkpt>
      <trkpt lat="49.53734" lon="3.50495">
        <ele>99.2</ele>
        <time>2023-08-18T11:33:52Z</time>
      </trkpt>
      <trkpt lat="49.53735" lon="3.50495">
        <ele>99.2</ele>
        <time>2023-08-18T11:34:00Z</time>
      </trkpt>
      <trkpt lat="49.53735" lon="3.50495">
        <ele>99.2</ele>
        <time>2023-08-18T11:34:10Z</time>
      </trkpt>
      <trkpt lat="49.53735" lon="3.50495">
        <ele>99.2</ele>
        <time>2023-08-18T11:34:20Z</time>
      </trkpt>
      <trkpt lat="49.53733" lon="3.50497">
        <ele>99.2</ele>
        <time>2023-08-18T11:34:26Z</time>
      </trkpt>
      <trkpt lat="49.53729" lon="3.50501">
        <ele>99.2</ele>
        <time>2023-08-18T11:34:32Z</time>
      </trkpt>
      <trkpt lat="49.53726" lon="3.5051">
        <ele>99.2</ele>
        <time>2023-08-18T11:34:39Z</time>
      </trkpt>
      <trkpt lat="49.53725" lon="3.50512">
        <ele>99.6</ele>
        <time>2023-08-18T11:34:42Z</time>
      </trkpt>
      <trkpt lat="49.53724" lon="3.50513">
        <ele>100</ele>
        <time>2023-08-18T11:34:43Z</time>
      </trkpt>
      <trkpt lat="49.53724" lon="3.50513">
        <ele>100.4</ele>
        <time>2023-08-18T11:34:44Z</time>
      </trkpt>
      <trkpt lat="49.53724" lon="3.50514">
        <ele>100.8</ele>
        <time>2023-08-18T11:34:45Z</time>
      </trkpt>
      <trkpt lat="49.53724" lon="3.50514">
        <ele>101.2</ele>
        <time>2023-08-18T11:34:46Z</time>
      </trkpt>
      <trkpt lat="49.53722" lon="3.50516">
        <ele>101.2</ele>
        <time>2023-08-18T11:34:51Z</time>
      </trkpt>
      <trkpt lat="49.53717" lon="3.50522">
        <ele>101.2</ele>
        <time>2023-08-18T11:34:58Z</time>
      </trkpt>
      <trkpt lat="49.53714" lon="3.50524">
        <ele>101.2</ele>
        <time>2023-08-18T11:35:03Z</time>
      </trkpt>
      <trkpt lat="49.53712" lon="3.50527">
        <ele>101.8</ele>
        <time>2023-08-18T11:35:06Z</time>
      </trkpt>
      <trkpt lat="49.53711" lon="3.50528">
        <ele>102.2</ele>
        <time>2023-08-18T11:35:07Z</time>
      </trkpt>
      <trkpt lat="49.5371" lon="3.50529">
        <ele>102.6</ele>
        <time>2023-08-18T11:35:08Z</time>
      </trkpt>
      <trkpt lat="49.5371" lon="3.5053">
        <ele>103</ele>
        <time>2023-08-18T11:35:09Z</time>
      </trkpt>
      <trkpt lat="49.53709" lon="3.5053">
        <ele>103.4</ele>
        <time>2023-08-18T11:35:10Z</time>
      </trkpt>
      <trkpt lat="49.53709" lon="3.5053">
        <ele>103.4</ele>
        <time>2023-08-18T11:35:11Z</time>
      </trkpt>
      <trkpt lat="49.53704" lon="3.50538">
        <ele>103.4</ele>
        <time>2023-08-18T11:35:18Z</time>
      </trkpt>
      <trkpt lat="49.53701" lon="3.50539">
        <ele>103.8</ele>
        <time>2023-08-18T11:35:22Z</time>
      </trkpt>
      <trkpt lat="49.53699" lon="3.50539">
        <ele>104.2</ele>
        <time>2023-08-18T11:35:23Z</time>
      </trkpt>
      <trkpt lat="49.53699" lon="3.50541">
        <ele>104.6</ele>
        <time>2023-08-18T11:35:24Z</time>
      </trkpt>
      <trkpt lat="49.53698" lon="3.50542">
        <ele>105</ele>
        <time>2023-08-18T11:35:25Z</time>
      </trkpt>
      <trkpt lat="49.53697" lon="3.50544">
        <ele>105.6</ele>
        <time>2023-08-18T11:35:26Z</time>
      </trkpt>
      <trkpt lat="49.53696" lon="3.50547">
        <ele>105.6</ele>
        <time>2023-08-18T11:35:29Z</time>
      </trkpt>
      <trkpt lat="49.53692" lon="3.50555">
        <ele>105.6</ele>
        <time>2023-08-18T11:35:36Z</time>
      </trkpt>
      <trkpt lat="49.5369" lon="3.50562">
        <ele>106</ele>
        <time>2023-08-18T11:35:40Z</time>
      </trkpt>
      <trkpt lat="49.5369" lon="3.50562">
        <ele>106.4</ele>
        <time>2023-08-18T11:35:41Z</time>
      </trkpt>
      <trkpt lat="49.5369" lon="3.50562">
        <ele>106.8</ele>
        <time>2023-08-18T11:35:42Z</time>
      </trkpt>
      <trkpt lat="49.5369" lon="3.50562">
        <ele>107.2</ele>
        <time>2023-08-18T11:35:43Z</time>
      </trkpt>
      <trkpt lat="49.53689" lon="3.50563">
        <ele>107.6</ele>
        <time>2023-08-18T11:35:44Z</time>
      </trkpt>
      <trkpt lat="49.53686" lon="3.50568">
        <ele>107.6</ele>
        <time>2023-08-18T11:35:50Z</time>
      </trkpt>
      <trkpt lat="49.53683" lon="3.5057">
        <ele>107.6</ele>
        <time>2023-08-18T11:35:57Z</time>
      </trkpt>
      <trkpt lat="49.53682" lon="3.5057">
        <ele>108.4</ele>
        <time>2023-08-18T11:36:02Z</time>
      </trkpt>
      <trkpt lat="49.53682" lon="3.50571">
        <ele>108.8</ele>
        <time>2023-08-18T11:36:03Z</time>
      </trkpt>
      <trkpt lat="49.53682" lon="3.50571">
        <ele>109.4</ele>
        <time>2023-08-18T11:36:04Z</time>
      </trkpt>
      <trkpt lat="49.53681" lon="3.50571">
        <ele>109.8</ele>
        <time>2023-08-18T11:36:05Z</time>
      </trkpt>
      <trkpt lat="49.53675" lon="3.50576">
        <ele>109.8</ele>
        <time>2023-08-18T11:36:11Z</time>
      </trkpt>
      <trkpt lat="49.53674" lon="3.50576">
        <ele>109.8</ele>
        <time>2023-08-18T11:36:18Z</time>
      </trkpt>
      <trkpt lat="49.53674" lon="3.50578">
        <ele>109.8</ele>
        <time>2023-08-18T11:36:25Z</time>
      </trkpt>
      <trkpt lat="49.53677" lon="3.50575">
        <ele>109.8</ele>
        <time>2023-08-18T11:36:31Z</time>
      </trkpt>
      <trkpt lat="49.53679" lon="3.50569">
        <ele>109.8</ele>
        <time>2023-08-18T11:36:36Z</time>
      </trkpt>
      <trkpt lat="49.5368" lon="3.50564">
        <ele>109.8</ele>
        <time>2023-08-18T11:36:41Z</time>
      </trkpt>
      <trkpt lat="49.53679" lon="3.50558">
        <ele>109.8</ele>
        <time>2023-08-18T11:36:46Z</time>
      </trkpt>
      <trkpt lat="49.53681" lon="3.5055">
        <ele>109.4</ele>
        <time>2023-08-18T11:36:51Z</time>
      </trkpt>
      <trkpt lat="49.53681" lon="3.50549">
        <ele>109</ele>
        <time>2023-08-18T11:36:52Z</time>
      </trkpt>
      <trkpt lat="49.53682" lon="3.50548">
        <ele>108.6</ele>
        <time>2023-08-18T11:36:53Z</time>
      </trkpt>
      <trkpt lat="49.53683" lon="3.50547">
        <ele>108.2</ele>
        <time>2023-08-18T11:36:54Z</time>
      </trkpt>
      <trkpt lat="49.53683" lon="3.50546">
        <ele>107.8</ele>
        <time>2023-08-18T11:36:55Z</time>
      </trkpt>
      <trkpt lat="49.53684" lon="3.5054">
        <ele>107.8</ele>
        <time>2023-08-18T11:36:59Z</time>
      </trkpt>
      <trkpt lat="49.53688" lon="3.50534">
        <ele>107.8</ele>
        <time>2023-08-18T11:37:06Z</time>
      </trkpt>
      <trkpt lat="49.5369" lon="3.50532">
        <ele>107.2</ele>
        <time>2023-08-18T11:37:08Z</time>
      </trkpt>
      <trkpt lat="49.53691" lon="3.50531">
        <ele>106.8</ele>
        <time>2023-08-18T11:37:09Z</time>
      </trkpt>
      <trkpt lat="49.53692" lon="3.5053">
        <ele>106.4</ele>
        <time>2023-08-18T11:37:10Z</time>
      </trkpt>
      <trkpt lat="49.53693" lon="3.50529">
        <ele>106</ele>
        <time>2023-08-18T11:37:11Z</time>
      </trkpt>
      <trkpt lat="49.53694" lon="3.50528">
        <ele>105.6</ele>
        <time>2023-08-18T11:37:12Z</time>
      </trkpt>
      <trkpt lat="49.53699" lon="3.50523">
        <ele>105.6</ele>
        <time>2023-08-18T11:37:19Z</time>
      </trkpt>
      <trkpt lat="49.537" lon="3.50523">
        <ele>105.6</ele>
        <time>2023-08-18T11:37:27Z</time>
      </trkpt>
      <trkpt lat="49.537" lon="3.50523">
        <ele>105.6</ele>
        <time>2023-08-18T11:37:37Z</time>
      </trkpt>
      <trkpt lat="49.537" lon="3.50523">
        <ele>105.6</ele>
        <time>2023-08-18T11:37:49Z</time>
      </trkpt>
      <trkpt lat="49.537" lon="3.50523">
        <ele>105.6</ele>
        <time>2023-08-18T11:38:02Z</time>
      </trkpt>
      <trkpt lat="49.537" lon="3.50524">
        <ele>105.6</ele>
        <time>2023-08-18T11:38:09Z</time>
      </trkpt>
      <trkpt lat="49.537" lon="3.50526">
        <ele>105.6</ele>
        <time>2023-08-18T11:38:16Z</time>
      </trkpt>
      <trkpt lat="49.537" lon="3.50526">
        <ele>105.6</ele>
        <time>2023-08-18T11:38:26Z</time>
      </trkpt>
      <trkpt lat="49.537" lon="3.50526">
        <ele>105.6</ele>
        <time>2023-08-18T11:38:33Z</time>
      </trkpt>
      <trkpt lat="49.53699" lon="3.50532">
        <ele>105.6</ele>
        <time>2023-08-18T11:38:40Z</time>
      </trkpt>
      <trkpt lat="49.53693" lon="3.50541">
        <ele>105.6</ele>
        <time>2023-08-18T11:38:47Z</time>
      </trkpt>
      <trkpt lat="49.5369" lon="3.50547">
        <ele>105.6</ele>
        <time>2023-08-18T11:38:54Z</time>
      </trkpt>
      <trkpt lat="49.53689" lon="3.50552">
        <ele>106</ele>
        <time>2023-08-18T11:38:58Z</time>
      </trkpt>
      <trkpt lat="49.53688" lon="3.50553">
        <ele>106.4</ele>
        <time>2023-08-18T11:38:59Z</time>
      </trkpt>
      <trkpt lat="49.53688" lon="3.50555">
        <ele>106.8</ele>
        <time>2023-08-18T11:39:00Z</time>
      </trkpt>
      <trkpt lat="49.53688" lon="3.50557">
        <ele>107.4</ele>
        <time>2023-08-18T11:39:01Z</time>
      </trkpt>
      <trkpt lat="49.53687" lon="3.50559">
        <ele>107.8</ele>
        <time>2023-08-18T11:39:02Z</time>
      </trkpt>
      <trkpt lat="49.53685" lon="3.50564">
        <ele>107.8</ele>
        <time>2023-08-18T11:39:09Z</time>
      </trkpt>
      <trkpt lat="49.5368" lon="3.50566">
        <ele>108.2</ele>
        <time>2023-08-18T11:39:14Z</time>
      </trkpt>
      <trkpt lat="49.53679" lon="3.50568">
        <ele>108.6</ele>
        <time>2023-08-18T11:39:15Z</time>
      </trkpt>
      <trkpt lat="49.53679" lon="3.50569">
        <ele>109</ele>
        <time>2023-08-18T11:39:16Z</time>
      </trkpt>
      <trkpt lat="49.53678" lon="3.50571">
        <ele>109.4</ele>
        <time>2023-08-18T11:39:17Z</time>
      </trkpt>
      <trkpt lat="49.53678" lon="3.50573">
        <ele>109.8</ele>
        <time>2023-08-18T11:39:18Z</time>
      </trkpt>
      <trkpt lat="49.53677" lon="3.50575">
        <ele>109.8</ele>
        <time>2023-08-18T11:39:24Z</time>
      </trkpt>
      <trkpt lat="49.53668" lon="3.50583">
        <ele>109.8</ele>
        <time>2023-08-18T11:39:31Z</time>
      </trkpt>
      <trkpt lat="49.53661" lon="3.50588">
        <ele>110.2</ele>
        <time>2023-08-18T11:39:37Z</time>
      </trkpt>
      <trkpt lat="49.5366" lon="3.5059">
        <ele>110.6</ele>
        <time>2023-08-18T11:39:38Z</time>
      </trkpt>
      <trkpt lat="49.53659" lon="3.50592">
        <ele>111</ele>
        <time>2023-08-18T11:39:39Z</time>
      </trkpt>
      <trkpt lat="49.53658" lon="3.50592">
        <ele>111.4</ele>
        <time>2023-08-18T11:39:40Z</time>
      </trkpt>
      <trkpt lat="49.53657" lon="3.50593">
        <ele>111.8</ele>
        <time>2023-08-18T11:39:41Z</time>
      </trkpt>
      <trkpt lat="49.53656" lon="3.50594">
        <ele>111.8</ele>
        <time>2023-08-18T11:39:46Z</time>
      </trkpt>
      <trkpt lat="49.53654" lon="3.50593">
        <ele>111.8</ele>
        <time>2023-08-18T11:39:52Z</time>
      </trkpt>
      <trkpt lat="49.53654" lon="3.50593">
        <ele>111.8</ele>
        <time>2023-08-18T11:40:02Z</time>
      </trkpt>
      <trkpt lat="49.53654" lon="3.50593">
        <ele>111.8</ele>
        <time>2023-08-18T11:40:09Z</time>
      </trkpt>
      <trkpt lat="49.53653" lon="3.50592">
        <ele>111.8</ele>
        <time>2023-08-18T11:40:20Z</time>
      </trkpt>
      <trkpt lat="49.53654" lon="3.50591">
        <ele>111.8</ele>
        <time>2023-08-18T11:40:26Z</time>
      </trkpt>
      <trkpt lat="49.53655" lon="3.5059">
        <ele>111.8</ele>
        <time>2023-08-18T11:40:34Z</time>
      </trkpt>
      <trkpt lat="49.53658" lon="3.50589">
        <ele>111.8</ele>
        <time>2023-08-18T11:40:40Z</time>
      </trkpt>
      <trkpt lat="49.53659" lon="3.5059">
        <ele>112.2</ele>
        <time>2023-08-18T11:40:41Z</time>
      </trkpt>
      <trkpt lat="49.5366" lon="3.5059">
        <ele>112.8</ele>
        <time>2023-08-18T11:40:42Z</time>
      </trkpt>
      <trkpt lat="49.5366" lon="3.50591">
        <ele>113.2</ele>
        <time>2023-08-18T11:40:43Z</time>
      </trkpt>
      <trkpt lat="49.5366" lon="3.50591">
        <ele>113.6</ele>
        <time>2023-08-18T11:40:44Z</time>
      </trkpt>
      <trkpt lat="49.5366" lon="3.50592">
        <ele>114</ele>
        <time>2023-08-18T11:40:45Z</time>
      </trkpt>
      <trkpt lat="49.5366" lon="3.50595">
        <ele>114</ele>
        <time>2023-08-18T11:40:48Z</time>
      </trkpt>
      <trkpt lat="49.53661" lon="3.50598">
        <ele>114.4</ele>
        <time>2023-08-18T11:40:51Z</time>
      </trkpt>
      <trkpt lat="49.53661" lon="3.50598">
        <ele>114.8</ele>
        <time>2023-08-18T11:40:52Z</time>
      </trkpt>
      <trkpt lat="49.53662" lon="3.50598">
        <ele>115.2</ele>
        <time>2023-08-18T11:40:53Z</time>
      </trkpt>
      <trkpt lat="49.53662" lon="3.50598">
        <ele>115.6</ele>
        <time>2023-08-18T11:40:54Z</time>
      </trkpt>
      <trkpt lat="49.53662" lon="3.50598">
        <ele>116.2</ele>
        <time>2023-08-18T11:40:55Z</time>
      </trkpt>
      <trkpt lat="49.53661" lon="3.50599">
        <ele>116.2</ele>
        <time>2023-08-18T11:40:56Z</time>
      </trkpt>
      <trkpt lat="49.5366" lon="3.50598">
        <ele>116.2</ele>
        <time>2023-08-18T11:41:03Z</time>
      </trkpt>
      <trkpt lat="49.5366" lon="3.50598">
        <ele>116.6</ele>
        <time>2023-08-18T11:41:08Z</time>
      </trkpt>
      <trkpt lat="49.53659" lon="3.50599">
        <ele>117</ele>
        <time>2023-08-18T11:41:09Z</time>
      </trkpt>
      <trkpt lat="49.53659" lon="3.50599">
        <ele>117.4</ele>
        <time>2023-08-18T11:41:10Z</time>
      </trkpt>
      <trkpt lat="49.53659" lon="3.50601">
        <ele>117.8</ele>
        <time>2023-08-18T11:41:11Z</time>
      </trkpt>
      <trkpt lat="49.5366" lon="3.50602">
        <ele>118.2</ele>
        <time>2023-08-18T11:41:12Z</time>
      </trkpt>
      <trkpt lat="49.53659" lon="3.50603">
        <ele>118.6</ele>
        <time>2023-08-18T11:41:18Z</time>
      </trkpt>
      <trkpt lat="49.53659" lon="3.50603">
        <ele>119</ele>
        <time>2023-08-18T11:41:19Z</time>
      </trkpt>
      <trkpt lat="49.53659" lon="3.50603">
        <ele>119.4</ele>
        <time>2023-08-18T11:41:20Z</time>
      </trkpt>
      <trkpt lat="49.53659" lon="3.50603">
        <ele>119.8</ele>
        <time>2023-08-18T11:41:21Z</time>
      </trkpt>
      <trkpt lat="49.53659" lon="3.50605">
        <ele>120.2</ele>
        <time>2023-08-18T11:41:22Z</time>
      </trkpt>
      <trkpt lat="49.53659" lon="3.50605">
        <ele>120.2</ele>
        <time>2023-08-18T11:41:27Z</time>
      </trkpt>
      <trkpt lat="49.53659" lon="3.50605">
        <ele>120.2</ele>
        <time>2023-08-18T11:41:40Z</time>
      </trkpt>
      <trkpt lat="49.53659" lon="3.50605">
        <ele>120.2</ele>
        <time>2023-08-18T11:41:52Z</time>
      </trkpt>
      <trkpt lat="49.5366" lon="3.50605">
        <ele>120.2</ele>
        <time>2023-08-18T11:42:07Z</time>
      </trkpt>
      <trkpt lat="49.5366" lon="3.50605">
        <ele>120.2</ele>
        <time>2023-08-18T11:42:25Z</time>
      </trkpt>
      <trkpt lat="49.5366" lon="3.50605">
        <ele>120.2</ele>
        <time>2023-08-18T11:42:35Z</time>
      </trkpt>
      <trkpt lat="49.53657" lon="3.50603">
        <ele>120.2</ele>
        <time>2023-08-18T11:42:44Z</time>
      </trkpt>
      <trkpt lat="49.53657" lon="3.50603">
        <ele>119.8</ele>
        <time>2023-08-18T11:42:45Z</time>
      </trkpt>
      <trkpt lat="49.53657" lon="3.50602">
        <ele>119.4</ele>
        <time>2023-08-18T11:42:46Z</time>
      </trkpt>
      <trkpt lat="49.53657" lon="3.50602">
        <ele>119</ele>
        <time>2023-08-18T11:42:47Z</time>
      </trkpt>
      <trkpt lat="49.53657" lon="3.50602">
        <ele>118.4</ele>
        <time>2023-08-18T11:42:48Z</time>
      </trkpt>
      <trkpt lat="49.53658" lon="3.506">
        <ele>118</ele>
        <time>2023-08-18T11:42:49Z</time>
      </trkpt>
      <trkpt lat="49.53658" lon="3.50599">
        <ele>118</ele>
        <time>2023-08-18T11:42:50Z</time>
      </trkpt>
      <trkpt lat="49.53657" lon="3.50597">
        <ele>118</ele>
        <time>2023-08-18T11:42:57Z</time>
      </trkpt>
      <trkpt lat="49.53657" lon="3.50597">
        <ele>117.6</ele>
        <time>2023-08-18T11:42:58Z</time>
      </trkpt>
      <trkpt lat="49.53657" lon="3.50597">
        <ele>117.2</ele>
        <time>2023-08-18T11:42:59Z</time>
      </trkpt>
      <trkpt lat="49.53657" lon="3.50597">
        <ele>116.8</ele>
        <time>2023-08-18T11:43:00Z</time>
      </trkpt>
      <trkpt lat="49.53658" lon="3.50597">
        <ele>116.4</ele>
        <time>2023-08-18T11:43:01Z</time>
      </trkpt>
      <trkpt lat="49.53658" lon="3.50597">
        <ele>116</ele>
        <time>2023-08-18T11:43:02Z</time>
      </trkpt>
      <trkpt lat="49.53658" lon="3.50595">
        <ele>116</ele>
        <time>2023-08-18T11:43:05Z</time>
      </trkpt>
      <trkpt lat="49.53658" lon="3.50595">
        <ele>115.6</ele>
        <time>2023-08-18T11:43:08Z</time>
      </trkpt>
      <trkpt lat="49.53658" lon="3.50595">
        <ele>115.2</ele>
        <time>2023-08-18T11:43:09Z</time>
      </trkpt>
      <trkpt lat="49.53658" lon="3.50595">
        <ele>114.8</ele>
        <time>2023-08-18T11:43:10Z</time>
      </trkpt>
      <trkpt lat="49.53658" lon="3.50595">
        <ele>114.4</ele>
        <time>2023-08-18T11:43:11Z</time>
      </trkpt>
      <trkpt lat="49.53658" lon="3.50595">
        <ele>114</ele>
        <time>2023-08-18T11:43:12Z</time>
      </trkpt>
      <trkpt lat="49.53654" lon="3.50598">
        <ele>114</ele>
        <time>2023-08-18T11:43:20Z</time>
      </trkpt>
      <trkpt lat="49.53654" lon="3.50602">
        <ele>114</ele>
        <time>2023-08-18T11:43:27Z</time>
      </trkpt>
      <trkpt lat="49.53645" lon="3.50601">
        <ele>114</ele>
        <time>2023-08-18T11:43:35Z</time>
      </trkpt>
      <trkpt lat="49.53642" lon="3.50602">
        <ele>114</ele>
        <time>2023-08-18T11:43:42Z</time>
      </trkpt>
      <trkpt lat="49.53637" lon="3.50599">
        <ele>114.4</ele>
        <time>2023-08-18T11:43:46Z</time>
      </trkpt>
      <trkpt lat="49.53636" lon="3.50599">
        <ele>114.8</ele>
        <time>2023-08-18T11:43:47Z</time>
      </trkpt>
      <trkpt lat="49.53635" lon="3.506">
        <ele>115.2</ele>
        <time>2023-08-18T11:43:48Z</time>
      </trkpt>
      <trkpt lat="49.53634" lon="3.506">
        <ele>115.6</ele>
        <time>2023-08-18T11:43:49Z</time>
      </trkpt>
      <trkpt lat="49.53633" lon="3.506">
        <ele>116</ele>
        <time>2023-08-18T11:43:50Z</time>
      </trkpt>
      <trkpt lat="49.53627" lon="3.50602">
        <ele>116</ele>
        <time>2023-08-18T11:43:56Z</time>
      </trkpt>
      <trkpt lat="49.53624" lon="3.50603">
        <ele>116.4</ele>
        <time>2023-08-18T11:44:01Z</time>
      </trkpt>
      <trkpt lat="49.53624" lon="3.50603">
        <ele>116.8</ele>
        <time>2023-08-18T11:44:02Z</time>
      </trkpt>
      <trkpt lat="49.53624" lon="3.50603">
        <ele>117.2</ele>
        <time>2023-08-18T11:44:03Z</time>
      </trkpt>
      <trkpt lat="49.53623" lon="3.50603">
        <ele>117.6</ele>
        <time>2023-08-18T11:44:04Z</time>
      </trkpt>
      <trkpt lat="49.53621" lon="3.50603">
        <ele>118</ele>
        <time>2023-08-18T11:44:05Z</time>
      </trkpt>
      <trkpt lat="49.53616" lon="3.50604">
        <ele>118</ele>
        <time>2023-08-18T11:44:13Z</time>
      </trkpt>
      <trkpt lat="49.5361" lon="3.50607">
        <ele>118.4</ele>
        <time>2023-08-18T11:44:21Z</time>
      </trkpt>
      <trkpt lat="49.5361" lon="3.50607">
        <ele>118.8</ele>
        <time>2023-08-18T11:44:22Z</time>
      </trkpt>
      <trkpt lat="49.5361" lon="3.50609">
        <ele>119.2</ele>
        <time>2023-08-18T11:44:23Z</time>
      </trkpt>
      <trkpt lat="49.53611" lon="3.5061">
        <ele>119.6</ele>
        <time>2023-08-18T11:44:24Z</time>
      </trkpt>
      <trkpt lat="49.53611" lon="3.50612">
        <ele>120</ele>
        <time>2023-08-18T11:44:25Z</time>
      </trkpt>
      <trkpt lat="49.5361" lon="3.50612">
        <ele>120</ele>
        <time>2023-08-18T11:44:30Z</time>
      </trkpt>
      <trkpt lat="49.53604" lon="3.50617">
        <ele>120</ele>
        <time>2023-08-18T11:44:38Z</time>
      </trkpt>
      <trkpt lat="49.53604" lon="3.50617">
        <ele>120.4</ele>
        <time>2023-08-18T11:44:39Z</time>
      </trkpt>
      <trkpt lat="49.53604" lon="3.50618">
        <ele>120.8</ele>
        <time>2023-08-18T11:44:40Z</time>
      </trkpt>
      <trkpt lat="49.53603" lon="3.50619">
        <ele>121.6</ele>
        <time>2023-08-18T11:44:41Z</time>
      </trkpt>
      <trkpt lat="49.53602" lon="3.50621">
        <ele>122</ele>
        <time>2023-08-18T11:44:42Z</time>
      </trkpt>
      <trkpt lat="49.53598" lon="3.50626">
        <ele>122</ele>
        <time>2023-08-18T11:44:46Z</time>
      </trkpt>
      <trkpt lat="49.53593" lon="3.50632">
        <ele>122</ele>
        <time>2023-08-18T11:44:51Z</time>
      </trkpt>
      <trkpt lat="49.53592" lon="3.50634">
        <ele>122.6</ele>
        <time>2023-08-18T11:44:53Z</time>
      </trkpt>
      <trkpt lat="49.53591" lon="3.50636">
        <ele>123</ele>
        <time>2023-08-18T11:44:54Z</time>
      </trkpt>
      <trkpt lat="49.53591" lon="3.50637">
        <ele>123.4</ele>
        <time>2023-08-18T11:44:55Z</time>
      </trkpt>
      <trkpt lat="49.53592" lon="3.50639">
        <ele>123.8</ele>
        <time>2023-08-18T11:44:56Z</time>
      </trkpt>
      <trkpt lat="49.53592" lon="3.50639">
        <ele>124.2</ele>
        <time>2023-08-18T11:44:57Z</time>
      </trkpt>
      <trkpt lat="49.53592" lon="3.50642">
        <ele>124.2</ele>
        <time>2023-08-18T11:44:59Z</time>
      </trkpt>
      <trkpt lat="49.53591" lon="3.50647">
        <ele>124.2</ele>
        <time>2023-08-18T11:45:05Z</time>
      </trkpt>
      <trkpt lat="49.5359" lon="3.50647">
        <ele>124.2</ele>
        <time>2023-08-18T11:45:11Z</time>
      </trkpt>
      <trkpt lat="49.53587" lon="3.50647">
        <ele>124.6</ele>
        <time>2023-08-18T11:45:13Z</time>
      </trkpt>
      <trkpt lat="49.53586" lon="3.50647">
        <ele>125.2</ele>
        <time>2023-08-18T11:45:14Z</time>
      </trkpt>
      <trkpt lat="49.53585" lon="3.50648">
        <ele>125.6</ele>
        <time>2023-08-18T11:45:15Z</time>
      </trkpt>
      <trkpt lat="49.53585" lon="3.50648">
        <ele>126</ele>
        <time>2023-08-18T11:45:16Z</time>
      </trkpt>
      <trkpt lat="49.53584" lon="3.50649">
        <ele>126.4</ele>
        <time>2023-08-18T11:45:17Z</time>
      </trkpt>
      <trkpt lat="49.53584" lon="3.50649">
        <ele>126.4</ele>
        <time>2023-08-18T11:45:18Z</time>
      </trkpt>
      <trkpt lat="49.53582" lon="3.50655">
        <ele>126.4</ele>
        <time>2023-08-18T11:45:24Z</time>
      </trkpt>
      <trkpt lat="49.53577" lon="3.50661">
        <ele>126.4</ele>
        <time>2023-08-18T11:45:30Z</time>
      </trkpt>
      <trkpt lat="49.53576" lon="3.50662">
        <ele>126.8</ele>
        <time>2023-08-18T11:45:31Z</time>
      </trkpt>
      <trkpt lat="49.53576" lon="3.50664">
        <ele>127.2</ele>
        <time>2023-08-18T11:45:32Z</time>
      </trkpt>
      <trkpt lat="49.53575" lon="3.50665">
        <ele>127.6</ele>
        <time>2023-08-18T11:45:33Z</time>
      </trkpt>
      <trkpt lat="49.53574" lon="3.50665">
        <ele>128</ele>
        <time>2023-08-18T11:45:34Z</time>
      </trkpt>
      <trkpt lat="49.53573" lon="3.50666">
        <ele>128.4</ele>
        <time>2023-08-18T11:45:35Z</time>
      </trkpt>
      <trkpt lat="49.53572" lon="3.50671">
        <ele>128.4</ele>
        <time>2023-08-18T11:45:38Z</time>
      </trkpt>
      <trkpt lat="49.53568" lon="3.5068">
        <ele>128.4</ele>
        <time>2023-08-18T11:45:45Z</time>
      </trkpt>
      <trkpt lat="49.53563" lon="3.50687">
        <ele>128.8</ele>
        <time>2023-08-18T11:45:50Z</time>
      </trkpt>
      <trkpt lat="49.53562" lon="3.50688">
        <ele>129.2</ele>
        <time>2023-08-18T11:45:51Z</time>
      </trkpt>
      <trkpt lat="49.53561" lon="3.50689">
        <ele>129.6</ele>
        <time>2023-08-18T11:45:52Z</time>
      </trkpt>
      <trkpt lat="49.53561" lon="3.50689">
        <ele>130</ele>
        <time>2023-08-18T11:45:53Z</time>
      </trkpt>
      <trkpt lat="49.5356" lon="3.5069">
        <ele>130.4</ele>
        <time>2023-08-18T11:45:54Z</time>
      </trkpt>
      <trkpt lat="49.53556" lon="3.50693">
        <ele>130.4</ele>
        <time>2023-08-18T11:46:00Z</time>
      </trkpt>
      <trkpt lat="49.53549" lon="3.507">
        <ele>131</ele>
        <time>2023-08-18T11:46:06Z</time>
      </trkpt>
      <trkpt lat="49.53548" lon="3.507">
        <ele>131.4</ele>
        <time>2023-08-18T11:46:07Z</time>
      </trkpt>
      <trkpt lat="49.53548" lon="3.507">
        <ele>131.8</ele>
        <time>2023-08-18T11:46:08Z</time>
      </trkpt>
      <trkpt lat="49.53547" lon="3.50701">
        <ele>132.2</ele>
        <time>2023-08-18T11:46:09Z</time>
      </trkpt>
      <trkpt lat="49.53547" lon="3.50702">
        <ele>132.6</ele>
        <time>2023-08-18T11:46:10Z</time>
      </trkpt>
      <trkpt lat="49.53547" lon="3.50704">
        <ele>132.6</ele>
        <time>2023-08-18T11:46:13Z</time>
      </trkpt>
      <trkpt lat="49.53545" lon="3.50711">
        <ele>132.6</ele>
        <time>2023-08-18T11:46:18Z</time>
      </trkpt>
      <trkpt lat="49.53544" lon="3.50713">
        <ele>132.6</ele>
        <time>2023-08-18T11:46:19Z</time>
      </trkpt>
      <trkpt lat="49.53544" lon="3.50718">
        <ele>133</ele>
        <time>2023-08-18T11:46:23Z</time>
      </trkpt>
      <trkpt lat="49.53544" lon="3.50719">
        <ele>133.4</ele>
        <time>2023-08-18T11:46:24Z</time>
      </trkpt>
      <trkpt lat="49.53544" lon="3.5072">
        <ele>133.8</ele>
        <time>2023-08-18T11:46:25Z</time>
      </trkpt>
      <trkpt lat="49.53543" lon="3.50722">
        <ele>134.2</ele>
        <time>2023-08-18T11:46:26Z</time>
      </trkpt>
      <trkpt lat="49.53542" lon="3.50724">
        <ele>134.6</ele>
        <time>2023-08-18T11:46:27Z</time>
      </trkpt>
      <trkpt lat="49.53538" lon="3.50731">
        <ele>134.6</ele>
        <time>2023-08-18T11:46:33Z</time>
      </trkpt>
      <trkpt lat="49.53537" lon="3.50737">
        <ele>135</ele>
        <time>2023-08-18T11:46:37Z</time>
      </trkpt>
      <trkpt lat="49.53536" lon="3.50738">
        <ele>135.6</ele>
        <time>2023-08-18T11:46:38Z</time>
      </trkpt>
      <trkpt lat="49.53536" lon="3.50738">
        <ele>136</ele>
        <time>2023-08-18T11:46:39Z</time>
      </trkpt>
      <trkpt lat="49.53536" lon="3.50738">
        <ele>136.4</ele>
        <time>2023-08-18T11:46:40Z</time>
      </trkpt>
      <trkpt lat="49.53536" lon="3.50739">
        <ele>136.8</ele>
        <time>2023-08-18T11:46:41Z</time>
      </trkpt>
      <trkpt lat="49.53537" lon="3.50743">
        <ele>136.8</ele>
        <time>2023-08-18T11:46:46Z</time>
      </trkpt>
      <trkpt lat="49.53536" lon="3.50747">
        <ele>137.2</ele>
        <time>2023-08-18T11:46:50Z</time>
      </trkpt>
      <trkpt lat="49.53536" lon="3.50747">
        <ele>137.6</ele>
        <time>2023-08-18T11:46:51Z</time>
      </trkpt>
      <trkpt lat="49.53536" lon="3.50747">
        <ele>138</ele>
        <time>2023-08-18T11:46:52Z</time>
      </trkpt>
      <trkpt lat="49.53536" lon="3.50747">
        <ele>138.4</ele>
        <time>2023-08-18T11:46:53Z</time>
      </trkpt>
      <trkpt lat="49.53536" lon="3.50748">
        <ele>138.8</ele>
        <time>2023-08-18T11:46:54Z</time>
      </trkpt>
      <trkpt lat="49.53536" lon="3.50748">
        <ele>138.8</ele>
        <time>2023-08-18T11:47:00Z</time>
      </trkpt>
      <trkpt lat="49.53532" lon="3.50751">
        <ele>138.8</ele>
        <time>2023-08-18T11:47:08Z</time>
      </trkpt>
      <trkpt lat="49.53532" lon="3.50751">
        <ele>138.8</ele>
        <time>2023-08-18T11:47:17Z</time>
      </trkpt>
      <trkpt lat="49.53532" lon="3.50752">
        <ele>138.8</ele>
        <time>2023-08-18T11:47:27Z</time>
      </trkpt>
      <trkpt lat="49.53533" lon="3.50749">
        <ele>138.8</ele>
        <time>2023-08-18T11:47:33Z</time>
      </trkpt>
      <trkpt lat="49.53533" lon="3.50749">
        <ele>138.8</ele>
        <time>2023-08-18T11:47:44Z</time>
      </trkpt>
      <trkpt lat="49.53532" lon="3.5075">
        <ele>138.8</ele>
        <time>2023-08-18T11:47:52Z</time>
      </trkpt>
      <trkpt lat="49.53533" lon="3.50751">
        <ele>138.8</ele>
        <time>2023-08-18T11:48:01Z</time>
      </trkpt>
      <trkpt lat="49.53533" lon="3.50752">
        <ele>138.8</ele>
        <time>2023-08-18T11:48:09Z</time>
      </trkpt>
      <trkpt lat="49.53532" lon="3.50755">
        <ele>138.8</ele>
        <time>2023-08-18T11:48:17Z</time>
      </trkpt>
      <trkpt lat="49.53527" lon="3.50763">
        <ele>139.2</ele>
        <time>2023-08-18T11:48:24Z</time>
      </trkpt>
      <trkpt lat="49.53527" lon="3.50764">
        <ele>139.6</ele>
        <time>2023-08-18T11:48:25Z</time>
      </trkpt>
      <trkpt lat="49.53526" lon="3.50765">
        <ele>140</ele>
        <time>2023-08-18T11:48:26Z</time>
      </trkpt>
      <trkpt lat="49.53526" lon="3.50766">
        <ele>140.4</ele>
        <time>2023-08-18T11:48:27Z</time>
      </trkpt>
      <trkpt lat="49.53526" lon="3.50766">
        <ele>140.8</ele>
        <time>2023-08-18T11:48:28Z</time>
      </trkpt>
      <trkpt lat="49.53526" lon="3.5077">
        <ele>140.8</ele>
        <time>2023-08-18T11:48:31Z</time>
      </trkpt>
      <trkpt lat="49.53523" lon="3.5078">
        <ele>141.2</ele>
        <time>2023-08-18T11:48:36Z</time>
      </trkpt>
      <trkpt lat="49.53522" lon="3.5078">
        <ele>141.8</ele>
        <time>2023-08-18T11:48:37Z</time>
      </trkpt>
      <trkpt lat="49.53521" lon="3.50781">
        <ele>142.2</ele>
        <time>2023-08-18T11:48:38Z</time>
      </trkpt>
      <trkpt lat="49.53521" lon="3.50782">
        <ele>142.6</ele>
        <time>2023-08-18T11:48:39Z</time>
      </trkpt>
      <trkpt lat="49.53522" lon="3.50783">
        <ele>143</ele>
        <time>2023-08-18T11:48:40Z</time>
      </trkpt>
      <trkpt lat="49.53521" lon="3.50784">
        <ele>143</ele>
        <time>2023-08-18T11:48:43Z</time>
      </trkpt>
      <trkpt lat="49.53518" lon="3.50786">
        <ele>143</ele>
        <time>2023-08-18T11:48:49Z</time>
      </trkpt>
      <trkpt lat="49.53517" lon="3.50787">
        <ele>143.4</ele>
        <time>2023-08-18T11:48:50Z</time>
      </trkpt>
      <trkpt lat="49.53517" lon="3.50787">
        <ele>143.8</ele>
        <time>2023-08-18T11:48:51Z</time>
      </trkpt>
      <trkpt lat="49.53517" lon="3.50787">
        <ele>144.2</ele>
        <time>2023-08-18T11:48:52Z</time>
      </trkpt>
      <trkpt lat="49.53516" lon="3.50787">
        <ele>144.6</ele>
        <time>2023-08-18T11:48:53Z</time>
      </trkpt>
      <trkpt lat="49.53515" lon="3.50788">
        <ele>145</ele>
        <time>2023-08-18T11:48:54Z</time>
      </trkpt>
      <trkpt lat="49.53513" lon="3.50789">
        <ele>145</ele>
        <time>2023-08-18T11:48:55Z</time>
      </trkpt>
      <trkpt lat="49.5351" lon="3.50793">
        <ele>145</ele>
        <time>2023-08-18T11:49:01Z</time>
      </trkpt>
      <trkpt lat="49.53509" lon="3.50794">
        <ele>145.6</ele>
        <time>2023-08-18T11:49:02Z</time>
      </trkpt>
      <trkpt lat="49.53509" lon="3.50794">
        <ele>146</ele>
        <time>2023-08-18T11:49:03Z</time>
      </trkpt>
      <trkpt lat="49.53509" lon="3.50794">
        <ele>146.4</ele>
        <time>2023-08-18T11:49:04Z</time>
      </trkpt>
      <trkpt lat="49.53509" lon="3.50794">
        <ele>146.8</ele>
        <time>2023-08-18T11:49:05Z</time>
      </trkpt>
      <trkpt lat="49.53509" lon="3.50794">
        <ele>147.2</ele>
        <time>2023-08-18T11:49:06Z</time>
      </trkpt>
      <trkpt lat="49.53509" lon="3.50796">
        <ele>147.2</ele>
        <time>2023-08-18T11:49:07Z</time>
      </trkpt>
      <trkpt lat="49.53508" lon="3.50799">
        <ele>147.2</ele>
        <time>2023-08-18T11:49:13Z</time>
      </trkpt>
      <trkpt lat="49.53508" lon="3.508">
        <ele>147.6</ele>
        <time>2023-08-18T11:49:14Z</time>
      </trkpt>
      <trkpt lat="49.53508" lon="3.508">
        <ele>148</ele>
        <time>2023-08-18T11:49:15Z</time>
      </trkpt>
      <trkpt lat="49.53506" lon="3.50802">
        <ele>148.4</ele>
        <time>2023-08-18T11:49:16Z</time>
      </trkpt>
      <trkpt lat="49.53506" lon="3.50803">
        <ele>148.8</ele>
        <time>2023-08-18T11:49:17Z</time>
      </trkpt>
      <trkpt lat="49.53506" lon="3.50803">
        <ele>149.2</ele>
        <time>2023-08-18T11:49:18Z</time>
      </trkpt>
      <trkpt lat="49.53506" lon="3.50804">
        <ele>149.2</ele>
        <time>2023-08-18T11:49:23Z</time>
      </trkpt>
      <trkpt lat="49.53507" lon="3.50807">
        <ele>149.2</ele>
        <time>2023-08-18T11:49:24Z</time>
      </trkpt>
      <trkpt lat="49.53506" lon="3.50811">
        <ele>149.2</ele>
        <time>2023-08-18T11:49:28Z</time>
      </trkpt>
      <trkpt lat="49.53506" lon="3.50815">
        <ele>149.6</ele>
        <time>2023-08-18T11:49:31Z</time>
      </trkpt>
      <trkpt lat="49.53506" lon="3.50815">
        <ele>150</ele>
        <time>2023-08-18T11:49:32Z</time>
      </trkpt>
      <trkpt lat="49.53506" lon="3.50817">
        <ele>150.4</ele>
        <time>2023-08-18T11:49:33Z</time>
      </trkpt>
      <trkpt lat="49.53506" lon="3.50817">
        <ele>150.8</ele>
        <time>2023-08-18T11:49:34Z</time>
      </trkpt>
      <trkpt lat="49.53505" lon="3.50817">
        <ele>151.2</ele>
        <time>2023-08-18T11:49:35Z</time>
      </trkpt>
      <trkpt lat="49.53505" lon="3.50817">
        <ele>151.2</ele>
        <time>2023-08-18T11:49:38Z</time>
      </trkpt>
      <trkpt lat="49.53504" lon="3.50824">
        <ele>151.6</ele>
        <time>2023-08-18T11:49:43Z</time>
      </trkpt>
      <trkpt lat="49.53504" lon="3.50824">
        <ele>152</ele>
        <time>2023-08-18T11:49:44Z</time>
      </trkpt>
      <trkpt lat="49.53504" lon="3.50824">
        <ele>152.4</ele>
        <time>2023-08-18T11:49:45Z</time>
      </trkpt>
      <trkpt lat="49.53504" lon="3.50824">
        <ele>152.8</ele>
        <time>2023-08-18T11:49:46Z</time>
      </trkpt>
      <trkpt lat="49.53504" lon="3.50824">
        <ele>153.2</ele>
        <time>2023-08-18T11:49:47Z</time>
      </trkpt>
      <trkpt lat="49.53503" lon="3.50824">
        <ele>153.2</ele>
        <time>2023-08-18T11:49:50Z</time>
      </trkpt>
      <trkpt lat="49.53505" lon="3.50827">
        <ele>153.2</ele>
        <time>2023-08-18T11:49:56Z</time>
      </trkpt>
      <trkpt lat="49.53505" lon="3.50827">
        <ele>153.2</ele>
        <time>2023-08-18T11:50:03Z</time>
      </trkpt>
      <trkpt lat="49.53504" lon="3.50826">
        <ele>153.2</ele>
        <time>2023-08-18T11:50:09Z</time>
      </trkpt>
      <trkpt lat="49.53504" lon="3.50826">
        <ele>153.2</ele>
        <time>2023-08-18T11:50:15Z</time>
      </trkpt>
      <trkpt lat="49.53505" lon="3.50831">
        <ele>153.2</ele>
        <time>2023-08-18T11:50:19Z</time>
      </trkpt>
      <trkpt lat="49.53507" lon="3.50835">
        <ele>153.2</ele>
        <time>2023-08-18T11:50:24Z</time>
      </trkpt>
      <trkpt lat="49.53508" lon="3.50836">
        <ele>153.6</ele>
        <time>2023-08-18T11:50:26Z</time>
      </trkpt>
      <trkpt lat="49.53509" lon="3.50836">
        <ele>154</ele>
        <time>2023-08-18T11:50:27Z</time>
      </trkpt>
      <trkpt lat="49.5351" lon="3.50837">
        <ele>154.8</ele>
        <time>2023-08-18T11:50:28Z</time>
      </trkpt>
      <trkpt lat="49.53511" lon="3.50838">
        <ele>155.2</ele>
        <time>2023-08-18T11:50:29Z</time>
      </trkpt>
      <trkpt lat="49.53512" lon="3.50839">
        <ele>155.2</ele>
        <time>2023-08-18T11:50:31Z</time>
      </trkpt>
      <trkpt lat="49.53516" lon="3.50843">
        <ele>155.2</ele>
        <time>2023-08-18T11:50:36Z</time>
      </trkpt>
      <trkpt lat="49.5352" lon="3.50845">
        <ele>155.8</ele>
        <time>2023-08-18T11:50:41Z</time>
      </trkpt>
      <trkpt lat="49.53521" lon="3.50846">
        <ele>156.2</ele>
        <time>2023-08-18T11:50:42Z</time>
      </trkpt>
      <trkpt lat="49.53522" lon="3.50847">
        <ele>156.6</ele>
        <time>2023-08-18T11:50:43Z</time>
      </trkpt>
      <trkpt lat="49.53522" lon="3.50847">
        <ele>157</ele>
        <time>2023-08-18T11:50:44Z</time>
      </trkpt>
      <trkpt lat="49.53524" lon="3.50848">
        <ele>157.4</ele>
        <time>2023-08-18T11:50:45Z</time>
      </trkpt>
      <trkpt lat="49.53526" lon="3.50849">
        <ele>157.4</ele>
        <time>2023-08-18T11:50:48Z</time>
      </trkpt>
      <trkpt lat="49.53527" lon="3.5085">
        <ele>157.4</ele>
        <time>2023-08-18T11:50:53Z</time>
      </trkpt>
      <trkpt lat="49.53527" lon="3.50851">
        <ele>157.4</ele>
        <time>2023-08-18T11:51:00Z</time>
      </trkpt>
      <trkpt lat="49.53527" lon="3.50851">
        <ele>157.4</ele>
        <time>2023-08-18T11:51:10Z</time>
      </trkpt>
      <trkpt lat="49.53527" lon="3.50851">
        <ele>157.4</ele>
        <time>2023-08-18T11:51:18Z</time>
      </trkpt>
      <trkpt lat="49.53527" lon="3.5085">
        <ele>157.4</ele>
        <time>2023-08-18T11:51:25Z</time>
      </trkpt>
      <trkpt lat="49.53524" lon="3.5085">
        <ele>157.4</ele>
        <time>2023-08-18T11:51:34Z</time>
      </trkpt>
      <trkpt lat="49.53524" lon="3.5085">
        <ele>157.4</ele>
        <time>2023-08-18T11:51:43Z</time>
      </trkpt>
      <trkpt lat="49.53525" lon="3.50851">
        <ele>157.4</ele>
        <time>2023-08-18T11:51:49Z</time>
      </trkpt>
      <trkpt lat="49.53525" lon="3.50851">
        <ele>157.4</ele>
        <time>2023-08-18T11:51:55Z</time>
      </trkpt>
      <trkpt lat="49.53525" lon="3.5085">
        <ele>157.4</ele>
        <time>2023-08-18T11:52:01Z</time>
      </trkpt>
      <trkpt lat="49.53525" lon="3.50851">
        <ele>157.4</ele>
        <time>2023-08-18T11:52:11Z</time>
      </trkpt>
      <trkpt lat="49.53525" lon="3.50851">
        <ele>157.4</ele>
        <time>2023-08-18T11:52:18Z</time>
      </trkpt>
      <trkpt lat="49.53525" lon="3.50851">
        <ele>157.4</ele>
        <time>2023-08-18T11:52:28Z</time>
      </trkpt>
      <trkpt lat="49.53526" lon="3.50851">
        <ele>157.4</ele>
        <time>2023-08-18T11:52:33Z</time>
      </trkpt>
      <trkpt lat="49.53529" lon="3.50854">
        <ele>157.8</ele>
        <time>2023-08-18T11:52:37Z</time>
      </trkpt>
      <trkpt lat="49.5353" lon="3.50855">
        <ele>158.2</ele>
        <time>2023-08-18T11:52:38Z</time>
      </trkpt>
      <trkpt lat="49.5353" lon="3.50855">
        <ele>158.6</ele>
        <time>2023-08-18T11:52:39Z</time>
      </trkpt>
      <trkpt lat="49.5353" lon="3.50854">
        <ele>159</ele>
        <time>2023-08-18T11:52:40Z</time>
      </trkpt>
      <trkpt lat="49.53531" lon="3.50855">
        <ele>159.4</ele>
        <time>2023-08-18T11:52:41Z</time>
      </trkpt>
      <trkpt lat="49.53532" lon="3.50856">
        <ele>159.4</ele>
        <time>2023-08-18T11:52:42Z</time>
      </trkpt>
      <trkpt lat="49.53533" lon="3.50857">
        <ele>159.4</ele>
        <time>2023-08-18T11:52:43Z</time>
      </trkpt>
      <trkpt lat="49.53537" lon="3.50862">
        <ele>159.4</ele>
        <time>2023-08-18T11:52:48Z</time>
      </trkpt>
      <trkpt lat="49.53541" lon="3.50862">
        <ele>159.8</ele>
        <time>2023-08-18T11:52:52Z</time>
      </trkpt>
      <trkpt lat="49.53541" lon="3.50862">
        <ele>160.2</ele>
        <time>2023-08-18T11:52:53Z</time>
      </trkpt>
      <trkpt lat="49.53541" lon="3.50862">
        <ele>160.8</ele>
        <time>2023-08-18T11:52:54Z</time>
      </trkpt>
      <trkpt lat="49.53541" lon="3.50862">
        <ele>161.2</ele>
        <time>2023-08-18T11:52:55Z</time>
      </trkpt>
      <trkpt lat="49.53543" lon="3.50864">
        <ele>161.6</ele>
        <time>2023-08-18T11:52:56Z</time>
      </trkpt>
      <trkpt lat="49.53547" lon="3.50867">
        <ele>161.6</ele>
        <time>2023-08-18T11:52:59Z</time>
      </trkpt>
      <trkpt lat="49.53549" lon="3.50869">
        <ele>161.6</ele>
        <time>2023-08-18T11:53:04Z</time>
      </trkpt>
      <trkpt lat="49.53551" lon="3.50873">
        <ele>162</ele>
        <time>2023-08-18T11:53:06Z</time>
      </trkpt>
      <trkpt lat="49.53551" lon="3.50873">
        <ele>162.4</ele>
        <time>2023-08-18T11:53:07Z</time>
      </trkpt>
      <trkpt lat="49.53551" lon="3.50874">
        <ele>162.8</ele>
        <time>2023-08-18T11:53:08Z</time>
      </trkpt>
      <trkpt lat="49.53551" lon="3.50874">
        <ele>163.2</ele>
        <time>2023-08-18T11:53:09Z</time>
      </trkpt>
      <trkpt lat="49.53551" lon="3.50874">
        <ele>163.6</ele>
        <time>2023-08-18T11:53:10Z</time>
      </trkpt>
      <trkpt lat="49.53554" lon="3.50879">
        <ele>163.6</ele>
        <time>2023-08-18T11:53:16Z</time>
      </trkpt>
      <trkpt lat="49.53555" lon="3.5088">
        <ele>164</ele>
        <time>2023-08-18T11:53:17Z</time>
      </trkpt>
      <trkpt lat="49.53555" lon="3.5088">
        <ele>164.4</ele>
        <time>2023-08-18T11:53:18Z</time>
      </trkpt>
      <trkpt lat="49.53555" lon="3.50881">
        <ele>164.8</ele>
        <time>2023-08-18T11:53:19Z</time>
      </trkpt>
      <trkpt lat="49.53557" lon="3.50881">
        <ele>165.6</ele>
        <time>2023-08-18T11:53:20Z</time>
      </trkpt>
      <trkpt lat="49.53559" lon="3.50882">
        <ele>165.6</ele>
        <time>2023-08-18T11:53:21Z</time>
      </trkpt>
      <trkpt lat="49.53562" lon="3.50887">
        <ele>165.6</ele>
        <time>2023-08-18T11:53:25Z</time>
      </trkpt>
      <trkpt lat="49.53563" lon="3.50888">
        <ele>166</ele>
        <time>2023-08-18T11:53:26Z</time>
      </trkpt>
      <trkpt lat="49.53562" lon="3.50888">
        <ele>166.4</ele>
        <time>2023-08-18T11:53:27Z</time>
      </trkpt>
      <trkpt lat="49.53563" lon="3.5089">
        <ele>166.8</ele>
        <time>2023-08-18T11:53:28Z</time>
      </trkpt>
      <trkpt lat="49.53564" lon="3.50891">
        <ele>167.2</ele>
        <time>2023-08-18T11:53:29Z</time>
      </trkpt>
      <trkpt lat="49.53565" lon="3.50893">
        <ele>167.6</ele>
        <time>2023-08-18T11:53:30Z</time>
      </trkpt>
      <trkpt lat="49.53565" lon="3.50896">
        <ele>167.6</ele>
        <time>2023-08-18T11:53:35Z</time>
      </trkpt>
      <trkpt lat="49.53565" lon="3.50898">
        <ele>167.6</ele>
        <time>2023-08-18T11:53:43Z</time>
      </trkpt>
      <trkpt lat="49.53565" lon="3.50898">
        <ele>167.6</ele>
        <time>2023-08-18T11:53:44Z</time>
      </trkpt>
      <trkpt lat="49.53565" lon="3.50898">
        <ele>167.6</ele>
        <time>2023-08-18T11:53:53Z</time>
      </trkpt>
      <trkpt lat="49.53564" lon="3.50902">
        <ele>167.6</ele>
        <time>2023-08-18T11:54:00Z</time>
      </trkpt>
      <trkpt lat="49.53564" lon="3.50902">
        <ele>168</ele>
        <time>2023-08-18T11:54:01Z</time>
      </trkpt>
      <trkpt lat="49.53564" lon="3.50902">
        <ele>168.6</ele>
        <time>2023-08-18T11:54:02Z</time>
      </trkpt>
      <trkpt lat="49.53564" lon="3.50902">
        <ele>169</ele>
        <time>2023-08-18T11:54:03Z</time>
      </trkpt>
      <trkpt lat="49.53564" lon="3.50902">
        <ele>169.4</ele>
        <time>2023-08-18T11:54:04Z</time>
      </trkpt>
      <trkpt lat="49.53564" lon="3.50902">
        <ele>169.8</ele>
        <time>2023-08-18T11:54:05Z</time>
      </trkpt>
      <trkpt lat="49.53564" lon="3.50902">
        <ele>169.8</ele>
        <time>2023-08-18T11:54:07Z</time>
      </trkpt>
      <trkpt lat="49.53564" lon="3.50902">
        <ele>169.8</ele>
        <time>2023-08-18T11:54:16Z</time>
      </trkpt>
      <trkpt lat="49.53564" lon="3.50905">
        <ele>169.8</ele>
        <time>2023-08-18T11:54:19Z</time>
      </trkpt>
      <trkpt lat="49.53564" lon="3.50908">
        <ele>169.8</ele>
        <time>2023-08-18T11:54:21Z</time>
      </trkpt>
      <trkpt lat="49.53562" lon="3.50916">
        <ele>169.8</ele>
        <time>2023-08-18T11:54:27Z</time>
      </trkpt>
      <trkpt lat="49.53562" lon="3.50918">
        <ele>170.2</ele>
        <time>2023-08-18T11:54:29Z</time>
      </trkpt>
      <trkpt lat="49.53562" lon="3.50919">
        <ele>170.6</ele>
        <time>2023-08-18T11:54:30Z</time>
      </trkpt>
      <trkpt lat="49.53562" lon="3.5092">
        <ele>171</ele>
        <time>2023-08-18T11:54:31Z</time>
      </trkpt>
      <trkpt lat="49.53563" lon="3.50922">
        <ele>171.4</ele>
        <time>2023-08-18T11:54:32Z</time>
      </trkpt>
      <trkpt lat="49.53564" lon="3.50923">
        <ele>172</ele>
        <time>2023-08-18T11:54:33Z</time>
      </trkpt>
      <trkpt lat="49.53566" lon="3.50929">
        <ele>172</ele>
        <time>2023-08-18T11:54:38Z</time>
      </trkpt>
      <trkpt lat="49.53567" lon="3.50929">
        <ele>172.4</ele>
        <time>2023-08-18T11:54:39Z</time>
      </trkpt>
      <trkpt lat="49.53567" lon="3.5093">
        <ele>172.8</ele>
        <time>2023-08-18T11:54:40Z</time>
      </trkpt>
      <trkpt lat="49.53568" lon="3.5093">
        <ele>173.2</ele>
        <time>2023-08-18T11:54:41Z</time>
      </trkpt>
      <trkpt lat="49.53569" lon="3.50932">
        <ele>173.6</ele>
        <time>2023-08-18T11:54:42Z</time>
      </trkpt>
      <trkpt lat="49.53569" lon="3.50933">
        <ele>174</ele>
        <time>2023-08-18T11:54:43Z</time>
      </trkpt>
      <trkpt lat="49.53571" lon="3.50937">
        <ele>174</ele>
        <time>2023-08-18T11:54:47Z</time>
      </trkpt>
      <trkpt lat="49.53571" lon="3.50941">
        <ele>174.4</ele>
        <time>2023-08-18T11:54:51Z</time>
      </trkpt>
      <trkpt lat="49.53571" lon="3.50942">
        <ele>174.8</ele>
        <time>2023-08-18T11:54:52Z</time>
      </trkpt>
      <trkpt lat="49.53571" lon="3.50944">
        <ele>175.2</ele>
        <time>2023-08-18T11:54:53Z</time>
      </trkpt>
      <trkpt lat="49.53571" lon="3.50944">
        <ele>175.6</ele>
        <time>2023-08-18T11:54:54Z</time>
      </trkpt>
      <trkpt lat="49.53571" lon="3.50947">
        <ele>176.2</ele>
        <time>2023-08-18T11:54:55Z</time>
      </trkpt>
      <trkpt lat="49.53569" lon="3.5095">
        <ele>176.2</ele>
        <time>2023-08-18T11:55:01Z</time>
      </trkpt>
      <trkpt lat="49.5357" lon="3.5095">
        <ele>176.2</ele>
        <time>2023-08-18T11:55:10Z</time>
      </trkpt>
      <trkpt lat="49.5357" lon="3.50952">
        <ele>176.2</ele>
        <time>2023-08-18T11:55:17Z</time>
      </trkpt>
      <trkpt lat="49.5357" lon="3.50952">
        <ele>176.2</ele>
        <time>2023-08-18T11:55:25Z</time>
      </trkpt>
      <trkpt lat="49.53568" lon="3.50954">
        <ele>176.2</ele>
        <time>2023-08-18T11:55:34Z</time>
      </trkpt>
      <trkpt lat="49.53567" lon="3.50955">
        <ele>176.6</ele>
        <time>2023-08-18T11:55:39Z</time>
      </trkpt>
      <trkpt lat="49.53567" lon="3.50955">
        <ele>177</ele>
        <time>2023-08-18T11:55:40Z</time>
      </trkpt>
      <trkpt lat="49.53566" lon="3.50955">
        <ele>177.4</ele>
        <time>2023-08-18T11:55:41Z</time>
      </trkpt>
      <trkpt lat="49.53566" lon="3.50955">
        <ele>177.8</ele>
        <time>2023-08-18T11:55:42Z</time>
      </trkpt>
      <trkpt lat="49.53566" lon="3.50955">
        <ele>178.2</ele>
        <time>2023-08-18T11:55:43Z</time>
      </trkpt>
      <trkpt lat="49.53566" lon="3.50955">
        <ele>178.2</ele>
        <time>2023-08-18T11:55:48Z</time>
      </trkpt>
      <trkpt lat="49.53566" lon="3.50958">
        <ele>178.2</ele>
        <time>2023-08-18T11:55:55Z</time>
      </trkpt>
      <trkpt lat="49.53566" lon="3.50958">
        <ele>178.2</ele>
        <time>2023-08-18T11:56:02Z</time>
      </trkpt>
      <trkpt lat="49.53566" lon="3.50957">
        <ele>178.2</ele>
        <time>2023-08-18T11:56:05Z</time>
      </trkpt>
      <trkpt lat="49.53566" lon="3.50957">
        <ele>178.2</ele>
        <time>2023-08-18T11:56:09Z</time>
      </trkpt>
      <trkpt lat="49.53566" lon="3.50957">
        <ele>178.2</ele>
        <time>2023-08-18T11:56:17Z</time>
      </trkpt>
      <trkpt lat="49.53566" lon="3.50958">
        <ele>178.2</ele>
        <time>2023-08-18T11:56:30Z</time>
      </trkpt>
      <trkpt lat="49.53565" lon="3.50961">
        <ele>178.2</ele>
        <time>2023-08-18T11:56:36Z</time>
      </trkpt>
      <trkpt lat="49.53563" lon="3.50966">
        <ele>178.2</ele>
        <time>2023-08-18T11:56:40Z</time>
      </trkpt>
      <trkpt lat="49.53562" lon="3.5097">
        <ele>178.2</ele>
        <time>2023-08-18T11:56:43Z</time>
      </trkpt>
      <trkpt lat="49.53558" lon="3.50979">
        <ele>178.2</ele>
        <time>2023-08-18T11:56:50Z</time>
      </trkpt>
      <trkpt lat="49.53556" lon="3.5098">
        <ele>178.2</ele>
        <time>2023-08-18T11:56:57Z</time>
      </trkpt>
      <trkpt lat="49.53555" lon="3.5098">
        <ele>178.6</ele>
        <time>2023-08-18T11:57:01Z</time>
      </trkpt>
      <trkpt lat="49.53555" lon="3.5098">
        <ele>179</ele>
        <time>2023-08-18T11:57:02Z</time>
      </trkpt>
      <trkpt lat="49.53555" lon="3.5098">
        <ele>179.8</ele>
        <time>2023-08-18T11:57:03Z</time>
      </trkpt>
      <trkpt lat="49.53555" lon="3.5098">
        <ele>180.2</ele>
        <time>2023-08-18T11:57:04Z</time>
      </trkpt>
      <trkpt lat="49.53555" lon="3.5098">
        <ele>180.2</ele>
        <time>2023-08-18T11:57:06Z</time>
      </trkpt>
      <trkpt lat="49.53553" lon="3.50978">
        <ele>180.2</ele>
        <time>2023-08-18T11:57:14Z</time>
      </trkpt>
      <trkpt lat="49.53554" lon="3.50977">
        <ele>180.2</ele>
        <time>2023-08-18T11:57:22Z</time>
      </trkpt>
      <trkpt lat="49.53554" lon="3.50977">
        <ele>180.2</ele>
        <time>2023-08-18T11:57:29Z</time>
      </trkpt>
      <trkpt lat="49.53553" lon="3.50977">
        <ele>180.2</ele>
        <time>2023-08-18T11:57:38Z</time>
      </trkpt>
      <trkpt lat="49.53555" lon="3.50978">
        <ele>180.2</ele>
        <time>2023-08-18T11:57:45Z</time>
      </trkpt>
      <trkpt lat="49.53556" lon="3.5098">
        <ele>180.2</ele>
        <time>2023-08-18T11:57:49Z</time>
      </trkpt>
      <trkpt lat="49.53556" lon="3.50979">
        <ele>180.2</ele>
        <time>2023-08-18T11:57:50Z</time>
      </trkpt>
      <trkpt lat="49.53556" lon="3.50979">
        <ele>180.2</ele>
        <time>2023-08-18T11:57:55Z</time>
      </trkpt>
      <trkpt lat="49.53557" lon="3.5098">
        <ele>180.2</ele>
        <time>2023-08-18T11:57:59Z</time>
      </trkpt>
      <trkpt lat="49.53557" lon="3.5098">
        <ele>180.2</ele>
        <time>2023-08-18T11:58:00Z</time>
      </trkpt>
      <trkpt lat="49.53557" lon="3.50979">
        <ele>180.2</ele>
        <time>2023-08-18T11:58:05Z</time>
      </trkpt>
      <trkpt lat="49.53557" lon="3.50979">
        <ele>180.2</ele>
        <time>2023-08-18T11:58:12Z</time>
      </trkpt>
      <trkpt lat="49.53557" lon="3.50979">
        <ele>180.2</ele>
        <time>2023-08-18T11:58:22Z</time>
      </trkpt>
      <trkpt lat="49.53557" lon="3.5098">
        <ele>180.2</ele>
        <time>2023-08-18T11:58:34Z</time>
      </trkpt>
      <trkpt lat="49.53557" lon="3.5098">
        <ele>180.2</ele>
        <time>2023-08-18T11:58:48Z</time>
      </trkpt>
      <trkpt lat="49.53556" lon="3.5098">
        <ele>180.2</ele>
        <time>2023-08-18T11:59:02Z</time>
      </trkpt>
      <trkpt lat="49.53556" lon="3.5098">
        <ele>180.2</ele>
        <time>2023-08-18T11:59:10Z</time>
      </trkpt>
      <trkpt lat="49.53556" lon="3.50979">
        <ele>180.2</ele>
        <time>2023-08-18T11:59:16Z</time>
      </trkpt>
      <trkpt lat="49.53556" lon="3.50979">
        <ele>180.2</ele>
        <time>2023-08-18T11:59:25Z</time>
      </trkpt>
      <trkpt lat="49.53556" lon="3.50979">
        <ele>180.2</ele>
        <time>2023-08-18T11:59:36Z</time>
      </trkpt>
      <trkpt lat="49.53556" lon="3.50979">
        <ele>180.2</ele>
        <time>2023-08-18T11:59:50Z</time>
      </trkpt>
      <trkpt lat="49.53556" lon="3.50979">
        <ele>180.2</ele>
        <time>2023-08-18T12:00:02Z</time>
      </trkpt>
      <trkpt lat="49.53555" lon="3.50978">
        <ele>180.2</ele>
        <time>2023-08-18T12:00:09Z</time>
      </trkpt>
      <trkpt lat="49.53552" lon="3.50976">
        <ele>180.2</ele>
        <time>2023-08-18T12:00:14Z</time>
      </trkpt>
      <trkpt lat="49.53552" lon="3.50976">
        <ele>180.2</ele>
        <time>2023-08-18T12:00:26Z</time>
      </trkpt>
      <trkpt lat="49.53552" lon="3.50976">
        <ele>180.2</ele>
        <time>2023-08-18T12:00:40Z</time>
      </trkpt>
      <trkpt lat="49.53552" lon="3.50976">
        <ele>180.2</ele>
        <time>2023-08-18T12:00:52Z</time>
      </trkpt>
      <trkpt lat="49.53552" lon="3.50976">
        <ele>180.2</ele>
        <time>2023-08-18T12:01:06Z</time>
      </trkpt>
      <trkpt lat="49.53552" lon="3.50976">
        <ele>180.2</ele>
        <time>2023-08-18T12:01:20Z</time>
      </trkpt>
      <trkpt lat="49.53552" lon="3.50976">
        <ele>180.2</ele>
        <time>2023-08-18T12:01:34Z</time>
      </trkpt>
      <trkpt lat="49.53553" lon="3.50976">
        <ele>180.2</ele>
        <time>2023-08-18T12:01:41Z</time>
      </trkpt>
      <trkpt lat="49.53554" lon="3.50976">
        <ele>180.2</ele>
        <time>2023-08-18T12:01:49Z</time>
      </trkpt>
      <trkpt lat="49.53554" lon="3.50976">
        <ele>180.2</ele>
        <time>2023-08-18T12:01:58Z</time>
      </trkpt>
      <trkpt lat="49.53555" lon="3.50977">
        <ele>180.2</ele>
        <time>2023-08-18T12:02:08Z</time>
      </trkpt>
      <trkpt lat="49.53551" lon="3.50978">
        <ele>180.2</ele>
        <time>2023-08-18T12:02:12Z</time>
      </trkpt>
      <trkpt lat="49.53546" lon="3.5098">
        <ele>180.2</ele>
        <time>2023-08-18T12:02:19Z</time>
      </trkpt>
      <trkpt lat="49.53542" lon="3.50982">
        <ele>180.2</ele>
        <time>2023-08-18T12:02:21Z</time>
      </trkpt>
      <trkpt lat="49.53535" lon="3.50981">
        <ele>180.2</ele>
        <time>2023-08-18T12:02:25Z</time>
      </trkpt>
      <trkpt lat="49.53534" lon="3.50981">
        <ele>180.2</ele>
        <time>2023-08-18T12:02:26Z</time>
      </trkpt>
      <trkpt lat="49.53526" lon="3.50979">
        <ele>180.2</ele>
        <time>2023-08-18T12:02:32Z</time>
      </trkpt>
      <trkpt lat="49.53525" lon="3.50978">
        <ele>180.2</ele>
        <time>2023-08-18T12:02:33Z</time>
      </trkpt>
      <trkpt lat="49.53525" lon="3.50978">
        <ele>180.2</ele>
        <time>2023-08-18T12:02:36Z</time>
      </trkpt>
      <trkpt lat="49.53522" lon="3.50979">
        <ele>180.2</ele>
        <time>2023-08-18T12:02:39Z</time>
      </trkpt>
      <trkpt lat="49.53519" lon="3.50977">
        <ele>180.2</ele>
        <time>2023-08-18T12:02:41Z</time>
      </trkpt>
      <trkpt lat="49.53511" lon="3.50973">
        <ele>180.2</ele>
        <time>2023-08-18T12:02:48Z</time>
      </trkpt>
      <trkpt lat="49.53507" lon="3.50972">
        <ele>180.2</ele>
        <time>2023-08-18T12:02:54Z</time>
      </trkpt>
      <trkpt lat="49.535" lon="3.50968">
        <ele>180.2</ele>
        <time>2023-08-18T12:03:01Z</time>
      </trkpt>
      <trkpt lat="49.53498" lon="3.50965">
        <ele>180.2</ele>
        <time>2023-08-18T12:03:03Z</time>
      </trkpt>
      <trkpt lat="49.53494" lon="3.50964">
        <ele>180.2</ele>
        <time>2023-08-18T12:03:06Z</time>
      </trkpt>
      <trkpt lat="49.53491" lon="3.50962">
        <ele>180.2</ele>
        <time>2023-08-18T12:03:08Z</time>
      </trkpt>
      <trkpt lat="49.53485" lon="3.50962">
        <ele>180.2</ele>
        <time>2023-08-18T12:03:12Z</time>
      </trkpt>
      <trkpt lat="49.53484" lon="3.50962">
        <ele>181</ele>
        <time>2023-08-18T12:03:13Z</time>
      </trkpt>
      <trkpt lat="49.53484" lon="3.50962">
        <ele>181.4</ele>
        <time>2023-08-18T12:03:14Z</time>
      </trkpt>
      <trkpt lat="49.53484" lon="3.50962">
        <ele>181.8</ele>
        <time>2023-08-18T12:03:15Z</time>
      </trkpt>
      <trkpt lat="49.53483" lon="3.50962">
        <ele>182.4</ele>
        <time>2023-08-18T12:03:16Z</time>
      </trkpt>
      <trkpt lat="49.53484" lon="3.50962">
        <ele>182.4</ele>
        <time>2023-08-18T12:03:17Z</time>
      </trkpt>
      <trkpt lat="49.53478" lon="3.50959">
        <ele>182.4</ele>
        <time>2023-08-18T12:03:22Z</time>
      </trkpt>
      <trkpt lat="49.53474" lon="3.50958">
        <ele>182.4</ele>
        <time>2023-08-18T12:03:27Z</time>
      </trkpt>
      <trkpt lat="49.53469" lon="3.50956">
        <ele>182.4</ele>
        <time>2023-08-18T12:03:32Z</time>
      </trkpt>
      <trkpt lat="49.53467" lon="3.50956">
        <ele>182.4</ele>
        <time>2023-08-18T12:03:33Z</time>
      </trkpt>
      <trkpt lat="49.53459" lon="3.50957">
        <ele>182.4</ele>
        <time>2023-08-18T12:03:40Z</time>
      </trkpt>
      <trkpt lat="49.53452" lon="3.50955">
        <ele>182.4</ele>
        <time>2023-08-18T12:03:46Z</time>
      </trkpt>
      <trkpt lat="49.53447" lon="3.50954">
        <ele>182.4</ele>
        <time>2023-08-18T12:03:51Z</time>
      </trkpt>
      <trkpt lat="49.53446" lon="3.50955">
        <ele>182.4</ele>
        <time>2023-08-18T12:03:52Z</time>
      </trkpt>
      <trkpt lat="49.53444" lon="3.50955">
        <ele>182.4</ele>
        <time>2023-08-18T12:03:58Z</time>
      </trkpt>
      <trkpt lat="49.53434" lon="3.50947">
        <ele>182.4</ele>
        <time>2023-08-18T12:04:05Z</time>
      </trkpt>
      <trkpt lat="49.53428" lon="3.50942">
        <ele>182.4</ele>
        <time>2023-08-18T12:04:09Z</time>
      </trkpt>
      <trkpt lat="49.53427" lon="3.50942">
        <ele>182.4</ele>
        <time>2023-08-18T12:04:10Z</time>
      </trkpt>
      <trkpt lat="49.53424" lon="3.50941">
        <ele>182.4</ele>
        <time>2023-08-18T12:04:13Z</time>
      </trkpt>
      <trkpt lat="49.53423" lon="3.50941">
        <ele>182.4</ele>
        <time>2023-08-18T12:04:16Z</time>
      </trkpt>
      <trkpt lat="49.53419" lon="3.50936">
        <ele>182.4</ele>
        <time>2023-08-18T12:04:21Z</time>
      </trkpt>
      <trkpt lat="49.53418" lon="3.50934">
        <ele>182.4</ele>
        <time>2023-08-18T12:04:22Z</time>
      </trkpt>
      <trkpt lat="49.53413" lon="3.50924">
        <ele>182.4</ele>
        <time>2023-08-18T12:04:28Z</time>
      </trkpt>
      <trkpt lat="49.53407" lon="3.50916">
        <ele>182.4</ele>
        <time>2023-08-18T12:04:36Z</time>
      </trkpt>
      <trkpt lat="49.53402" lon="3.50907">
        <ele>182.4</ele>
        <time>2023-08-18T12:04:43Z</time>
      </trkpt>
      <trkpt lat="49.53396" lon="3.50899">
        <ele>182.4</ele>
        <time>2023-08-18T12:04:51Z</time>
      </trkpt>
      <trkpt lat="49.53391" lon="3.50893">
        <ele>182.4</ele>
        <time>2023-08-18T12:04:58Z</time>
      </trkpt>
      <trkpt lat="49.53382" lon="3.50882">
        <ele>182.4</ele>
        <time>2023-08-18T12:05:04Z</time>
      </trkpt>
      <trkpt lat="49.53374" lon="3.50875">
        <ele>182.4</ele>
        <time>2023-08-18T12:05:12Z</time>
      </trkpt>
      <trkpt lat="49.5337" lon="3.50866">
        <ele>182.4</ele>
        <time>2023-08-18T12:05:18Z</time>
      </trkpt>
      <trkpt lat="49.5336" lon="3.50858">
        <ele>182.4</ele>
        <time>2023-08-18T12:05:23Z</time>
      </trkpt>
      <trkpt lat="49.53353" lon="3.50855">
        <ele>182.4</ele>
        <time>2023-08-18T12:05:29Z</time>
      </trkpt>
      <trkpt lat="49.53352" lon="3.50854">
        <ele>182.4</ele>
        <time>2023-08-18T12:05:35Z</time>
      </trkpt>
      <trkpt lat="49.53346" lon="3.50854">
        <ele>182.4</ele>
        <time>2023-08-18T12:05:39Z</time>
      </trkpt>
      <trkpt lat="49.53343" lon="3.50855">
        <ele>182.4</ele>
        <time>2023-08-18T12:05:41Z</time>
      </trkpt>
      <trkpt lat="49.53337" lon="3.50858">
        <ele>182.4</ele>
        <time>2023-08-18T12:05:47Z</time>
      </trkpt>
      <trkpt lat="49.53331" lon="3.5086">
        <ele>182.4</ele>
        <time>2023-08-18T12:05:54Z</time>
      </trkpt>
      <trkpt lat="49.53327" lon="3.50863">
        <ele>182.8</ele>
        <time>2023-08-18T12:05:57Z</time>
      </trkpt>
      <trkpt lat="49.53326" lon="3.50863">
        <ele>183.2</ele>
        <time>2023-08-18T12:05:58Z</time>
      </trkpt>
      <trkpt lat="49.53325" lon="3.50864">
        <ele>183.6</ele>
        <time>2023-08-18T12:05:59Z</time>
      </trkpt>
      <trkpt lat="49.53324" lon="3.50865">
        <ele>184</ele>
        <time>2023-08-18T12:06:00Z</time>
      </trkpt>
      <trkpt lat="49.53323" lon="3.50866">
        <ele>184.4</ele>
        <time>2023-08-18T12:06:01Z</time>
      </trkpt>
      <trkpt lat="49.53322" lon="3.50867">
        <ele>184.4</ele>
        <time>2023-08-18T12:06:02Z</time>
      </trkpt>
      <trkpt lat="49.53311" lon="3.50873">
        <ele>184.4</ele>
        <time>2023-08-18T12:06:10Z</time>
      </trkpt>
      <trkpt lat="49.53301" lon="3.50876">
        <ele>184.4</ele>
        <time>2023-08-18T12:06:16Z</time>
      </trkpt>
      <trkpt lat="49.53297" lon="3.50878">
        <ele>184.4</ele>
        <time>2023-08-18T12:06:22Z</time>
      </trkpt>
      <trkpt lat="49.53291" lon="3.50883">
        <ele>184.4</ele>
        <time>2023-08-18T12:06:29Z</time>
      </trkpt>
      <trkpt lat="49.53283" lon="3.50889">
        <ele>184.4</ele>
        <time>2023-08-18T12:06:37Z</time>
      </trkpt>
      <trkpt lat="49.53282" lon="3.5089">
        <ele>184.4</ele>
        <time>2023-08-18T12:06:38Z</time>
      </trkpt>
      <trkpt lat="49.53279" lon="3.50891">
        <ele>184.4</ele>
        <time>2023-08-18T12:06:42Z</time>
      </trkpt>
      <trkpt lat="49.53279" lon="3.50891">
        <ele>184.4</ele>
        <time>2023-08-18T12:06:48Z</time>
      </trkpt>
      <trkpt lat="49.53279" lon="3.50891">
        <ele>184.4</ele>
        <time>2023-08-18T12:06:56Z</time>
      </trkpt>
      <trkpt lat="49.53279" lon="3.5089">
        <ele>184.4</ele>
        <time>2023-08-18T12:07:03Z</time>
      </trkpt>
      <trkpt lat="49.53279" lon="3.5089">
        <ele>184.8</ele>
        <time>2023-08-18T12:07:05Z</time>
      </trkpt>
      <trkpt lat="49.53279" lon="3.5089">
        <ele>185.2</ele>
        <time>2023-08-18T12:07:06Z</time>
      </trkpt>
      <trkpt lat="49.53279" lon="3.5089">
        <ele>185.6</ele>
        <time>2023-08-18T12:07:07Z</time>
      </trkpt>
      <trkpt lat="49.53279" lon="3.5089">
        <ele>186</ele>
        <time>2023-08-18T12:07:08Z</time>
      </trkpt>
      <trkpt lat="49.53279" lon="3.5089">
        <ele>186.4</ele>
        <time>2023-08-18T12:07:09Z</time>
      </trkpt>
      <trkpt lat="49.53279" lon="3.5089">
        <ele>186.4</ele>
        <time>2023-08-18T12:07:15Z</time>
      </trkpt>
      <trkpt lat="49.53279" lon="3.5089">
        <ele>186.4</ele>
        <time>2023-08-18T12:07:31Z</time>
      </trkpt>
      <trkpt lat="49.53279" lon="3.5089">
        <ele>186.4</ele>
        <time>2023-08-18T12:07:39Z</time>
      </trkpt>
      <trkpt lat="49.53278" lon="3.50887">
        <ele>186.4</ele>
        <time>2023-08-18T12:07:44Z</time>
      </trkpt>
      <trkpt lat="49.53278" lon="3.50885">
        <ele>186.4</ele>
        <time>2023-08-18T12:07:47Z</time>
      </trkpt>
      <trkpt lat="49.53279" lon="3.50886">
        <ele>186.4</ele>
        <time>2023-08-18T12:07:49Z</time>
      </trkpt>
      <trkpt lat="49.53279" lon="3.50886">
        <ele>186.4</ele>
        <time>2023-08-18T12:07:55Z</time>
      </trkpt>
      <trkpt lat="49.53279" lon="3.50886">
        <ele>186.4</ele>
        <time>2023-08-18T12:08:03Z</time>
      </trkpt>
      <trkpt lat="49.5328" lon="3.50886">
        <ele>186.4</ele>
        <time>2023-08-18T12:08:11Z</time>
      </trkpt>
      <trkpt lat="49.5328" lon="3.50886">
        <ele>186.4</ele>
        <time>2023-08-18T12:08:22Z</time>
      </trkpt>
      <trkpt lat="49.5328" lon="3.50887">
        <ele>186.4</ele>
        <time>2023-08-18T12:08:32Z</time>
      </trkpt>
      <trkpt lat="49.5328" lon="3.50887">
        <ele>186.4</ele>
        <time>2023-08-18T12:08:42Z</time>
      </trkpt>
      <trkpt lat="49.5328" lon="3.50887">
        <ele>186.4</ele>
        <time>2023-08-18T12:08:53Z</time>
      </trkpt>
      <trkpt lat="49.5328" lon="3.50887">
        <ele>186.4</ele>
        <time>2023-08-18T12:09:01Z</time>
      </trkpt>
      <trkpt lat="49.53278" lon="3.50888">
        <ele>186.4</ele>
        <time>2023-08-18T12:09:07Z</time>
      </trkpt>
      <trkpt lat="49.53278" lon="3.50888">
        <ele>186.4</ele>
        <time>2023-08-18T12:09:11Z</time>
      </trkpt>
      <trkpt lat="49.53278" lon="3.50888">
        <ele>186.4</ele>
        <time>2023-08-18T12:09:19Z</time>
      </trkpt>
      <trkpt lat="49.53278" lon="3.50888">
        <ele>186.4</ele>
        <time>2023-08-18T12:09:34Z</time>
      </trkpt>
      <trkpt lat="49.53278" lon="3.50888">
        <ele>186.4</ele>
        <time>2023-08-18T12:09:45Z</time>
      </trkpt>
      <trkpt lat="49.53278" lon="3.50886">
        <ele>186.4</ele>
        <time>2023-08-18T12:09:53Z</time>
      </trkpt>
      <trkpt lat="49.53278" lon="3.50886">
        <ele>186</ele>
        <time>2023-08-18T12:09:56Z</time>
      </trkpt>
      <trkpt lat="49.53278" lon="3.50886">
        <ele>185.6</ele>
        <time>2023-08-18T12:09:57Z</time>
      </trkpt>
      <trkpt lat="49.53278" lon="3.50886">
        <ele>185.2</ele>
        <time>2023-08-18T12:09:58Z</time>
      </trkpt>
      <trkpt lat="49.53278" lon="3.50886">
        <ele>184.8</ele>
        <time>2023-08-18T12:09:59Z</time>
      </trkpt>
      <trkpt lat="49.53278" lon="3.50886">
        <ele>184.4</ele>
        <time>2023-08-18T12:10:00Z</time>
      </trkpt>
      <trkpt lat="49.53278" lon="3.50886">
        <ele>184.4</ele>
        <time>2023-08-18T12:10:01Z</time>
      </trkpt>
      <trkpt lat="49.53278" lon="3.50886">
        <ele>184.4</ele>
        <time>2023-08-18T12:10:09Z</time>
      </trkpt>
      <trkpt lat="49.53277" lon="3.50889">
        <ele>184.4</ele>
        <time>2023-08-18T12:10:15Z</time>
      </trkpt>
      <trkpt lat="49.53276" lon="3.50891">
        <ele>184.4</ele>
        <time>2023-08-18T12:10:17Z</time>
      </trkpt>
      <trkpt lat="49.53274" lon="3.50894">
        <ele>184.4</ele>
        <time>2023-08-18T12:10:21Z</time>
      </trkpt>
      <trkpt lat="49.53272" lon="3.50894">
        <ele>184.4</ele>
        <time>2023-08-18T12:10:22Z</time>
      </trkpt>
      <trkpt lat="49.53269" lon="3.50896">
        <ele>184.4</ele>
        <time>2023-08-18T12:10:25Z</time>
      </trkpt>
      <trkpt lat="49.53267" lon="3.50898">
        <ele>184.4</ele>
        <time>2023-08-18T12:10:26Z</time>
      </trkpt>
      <trkpt lat="49.53263" lon="3.50901">
        <ele>184.4</ele>
        <time>2023-08-18T12:10:30Z</time>
      </trkpt>
      <trkpt lat="49.53259" lon="3.50904">
        <ele>184.4</ele>
        <time>2023-08-18T12:10:35Z</time>
      </trkpt>
      <trkpt lat="49.53252" lon="3.50909">
        <ele>184.4</ele>
        <time>2023-08-18T12:10:40Z</time>
      </trkpt>
      <trkpt lat="49.53247" lon="3.50914">
        <ele>184.4</ele>
        <time>2023-08-18T12:10:46Z</time>
      </trkpt>
      <trkpt lat="49.53242" lon="3.50917">
        <ele>184.4</ele>
        <time>2023-08-18T12:10:52Z</time>
      </trkpt>
      <trkpt lat="49.53234" lon="3.50921">
        <ele>184.4</ele>
        <time>2023-08-18T12:10:57Z</time>
      </trkpt>
      <trkpt lat="49.5323" lon="3.50924">
        <ele>184.4</ele>
        <time>2023-08-18T12:11:02Z</time>
      </trkpt>
      <trkpt lat="49.53224" lon="3.50927">
        <ele>184.4</ele>
        <time>2023-08-18T12:11:08Z</time>
      </trkpt>
      <trkpt lat="49.53215" lon="3.50932">
        <ele>184.4</ele>
        <time>2023-08-18T12:11:14Z</time>
      </trkpt>
      <trkpt lat="49.53211" lon="3.50936">
        <ele>184.4</ele>
        <time>2023-08-18T12:11:19Z</time>
      </trkpt>
      <trkpt lat="49.5321" lon="3.50937">
        <ele>184.8</ele>
        <time>2023-08-18T12:11:20Z</time>
      </trkpt>
      <trkpt lat="49.5321" lon="3.50937">
        <ele>185.2</ele>
        <time>2023-08-18T12:11:21Z</time>
      </trkpt>
      <trkpt lat="49.53209" lon="3.50938">
        <ele>185.6</ele>
        <time>2023-08-18T12:11:22Z</time>
      </trkpt>
      <trkpt lat="49.53209" lon="3.50938">
        <ele>186</ele>
        <time>2023-08-18T12:11:23Z</time>
      </trkpt>
      <trkpt lat="49.53208" lon="3.50939">
        <ele>186.4</ele>
        <time>2023-08-18T12:11:24Z</time>
      </trkpt>
      <trkpt lat="49.53204" lon="3.50941">
        <ele>186.4</ele>
        <time>2023-08-18T12:11:26Z</time>
      </trkpt>
      <trkpt lat="49.53195" lon="3.50945">
        <ele>186.4</ele>
        <time>2023-08-18T12:11:31Z</time>
      </trkpt>
      <trkpt lat="49.53186" lon="3.50953">
        <ele>186.4</ele>
        <time>2023-08-18T12:11:39Z</time>
      </trkpt>
      <trkpt lat="49.53184" lon="3.50955">
        <ele>186.4</ele>
        <time>2023-08-18T12:11:44Z</time>
      </trkpt>
      <trkpt lat="49.53183" lon="3.50956">
        <ele>186.4</ele>
        <time>2023-08-18T12:11:46Z</time>
      </trkpt>
      <trkpt lat="49.53177" lon="3.50959">
        <ele>186.4</ele>
        <time>2023-08-18T12:11:50Z</time>
      </trkpt>
      <trkpt lat="49.53176" lon="3.5096">
        <ele>186.4</ele>
        <time>2023-08-18T12:11:51Z</time>
      </trkpt>
      <trkpt lat="49.53169" lon="3.50964">
        <ele>186.4</ele>
        <time>2023-08-18T12:11:55Z</time>
      </trkpt>
      <trkpt lat="49.53163" lon="3.50971">
        <ele>186.4</ele>
        <time>2023-08-18T12:12:01Z</time>
      </trkpt>
      <trkpt lat="49.53161" lon="3.50975">
        <ele>186.4</ele>
        <time>2023-08-18T12:12:06Z</time>
      </trkpt>
      <trkpt lat="49.5316" lon="3.50976">
        <ele>186.8</ele>
        <time>2023-08-18T12:12:07Z</time>
      </trkpt>
      <trkpt lat="49.53158" lon="3.50977">
        <ele>187.2</ele>
        <time>2023-08-18T12:12:08Z</time>
      </trkpt>
      <trkpt lat="49.53156" lon="3.50978">
        <ele>187.6</ele>
        <time>2023-08-18T12:12:09Z</time>
      </trkpt>
      <trkpt lat="49.53154" lon="3.50978">
        <ele>188</ele>
        <time>2023-08-18T12:12:10Z</time>
      </trkpt>
      <trkpt lat="49.53152" lon="3.50979">
        <ele>188.4</ele>
        <time>2023-08-18T12:12:11Z</time>
      </trkpt>
      <trkpt lat="49.53145" lon="3.50985">
        <ele>188.4</ele>
        <time>2023-08-18T12:12:17Z</time>
      </trkpt>
      <trkpt lat="49.53142" lon="3.50987">
        <ele>188.4</ele>
        <time>2023-08-18T12:12:22Z</time>
      </trkpt>
      <trkpt lat="49.53134" lon="3.50987">
        <ele>188.4</ele>
        <time>2023-08-18T12:12:28Z</time>
      </trkpt>
      <trkpt lat="49.53126" lon="3.50991">
        <ele>188.4</ele>
        <time>2023-08-18T12:12:34Z</time>
      </trkpt>
      <trkpt lat="49.53122" lon="3.50994">
        <ele>188.4</ele>
        <time>2023-08-18T12:12:39Z</time>
      </trkpt>
      <trkpt lat="49.53116" lon="3.50996">
        <ele>188.4</ele>
        <time>2023-08-18T12:12:45Z</time>
      </trkpt>
      <trkpt lat="49.53109" lon="3.50998">
        <ele>188.4</ele>
        <time>2023-08-18T12:12:50Z</time>
      </trkpt>
      <trkpt lat="49.53105" lon="3.51002">
        <ele>188.4</ele>
        <time>2023-08-18T12:12:55Z</time>
      </trkpt>
      <trkpt lat="49.53101" lon="3.51004">
        <ele>188.4</ele>
        <time>2023-08-18T12:12:59Z</time>
      </trkpt>
      <trkpt lat="49.531" lon="3.51005">
        <ele>188.4</ele>
        <time>2023-08-18T12:13:00Z</time>
      </trkpt>
      <trkpt lat="49.53091" lon="3.5101">
        <ele>188.4</ele>
        <time>2023-08-18T12:13:06Z</time>
      </trkpt>
      <trkpt lat="49.53089" lon="3.51013">
        <ele>188.8</ele>
        <time>2023-08-18T12:13:10Z</time>
      </trkpt>
      <trkpt lat="49.53089" lon="3.51014">
        <ele>189.6</ele>
        <time>2023-08-18T12:13:11Z</time>
      </trkpt>
      <trkpt lat="49.53088" lon="3.51015">
        <ele>190</ele>
        <time>2023-08-18T12:13:12Z</time>
      </trkpt>
      <trkpt lat="49.53087" lon="3.51015">
        <ele>190.4</ele>
        <time>2023-08-18T12:13:13Z</time>
      </trkpt>
      <trkpt lat="49.53082" lon="3.5102">
        <ele>190.4</ele>
        <time>2023-08-18T12:13:18Z</time>
      </trkpt>
      <trkpt lat="49.53079" lon="3.51024">
        <ele>190.4</ele>
        <time>2023-08-18T12:13:25Z</time>
      </trkpt>
      <trkpt lat="49.53078" lon="3.51024">
        <ele>190.4</ele>
        <time>2023-08-18T12:13:31Z</time>
      </trkpt>
      <trkpt lat="49.53078" lon="3.51025">
        <ele>190.4</ele>
        <time>2023-08-18T12:13:37Z</time>
      </trkpt>
      <trkpt lat="49.53075" lon="3.51025">
        <ele>190.4</ele>
        <time>2023-08-18T12:13:43Z</time>
      </trkpt>
      <trkpt lat="49.53075" lon="3.51024">
        <ele>190.4</ele>
        <time>2023-08-18T12:13:44Z</time>
      </trkpt>
      <trkpt lat="49.53073" lon="3.51025">
        <ele>190.4</ele>
        <time>2023-08-18T12:13:48Z</time>
      </trkpt>
      <trkpt lat="49.53072" lon="3.51024">
        <ele>190.4</ele>
        <time>2023-08-18T12:13:53Z</time>
      </trkpt>
      <trkpt lat="49.53071" lon="3.51023">
        <ele>190.4</ele>
        <time>2023-08-18T12:13:58Z</time>
      </trkpt>
      <trkpt lat="49.53069" lon="3.51024">
        <ele>190.4</ele>
        <time>2023-08-18T12:14:04Z</time>
      </trkpt>
      <trkpt lat="49.53066" lon="3.51025">
        <ele>190.4</ele>
        <time>2023-08-18T12:14:08Z</time>
      </trkpt>
      <trkpt lat="49.53064" lon="3.51026">
        <ele>190.4</ele>
        <time>2023-08-18T12:14:09Z</time>
      </trkpt>
      <trkpt lat="49.5306" lon="3.51027">
        <ele>190.4</ele>
        <time>2023-08-18T12:14:14Z</time>
      </trkpt>
      <trkpt lat="49.53056" lon="3.51032">
        <ele>190.4</ele>
        <time>2023-08-18T12:14:21Z</time>
      </trkpt>
      <trkpt lat="49.53052" lon="3.51038">
        <ele>190.4</ele>
        <time>2023-08-18T12:14:26Z</time>
      </trkpt>
      <trkpt lat="49.53051" lon="3.51043">
        <ele>190.4</ele>
        <time>2023-08-18T12:14:30Z</time>
      </trkpt>
      <trkpt lat="49.5305" lon="3.51043">
        <ele>190.4</ele>
        <time>2023-08-18T12:14:31Z</time>
      </trkpt>
      <trkpt lat="49.53045" lon="3.51046">
        <ele>190.4</ele>
        <time>2023-08-18T12:14:36Z</time>
      </trkpt>
      <trkpt lat="49.53045" lon="3.51046">
        <ele>190.4</ele>
        <time>2023-08-18T12:14:37Z</time>
      </trkpt>
      <trkpt lat="49.53044" lon="3.51051">
        <ele>190.4</ele>
        <time>2023-08-18T12:14:41Z</time>
      </trkpt>
      <trkpt lat="49.53044" lon="3.51052">
        <ele>190.4</ele>
        <time>2023-08-18T12:14:42Z</time>
      </trkpt>
      <trkpt lat="49.53044" lon="3.51052">
        <ele>190.4</ele>
        <time>2023-08-18T12:14:48Z</time>
      </trkpt>
      <trkpt lat="49.53044" lon="3.51051">
        <ele>190.4</ele>
        <time>2023-08-18T12:14:56Z</time>
      </trkpt>
      <trkpt lat="49.53043" lon="3.51051">
        <ele>190.4</ele>
        <time>2023-08-18T12:15:04Z</time>
      </trkpt>
      <trkpt lat="49.53043" lon="3.51052">
        <ele>190.4</ele>
        <time>2023-08-18T12:15:10Z</time>
      </trkpt>
      <trkpt lat="49.53043" lon="3.51052">
        <ele>190.4</ele>
        <time>2023-08-18T12:15:17Z</time>
      </trkpt>
      <trkpt lat="49.53043" lon="3.51052">
        <ele>190.4</ele>
        <time>2023-08-18T12:15:30Z</time>
      </trkpt>
      <trkpt lat="49.53043" lon="3.51052">
        <ele>190.4</ele>
        <time>2023-08-18T12:15:41Z</time>
      </trkpt>
      <trkpt lat="49.53042" lon="3.51052">
        <ele>190.4</ele>
        <time>2023-08-18T12:15:49Z</time>
      </trkpt>
      <trkpt lat="49.53043" lon="3.51053">
        <ele>190.4</ele>
        <time>2023-08-18T12:15:55Z</time>
      </trkpt>
      <trkpt lat="49.53043" lon="3.51055">
        <ele>190.4</ele>
        <time>2023-08-18T12:16:02Z</time>
      </trkpt>
      <trkpt lat="49.53043" lon="3.51055">
        <ele>190.4</ele>
        <time>2023-08-18T12:16:12Z</time>
      </trkpt>
      <trkpt lat="49.53043" lon="3.51055">
        <ele>190.4</ele>
        <time>2023-08-18T12:16:22Z</time>
      </trkpt>
      <trkpt lat="49.53043" lon="3.51055">
        <ele>190.4</ele>
        <time>2023-08-18T12:16:36Z</time>
      </trkpt>
      <trkpt lat="49.53043" lon="3.51055">
        <ele>190.4</ele>
        <time>2023-08-18T12:16:46Z</time>
      </trkpt>
      <trkpt lat="49.53043" lon="3.51055">
        <ele>190.4</ele>
        <time>2023-08-18T12:17:02Z</time>
      </trkpt>
      <trkpt lat="49.53043" lon="3.51055">
        <ele>190.4</ele>
        <time>2023-08-18T12:17:12Z</time>
      </trkpt>
      <trkpt lat="49.53043" lon="3.51055">
        <ele>190.4</ele>
        <time>2023-08-18T12:17:24Z</time>
      </trkpt>
      <trkpt lat="49.53043" lon="3.51055">
        <ele>190.4</ele>
        <time>2023-08-18T12:17:37Z</time>
      </trkpt>
      <trkpt lat="49.53043" lon="3.51055">
        <ele>190.4</ele>
        <time>2023-08-18T12:17:52Z</time>
      </trkpt>
      <trkpt lat="49.53044" lon="3.51055">
        <ele>190.4</ele>
        <time>2023-08-18T12:18:05Z</time>
      </trkpt>
      <trkpt lat="49.53044" lon="3.51055">
        <ele>190.4</ele>
        <time>2023-08-18T12:18:14Z</time>
      </trkpt>
      <trkpt lat="49.53044" lon="3.51055">
        <ele>190.4</ele>
        <time>2023-08-18T12:18:28Z</time>
      </trkpt>
      <trkpt lat="49.53045" lon="3.51054">
        <ele>190.4</ele>
        <time>2023-08-18T12:18:32Z</time>
      </trkpt>
      <trkpt lat="49.53045" lon="3.51054">
        <ele>190.4</ele>
        <time>2023-08-18T12:18:33Z</time>
      </trkpt>
      <trkpt lat="49.53046" lon="3.51054">
        <ele>190.4</ele>
        <time>2023-08-18T12:18:39Z</time>
      </trkpt>
      <trkpt lat="49.53046" lon="3.51054">
        <ele>190.4</ele>
        <time>2023-08-18T12:18:49Z</time>
      </trkpt>
      <trkpt lat="49.53046" lon="3.51054">
        <ele>190.4</ele>
        <time>2023-08-18T12:19:06Z</time>
      </trkpt>
      <trkpt lat="49.53046" lon="3.51054">
        <ele>190.4</ele>
        <time>2023-08-18T12:19:24Z</time>
      </trkpt>
      <trkpt lat="49.53046" lon="3.51054">
        <ele>190.4</ele>
        <time>2023-08-18T12:19:40Z</time>
      </trkpt>
      <trkpt lat="49.53046" lon="3.51054">
        <ele>190.4</ele>
        <time>2023-08-18T12:19:54Z</time>
      </trkpt>
      <trkpt lat="49.53046" lon="3.51055">
        <ele>190.4</ele>
        <time>2023-08-18T12:20:02Z</time>
      </trkpt>
      <trkpt lat="49.53046" lon="3.51055">
        <ele>190.4</ele>
        <time>2023-08-18T12:20:11Z</time>
      </trkpt>
      <trkpt lat="49.53046" lon="3.51055">
        <ele>190.4</ele>
        <time>2023-08-18T12:20:19Z</time>
      </trkpt>
      <trkpt lat="49.53046" lon="3.51055">
        <ele>190.4</ele>
        <time>2023-08-18T12:20:28Z</time>
      </trkpt>
      <trkpt lat="49.53046" lon="3.51055">
        <ele>190.4</ele>
        <time>2023-08-18T12:20:40Z</time>
      </trkpt>
      <trkpt lat="49.53046" lon="3.51055">
        <ele>190.4</ele>
        <time>2023-08-18T12:20:54Z</time>
      </trkpt>
      <trkpt lat="49.53046" lon="3.51055">
        <ele>190.4</ele>
        <time>2023-08-18T12:21:04Z</time>
      </trkpt>
      <trkpt lat="49.53046" lon="3.51055">
        <ele>190.4</ele>
        <time>2023-08-18T12:21:18Z</time>
      </trkpt>
      <trkpt lat="49.53046" lon="3.51055">
        <ele>190.4</ele>
        <time>2023-08-18T12:21:30Z</time>
      </trkpt>
      <trkpt lat="49.53046" lon="3.51055">
        <ele>190.4</ele>
        <time>2023-08-18T12:21:46Z</time>
      </trkpt>
      <trkpt lat="49.53046" lon="3.51055">
        <ele>190.4</ele>
        <time>2023-08-18T12:21:56Z</time>
      </trkpt>
      <trkpt lat="49.53047" lon="3.51054">
        <ele>190.4</ele>
        <time>2023-08-18T12:22:03Z</time>
      </trkpt>
      <trkpt lat="49.53048" lon="3.51053">
        <ele>190.4</ele>
        <time>2023-08-18T12:22:08Z</time>
      </trkpt>
      <trkpt lat="49.53048" lon="3.51053">
        <ele>190.4</ele>
        <time>2023-08-18T12:22:15Z</time>
      </trkpt>
      <trkpt lat="49.53048" lon="3.51053">
        <ele>190.4</ele>
        <time>2023-08-18T12:22:24Z</time>
      </trkpt>
      <trkpt lat="49.53048" lon="3.51053">
        <ele>190.4</ele>
        <time>2023-08-18T12:22:35Z</time>
      </trkpt>
      <trkpt lat="49.53047" lon="3.51053">
        <ele>190.4</ele>
        <time>2023-08-18T12:22:43Z</time>
      </trkpt>
      <trkpt lat="49.53047" lon="3.51053">
        <ele>190.4</ele>
        <time>2023-08-18T12:22:54Z</time>
      </trkpt>
      <trkpt lat="49.53047" lon="3.51053">
        <ele>190.4</ele>
        <time>2023-08-18T12:23:08Z</time>
      </trkpt>
      <trkpt lat="49.53047" lon="3.51053">
        <ele>190.4</ele>
        <time>2023-08-18T12:23:16Z</time>
      </trkpt>
      <trkpt lat="49.53047" lon="3.51053">
        <ele>190.4</ele>
        <time>2023-08-18T12:23:27Z</time>
      </trkpt>
      <trkpt lat="49.53047" lon="3.51053">
        <ele>190.4</ele>
        <time>2023-08-18T12:23:48Z</time>
      </trkpt>
      <trkpt lat="49.53047" lon="3.51053">
        <ele>190.4</ele>
        <time>2023-08-18T12:24:06Z</time>
      </trkpt>
      <trkpt lat="49.53047" lon="3.51053">
        <ele>190.4</ele>
        <time>2023-08-18T12:24:22Z</time>
      </trkpt>
      <trkpt lat="49.53046" lon="3.51053">
        <ele>190.4</ele>
        <time>2023-08-18T12:24:31Z</time>
      </trkpt>
      <trkpt lat="49.53046" lon="3.51053">
        <ele>190.4</ele>
        <time>2023-08-18T12:24:38Z</time>
      </trkpt>
      <trkpt lat="49.53046" lon="3.51052">
        <ele>190.4</ele>
        <time>2023-08-18T12:24:44Z</time>
      </trkpt>
      <trkpt lat="49.53046" lon="3.51052">
        <ele>190.4</ele>
        <time>2023-08-18T12:24:58Z</time>
      </trkpt>
      <trkpt lat="49.53046" lon="3.51052">
        <ele>190.4</ele>
        <time>2023-08-18T12:25:13Z</time>
      </trkpt>
      <trkpt lat="49.53046" lon="3.51052">
        <ele>190.4</ele>
        <time>2023-08-18T12:25:24Z</time>
      </trkpt>
      <trkpt lat="49.53046" lon="3.51052">
        <ele>190.4</ele>
        <time>2023-08-18T12:25:35Z</time>
      </trkpt>
      <trkpt lat="49.53046" lon="3.51052">
        <ele>190.4</ele>
        <time>2023-08-18T12:25:42Z</time>
      </trkpt>
      <trkpt lat="49.53046" lon="3.51052">
        <ele>190.4</ele>
        <time>2023-08-18T12:25:56Z</time>
      </trkpt>
      <trkpt lat="49.53047" lon="3.51052">
        <ele>190.4</ele>
        <time>2023-08-18T12:26:10Z</time>
      </trkpt>
      <trkpt lat="49.53047" lon="3.51052">
        <ele>190.4</ele>
        <time>2023-08-18T12:26:19Z</time>
      </trkpt>
      <trkpt lat="49.53047" lon="3.51052">
        <ele>190.4</ele>
        <time>2023-08-18T12:26:27Z</time>
      </trkpt>
      <trkpt lat="49.53045" lon="3.51053">
        <ele>190.4</ele>
        <time>2023-08-18T12:26:34Z</time>
      </trkpt>
      <trkpt lat="49.53045" lon="3.51053">
        <ele>190.4</ele>
        <time>2023-08-18T12:26:42Z</time>
      </trkpt>
      <trkpt lat="49.53044" lon="3.51056">
        <ele>190.4</ele>
        <time>2023-08-18T12:26:48Z</time>
      </trkpt>
      <trkpt lat="49.53044" lon="3.51054">
        <ele>190.4</ele>
        <time>2023-08-18T12:26:53Z</time>
      </trkpt>
      <trkpt lat="49.53043" lon="3.51055">
        <ele>190.4</ele>
        <time>2023-08-18T12:27:00Z</time>
      </trkpt>
      <trkpt lat="49.53043" lon="3.51055">
        <ele>190.4</ele>
        <time>2023-08-18T12:27:09Z</time>
      </trkpt>
      <trkpt lat="49.53043" lon="3.51055">
        <ele>190.4</ele>
        <time>2023-08-18T12:27:20Z</time>
      </trkpt>
      <trkpt lat="49.53043" lon="3.51055">
        <ele>190.4</ele>
        <time>2023-08-18T12:27:30Z</time>
      </trkpt>
      <trkpt lat="49.53043" lon="3.51055">
        <ele>190.4</ele>
        <time>2023-08-18T12:27:41Z</time>
      </trkpt>
      <trkpt lat="49.53043" lon="3.51056">
        <ele>190.4</ele>
        <time>2023-08-18T12:27:48Z</time>
      </trkpt>
      <trkpt lat="49.53043" lon="3.51059">
        <ele>190.4</ele>
        <time>2023-08-18T12:27:55Z</time>
      </trkpt>
      <trkpt lat="49.53044" lon="3.51059">
        <ele>190.4</ele>
        <time>2023-08-18T12:28:01Z</time>
      </trkpt>
      <trkpt lat="49.53044" lon="3.51058">
        <ele>190.4</ele>
        <time>2023-08-18T12:28:10Z</time>
      </trkpt>
      <trkpt lat="49.53045" lon="3.51058">
        <ele>190.4</ele>
        <time>2023-08-18T12:28:16Z</time>
      </trkpt>
      <trkpt lat="49.53045" lon="3.51058">
        <ele>190.4</ele>
        <time>2023-08-18T12:28:25Z</time>
      </trkpt>
      <trkpt lat="49.53045" lon="3.51058">
        <ele>190.4</ele>
        <time>2023-08-18T12:28:35Z</time>
      </trkpt>
      <trkpt lat="49.53045" lon="3.51058">
        <ele>190.4</ele>
        <time>2023-08-18T12:28:45Z</time>
      </trkpt>
      <trkpt lat="49.53045" lon="3.51057">
        <ele>190.4</ele>
        <time>2023-08-18T12:28:53Z</time>
      </trkpt>
      <trkpt lat="49.53044" lon="3.51058">
        <ele>190.4</ele>
        <time>2023-08-18T12:29:00Z</time>
      </trkpt>
      <trkpt lat="49.53045" lon="3.51058">
        <ele>190.4</ele>
        <time>2023-08-18T12:29:07Z</time>
      </trkpt>
      <trkpt lat="49.53048" lon="3.51053">
        <ele>190.4</ele>
        <time>2023-08-18T12:29:12Z</time>
      </trkpt>
      <trkpt lat="49.53049" lon="3.51051">
        <ele>190.4</ele>
        <time>2023-08-18T12:29:14Z</time>
      </trkpt>
      <trkpt lat="49.5305" lon="3.5105">
        <ele>190.4</ele>
        <time>2023-08-18T12:29:16Z</time>
      </trkpt>
      <trkpt lat="49.53054" lon="3.51044">
        <ele>190.4</ele>
        <time>2023-08-18T12:29:20Z</time>
      </trkpt>
      <trkpt lat="49.53056" lon="3.51041">
        <ele>190.4</ele>
        <time>2023-08-18T12:29:25Z</time>
      </trkpt>
      <trkpt lat="49.5306" lon="3.51032">
        <ele>190.4</ele>
        <time>2023-08-18T12:29:29Z</time>
      </trkpt>
      <trkpt lat="49.53062" lon="3.51028">
        <ele>190.4</ele>
        <time>2023-08-18T12:29:33Z</time>
      </trkpt>
      <trkpt lat="49.53067" lon="3.51023">
        <ele>190.4</ele>
        <time>2023-08-18T12:29:39Z</time>
      </trkpt>
      <trkpt lat="49.53067" lon="3.51023">
        <ele>190.4</ele>
        <time>2023-08-18T12:29:40Z</time>
      </trkpt>
      <trkpt lat="49.53071" lon="3.51024">
        <ele>190.4</ele>
        <time>2023-08-18T12:29:45Z</time>
      </trkpt>
      <trkpt lat="49.53076" lon="3.5103">
        <ele>190.4</ele>
        <time>2023-08-18T12:29:52Z</time>
      </trkpt>
      <trkpt lat="49.53084" lon="3.51043">
        <ele>190.4</ele>
        <time>2023-08-18T12:29:58Z</time>
      </trkpt>
      <trkpt lat="49.53084" lon="3.51044">
        <ele>190.4</ele>
        <time>2023-08-18T12:29:59Z</time>
      </trkpt>
      <trkpt lat="49.53087" lon="3.5105">
        <ele>190.4</ele>
        <time>2023-08-18T12:30:04Z</time>
      </trkpt>
      <trkpt lat="49.53091" lon="3.51061">
        <ele>190.4</ele>
        <time>2023-08-18T12:30:09Z</time>
      </trkpt>
      <trkpt lat="49.53097" lon="3.51072">
        <ele>190.4</ele>
        <time>2023-08-18T12:30:15Z</time>
      </trkpt>
      <trkpt lat="49.53098" lon="3.51073">
        <ele>190.4</ele>
        <time>2023-08-18T12:30:20Z</time>
      </trkpt>
      <trkpt lat="49.53101" lon="3.5108">
        <ele>190.4</ele>
        <time>2023-08-18T12:30:26Z</time>
      </trkpt>
      <trkpt lat="49.53107" lon="3.5109">
        <ele>190.4</ele>
        <time>2023-08-18T12:30:33Z</time>
      </trkpt>
      <trkpt lat="49.53108" lon="3.51094">
        <ele>190.4</ele>
        <time>2023-08-18T12:30:35Z</time>
      </trkpt>
      <trkpt lat="49.53108" lon="3.51096">
        <ele>190.4</ele>
        <time>2023-08-18T12:30:38Z</time>
      </trkpt>
      <trkpt lat="49.53113" lon="3.51103">
        <ele>190.4</ele>
        <time>2023-08-18T12:30:44Z</time>
      </trkpt>
      <trkpt lat="49.5312" lon="3.51115">
        <ele>190.4</ele>
        <time>2023-08-18T12:30:50Z</time>
      </trkpt>
      <trkpt lat="49.53125" lon="3.5112">
        <ele>190.4</ele>
        <time>2023-08-18T12:30:56Z</time>
      </trkpt>
      <trkpt lat="49.53132" lon="3.5113">
        <ele>190.4</ele>
        <time>2023-08-18T12:31:03Z</time>
      </trkpt>
      <trkpt lat="49.53139" lon="3.51142">
        <ele>190.4</ele>
        <time>2023-08-18T12:31:09Z</time>
      </trkpt>
      <trkpt lat="49.53142" lon="3.51148">
        <ele>190.4</ele>
        <time>2023-08-18T12:31:15Z</time>
      </trkpt>
      <trkpt lat="49.53146" lon="3.51156">
        <ele>190.4</ele>
        <time>2023-08-18T12:31:22Z</time>
      </trkpt>
      <trkpt lat="49.5315" lon="3.5117">
        <ele>190.4</ele>
        <time>2023-08-18T12:31:28Z</time>
      </trkpt>
      <trkpt lat="49.53152" lon="3.51176">
        <ele>190.4</ele>
        <time>2023-08-18T12:31:34Z</time>
      </trkpt>
      <trkpt lat="49.53153" lon="3.51178">
        <ele>190.4</ele>
        <time>2023-08-18T12:31:35Z</time>
      </trkpt>
      <trkpt lat="49.53155" lon="3.51185">
        <ele>190.4</ele>
        <time>2023-08-18T12:31:38Z</time>
      </trkpt>
      <trkpt lat="49.53156" lon="3.51189">
        <ele>190.4</ele>
        <time>2023-08-18T12:31:40Z</time>
      </trkpt>
      <trkpt lat="49.53158" lon="3.51194">
        <ele>190.4</ele>
        <time>2023-08-18T12:31:45Z</time>
      </trkpt>
      <trkpt lat="49.53163" lon="3.51202">
        <ele>190.4</ele>
        <time>2023-08-18T12:31:51Z</time>
      </trkpt>
      <trkpt lat="49.53163" lon="3.51205">
        <ele>190.4</ele>
        <time>2023-08-18T12:31:53Z</time>
      </trkpt>
      <trkpt lat="49.53166" lon="3.51214">
        <ele>190.4</ele>
        <time>2023-08-18T12:31:58Z</time>
      </trkpt>
      <trkpt lat="49.53168" lon="3.51222">
        <ele>190.4</ele>
        <time>2023-08-18T12:32:03Z</time>
      </trkpt>
      <trkpt lat="49.53168" lon="3.51227">
        <ele>190.4</ele>
        <time>2023-08-18T12:32:07Z</time>
      </trkpt>
      <trkpt lat="49.53169" lon="3.51231">
        <ele>190.4</ele>
        <time>2023-08-18T12:32:09Z</time>
      </trkpt>
      <trkpt lat="49.53173" lon="3.51242">
        <ele>190.4</ele>
        <time>2023-08-18T12:32:14Z</time>
      </trkpt>
      <trkpt lat="49.53175" lon="3.51248">
        <ele>190.4</ele>
        <time>2023-08-18T12:32:19Z</time>
      </trkpt>
      <trkpt lat="49.53179" lon="3.51257">
        <ele>190.4</ele>
        <time>2023-08-18T12:32:24Z</time>
      </trkpt>
      <trkpt lat="49.53182" lon="3.51266">
        <ele>190.4</ele>
        <time>2023-08-18T12:32:31Z</time>
      </trkpt>
      <trkpt lat="49.53188" lon="3.51276">
        <ele>190.4</ele>
        <time>2023-08-18T12:32:37Z</time>
      </trkpt>
      <trkpt lat="49.53192" lon="3.51283">
        <ele>190.4</ele>
        <time>2023-08-18T12:32:43Z</time>
      </trkpt>
      <trkpt lat="49.53195" lon="3.51292">
        <ele>190</ele>
        <time>2023-08-18T12:32:49Z</time>
      </trkpt>
      <trkpt lat="49.53195" lon="3.51293">
        <ele>189.6</ele>
        <time>2023-08-18T12:32:50Z</time>
      </trkpt>
      <trkpt lat="49.53195" lon="3.51294">
        <ele>189.2</ele>
        <time>2023-08-18T12:32:51Z</time>
      </trkpt>
      <trkpt lat="49.53196" lon="3.51295">
        <ele>188.8</ele>
        <time>2023-08-18T12:32:52Z</time>
      </trkpt>
      <trkpt lat="49.53197" lon="3.51297">
        <ele>188.4</ele>
        <time>2023-08-18T12:32:53Z</time>
      </trkpt>
      <trkpt lat="49.53201" lon="3.51306">
        <ele>188.4</ele>
        <time>2023-08-18T12:32:57Z</time>
      </trkpt>
      <trkpt lat="49.53203" lon="3.51313">
        <ele>188.4</ele>
        <time>2023-08-18T12:33:03Z</time>
      </trkpt>
      <trkpt lat="49.53208" lon="3.51324">
        <ele>188.4</ele>
        <time>2023-08-18T12:33:09Z</time>
      </trkpt>
      <trkpt lat="49.53211" lon="3.51331">
        <ele>188.4</ele>
        <time>2023-08-18T12:33:15Z</time>
      </trkpt>
      <trkpt lat="49.53215" lon="3.51341">
        <ele>188.4</ele>
        <time>2023-08-18T12:33:20Z</time>
      </trkpt>
      <trkpt lat="49.53218" lon="3.51348">
        <ele>188.4</ele>
        <time>2023-08-18T12:33:24Z</time>
      </trkpt>
      <trkpt lat="49.53218" lon="3.51349">
        <ele>188.4</ele>
        <time>2023-08-18T12:33:25Z</time>
      </trkpt>
      <trkpt lat="49.5322" lon="3.51353">
        <ele>188.4</ele>
        <time>2023-08-18T12:33:30Z</time>
      </trkpt>
      <trkpt lat="49.53224" lon="3.51363">
        <ele>188.4</ele>
        <time>2023-08-18T12:33:36Z</time>
      </trkpt>
      <trkpt lat="49.53227" lon="3.51373">
        <ele>188.4</ele>
        <time>2023-08-18T12:33:42Z</time>
      </trkpt>
      <trkpt lat="49.5323" lon="3.5138">
        <ele>188.4</ele>
        <time>2023-08-18T12:33:48Z</time>
      </trkpt>
      <trkpt lat="49.53231" lon="3.51382">
        <ele>188.4</ele>
        <time>2023-08-18T12:33:50Z</time>
      </trkpt>
      <trkpt lat="49.53232" lon="3.51388">
        <ele>188.4</ele>
        <time>2023-08-18T12:33:53Z</time>
      </trkpt>
      <trkpt lat="49.53236" lon="3.51398">
        <ele>188.4</ele>
        <time>2023-08-18T12:33:58Z</time>
      </trkpt>
      <trkpt lat="49.53237" lon="3.51404">
        <ele>188.4</ele>
        <time>2023-08-18T12:34:03Z</time>
      </trkpt>
      <trkpt lat="49.53237" lon="3.51406">
        <ele>188.4</ele>
        <time>2023-08-18T12:34:04Z</time>
      </trkpt>
      <trkpt lat="49.5324" lon="3.51414">
        <ele>188.4</ele>
        <time>2023-08-18T12:34:08Z</time>
      </trkpt>
      <trkpt lat="49.53243" lon="3.5142">
        <ele>188.4</ele>
        <time>2023-08-18T12:34:13Z</time>
      </trkpt>
      <trkpt lat="49.53244" lon="3.51423">
        <ele>188.4</ele>
        <time>2023-08-18T12:34:15Z</time>
      </trkpt>
      <trkpt lat="49.53246" lon="3.51429">
        <ele>188.4</ele>
        <time>2023-08-18T12:34:18Z</time>
      </trkpt>
      <trkpt lat="49.53246" lon="3.51431">
        <ele>188.4</ele>
        <time>2023-08-18T12:34:19Z</time>
      </trkpt>
      <trkpt lat="49.53251" lon="3.51438">
        <ele>188.4</ele>
        <time>2023-08-18T12:34:25Z</time>
      </trkpt>
      <trkpt lat="49.53254" lon="3.51451">
        <ele>188.4</ele>
        <time>2023-08-18T12:34:31Z</time>
      </trkpt>
      <trkpt lat="49.53256" lon="3.51458">
        <ele>188.4</ele>
        <time>2023-08-18T12:34:36Z</time>
      </trkpt>
      <trkpt lat="49.53259" lon="3.51468">
        <ele>188.4</ele>
        <time>2023-08-18T12:34:42Z</time>
      </trkpt>
      <trkpt lat="49.53262" lon="3.51476">
        <ele>188.4</ele>
        <time>2023-08-18T12:34:47Z</time>
      </trkpt>
      <trkpt lat="49.53263" lon="3.51477">
        <ele>188.4</ele>
        <time>2023-08-18T12:34:48Z</time>
      </trkpt>
      <trkpt lat="49.53266" lon="3.51488">
        <ele>188.4</ele>
        <time>2023-08-18T12:34:55Z</time>
      </trkpt>
      <trkpt lat="49.53271" lon="3.51501">
        <ele>188.4</ele>
        <time>2023-08-18T12:35:01Z</time>
      </trkpt>
      <trkpt lat="49.53273" lon="3.51511">
        <ele>188.4</ele>
        <time>2023-08-18T12:35:08Z</time>
      </trkpt>
      <trkpt lat="49.53277" lon="3.51523">
        <ele>188.4</ele>
        <time>2023-08-18T12:35:13Z</time>
      </trkpt>
      <trkpt lat="49.53278" lon="3.51529">
        <ele>188.4</ele>
        <time>2023-08-18T12:35:19Z</time>
      </trkpt>
      <trkpt lat="49.53282" lon="3.51541">
        <ele>188.4</ele>
        <time>2023-08-18T12:35:25Z</time>
      </trkpt>
      <trkpt lat="49.53283" lon="3.51547">
        <ele>188.4</ele>
        <time>2023-08-18T12:35:30Z</time>
      </trkpt>
      <trkpt lat="49.53287" lon="3.51559">
        <ele>188.4</ele>
        <time>2023-08-18T12:35:36Z</time>
      </trkpt>
      <trkpt lat="49.5329" lon="3.51568">
        <ele>188.4</ele>
        <time>2023-08-18T12:35:40Z</time>
      </trkpt>
      <trkpt lat="49.5329" lon="3.5157">
        <ele>188.4</ele>
        <time>2023-08-18T12:35:42Z</time>
      </trkpt>
      <trkpt lat="49.53291" lon="3.51575">
        <ele>188.4</ele>
        <time>2023-08-18T12:35:46Z</time>
      </trkpt>
      <trkpt lat="49.53293" lon="3.5158">
        <ele>188.4</ele>
        <time>2023-08-18T12:35:48Z</time>
      </trkpt>
      <trkpt lat="49.53295" lon="3.51586">
        <ele>188.4</ele>
        <time>2023-08-18T12:35:51Z</time>
      </trkpt>
      <trkpt lat="49.53296" lon="3.51588">
        <ele>188.4</ele>
        <time>2023-08-18T12:35:53Z</time>
      </trkpt>
      <trkpt lat="49.53297" lon="3.51589">
        <ele>188.4</ele>
        <time>2023-08-18T12:35:57Z</time>
      </trkpt>
      <trkpt lat="49.53297" lon="3.5159">
        <ele>188.4</ele>
        <time>2023-08-18T12:36:02Z</time>
      </trkpt>
      <trkpt lat="49.53297" lon="3.5159">
        <ele>188.4</ele>
        <time>2023-08-18T12:36:07Z</time>
      </trkpt>
      <trkpt lat="49.53297" lon="3.5159">
        <ele>188.4</ele>
        <time>2023-08-18T12:36:12Z</time>
      </trkpt>
      <trkpt lat="49.53297" lon="3.5159">
        <ele>188.4</ele>
        <time>2023-08-18T12:36:23Z</time>
      </trkpt>
      <trkpt lat="49.53298" lon="3.51596">
        <ele>188.4</ele>
        <time>2023-08-18T12:36:29Z</time>
      </trkpt>
      <trkpt lat="49.53296" lon="3.51591">
        <ele>188.4</ele>
        <time>2023-08-18T12:36:34Z</time>
      </trkpt>
      <trkpt lat="49.53296" lon="3.5159">
        <ele>188.4</ele>
        <time>2023-08-18T12:36:40Z</time>
      </trkpt>
      <trkpt lat="49.53296" lon="3.51588">
        <ele>188.4</ele>
        <time>2023-08-18T12:36:45Z</time>
      </trkpt>
      <trkpt lat="49.53297" lon="3.51593">
        <ele>188.4</ele>
        <time>2023-08-18T12:36:51Z</time>
      </trkpt>
      <trkpt lat="49.53298" lon="3.51594">
        <ele>188.4</ele>
        <time>2023-08-18T12:36:58Z</time>
      </trkpt>
      <trkpt lat="49.53298" lon="3.51594">
        <ele>188.4</ele>
        <time>2023-08-18T12:37:08Z</time>
      </trkpt>
      <trkpt lat="49.53298" lon="3.51594">
        <ele>188.4</ele>
        <time>2023-08-18T12:37:22Z</time>
      </trkpt>
      <trkpt lat="49.53298" lon="3.51594">
        <ele>188.4</ele>
        <time>2023-08-18T12:37:38Z</time>
      </trkpt>
      <trkpt lat="49.53299" lon="3.51594">
        <ele>188.4</ele>
        <time>2023-08-18T12:37:48Z</time>
      </trkpt>
      <trkpt lat="49.53299" lon="3.51592">
        <ele>188.4</ele>
        <time>2023-08-18T12:37:53Z</time>
      </trkpt>
      <trkpt lat="49.53298" lon="3.51591">
        <ele>188.4</ele>
        <time>2023-08-18T12:37:58Z</time>
      </trkpt>
      <trkpt lat="49.53298" lon="3.51592">
        <ele>188.4</ele>
        <time>2023-08-18T12:38:05Z</time>
      </trkpt>
      <trkpt lat="49.53299" lon="3.51594">
        <ele>188.4</ele>
        <time>2023-08-18T12:38:07Z</time>
      </trkpt>
      <trkpt lat="49.53299" lon="3.51597">
        <ele>188.4</ele>
        <time>2023-08-18T12:38:10Z</time>
      </trkpt>
      <trkpt lat="49.53301" lon="3.51601">
        <ele>188.4</ele>
        <time>2023-08-18T12:38:14Z</time>
      </trkpt>
      <trkpt lat="49.53305" lon="3.51614">
        <ele>188.4</ele>
        <time>2023-08-18T12:38:21Z</time>
      </trkpt>
      <trkpt lat="49.53309" lon="3.51626">
        <ele>188.4</ele>
        <time>2023-08-18T12:38:27Z</time>
      </trkpt>
      <trkpt lat="49.53311" lon="3.51634">
        <ele>188.4</ele>
        <time>2023-08-18T12:38:34Z</time>
      </trkpt>
      <trkpt lat="49.53311" lon="3.51636">
        <ele>188.4</ele>
        <time>2023-08-18T12:38:35Z</time>
      </trkpt>
      <trkpt lat="49.53314" lon="3.51647">
        <ele>188.4</ele>
        <time>2023-08-18T12:38:40Z</time>
      </trkpt>
      <trkpt lat="49.53315" lon="3.51657">
        <ele>188.4</ele>
        <time>2023-08-18T12:38:46Z</time>
      </trkpt>
      <trkpt lat="49.53317" lon="3.51667">
        <ele>188.4</ele>
        <time>2023-08-18T12:38:51Z</time>
      </trkpt>
      <trkpt lat="49.53319" lon="3.51675">
        <ele>188.4</ele>
        <time>2023-08-18T12:38:55Z</time>
      </trkpt>
      <trkpt lat="49.5332" lon="3.51682">
        <ele>188.4</ele>
        <time>2023-08-18T12:39:00Z</time>
      </trkpt>
      <trkpt lat="49.53321" lon="3.51685">
        <ele>188.4</ele>
        <time>2023-08-18T12:39:02Z</time>
      </trkpt>
      <trkpt lat="49.53322" lon="3.51688">
        <ele>188.4</ele>
        <time>2023-08-18T12:39:05Z</time>
      </trkpt>
      <trkpt lat="49.53324" lon="3.517">
        <ele>188.4</ele>
        <time>2023-08-18T12:39:10Z</time>
      </trkpt>
      <trkpt lat="49.53325" lon="3.51704">
        <ele>188.4</ele>
        <time>2023-08-18T12:39:15Z</time>
      </trkpt>
      <trkpt lat="49.53327" lon="3.51713">
        <ele>188.4</ele>
        <time>2023-08-18T12:39:19Z</time>
      </trkpt>
      <trkpt lat="49.53328" lon="3.51717">
        <ele>188.4</ele>
        <time>2023-08-18T12:39:21Z</time>
      </trkpt>
      <trkpt lat="49.53329" lon="3.51719">
        <ele>188.4</ele>
        <time>2023-08-18T12:39:24Z</time>
      </trkpt>
      <trkpt lat="49.53332" lon="3.5173">
        <ele>188.4</ele>
        <time>2023-08-18T12:39:29Z</time>
      </trkpt>
      <trkpt lat="49.53334" lon="3.51736">
        <ele>188.4</ele>
        <time>2023-08-18T12:39:34Z</time>
      </trkpt>
      <trkpt lat="49.53333" lon="3.51736">
        <ele>188.4</ele>
        <time>2023-08-18T12:39:39Z</time>
      </trkpt>
      <trkpt lat="49.53333" lon="3.51737">
        <ele>188.4</ele>
        <time>2023-08-18T12:39:41Z</time>
      </trkpt>
      <trkpt lat="49.53332" lon="3.51738">
        <ele>188.4</ele>
        <time>2023-08-18T12:39:43Z</time>
      </trkpt>
      <trkpt lat="49.53332" lon="3.51738">
        <ele>188.4</ele>
        <time>2023-08-18T12:39:45Z</time>
      </trkpt>
      <trkpt lat="49.53332" lon="3.5174">
        <ele>188.4</ele>
        <time>2023-08-18T12:39:47Z</time>
      </trkpt>
      <trkpt lat="49.53335" lon="3.51751">
        <ele>188.4</ele>
        <time>2023-08-18T12:39:52Z</time>
      </trkpt>
      <trkpt lat="49.53339" lon="3.51758">
        <ele>188.4</ele>
        <time>2023-08-18T12:39:57Z</time>
      </trkpt>
      <trkpt lat="49.53342" lon="3.51769">
        <ele>188.4</ele>
        <time>2023-08-18T12:40:03Z</time>
      </trkpt>
      <trkpt lat="49.53342" lon="3.5177">
        <ele>188.4</ele>
        <time>2023-08-18T12:40:04Z</time>
      </trkpt>
      <trkpt lat="49.53343" lon="3.51773">
        <ele>188.4</ele>
        <time>2023-08-18T12:40:07Z</time>
      </trkpt>
      <trkpt lat="49.53344" lon="3.51776">
        <ele>188.4</ele>
        <time>2023-08-18T12:40:09Z</time>
      </trkpt>
      <trkpt lat="49.53347" lon="3.51787">
        <ele>188.4</ele>
        <time>2023-08-18T12:40:13Z</time>
      </trkpt>
      <trkpt lat="49.53348" lon="3.51791">
        <ele>188.4</ele>
        <time>2023-08-18T12:40:15Z</time>
      </trkpt>
      <trkpt lat="49.53351" lon="3.51797">
        <ele>188.4</ele>
        <time>2023-08-18T12:40:21Z</time>
      </trkpt>
      <trkpt lat="49.53356" lon="3.51806">
        <ele>188.4</ele>
        <time>2023-08-18T12:40:25Z</time>
      </trkpt>
      <trkpt lat="49.5336" lon="3.51816">
        <ele>188.4</ele>
        <time>2023-08-18T12:40:30Z</time>
      </trkpt>
      <trkpt lat="49.53361" lon="3.51822">
        <ele>188.4</ele>
        <time>2023-08-18T12:40:36Z</time>
      </trkpt>
      <trkpt lat="49.53363" lon="3.51836">
        <ele>188.4</ele>
        <time>2023-08-18T12:40:41Z</time>
      </trkpt>
      <trkpt lat="49.53363" lon="3.51839">
        <ele>188.4</ele>
        <time>2023-08-18T12:40:43Z</time>
      </trkpt>
      <trkpt lat="49.53363" lon="3.51841">
        <ele>188.4</ele>
        <time>2023-08-18T12:40:46Z</time>
      </trkpt>
      <trkpt lat="49.53365" lon="3.51845">
        <ele>188.4</ele>
        <time>2023-08-18T12:40:49Z</time>
      </trkpt>
      <trkpt lat="49.53366" lon="3.51849">
        <ele>188.4</ele>
        <time>2023-08-18T12:40:51Z</time>
      </trkpt>
      <trkpt lat="49.53368" lon="3.51854">
        <ele>188.4</ele>
        <time>2023-08-18T12:40:57Z</time>
      </trkpt>
      <trkpt lat="49.53368" lon="3.51854">
        <ele>188.4</ele>
        <time>2023-08-18T12:41:03Z</time>
      </trkpt>
      <trkpt lat="49.53368" lon="3.51854">
        <ele>188.4</ele>
        <time>2023-08-18T12:41:07Z</time>
      </trkpt>
      <trkpt lat="49.53369" lon="3.51853">
        <ele>188.4</ele>
        <time>2023-08-18T12:41:12Z</time>
      </trkpt>
      <trkpt lat="49.53371" lon="3.51853">
        <ele>188.4</ele>
        <time>2023-08-18T12:41:18Z</time>
      </trkpt>
      <trkpt lat="49.53371" lon="3.51853">
        <ele>188.4</ele>
        <time>2023-08-18T12:41:24Z</time>
      </trkpt>
      <trkpt lat="49.53371" lon="3.51853">
        <ele>188.4</ele>
        <time>2023-08-18T12:41:36Z</time>
      </trkpt>
      <trkpt lat="49.53368" lon="3.51853">
        <ele>188.4</ele>
        <time>2023-08-18T12:41:42Z</time>
      </trkpt>
      <trkpt lat="49.53368" lon="3.51853">
        <ele>188.4</ele>
        <time>2023-08-18T12:41:49Z</time>
      </trkpt>
      <trkpt lat="49.53368" lon="3.51853">
        <ele>188.4</ele>
        <time>2023-08-18T12:41:55Z</time>
      </trkpt>
      <trkpt lat="49.53368" lon="3.51853">
        <ele>188.4</ele>
        <time>2023-08-18T12:42:03Z</time>
      </trkpt>
      <trkpt lat="49.53368" lon="3.51853">
        <ele>188.4</ele>
        <time>2023-08-18T12:42:10Z</time>
      </trkpt>
      <trkpt lat="49.53369" lon="3.51861">
        <ele>188.4</ele>
        <time>2023-08-18T12:42:16Z</time>
      </trkpt>
      <trkpt lat="49.53373" lon="3.51869">
        <ele>188.4</ele>
        <time>2023-08-18T12:42:22Z</time>
      </trkpt>
      <trkpt lat="49.53377" lon="3.51879">
        <ele>188.4</ele>
        <time>2023-08-18T12:42:28Z</time>
      </trkpt>
      <trkpt lat="49.53382" lon="3.51889">
        <ele>188.4</ele>
        <time>2023-08-18T12:42:34Z</time>
      </trkpt>
      <trkpt lat="49.53386" lon="3.51898">
        <ele>188.4</ele>
        <time>2023-08-18T12:42:41Z</time>
      </trkpt>
      <trkpt lat="49.5339" lon="3.51907">
        <ele>188.4</ele>
        <time>2023-08-18T12:42:48Z</time>
      </trkpt>
      <trkpt lat="49.53394" lon="3.51916">
        <ele>188.4</ele>
        <time>2023-08-18T12:42:56Z</time>
      </trkpt>
      <trkpt lat="49.53396" lon="3.51924">
        <ele>188.4</ele>
        <time>2023-08-18T12:43:02Z</time>
      </trkpt>
      <trkpt lat="49.534" lon="3.51933">
        <ele>188.4</ele>
        <time>2023-08-18T12:43:07Z</time>
      </trkpt>
      <trkpt lat="49.53404" lon="3.5194">
        <ele>188.4</ele>
        <time>2023-08-18T12:43:14Z</time>
      </trkpt>
      <trkpt lat="49.53408" lon="3.51947">
        <ele>188.4</ele>
        <time>2023-08-18T12:43:19Z</time>
      </trkpt>
      <trkpt lat="49.53413" lon="3.51957">
        <ele>188.4</ele>
        <time>2023-08-18T12:43:26Z</time>
      </trkpt>
      <trkpt lat="49.53418" lon="3.51965">
        <ele>188.4</ele>
        <time>2023-08-18T12:43:31Z</time>
      </trkpt>
      <trkpt lat="49.53421" lon="3.5197">
        <ele>188.4</ele>
        <time>2023-08-18T12:43:37Z</time>
      </trkpt>
      <trkpt lat="49.53422" lon="3.51976">
        <ele>188.4</ele>
        <time>2023-08-18T12:43:40Z</time>
      </trkpt>
      <trkpt lat="49.53424" lon="3.51982">
        <ele>188.4</ele>
        <time>2023-08-18T12:43:44Z</time>
      </trkpt>
      <trkpt lat="49.53427" lon="3.51992">
        <ele>188.4</ele>
        <time>2023-08-18T12:43:49Z</time>
      </trkpt>
      <trkpt lat="49.5343" lon="3.52">
        <ele>188.4</ele>
        <time>2023-08-18T12:43:54Z</time>
      </trkpt>
      <trkpt lat="49.53431" lon="3.52004">
        <ele>188.4</ele>
        <time>2023-08-18T12:43:59Z</time>
      </trkpt>
      <trkpt lat="49.53433" lon="3.52009">
        <ele>188.4</ele>
        <time>2023-08-18T12:44:01Z</time>
      </trkpt>
      <trkpt lat="49.53435" lon="3.52013">
        <ele>188.4</ele>
        <time>2023-08-18T12:44:03Z</time>
      </trkpt>
      <trkpt lat="49.53437" lon="3.52019">
        <ele>188.4</ele>
        <time>2023-08-18T12:44:08Z</time>
      </trkpt>
      <trkpt lat="49.5344" lon="3.52027">
        <ele>188.4</ele>
        <time>2023-08-18T12:44:14Z</time>
      </trkpt>
      <trkpt lat="49.53446" lon="3.52038">
        <ele>188.4</ele>
        <time>2023-08-18T12:44:20Z</time>
      </trkpt>
      <trkpt lat="49.53448" lon="3.5204">
        <ele>188.4</ele>
        <time>2023-08-18T12:44:25Z</time>
      </trkpt>
      <trkpt lat="49.53449" lon="3.52047">
        <ele>188.8</ele>
        <time>2023-08-18T12:44:29Z</time>
      </trkpt>
      <trkpt lat="49.53449" lon="3.52048">
        <ele>189.2</ele>
        <time>2023-08-18T12:44:30Z</time>
      </trkpt>
      <trkpt lat="49.5345" lon="3.5205">
        <ele>189.6</ele>
        <time>2023-08-18T12:44:31Z</time>
      </trkpt>
      <trkpt lat="49.53451" lon="3.52051">
        <ele>190</ele>
        <time>2023-08-18T12:44:32Z</time>
      </trkpt>
      <trkpt lat="49.53451" lon="3.52051">
        <ele>190.4</ele>
        <time>2023-08-18T12:44:33Z</time>
      </trkpt>
      <trkpt lat="49.53452" lon="3.52054">
        <ele>190.4</ele>
        <time>2023-08-18T12:44:36Z</time>
      </trkpt>
      <trkpt lat="49.53455" lon="3.52056">
        <ele>190.4</ele>
        <time>2023-08-18T12:44:38Z</time>
      </trkpt>
      <trkpt lat="49.53459" lon="3.5206">
        <ele>190.4</ele>
        <time>2023-08-18T12:44:40Z</time>
      </trkpt>
      <trkpt lat="49.53463" lon="3.52066">
        <ele>190.4</ele>
        <time>2023-08-18T12:44:45Z</time>
      </trkpt>
      <trkpt lat="49.53464" lon="3.52069">
        <ele>190.4</ele>
        <time>2023-08-18T12:44:47Z</time>
      </trkpt>
      <trkpt lat="49.53466" lon="3.52075">
        <ele>190.4</ele>
        <time>2023-08-18T12:44:50Z</time>
      </trkpt>
      <trkpt lat="49.53468" lon="3.52081">
        <ele>190.4</ele>
        <time>2023-08-18T12:44:55Z</time>
      </trkpt>
      <trkpt lat="49.53468" lon="3.52089">
        <ele>190.4</ele>
        <time>2023-08-18T12:45:01Z</time>
      </trkpt>
      <trkpt lat="49.5347" lon="3.52099">
        <ele>190.4</ele>
        <time>2023-08-18T12:45:07Z</time>
      </trkpt>
      <trkpt lat="49.53472" lon="3.52107">
        <ele>190.4</ele>
        <time>2023-08-18T12:45:12Z</time>
      </trkpt>
      <trkpt lat="49.53474" lon="3.52114">
        <ele>190.4</ele>
        <time>2023-08-18T12:45:18Z</time>
      </trkpt>
      <trkpt lat="49.53474" lon="3.52116">
        <ele>190.4</ele>
        <time>2023-08-18T12:45:19Z</time>
      </trkpt>
      <trkpt lat="49.53479" lon="3.52127">
        <ele>190.4</ele>
        <time>2023-08-18T12:45:25Z</time>
      </trkpt>
      <trkpt lat="49.53481" lon="3.52135">
        <ele>190.4</ele>
        <time>2023-08-18T12:45:31Z</time>
      </trkpt>
      <trkpt lat="49.53486" lon="3.52146">
        <ele>190.4</ele>
        <time>2023-08-18T12:45:36Z</time>
      </trkpt>
      <trkpt lat="49.53487" lon="3.52152">
        <ele>190.4</ele>
        <time>2023-08-18T12:45:41Z</time>
      </trkpt>
      <trkpt lat="49.53485" lon="3.5215">
        <ele>190.4</ele>
        <time>2023-08-18T12:45:45Z</time>
      </trkpt>
      <trkpt lat="49.53485" lon="3.52149">
        <ele>190.4</ele>
        <time>2023-08-18T12:45:46Z</time>
      </trkpt>
      <trkpt lat="49.53484" lon="3.52143">
        <ele>190.4</ele>
        <time>2023-08-18T12:45:51Z</time>
      </trkpt>
      <trkpt lat="49.53484" lon="3.5214">
        <ele>190.4</ele>
        <time>2023-08-18T12:45:57Z</time>
      </trkpt>
      <trkpt lat="49.53484" lon="3.5214">
        <ele>190.4</ele>
        <time>2023-08-18T12:46:05Z</time>
      </trkpt>
      <trkpt lat="49.53484" lon="3.5214">
        <ele>190.4</ele>
        <time>2023-08-18T12:46:14Z</time>
      </trkpt>
      <trkpt lat="49.53484" lon="3.5214">
        <ele>190.4</ele>
        <time>2023-08-18T12:46:22Z</time>
      </trkpt>
      <trkpt lat="49.53483" lon="3.52142">
        <ele>190.4</ele>
        <time>2023-08-18T12:46:30Z</time>
      </trkpt>
      <trkpt lat="49.53481" lon="3.52149">
        <ele>190.4</ele>
        <time>2023-08-18T12:46:36Z</time>
      </trkpt>
      <trkpt lat="49.53482" lon="3.52149">
        <ele>190.4</ele>
        <time>2023-08-18T12:46:42Z</time>
      </trkpt>
      <trkpt lat="49.53481" lon="3.52149">
        <ele>190.4</ele>
        <time>2023-08-18T12:46:50Z</time>
      </trkpt>
      <trkpt lat="49.53481" lon="3.52151">
        <ele>190.4</ele>
        <time>2023-08-18T12:46:55Z</time>
      </trkpt>
      <trkpt lat="49.53481" lon="3.5215">
        <ele>190.4</ele>
        <time>2023-08-18T12:47:00Z</time>
      </trkpt>
      <trkpt lat="49.53481" lon="3.52148">
        <ele>190.4</ele>
        <time>2023-08-18T12:47:05Z</time>
      </trkpt>
      <trkpt lat="49.53482" lon="3.52146">
        <ele>190.4</ele>
        <time>2023-08-18T12:47:10Z</time>
      </trkpt>
      <trkpt lat="49.53482" lon="3.52152">
        <ele>190.4</ele>
        <time>2023-08-18T12:47:15Z</time>
      </trkpt>
      <trkpt lat="49.53482" lon="3.52152">
        <ele>190.4</ele>
        <time>2023-08-18T12:47:22Z</time>
      </trkpt>
      <trkpt lat="49.53482" lon="3.52149">
        <ele>190.4</ele>
        <time>2023-08-18T12:47:23Z</time>
      </trkpt>
      <trkpt lat="49.53483" lon="3.52145">
        <ele>190.4</ele>
        <time>2023-08-18T12:47:26Z</time>
      </trkpt>
      <trkpt lat="49.53482" lon="3.52139">
        <ele>190.4</ele>
        <time>2023-08-18T12:47:30Z</time>
      </trkpt>
      <trkpt lat="49.53481" lon="3.5214">
        <ele>190.4</ele>
        <time>2023-08-18T12:47:35Z</time>
      </trkpt>
      <trkpt lat="49.53481" lon="3.5214">
        <ele>190.4</ele>
        <time>2023-08-18T12:47:45Z</time>
      </trkpt>
      <trkpt lat="49.53481" lon="3.5214">
        <ele>190.4</ele>
        <time>2023-08-18T12:47:59Z</time>
      </trkpt>
      <trkpt lat="49.53481" lon="3.5214">
        <ele>190.4</ele>
        <time>2023-08-18T12:48:15Z</time>
      </trkpt>
      <trkpt lat="49.53481" lon="3.5214">
        <ele>190.4</ele>
        <time>2023-08-18T12:48:30Z</time>
      </trkpt>
      <trkpt lat="49.53481" lon="3.5214">
        <ele>190.4</ele>
        <time>2023-08-18T12:48:47Z</time>
      </trkpt>
      <trkpt lat="49.53481" lon="3.5214">
        <ele>190.4</ele>
        <time>2023-08-18T12:49:04Z</time>
      </trkpt>
      <trkpt lat="49.53481" lon="3.52142">
        <ele>190.4</ele>
        <time>2023-08-18T12:49:13Z</time>
      </trkpt>
      <trkpt lat="49.53481" lon="3.52148">
        <ele>190.4</ele>
        <time>2023-08-18T12:49:16Z</time>
      </trkpt>
      <trkpt lat="49.53481" lon="3.52152">
        <ele>190.4</ele>
        <time>2023-08-18T12:49:20Z</time>
      </trkpt>
      <trkpt lat="49.53481" lon="3.52152">
        <ele>190.4</ele>
        <time>2023-08-18T12:49:29Z</time>
      </trkpt>
      <trkpt lat="49.53483" lon="3.52154">
        <ele>190.4</ele>
        <time>2023-08-18T12:49:35Z</time>
      </trkpt>
      <trkpt lat="49.53487" lon="3.52159">
        <ele>190.4</ele>
        <time>2023-08-18T12:49:42Z</time>
      </trkpt>
      <trkpt lat="49.5349" lon="3.52166">
        <ele>190.4</ele>
        <time>2023-08-18T12:49:49Z</time>
      </trkpt>
      <trkpt lat="49.53493" lon="3.52172">
        <ele>190.4</ele>
        <time>2023-08-18T12:49:56Z</time>
      </trkpt>
      <trkpt lat="49.53494" lon="3.52174">
        <ele>190.4</ele>
        <time>2023-08-18T12:50:02Z</time>
      </trkpt>
      <trkpt lat="49.53496" lon="3.52179">
        <ele>190.4</ele>
        <time>2023-08-18T12:50:05Z</time>
      </trkpt>
      <trkpt lat="49.53497" lon="3.52181">
        <ele>190.4</ele>
        <time>2023-08-18T12:50:08Z</time>
      </trkpt>
      <trkpt lat="49.53498" lon="3.52182">
        <ele>190.4</ele>
        <time>2023-08-18T12:50:10Z</time>
      </trkpt>
      <trkpt lat="49.53498" lon="3.52184">
        <ele>190.4</ele>
        <time>2023-08-18T12:50:13Z</time>
      </trkpt>
      <trkpt lat="49.53499" lon="3.52187">
        <ele>190.4</ele>
        <time>2023-08-18T12:50:19Z</time>
      </trkpt>
      <trkpt lat="49.535" lon="3.52186">
        <ele>190.4</ele>
        <time>2023-08-18T12:50:25Z</time>
      </trkpt>
      <trkpt lat="49.53501" lon="3.52185">
        <ele>190.4</ele>
        <time>2023-08-18T12:50:31Z</time>
      </trkpt>
      <trkpt lat="49.53502" lon="3.52188">
        <ele>190.4</ele>
        <time>2023-08-18T12:50:43Z</time>
      </trkpt>
      <trkpt lat="49.53502" lon="3.52191">
        <ele>190.4</ele>
        <time>2023-08-18T12:50:50Z</time>
      </trkpt>
      <trkpt lat="49.53502" lon="3.52191">
        <ele>190.4</ele>
        <time>2023-08-18T12:51:04Z</time>
      </trkpt>
      <trkpt lat="49.53501" lon="3.5219">
        <ele>190.4</ele>
        <time>2023-08-18T12:51:10Z</time>
      </trkpt>
      <trkpt lat="49.53501" lon="3.5219">
        <ele>190.4</ele>
        <time>2023-08-18T12:51:17Z</time>
      </trkpt>
      <trkpt lat="49.53501" lon="3.5219">
        <ele>190.4</ele>
        <time>2023-08-18T12:51:33Z</time>
      </trkpt>
      <trkpt lat="49.53502" lon="3.52191">
        <ele>190.4</ele>
        <time>2023-08-18T12:51:39Z</time>
      </trkpt>
      <trkpt lat="49.53503" lon="3.52199">
        <ele>190.4</ele>
        <time>2023-08-18T12:51:44Z</time>
      </trkpt>
      <trkpt lat="49.53508" lon="3.52212">
        <ele>190.4</ele>
        <time>2023-08-18T12:51:50Z</time>
      </trkpt>
      <trkpt lat="49.53512" lon="3.52222">
        <ele>190.4</ele>
        <time>2023-08-18T12:51:54Z</time>
      </trkpt>
      <trkpt lat="49.53515" lon="3.52228">
        <ele>190.4</ele>
        <time>2023-08-18T12:51:57Z</time>
      </trkpt>
      <trkpt lat="49.53519" lon="3.52238">
        <ele>190.4</ele>
        <time>2023-08-18T12:52:05Z</time>
      </trkpt>
      <trkpt lat="49.53524" lon="3.52243">
        <ele>190.4</ele>
        <time>2023-08-18T12:52:10Z</time>
      </trkpt>
      <trkpt lat="49.53528" lon="3.52243">
        <ele>190.4</ele>
        <time>2023-08-18T12:52:12Z</time>
      </trkpt>
      <trkpt lat="49.53532" lon="3.52246">
        <ele>190.4</ele>
        <time>2023-08-18T12:52:15Z</time>
      </trkpt>
      <trkpt lat="49.53532" lon="3.52247">
        <ele>190.4</ele>
        <time>2023-08-18T12:52:16Z</time>
      </trkpt>
      <trkpt lat="49.53533" lon="3.52249">
        <ele>190.4</ele>
        <time>2023-08-18T12:52:17Z</time>
      </trkpt>
      <trkpt lat="49.53537" lon="3.52261">
        <ele>190.4</ele>
        <time>2023-08-18T12:52:24Z</time>
      </trkpt>
      <trkpt lat="49.53537" lon="3.52265">
        <ele>190.4</ele>
        <time>2023-08-18T12:52:25Z</time>
      </trkpt>
      <trkpt lat="49.53538" lon="3.52276">
        <ele>190.4</ele>
        <time>2023-08-18T12:52:30Z</time>
      </trkpt>
      <trkpt lat="49.53541" lon="3.52288">
        <ele>190.4</ele>
        <time>2023-08-18T12:52:36Z</time>
      </trkpt>
      <trkpt lat="49.53543" lon="3.52296">
        <ele>190.4</ele>
        <time>2023-08-18T12:52:40Z</time>
      </trkpt>
      <trkpt lat="49.53545" lon="3.52297">
        <ele>190.4</ele>
        <time>2023-08-18T12:52:42Z</time>
      </trkpt>
      <trkpt lat="49.5355" lon="3.52305">
        <ele>190.4</ele>
        <time>2023-08-18T12:52:50Z</time>
      </trkpt>
      <trkpt lat="49.53551" lon="3.52306">
        <ele>190.4</ele>
        <time>2023-08-18T12:52:51Z</time>
      </trkpt>
      <trkpt lat="49.53557" lon="3.52313">
        <ele>190.4</ele>
        <time>2023-08-18T12:52:56Z</time>
      </trkpt>
      <trkpt lat="49.5356" lon="3.52321">
        <ele>190.4</ele>
        <time>2023-08-18T12:53:02Z</time>
      </trkpt>
      <trkpt lat="49.53564" lon="3.5233">
        <ele>190.4</ele>
        <time>2023-08-18T12:53:08Z</time>
      </trkpt>
      <trkpt lat="49.53566" lon="3.52334">
        <ele>190.4</ele>
        <time>2023-08-18T12:53:10Z</time>
      </trkpt>
      <trkpt lat="49.53568" lon="3.52339">
        <ele>190.4</ele>
        <time>2023-08-18T12:53:12Z</time>
      </trkpt>
      <trkpt lat="49.5357" lon="3.52347">
        <ele>190.4</ele>
        <time>2023-08-18T12:53:15Z</time>
      </trkpt>
      <trkpt lat="49.53572" lon="3.52356">
        <ele>190.4</ele>
        <time>2023-08-18T12:53:22Z</time>
      </trkpt>
      <trkpt lat="49.53576" lon="3.52359">
        <ele>190.4</ele>
        <time>2023-08-18T12:53:27Z</time>
      </trkpt>
      <trkpt lat="49.5358" lon="3.52359">
        <ele>190.4</ele>
        <time>2023-08-18T12:53:29Z</time>
      </trkpt>
      <trkpt lat="49.53583" lon="3.52362">
        <ele>190.4</ele>
        <time>2023-08-18T12:53:35Z</time>
      </trkpt>
      <trkpt lat="49.53592" lon="3.52366">
        <ele>190.4</ele>
        <time>2023-08-18T12:53:40Z</time>
      </trkpt>
      <trkpt lat="49.53593" lon="3.52366">
        <ele>190</ele>
        <time>2023-08-18T12:53:41Z</time>
      </trkpt>
      <trkpt lat="49.53594" lon="3.52367">
        <ele>189.6</ele>
        <time>2023-08-18T12:53:42Z</time>
      </trkpt>
      <trkpt lat="49.53595" lon="3.52367">
        <ele>189.2</ele>
        <time>2023-08-18T12:53:43Z</time>
      </trkpt>
      <trkpt lat="49.53595" lon="3.52368">
        <ele>188.8</ele>
        <time>2023-08-18T12:53:44Z</time>
      </trkpt>
      <trkpt lat="49.53596" lon="3.52369">
        <ele>188.4</ele>
        <time>2023-08-18T12:53:45Z</time>
      </trkpt>
      <trkpt lat="49.53598" lon="3.52371">
        <ele>188.4</ele>
        <time>2023-08-18T12:53:52Z</time>
      </trkpt>
      <trkpt lat="49.53599" lon="3.52372">
        <ele>188.4</ele>
        <time>2023-08-18T12:53:59Z</time>
      </trkpt>
      <trkpt lat="49.53599" lon="3.52372">
        <ele>188.4</ele>
        <time>2023-08-18T12:54:02Z</time>
      </trkpt>
      <trkpt lat="49.53599" lon="3.52372">
        <ele>188.4</ele>
        <time>2023-08-18T12:54:07Z</time>
      </trkpt>
      <trkpt lat="49.53599" lon="3.52372">
        <ele>188.4</ele>
        <time>2023-08-18T12:54:17Z</time>
      </trkpt>
      <trkpt lat="49.53599" lon="3.52372">
        <ele>188.4</ele>
        <time>2023-08-18T12:54:28Z</time>
      </trkpt>
      <trkpt lat="49.53599" lon="3.52372">
        <ele>188.4</ele>
        <time>2023-08-18T12:54:36Z</time>
      </trkpt>
      <trkpt lat="49.53599" lon="3.52374">
        <ele>188.4</ele>
        <time>2023-08-18T12:54:46Z</time>
      </trkpt>
      <trkpt lat="49.53598" lon="3.52374">
        <ele>188.4</ele>
        <time>2023-08-18T12:54:58Z</time>
      </trkpt>
      <trkpt lat="49.53607" lon="3.52376">
        <ele>188.4</ele>
        <time>2023-08-18T12:55:04Z</time>
      </trkpt>
      <trkpt lat="49.53613" lon="3.52382">
        <ele>188.4</ele>
        <time>2023-08-18T12:55:10Z</time>
      </trkpt>
      <trkpt lat="49.53616" lon="3.52395">
        <ele>188.4</ele>
        <time>2023-08-18T12:55:16Z</time>
      </trkpt>
      <trkpt lat="49.53621" lon="3.52404">
        <ele>188.4</ele>
        <time>2023-08-18T12:55:23Z</time>
      </trkpt>
      <trkpt lat="49.53627" lon="3.52415">
        <ele>188.4</ele>
        <time>2023-08-18T12:55:30Z</time>
      </trkpt>
      <trkpt lat="49.5363" lon="3.52427">
        <ele>188.4</ele>
        <time>2023-08-18T12:55:35Z</time>
      </trkpt>
      <trkpt lat="49.5363" lon="3.52429">
        <ele>188.4</ele>
        <time>2023-08-18T12:55:36Z</time>
      </trkpt>
      <trkpt lat="49.53633" lon="3.52439">
        <ele>188.4</ele>
        <time>2023-08-18T12:55:41Z</time>
      </trkpt>
      <trkpt lat="49.53635" lon="3.52446">
        <ele>188.4</ele>
        <time>2023-08-18T12:55:45Z</time>
      </trkpt>
      <trkpt lat="49.53636" lon="3.5245">
        <ele>188.4</ele>
        <time>2023-08-18T12:55:47Z</time>
      </trkpt>
      <trkpt lat="49.5364" lon="3.52454">
        <ele>188.4</ele>
        <time>2023-08-18T12:55:50Z</time>
      </trkpt>
      <trkpt lat="49.5364" lon="3.52456">
        <ele>188.4</ele>
        <time>2023-08-18T12:55:52Z</time>
      </trkpt>
      <trkpt lat="49.53644" lon="3.5247">
        <ele>188.4</ele>
        <time>2023-08-18T12:55:59Z</time>
      </trkpt>
      <trkpt lat="49.53648" lon="3.52483">
        <ele>188.4</ele>
        <time>2023-08-18T12:56:05Z</time>
      </trkpt>
      <trkpt lat="49.53648" lon="3.52485">
        <ele>188</ele>
        <time>2023-08-18T12:56:07Z</time>
      </trkpt>
      <trkpt lat="49.53649" lon="3.52487">
        <ele>187.6</ele>
        <time>2023-08-18T12:56:08Z</time>
      </trkpt>
      <trkpt lat="49.53649" lon="3.52488">
        <ele>187.2</ele>
        <time>2023-08-18T12:56:09Z</time>
      </trkpt>
      <trkpt lat="49.53649" lon="3.52489">
        <ele>186.8</ele>
        <time>2023-08-18T12:56:10Z</time>
      </trkpt>
      <trkpt lat="49.53649" lon="3.52489">
        <ele>186.4</ele>
        <time>2023-08-18T12:56:11Z</time>
      </trkpt>
      <trkpt lat="49.53652" lon="3.52498">
        <ele>186.4</ele>
        <time>2023-08-18T12:56:16Z</time>
      </trkpt>
      <trkpt lat="49.53654" lon="3.52503">
        <ele>186.4</ele>
        <time>2023-08-18T12:56:18Z</time>
      </trkpt>
      <trkpt lat="49.53658" lon="3.52512">
        <ele>186.4</ele>
        <time>2023-08-18T12:56:24Z</time>
      </trkpt>
      <trkpt lat="49.53661" lon="3.52525">
        <ele>186.4</ele>
        <time>2023-08-18T12:56:31Z</time>
      </trkpt>
      <trkpt lat="49.53663" lon="3.52528">
        <ele>186.4</ele>
        <time>2023-08-18T12:56:37Z</time>
      </trkpt>
      <trkpt lat="49.53667" lon="3.52535">
        <ele>186.4</ele>
        <time>2023-08-18T12:56:42Z</time>
      </trkpt>
      <trkpt lat="49.53669" lon="3.52539">
        <ele>186.4</ele>
        <time>2023-08-18T12:56:44Z</time>
      </trkpt>
      <trkpt lat="49.53673" lon="3.52548">
        <ele>186</ele>
        <time>2023-08-18T12:56:50Z</time>
      </trkpt>
      <trkpt lat="49.53673" lon="3.52549">
        <ele>185.6</ele>
        <time>2023-08-18T12:56:51Z</time>
      </trkpt>
      <trkpt lat="49.53673" lon="3.5255">
        <ele>185.2</ele>
        <time>2023-08-18T12:56:52Z</time>
      </trkpt>
      <trkpt lat="49.53673" lon="3.5255">
        <ele>184.8</ele>
        <time>2023-08-18T12:56:53Z</time>
      </trkpt>
      <trkpt lat="49.53675" lon="3.52552">
        <ele>184.4</ele>
        <time>2023-08-18T12:56:54Z</time>
      </trkpt>
      <trkpt lat="49.53676" lon="3.52555">
        <ele>184.4</ele>
        <time>2023-08-18T12:56:56Z</time>
      </trkpt>
      <trkpt lat="49.53677" lon="3.52564">
        <ele>184.4</ele>
        <time>2023-08-18T12:57:02Z</time>
      </trkpt>
      <trkpt lat="49.53677" lon="3.52573">
        <ele>184.4</ele>
        <time>2023-08-18T12:57:08Z</time>
      </trkpt>
      <trkpt lat="49.53678" lon="3.52581">
        <ele>184.4</ele>
        <time>2023-08-18T12:57:16Z</time>
      </trkpt>
      <trkpt lat="49.53678" lon="3.52581">
        <ele>184.4</ele>
        <time>2023-08-18T12:57:23Z</time>
      </trkpt>
      <trkpt lat="49.53678" lon="3.52581">
        <ele>184.4</ele>
        <time>2023-08-18T12:57:32Z</time>
      </trkpt>
      <trkpt lat="49.53678" lon="3.52581">
        <ele>184.4</ele>
        <time>2023-08-18T12:57:40Z</time>
      </trkpt>
      <trkpt lat="49.53677" lon="3.52586">
        <ele>184.4</ele>
        <time>2023-08-18T12:57:48Z</time>
      </trkpt>
      <trkpt lat="49.53677" lon="3.52586">
        <ele>184.4</ele>
        <time>2023-08-18T12:57:57Z</time>
      </trkpt>
      <trkpt lat="49.53678" lon="3.52586">
        <ele>184.4</ele>
        <time>2023-08-18T12:58:08Z</time>
      </trkpt>
      <trkpt lat="49.53679" lon="3.52586">
        <ele>184.4</ele>
        <time>2023-08-18T12:58:11Z</time>
      </trkpt>
      <trkpt lat="49.53679" lon="3.52586">
        <ele>184.4</ele>
        <time>2023-08-18T12:58:14Z</time>
      </trkpt>
      <trkpt lat="49.53678" lon="3.52585">
        <ele>184.4</ele>
        <time>2023-08-18T12:58:22Z</time>
      </trkpt>
      <trkpt lat="49.53679" lon="3.52585">
        <ele>184.4</ele>
        <time>2023-08-18T12:58:32Z</time>
      </trkpt>
      <trkpt lat="49.53679" lon="3.52584">
        <ele>184.4</ele>
        <time>2023-08-18T12:58:42Z</time>
      </trkpt>
      <trkpt lat="49.5368" lon="3.52582">
        <ele>184.4</ele>
        <time>2023-08-18T12:58:50Z</time>
      </trkpt>
      <trkpt lat="49.53679" lon="3.52575">
        <ele>184.4</ele>
        <time>2023-08-18T12:58:56Z</time>
      </trkpt>
      <trkpt lat="49.53683" lon="3.5257">
        <ele>184.4</ele>
        <time>2023-08-18T12:59:03Z</time>
      </trkpt>
      <trkpt lat="49.53683" lon="3.5257">
        <ele>184.4</ele>
        <time>2023-08-18T12:59:13Z</time>
      </trkpt>
      <trkpt lat="49.53683" lon="3.5257">
        <ele>184.4</ele>
        <time>2023-08-18T12:59:23Z</time>
      </trkpt>
      <trkpt lat="49.53683" lon="3.5257">
        <ele>184.4</ele>
        <time>2023-08-18T12:59:32Z</time>
      </trkpt>
      <trkpt lat="49.53683" lon="3.5257">
        <ele>184.4</ele>
        <time>2023-08-18T12:59:45Z</time>
      </trkpt>
      <trkpt lat="49.53683" lon="3.5257">
        <ele>184.4</ele>
        <time>2023-08-18T13:00:00Z</time>
      </trkpt>
      <trkpt lat="49.53683" lon="3.5257">
        <ele>184.4</ele>
        <time>2023-08-18T13:00:12Z</time>
      </trkpt>
      <trkpt lat="49.53682" lon="3.5257">
        <ele>184.4</ele>
        <time>2023-08-18T13:00:25Z</time>
      </trkpt>
      <trkpt lat="49.5368" lon="3.52577">
        <ele>184.4</ele>
        <time>2023-08-18T13:00:31Z</time>
      </trkpt>
      <trkpt lat="49.5368" lon="3.52581">
        <ele>184.4</ele>
        <time>2023-08-18T13:00:32Z</time>
      </trkpt>
      <trkpt lat="49.53679" lon="3.52584">
        <ele>184.4</ele>
        <time>2023-08-18T13:00:36Z</time>
      </trkpt>
      <trkpt lat="49.53681" lon="3.52598">
        <ele>184.4</ele>
        <time>2023-08-18T13:00:43Z</time>
      </trkpt>
      <trkpt lat="49.53681" lon="3.52601">
        <ele>184.4</ele>
        <time>2023-08-18T13:00:44Z</time>
      </trkpt>
      <trkpt lat="49.53683" lon="3.52611">
        <ele>184.4</ele>
        <time>2023-08-18T13:00:48Z</time>
      </trkpt>
      <trkpt lat="49.53683" lon="3.52614">
        <ele>184.4</ele>
        <time>2023-08-18T13:00:49Z</time>
      </trkpt>
      <trkpt lat="49.53683" lon="3.52621">
        <ele>184.4</ele>
        <time>2023-08-18T13:00:52Z</time>
      </trkpt>
      <trkpt lat="49.53685" lon="3.52624">
        <ele>184.4</ele>
        <time>2023-08-18T13:00:55Z</time>
      </trkpt>
      <trkpt lat="49.53693" lon="3.52631">
        <ele>184.4</ele>
        <time>2023-08-18T13:01:03Z</time>
      </trkpt>
      <trkpt lat="49.53696" lon="3.52635">
        <ele>184.4</ele>
        <time>2023-08-18T13:01:07Z</time>
      </trkpt>
      <trkpt lat="49.53699" lon="3.52639">
        <ele>184.4</ele>
        <time>2023-08-18T13:01:09Z</time>
      </trkpt>
      <trkpt lat="49.53705" lon="3.52645">
        <ele>184.4</ele>
        <time>2023-08-18T13:01:12Z</time>
      </trkpt>
      <trkpt lat="49.5371" lon="3.52649">
        <ele>184.4</ele>
        <time>2023-08-18T13:01:15Z</time>
      </trkpt>
      <trkpt lat="49.53717" lon="3.52655">
        <ele>184.4</ele>
        <time>2023-08-18T13:01:23Z</time>
      </trkpt>
      <trkpt lat="49.53721" lon="3.52659">
        <ele>184.4</ele>
        <time>2023-08-18T13:01:29Z</time>
      </trkpt>
      <trkpt lat="49.53724" lon="3.52664">
        <ele>184.4</ele>
        <time>2023-08-18T13:01:32Z</time>
      </trkpt>
      <trkpt lat="49.53728" lon="3.52667">
        <ele>184.4</ele>
        <time>2023-08-18T13:01:34Z</time>
      </trkpt>
      <trkpt lat="49.53731" lon="3.52669">
        <ele>184.4</ele>
        <time>2023-08-18T13:01:36Z</time>
      </trkpt>
      <trkpt lat="49.53735" lon="3.52674">
        <ele>184.4</ele>
        <time>2023-08-18T13:01:41Z</time>
      </trkpt>
      <trkpt lat="49.53737" lon="3.52677">
        <ele>184.4</ele>
        <time>2023-08-18T13:01:47Z</time>
      </trkpt>
      <trkpt lat="49.53737" lon="3.52677">
        <ele>184</ele>
        <time>2023-08-18T13:01:54Z</time>
      </trkpt>
      <trkpt lat="49.53737" lon="3.52677">
        <ele>183.6</ele>
        <time>2023-08-18T13:01:55Z</time>
      </trkpt>
      <trkpt lat="49.53737" lon="3.52677">
        <ele>183.2</ele>
        <time>2023-08-18T13:01:56Z</time>
      </trkpt>
      <trkpt lat="49.53737" lon="3.52677">
        <ele>182.8</ele>
        <time>2023-08-18T13:01:57Z</time>
      </trkpt>
      <trkpt lat="49.53737" lon="3.52677">
        <ele>182.4</ele>
        <time>2023-08-18T13:01:58Z</time>
      </trkpt>
      <trkpt lat="49.53737" lon="3.52677">
        <ele>182.4</ele>
        <time>2023-08-18T13:02:04Z</time>
      </trkpt>
      <trkpt lat="49.53737" lon="3.52678">
        <ele>182.4</ele>
        <time>2023-08-18T13:02:10Z</time>
      </trkpt>
      <trkpt lat="49.53739" lon="3.5268">
        <ele>182.4</ele>
        <time>2023-08-18T13:02:18Z</time>
      </trkpt>
      <trkpt lat="49.53739" lon="3.5268">
        <ele>182.4</ele>
        <time>2023-08-18T13:02:29Z</time>
      </trkpt>
      <trkpt lat="49.53739" lon="3.5268">
        <ele>182.4</ele>
        <time>2023-08-18T13:02:42Z</time>
      </trkpt>
      <trkpt lat="49.53739" lon="3.5268">
        <ele>182.4</ele>
        <time>2023-08-18T13:02:51Z</time>
      </trkpt>
      <trkpt lat="49.53739" lon="3.5268">
        <ele>182.4</ele>
        <time>2023-08-18T13:03:02Z</time>
      </trkpt>
      <trkpt lat="49.53739" lon="3.5268">
        <ele>182.4</ele>
        <time>2023-08-18T13:03:19Z</time>
      </trkpt>
      <trkpt lat="49.53739" lon="3.5268">
        <ele>182.4</ele>
        <time>2023-08-18T13:03:36Z</time>
      </trkpt>
      <trkpt lat="49.53739" lon="3.5268">
        <ele>182.4</ele>
        <time>2023-08-18T13:03:48Z</time>
      </trkpt>
      <trkpt lat="49.53739" lon="3.5268">
        <ele>182.4</ele>
        <time>2023-08-18T13:04:02Z</time>
      </trkpt>
      <trkpt lat="49.53738" lon="3.52681">
        <ele>182.4</ele>
        <time>2023-08-18T13:04:16Z</time>
      </trkpt>
      <trkpt lat="49.53738" lon="3.52681">
        <ele>182.4</ele>
        <time>2023-08-18T13:04:30Z</time>
      </trkpt>
      <trkpt lat="49.53741" lon="3.52682">
        <ele>182.4</ele>
        <time>2023-08-18T13:04:33Z</time>
      </trkpt>
      <trkpt lat="49.53743" lon="3.5268">
        <ele>182.4</ele>
        <time>2023-08-18T13:04:35Z</time>
      </trkpt>
      <trkpt lat="49.53749" lon="3.52687">
        <ele>182.4</ele>
        <time>2023-08-18T13:04:42Z</time>
      </trkpt>
      <trkpt lat="49.53758" lon="3.52697">
        <ele>182.4</ele>
        <time>2023-08-18T13:04:49Z</time>
      </trkpt>
      <trkpt lat="49.53762" lon="3.527">
        <ele>182.4</ele>
        <time>2023-08-18T13:04:55Z</time>
      </trkpt>
      <trkpt lat="49.53767" lon="3.52708">
        <ele>182.4</ele>
        <time>2023-08-18T13:05:00Z</time>
      </trkpt>
      <trkpt lat="49.53776" lon="3.52713">
        <ele>182.4</ele>
        <time>2023-08-18T13:05:06Z</time>
      </trkpt>
      <trkpt lat="49.5378" lon="3.52718">
        <ele>182.4</ele>
        <time>2023-08-18T13:05:12Z</time>
      </trkpt>
      <trkpt lat="49.53787" lon="3.52723">
        <ele>182.4</ele>
        <time>2023-08-18T13:05:17Z</time>
      </trkpt>
      <trkpt lat="49.53789" lon="3.52724">
        <ele>182.4</ele>
        <time>2023-08-18T13:05:23Z</time>
      </trkpt>
      <trkpt lat="49.53789" lon="3.52724">
        <ele>182.4</ele>
        <time>2023-08-18T13:05:34Z</time>
      </trkpt>
      <trkpt lat="49.53789" lon="3.52724">
        <ele>182.4</ele>
        <time>2023-08-18T13:05:44Z</time>
      </trkpt>
      <trkpt lat="49.5379" lon="3.52724">
        <ele>182.4</ele>
        <time>2023-08-18T13:05:54Z</time>
      </trkpt>
      <trkpt lat="49.5379" lon="3.52724">
        <ele>182.4</ele>
        <time>2023-08-18T13:06:00Z</time>
      </trkpt>
      <trkpt lat="49.5379" lon="3.52724">
        <ele>182.4</ele>
        <time>2023-08-18T13:06:10Z</time>
      </trkpt>
      <trkpt lat="49.53789" lon="3.52725">
        <ele>182.4</ele>
        <time>2023-08-18T13:06:20Z</time>
      </trkpt>
      <trkpt lat="49.53788" lon="3.52725">
        <ele>182.4</ele>
        <time>2023-08-18T13:06:28Z</time>
      </trkpt>
      <trkpt lat="49.53788" lon="3.52725">
        <ele>182.4</ele>
        <time>2023-08-18T13:06:35Z</time>
      </trkpt>
      <trkpt lat="49.53788" lon="3.52725">
        <ele>182.4</ele>
        <time>2023-08-18T13:06:44Z</time>
      </trkpt>
      <trkpt lat="49.53788" lon="3.52725">
        <ele>182.8</ele>
        <time>2023-08-18T13:06:45Z</time>
      </trkpt>
      <trkpt lat="49.53788" lon="3.52725">
        <ele>183.2</ele>
        <time>2023-08-18T13:06:46Z</time>
      </trkpt>
      <trkpt lat="49.53788" lon="3.52725">
        <ele>183.6</ele>
        <time>2023-08-18T13:06:47Z</time>
      </trkpt>
      <trkpt lat="49.53788" lon="3.52725">
        <ele>184.4</ele>
        <time>2023-08-18T13:06:48Z</time>
      </trkpt>
      <trkpt lat="49.53788" lon="3.52725">
        <ele>184.4</ele>
        <time>2023-08-18T13:07:00Z</time>
      </trkpt>
      <trkpt lat="49.53789" lon="3.52724">
        <ele>184.4</ele>
        <time>2023-08-18T13:07:15Z</time>
      </trkpt>
      <trkpt lat="49.53789" lon="3.52724">
        <ele>184.4</ele>
        <time>2023-08-18T13:07:31Z</time>
      </trkpt>
      <trkpt lat="49.53789" lon="3.52724">
        <ele>184.4</ele>
        <time>2023-08-18T13:07:39Z</time>
      </trkpt>
      <trkpt lat="49.53789" lon="3.52724">
        <ele>184.4</ele>
        <time>2023-08-18T13:07:45Z</time>
      </trkpt>
      <trkpt lat="49.53789" lon="3.52724">
        <ele>184.4</ele>
        <time>2023-08-18T13:07:55Z</time>
      </trkpt>
      <trkpt lat="49.53789" lon="3.52724">
        <ele>184.4</ele>
        <time>2023-08-18T13:08:14Z</time>
      </trkpt>
      <trkpt lat="49.5379" lon="3.52724">
        <ele>184.4</ele>
        <time>2023-08-18T13:08:30Z</time>
      </trkpt>
      <trkpt lat="49.5379" lon="3.52724">
        <ele>184.4</ele>
        <time>2023-08-18T13:08:45Z</time>
      </trkpt>
      <trkpt lat="49.53788" lon="3.52726">
        <ele>184.4</ele>
        <time>2023-08-18T13:08:51Z</time>
      </trkpt>
      <trkpt lat="49.53786" lon="3.52725">
        <ele>184.4</ele>
        <time>2023-08-18T13:08:56Z</time>
      </trkpt>
      <trkpt lat="49.53786" lon="3.52725">
        <ele>184.4</ele>
        <time>2023-08-18T13:09:04Z</time>
      </trkpt>
      <trkpt lat="49.53788" lon="3.52729">
        <ele>184.4</ele>
        <time>2023-08-18T13:09:16Z</time>
      </trkpt>
      <trkpt lat="49.53797" lon="3.52734">
        <ele>184.4</ele>
        <time>2023-08-18T13:09:24Z</time>
      </trkpt>
      <trkpt lat="49.538" lon="3.52733">
        <ele>184.4</ele>
        <time>2023-08-18T13:09:29Z</time>
      </trkpt>
      <trkpt lat="49.53801" lon="3.52734">
        <ele>184.4</ele>
        <time>2023-08-18T13:09:37Z</time>
      </trkpt>
      <trkpt lat="49.53801" lon="3.52734">
        <ele>184.4</ele>
        <time>2023-08-18T13:09:42Z</time>
      </trkpt>
      <trkpt lat="49.53801" lon="3.52734">
        <ele>184.4</ele>
        <time>2023-08-18T13:09:53Z</time>
      </trkpt>
      <trkpt lat="49.53801" lon="3.52734">
        <ele>184.4</ele>
        <time>2023-08-18T13:10:01Z</time>
      </trkpt>
      <trkpt lat="49.53801" lon="3.52734">
        <ele>184.4</ele>
        <time>2023-08-18T13:10:11Z</time>
      </trkpt>
      <trkpt lat="49.53801" lon="3.52733">
        <ele>184.4</ele>
        <time>2023-08-18T13:10:19Z</time>
      </trkpt>
      <trkpt lat="49.538" lon="3.52737">
        <ele>184.4</ele>
        <time>2023-08-18T13:10:25Z</time>
      </trkpt>
      <trkpt lat="49.53799" lon="3.52738">
        <ele>184.4</ele>
        <time>2023-08-18T13:10:30Z</time>
      </trkpt>
      <trkpt lat="49.53799" lon="3.52737">
        <ele>184.4</ele>
        <time>2023-08-18T13:10:36Z</time>
      </trkpt>
      <trkpt lat="49.53799" lon="3.52737">
        <ele>184.4</ele>
        <time>2023-08-18T13:10:41Z</time>
      </trkpt>
      <trkpt lat="49.53799" lon="3.52738">
        <ele>184.4</ele>
        <time>2023-08-18T13:10:48Z</time>
      </trkpt>
      <trkpt lat="49.53799" lon="3.52738">
        <ele>184.4</ele>
        <time>2023-08-18T13:10:57Z</time>
      </trkpt>
      <trkpt lat="49.538" lon="3.52737">
        <ele>184.4</ele>
        <time>2023-08-18T13:11:05Z</time>
      </trkpt>
      <trkpt lat="49.538" lon="3.52737">
        <ele>184.4</ele>
        <time>2023-08-18T13:11:13Z</time>
      </trkpt>
      <trkpt lat="49.53801" lon="3.52737">
        <ele>184.4</ele>
        <time>2023-08-18T13:11:22Z</time>
      </trkpt>
      <trkpt lat="49.53802" lon="3.52737">
        <ele>184.4</ele>
        <time>2023-08-18T13:11:28Z</time>
      </trkpt>
      <trkpt lat="49.53804" lon="3.52734">
        <ele>184.4</ele>
        <time>2023-08-18T13:11:29Z</time>
      </trkpt>
      <trkpt lat="49.53808" lon="3.5273">
        <ele>184.4</ele>
        <time>2023-08-18T13:11:33Z</time>
      </trkpt>
      <trkpt lat="49.53812" lon="3.52728">
        <ele>184.4</ele>
        <time>2023-08-18T13:11:36Z</time>
      </trkpt>
      <trkpt lat="49.53814" lon="3.52729">
        <ele>184.4</ele>
        <time>2023-08-18T13:11:38Z</time>
      </trkpt>
      <trkpt lat="49.53821" lon="3.52735">
        <ele>184.4</ele>
        <time>2023-08-18T13:11:46Z</time>
      </trkpt>
      <trkpt lat="49.53823" lon="3.52736">
        <ele>184.4</ele>
        <time>2023-08-18T13:11:52Z</time>
      </trkpt>
      <trkpt lat="49.53827" lon="3.52738">
        <ele>184.4</ele>
        <time>2023-08-18T13:11:58Z</time>
      </trkpt>
      <trkpt lat="49.53838" lon="3.52742">
        <ele>184.4</ele>
        <time>2023-08-18T13:12:06Z</time>
      </trkpt>
      <trkpt lat="49.53839" lon="3.52747">
        <ele>184.4</ele>
        <time>2023-08-18T13:12:13Z</time>
      </trkpt>
      <trkpt lat="49.53839" lon="3.52748">
        <ele>184.4</ele>
        <time>2023-08-18T13:12:21Z</time>
      </trkpt>
      <trkpt lat="49.5384" lon="3.52749">
        <ele>184.4</ele>
        <time>2023-08-18T13:12:26Z</time>
      </trkpt>
      <trkpt lat="49.5384" lon="3.52749">
        <ele>184.4</ele>
        <time>2023-08-18T13:12:34Z</time>
      </trkpt>
      <trkpt lat="49.5384" lon="3.5275">
        <ele>184.4</ele>
        <time>2023-08-18T13:12:48Z</time>
      </trkpt>
      <trkpt lat="49.53841" lon="3.52747">
        <ele>184.4</ele>
        <time>2023-08-18T13:12:52Z</time>
      </trkpt>
      <trkpt lat="49.53844" lon="3.52746">
        <ele>184.4</ele>
        <time>2023-08-18T13:13:00Z</time>
      </trkpt>
      <trkpt lat="49.53845" lon="3.52744">
        <ele>184.4</ele>
        <time>2023-08-18T13:13:07Z</time>
      </trkpt>
      <trkpt lat="49.53845" lon="3.52744">
        <ele>184.4</ele>
        <time>2023-08-18T13:13:14Z</time>
      </trkpt>
      <trkpt lat="49.53845" lon="3.52744">
        <ele>184.4</ele>
        <time>2023-08-18T13:13:24Z</time>
      </trkpt>
      <trkpt lat="49.53845" lon="3.52744">
        <ele>184.4</ele>
        <time>2023-08-18T13:13:33Z</time>
      </trkpt>
      <trkpt lat="49.53843" lon="3.52745">
        <ele>184.4</ele>
        <time>2023-08-18T13:13:41Z</time>
      </trkpt>
      <trkpt lat="49.53843" lon="3.52745">
        <ele>184.4</ele>
        <time>2023-08-18T13:13:53Z</time>
      </trkpt>
      <trkpt lat="49.53843" lon="3.52745">
        <ele>184.4</ele>
        <time>2023-08-18T13:14:06Z</time>
      </trkpt>
      <trkpt lat="49.53843" lon="3.52745">
        <ele>184.4</ele>
        <time>2023-08-18T13:14:17Z</time>
      </trkpt>
      <trkpt lat="49.53844" lon="3.52748">
        <ele>184.4</ele>
        <time>2023-08-18T13:14:30Z</time>
      </trkpt>
      <trkpt lat="49.53842" lon="3.52747">
        <ele>184.4</ele>
        <time>2023-08-18T13:14:38Z</time>
      </trkpt>
      <trkpt lat="49.53842" lon="3.52747">
        <ele>184.4</ele>
        <time>2023-08-18T13:14:46Z</time>
      </trkpt>
      <trkpt lat="49.53842" lon="3.52746">
        <ele>184.4</ele>
        <time>2023-08-18T13:14:56Z</time>
      </trkpt>
      <trkpt lat="49.53842" lon="3.52745">
        <ele>184.4</ele>
        <time>2023-08-18T13:15:04Z</time>
      </trkpt>
      <trkpt lat="49.53842" lon="3.52745">
        <ele>184.4</ele>
        <time>2023-08-18T13:15:15Z</time>
      </trkpt>
      <trkpt lat="49.53842" lon="3.52745">
        <ele>184.4</ele>
        <time>2023-08-18T13:15:28Z</time>
      </trkpt>
      <trkpt lat="49.53842" lon="3.52745">
        <ele>184.4</ele>
        <time>2023-08-18T13:15:37Z</time>
      </trkpt>
      <trkpt lat="49.53842" lon="3.52746">
        <ele>184.4</ele>
        <time>2023-08-18T13:15:53Z</time>
      </trkpt>
      <trkpt lat="49.53842" lon="3.52746">
        <ele>184.4</ele>
        <time>2023-08-18T13:16:11Z</time>
      </trkpt>
      <trkpt lat="49.53842" lon="3.52746">
        <ele>184.4</ele>
        <time>2023-08-18T13:16:26Z</time>
      </trkpt>
      <trkpt lat="49.53842" lon="3.52746">
        <ele>184.4</ele>
        <time>2023-08-18T13:16:43Z</time>
      </trkpt>
      <trkpt lat="49.53843" lon="3.52746">
        <ele>184.4</ele>
        <time>2023-08-18T13:16:51Z</time>
      </trkpt>
      <trkpt lat="49.5385" lon="3.52744">
        <ele>184.4</ele>
        <time>2023-08-18T13:16:59Z</time>
      </trkpt>
      <trkpt lat="49.53859" lon="3.5274">
        <ele>184.4</ele>
        <time>2023-08-18T13:17:05Z</time>
      </trkpt>
      <trkpt lat="49.53862" lon="3.52741">
        <ele>184.4</ele>
        <time>2023-08-18T13:17:09Z</time>
      </trkpt>
      <trkpt lat="49.53869" lon="3.52743">
        <ele>184.4</ele>
        <time>2023-08-18T13:17:13Z</time>
      </trkpt>
      <trkpt lat="49.5387" lon="3.52742">
        <ele>184.4</ele>
        <time>2023-08-18T13:17:14Z</time>
      </trkpt>
      <trkpt lat="49.53878" lon="3.52742">
        <ele>184.4</ele>
        <time>2023-08-18T13:17:22Z</time>
      </trkpt>
      <trkpt lat="49.53885" lon="3.5274">
        <ele>184.4</ele>
        <time>2023-08-18T13:17:27Z</time>
      </trkpt>
      <trkpt lat="49.53891" lon="3.52742">
        <ele>184.4</ele>
        <time>2023-08-18T13:17:32Z</time>
      </trkpt>
      <trkpt lat="49.53896" lon="3.52744">
        <ele>184.4</ele>
        <time>2023-08-18T13:17:38Z</time>
      </trkpt>
      <trkpt lat="49.53903" lon="3.52744">
        <ele>184.4</ele>
        <time>2023-08-18T13:17:44Z</time>
      </trkpt>
      <trkpt lat="49.5391" lon="3.52746">
        <ele>184.4</ele>
        <time>2023-08-18T13:17:50Z</time>
      </trkpt>
      <trkpt lat="49.5392" lon="3.52747">
        <ele>184.4</ele>
        <time>2023-08-18T13:17:58Z</time>
      </trkpt>
      <trkpt lat="49.5393" lon="3.5275">
        <ele>184.4</ele>
        <time>2023-08-18T13:18:05Z</time>
      </trkpt>
      <trkpt lat="49.53939" lon="3.52755">
        <ele>184.4</ele>
        <time>2023-08-18T13:18:14Z</time>
      </trkpt>
      <trkpt lat="49.53945" lon="3.52758">
        <ele>184.4</ele>
        <time>2023-08-18T13:18:20Z</time>
      </trkpt>
      <trkpt lat="49.53952" lon="3.52766">
        <ele>184.4</ele>
        <time>2023-08-18T13:18:28Z</time>
      </trkpt>
      <trkpt lat="49.53955" lon="3.52768">
        <ele>184.4</ele>
        <time>2023-08-18T13:18:35Z</time>
      </trkpt>
      <trkpt lat="49.53953" lon="3.52768">
        <ele>184.4</ele>
        <time>2023-08-18T13:18:43Z</time>
      </trkpt>
      <trkpt lat="49.53953" lon="3.52768">
        <ele>184.4</ele>
        <time>2023-08-18T13:18:51Z</time>
      </trkpt>
      <trkpt lat="49.53953" lon="3.52768">
        <ele>184.4</ele>
        <time>2023-08-18T13:19:00Z</time>
      </trkpt>
      <trkpt lat="49.53953" lon="3.52768">
        <ele>184.4</ele>
        <time>2023-08-18T13:19:11Z</time>
      </trkpt>
      <trkpt lat="49.53953" lon="3.52767">
        <ele>184.4</ele>
        <time>2023-08-18T13:19:18Z</time>
      </trkpt>
      <trkpt lat="49.53953" lon="3.52768">
        <ele>184.4</ele>
        <time>2023-08-18T13:19:27Z</time>
      </trkpt>
      <trkpt lat="49.53953" lon="3.52768">
        <ele>184.4</ele>
        <time>2023-08-18T13:19:41Z</time>
      </trkpt>
      <trkpt lat="49.53953" lon="3.52768">
        <ele>184.4</ele>
        <time>2023-08-18T13:19:59Z</time>
      </trkpt>
      <trkpt lat="49.53953" lon="3.52767">
        <ele>184.4</ele>
        <time>2023-08-18T13:20:15Z</time>
      </trkpt>
      <trkpt lat="49.53953" lon="3.52767">
        <ele>184.4</ele>
        <time>2023-08-18T13:20:31Z</time>
      </trkpt>
      <trkpt lat="49.53953" lon="3.52769">
        <ele>184.4</ele>
        <time>2023-08-18T13:20:43Z</time>
      </trkpt>
      <trkpt lat="49.53955" lon="3.5277">
        <ele>184.4</ele>
        <time>2023-08-18T13:20:49Z</time>
      </trkpt>
      <trkpt lat="49.53959" lon="3.52772">
        <ele>184.4</ele>
        <time>2023-08-18T13:20:54Z</time>
      </trkpt>
      <trkpt lat="49.53968" lon="3.52779">
        <ele>184.4</ele>
        <time>2023-08-18T13:21:02Z</time>
      </trkpt>
      <trkpt lat="49.53975" lon="3.52784">
        <ele>184.4</ele>
        <time>2023-08-18T13:21:10Z</time>
      </trkpt>
      <trkpt lat="49.53985" lon="3.5279">
        <ele>184.4</ele>
        <time>2023-08-18T13:21:18Z</time>
      </trkpt>
      <trkpt lat="49.53991" lon="3.52793">
        <ele>184</ele>
        <time>2023-08-18T13:21:23Z</time>
      </trkpt>
      <trkpt lat="49.53991" lon="3.52793">
        <ele>183.6</ele>
        <time>2023-08-18T13:21:24Z</time>
      </trkpt>
      <trkpt lat="49.53992" lon="3.52794">
        <ele>183.2</ele>
        <time>2023-08-18T13:21:25Z</time>
      </trkpt>
      <trkpt lat="49.53993" lon="3.52795">
        <ele>182.8</ele>
        <time>2023-08-18T13:21:26Z</time>
      </trkpt>
      <trkpt lat="49.53993" lon="3.52796">
        <ele>182.4</ele>
        <time>2023-08-18T13:21:27Z</time>
      </trkpt>
      <trkpt lat="49.53994" lon="3.52796">
        <ele>182.4</ele>
        <time>2023-08-18T13:21:32Z</time>
      </trkpt>
      <trkpt lat="49.53995" lon="3.52796">
        <ele>182.4</ele>
        <time>2023-08-18T13:21:43Z</time>
      </trkpt>
      <trkpt lat="49.53996" lon="3.52796">
        <ele>182.4</ele>
        <time>2023-08-18T13:21:49Z</time>
      </trkpt>
      <trkpt lat="49.53997" lon="3.52799">
        <ele>182.4</ele>
        <time>2023-08-18T13:21:55Z</time>
      </trkpt>
      <trkpt lat="49.53997" lon="3.52799">
        <ele>182.4</ele>
        <time>2023-08-18T13:22:04Z</time>
      </trkpt>
      <trkpt lat="49.53999" lon="3.52799">
        <ele>182.4</ele>
        <time>2023-08-18T13:22:11Z</time>
      </trkpt>
      <trkpt lat="49.5401" lon="3.52806">
        <ele>182.4</ele>
        <time>2023-08-18T13:22:19Z</time>
      </trkpt>
      <trkpt lat="49.54016" lon="3.52809">
        <ele>182.4</ele>
        <time>2023-08-18T13:22:26Z</time>
      </trkpt>
      <trkpt lat="49.54026" lon="3.52815">
        <ele>182.4</ele>
        <time>2023-08-18T13:22:33Z</time>
      </trkpt>
      <trkpt lat="49.54031" lon="3.5282">
        <ele>182.4</ele>
        <time>2023-08-18T13:22:40Z</time>
      </trkpt>
      <trkpt lat="49.54037" lon="3.52823">
        <ele>182.4</ele>
        <time>2023-08-18T13:22:45Z</time>
      </trkpt>
      <trkpt lat="49.54047" lon="3.5283">
        <ele>182.4</ele>
        <time>2023-08-18T13:22:52Z</time>
      </trkpt>
      <trkpt lat="49.54053" lon="3.52841">
        <ele>182.4</ele>
        <time>2023-08-18T13:23:00Z</time>
      </trkpt>
      <trkpt lat="49.54061" lon="3.52849">
        <ele>182.4</ele>
        <time>2023-08-18T13:23:07Z</time>
      </trkpt>
      <trkpt lat="49.54066" lon="3.52857">
        <ele>182.4</ele>
        <time>2023-08-18T13:23:13Z</time>
      </trkpt>
      <trkpt lat="49.54073" lon="3.52865">
        <ele>182.4</ele>
        <time>2023-08-18T13:23:21Z</time>
      </trkpt>
      <trkpt lat="49.5408" lon="3.52871">
        <ele>182.4</ele>
        <time>2023-08-18T13:23:28Z</time>
      </trkpt>
      <trkpt lat="49.5408" lon="3.52871">
        <ele>182.4</ele>
        <time>2023-08-18T13:23:37Z</time>
      </trkpt>
      <trkpt lat="49.54077" lon="3.52873">
        <ele>182.4</ele>
        <time>2023-08-18T13:23:44Z</time>
      </trkpt>
      <trkpt lat="49.54074" lon="3.52873">
        <ele>182.4</ele>
        <time>2023-08-18T13:23:49Z</time>
      </trkpt>
      <trkpt lat="49.54081" lon="3.52872">
        <ele>182.4</ele>
        <time>2023-08-18T13:23:54Z</time>
      </trkpt>
      <trkpt lat="49.54081" lon="3.52872">
        <ele>182.4</ele>
        <time>2023-08-18T13:24:00Z</time>
      </trkpt>
      <trkpt lat="49.54079" lon="3.52872">
        <ele>182.4</ele>
        <time>2023-08-18T13:24:07Z</time>
      </trkpt>
      <trkpt lat="49.54079" lon="3.52873">
        <ele>182.4</ele>
        <time>2023-08-18T13:24:15Z</time>
      </trkpt>
      <trkpt lat="49.54077" lon="3.52872">
        <ele>182.4</ele>
        <time>2023-08-18T13:24:23Z</time>
      </trkpt>
      <trkpt lat="49.54077" lon="3.52872">
        <ele>182.4</ele>
        <time>2023-08-18T13:24:34Z</time>
      </trkpt>
      <trkpt lat="49.54077" lon="3.52872">
        <ele>182.4</ele>
        <time>2023-08-18T13:24:45Z</time>
      </trkpt>
      <trkpt lat="49.54078" lon="3.52871">
        <ele>182.4</ele>
        <time>2023-08-18T13:24:46Z</time>
      </trkpt>
      <trkpt lat="49.5408" lon="3.52871">
        <ele>182.4</ele>
        <time>2023-08-18T13:24:49Z</time>
      </trkpt>
      <trkpt lat="49.54082" lon="3.52871">
        <ele>182.4</ele>
        <time>2023-08-18T13:24:55Z</time>
      </trkpt>
      <trkpt lat="49.54081" lon="3.52872">
        <ele>182.4</ele>
        <time>2023-08-18T13:25:02Z</time>
      </trkpt>
      <trkpt lat="49.5408" lon="3.52871">
        <ele>182.4</ele>
        <time>2023-08-18T13:25:03Z</time>
      </trkpt>
      <trkpt lat="49.54076" lon="3.52869">
        <ele>182.4</ele>
        <time>2023-08-18T13:25:07Z</time>
      </trkpt>
      <trkpt lat="49.54075" lon="3.5287">
        <ele>182.4</ele>
        <time>2023-08-18T13:25:14Z</time>
      </trkpt>
      <trkpt lat="49.54075" lon="3.5287">
        <ele>182.4</ele>
        <time>2023-08-18T13:25:29Z</time>
      </trkpt>
      <trkpt lat="49.54075" lon="3.5287">
        <ele>182.4</ele>
        <time>2023-08-18T13:25:49Z</time>
      </trkpt>
      <trkpt lat="49.54075" lon="3.52869">
        <ele>182.4</ele>
        <time>2023-08-18T13:26:02Z</time>
      </trkpt>
      <trkpt lat="49.54075" lon="3.52867">
        <ele>182.4</ele>
        <time>2023-08-18T13:26:08Z</time>
      </trkpt>
      <trkpt lat="49.54078" lon="3.52866">
        <ele>182.4</ele>
        <time>2023-08-18T13:26:15Z</time>
      </trkpt>
      <trkpt lat="49.54082" lon="3.52868">
        <ele>182.4</ele>
        <time>2023-08-18T13:26:21Z</time>
      </trkpt>
      <trkpt lat="49.54083" lon="3.52869">
        <ele>182.4</ele>
        <time>2023-08-18T13:26:31Z</time>
      </trkpt>
      <trkpt lat="49.54083" lon="3.52872">
        <ele>182.4</ele>
        <time>2023-08-18T13:26:38Z</time>
      </trkpt>
      <trkpt lat="49.54084" lon="3.52875">
        <ele>182.4</ele>
        <time>2023-08-18T13:26:47Z</time>
      </trkpt>
      <trkpt lat="49.54084" lon="3.52875">
        <ele>182.4</ele>
        <time>2023-08-18T13:26:56Z</time>
      </trkpt>
      <trkpt lat="49.54084" lon="3.52875">
        <ele>182.4</ele>
        <time>2023-08-18T13:27:03Z</time>
      </trkpt>
      <trkpt lat="49.54084" lon="3.52875">
        <ele>182.4</ele>
        <time>2023-08-18T13:27:13Z</time>
      </trkpt>
      <trkpt lat="49.5408" lon="3.52873">
        <ele>182.4</ele>
        <time>2023-08-18T13:27:21Z</time>
      </trkpt>
      <trkpt lat="49.5408" lon="3.52873">
        <ele>182.4</ele>
        <time>2023-08-18T13:27:25Z</time>
      </trkpt>
      <trkpt lat="49.54081" lon="3.52873">
        <ele>182.4</ele>
        <time>2023-08-18T13:27:31Z</time>
      </trkpt>
      <trkpt lat="49.54085" lon="3.52873">
        <ele>182.4</ele>
        <time>2023-08-18T13:27:38Z</time>
      </trkpt>
      <trkpt lat="49.54084" lon="3.52875">
        <ele>182.4</ele>
        <time>2023-08-18T13:27:42Z</time>
      </trkpt>
      <trkpt lat="49.54087" lon="3.52876">
        <ele>182.4</ele>
        <time>2023-08-18T13:27:52Z</time>
      </trkpt>
      <trkpt lat="49.54092" lon="3.5288">
        <ele>182.4</ele>
        <time>2023-08-18T13:28:00Z</time>
      </trkpt>
      <trkpt lat="49.54092" lon="3.5288">
        <ele>182.4</ele>
        <time>2023-08-18T13:28:13Z</time>
      </trkpt>
      <trkpt lat="49.54094" lon="3.52881">
        <ele>182.4</ele>
        <time>2023-08-18T13:28:19Z</time>
      </trkpt>
      <trkpt lat="49.54099" lon="3.52883">
        <ele>182.4</ele>
        <time>2023-08-18T13:28:25Z</time>
      </trkpt>
      <trkpt lat="49.54104" lon="3.52886">
        <ele>182.4</ele>
        <time>2023-08-18T13:28:32Z</time>
      </trkpt>
      <trkpt lat="49.54112" lon="3.52892">
        <ele>182.4</ele>
        <time>2023-08-18T13:28:40Z</time>
      </trkpt>
      <trkpt lat="49.5412" lon="3.52898">
        <ele>182.4</ele>
        <time>2023-08-18T13:28:48Z</time>
      </trkpt>
      <trkpt lat="49.54127" lon="3.52901">
        <ele>182.4</ele>
        <time>2023-08-18T13:28:54Z</time>
      </trkpt>
      <trkpt lat="49.54133" lon="3.52903">
        <ele>182.4</ele>
        <time>2023-08-18T13:28:59Z</time>
      </trkpt>
      <trkpt lat="49.54135" lon="3.52903">
        <ele>182.4</ele>
        <time>2023-08-18T13:29:01Z</time>
      </trkpt>
      <trkpt lat="49.54138" lon="3.52905">
        <ele>182.8</ele>
        <time>2023-08-18T13:29:06Z</time>
      </trkpt>
      <trkpt lat="49.54138" lon="3.52905">
        <ele>183.2</ele>
        <time>2023-08-18T13:29:07Z</time>
      </trkpt>
      <trkpt lat="49.54138" lon="3.52905">
        <ele>183.6</ele>
        <time>2023-08-18T13:29:08Z</time>
      </trkpt>
      <trkpt lat="49.54139" lon="3.52907">
        <ele>184</ele>
        <time>2023-08-18T13:29:09Z</time>
      </trkpt>
      <trkpt lat="49.5414" lon="3.52908">
        <ele>184.4</ele>
        <time>2023-08-18T13:29:10Z</time>
      </trkpt>
      <trkpt lat="49.54142" lon="3.52909">
        <ele>184.4</ele>
        <time>2023-08-18T13:29:11Z</time>
      </trkpt>
      <trkpt lat="49.54144" lon="3.5291">
        <ele>184.4</ele>
        <time>2023-08-18T13:29:17Z</time>
      </trkpt>
      <trkpt lat="49.54144" lon="3.52911">
        <ele>184.4</ele>
        <time>2023-08-18T13:29:25Z</time>
      </trkpt>
      <trkpt lat="49.54144" lon="3.52909">
        <ele>184.4</ele>
        <time>2023-08-18T13:29:30Z</time>
      </trkpt>
      <trkpt lat="49.54145" lon="3.52911">
        <ele>184.4</ele>
        <time>2023-08-18T13:29:38Z</time>
      </trkpt>
      <trkpt lat="49.54145" lon="3.52911">
        <ele>184.4</ele>
        <time>2023-08-18T13:29:46Z</time>
      </trkpt>
      <trkpt lat="49.54145" lon="3.52911">
        <ele>184.4</ele>
        <time>2023-08-18T13:29:56Z</time>
      </trkpt>
      <trkpt lat="49.54145" lon="3.52911">
        <ele>184.4</ele>
        <time>2023-08-18T13:30:10Z</time>
      </trkpt>
      <trkpt lat="49.54145" lon="3.52911">
        <ele>184.4</ele>
        <time>2023-08-18T13:30:18Z</time>
      </trkpt>
      <trkpt lat="49.54145" lon="3.52911">
        <ele>184.4</ele>
        <time>2023-08-18T13:30:29Z</time>
      </trkpt>
      <trkpt lat="49.54145" lon="3.52914">
        <ele>184.4</ele>
        <time>2023-08-18T13:30:34Z</time>
      </trkpt>
      <trkpt lat="49.54145" lon="3.52914">
        <ele>184.4</ele>
        <time>2023-08-18T13:30:42Z</time>
      </trkpt>
      <trkpt lat="49.54148" lon="3.52912">
        <ele>184.4</ele>
        <time>2023-08-18T13:30:49Z</time>
      </trkpt>
      <trkpt lat="49.54148" lon="3.52912">
        <ele>184.4</ele>
        <time>2023-08-18T13:30:57Z</time>
      </trkpt>
      <trkpt lat="49.54148" lon="3.52912">
        <ele>184.4</ele>
        <time>2023-08-18T13:31:09Z</time>
      </trkpt>
      <trkpt lat="49.54148" lon="3.52912">
        <ele>184.4</ele>
        <time>2023-08-18T13:31:24Z</time>
      </trkpt>
      <trkpt lat="49.54149" lon="3.52912">
        <ele>184.4</ele>
        <time>2023-08-18T13:31:34Z</time>
      </trkpt>
      <trkpt lat="49.54149" lon="3.52912">
        <ele>184.4</ele>
        <time>2023-08-18T13:31:46Z</time>
      </trkpt>
      <trkpt lat="49.54148" lon="3.52914">
        <ele>184.4</ele>
        <time>2023-08-18T13:31:56Z</time>
      </trkpt>
      <trkpt lat="49.54148" lon="3.52915">
        <ele>184.4</ele>
        <time>2023-08-18T13:31:58Z</time>
      </trkpt>
      <trkpt lat="49.5415" lon="3.52919">
        <ele>184.4</ele>
        <time>2023-08-18T13:32:00Z</time>
      </trkpt>
      <trkpt lat="49.54155" lon="3.52919">
        <ele>184.4</ele>
        <time>2023-08-18T13:32:05Z</time>
      </trkpt>
      <trkpt lat="49.54157" lon="3.52919">
        <ele>184.4</ele>
        <time>2023-08-18T13:32:06Z</time>
      </trkpt>
      <trkpt lat="49.54161" lon="3.52919">
        <ele>184.4</ele>
        <time>2023-08-18T13:32:12Z</time>
      </trkpt>
      <trkpt lat="49.5417" lon="3.52919">
        <ele>184.4</ele>
        <time>2023-08-18T13:32:18Z</time>
      </trkpt>
      <trkpt lat="49.54175" lon="3.52925">
        <ele>184.4</ele>
        <time>2023-08-18T13:32:24Z</time>
      </trkpt>
      <trkpt lat="49.54175" lon="3.52927">
        <ele>184.4</ele>
        <time>2023-08-18T13:32:30Z</time>
      </trkpt>
      <trkpt lat="49.54175" lon="3.52929">
        <ele>184.4</ele>
        <time>2023-08-18T13:32:37Z</time>
      </trkpt>
      <trkpt lat="49.54178" lon="3.52932">
        <ele>184.4</ele>
        <time>2023-08-18T13:32:42Z</time>
      </trkpt>
      <trkpt lat="49.54178" lon="3.52932">
        <ele>184.4</ele>
        <time>2023-08-18T13:32:54Z</time>
      </trkpt>
      <trkpt lat="49.54178" lon="3.52932">
        <ele>184.4</ele>
        <time>2023-08-18T13:32:59Z</time>
      </trkpt>
      <trkpt lat="49.54184" lon="3.52934">
        <ele>184.4</ele>
        <time>2023-08-18T13:33:04Z</time>
      </trkpt>
      <trkpt lat="49.54192" lon="3.52935">
        <ele>184.4</ele>
        <time>2023-08-18T13:33:10Z</time>
      </trkpt>
      <trkpt lat="49.54193" lon="3.52935">
        <ele>184.4</ele>
        <time>2023-08-18T13:33:11Z</time>
      </trkpt>
      <trkpt lat="49.54197" lon="3.52934">
        <ele>184.4</ele>
        <time>2023-08-18T13:33:15Z</time>
      </trkpt>
      <trkpt lat="49.542" lon="3.52933">
        <ele>184.4</ele>
        <time>2023-08-18T13:33:21Z</time>
      </trkpt>
      <trkpt lat="49.54201" lon="3.52931">
        <ele>184.4</ele>
        <time>2023-08-18T13:33:25Z</time>
      </trkpt>
      <trkpt lat="49.54201" lon="3.52929">
        <ele>184.4</ele>
        <time>2023-08-18T13:33:29Z</time>
      </trkpt>
      <trkpt lat="49.54203" lon="3.52927">
        <ele>184.4</ele>
        <time>2023-08-18T13:33:35Z</time>
      </trkpt>
      <trkpt lat="49.54203" lon="3.52927">
        <ele>184.4</ele>
        <time>2023-08-18T13:33:44Z</time>
      </trkpt>
      <trkpt lat="49.54203" lon="3.52927">
        <ele>184.8</ele>
        <time>2023-08-18T13:33:54Z</time>
      </trkpt>
      <trkpt lat="49.54203" lon="3.52927">
        <ele>185.2</ele>
        <time>2023-08-18T13:33:55Z</time>
      </trkpt>
      <trkpt lat="49.54203" lon="3.52927">
        <ele>185.6</ele>
        <time>2023-08-18T13:33:56Z</time>
      </trkpt>
      <trkpt lat="49.54203" lon="3.52927">
        <ele>186</ele>
        <time>2023-08-18T13:33:57Z</time>
      </trkpt>
      <trkpt lat="49.54203" lon="3.52927">
        <ele>186.4</ele>
        <time>2023-08-18T13:33:58Z</time>
      </trkpt>
      <trkpt lat="49.54203" lon="3.52927">
        <ele>186.4</ele>
        <time>2023-08-18T13:34:12Z</time>
      </trkpt>
      <trkpt lat="49.54203" lon="3.52927">
        <ele>186.4</ele>
        <time>2023-08-18T13:34:27Z</time>
      </trkpt>
      <trkpt lat="49.54203" lon="3.52927">
        <ele>186.4</ele>
        <time>2023-08-18T13:34:41Z</time>
      </trkpt>
      <trkpt lat="49.54203" lon="3.52927">
        <ele>186.4</ele>
        <time>2023-08-18T13:34:52Z</time>
      </trkpt>
      <trkpt lat="49.54203" lon="3.5293">
        <ele>186.4</ele>
        <time>2023-08-18T13:34:57Z</time>
      </trkpt>
      <trkpt lat="49.54202" lon="3.52934">
        <ele>186.4</ele>
        <time>2023-08-18T13:35:03Z</time>
      </trkpt>
      <trkpt lat="49.54205" lon="3.52936">
        <ele>186.4</ele>
        <time>2023-08-18T13:35:09Z</time>
      </trkpt>
      <trkpt lat="49.54209" lon="3.5294">
        <ele>186.4</ele>
        <time>2023-08-18T13:35:16Z</time>
      </trkpt>
      <trkpt lat="49.54215" lon="3.52945">
        <ele>186.4</ele>
        <time>2023-08-18T13:35:22Z</time>
      </trkpt>
      <trkpt lat="49.54227" lon="3.5295">
        <ele>186.4</ele>
        <time>2023-08-18T13:35:30Z</time>
      </trkpt>
      <trkpt lat="49.54234" lon="3.52954">
        <ele>186.4</ele>
        <time>2023-08-18T13:35:36Z</time>
      </trkpt>
      <trkpt lat="49.54236" lon="3.52953">
        <ele>186.4</ele>
        <time>2023-08-18T13:35:43Z</time>
      </trkpt>
      <trkpt lat="49.54236" lon="3.52953">
        <ele>186.4</ele>
        <time>2023-08-18T13:35:51Z</time>
      </trkpt>
      <trkpt lat="49.54236" lon="3.52953">
        <ele>186.4</ele>
        <time>2023-08-18T13:35:59Z</time>
      </trkpt>
      <trkpt lat="49.54236" lon="3.52957">
        <ele>186.4</ele>
        <time>2023-08-18T13:36:06Z</time>
      </trkpt>
      <trkpt lat="49.54235" lon="3.52959">
        <ele>186.4</ele>
        <time>2023-08-18T13:36:11Z</time>
      </trkpt>
      <trkpt lat="49.54235" lon="3.52959">
        <ele>186.4</ele>
        <time>2023-08-18T13:36:21Z</time>
      </trkpt>
      <trkpt lat="49.54235" lon="3.52959">
        <ele>186.4</ele>
        <time>2023-08-18T13:36:30Z</time>
      </trkpt>
      <trkpt lat="49.54238" lon="3.52961">
        <ele>186.4</ele>
        <time>2023-08-18T13:36:37Z</time>
      </trkpt>
      <trkpt lat="49.5424" lon="3.52961">
        <ele>186.4</ele>
        <time>2023-08-18T13:36:43Z</time>
      </trkpt>
      <trkpt lat="49.54245" lon="3.52963">
        <ele>186.4</ele>
        <time>2023-08-18T13:36:50Z</time>
      </trkpt>
      <trkpt lat="49.54245" lon="3.52962">
        <ele>186.4</ele>
        <time>2023-08-18T13:36:56Z</time>
      </trkpt>
      <trkpt lat="49.54242" lon="3.52964">
        <ele>186.4</ele>
        <time>2023-08-18T13:37:03Z</time>
      </trkpt>
      <trkpt lat="49.54241" lon="3.52964">
        <ele>186.4</ele>
        <time>2023-08-18T13:37:10Z</time>
      </trkpt>
      <trkpt lat="49.54241" lon="3.52964">
        <ele>186.4</ele>
        <time>2023-08-18T13:37:17Z</time>
      </trkpt>
      <trkpt lat="49.54241" lon="3.52964">
        <ele>186.4</ele>
        <time>2023-08-18T13:37:25Z</time>
      </trkpt>
      <trkpt lat="49.54241" lon="3.52964">
        <ele>186.4</ele>
        <time>2023-08-18T13:37:34Z</time>
      </trkpt>
      <trkpt lat="49.54241" lon="3.52965">
        <ele>186.4</ele>
        <time>2023-08-18T13:37:42Z</time>
      </trkpt>
      <trkpt lat="49.5424" lon="3.52964">
        <ele>186.4</ele>
        <time>2023-08-18T13:37:51Z</time>
      </trkpt>
      <trkpt lat="49.54238" lon="3.52963">
        <ele>186.4</ele>
        <time>2023-08-18T13:37:54Z</time>
      </trkpt>
      <trkpt lat="49.54237" lon="3.52962">
        <ele>186.4</ele>
        <time>2023-08-18T13:37:56Z</time>
      </trkpt>
      <trkpt lat="49.54237" lon="3.52955">
        <ele>186.4</ele>
        <time>2023-08-18T13:38:03Z</time>
      </trkpt>
      <trkpt lat="49.5424" lon="3.52952">
        <ele>186.4</ele>
        <time>2023-08-18T13:38:09Z</time>
      </trkpt>
      <trkpt lat="49.54238" lon="3.5296">
        <ele>186.4</ele>
        <time>2023-08-18T13:38:16Z</time>
      </trkpt>
      <trkpt lat="49.54239" lon="3.52962">
        <ele>186.4</ele>
        <time>2023-08-18T13:38:21Z</time>
      </trkpt>
      <trkpt lat="49.54238" lon="3.5296">
        <ele>186.4</ele>
        <time>2023-08-18T13:38:27Z</time>
      </trkpt>
      <trkpt lat="49.54238" lon="3.52958">
        <ele>186.4</ele>
        <time>2023-08-18T13:38:28Z</time>
      </trkpt>
      <trkpt lat="49.54238" lon="3.52957">
        <ele>186.4</ele>
        <time>2023-08-18T13:38:31Z</time>
      </trkpt>
      <trkpt lat="49.54238" lon="3.52957">
        <ele>186.4</ele>
        <time>2023-08-18T13:38:33Z</time>
      </trkpt>
      <trkpt lat="49.54241" lon="3.52951">
        <ele>186.4</ele>
        <time>2023-08-18T13:38:36Z</time>
      </trkpt>
      <trkpt lat="49.5425" lon="3.52944">
        <ele>186.4</ele>
        <time>2023-08-18T13:38:43Z</time>
      </trkpt>
      <trkpt lat="49.54253" lon="3.52944">
        <ele>186.4</ele>
        <time>2023-08-18T13:38:47Z</time>
      </trkpt>
      <trkpt lat="49.5426" lon="3.52942">
        <ele>186.4</ele>
        <time>2023-08-18T13:38:54Z</time>
      </trkpt>
      <trkpt lat="49.54268" lon="3.52938">
        <ele>186.4</ele>
        <time>2023-08-18T13:38:59Z</time>
      </trkpt>
      <trkpt lat="49.54275" lon="3.52943">
        <ele>186.4</ele>
        <time>2023-08-18T13:39:06Z</time>
      </trkpt>
      <trkpt lat="49.54281" lon="3.52946">
        <ele>186.4</ele>
        <time>2023-08-18T13:39:11Z</time>
      </trkpt>
      <trkpt lat="49.54287" lon="3.52952">
        <ele>186.4</ele>
        <time>2023-08-18T13:39:17Z</time>
      </trkpt>
      <trkpt lat="49.54289" lon="3.52961">
        <ele>186.4</ele>
        <time>2023-08-18T13:39:24Z</time>
      </trkpt>
      <trkpt lat="49.54288" lon="3.5297">
        <ele>186.4</ele>
        <time>2023-08-18T13:39:29Z</time>
      </trkpt>
      <trkpt lat="49.54289" lon="3.52971">
        <ele>186.4</ele>
        <time>2023-08-18T13:39:30Z</time>
      </trkpt>
      <trkpt lat="49.54291" lon="3.52979">
        <ele>186.4</ele>
        <time>2023-08-18T13:39:36Z</time>
      </trkpt>
      <trkpt lat="49.54291" lon="3.52985">
        <ele>186.4</ele>
        <time>2023-08-18T13:39:41Z</time>
      </trkpt>
      <trkpt lat="49.54291" lon="3.52992">
        <ele>186.4</ele>
        <time>2023-08-18T13:39:46Z</time>
      </trkpt>
      <trkpt lat="49.54291" lon="3.52997">
        <ele>186.4</ele>
        <time>2023-08-18T13:39:53Z</time>
      </trkpt>
      <trkpt lat="49.54291" lon="3.52997">
        <ele>186.4</ele>
        <time>2023-08-18T13:40:04Z</time>
      </trkpt>
      <trkpt lat="49.5429" lon="3.52998">
        <ele>186.4</ele>
        <time>2023-08-18T13:40:13Z</time>
      </trkpt>
      <trkpt lat="49.5429" lon="3.52998">
        <ele>186.4</ele>
        <time>2023-08-18T13:40:23Z</time>
      </trkpt>
      <trkpt lat="49.5429" lon="3.52998">
        <ele>186.4</ele>
        <time>2023-08-18T13:40:33Z</time>
      </trkpt>
      <trkpt lat="49.54292" lon="3.53001">
        <ele>186.4</ele>
        <time>2023-08-18T13:40:41Z</time>
      </trkpt>
      <trkpt lat="49.54299" lon="3.53005">
        <ele>186.4</ele>
        <time>2023-08-18T13:40:47Z</time>
      </trkpt>
      <trkpt lat="49.54304" lon="3.5301">
        <ele>186.4</ele>
        <time>2023-08-18T13:40:54Z</time>
      </trkpt>
      <trkpt lat="49.54308" lon="3.53014">
        <ele>186.4</ele>
        <time>2023-08-18T13:41:00Z</time>
      </trkpt>
      <trkpt lat="49.54311" lon="3.53019">
        <ele>186.4</ele>
        <time>2023-08-18T13:41:05Z</time>
      </trkpt>
      <trkpt lat="49.54313" lon="3.53024">
        <ele>186.4</ele>
        <time>2023-08-18T13:41:08Z</time>
      </trkpt>
      <trkpt lat="49.54314" lon="3.53026">
        <ele>186.4</ele>
        <time>2023-08-18T13:41:10Z</time>
      </trkpt>
      <trkpt lat="49.54314" lon="3.53027">
        <ele>186.4</ele>
        <time>2023-08-18T13:41:14Z</time>
      </trkpt>
      <trkpt lat="49.54314" lon="3.53026">
        <ele>186.4</ele>
        <time>2023-08-18T13:41:20Z</time>
      </trkpt>
      <trkpt lat="49.54313" lon="3.53026">
        <ele>186.4</ele>
        <time>2023-08-18T13:41:27Z</time>
      </trkpt>
      <trkpt lat="49.54308" lon="3.53027">
        <ele>186.4</ele>
        <time>2023-08-18T13:41:32Z</time>
      </trkpt>
      <trkpt lat="49.54302" lon="3.53018">
        <ele>186.4</ele>
        <time>2023-08-18T13:41:41Z</time>
      </trkpt>
      <trkpt lat="49.54298" lon="3.53012">
        <ele>186.4</ele>
        <time>2023-08-18T13:41:48Z</time>
      </trkpt>
      <trkpt lat="49.5429" lon="3.53009">
        <ele>186.4</ele>
        <time>2023-08-18T13:41:56Z</time>
      </trkpt>
      <trkpt lat="49.54293" lon="3.53008">
        <ele>186.4</ele>
        <time>2023-08-18T13:42:02Z</time>
      </trkpt>
      <trkpt lat="49.54302" lon="3.53013">
        <ele>186.4</ele>
        <time>2023-08-18T13:42:09Z</time>
      </trkpt>
      <trkpt lat="49.54307" lon="3.53018">
        <ele>186.4</ele>
        <time>2023-08-18T13:42:16Z</time>
      </trkpt>
      <trkpt lat="49.54309" lon="3.53022">
        <ele>186.4</ele>
        <time>2023-08-18T13:42:22Z</time>
      </trkpt>
      <trkpt lat="49.54309" lon="3.53022">
        <ele>186.4</ele>
        <time>2023-08-18T13:42:33Z</time>
      </trkpt>
      <trkpt lat="49.54309" lon="3.53022">
        <ele>186.4</ele>
        <time>2023-08-18T13:42:44Z</time>
      </trkpt>
      <trkpt lat="49.54309" lon="3.53022">
        <ele>186.4</ele>
        <time>2023-08-18T13:42:52Z</time>
      </trkpt>
      <trkpt lat="49.54309" lon="3.53023">
        <ele>186.4</ele>
        <time>2023-08-18T13:43:01Z</time>
      </trkpt>
      <trkpt lat="49.54309" lon="3.53023">
        <ele>186.4</ele>
        <time>2023-08-18T13:43:11Z</time>
      </trkpt>
      <trkpt lat="49.54311" lon="3.53023">
        <ele>186.4</ele>
        <time>2023-08-18T13:43:20Z</time>
      </trkpt>
      <trkpt lat="49.54311" lon="3.53023">
        <ele>186.4</ele>
        <time>2023-08-18T13:43:28Z</time>
      </trkpt>
      <trkpt lat="49.5431" lon="3.53024">
        <ele>186.4</ele>
        <time>2023-08-18T13:43:37Z</time>
      </trkpt>
      <trkpt lat="49.5431" lon="3.53024">
        <ele>186.4</ele>
        <time>2023-08-18T13:43:48Z</time>
      </trkpt>
      <trkpt lat="49.5431" lon="3.53024">
        <ele>186.4</ele>
        <time>2023-08-18T13:43:54Z</time>
      </trkpt>
      <trkpt lat="49.5431" lon="3.53024">
        <ele>186.4</ele>
        <time>2023-08-18T13:44:05Z</time>
      </trkpt>
      <trkpt lat="49.5431" lon="3.53024">
        <ele>186.4</ele>
        <time>2023-08-18T13:44:16Z</time>
      </trkpt>
      <trkpt lat="49.5431" lon="3.53024">
        <ele>186.4</ele>
        <time>2023-08-18T13:44:35Z</time>
      </trkpt>
      <trkpt lat="49.5431" lon="3.53024">
        <ele>186.4</ele>
        <time>2023-08-18T13:44:46Z</time>
      </trkpt>
      <trkpt lat="49.5431" lon="3.53024">
        <ele>186.4</ele>
        <time>2023-08-18T13:44:55Z</time>
      </trkpt>
      <trkpt lat="49.5431" lon="3.53024">
        <ele>186.4</ele>
        <time>2023-08-18T13:45:08Z</time>
      </trkpt>
      <trkpt lat="49.5431" lon="3.53024">
        <ele>186.4</ele>
        <time>2023-08-18T13:45:20Z</time>
      </trkpt>
      <trkpt lat="49.5431" lon="3.53024">
        <ele>186.4</ele>
        <time>2023-08-18T13:45:30Z</time>
      </trkpt>
      <trkpt lat="49.5431" lon="3.53024">
        <ele>186.4</ele>
        <time>2023-08-18T13:45:48Z</time>
      </trkpt>
      <trkpt lat="49.5431" lon="3.53024">
        <ele>186.4</ele>
        <time>2023-08-18T13:46:03Z</time>
      </trkpt>
      <trkpt lat="49.54309" lon="3.53024">
        <ele>186.4</ele>
        <time>2023-08-18T13:46:12Z</time>
      </trkpt>
      <trkpt lat="49.54309" lon="3.53026">
        <ele>186.4</ele>
        <time>2023-08-18T13:46:20Z</time>
      </trkpt>
      <trkpt lat="49.54309" lon="3.53026">
        <ele>186.4</ele>
        <time>2023-08-18T13:46:29Z</time>
      </trkpt>
      <trkpt lat="49.54311" lon="3.53028">
        <ele>186.4</ele>
        <time>2023-08-18T13:46:36Z</time>
      </trkpt>
      <trkpt lat="49.54315" lon="3.53032">
        <ele>186.4</ele>
        <time>2023-08-18T13:46:42Z</time>
      </trkpt>
      <trkpt lat="49.54322" lon="3.53041">
        <ele>186.4</ele>
        <time>2023-08-18T13:46:49Z</time>
      </trkpt>
      <trkpt lat="49.54327" lon="3.53045">
        <ele>186.4</ele>
        <time>2023-08-18T13:46:55Z</time>
      </trkpt>
      <trkpt lat="49.54332" lon="3.53051">
        <ele>186.4</ele>
        <time>2023-08-18T13:47:01Z</time>
      </trkpt>
      <trkpt lat="49.54344" lon="3.53068">
        <ele>186.4</ele>
        <time>2023-08-18T13:47:10Z</time>
      </trkpt>
      <trkpt lat="49.54353" lon="3.53079">
        <ele>186.4</ele>
        <time>2023-08-18T13:47:18Z</time>
      </trkpt>
      <trkpt lat="49.54358" lon="3.53087">
        <ele>186.4</ele>
        <time>2023-08-18T13:47:24Z</time>
      </trkpt>
      <trkpt lat="49.54362" lon="3.53096">
        <ele>186.4</ele>
        <time>2023-08-18T13:47:30Z</time>
      </trkpt>
      <trkpt lat="49.54366" lon="3.53104">
        <ele>186</ele>
        <time>2023-08-18T13:47:35Z</time>
      </trkpt>
      <trkpt lat="49.54367" lon="3.53105">
        <ele>185.6</ele>
        <time>2023-08-18T13:47:36Z</time>
      </trkpt>
      <trkpt lat="49.54367" lon="3.53105">
        <ele>185.2</ele>
        <time>2023-08-18T13:47:37Z</time>
      </trkpt>
      <trkpt lat="49.54367" lon="3.53105">
        <ele>184.8</ele>
        <time>2023-08-18T13:47:38Z</time>
      </trkpt>
      <trkpt lat="49.54368" lon="3.53106">
        <ele>184.4</ele>
        <time>2023-08-18T13:47:39Z</time>
      </trkpt>
      <trkpt lat="49.54373" lon="3.53114">
        <ele>184.4</ele>
        <time>2023-08-18T13:47:43Z</time>
      </trkpt>
      <trkpt lat="49.54378" lon="3.53123">
        <ele>184.4</ele>
        <time>2023-08-18T13:47:49Z</time>
      </trkpt>
      <trkpt lat="49.5438" lon="3.53128">
        <ele>184.4</ele>
        <time>2023-08-18T13:47:54Z</time>
      </trkpt>
      <trkpt lat="49.54387" lon="3.53138">
        <ele>184.4</ele>
        <time>2023-08-18T13:48:01Z</time>
      </trkpt>
      <trkpt lat="49.54391" lon="3.53143">
        <ele>184.4</ele>
        <time>2023-08-18T13:48:07Z</time>
      </trkpt>
      <trkpt lat="49.54397" lon="3.53153">
        <ele>184.4</ele>
        <time>2023-08-18T13:48:12Z</time>
      </trkpt>
      <trkpt lat="49.54404" lon="3.53163">
        <ele>184.4</ele>
        <time>2023-08-18T13:48:20Z</time>
      </trkpt>
      <trkpt lat="49.54408" lon="3.53171">
        <ele>184.4</ele>
        <time>2023-08-18T13:48:26Z</time>
      </trkpt>
      <trkpt lat="49.54419" lon="3.53183">
        <ele>184.4</ele>
        <time>2023-08-18T13:48:34Z</time>
      </trkpt>
      <trkpt lat="49.54427" lon="3.53191">
        <ele>184.4</ele>
        <time>2023-08-18T13:48:40Z</time>
      </trkpt>
      <trkpt lat="49.54427" lon="3.53192">
        <ele>184.4</ele>
        <time>2023-08-18T13:48:47Z</time>
      </trkpt>
      <trkpt lat="49.54425" lon="3.53192">
        <ele>184.4</ele>
        <time>2023-08-18T13:48:52Z</time>
      </trkpt>
      <trkpt lat="49.54432" lon="3.53197">
        <ele>184.4</ele>
        <time>2023-08-18T13:48:59Z</time>
      </trkpt>
      <trkpt lat="49.54433" lon="3.53197">
        <ele>184.4</ele>
        <time>2023-08-18T13:49:00Z</time>
      </trkpt>
      <trkpt lat="49.54439" lon="3.53202">
        <ele>184.4</ele>
        <time>2023-08-18T13:49:06Z</time>
      </trkpt>
      <trkpt lat="49.54448" lon="3.53207">
        <ele>184.4</ele>
        <time>2023-08-18T13:49:13Z</time>
      </trkpt>
      <trkpt lat="49.54456" lon="3.5321">
        <ele>184.4</ele>
        <time>2023-08-18T13:49:21Z</time>
      </trkpt>
      <trkpt lat="49.54464" lon="3.5321">
        <ele>184.4</ele>
        <time>2023-08-18T13:49:27Z</time>
      </trkpt>
      <trkpt lat="49.54469" lon="3.53213">
        <ele>184.4</ele>
        <time>2023-08-18T13:49:33Z</time>
      </trkpt>
      <trkpt lat="49.5447" lon="3.53214">
        <ele>184.4</ele>
        <time>2023-08-18T13:49:38Z</time>
      </trkpt>
      <trkpt lat="49.54467" lon="3.53214">
        <ele>184.4</ele>
        <time>2023-08-18T13:49:46Z</time>
      </trkpt>
      <trkpt lat="49.54467" lon="3.53214">
        <ele>184.4</ele>
        <time>2023-08-18T13:49:54Z</time>
      </trkpt>
      <trkpt lat="49.54467" lon="3.53214">
        <ele>184.4</ele>
        <time>2023-08-18T13:50:06Z</time>
      </trkpt>
      <trkpt lat="49.54467" lon="3.53214">
        <ele>184.4</ele>
        <time>2023-08-18T13:50:19Z</time>
      </trkpt>
      <trkpt lat="49.54467" lon="3.53216">
        <ele>184.4</ele>
        <time>2023-08-18T13:50:26Z</time>
      </trkpt>
      <trkpt lat="49.54466" lon="3.53218">
        <ele>184.4</ele>
        <time>2023-08-18T13:50:32Z</time>
      </trkpt>
      <trkpt lat="49.54465" lon="3.53219">
        <ele>184.4</ele>
        <time>2023-08-18T13:50:40Z</time>
      </trkpt>
      <trkpt lat="49.54468" lon="3.5322">
        <ele>184.4</ele>
        <time>2023-08-18T13:50:48Z</time>
      </trkpt>
      <trkpt lat="49.54476" lon="3.53224">
        <ele>184.4</ele>
        <time>2023-08-18T13:50:56Z</time>
      </trkpt>
      <trkpt lat="49.54483" lon="3.53226">
        <ele>184.4</ele>
        <time>2023-08-18T13:51:02Z</time>
      </trkpt>
      <trkpt lat="49.54486" lon="3.53226">
        <ele>184.4</ele>
        <time>2023-08-18T13:51:10Z</time>
      </trkpt>
      <trkpt lat="49.54486" lon="3.53226">
        <ele>184.4</ele>
        <time>2023-08-18T13:51:17Z</time>
      </trkpt>
      <trkpt lat="49.54493" lon="3.53227">
        <ele>184.4</ele>
        <time>2023-08-18T13:51:25Z</time>
      </trkpt>
      <trkpt lat="49.54494" lon="3.53228">
        <ele>184.4</ele>
        <time>2023-08-18T13:51:32Z</time>
      </trkpt>
      <trkpt lat="49.54494" lon="3.53227">
        <ele>184.4</ele>
        <time>2023-08-18T13:51:39Z</time>
      </trkpt>
      <trkpt lat="49.54493" lon="3.53229">
        <ele>184.4</ele>
        <time>2023-08-18T13:51:48Z</time>
      </trkpt>
      <trkpt lat="49.54493" lon="3.53229">
        <ele>184.4</ele>
        <time>2023-08-18T13:51:55Z</time>
      </trkpt>
      <trkpt lat="49.54493" lon="3.53229">
        <ele>184.4</ele>
        <time>2023-08-18T13:52:07Z</time>
      </trkpt>
      <trkpt lat="49.54493" lon="3.53229">
        <ele>184.4</ele>
        <time>2023-08-18T13:52:19Z</time>
      </trkpt>
      <trkpt lat="49.54493" lon="3.53229">
        <ele>184.4</ele>
        <time>2023-08-18T13:52:32Z</time>
      </trkpt>
      <trkpt lat="49.54493" lon="3.53229">
        <ele>184.4</ele>
        <time>2023-08-18T13:52:44Z</time>
      </trkpt>
      <trkpt lat="49.54493" lon="3.53229">
        <ele>184.4</ele>
        <time>2023-08-18T13:53:01Z</time>
      </trkpt>
      <trkpt lat="49.54493" lon="3.53229">
        <ele>184.4</ele>
        <time>2023-08-18T13:53:15Z</time>
      </trkpt>
      <trkpt lat="49.54493" lon="3.53229">
        <ele>184.4</ele>
        <time>2023-08-18T13:53:22Z</time>
      </trkpt>
      <trkpt lat="49.54497" lon="3.5323">
        <ele>184.4</ele>
        <time>2023-08-18T13:53:27Z</time>
      </trkpt>
      <trkpt lat="49.54509" lon="3.53233">
        <ele>184.4</ele>
        <time>2023-08-18T13:53:35Z</time>
      </trkpt>
      <trkpt lat="49.54516" lon="3.53233">
        <ele>184.4</ele>
        <time>2023-08-18T13:53:42Z</time>
      </trkpt>
      <trkpt lat="49.54523" lon="3.53239">
        <ele>184.4</ele>
        <time>2023-08-18T13:53:48Z</time>
      </trkpt>
      <trkpt lat="49.54526" lon="3.53242">
        <ele>184.8</ele>
        <time>2023-08-18T13:53:51Z</time>
      </trkpt>
      <trkpt lat="49.54527" lon="3.53243">
        <ele>185.2</ele>
        <time>2023-08-18T13:53:52Z</time>
      </trkpt>
      <trkpt lat="49.5453" lon="3.53245">
        <ele>185.6</ele>
        <time>2023-08-18T13:53:53Z</time>
      </trkpt>
      <trkpt lat="49.5453" lon="3.53245">
        <ele>186</ele>
        <time>2023-08-18T13:53:54Z</time>
      </trkpt>
      <trkpt lat="49.5453" lon="3.53246">
        <ele>186.4</ele>
        <time>2023-08-18T13:53:55Z</time>
      </trkpt>
      <trkpt lat="49.54532" lon="3.53247">
        <ele>186.4</ele>
        <time>2023-08-18T13:54:02Z</time>
      </trkpt>
      <trkpt lat="49.54532" lon="3.53247">
        <ele>186.4</ele>
        <time>2023-08-18T13:54:14Z</time>
      </trkpt>
      <trkpt lat="49.54532" lon="3.53247">
        <ele>186.4</ele>
        <time>2023-08-18T13:54:21Z</time>
      </trkpt>
      <trkpt lat="49.54532" lon="3.53247">
        <ele>186.4</ele>
        <time>2023-08-18T13:54:33Z</time>
      </trkpt>
      <trkpt lat="49.54532" lon="3.53247">
        <ele>186.4</ele>
        <time>2023-08-18T13:54:43Z</time>
      </trkpt>
      <trkpt lat="49.54532" lon="3.53247">
        <ele>186.4</ele>
        <time>2023-08-18T13:54:54Z</time>
      </trkpt>
      <trkpt lat="49.54532" lon="3.53251">
        <ele>186.4</ele>
        <time>2023-08-18T13:55:01Z</time>
      </trkpt>
      <trkpt lat="49.54537" lon="3.53248">
        <ele>186.4</ele>
        <time>2023-08-18T13:55:08Z</time>
      </trkpt>
      <trkpt lat="49.54543" lon="3.53253">
        <ele>186.4</ele>
        <time>2023-08-18T13:55:13Z</time>
      </trkpt>
      <trkpt lat="49.54546" lon="3.53263">
        <ele>186.4</ele>
        <time>2023-08-18T13:55:19Z</time>
      </trkpt>
      <trkpt lat="49.54546" lon="3.53265">
        <ele>186.4</ele>
        <time>2023-08-18T13:55:20Z</time>
      </trkpt>
      <trkpt lat="49.54545" lon="3.53271">
        <ele>186.4</ele>
        <time>2023-08-18T13:55:26Z</time>
      </trkpt>
      <trkpt lat="49.54545" lon="3.53284">
        <ele>186.4</ele>
        <time>2023-08-18T13:55:33Z</time>
      </trkpt>
      <trkpt lat="49.54546" lon="3.53289">
        <ele>186.4</ele>
        <time>2023-08-18T13:55:41Z</time>
      </trkpt>
      <trkpt lat="49.54546" lon="3.53298">
        <ele>186.4</ele>
        <time>2023-08-18T13:55:47Z</time>
      </trkpt>
      <trkpt lat="49.54547" lon="3.53307">
        <ele>186.4</ele>
        <time>2023-08-18T13:55:53Z</time>
      </trkpt>
      <trkpt lat="49.54548" lon="3.53315">
        <ele>186.4</ele>
        <time>2023-08-18T13:55:59Z</time>
      </trkpt>
      <trkpt lat="49.54548" lon="3.53328">
        <ele>186.4</ele>
        <time>2023-08-18T13:56:04Z</time>
      </trkpt>
      <trkpt lat="49.54546" lon="3.53337">
        <ele>186.4</ele>
        <time>2023-08-18T13:56:10Z</time>
      </trkpt>
      <trkpt lat="49.5454" lon="3.53345">
        <ele>186.4</ele>
        <time>2023-08-18T13:56:18Z</time>
      </trkpt>
      <trkpt lat="49.54537" lon="3.53353">
        <ele>186.4</ele>
        <time>2023-08-18T13:56:25Z</time>
      </trkpt>
      <trkpt lat="49.54537" lon="3.53358">
        <ele>186.4</ele>
        <time>2023-08-18T13:56:32Z</time>
      </trkpt>
      <trkpt lat="49.54538" lon="3.53361">
        <ele>186.4</ele>
        <time>2023-08-18T13:56:37Z</time>
      </trkpt>
      <trkpt lat="49.54538" lon="3.53365">
        <ele>186.4</ele>
        <time>2023-08-18T13:56:43Z</time>
      </trkpt>
      <trkpt lat="49.54537" lon="3.53365">
        <ele>186.4</ele>
        <time>2023-08-18T13:56:48Z</time>
      </trkpt>
      <trkpt lat="49.54536" lon="3.53362">
        <ele>186.4</ele>
        <time>2023-08-18T13:56:53Z</time>
      </trkpt>
      <trkpt lat="49.54535" lon="3.53358">
        <ele>186.4</ele>
        <time>2023-08-18T13:57:00Z</time>
      </trkpt>
      <trkpt lat="49.54535" lon="3.53358">
        <ele>186.4</ele>
        <time>2023-08-18T13:57:06Z</time>
      </trkpt>
      <trkpt lat="49.54535" lon="3.53358">
        <ele>186.4</ele>
        <time>2023-08-18T13:57:10Z</time>
      </trkpt>
      <trkpt lat="49.54535" lon="3.53357">
        <ele>186.4</ele>
        <time>2023-08-18T13:57:16Z</time>
      </trkpt>
      <trkpt lat="49.54536" lon="3.53357">
        <ele>186.4</ele>
        <time>2023-08-18T13:57:24Z</time>
      </trkpt>
      <trkpt lat="49.54533" lon="3.53361">
        <ele>186.4</ele>
        <time>2023-08-18T13:57:33Z</time>
      </trkpt>
      <trkpt lat="49.54533" lon="3.53366">
        <ele>186.4</ele>
        <time>2023-08-18T13:57:40Z</time>
      </trkpt>
      <trkpt lat="49.54533" lon="3.53367">
        <ele>186.4</ele>
        <time>2023-08-18T13:57:47Z</time>
      </trkpt>
      <trkpt lat="49.54528" lon="3.53372">
        <ele>186.4</ele>
        <time>2023-08-18T13:57:54Z</time>
      </trkpt>
      <trkpt lat="49.54524" lon="3.53375">
        <ele>186.4</ele>
        <time>2023-08-18T13:58:02Z</time>
      </trkpt>
      <trkpt lat="49.54524" lon="3.53375">
        <ele>186.4</ele>
        <time>2023-08-18T13:58:09Z</time>
      </trkpt>
      <trkpt lat="49.54524" lon="3.53375">
        <ele>186.4</ele>
        <time>2023-08-18T13:58:19Z</time>
      </trkpt>
      <trkpt lat="49.54523" lon="3.53374">
        <ele>186.4</ele>
        <time>2023-08-18T13:58:27Z</time>
      </trkpt>
      <trkpt lat="49.54523" lon="3.53374">
        <ele>186.4</ele>
        <time>2023-08-18T13:58:37Z</time>
      </trkpt>
      <trkpt lat="49.54523" lon="3.53374">
        <ele>186.4</ele>
        <time>2023-08-18T13:58:46Z</time>
      </trkpt>
      <trkpt lat="49.54516" lon="3.53388">
        <ele>186.4</ele>
        <time>2023-08-18T13:58:52Z</time>
      </trkpt>
      <trkpt lat="49.54508" lon="3.53396">
        <ele>186.4</ele>
        <time>2023-08-18T13:58:58Z</time>
      </trkpt>
      <trkpt lat="49.54504" lon="3.53403">
        <ele>186.4</ele>
        <time>2023-08-18T13:59:04Z</time>
      </trkpt>
      <trkpt lat="49.54499" lon="3.53412">
        <ele>186.4</ele>
        <time>2023-08-18T13:59:10Z</time>
      </trkpt>
      <trkpt lat="49.54495" lon="3.53419">
        <ele>186.4</ele>
        <time>2023-08-18T13:59:16Z</time>
      </trkpt>
      <trkpt lat="49.54495" lon="3.53428">
        <ele>186.4</ele>
        <time>2023-08-18T13:59:19Z</time>
      </trkpt>
      <trkpt lat="49.54495" lon="3.53429">
        <ele>186.4</ele>
        <time>2023-08-18T13:59:20Z</time>
      </trkpt>
      <trkpt lat="49.54495" lon="3.5343">
        <ele>186.4</ele>
        <time>2023-08-18T13:59:26Z</time>
      </trkpt>
      <trkpt lat="49.54495" lon="3.53429">
        <ele>186.4</ele>
        <time>2023-08-18T13:59:32Z</time>
      </trkpt>
      <trkpt lat="49.54495" lon="3.53429">
        <ele>186.4</ele>
        <time>2023-08-18T13:59:42Z</time>
      </trkpt>
      <trkpt lat="49.54494" lon="3.53428">
        <ele>186.4</ele>
        <time>2023-08-18T13:59:48Z</time>
      </trkpt>
      <trkpt lat="49.54494" lon="3.53428">
        <ele>186.4</ele>
        <time>2023-08-18T14:00:01Z</time>
      </trkpt>
      <trkpt lat="49.54494" lon="3.53428">
        <ele>186.4</ele>
        <time>2023-08-18T14:00:08Z</time>
      </trkpt>
      <trkpt lat="49.54493" lon="3.5343">
        <ele>186.4</ele>
        <time>2023-08-18T14:00:18Z</time>
      </trkpt>
      <trkpt lat="49.5449" lon="3.53437">
        <ele>186.4</ele>
        <time>2023-08-18T14:00:25Z</time>
      </trkpt>
      <trkpt lat="49.54486" lon="3.53443">
        <ele>186.4</ele>
        <time>2023-08-18T14:00:34Z</time>
      </trkpt>
      <trkpt lat="49.54485" lon="3.53447">
        <ele>186.4</ele>
        <time>2023-08-18T14:00:39Z</time>
      </trkpt>
      <trkpt lat="49.54481" lon="3.53455">
        <ele>186.4</ele>
        <time>2023-08-18T14:00:44Z</time>
      </trkpt>
      <trkpt lat="49.54478" lon="3.53459">
        <ele>186.4</ele>
        <time>2023-08-18T14:00:46Z</time>
      </trkpt>
      <trkpt lat="49.54475" lon="3.53467">
        <ele>186.4</ele>
        <time>2023-08-18T14:00:52Z</time>
      </trkpt>
      <trkpt lat="49.54472" lon="3.53475">
        <ele>186.4</ele>
        <time>2023-08-18T14:00:58Z</time>
      </trkpt>
      <trkpt lat="49.54464" lon="3.53492">
        <ele>186.4</ele>
        <time>2023-08-18T14:01:06Z</time>
      </trkpt>
      <trkpt lat="49.54458" lon="3.53498">
        <ele>186.4</ele>
        <time>2023-08-18T14:01:12Z</time>
      </trkpt>
      <trkpt lat="49.54455" lon="3.53499">
        <ele>186.4</ele>
        <time>2023-08-18T14:01:19Z</time>
      </trkpt>
      <trkpt lat="49.54084" lon="3.5417">
        <ele>175.6</ele>
        <time>2023-08-18T14:23:38Z</time>
      </trkpt>
      <trkpt lat="49.54076" lon="3.54177">
        <ele>175.6</ele>
        <time>2023-08-18T14:23:45Z</time>
      </trkpt>
      <trkpt lat="49.54075" lon="3.54177">
        <ele>175.2</ele>
        <time>2023-08-18T14:23:47Z</time>
      </trkpt>
      <trkpt lat="49.54074" lon="3.54178">
        <ele>174.8</ele>
        <time>2023-08-18T14:23:48Z</time>
      </trkpt>
      <trkpt lat="49.54073" lon="3.54178">
        <ele>174</ele>
        <time>2023-08-18T14:23:49Z</time>
      </trkpt>
      <trkpt lat="49.54072" lon="3.54179">
        <ele>173.6</ele>
        <time>2023-08-18T14:23:50Z</time>
      </trkpt>
      <trkpt lat="49.5407" lon="3.5418">
        <ele>173.6</ele>
        <time>2023-08-18T14:23:52Z</time>
      </trkpt>
      <trkpt lat="49.54064" lon="3.54184">
        <ele>173.6</ele>
        <time>2023-08-18T14:23:59Z</time>
      </trkpt>
      <trkpt lat="49.54056" lon="3.54191">
        <ele>173.6</ele>
        <time>2023-08-18T14:24:06Z</time>
      </trkpt>
      <trkpt lat="49.54048" lon="3.54199">
        <ele>172.8</ele>
        <time>2023-08-18T14:24:14Z</time>
      </trkpt>
      <trkpt lat="49.54047" lon="3.54199">
        <ele>172.4</ele>
        <time>2023-08-18T14:24:15Z</time>
      </trkpt>
      <trkpt lat="49.54045" lon="3.54201">
        <ele>171.8</ele>
        <time>2023-08-18T14:24:16Z</time>
      </trkpt>
      <trkpt lat="49.54044" lon="3.54201">
        <ele>171.4</ele>
        <time>2023-08-18T14:24:17Z</time>
      </trkpt>
      <trkpt lat="49.54037" lon="3.54203">
        <ele>171.4</ele>
        <time>2023-08-18T14:24:22Z</time>
      </trkpt>
      <trkpt lat="49.54026" lon="3.54204">
        <ele>171.4</ele>
        <time>2023-08-18T14:24:31Z</time>
      </trkpt>
      <trkpt lat="49.54016" lon="3.54206">
        <ele>171.4</ele>
        <time>2023-08-18T14:24:39Z</time>
      </trkpt>
      <trkpt lat="49.54012" lon="3.54206">
        <ele>171.4</ele>
        <time>2023-08-18T14:24:42Z</time>
      </trkpt>
      <trkpt lat="49.54007" lon="3.54206">
        <ele>171</ele>
        <time>2023-08-18T14:24:45Z</time>
      </trkpt>
      <trkpt lat="49.54007" lon="3.54206">
        <ele>170.6</ele>
        <time>2023-08-18T14:24:46Z</time>
      </trkpt>
      <trkpt lat="49.54006" lon="3.54206">
        <ele>170.2</ele>
        <time>2023-08-18T14:24:47Z</time>
      </trkpt>
      <trkpt lat="49.54004" lon="3.54206">
        <ele>169.8</ele>
        <time>2023-08-18T14:24:48Z</time>
      </trkpt>
      <trkpt lat="49.54002" lon="3.54204">
        <ele>169.4</ele>
        <time>2023-08-18T14:24:49Z</time>
      </trkpt>
      <trkpt lat="49.53996" lon="3.54201">
        <ele>169.4</ele>
        <time>2023-08-18T14:24:55Z</time>
      </trkpt>
      <trkpt lat="49.5399" lon="3.54201">
        <ele>169.4</ele>
        <time>2023-08-18T14:25:02Z</time>
      </trkpt>
      <trkpt lat="49.53985" lon="3.54203">
        <ele>169.4</ele>
        <time>2023-08-18T14:25:08Z</time>
      </trkpt>
      <trkpt lat="49.53979" lon="3.54206">
        <ele>169</ele>
        <time>2023-08-18T14:25:13Z</time>
      </trkpt>
      <trkpt lat="49.53978" lon="3.54206">
        <ele>168.6</ele>
        <time>2023-08-18T14:25:14Z</time>
      </trkpt>
      <trkpt lat="49.53976" lon="3.54206">
        <ele>168.2</ele>
        <time>2023-08-18T14:25:15Z</time>
      </trkpt>
      <trkpt lat="49.53975" lon="3.54207">
        <ele>167.8</ele>
        <time>2023-08-18T14:25:16Z</time>
      </trkpt>
      <trkpt lat="49.53974" lon="3.54208">
        <ele>167.4</ele>
        <time>2023-08-18T14:25:17Z</time>
      </trkpt>
      <trkpt lat="49.53966" lon="3.54215">
        <ele>167.4</ele>
        <time>2023-08-18T14:25:24Z</time>
      </trkpt>
      <trkpt lat="49.53957" lon="3.54225">
        <ele>167.4</ele>
        <time>2023-08-18T14:25:32Z</time>
      </trkpt>
      <trkpt lat="49.5395" lon="3.54233">
        <ele>167.4</ele>
        <time>2023-08-18T14:25:40Z</time>
      </trkpt>
      <trkpt lat="49.53949" lon="3.54234">
        <ele>167</ele>
        <time>2023-08-18T14:25:41Z</time>
      </trkpt>
      <trkpt lat="49.53948" lon="3.54236">
        <ele>166.6</ele>
        <time>2023-08-18T14:25:42Z</time>
      </trkpt>
      <trkpt lat="49.53947" lon="3.54238">
        <ele>166.2</ele>
        <time>2023-08-18T14:25:43Z</time>
      </trkpt>
      <trkpt lat="49.53946" lon="3.54239">
        <ele>165.8</ele>
        <time>2023-08-18T14:25:44Z</time>
      </trkpt>
      <trkpt lat="49.53945" lon="3.54239">
        <ele>165.4</ele>
        <time>2023-08-18T14:25:45Z</time>
      </trkpt>
      <trkpt lat="49.53942" lon="3.54242">
        <ele>165.4</ele>
        <time>2023-08-18T14:25:47Z</time>
      </trkpt>
      <trkpt lat="49.53933" lon="3.54248">
        <ele>165.4</ele>
        <time>2023-08-18T14:25:54Z</time>
      </trkpt>
      <trkpt lat="49.53924" lon="3.54246">
        <ele>165.4</ele>
        <time>2023-08-18T14:26:01Z</time>
      </trkpt>
      <trkpt lat="49.53914" lon="3.54243">
        <ele>165.4</ele>
        <time>2023-08-18T14:26:09Z</time>
      </trkpt>
      <trkpt lat="49.53906" lon="3.54241">
        <ele>165.4</ele>
        <time>2023-08-18T14:26:15Z</time>
      </trkpt>
      <trkpt lat="49.53904" lon="3.54241">
        <ele>165</ele>
        <time>2023-08-18T14:26:17Z</time>
      </trkpt>
      <trkpt lat="49.53902" lon="3.54241">
        <ele>164.2</ele>
        <time>2023-08-18T14:26:18Z</time>
      </trkpt>
      <trkpt lat="49.53901" lon="3.5424">
        <ele>163.8</ele>
        <time>2023-08-18T14:26:19Z</time>
      </trkpt>
      <trkpt lat="49.539" lon="3.5424">
        <ele>163.4</ele>
        <time>2023-08-18T14:26:20Z</time>
      </trkpt>
      <trkpt lat="49.53898" lon="3.54239">
        <ele>163.4</ele>
        <time>2023-08-18T14:26:22Z</time>
      </trkpt>
      <trkpt lat="49.53887" lon="3.54238">
        <ele>163.4</ele>
        <time>2023-08-18T14:26:31Z</time>
      </trkpt>
      <trkpt lat="49.53879" lon="3.54238">
        <ele>163.4</ele>
        <time>2023-08-18T14:26:38Z</time>
      </trkpt>
      <trkpt lat="49.53876" lon="3.54238">
        <ele>163.4</ele>
        <time>2023-08-18T14:26:44Z</time>
      </trkpt>
      <trkpt lat="49.53873" lon="3.54238">
        <ele>163.4</ele>
        <time>2023-08-18T14:26:51Z</time>
      </trkpt>
      <trkpt lat="49.53867" lon="3.5424">
        <ele>163</ele>
        <time>2023-08-18T14:26:56Z</time>
      </trkpt>
      <trkpt lat="49.53866" lon="3.54241">
        <ele>162.6</ele>
        <time>2023-08-18T14:26:57Z</time>
      </trkpt>
      <trkpt lat="49.53864" lon="3.54242">
        <ele>162.2</ele>
        <time>2023-08-18T14:26:58Z</time>
      </trkpt>
      <trkpt lat="49.53863" lon="3.54241">
        <ele>161.8</ele>
        <time>2023-08-18T14:26:59Z</time>
      </trkpt>
      <trkpt lat="49.53863" lon="3.54242">
        <ele>161.4</ele>
        <time>2023-08-18T14:27:00Z</time>
      </trkpt>
      <trkpt lat="49.53859" lon="3.5424">
        <ele>161.4</ele>
        <time>2023-08-18T14:27:04Z</time>
      </trkpt>
      <trkpt lat="49.53853" lon="3.54242">
        <ele>161.4</ele>
        <time>2023-08-18T14:27:09Z</time>
      </trkpt>
      <trkpt lat="49.53846" lon="3.54239">
        <ele>161.4</ele>
        <time>2023-08-18T14:27:16Z</time>
      </trkpt>
      <trkpt lat="49.53839" lon="3.54234">
        <ele>161.4</ele>
        <time>2023-08-18T14:27:22Z</time>
      </trkpt>
      <trkpt lat="49.53833" lon="3.54233">
        <ele>161.4</ele>
        <time>2023-08-18T14:27:27Z</time>
      </trkpt>
      <trkpt lat="49.53828" lon="3.54231">
        <ele>160.6</ele>
        <time>2023-08-18T14:27:32Z</time>
      </trkpt>
      <trkpt lat="49.53826" lon="3.5423">
        <ele>160.2</ele>
        <time>2023-08-18T14:27:33Z</time>
      </trkpt>
      <trkpt lat="49.53824" lon="3.5423">
        <ele>159.8</ele>
        <time>2023-08-18T14:27:34Z</time>
      </trkpt>
      <trkpt lat="49.53823" lon="3.5423">
        <ele>159.4</ele>
        <time>2023-08-18T14:27:35Z</time>
      </trkpt>
      <trkpt lat="49.53819" lon="3.54226">
        <ele>159.4</ele>
        <time>2023-08-18T14:27:40Z</time>
      </trkpt>
      <trkpt lat="49.53816" lon="3.54223">
        <ele>159.4</ele>
        <time>2023-08-18T14:27:42Z</time>
      </trkpt>
      <trkpt lat="49.53812" lon="3.54221">
        <ele>159.4</ele>
        <time>2023-08-18T14:27:46Z</time>
      </trkpt>
      <trkpt lat="49.53803" lon="3.54222">
        <ele>159.4</ele>
        <time>2023-08-18T14:27:52Z</time>
      </trkpt>
      <trkpt lat="49.53797" lon="3.54221">
        <ele>159.4</ele>
        <time>2023-08-18T14:27:57Z</time>
      </trkpt>
      <trkpt lat="49.53791" lon="3.54224">
        <ele>159</ele>
        <time>2023-08-18T14:28:02Z</time>
      </trkpt>
      <trkpt lat="49.53791" lon="3.54224">
        <ele>158.6</ele>
        <time>2023-08-18T14:28:03Z</time>
      </trkpt>
      <trkpt lat="49.53791" lon="3.54224">
        <ele>158</ele>
        <time>2023-08-18T14:28:04Z</time>
      </trkpt>
      <trkpt lat="49.53791" lon="3.54224">
        <ele>157.6</ele>
        <time>2023-08-18T14:28:05Z</time>
      </trkpt>
      <trkpt lat="49.53791" lon="3.54223">
        <ele>157.2</ele>
        <time>2023-08-18T14:28:06Z</time>
      </trkpt>
      <trkpt lat="49.53792" lon="3.54221">
        <ele>157.2</ele>
        <time>2023-08-18T14:28:10Z</time>
      </trkpt>
      <trkpt lat="49.53795" lon="3.5422">
        <ele>157.2</ele>
        <time>2023-08-18T14:28:16Z</time>
      </trkpt>
      <trkpt lat="49.53795" lon="3.54221">
        <ele>157.2</ele>
        <time>2023-08-18T14:28:25Z</time>
      </trkpt>
      <trkpt lat="49.53797" lon="3.54219">
        <ele>157.2</ele>
        <time>2023-08-18T14:28:32Z</time>
      </trkpt>
      <trkpt lat="49.53797" lon="3.54221">
        <ele>157.2</ele>
        <time>2023-08-18T14:28:38Z</time>
      </trkpt>
      <trkpt lat="49.53793" lon="3.54222">
        <ele>157.2</ele>
        <time>2023-08-18T14:28:45Z</time>
      </trkpt>
      <trkpt lat="49.53792" lon="3.54224">
        <ele>157.2</ele>
        <time>2023-08-18T14:28:52Z</time>
      </trkpt>
      <trkpt lat="49.53792" lon="3.54223">
        <ele>157.2</ele>
        <time>2023-08-18T14:29:03Z</time>
      </trkpt>
      <trkpt lat="49.53792" lon="3.54223">
        <ele>157.2</ele>
        <time>2023-08-18T14:29:13Z</time>
      </trkpt>
      <trkpt lat="49.53791" lon="3.54222">
        <ele>157.2</ele>
        <time>2023-08-18T14:29:19Z</time>
      </trkpt>
      <trkpt lat="49.5379" lon="3.54223">
        <ele>157.2</ele>
        <time>2023-08-18T14:29:25Z</time>
      </trkpt>
      <trkpt lat="49.5379" lon="3.54222">
        <ele>157.2</ele>
        <time>2023-08-18T14:29:30Z</time>
      </trkpt>
      <trkpt lat="49.5379" lon="3.54222">
        <ele>157.2</ele>
        <time>2023-08-18T14:29:39Z</time>
      </trkpt>
      <trkpt lat="49.5379" lon="3.54222">
        <ele>157.2</ele>
        <time>2023-08-18T14:29:49Z</time>
      </trkpt>
      <trkpt lat="49.53789" lon="3.54223">
        <ele>157.2</ele>
        <time>2023-08-18T14:29:56Z</time>
      </trkpt>
      <trkpt lat="49.53786" lon="3.54226">
        <ele>157.2</ele>
        <time>2023-08-18T14:30:03Z</time>
      </trkpt>
      <trkpt lat="49.53783" lon="3.54228">
        <ele>157.2</ele>
        <time>2023-08-18T14:30:11Z</time>
      </trkpt>
      <trkpt lat="49.53781" lon="3.54229">
        <ele>157.2</ele>
        <time>2023-08-18T14:30:20Z</time>
      </trkpt>
      <trkpt lat="49.53773" lon="3.54235">
        <ele>157.2</ele>
        <time>2023-08-18T14:30:27Z</time>
      </trkpt>
      <trkpt lat="49.53766" lon="3.54237">
        <ele>157.2</ele>
        <time>2023-08-18T14:30:33Z</time>
      </trkpt>
      <trkpt lat="49.53764" lon="3.54236">
        <ele>157.2</ele>
        <time>2023-08-18T14:30:35Z</time>
      </trkpt>
      <trkpt lat="49.53759" lon="3.54228">
        <ele>157.2</ele>
        <time>2023-08-18T14:30:42Z</time>
      </trkpt>
      <trkpt lat="49.53755" lon="3.54221">
        <ele>157.2</ele>
        <time>2023-08-18T14:30:49Z</time>
      </trkpt>
      <trkpt lat="49.53755" lon="3.54221">
        <ele>157.2</ele>
        <time>2023-08-18T14:31:00Z</time>
      </trkpt>
      <trkpt lat="49.53756" lon="3.54221">
        <ele>157.2</ele>
        <time>2023-08-18T14:31:11Z</time>
      </trkpt>
      <trkpt lat="49.53756" lon="3.54221">
        <ele>157.2</ele>
        <time>2023-08-18T14:31:22Z</time>
      </trkpt>
      <trkpt lat="49.53756" lon="3.54221">
        <ele>157.2</ele>
        <time>2023-08-18T14:31:30Z</time>
      </trkpt>
      <trkpt lat="49.53756" lon="3.54222">
        <ele>157.2</ele>
        <time>2023-08-18T14:31:39Z</time>
      </trkpt>
      <trkpt lat="49.53756" lon="3.54222">
        <ele>157.2</ele>
        <time>2023-08-18T14:31:47Z</time>
      </trkpt>
      <trkpt lat="49.53756" lon="3.54222">
        <ele>156.8</ele>
        <time>2023-08-18T14:31:48Z</time>
      </trkpt>
      <trkpt lat="49.53756" lon="3.54222">
        <ele>156.4</ele>
        <time>2023-08-18T14:31:49Z</time>
      </trkpt>
      <trkpt lat="49.53756" lon="3.54222">
        <ele>156</ele>
        <time>2023-08-18T14:31:50Z</time>
      </trkpt>
      <trkpt lat="49.53756" lon="3.54222">
        <ele>155.6</ele>
        <time>2023-08-18T14:31:51Z</time>
      </trkpt>
      <trkpt lat="49.53755" lon="3.5422">
        <ele>155.2</ele>
        <time>2023-08-18T14:31:52Z</time>
      </trkpt>
      <trkpt lat="49.53753" lon="3.54216">
        <ele>155.2</ele>
        <time>2023-08-18T14:31:54Z</time>
      </trkpt>
      <trkpt lat="49.53748" lon="3.54209">
        <ele>155.2</ele>
        <time>2023-08-18T14:31:58Z</time>
      </trkpt>
      <trkpt lat="49.53747" lon="3.54206">
        <ele>155.2</ele>
        <time>2023-08-18T14:32:00Z</time>
      </trkpt>
      <trkpt lat="49.53741" lon="3.54196">
        <ele>155.6</ele>
        <time>2023-08-18T14:32:08Z</time>
      </trkpt>
      <trkpt lat="49.53741" lon="3.54195">
        <ele>156</ele>
        <time>2023-08-18T14:32:09Z</time>
      </trkpt>
      <trkpt lat="49.5374" lon="3.54193">
        <ele>156.4</ele>
        <time>2023-08-18T14:32:10Z</time>
      </trkpt>
      <trkpt lat="49.53739" lon="3.54191">
        <ele>156.8</ele>
        <time>2023-08-18T14:32:11Z</time>
      </trkpt>
      <trkpt lat="49.53739" lon="3.54191">
        <ele>157.2</ele>
        <time>2023-08-18T14:32:12Z</time>
      </trkpt>
      <trkpt lat="49.53737" lon="3.54185">
        <ele>157.2</ele>
        <time>2023-08-18T14:32:15Z</time>
      </trkpt>
      <trkpt lat="49.53735" lon="3.54173">
        <ele>157.2</ele>
        <time>2023-08-18T14:32:21Z</time>
      </trkpt>
      <trkpt lat="49.53735" lon="3.54159">
        <ele>157.2</ele>
        <time>2023-08-18T14:32:29Z</time>
      </trkpt>
      <trkpt lat="49.53736" lon="3.54155">
        <ele>157.6</ele>
        <time>2023-08-18T14:32:32Z</time>
      </trkpt>
      <trkpt lat="49.53736" lon="3.54153">
        <ele>158</ele>
        <time>2023-08-18T14:32:33Z</time>
      </trkpt>
      <trkpt lat="49.53736" lon="3.54151">
        <ele>158.4</ele>
        <time>2023-08-18T14:32:34Z</time>
      </trkpt>
      <trkpt lat="49.53736" lon="3.54149">
        <ele>158.8</ele>
        <time>2023-08-18T14:32:35Z</time>
      </trkpt>
      <trkpt lat="49.53737" lon="3.54148">
        <ele>159.2</ele>
        <time>2023-08-18T14:32:36Z</time>
      </trkpt>
      <trkpt lat="49.53737" lon="3.54146">
        <ele>159.2</ele>
        <time>2023-08-18T14:32:37Z</time>
      </trkpt>
      <trkpt lat="49.5374" lon="3.5414">
        <ele>159.2</ele>
        <time>2023-08-18T14:32:42Z</time>
      </trkpt>
      <trkpt lat="49.53741" lon="3.54138">
        <ele>159.2</ele>
        <time>2023-08-18T14:32:43Z</time>
      </trkpt>
      <trkpt lat="49.53743" lon="3.54133">
        <ele>159.6</ele>
        <time>2023-08-18T14:32:49Z</time>
      </trkpt>
      <trkpt lat="49.53745" lon="3.5413">
        <ele>160</ele>
        <time>2023-08-18T14:32:50Z</time>
      </trkpt>
      <trkpt lat="49.53746" lon="3.54128">
        <ele>160.4</ele>
        <time>2023-08-18T14:32:51Z</time>
      </trkpt>
      <trkpt lat="49.53746" lon="3.54127">
        <ele>160.8</ele>
        <time>2023-08-18T14:32:52Z</time>
      </trkpt>
      <trkpt lat="49.53747" lon="3.54126">
        <ele>161.2</ele>
        <time>2023-08-18T14:32:53Z</time>
      </trkpt>
      <trkpt lat="49.53751" lon="3.54116">
        <ele>161.2</ele>
        <time>2023-08-18T14:32:59Z</time>
      </trkpt>
      <trkpt lat="49.53754" lon="3.54105">
        <ele>161.2</ele>
        <time>2023-08-18T14:33:05Z</time>
      </trkpt>
      <trkpt lat="49.53755" lon="3.54104">
        <ele>161.8</ele>
        <time>2023-08-18T14:33:06Z</time>
      </trkpt>
      <trkpt lat="49.53756" lon="3.54103">
        <ele>162.2</ele>
        <time>2023-08-18T14:33:07Z</time>
      </trkpt>
      <trkpt lat="49.53756" lon="3.54101">
        <ele>162.6</ele>
        <time>2023-08-18T14:33:08Z</time>
      </trkpt>
      <trkpt lat="49.53757" lon="3.541">
        <ele>163</ele>
        <time>2023-08-18T14:33:09Z</time>
      </trkpt>
      <trkpt lat="49.53757" lon="3.54098">
        <ele>163.4</ele>
        <time>2023-08-18T14:33:10Z</time>
      </trkpt>
      <trkpt lat="49.53758" lon="3.54096">
        <ele>163.4</ele>
        <time>2023-08-18T14:33:11Z</time>
      </trkpt>
      <trkpt lat="49.5376" lon="3.54089">
        <ele>163.4</ele>
        <time>2023-08-18T14:33:16Z</time>
      </trkpt>
      <trkpt lat="49.53763" lon="3.54079">
        <ele>163.4</ele>
        <time>2023-08-18T14:33:24Z</time>
      </trkpt>
      <trkpt lat="49.53763" lon="3.54076">
        <ele>163.8</ele>
        <time>2023-08-18T14:33:26Z</time>
      </trkpt>
      <trkpt lat="49.53764" lon="3.54075">
        <ele>164.2</ele>
        <time>2023-08-18T14:33:27Z</time>
      </trkpt>
      <trkpt lat="49.53764" lon="3.54073">
        <ele>164.6</ele>
        <time>2023-08-18T14:33:28Z</time>
      </trkpt>
      <trkpt lat="49.53764" lon="3.54071">
        <ele>165</ele>
        <time>2023-08-18T14:33:29Z</time>
      </trkpt>
      <trkpt lat="49.53765" lon="3.54069">
        <ele>165.4</ele>
        <time>2023-08-18T14:33:30Z</time>
      </trkpt>
      <trkpt lat="49.53765" lon="3.54068">
        <ele>165.4</ele>
        <time>2023-08-18T14:33:31Z</time>
      </trkpt>
      <trkpt lat="49.53766" lon="3.54067">
        <ele>165.4</ele>
        <time>2023-08-18T14:33:32Z</time>
      </trkpt>
      <trkpt lat="49.53767" lon="3.5406">
        <ele>165.4</ele>
        <time>2023-08-18T14:33:36Z</time>
      </trkpt>
      <trkpt lat="49.53767" lon="3.54047">
        <ele>166.2</ele>
        <time>2023-08-18T14:33:42Z</time>
      </trkpt>
      <trkpt lat="49.53767" lon="3.54046">
        <ele>166.6</ele>
        <time>2023-08-18T14:33:43Z</time>
      </trkpt>
      <trkpt lat="49.53767" lon="3.54044">
        <ele>167</ele>
        <time>2023-08-18T14:33:44Z</time>
      </trkpt>
      <trkpt lat="49.53768" lon="3.54042">
        <ele>167.4</ele>
        <time>2023-08-18T14:33:45Z</time>
      </trkpt>
      <trkpt lat="49.53769" lon="3.54035">
        <ele>167.4</ele>
        <time>2023-08-18T14:33:49Z</time>
      </trkpt>
      <trkpt lat="49.53769" lon="3.54022">
        <ele>167.4</ele>
        <time>2023-08-18T14:33:57Z</time>
      </trkpt>
      <trkpt lat="49.53769" lon="3.5402">
        <ele>167.4</ele>
        <time>2023-08-18T14:33:58Z</time>
      </trkpt>
      <trkpt lat="49.53769" lon="3.54008">
        <ele>167.4</ele>
        <time>2023-08-18T14:34:04Z</time>
      </trkpt>
      <trkpt lat="49.53769" lon="3.53993">
        <ele>167.4</ele>
        <time>2023-08-18T14:34:12Z</time>
      </trkpt>
      <trkpt lat="49.53769" lon="3.53987">
        <ele>167.4</ele>
        <time>2023-08-18T14:34:16Z</time>
      </trkpt>
      <trkpt lat="49.53769" lon="3.53984">
        <ele>167.4</ele>
        <time>2023-08-18T14:34:18Z</time>
      </trkpt>
      <trkpt lat="49.53769" lon="3.53982">
        <ele>167.4</ele>
        <time>2023-08-18T14:34:20Z</time>
      </trkpt>
      <trkpt lat="49.53769" lon="3.5398">
        <ele>167.4</ele>
        <time>2023-08-18T14:34:21Z</time>
      </trkpt>
      <trkpt lat="49.53769" lon="3.53976">
        <ele>167.4</ele>
        <time>2023-08-18T14:34:23Z</time>
      </trkpt>
      <trkpt lat="49.53768" lon="3.53965">
        <ele>167.4</ele>
        <time>2023-08-18T14:34:30Z</time>
      </trkpt>
      <trkpt lat="49.53766" lon="3.53953">
        <ele>167.4</ele>
        <time>2023-08-18T14:34:37Z</time>
      </trkpt>
      <trkpt lat="49.53765" lon="3.53951">
        <ele>167.4</ele>
        <time>2023-08-18T14:34:38Z</time>
      </trkpt>
      <trkpt lat="49.53763" lon="3.53944">
        <ele>167.4</ele>
        <time>2023-08-18T14:34:43Z</time>
      </trkpt>
      <trkpt lat="49.53757" lon="3.53937">
        <ele>167.4</ele>
        <time>2023-08-18T14:34:49Z</time>
      </trkpt>
      <trkpt lat="49.53753" lon="3.53934">
        <ele>167.4</ele>
        <time>2023-08-18T14:34:52Z</time>
      </trkpt>
      <trkpt lat="49.53746" lon="3.5393">
        <ele>167.4</ele>
        <time>2023-08-18T14:35:00Z</time>
      </trkpt>
      <trkpt lat="49.53741" lon="3.53928">
        <ele>167</ele>
        <time>2023-08-18T14:35:05Z</time>
      </trkpt>
      <trkpt lat="49.53739" lon="3.53927">
        <ele>166.6</ele>
        <time>2023-08-18T14:35:06Z</time>
      </trkpt>
      <trkpt lat="49.53738" lon="3.53927">
        <ele>166.2</ele>
        <time>2023-08-18T14:35:07Z</time>
      </trkpt>
      <trkpt lat="49.53736" lon="3.53926">
        <ele>165.8</ele>
        <time>2023-08-18T14:35:08Z</time>
      </trkpt>
      <trkpt lat="49.53735" lon="3.53925">
        <ele>165.4</ele>
        <time>2023-08-18T14:35:09Z</time>
      </trkpt>
      <trkpt lat="49.5373" lon="3.53924">
        <ele>165.4</ele>
        <time>2023-08-18T14:35:13Z</time>
      </trkpt>
      <trkpt lat="49.53729" lon="3.53923">
        <ele>165.4</ele>
        <time>2023-08-18T14:35:14Z</time>
      </trkpt>
      <trkpt lat="49.53727" lon="3.53923">
        <ele>165.4</ele>
        <time>2023-08-18T14:35:16Z</time>
      </trkpt>
      <trkpt lat="49.53723" lon="3.53923">
        <ele>165.4</ele>
        <time>2023-08-18T14:35:20Z</time>
      </trkpt>
      <trkpt lat="49.53722" lon="3.53922">
        <ele>165.4</ele>
        <time>2023-08-18T14:35:21Z</time>
      </trkpt>
      <trkpt lat="49.53717" lon="3.53922">
        <ele>165.4</ele>
        <time>2023-08-18T14:35:26Z</time>
      </trkpt>
      <trkpt lat="49.53714" lon="3.53923">
        <ele>165.4</ele>
        <time>2023-08-18T14:35:29Z</time>
      </trkpt>
      <trkpt lat="49.53712" lon="3.53923">
        <ele>165</ele>
        <time>2023-08-18T14:35:30Z</time>
      </trkpt>
      <trkpt lat="49.53711" lon="3.53924">
        <ele>164.6</ele>
        <time>2023-08-18T14:35:31Z</time>
      </trkpt>
      <trkpt lat="49.5371" lon="3.53924">
        <ele>164.2</ele>
        <time>2023-08-18T14:35:32Z</time>
      </trkpt>
      <trkpt lat="49.53708" lon="3.53924">
        <ele>163.8</ele>
        <time>2023-08-18T14:35:33Z</time>
      </trkpt>
      <trkpt lat="49.53707" lon="3.53924">
        <ele>163.4</ele>
        <time>2023-08-18T14:35:34Z</time>
      </trkpt>
      <trkpt lat="49.53699" lon="3.53923">
        <ele>163.4</ele>
        <time>2023-08-18T14:35:41Z</time>
      </trkpt>
      <trkpt lat="49.5369" lon="3.53925">
        <ele>163.4</ele>
        <time>2023-08-18T14:35:49Z</time>
      </trkpt>
      <trkpt lat="49.53681" lon="3.53927">
        <ele>163.4</ele>
        <time>2023-08-18T14:35:56Z</time>
      </trkpt>
      <trkpt lat="49.53668" lon="3.53934">
        <ele>163.4</ele>
        <time>2023-08-18T14:36:05Z</time>
      </trkpt>
      <trkpt lat="49.53662" lon="3.53935">
        <ele>163.4</ele>
        <time>2023-08-18T14:36:12Z</time>
      </trkpt>
      <trkpt lat="49.5366" lon="3.53935">
        <ele>163.4</ele>
        <time>2023-08-18T14:36:14Z</time>
      </trkpt>
      <trkpt lat="49.53657" lon="3.53936">
        <ele>163.4</ele>
        <time>2023-08-18T14:36:17Z</time>
      </trkpt>
      <trkpt lat="49.53651" lon="3.5394">
        <ele>163.4</ele>
        <time>2023-08-18T14:36:24Z</time>
      </trkpt>
      <trkpt lat="49.53649" lon="3.53942">
        <ele>163.4</ele>
        <time>2023-08-18T14:36:29Z</time>
      </trkpt>
      <trkpt lat="49.53647" lon="3.53944">
        <ele>163.4</ele>
        <time>2023-08-18T14:36:30Z</time>
      </trkpt>
      <trkpt lat="49.53638" lon="3.53949">
        <ele>163.4</ele>
        <time>2023-08-18T14:36:36Z</time>
      </trkpt>
      <trkpt lat="49.53634" lon="3.53948">
        <ele>163.4</ele>
        <time>2023-08-18T14:36:40Z</time>
      </trkpt>
      <trkpt lat="49.53626" lon="3.5394">
        <ele>163.8</ele>
        <time>2023-08-18T14:36:45Z</time>
      </trkpt>
      <trkpt lat="49.53625" lon="3.53938">
        <ele>164.2</ele>
        <time>2023-08-18T14:36:46Z</time>
      </trkpt>
      <trkpt lat="49.53625" lon="3.53937">
        <ele>164.6</ele>
        <time>2023-08-18T14:36:47Z</time>
      </trkpt>
      <trkpt lat="49.53624" lon="3.53936">
        <ele>165</ele>
        <time>2023-08-18T14:36:48Z</time>
      </trkpt>
      <trkpt lat="49.53624" lon="3.53934">
        <ele>165.4</ele>
        <time>2023-08-18T14:36:49Z</time>
      </trkpt>
      <trkpt lat="49.53622" lon="3.53929">
        <ele>165.4</ele>
        <time>2023-08-18T14:36:51Z</time>
      </trkpt>
      <trkpt lat="49.5362" lon="3.5392">
        <ele>165.4</ele>
        <time>2023-08-18T14:36:55Z</time>
      </trkpt>
      <trkpt lat="49.53619" lon="3.53919">
        <ele>165.4</ele>
        <time>2023-08-18T14:36:57Z</time>
      </trkpt>
      <trkpt lat="49.53618" lon="3.53915">
        <ele>165.4</ele>
        <time>2023-08-18T14:37:00Z</time>
      </trkpt>
      <trkpt lat="49.53618" lon="3.53902">
        <ele>165.4</ele>
        <time>2023-08-18T14:37:06Z</time>
      </trkpt>
      <trkpt lat="49.53616" lon="3.53889">
        <ele>165.4</ele>
        <time>2023-08-18T14:37:12Z</time>
      </trkpt>
      <trkpt lat="49.53615" lon="3.53885">
        <ele>165.4</ele>
        <time>2023-08-18T14:37:17Z</time>
      </trkpt>
      <trkpt lat="49.53611" lon="3.5387">
        <ele>165.4</ele>
        <time>2023-08-18T14:37:22Z</time>
      </trkpt>
      <trkpt lat="49.53608" lon="3.53862">
        <ele>165.4</ele>
        <time>2023-08-18T14:37:27Z</time>
      </trkpt>
      <trkpt lat="49.53603" lon="3.53854">
        <ele>165.4</ele>
        <time>2023-08-18T14:37:33Z</time>
      </trkpt>
      <trkpt lat="49.53593" lon="3.53849">
        <ele>165.4</ele>
        <time>2023-08-18T14:37:38Z</time>
      </trkpt>
      <trkpt lat="49.5359" lon="3.53847">
        <ele>165.4</ele>
        <time>2023-08-18T14:37:43Z</time>
      </trkpt>
      <trkpt lat="49.5359" lon="3.53847">
        <ele>165.4</ele>
        <time>2023-08-18T14:37:47Z</time>
      </trkpt>
      <trkpt lat="49.53589" lon="3.53847">
        <ele>165.4</ele>
        <time>2023-08-18T14:37:49Z</time>
      </trkpt>
      <trkpt lat="49.53588" lon="3.53846">
        <ele>165.4</ele>
        <time>2023-08-18T14:37:50Z</time>
      </trkpt>
      <trkpt lat="49.53583" lon="3.53844">
        <ele>165.4</ele>
        <time>2023-08-18T14:37:53Z</time>
      </trkpt>
      <trkpt lat="49.53579" lon="3.53845">
        <ele>165.4</ele>
        <time>2023-08-18T14:37:58Z</time>
      </trkpt>
      <trkpt lat="49.53578" lon="3.53844">
        <ele>165.4</ele>
        <time>2023-08-18T14:38:00Z</time>
      </trkpt>
      <trkpt lat="49.53578" lon="3.53843">
        <ele>165.4</ele>
        <time>2023-08-18T14:38:04Z</time>
      </trkpt>
      <trkpt lat="49.53573" lon="3.53846">
        <ele>165.4</ele>
        <time>2023-08-18T14:38:09Z</time>
      </trkpt>
      <trkpt lat="49.53569" lon="3.53846">
        <ele>165.4</ele>
        <time>2023-08-18T14:38:14Z</time>
      </trkpt>
      <trkpt lat="49.53563" lon="3.53849">
        <ele>165.4</ele>
        <time>2023-08-18T14:38:19Z</time>
      </trkpt>
      <trkpt lat="49.53557" lon="3.53849">
        <ele>165.4</ele>
        <time>2023-08-18T14:38:23Z</time>
      </trkpt>
      <trkpt lat="49.53553" lon="3.53849">
        <ele>165.4</ele>
        <time>2023-08-18T14:38:27Z</time>
      </trkpt>
      <trkpt lat="49.53552" lon="3.53849">
        <ele>165.4</ele>
        <time>2023-08-18T14:38:28Z</time>
      </trkpt>
      <trkpt lat="49.53546" lon="3.53846">
        <ele>165.4</ele>
        <time>2023-08-18T14:38:34Z</time>
      </trkpt>
      <trkpt lat="49.5354" lon="3.53846">
        <ele>165.4</ele>
        <time>2023-08-18T14:38:39Z</time>
      </trkpt>
      <trkpt lat="49.53535" lon="3.53843">
        <ele>165.4</ele>
        <time>2023-08-18T14:38:42Z</time>
      </trkpt>
      <trkpt lat="49.53533" lon="3.53841">
        <ele>165.4</ele>
        <time>2023-08-18T14:38:44Z</time>
      </trkpt>
      <trkpt lat="49.53531" lon="3.53839">
        <ele>165.4</ele>
        <time>2023-08-18T14:38:49Z</time>
      </trkpt>
      <trkpt lat="49.53526" lon="3.53839">
        <ele>165.4</ele>
        <time>2023-08-18T14:38:52Z</time>
      </trkpt>
      <trkpt lat="49.53524" lon="3.53839">
        <ele>165.4</ele>
        <time>2023-08-18T14:38:53Z</time>
      </trkpt>
      <trkpt lat="49.53517" lon="3.53838">
        <ele>165.4</ele>
        <time>2023-08-18T14:38:57Z</time>
      </trkpt>
      <trkpt lat="49.53515" lon="3.53838">
        <ele>165.4</ele>
        <time>2023-08-18T14:38:59Z</time>
      </trkpt>
      <trkpt lat="49.5351" lon="3.53837">
        <ele>165.4</ele>
        <time>2023-08-18T14:39:06Z</time>
      </trkpt>
      <trkpt lat="49.535" lon="3.53839">
        <ele>165.4</ele>
        <time>2023-08-18T14:39:11Z</time>
      </trkpt>
      <trkpt lat="49.53495" lon="3.53841">
        <ele>165.4</ele>
        <time>2023-08-18T14:39:17Z</time>
      </trkpt>
      <trkpt lat="49.53488" lon="3.53844">
        <ele>165.4</ele>
        <time>2023-08-18T14:39:21Z</time>
      </trkpt>
      <trkpt lat="49.53486" lon="3.53845">
        <ele>165.4</ele>
        <time>2023-08-18T14:39:23Z</time>
      </trkpt>
      <trkpt lat="49.53484" lon="3.53846">
        <ele>165.4</ele>
        <time>2023-08-18T14:39:26Z</time>
      </trkpt>
      <trkpt lat="49.53483" lon="3.53848">
        <ele>165.4</ele>
        <time>2023-08-18T14:39:32Z</time>
      </trkpt>
      <trkpt lat="49.53483" lon="3.53848">
        <ele>165</ele>
        <time>2023-08-18T14:39:37Z</time>
      </trkpt>
      <trkpt lat="49.53483" lon="3.53848">
        <ele>164.6</ele>
        <time>2023-08-18T14:39:38Z</time>
      </trkpt>
      <trkpt lat="49.53483" lon="3.53848">
        <ele>164</ele>
        <time>2023-08-18T14:39:39Z</time>
      </trkpt>
      <trkpt lat="49.53483" lon="3.53848">
        <ele>163.6</ele>
        <time>2023-08-18T14:39:40Z</time>
      </trkpt>
      <trkpt lat="49.53483" lon="3.53848">
        <ele>163.2</ele>
        <time>2023-08-18T14:39:41Z</time>
      </trkpt>
      <trkpt lat="49.53483" lon="3.53848">
        <ele>163.2</ele>
        <time>2023-08-18T14:39:51Z</time>
      </trkpt>
      <trkpt lat="49.53483" lon="3.53848">
        <ele>163.2</ele>
        <time>2023-08-18T14:40:03Z</time>
      </trkpt>
      <trkpt lat="49.5348" lon="3.53849">
        <ele>163.2</ele>
        <time>2023-08-18T14:40:11Z</time>
      </trkpt>
      <trkpt lat="49.53482" lon="3.53853">
        <ele>163.2</ele>
        <time>2023-08-18T14:40:20Z</time>
      </trkpt>
      <trkpt lat="49.53483" lon="3.53853">
        <ele>163.2</ele>
        <time>2023-08-18T14:40:31Z</time>
      </trkpt>
      <trkpt lat="49.53483" lon="3.53853">
        <ele>163.2</ele>
        <time>2023-08-18T14:40:45Z</time>
      </trkpt>
      <trkpt lat="49.53484" lon="3.53852">
        <ele>163.2</ele>
        <time>2023-08-18T14:40:55Z</time>
      </trkpt>
      <trkpt lat="49.53485" lon="3.5385">
        <ele>162.4</ele>
        <time>2023-08-18T14:41:02Z</time>
      </trkpt>
      <trkpt lat="49.53486" lon="3.53851">
        <ele>161.8</ele>
        <time>2023-08-18T14:41:03Z</time>
      </trkpt>
      <trkpt lat="49.53487" lon="3.53851">
        <ele>162</ele>
        <time>2023-08-18T14:41:04Z</time>
      </trkpt>
      <trkpt lat="49.53487" lon="3.53852">
        <ele>163</ele>
        <time>2023-08-18T14:41:05Z</time>
      </trkpt>
      <trkpt lat="49.53488" lon="3.53853">
        <ele>163.8</ele>
        <time>2023-08-18T14:41:06Z</time>
      </trkpt>
      <trkpt lat="49.53488" lon="3.53854">
        <ele>163.8</ele>
        <time>2023-08-18T14:41:07Z</time>
      </trkpt>
      <trkpt lat="49.53488" lon="3.53855">
        <ele>163.8</ele>
        <time>2023-08-18T14:41:08Z</time>
      </trkpt>
      <trkpt lat="49.53487" lon="3.53856">
        <ele>163.8</ele>
        <time>2023-08-18T14:41:09Z</time>
      </trkpt>
      <trkpt lat="49.53487" lon="3.53855">
        <ele>163.8</ele>
        <time>2023-08-18T14:41:10Z</time>
      </trkpt>
      <trkpt lat="49.53486" lon="3.53855">
        <ele>163.8</ele>
        <time>2023-08-18T14:41:12Z</time>
      </trkpt>
      <trkpt lat="49.53486" lon="3.53854">
        <ele>163.8</ele>
        <time>2023-08-18T14:41:21Z</time>
      </trkpt>
      <trkpt lat="49.53485" lon="3.53852">
        <ele>163.8</ele>
        <time>2023-08-18T14:41:35Z</time>
      </trkpt>
      <trkpt lat="49.53482" lon="3.53847">
        <ele>163.8</ele>
        <time>2023-08-18T14:41:43Z</time>
      </trkpt>
      <trkpt lat="49.53476" lon="3.53853">
        <ele>163.8</ele>
        <time>2023-08-18T14:41:50Z</time>
      </trkpt>
      <trkpt lat="49.5347" lon="3.53857">
        <ele>163.8</ele>
        <time>2023-08-18T14:41:57Z</time>
      </trkpt>
      <trkpt lat="49.53467" lon="3.5386">
        <ele>163.4</ele>
        <time>2023-08-18T14:42:01Z</time>
      </trkpt>
      <trkpt lat="49.53466" lon="3.53861">
        <ele>163</ele>
        <time>2023-08-18T14:42:02Z</time>
      </trkpt>
      <trkpt lat="49.53465" lon="3.53862">
        <ele>162.6</ele>
        <time>2023-08-18T14:42:03Z</time>
      </trkpt>
      <trkpt lat="49.53464" lon="3.53862">
        <ele>162</ele>
        <time>2023-08-18T14:42:04Z</time>
      </trkpt>
      <trkpt lat="49.53463" lon="3.53863">
        <ele>161.6</ele>
        <time>2023-08-18T14:42:05Z</time>
      </trkpt>
      <trkpt lat="49.53459" lon="3.53866">
        <ele>161.6</ele>
        <time>2023-08-18T14:42:10Z</time>
      </trkpt>
      <trkpt lat="49.53457" lon="3.53869">
        <ele>161.6</ele>
        <time>2023-08-18T14:42:16Z</time>
      </trkpt>
      <trkpt lat="49.53456" lon="3.53872">
        <ele>161.6</ele>
        <time>2023-08-18T14:42:23Z</time>
      </trkpt>
      <trkpt lat="49.53456" lon="3.53872">
        <ele>161.6</ele>
        <time>2023-08-18T14:42:31Z</time>
      </trkpt>
      <trkpt lat="49.53457" lon="3.53871">
        <ele>161.6</ele>
        <time>2023-08-18T14:42:38Z</time>
      </trkpt>
      <trkpt lat="49.53457" lon="3.5387">
        <ele>161.6</ele>
        <time>2023-08-18T14:42:44Z</time>
      </trkpt>
      <trkpt lat="49.53457" lon="3.53869">
        <ele>161.6</ele>
        <time>2023-08-18T14:42:52Z</time>
      </trkpt>
      <trkpt lat="49.53457" lon="3.53869">
        <ele>161.6</ele>
        <time>2023-08-18T14:43:00Z</time>
      </trkpt>
      <trkpt lat="49.53456" lon="3.5387">
        <ele>161.6</ele>
        <time>2023-08-18T14:43:08Z</time>
      </trkpt>
      <trkpt lat="49.53455" lon="3.53872">
        <ele>161.6</ele>
        <time>2023-08-18T14:43:19Z</time>
      </trkpt>
      <trkpt lat="49.53455" lon="3.53872">
        <ele>161.6</ele>
        <time>2023-08-18T14:43:29Z</time>
      </trkpt>
      <trkpt lat="49.53455" lon="3.53871">
        <ele>161.6</ele>
        <time>2023-08-18T14:43:42Z</time>
      </trkpt>
      <trkpt lat="49.53448" lon="3.53873">
        <ele>161.2</ele>
        <time>2023-08-18T14:43:47Z</time>
      </trkpt>
      <trkpt lat="49.53448" lon="3.53874">
        <ele>160.8</ele>
        <time>2023-08-18T14:43:48Z</time>
      </trkpt>
      <trkpt lat="49.53446" lon="3.53874">
        <ele>160.4</ele>
        <time>2023-08-18T14:43:49Z</time>
      </trkpt>
      <trkpt lat="49.53445" lon="3.53875">
        <ele>160</ele>
        <time>2023-08-18T14:43:50Z</time>
      </trkpt>
      <trkpt lat="49.53444" lon="3.53876">
        <ele>159.6</ele>
        <time>2023-08-18T14:43:51Z</time>
      </trkpt>
      <trkpt lat="49.53441" lon="3.53878">
        <ele>159.6</ele>
        <time>2023-08-18T14:43:54Z</time>
      </trkpt>
      <trkpt lat="49.53435" lon="3.53881">
        <ele>159.6</ele>
        <time>2023-08-18T14:44:00Z</time>
      </trkpt>
      <trkpt lat="49.53431" lon="3.53883">
        <ele>159.6</ele>
        <time>2023-08-18T14:44:03Z</time>
      </trkpt>
      <trkpt lat="49.5343" lon="3.53883">
        <ele>158.8</ele>
        <time>2023-08-18T14:44:04Z</time>
      </trkpt>
      <trkpt lat="49.53428" lon="3.53884">
        <ele>158.4</ele>
        <time>2023-08-18T14:44:05Z</time>
      </trkpt>
      <trkpt lat="49.53426" lon="3.53884">
        <ele>157.8</ele>
        <time>2023-08-18T14:44:06Z</time>
      </trkpt>
      <trkpt lat="49.53425" lon="3.53884">
        <ele>157.4</ele>
        <time>2023-08-18T14:44:07Z</time>
      </trkpt>
      <trkpt lat="49.53424" lon="3.53884">
        <ele>157.4</ele>
        <time>2023-08-18T14:44:08Z</time>
      </trkpt>
      <trkpt lat="49.53421" lon="3.53886">
        <ele>157.4</ele>
        <time>2023-08-18T14:44:11Z</time>
      </trkpt>
      <trkpt lat="49.53419" lon="3.53886">
        <ele>157.4</ele>
        <time>2023-08-18T14:44:16Z</time>
      </trkpt>
      <trkpt lat="49.53412" lon="3.5389">
        <ele>157.4</ele>
        <time>2023-08-18T14:44:20Z</time>
      </trkpt>
      <trkpt lat="49.53408" lon="3.53894">
        <ele>157.4</ele>
        <time>2023-08-18T14:44:23Z</time>
      </trkpt>
      <trkpt lat="49.53408" lon="3.53897">
        <ele>157.4</ele>
        <time>2023-08-18T14:44:25Z</time>
      </trkpt>
      <trkpt lat="49.53406" lon="3.539">
        <ele>157.4</ele>
        <time>2023-08-18T14:44:31Z</time>
      </trkpt>
      <trkpt lat="49.53406" lon="3.53899">
        <ele>157.4</ele>
        <time>2023-08-18T14:44:38Z</time>
      </trkpt>
      <trkpt lat="49.53407" lon="3.53897">
        <ele>157.4</ele>
        <time>2023-08-18T14:44:45Z</time>
      </trkpt>
      <trkpt lat="49.53406" lon="3.53895">
        <ele>157.4</ele>
        <time>2023-08-18T14:44:50Z</time>
      </trkpt>
      <trkpt lat="49.53406" lon="3.53893">
        <ele>157.4</ele>
        <time>2023-08-18T14:44:54Z</time>
      </trkpt>
      <trkpt lat="49.53406" lon="3.53893">
        <ele>157.4</ele>
        <time>2023-08-18T14:44:55Z</time>
      </trkpt>
      <trkpt lat="49.53404" lon="3.53895">
        <ele>157.4</ele>
        <time>2023-08-18T14:44:58Z</time>
      </trkpt>
      <trkpt lat="49.53403" lon="3.53897">
        <ele>157</ele>
        <time>2023-08-18T14:45:00Z</time>
      </trkpt>
      <trkpt lat="49.53402" lon="3.53897">
        <ele>156.6</ele>
        <time>2023-08-18T14:45:01Z</time>
      </trkpt>
      <trkpt lat="49.53401" lon="3.53899">
        <ele>156.2</ele>
        <time>2023-08-18T14:45:02Z</time>
      </trkpt>
      <trkpt lat="49.534" lon="3.539">
        <ele>155.8</ele>
        <time>2023-08-18T14:45:03Z</time>
      </trkpt>
      <trkpt lat="49.53399" lon="3.53902">
        <ele>155.4</ele>
        <time>2023-08-18T14:45:04Z</time>
      </trkpt>
      <trkpt lat="49.53396" lon="3.53906">
        <ele>155.4</ele>
        <time>2023-08-18T14:45:10Z</time>
      </trkpt>
      <trkpt lat="49.53392" lon="3.53911">
        <ele>155.4</ele>
        <time>2023-08-18T14:45:15Z</time>
      </trkpt>
      <trkpt lat="49.5339" lon="3.53912">
        <ele>155</ele>
        <time>2023-08-18T14:45:18Z</time>
      </trkpt>
      <trkpt lat="49.53389" lon="3.53913">
        <ele>154.6</ele>
        <time>2023-08-18T14:45:19Z</time>
      </trkpt>
      <trkpt lat="49.53388" lon="3.53914">
        <ele>154.2</ele>
        <time>2023-08-18T14:45:20Z</time>
      </trkpt>
      <trkpt lat="49.53388" lon="3.53915">
        <ele>153.8</ele>
        <time>2023-08-18T14:45:21Z</time>
      </trkpt>
      <trkpt lat="49.53387" lon="3.53916">
        <ele>153.4</ele>
        <time>2023-08-18T14:45:22Z</time>
      </trkpt>
      <trkpt lat="49.53381" lon="3.53924">
        <ele>153.4</ele>
        <time>2023-08-18T14:45:30Z</time>
      </trkpt>
      <trkpt lat="49.53378" lon="3.53929">
        <ele>152.8</ele>
        <time>2023-08-18T14:45:35Z</time>
      </trkpt>
      <trkpt lat="49.53377" lon="3.53932">
        <ele>152.4</ele>
        <time>2023-08-18T14:45:36Z</time>
      </trkpt>
      <trkpt lat="49.53375" lon="3.53933">
        <ele>152</ele>
        <time>2023-08-18T14:45:37Z</time>
      </trkpt>
      <trkpt lat="49.53373" lon="3.53935">
        <ele>151.6</ele>
        <time>2023-08-18T14:45:38Z</time>
      </trkpt>
      <trkpt lat="49.53371" lon="3.53937">
        <ele>151.2</ele>
        <time>2023-08-18T14:45:39Z</time>
      </trkpt>
      <trkpt lat="49.53368" lon="3.53941">
        <ele>151.2</ele>
        <time>2023-08-18T14:45:41Z</time>
      </trkpt>
      <trkpt lat="49.53368" lon="3.53945">
        <ele>151.2</ele>
        <time>2023-08-18T14:45:45Z</time>
      </trkpt>
      <trkpt lat="49.53368" lon="3.53944">
        <ele>151.2</ele>
        <time>2023-08-18T14:45:50Z</time>
      </trkpt>
      <trkpt lat="49.53368" lon="3.53944">
        <ele>151.2</ele>
        <time>2023-08-18T14:45:58Z</time>
      </trkpt>
      <trkpt lat="49.53367" lon="3.53943">
        <ele>151.2</ele>
        <time>2023-08-18T14:46:07Z</time>
      </trkpt>
      <trkpt lat="49.53365" lon="3.53943">
        <ele>151.2</ele>
        <time>2023-08-18T14:46:14Z</time>
      </trkpt>
      <trkpt lat="49.53361" lon="3.53946">
        <ele>150.8</ele>
        <time>2023-08-18T14:46:20Z</time>
      </trkpt>
      <trkpt lat="49.5336" lon="3.53947">
        <ele>150.4</ele>
        <time>2023-08-18T14:46:21Z</time>
      </trkpt>
      <trkpt lat="49.53359" lon="3.53948">
        <ele>150</ele>
        <time>2023-08-18T14:46:22Z</time>
      </trkpt>
      <trkpt lat="49.53358" lon="3.53949">
        <ele>149.6</ele>
        <time>2023-08-18T14:46:23Z</time>
      </trkpt>
      <trkpt lat="49.53357" lon="3.5395">
        <ele>149.2</ele>
        <time>2023-08-18T14:46:24Z</time>
      </trkpt>
      <trkpt lat="49.53352" lon="3.53954">
        <ele>149.2</ele>
        <time>2023-08-18T14:46:28Z</time>
      </trkpt>
      <trkpt lat="49.53344" lon="3.53958">
        <ele>148.8</ele>
        <time>2023-08-18T14:46:35Z</time>
      </trkpt>
      <trkpt lat="49.53343" lon="3.53958">
        <ele>148.4</ele>
        <time>2023-08-18T14:46:36Z</time>
      </trkpt>
      <trkpt lat="49.53342" lon="3.53958">
        <ele>148</ele>
        <time>2023-08-18T14:46:37Z</time>
      </trkpt>
      <trkpt lat="49.53341" lon="3.53959">
        <ele>147.4</ele>
        <time>2023-08-18T14:46:38Z</time>
      </trkpt>
      <trkpt lat="49.5334" lon="3.53959">
        <ele>147</ele>
        <time>2023-08-18T14:46:39Z</time>
      </trkpt>
      <trkpt lat="49.53334" lon="3.53961">
        <ele>147</ele>
        <time>2023-08-18T14:46:45Z</time>
      </trkpt>
      <trkpt lat="49.53328" lon="3.53965">
        <ele>146.6</ele>
        <time>2023-08-18T14:46:50Z</time>
      </trkpt>
      <trkpt lat="49.53327" lon="3.53966">
        <ele>146.2</ele>
        <time>2023-08-18T14:46:51Z</time>
      </trkpt>
      <trkpt lat="49.53326" lon="3.53966">
        <ele>145.8</ele>
        <time>2023-08-18T14:46:52Z</time>
      </trkpt>
      <trkpt lat="49.53325" lon="3.53967">
        <ele>145.4</ele>
        <time>2023-08-18T14:46:53Z</time>
      </trkpt>
      <trkpt lat="49.53324" lon="3.53967">
        <ele>145</ele>
        <time>2023-08-18T14:46:54Z</time>
      </trkpt>
      <trkpt lat="49.53317" lon="3.53975">
        <ele>145</ele>
        <time>2023-08-18T14:47:01Z</time>
      </trkpt>
      <trkpt lat="49.53313" lon="3.5398">
        <ele>144.6</ele>
        <time>2023-08-18T14:47:06Z</time>
      </trkpt>
      <trkpt lat="49.53312" lon="3.53981">
        <ele>144.2</ele>
        <time>2023-08-18T14:47:07Z</time>
      </trkpt>
      <trkpt lat="49.53311" lon="3.53982">
        <ele>143.8</ele>
        <time>2023-08-18T14:47:08Z</time>
      </trkpt>
      <trkpt lat="49.5331" lon="3.53983">
        <ele>143.4</ele>
        <time>2023-08-18T14:47:09Z</time>
      </trkpt>
      <trkpt lat="49.5331" lon="3.53984">
        <ele>143</ele>
        <time>2023-08-18T14:47:10Z</time>
      </trkpt>
      <trkpt lat="49.53305" lon="3.53992">
        <ele>143</ele>
        <time>2023-08-18T14:47:16Z</time>
      </trkpt>
      <trkpt lat="49.53301" lon="3.54002">
        <ele>142.2</ele>
        <time>2023-08-18T14:47:22Z</time>
      </trkpt>
      <trkpt lat="49.53301" lon="3.54003">
        <ele>141.8</ele>
        <time>2023-08-18T14:47:23Z</time>
      </trkpt>
      <trkpt lat="49.533" lon="3.54004">
        <ele>141.4</ele>
        <time>2023-08-18T14:47:24Z</time>
      </trkpt>
      <trkpt lat="49.53299" lon="3.54005">
        <ele>140.8</ele>
        <time>2023-08-18T14:47:25Z</time>
      </trkpt>
      <trkpt lat="49.53295" lon="3.54013">
        <ele>140.8</ele>
        <time>2023-08-18T14:47:31Z</time>
      </trkpt>
      <trkpt lat="49.53291" lon="3.54022">
        <ele>140.4</ele>
        <time>2023-08-18T14:47:36Z</time>
      </trkpt>
      <trkpt lat="49.5329" lon="3.54024">
        <ele>140</ele>
        <time>2023-08-18T14:47:37Z</time>
      </trkpt>
      <trkpt lat="49.5329" lon="3.54026">
        <ele>139.6</ele>
        <time>2023-08-18T14:47:38Z</time>
      </trkpt>
      <trkpt lat="49.53289" lon="3.54027">
        <ele>139.2</ele>
        <time>2023-08-18T14:47:39Z</time>
      </trkpt>
      <trkpt lat="49.53289" lon="3.54028">
        <ele>138.8</ele>
        <time>2023-08-18T14:47:40Z</time>
      </trkpt>
      <trkpt lat="49.53285" lon="3.54036">
        <ele>138.8</ele>
        <time>2023-08-18T14:47:45Z</time>
      </trkpt>
      <trkpt lat="49.5328" lon="3.54048">
        <ele>138.2</ele>
        <time>2023-08-18T14:47:52Z</time>
      </trkpt>
      <trkpt lat="49.5328" lon="3.54049">
        <ele>137.8</ele>
        <time>2023-08-18T14:47:53Z</time>
      </trkpt>
      <trkpt lat="49.53279" lon="3.5405">
        <ele>137.4</ele>
        <time>2023-08-18T14:47:54Z</time>
      </trkpt>
      <trkpt lat="49.53278" lon="3.54051">
        <ele>137</ele>
        <time>2023-08-18T14:47:55Z</time>
      </trkpt>
      <trkpt lat="49.53277" lon="3.54053">
        <ele>136.6</ele>
        <time>2023-08-18T14:47:56Z</time>
      </trkpt>
      <trkpt lat="49.53276" lon="3.54058">
        <ele>136.6</ele>
        <time>2023-08-18T14:47:59Z</time>
      </trkpt>
      <trkpt lat="49.53273" lon="3.54071">
        <ele>136.6</ele>
        <time>2023-08-18T14:48:06Z</time>
      </trkpt>
      <trkpt lat="49.53272" lon="3.54074">
        <ele>136.2</ele>
        <time>2023-08-18T14:48:08Z</time>
      </trkpt>
      <trkpt lat="49.53272" lon="3.54076">
        <ele>135.8</ele>
        <time>2023-08-18T14:48:09Z</time>
      </trkpt>
      <trkpt lat="49.53272" lon="3.54077">
        <ele>135.4</ele>
        <time>2023-08-18T14:48:10Z</time>
      </trkpt>
      <trkpt lat="49.53271" lon="3.54079">
        <ele>134.6</ele>
        <time>2023-08-18T14:48:11Z</time>
      </trkpt>
      <trkpt lat="49.5327" lon="3.54082">
        <ele>134.6</ele>
        <time>2023-08-18T14:48:13Z</time>
      </trkpt>
      <trkpt lat="49.5327" lon="3.54096">
        <ele>134.6</ele>
        <time>2023-08-18T14:48:21Z</time>
      </trkpt>
      <trkpt lat="49.53271" lon="3.54101">
        <ele>134.2</ele>
        <time>2023-08-18T14:48:24Z</time>
      </trkpt>
      <trkpt lat="49.53271" lon="3.54102">
        <ele>133.6</ele>
        <time>2023-08-18T14:48:25Z</time>
      </trkpt>
      <trkpt lat="49.53272" lon="3.54103">
        <ele>133.2</ele>
        <time>2023-08-18T14:48:26Z</time>
      </trkpt>
      <trkpt lat="49.53272" lon="3.54105">
        <ele>132.8</ele>
        <time>2023-08-18T14:48:27Z</time>
      </trkpt>
      <trkpt lat="49.53272" lon="3.54106">
        <ele>132.4</ele>
        <time>2023-08-18T14:48:28Z</time>
      </trkpt>
      <trkpt lat="49.53272" lon="3.54108">
        <ele>132.4</ele>
        <time>2023-08-18T14:48:29Z</time>
      </trkpt>
      <trkpt lat="49.53274" lon="3.5411">
        <ele>132.4</ele>
        <time>2023-08-18T14:48:31Z</time>
      </trkpt>
      <trkpt lat="49.53276" lon="3.54116">
        <ele>132.4</ele>
        <time>2023-08-18T14:48:35Z</time>
      </trkpt>
      <trkpt lat="49.53277" lon="3.54119">
        <ele>132</ele>
        <time>2023-08-18T14:48:37Z</time>
      </trkpt>
      <trkpt lat="49.53278" lon="3.5412">
        <ele>131.6</ele>
        <time>2023-08-18T14:48:38Z</time>
      </trkpt>
      <trkpt lat="49.53278" lon="3.54122">
        <ele>131.2</ele>
        <time>2023-08-18T14:48:39Z</time>
      </trkpt>
      <trkpt lat="49.53279" lon="3.54124">
        <ele>130.8</ele>
        <time>2023-08-18T14:48:40Z</time>
      </trkpt>
      <trkpt lat="49.53279" lon="3.54125">
        <ele>130.4</ele>
        <time>2023-08-18T14:48:41Z</time>
      </trkpt>
      <trkpt lat="49.5328" lon="3.54127">
        <ele>130.4</ele>
        <time>2023-08-18T14:48:42Z</time>
      </trkpt>
      <trkpt lat="49.53283" lon="3.54133">
        <ele>130.4</ele>
        <time>2023-08-18T14:48:47Z</time>
      </trkpt>
      <trkpt lat="49.53285" lon="3.54135">
        <ele>130.4</ele>
        <time>2023-08-18T14:48:49Z</time>
      </trkpt>
      <trkpt lat="49.53286" lon="3.54139">
        <ele>130</ele>
        <time>2023-08-18T14:48:52Z</time>
      </trkpt>
      <trkpt lat="49.53287" lon="3.54141">
        <ele>129.6</ele>
        <time>2023-08-18T14:48:53Z</time>
      </trkpt>
      <trkpt lat="49.53286" lon="3.54142">
        <ele>129.2</ele>
        <time>2023-08-18T14:48:54Z</time>
      </trkpt>
      <trkpt lat="49.53286" lon="3.54142">
        <ele>128.8</ele>
        <time>2023-08-18T14:48:55Z</time>
      </trkpt>
      <trkpt lat="49.53286" lon="3.54142">
        <ele>128.4</ele>
        <time>2023-08-18T14:48:56Z</time>
      </trkpt>
      <trkpt lat="49.53285" lon="3.54142">
        <ele>128.4</ele>
        <time>2023-08-18T14:49:00Z</time>
      </trkpt>
      <trkpt lat="49.53284" lon="3.54143">
        <ele>128.4</ele>
        <time>2023-08-18T14:49:06Z</time>
      </trkpt>
      <trkpt lat="49.53284" lon="3.54144">
        <ele>128.4</ele>
        <time>2023-08-18T14:49:12Z</time>
      </trkpt>
      <trkpt lat="49.53284" lon="3.54143">
        <ele>128.4</ele>
        <time>2023-08-18T14:49:15Z</time>
      </trkpt>
      <trkpt lat="49.53284" lon="3.54142">
        <ele>128.4</ele>
        <time>2023-08-18T14:49:18Z</time>
      </trkpt>
      <trkpt lat="49.53284" lon="3.54142">
        <ele>128.4</ele>
        <time>2023-08-18T14:49:25Z</time>
      </trkpt>
      <trkpt lat="49.53288" lon="3.54145">
        <ele>128.4</ele>
        <time>2023-08-18T14:49:34Z</time>
      </trkpt>
      <trkpt lat="49.53292" lon="3.54153">
        <ele>128.4</ele>
        <time>2023-08-18T14:49:39Z</time>
      </trkpt>
      <trkpt lat="49.53295" lon="3.54161">
        <ele>128</ele>
        <time>2023-08-18T14:49:44Z</time>
      </trkpt>
      <trkpt lat="49.53296" lon="3.54163">
        <ele>127.6</ele>
        <time>2023-08-18T14:49:45Z</time>
      </trkpt>
      <trkpt lat="49.53297" lon="3.54164">
        <ele>127</ele>
        <time>2023-08-18T14:49:46Z</time>
      </trkpt>
      <trkpt lat="49.53298" lon="3.54165">
        <ele>126.6</ele>
        <time>2023-08-18T14:49:47Z</time>
      </trkpt>
      <trkpt lat="49.53299" lon="3.54167">
        <ele>126.2</ele>
        <time>2023-08-18T14:49:48Z</time>
      </trkpt>
      <trkpt lat="49.533" lon="3.5417">
        <ele>126.2</ele>
        <time>2023-08-18T14:49:50Z</time>
      </trkpt>
      <trkpt lat="49.53301" lon="3.54176">
        <ele>126.2</ele>
        <time>2023-08-18T14:49:53Z</time>
      </trkpt>
      <trkpt lat="49.53304" lon="3.54185">
        <ele>126.2</ele>
        <time>2023-08-18T14:49:59Z</time>
      </trkpt>
      <trkpt lat="49.53305" lon="3.54186">
        <ele>126.2</ele>
        <time>2023-08-18T14:50:00Z</time>
      </trkpt>
      <trkpt lat="49.53306" lon="3.54187">
        <ele>125.8</ele>
        <time>2023-08-18T14:50:01Z</time>
      </trkpt>
      <trkpt lat="49.53306" lon="3.54189">
        <ele>125.4</ele>
        <time>2023-08-18T14:50:02Z</time>
      </trkpt>
      <trkpt lat="49.53306" lon="3.5419">
        <ele>125</ele>
        <time>2023-08-18T14:50:03Z</time>
      </trkpt>
      <trkpt lat="49.53305" lon="3.54192">
        <ele>124.6</ele>
        <time>2023-08-18T14:50:04Z</time>
      </trkpt>
      <trkpt lat="49.53305" lon="3.54193">
        <ele>124.2</ele>
        <time>2023-08-18T14:50:05Z</time>
      </trkpt>
      <trkpt lat="49.53304" lon="3.54194">
        <ele>124.2</ele>
        <time>2023-08-18T14:50:12Z</time>
      </trkpt>
      <trkpt lat="49.53304" lon="3.54195">
        <ele>124.2</ele>
        <time>2023-08-18T14:50:18Z</time>
      </trkpt>
      <trkpt lat="49.53304" lon="3.54195">
        <ele>124.2</ele>
        <time>2023-08-18T14:50:26Z</time>
      </trkpt>
      <trkpt lat="49.53304" lon="3.54194">
        <ele>124.2</ele>
        <time>2023-08-18T14:50:32Z</time>
      </trkpt>
      <trkpt lat="49.53304" lon="3.54194">
        <ele>124.2</ele>
        <time>2023-08-18T14:50:38Z</time>
      </trkpt>
      <trkpt lat="49.53304" lon="3.54194">
        <ele>124.2</ele>
        <time>2023-08-18T14:50:49Z</time>
      </trkpt>
      <trkpt lat="49.53304" lon="3.54194">
        <ele>124.2</ele>
        <time>2023-08-18T14:51:05Z</time>
      </trkpt>
      <trkpt lat="49.53303" lon="3.54194">
        <ele>124.2</ele>
        <time>2023-08-18T14:51:13Z</time>
      </trkpt>
      <trkpt lat="49.53303" lon="3.54195">
        <ele>124.2</ele>
        <time>2023-08-18T14:51:21Z</time>
      </trkpt>
      <trkpt lat="49.53304" lon="3.54194">
        <ele>124.2</ele>
        <time>2023-08-18T14:51:28Z</time>
      </trkpt>
      <trkpt lat="49.53304" lon="3.54197">
        <ele>124.2</ele>
        <time>2023-08-18T14:51:33Z</time>
      </trkpt>
      <trkpt lat="49.53306" lon="3.54193">
        <ele>124.2</ele>
        <time>2023-08-18T14:51:38Z</time>
      </trkpt>
      <trkpt lat="49.53307" lon="3.54192">
        <ele>124.2</ele>
        <time>2023-08-18T14:51:39Z</time>
      </trkpt>
      <trkpt lat="49.53313" lon="3.54187">
        <ele>124.2</ele>
        <time>2023-08-18T14:51:46Z</time>
      </trkpt>
      <trkpt lat="49.53314" lon="3.54186">
        <ele>124.2</ele>
        <time>2023-08-18T14:51:52Z</time>
      </trkpt>
      <trkpt lat="49.53312" lon="3.54187">
        <ele>124.2</ele>
        <time>2023-08-18T14:52:01Z</time>
      </trkpt>
      <trkpt lat="49.53306" lon="3.54193">
        <ele>124.2</ele>
        <time>2023-08-18T14:52:09Z</time>
      </trkpt>
      <trkpt lat="49.53303" lon="3.54196">
        <ele>124.2</ele>
        <time>2023-08-18T14:52:17Z</time>
      </trkpt>
      <trkpt lat="49.53303" lon="3.54199">
        <ele>124.2</ele>
        <time>2023-08-18T14:52:21Z</time>
      </trkpt>
      <trkpt lat="49.53305" lon="3.54203">
        <ele>124.2</ele>
        <time>2023-08-18T14:52:23Z</time>
      </trkpt>
      <trkpt lat="49.53307" lon="3.54208">
        <ele>124.2</ele>
        <time>2023-08-18T14:52:26Z</time>
      </trkpt>
      <trkpt lat="49.53308" lon="3.54212">
        <ele>124.2</ele>
        <time>2023-08-18T14:52:28Z</time>
      </trkpt>
      <trkpt lat="49.53309" lon="3.54213">
        <ele>124.2</ele>
        <time>2023-08-18T14:52:29Z</time>
      </trkpt>
      <trkpt lat="49.53308" lon="3.54216">
        <ele>123.8</ele>
        <time>2023-08-18T14:52:30Z</time>
      </trkpt>
      <trkpt lat="49.53308" lon="3.54217">
        <ele>123.4</ele>
        <time>2023-08-18T14:52:31Z</time>
      </trkpt>
      <trkpt lat="49.53308" lon="3.54218">
        <ele>123</ele>
        <time>2023-08-18T14:52:32Z</time>
      </trkpt>
      <trkpt lat="49.53308" lon="3.54219">
        <ele>122.4</ele>
        <time>2023-08-18T14:52:33Z</time>
      </trkpt>
      <trkpt lat="49.53308" lon="3.54221">
        <ele>122</ele>
        <time>2023-08-18T14:52:34Z</time>
      </trkpt>
      <trkpt lat="49.53307" lon="3.54226">
        <ele>122</ele>
        <time>2023-08-18T14:52:38Z</time>
      </trkpt>
      <trkpt lat="49.53304" lon="3.54226">
        <ele>122</ele>
        <time>2023-08-18T14:52:41Z</time>
      </trkpt>
      <trkpt lat="49.53302" lon="3.54222">
        <ele>122</ele>
        <time>2023-08-18T14:52:44Z</time>
      </trkpt>
      <trkpt lat="49.533" lon="3.5421">
        <ele>122</ele>
        <time>2023-08-18T14:52:52Z</time>
      </trkpt>
      <trkpt lat="49.53297" lon="3.54202">
        <ele>122</ele>
        <time>2023-08-18T14:52:56Z</time>
      </trkpt>
      <trkpt lat="49.53294" lon="3.54192">
        <ele>122</ele>
        <time>2023-08-18T14:53:02Z</time>
      </trkpt>
      <trkpt lat="49.53291" lon="3.54184">
        <ele>122</ele>
        <time>2023-08-18T14:53:09Z</time>
      </trkpt>
      <trkpt lat="49.53286" lon="3.54178">
        <ele>122</ele>
        <time>2023-08-18T14:53:15Z</time>
      </trkpt>
      <trkpt lat="49.53285" lon="3.54178">
        <ele>122</ele>
        <time>2023-08-18T14:53:20Z</time>
      </trkpt>
      <trkpt lat="49.53286" lon="3.54179">
        <ele>122</ele>
        <time>2023-08-18T14:53:26Z</time>
      </trkpt>
      <trkpt lat="49.53285" lon="3.54182">
        <ele>122</ele>
        <time>2023-08-18T14:53:33Z</time>
      </trkpt>
      <trkpt lat="49.53285" lon="3.5418">
        <ele>122</ele>
        <time>2023-08-18T14:53:41Z</time>
      </trkpt>
      <trkpt lat="49.53285" lon="3.54179">
        <ele>122</ele>
        <time>2023-08-18T14:53:49Z</time>
      </trkpt>
      <trkpt lat="49.53285" lon="3.54179">
        <ele>122</ele>
        <time>2023-08-18T14:54:00Z</time>
      </trkpt>
      <trkpt lat="49.53285" lon="3.54179">
        <ele>122</ele>
        <time>2023-08-18T14:54:11Z</time>
      </trkpt>
      <trkpt lat="49.53282" lon="3.54175">
        <ele>122</ele>
        <time>2023-08-18T14:54:19Z</time>
      </trkpt>
      <trkpt lat="49.53278" lon="3.54169">
        <ele>122</ele>
        <time>2023-08-18T14:54:27Z</time>
      </trkpt>
      <trkpt lat="49.53275" lon="3.54167">
        <ele>122</ele>
        <time>2023-08-18T14:54:34Z</time>
      </trkpt>
      <trkpt lat="49.5327" lon="3.54165">
        <ele>122.4</ele>
        <time>2023-08-18T14:54:37Z</time>
      </trkpt>
      <trkpt lat="49.53269" lon="3.54165">
        <ele>122.8</ele>
        <time>2023-08-18T14:54:38Z</time>
      </trkpt>
      <trkpt lat="49.53267" lon="3.54165">
        <ele>123.4</ele>
        <time>2023-08-18T14:54:39Z</time>
      </trkpt>
      <trkpt lat="49.53266" lon="3.54165">
        <ele>123.8</ele>
        <time>2023-08-18T14:54:40Z</time>
      </trkpt>
      <trkpt lat="49.53265" lon="3.54165">
        <ele>124.2</ele>
        <time>2023-08-18T14:54:41Z</time>
      </trkpt>
      <trkpt lat="49.53259" lon="3.54165">
        <ele>124.2</ele>
        <time>2023-08-18T14:54:48Z</time>
      </trkpt>
      <trkpt lat="49.53257" lon="3.54165">
        <ele>124.6</ele>
        <time>2023-08-18T14:54:52Z</time>
      </trkpt>
      <trkpt lat="49.53256" lon="3.54165">
        <ele>125</ele>
        <time>2023-08-18T14:54:53Z</time>
      </trkpt>
      <trkpt lat="49.53256" lon="3.54165">
        <ele>125.4</ele>
        <time>2023-08-18T14:54:54Z</time>
      </trkpt>
      <trkpt lat="49.53255" lon="3.54165">
        <ele>125.8</ele>
        <time>2023-08-18T14:54:55Z</time>
      </trkpt>
      <trkpt lat="49.53255" lon="3.54165">
        <ele>126.2</ele>
        <time>2023-08-18T14:54:56Z</time>
      </trkpt>
      <trkpt lat="49.53255" lon="3.54165">
        <ele>126.2</ele>
        <time>2023-08-18T14:55:01Z</time>
      </trkpt>
      <trkpt lat="49.53249" lon="3.54168">
        <ele>126.2</ele>
        <time>2023-08-18T14:55:08Z</time>
      </trkpt>
      <trkpt lat="49.53247" lon="3.54168">
        <ele>127</ele>
        <time>2023-08-18T14:55:11Z</time>
      </trkpt>
      <trkpt lat="49.53247" lon="3.54168">
        <ele>127.6</ele>
        <time>2023-08-18T14:55:12Z</time>
      </trkpt>
      <trkpt lat="49.53246" lon="3.54169">
        <ele>128</ele>
        <time>2023-08-18T14:55:13Z</time>
      </trkpt>
      <trkpt lat="49.53246" lon="3.54169">
        <ele>128.4</ele>
        <time>2023-08-18T14:55:14Z</time>
      </trkpt>
      <trkpt lat="49.53246" lon="3.54169">
        <ele>128.4</ele>
        <time>2023-08-18T14:55:15Z</time>
      </trkpt>
      <trkpt lat="49.53244" lon="3.5417">
        <ele>128.4</ele>
        <time>2023-08-18T14:55:23Z</time>
      </trkpt>
      <trkpt lat="49.53243" lon="3.54173">
        <ele>128.4</ele>
        <time>2023-08-18T14:55:30Z</time>
      </trkpt>
      <trkpt lat="49.53243" lon="3.54173">
        <ele>128.4</ele>
        <time>2023-08-18T14:55:43Z</time>
      </trkpt>
      <trkpt lat="49.53243" lon="3.54173">
        <ele>128.4</ele>
        <time>2023-08-18T14:55:55Z</time>
      </trkpt>
      <trkpt lat="49.53243" lon="3.54173">
        <ele>128.4</ele>
        <time>2023-08-18T14:56:06Z</time>
      </trkpt>
      <trkpt lat="49.53242" lon="3.54174">
        <ele>128.4</ele>
        <time>2023-08-18T14:56:16Z</time>
      </trkpt>
      <trkpt lat="49.53244" lon="3.54175">
        <ele>128.4</ele>
        <time>2023-08-18T14:56:24Z</time>
      </trkpt>
      <trkpt lat="49.53247" lon="3.54175">
        <ele>128</ele>
        <time>2023-08-18T14:56:28Z</time>
      </trkpt>
      <trkpt lat="49.53249" lon="3.54174">
        <ele>127.6</ele>
        <time>2023-08-18T14:56:29Z</time>
      </trkpt>
      <trkpt lat="49.53251" lon="3.54173">
        <ele>127.2</ele>
        <time>2023-08-18T14:56:30Z</time>
      </trkpt>
      <trkpt lat="49.53252" lon="3.54172">
        <ele>126.8</ele>
        <time>2023-08-18T14:56:31Z</time>
      </trkpt>
      <trkpt lat="49.53253" lon="3.54172">
        <ele>126.4</ele>
        <time>2023-08-18T14:56:32Z</time>
      </trkpt>
      <trkpt lat="49.53258" lon="3.5417">
        <ele>125.8</ele>
        <time>2023-08-18T14:56:37Z</time>
      </trkpt>
      <trkpt lat="49.53259" lon="3.5417">
        <ele>125.4</ele>
        <time>2023-08-18T14:56:38Z</time>
      </trkpt>
      <trkpt lat="49.5326" lon="3.54169">
        <ele>125</ele>
        <time>2023-08-18T14:56:39Z</time>
      </trkpt>
      <trkpt lat="49.5326" lon="3.54169">
        <ele>124.6</ele>
        <time>2023-08-18T14:56:40Z</time>
      </trkpt>
      <trkpt lat="49.53262" lon="3.54169">
        <ele>124.2</ele>
        <time>2023-08-18T14:56:41Z</time>
      </trkpt>
      <trkpt lat="49.53267" lon="3.54168">
        <ele>124.2</ele>
        <time>2023-08-18T14:56:46Z</time>
      </trkpt>
      <trkpt lat="49.53269" lon="3.54169">
        <ele>124.2</ele>
        <time>2023-08-18T14:56:47Z</time>
      </trkpt>
      <trkpt lat="49.53274" lon="3.54173">
        <ele>124.2</ele>
        <time>2023-08-18T14:56:52Z</time>
      </trkpt>
      <trkpt lat="49.53276" lon="3.54175">
        <ele>123.8</ele>
        <time>2023-08-18T14:56:55Z</time>
      </trkpt>
      <trkpt lat="49.53276" lon="3.54176">
        <ele>123.4</ele>
        <time>2023-08-18T14:56:56Z</time>
      </trkpt>
      <trkpt lat="49.53277" lon="3.54177">
        <ele>123</ele>
        <time>2023-08-18T14:56:57Z</time>
      </trkpt>
      <trkpt lat="49.53278" lon="3.54178">
        <ele>122.6</ele>
        <time>2023-08-18T14:56:58Z</time>
      </trkpt>
      <trkpt lat="49.53279" lon="3.54179">
        <ele>122.2</ele>
        <time>2023-08-18T14:56:59Z</time>
      </trkpt>
      <trkpt lat="49.53283" lon="3.54177">
        <ele>122.2</ele>
        <time>2023-08-18T14:57:02Z</time>
      </trkpt>
      <trkpt lat="49.53284" lon="3.54173">
        <ele>122.2</ele>
        <time>2023-08-18T14:57:06Z</time>
      </trkpt>
      <trkpt lat="49.53284" lon="3.5417">
        <ele>122.2</ele>
        <time>2023-08-18T14:57:07Z</time>
      </trkpt>
      <trkpt lat="49.5328" lon="3.54165">
        <ele>122.2</ele>
        <time>2023-08-18T14:57:11Z</time>
      </trkpt>
      <trkpt lat="49.53278" lon="3.54162">
        <ele>122.2</ele>
        <time>2023-08-18T14:57:13Z</time>
      </trkpt>
      <trkpt lat="49.53271" lon="3.54157">
        <ele>122.2</ele>
        <time>2023-08-18T14:57:18Z</time>
      </trkpt>
      <trkpt lat="49.53263" lon="3.54155">
        <ele>122.2</ele>
        <time>2023-08-18T14:57:24Z</time>
      </trkpt>
      <trkpt lat="49.53251" lon="3.54154">
        <ele>122.2</ele>
        <time>2023-08-18T14:57:32Z</time>
      </trkpt>
      <trkpt lat="49.53249" lon="3.54153">
        <ele>122.2</ele>
        <time>2023-08-18T14:57:34Z</time>
      </trkpt>
      <trkpt lat="49.53241" lon="3.54161">
        <ele>122.2</ele>
        <time>2023-08-18T14:57:39Z</time>
      </trkpt>
      <trkpt lat="49.53237" lon="3.54164">
        <ele>122.2</ele>
        <time>2023-08-18T14:57:43Z</time>
      </trkpt>
      <trkpt lat="49.53228" lon="3.54167">
        <ele>122.2</ele>
        <time>2023-08-18T14:57:51Z</time>
      </trkpt>
      <trkpt lat="49.53215" lon="3.54171">
        <ele>122.6</ele>
        <time>2023-08-18T14:57:59Z</time>
      </trkpt>
      <trkpt lat="49.53213" lon="3.5417">
        <ele>123</ele>
        <time>2023-08-18T14:58:00Z</time>
      </trkpt>
      <trkpt lat="49.53211" lon="3.5417">
        <ele>123.4</ele>
        <time>2023-08-18T14:58:01Z</time>
      </trkpt>
      <trkpt lat="49.53209" lon="3.5417">
        <ele>123.8</ele>
        <time>2023-08-18T14:58:02Z</time>
      </trkpt>
      <trkpt lat="49.53207" lon="3.54169">
        <ele>124.2</ele>
        <time>2023-08-18T14:58:03Z</time>
      </trkpt>
      <trkpt lat="49.53205" lon="3.54169">
        <ele>124.2</ele>
        <time>2023-08-18T14:58:05Z</time>
      </trkpt>
      <trkpt lat="49.53198" lon="3.54169">
        <ele>124.2</ele>
        <time>2023-08-18T14:58:12Z</time>
      </trkpt>
      <trkpt lat="49.53196" lon="3.54171">
        <ele>124.2</ele>
        <time>2023-08-18T14:58:19Z</time>
      </trkpt>
      <trkpt lat="49.53196" lon="3.54171">
        <ele>124.2</ele>
        <time>2023-08-18T14:58:32Z</time>
      </trkpt>
      <trkpt lat="49.53196" lon="3.54171">
        <ele>124.2</ele>
        <time>2023-08-18T14:58:42Z</time>
      </trkpt>
      <trkpt lat="49.53196" lon="3.54172">
        <ele>124.2</ele>
        <time>2023-08-18T14:58:50Z</time>
      </trkpt>
      <trkpt lat="49.53193" lon="3.54175">
        <ele>124.2</ele>
        <time>2023-08-18T14:58:56Z</time>
      </trkpt>
      <trkpt lat="49.53188" lon="3.54171">
        <ele>124.2</ele>
        <time>2023-08-18T14:59:01Z</time>
      </trkpt>
      <trkpt lat="49.5318" lon="3.54169">
        <ele>124.2</ele>
        <time>2023-08-18T14:59:08Z</time>
      </trkpt>
      <trkpt lat="49.53176" lon="3.54165">
        <ele>123.8</ele>
        <time>2023-08-18T14:59:12Z</time>
      </trkpt>
      <trkpt lat="49.53175" lon="3.54164">
        <ele>123.4</ele>
        <time>2023-08-18T14:59:13Z</time>
      </trkpt>
      <trkpt lat="49.53173" lon="3.54163">
        <ele>123</ele>
        <time>2023-08-18T14:59:14Z</time>
      </trkpt>
      <trkpt lat="49.53172" lon="3.54163">
        <ele>122.6</ele>
        <time>2023-08-18T14:59:15Z</time>
      </trkpt>
      <trkpt lat="49.53171" lon="3.54162">
        <ele>122</ele>
        <time>2023-08-18T14:59:16Z</time>
      </trkpt>
      <trkpt lat="49.53161" lon="3.54161">
        <ele>122</ele>
        <time>2023-08-18T14:59:23Z</time>
      </trkpt>
      <trkpt lat="49.53156" lon="3.54159">
        <ele>122</ele>
        <time>2023-08-18T14:59:26Z</time>
      </trkpt>
      <trkpt lat="49.53152" lon="3.54157">
        <ele>122</ele>
        <time>2023-08-18T14:59:29Z</time>
      </trkpt>
      <trkpt lat="49.53151" lon="3.54156">
        <ele>121.6</ele>
        <time>2023-08-18T14:59:30Z</time>
      </trkpt>
      <trkpt lat="49.5315" lon="3.54156">
        <ele>121.2</ele>
        <time>2023-08-18T14:59:31Z</time>
      </trkpt>
      <trkpt lat="49.53149" lon="3.54155">
        <ele>120.6</ele>
        <time>2023-08-18T14:59:32Z</time>
      </trkpt>
      <trkpt lat="49.53148" lon="3.54154">
        <ele>120.2</ele>
        <time>2023-08-18T14:59:33Z</time>
      </trkpt>
      <trkpt lat="49.53147" lon="3.54154">
        <ele>119.6</ele>
        <time>2023-08-18T14:59:34Z</time>
      </trkpt>
      <trkpt lat="49.53142" lon="3.54151">
        <ele>119.6</ele>
        <time>2023-08-18T14:59:38Z</time>
      </trkpt>
      <trkpt lat="49.53135" lon="3.54147">
        <ele>119.6</ele>
        <time>2023-08-18T14:59:44Z</time>
      </trkpt>
      <trkpt lat="49.53125" lon="3.54143">
        <ele>119.6</ele>
        <time>2023-08-18T14:59:51Z</time>
      </trkpt>
      <trkpt lat="49.53123" lon="3.54142">
        <ele>119.2</ele>
        <time>2023-08-18T14:59:52Z</time>
      </trkpt>
      <trkpt lat="49.53122" lon="3.54141">
        <ele>118.8</ele>
        <time>2023-08-18T14:59:53Z</time>
      </trkpt>
      <trkpt lat="49.53121" lon="3.54141">
        <ele>118.4</ele>
        <time>2023-08-18T14:59:54Z</time>
      </trkpt>
      <trkpt lat="49.5312" lon="3.5414">
        <ele>118</ele>
        <time>2023-08-18T14:59:55Z</time>
      </trkpt>
      <trkpt lat="49.53118" lon="3.54139">
        <ele>117.6</ele>
        <time>2023-08-18T14:59:56Z</time>
      </trkpt>
      <trkpt lat="49.53108" lon="3.54134">
        <ele>117.6</ele>
        <time>2023-08-18T15:00:04Z</time>
      </trkpt>
      <trkpt lat="49.53102" lon="3.54131">
        <ele>117</ele>
        <time>2023-08-18T15:00:10Z</time>
      </trkpt>
      <trkpt lat="49.53101" lon="3.5413">
        <ele>116.6</ele>
        <time>2023-08-18T15:00:11Z</time>
      </trkpt>
      <trkpt lat="49.53099" lon="3.5413">
        <ele>116.2</ele>
        <time>2023-08-18T15:00:12Z</time>
      </trkpt>
      <trkpt lat="49.53098" lon="3.5413">
        <ele>115.8</ele>
        <time>2023-08-18T15:00:13Z</time>
      </trkpt>
      <trkpt lat="49.53098" lon="3.54129">
        <ele>115.4</ele>
        <time>2023-08-18T15:00:14Z</time>
      </trkpt>
      <trkpt lat="49.53092" lon="3.54127">
        <ele>115.4</ele>
        <time>2023-08-18T15:00:19Z</time>
      </trkpt>
      <trkpt lat="49.53085" lon="3.54123">
        <ele>115.4</ele>
        <time>2023-08-18T15:00:26Z</time>
      </trkpt>
      <trkpt lat="49.53084" lon="3.54121">
        <ele>115</ele>
        <time>2023-08-18T15:00:28Z</time>
      </trkpt>
      <trkpt lat="49.53083" lon="3.54119">
        <ele>114.6</ele>
        <time>2023-08-18T15:00:29Z</time>
      </trkpt>
      <trkpt lat="49.53082" lon="3.54118">
        <ele>114.2</ele>
        <time>2023-08-18T15:00:30Z</time>
      </trkpt>
      <trkpt lat="49.53081" lon="3.54117">
        <ele>113.8</ele>
        <time>2023-08-18T15:00:31Z</time>
      </trkpt>
      <trkpt lat="49.5308" lon="3.54116">
        <ele>113.4</ele>
        <time>2023-08-18T15:00:32Z</time>
      </trkpt>
      <trkpt lat="49.53078" lon="3.54116">
        <ele>113.4</ele>
        <time>2023-08-18T15:00:34Z</time>
      </trkpt>
      <trkpt lat="49.53069" lon="3.54114">
        <ele>113.4</ele>
        <time>2023-08-18T15:00:42Z</time>
      </trkpt>
      <trkpt lat="49.53064" lon="3.54111">
        <ele>113</ele>
        <time>2023-08-18T15:00:47Z</time>
      </trkpt>
      <trkpt lat="49.53063" lon="3.54111">
        <ele>112.6</ele>
        <time>2023-08-18T15:00:48Z</time>
      </trkpt>
      <trkpt lat="49.53062" lon="3.54111">
        <ele>112.2</ele>
        <time>2023-08-18T15:00:49Z</time>
      </trkpt>
      <trkpt lat="49.53061" lon="3.54111">
        <ele>111.8</ele>
        <time>2023-08-18T15:00:50Z</time>
      </trkpt>
      <trkpt lat="49.5306" lon="3.54111">
        <ele>111.2</ele>
        <time>2023-08-18T15:00:51Z</time>
      </trkpt>
      <trkpt lat="49.5305" lon="3.54105">
        <ele>111.2</ele>
        <time>2023-08-18T15:00:57Z</time>
      </trkpt>
      <trkpt lat="49.53041" lon="3.54098">
        <ele>110.8</ele>
        <time>2023-08-18T15:01:05Z</time>
      </trkpt>
      <trkpt lat="49.53039" lon="3.54097">
        <ele>110.4</ele>
        <time>2023-08-18T15:01:06Z</time>
      </trkpt>
      <trkpt lat="49.53038" lon="3.54096">
        <ele>110</ele>
        <time>2023-08-18T15:01:07Z</time>
      </trkpt>
      <trkpt lat="49.53037" lon="3.54096">
        <ele>109.6</ele>
        <time>2023-08-18T15:01:08Z</time>
      </trkpt>
      <trkpt lat="49.53036" lon="3.54095">
        <ele>109.2</ele>
        <time>2023-08-18T15:01:09Z</time>
      </trkpt>
      <trkpt lat="49.53033" lon="3.54093">
        <ele>109.2</ele>
        <time>2023-08-18T15:01:12Z</time>
      </trkpt>
      <trkpt lat="49.53026" lon="3.54091">
        <ele>109.2</ele>
        <time>2023-08-18T15:01:19Z</time>
      </trkpt>
      <trkpt lat="49.53023" lon="3.54089">
        <ele>109.2</ele>
        <time>2023-08-18T15:01:21Z</time>
      </trkpt>
      <trkpt lat="49.53017" lon="3.54085">
        <ele>108.8</ele>
        <time>2023-08-18T15:01:25Z</time>
      </trkpt>
      <trkpt lat="49.53016" lon="3.54083">
        <ele>108.4</ele>
        <time>2023-08-18T15:01:26Z</time>
      </trkpt>
      <trkpt lat="49.53015" lon="3.54082">
        <ele>108</ele>
        <time>2023-08-18T15:01:27Z</time>
      </trkpt>
      <trkpt lat="49.53014" lon="3.54081">
        <ele>107.6</ele>
        <time>2023-08-18T15:01:28Z</time>
      </trkpt>
      <trkpt lat="49.53013" lon="3.54081">
        <ele>107.2</ele>
        <time>2023-08-18T15:01:29Z</time>
      </trkpt>
      <trkpt lat="49.5301" lon="3.54077">
        <ele>107.2</ele>
        <time>2023-08-18T15:01:32Z</time>
      </trkpt>
      <trkpt lat="49.53002" lon="3.5407">
        <ele>107.2</ele>
        <time>2023-08-18T15:01:38Z</time>
      </trkpt>
      <trkpt lat="49.52995" lon="3.54061">
        <ele>107.2</ele>
        <time>2023-08-18T15:01:45Z</time>
      </trkpt>
      <trkpt lat="49.5299" lon="3.54054">
        <ele>107.2</ele>
        <time>2023-08-18T15:01:51Z</time>
      </trkpt>
      <trkpt lat="49.52985" lon="3.54043">
        <ele>107.2</ele>
        <time>2023-08-18T15:01:59Z</time>
      </trkpt>
      <trkpt lat="49.52983" lon="3.54037">
        <ele>107.2</ele>
        <time>2023-08-18T15:02:02Z</time>
      </trkpt>
      <trkpt lat="49.52981" lon="3.54034">
        <ele>107.2</ele>
        <time>2023-08-18T15:02:04Z</time>
      </trkpt>
      <trkpt lat="49.5298" lon="3.54032">
        <ele>106.8</ele>
        <time>2023-08-18T15:02:05Z</time>
      </trkpt>
      <trkpt lat="49.52979" lon="3.54031">
        <ele>106.4</ele>
        <time>2023-08-18T15:02:06Z</time>
      </trkpt>
      <trkpt lat="49.52978" lon="3.5403">
        <ele>106</ele>
        <time>2023-08-18T15:02:07Z</time>
      </trkpt>
      <trkpt lat="49.52978" lon="3.54029">
        <ele>105.6</ele>
        <time>2023-08-18T15:02:08Z</time>
      </trkpt>
      <trkpt lat="49.52977" lon="3.54028">
        <ele>105.2</ele>
        <time>2023-08-18T15:02:09Z</time>
      </trkpt>
      <trkpt lat="49.52975" lon="3.54024">
        <ele>105.2</ele>
        <time>2023-08-18T15:02:12Z</time>
      </trkpt>
      <trkpt lat="49.52969" lon="3.54013">
        <ele>105.2</ele>
        <time>2023-08-18T15:02:20Z</time>
      </trkpt>
      <trkpt lat="49.52968" lon="3.5401">
        <ele>105.2</ele>
        <time>2023-08-18T15:02:22Z</time>
      </trkpt>
      <trkpt lat="49.52965" lon="3.54006">
        <ele>105.2</ele>
        <time>2023-08-18T15:02:25Z</time>
      </trkpt>
      <trkpt lat="49.52965" lon="3.54005">
        <ele>105.2</ele>
        <time>2023-08-18T15:02:26Z</time>
      </trkpt>
      <trkpt lat="49.52958" lon="3.53997">
        <ele>105.2</ele>
        <time>2023-08-18T15:02:33Z</time>
      </trkpt>
      <trkpt lat="49.52951" lon="3.5399">
        <ele>105.2</ele>
        <time>2023-08-18T15:02:40Z</time>
      </trkpt>
      <trkpt lat="49.52946" lon="3.53984">
        <ele>104.6</ele>
        <time>2023-08-18T15:02:45Z</time>
      </trkpt>
      <trkpt lat="49.52945" lon="3.53983">
        <ele>104.2</ele>
        <time>2023-08-18T15:02:46Z</time>
      </trkpt>
      <trkpt lat="49.52944" lon="3.53983">
        <ele>103.8</ele>
        <time>2023-08-18T15:02:47Z</time>
      </trkpt>
      <trkpt lat="49.52942" lon="3.53982">
        <ele>103.4</ele>
        <time>2023-08-18T15:02:48Z</time>
      </trkpt>
      <trkpt lat="49.52941" lon="3.53982">
        <ele>103</ele>
        <time>2023-08-18T15:02:49Z</time>
      </trkpt>
      <trkpt lat="49.52934" lon="3.53976">
        <ele>103</ele>
        <time>2023-08-18T15:02:55Z</time>
      </trkpt>
      <trkpt lat="49.52931" lon="3.53975">
        <ele>103</ele>
        <time>2023-08-18T15:02:57Z</time>
      </trkpt>
      <trkpt lat="49.52927" lon="3.53974">
        <ele>103</ele>
        <time>2023-08-18T15:03:01Z</time>
      </trkpt>
      <trkpt lat="49.52927" lon="3.53973">
        <ele>103</ele>
        <time>2023-08-18T15:03:06Z</time>
      </trkpt>
      <trkpt lat="49.52925" lon="3.5397">
        <ele>103</ele>
        <time>2023-08-18T15:03:12Z</time>
      </trkpt>
      <trkpt lat="49.52925" lon="3.53971">
        <ele>103</ele>
        <time>2023-08-18T15:03:18Z</time>
      </trkpt>
      <trkpt lat="49.52924" lon="3.5397">
        <ele>103</ele>
        <time>2023-08-18T15:03:24Z</time>
      </trkpt>
      <trkpt lat="49.52924" lon="3.53975">
        <ele>103</ele>
        <time>2023-08-18T15:03:31Z</time>
      </trkpt>
      <trkpt lat="49.52925" lon="3.53985">
        <ele>103</ele>
        <time>2023-08-18T15:03:38Z</time>
      </trkpt>
      <trkpt lat="49.52924" lon="3.53995">
        <ele>103</ele>
        <time>2023-08-18T15:03:43Z</time>
      </trkpt>
      <trkpt lat="49.52922" lon="3.54003">
        <ele>103</ele>
        <time>2023-08-18T15:03:46Z</time>
      </trkpt>
      <trkpt lat="49.52918" lon="3.54014">
        <ele>103</ele>
        <time>2023-08-18T15:03:53Z</time>
      </trkpt>
      <trkpt lat="49.52912" lon="3.54026">
        <ele>103</ele>
        <time>2023-08-18T15:04:00Z</time>
      </trkpt>
      <trkpt lat="49.5291" lon="3.54028">
        <ele>103</ele>
        <time>2023-08-18T15:04:02Z</time>
      </trkpt>
      <trkpt lat="49.5291" lon="3.54028">
        <ele>103</ele>
        <time>2023-08-18T15:04:05Z</time>
      </trkpt>
      <trkpt lat="49.5291" lon="3.54028">
        <ele>103</ele>
        <time>2023-08-18T15:04:14Z</time>
      </trkpt>
      <trkpt lat="49.52908" lon="3.54032">
        <ele>103</ele>
        <time>2023-08-18T15:04:20Z</time>
      </trkpt>
      <trkpt lat="49.52907" lon="3.54033">
        <ele>103</ele>
        <time>2023-08-18T15:04:21Z</time>
      </trkpt>
      <trkpt lat="49.52903" lon="3.54044">
        <ele>103</ele>
        <time>2023-08-18T15:04:28Z</time>
      </trkpt>
      <trkpt lat="49.52899" lon="3.54051">
        <ele>103</ele>
        <time>2023-08-18T15:04:35Z</time>
      </trkpt>
      <trkpt lat="49.52892" lon="3.54057">
        <ele>102.2</ele>
        <time>2023-08-18T15:04:42Z</time>
      </trkpt>
      <trkpt lat="49.5289" lon="3.54058">
        <ele>101.8</ele>
        <time>2023-08-18T15:04:43Z</time>
      </trkpt>
      <trkpt lat="49.52889" lon="3.54059">
        <ele>101.4</ele>
        <time>2023-08-18T15:04:44Z</time>
      </trkpt>
      <trkpt lat="49.52888" lon="3.54061">
        <ele>101</ele>
        <time>2023-08-18T15:04:45Z</time>
      </trkpt>
      <trkpt lat="49.52885" lon="3.54066">
        <ele>101</ele>
        <time>2023-08-18T15:04:49Z</time>
      </trkpt>
      <trkpt lat="49.52883" lon="3.54076">
        <ele>101</ele>
        <time>2023-08-18T15:04:56Z</time>
      </trkpt>
      <trkpt lat="49.52882" lon="3.5408">
        <ele>101</ele>
        <time>2023-08-18T15:04:59Z</time>
      </trkpt>
    </trkseg>
  </trk>
</gpx>